<?xml version="1.0" encoding="UTF-8" standalone="no" ?>
<gpx xmlns="http://www.topografix.com/GPX/1/1" xmlns:xsi="http://www.w3.org/2001/XMLSchema-instance" xsi:schemaLocation="http://www.topografix.com/GPX/1/1 http://www.topografix.com/GPX/1/1/gpx.xsd" version="1.1" creator="VisuGPX - https://www.visugpx.com">
  <metadata>
    <name>Pic DE NORE</name>
    <desc><![CDATA[Trace AlpineQuest 24/05/2021 10:27:10 AM]]></desc>
  </metadata>
  <trk>
    <name><![CDATA[Pic DE NORE_1]]></name>
    <trkseg>
      <trkpt lat="43.41363" lon="2.41241">
        <ele>741.194</ele>
        <time>2021-05-24T08:27:10Z</time>
      </trkpt>
      <trkpt lat="43.41368" lon="2.41241">
        <ele>727.923</ele>
        <time>2021-05-24T08:27:12Z</time>
      </trkpt>
      <trkpt lat="43.4137" lon="2.41241">
        <ele>720.783</ele>
        <time>2021-05-24T08:27:14Z</time>
      </trkpt>
      <trkpt lat="43.41369" lon="2.41239">
        <ele>718.764</ele>
        <time>2021-05-24T08:27:16Z</time>
      </trkpt>
      <trkpt lat="43.41368" lon="2.41238">
        <ele>717.045</ele>
        <time>2021-05-24T08:27:18Z</time>
      </trkpt>
      <trkpt lat="43.41368" lon="2.41237">
        <ele>716.842</ele>
        <time>2021-05-24T08:27:20Z</time>
      </trkpt>
      <trkpt lat="43.41367" lon="2.41236">
        <ele>717.576</ele>
        <time>2021-05-24T08:27:22Z</time>
      </trkpt>
      <trkpt lat="43.41367" lon="2.41236">
        <ele>717.759</ele>
        <time>2021-05-24T08:27:24Z</time>
      </trkpt>
      <trkpt lat="43.41367" lon="2.41236">
        <ele>717.929</ele>
        <time>2021-05-24T08:27:26Z</time>
      </trkpt>
      <trkpt lat="43.41367" lon="2.41236">
        <ele>718.088</ele>
        <time>2021-05-24T08:27:28Z</time>
      </trkpt>
      <trkpt lat="43.41367" lon="2.41236">
        <ele>718.113</ele>
        <time>2021-05-24T08:27:30Z</time>
      </trkpt>
      <trkpt lat="43.41366" lon="2.41237">
        <ele>717.963</ele>
        <time>2021-05-24T08:27:32Z</time>
      </trkpt>
      <trkpt lat="43.41365" lon="2.41237">
        <ele>717.564</ele>
        <time>2021-05-24T08:27:34Z</time>
      </trkpt>
      <trkpt lat="43.41365" lon="2.41238">
        <ele>716.986</ele>
        <time>2021-05-24T08:27:36Z</time>
      </trkpt>
      <trkpt lat="43.41365" lon="2.41238">
        <ele>716.295</ele>
        <time>2021-05-24T08:27:38Z</time>
      </trkpt>
      <trkpt lat="43.41364" lon="2.41238">
        <ele>715.832</ele>
        <time>2021-05-24T08:27:40Z</time>
      </trkpt>
      <trkpt lat="43.41364" lon="2.41238">
        <ele>715.467</ele>
        <time>2021-05-24T08:27:42Z</time>
      </trkpt>
      <trkpt lat="43.41364" lon="2.41239">
        <ele>715.274</ele>
        <time>2021-05-24T08:27:44Z</time>
      </trkpt>
      <trkpt lat="43.41364" lon="2.41239">
        <ele>715.282</ele>
        <time>2021-05-24T08:27:46Z</time>
      </trkpt>
      <trkpt lat="43.41364" lon="2.41239">
        <ele>715.285</ele>
        <time>2021-05-24T08:27:48Z</time>
      </trkpt>
      <trkpt lat="43.41364" lon="2.41239">
        <ele>715.283</ele>
        <time>2021-05-24T08:27:50Z</time>
      </trkpt>
      <trkpt lat="43.41364" lon="2.41239">
        <ele>715.287</ele>
        <time>2021-05-24T08:27:52Z</time>
      </trkpt>
      <trkpt lat="43.41364" lon="2.41239">
        <ele>715.28</ele>
        <time>2021-05-24T08:27:54Z</time>
      </trkpt>
      <trkpt lat="43.41364" lon="2.41239">
        <ele>715.278</ele>
        <time>2021-05-24T08:27:56Z</time>
      </trkpt>
      <trkpt lat="43.41364" lon="2.41239">
        <ele>715.274</ele>
        <time>2021-05-24T08:27:58Z</time>
      </trkpt>
      <trkpt lat="43.41364" lon="2.41239">
        <ele>715.27</ele>
        <time>2021-05-24T08:28:00Z</time>
      </trkpt>
      <trkpt lat="43.41364" lon="2.41239">
        <ele>715.27</ele>
        <time>2021-05-24T08:28:02Z</time>
      </trkpt>
      <trkpt lat="43.41364" lon="2.41239">
        <ele>715.265</ele>
        <time>2021-05-24T08:28:04Z</time>
      </trkpt>
      <trkpt lat="43.41364" lon="2.41239">
        <ele>715.263</ele>
        <time>2021-05-24T08:28:06Z</time>
      </trkpt>
      <trkpt lat="43.41364" lon="2.41239">
        <ele>715.264</ele>
        <time>2021-05-24T08:28:08Z</time>
      </trkpt>
      <trkpt lat="43.41364" lon="2.41239">
        <ele>715.266</ele>
        <time>2021-05-24T08:28:10Z</time>
      </trkpt>
      <trkpt lat="43.41364" lon="2.41239">
        <ele>715.263</ele>
        <time>2021-05-24T08:28:12Z</time>
      </trkpt>
      <trkpt lat="43.41364" lon="2.41239">
        <ele>715.257</ele>
        <time>2021-05-24T08:28:14Z</time>
      </trkpt>
      <trkpt lat="43.41364" lon="2.41239">
        <ele>715.249</ele>
        <time>2021-05-24T08:28:16Z</time>
      </trkpt>
      <trkpt lat="43.41364" lon="2.41239">
        <ele>715.247</ele>
        <time>2021-05-24T08:28:18Z</time>
      </trkpt>
      <trkpt lat="43.41364" lon="2.41239">
        <ele>715.25</ele>
        <time>2021-05-24T08:28:20Z</time>
      </trkpt>
      <trkpt lat="43.41364" lon="2.41239">
        <ele>715.248</ele>
        <time>2021-05-24T08:28:22Z</time>
      </trkpt>
      <trkpt lat="43.41364" lon="2.41239">
        <ele>715.246</ele>
        <time>2021-05-24T08:28:24Z</time>
      </trkpt>
      <trkpt lat="43.41364" lon="2.41239">
        <ele>715.25</ele>
        <time>2021-05-24T08:28:26Z</time>
      </trkpt>
      <trkpt lat="43.41364" lon="2.41239">
        <ele>715.251</ele>
        <time>2021-05-24T08:28:28Z</time>
      </trkpt>
      <trkpt lat="43.41364" lon="2.41239">
        <ele>715.25</ele>
        <time>2021-05-24T08:28:30Z</time>
      </trkpt>
      <trkpt lat="43.41364" lon="2.41239">
        <ele>715.248</ele>
        <time>2021-05-24T08:28:32Z</time>
      </trkpt>
      <trkpt lat="43.41364" lon="2.41239">
        <ele>715.247</ele>
        <time>2021-05-24T08:28:34Z</time>
      </trkpt>
      <trkpt lat="43.41364" lon="2.41239">
        <ele>715.247</ele>
        <time>2021-05-24T08:28:36Z</time>
      </trkpt>
      <trkpt lat="43.41364" lon="2.41239">
        <ele>715.247</ele>
        <time>2021-05-24T08:28:38Z</time>
      </trkpt>
      <trkpt lat="43.41364" lon="2.41239">
        <ele>715.241</ele>
        <time>2021-05-24T08:28:40Z</time>
      </trkpt>
      <trkpt lat="43.41364" lon="2.41239">
        <ele>715.234</ele>
        <time>2021-05-24T08:28:42Z</time>
      </trkpt>
      <trkpt lat="43.41364" lon="2.41239">
        <ele>715.231</ele>
        <time>2021-05-24T08:28:44Z</time>
      </trkpt>
      <trkpt lat="43.41364" lon="2.41239">
        <ele>715.234</ele>
        <time>2021-05-24T08:28:46Z</time>
      </trkpt>
      <trkpt lat="43.41364" lon="2.41239">
        <ele>715.237</ele>
        <time>2021-05-24T08:28:48Z</time>
      </trkpt>
      <trkpt lat="43.41364" lon="2.41239">
        <ele>715.236</ele>
        <time>2021-05-24T08:28:50Z</time>
      </trkpt>
      <trkpt lat="43.41364" lon="2.41239">
        <ele>715.236</ele>
        <time>2021-05-24T08:28:52Z</time>
      </trkpt>
      <trkpt lat="43.41364" lon="2.41239">
        <ele>715.237</ele>
        <time>2021-05-24T08:28:54Z</time>
      </trkpt>
      <trkpt lat="43.41364" lon="2.41239">
        <ele>715.237</ele>
        <time>2021-05-24T08:28:56Z</time>
      </trkpt>
      <trkpt lat="43.41363" lon="2.41239">
        <ele>715.341</ele>
        <time>2021-05-24T08:28:58Z</time>
      </trkpt>
      <trkpt lat="43.41364" lon="2.4124">
        <ele>715.435</ele>
        <time>2021-05-24T08:29:00Z</time>
      </trkpt>
      <trkpt lat="43.41363" lon="2.4124">
        <ele>715.779</ele>
        <time>2021-05-24T08:29:02Z</time>
      </trkpt>
      <trkpt lat="43.41363" lon="2.4124">
        <ele>715.463</ele>
        <time>2021-05-24T08:29:04Z</time>
      </trkpt>
      <trkpt lat="43.41364" lon="2.4124">
        <ele>715.988</ele>
        <time>2021-05-24T08:29:06Z</time>
      </trkpt>
      <trkpt lat="43.41364" lon="2.41241">
        <ele>715.53</ele>
        <time>2021-05-24T08:29:08Z</time>
      </trkpt>
      <trkpt lat="43.41364" lon="2.41241">
        <ele>715.43</ele>
        <time>2021-05-24T08:29:10Z</time>
      </trkpt>
      <trkpt lat="43.41364" lon="2.41241">
        <ele>715.521</ele>
        <time>2021-05-24T08:29:12Z</time>
      </trkpt>
      <trkpt lat="43.41364" lon="2.41241">
        <ele>715.532</ele>
        <time>2021-05-24T08:29:14Z</time>
      </trkpt>
      <trkpt lat="43.41363" lon="2.41241">
        <ele>715.546</ele>
        <time>2021-05-24T08:29:16Z</time>
      </trkpt>
      <trkpt lat="43.41363" lon="2.41241">
        <ele>715.643</ele>
        <time>2021-05-24T08:29:18Z</time>
      </trkpt>
      <trkpt lat="43.41363" lon="2.41241">
        <ele>715.711</ele>
        <time>2021-05-24T08:29:20Z</time>
      </trkpt>
      <trkpt lat="43.41363" lon="2.4124">
        <ele>715.468</ele>
        <time>2021-05-24T08:29:22Z</time>
      </trkpt>
      <trkpt lat="43.41363" lon="2.41238">
        <ele>715.555</ele>
        <time>2021-05-24T08:29:24Z</time>
      </trkpt>
      <trkpt lat="43.41364" lon="2.41237">
        <ele>715.025</ele>
        <time>2021-05-24T08:29:26Z</time>
      </trkpt>
      <trkpt lat="43.41364" lon="2.41237">
        <ele>714.454</ele>
        <time>2021-05-24T08:29:28Z</time>
      </trkpt>
      <trkpt lat="43.41364" lon="2.41236">
        <ele>714.039</ele>
        <time>2021-05-24T08:29:30Z</time>
      </trkpt>
      <trkpt lat="43.41364" lon="2.41236">
        <ele>713.78</ele>
        <time>2021-05-24T08:29:32Z</time>
      </trkpt>
      <trkpt lat="43.41364" lon="2.41236">
        <ele>713.395</ele>
        <time>2021-05-24T08:29:34Z</time>
      </trkpt>
      <trkpt lat="43.41364" lon="2.41236">
        <ele>713.222</ele>
        <time>2021-05-24T08:29:36Z</time>
      </trkpt>
      <trkpt lat="43.41364" lon="2.41236">
        <ele>713.356</ele>
        <time>2021-05-24T08:29:38Z</time>
      </trkpt>
      <trkpt lat="43.41363" lon="2.41237">
        <ele>712.773</ele>
        <time>2021-05-24T08:29:40Z</time>
      </trkpt>
      <trkpt lat="43.41362" lon="2.41238">
        <ele>712.672</ele>
        <time>2021-05-24T08:29:42Z</time>
      </trkpt>
      <trkpt lat="43.41362" lon="2.41239">
        <ele>711.731</ele>
        <time>2021-05-24T08:29:44Z</time>
      </trkpt>
      <trkpt lat="43.41362" lon="2.41239">
        <ele>711.698</ele>
        <time>2021-05-24T08:29:46Z</time>
      </trkpt>
      <trkpt lat="43.41362" lon="2.4124">
        <ele>711.504</ele>
        <time>2021-05-24T08:29:48Z</time>
      </trkpt>
      <trkpt lat="43.41362" lon="2.4124">
        <ele>711.689</ele>
        <time>2021-05-24T08:29:50Z</time>
      </trkpt>
      <trkpt lat="43.41362" lon="2.41239">
        <ele>711.72</ele>
        <time>2021-05-24T08:29:52Z</time>
      </trkpt>
      <trkpt lat="43.41362" lon="2.41239">
        <ele>711.785</ele>
        <time>2021-05-24T08:29:54Z</time>
      </trkpt>
      <trkpt lat="43.41362" lon="2.41239">
        <ele>711.838</ele>
        <time>2021-05-24T08:29:56Z</time>
      </trkpt>
      <trkpt lat="43.41362" lon="2.41239">
        <ele>711.838</ele>
        <time>2021-05-24T08:29:58Z</time>
      </trkpt>
      <trkpt lat="43.41362" lon="2.41239">
        <ele>711.852</ele>
        <time>2021-05-24T08:30:00Z</time>
      </trkpt>
      <trkpt lat="43.41362" lon="2.41239">
        <ele>711.853</ele>
        <time>2021-05-24T08:30:02Z</time>
      </trkpt>
      <trkpt lat="43.41362" lon="2.41239">
        <ele>711.848</ele>
        <time>2021-05-24T08:30:04Z</time>
      </trkpt>
      <trkpt lat="43.41362" lon="2.41239">
        <ele>711.905</ele>
        <time>2021-05-24T08:30:06Z</time>
      </trkpt>
      <trkpt lat="43.41362" lon="2.41239">
        <ele>711.952</ele>
        <time>2021-05-24T08:30:08Z</time>
      </trkpt>
      <trkpt lat="43.41362" lon="2.41239">
        <ele>711.958</ele>
        <time>2021-05-24T08:30:10Z</time>
      </trkpt>
      <trkpt lat="43.41362" lon="2.41239">
        <ele>711.967</ele>
        <time>2021-05-24T08:30:12Z</time>
      </trkpt>
      <trkpt lat="43.41362" lon="2.41239">
        <ele>711.981</ele>
        <time>2021-05-24T08:30:14Z</time>
      </trkpt>
      <trkpt lat="43.41362" lon="2.41239">
        <ele>711.99</ele>
        <time>2021-05-24T08:30:16Z</time>
      </trkpt>
      <trkpt lat="43.41362" lon="2.41239">
        <ele>711.999</ele>
        <time>2021-05-24T08:30:18Z</time>
      </trkpt>
      <trkpt lat="43.41362" lon="2.41239">
        <ele>712.005</ele>
        <time>2021-05-24T08:30:20Z</time>
      </trkpt>
      <trkpt lat="43.41362" lon="2.41239">
        <ele>712.009</ele>
        <time>2021-05-24T08:30:22Z</time>
      </trkpt>
      <trkpt lat="43.41362" lon="2.41239">
        <ele>712.013</ele>
        <time>2021-05-24T08:30:24Z</time>
      </trkpt>
      <trkpt lat="43.41362" lon="2.41239">
        <ele>712.011</ele>
        <time>2021-05-24T08:30:26Z</time>
      </trkpt>
      <trkpt lat="43.41362" lon="2.41239">
        <ele>712.013</ele>
        <time>2021-05-24T08:30:28Z</time>
      </trkpt>
      <trkpt lat="43.41362" lon="2.41239">
        <ele>712.015</ele>
        <time>2021-05-24T08:30:30Z</time>
      </trkpt>
      <trkpt lat="43.41362" lon="2.41239">
        <ele>712.018</ele>
        <time>2021-05-24T08:30:32Z</time>
      </trkpt>
      <trkpt lat="43.41362" lon="2.41239">
        <ele>712.022</ele>
        <time>2021-05-24T08:30:34Z</time>
      </trkpt>
      <trkpt lat="43.41362" lon="2.41239">
        <ele>712.031</ele>
        <time>2021-05-24T08:30:36Z</time>
      </trkpt>
      <trkpt lat="43.41362" lon="2.4124">
        <ele>712.038</ele>
        <time>2021-05-24T08:30:38Z</time>
      </trkpt>
      <trkpt lat="43.41362" lon="2.4124">
        <ele>712.039</ele>
        <time>2021-05-24T08:30:40Z</time>
      </trkpt>
      <trkpt lat="43.41362" lon="2.4124">
        <ele>712.041</ele>
        <time>2021-05-24T08:30:42Z</time>
      </trkpt>
      <trkpt lat="43.41363" lon="2.4124">
        <ele>711.19</ele>
        <time>2021-05-24T08:30:44Z</time>
      </trkpt>
      <trkpt lat="43.41363" lon="2.41239">
        <ele>711.974</ele>
        <time>2021-05-24T08:30:46Z</time>
      </trkpt>
      <trkpt lat="43.41362" lon="2.4124">
        <ele>711.37</ele>
        <time>2021-05-24T08:30:48Z</time>
      </trkpt>
      <trkpt lat="43.41362" lon="2.4124">
        <ele>711.25</ele>
        <time>2021-05-24T08:30:50Z</time>
      </trkpt>
      <trkpt lat="43.41362" lon="2.41241">
        <ele>711.775</ele>
        <time>2021-05-24T08:30:52Z</time>
      </trkpt>
      <trkpt lat="43.41362" lon="2.41241">
        <ele>711.975</ele>
        <time>2021-05-24T08:30:54Z</time>
      </trkpt>
      <trkpt lat="43.41362" lon="2.41241">
        <ele>711.852</ele>
        <time>2021-05-24T08:30:56Z</time>
      </trkpt>
      <trkpt lat="43.41362" lon="2.4124">
        <ele>711.877</ele>
        <time>2021-05-24T08:30:58Z</time>
      </trkpt>
      <trkpt lat="43.41362" lon="2.4124">
        <ele>711.954</ele>
        <time>2021-05-24T08:31:00Z</time>
      </trkpt>
      <trkpt lat="43.41363" lon="2.4124">
        <ele>712.135</ele>
        <time>2021-05-24T08:31:02Z</time>
      </trkpt>
      <trkpt lat="43.41363" lon="2.4124">
        <ele>712.095</ele>
        <time>2021-05-24T08:31:04Z</time>
      </trkpt>
      <trkpt lat="43.41363" lon="2.4124">
        <ele>712.109</ele>
        <time>2021-05-24T08:31:06Z</time>
      </trkpt>
      <trkpt lat="43.41363" lon="2.41239">
        <ele>710.987</ele>
        <time>2021-05-24T08:31:08Z</time>
      </trkpt>
      <trkpt lat="43.41364" lon="2.41239">
        <ele>711.23</ele>
        <time>2021-05-24T08:31:10Z</time>
      </trkpt>
      <trkpt lat="43.41364" lon="2.4124">
        <ele>711.264</ele>
        <time>2021-05-24T08:31:12Z</time>
      </trkpt>
      <trkpt lat="43.41364" lon="2.4124">
        <ele>710.797</ele>
        <time>2021-05-24T08:31:14Z</time>
      </trkpt>
      <trkpt lat="43.41364" lon="2.4124">
        <ele>710.244</ele>
        <time>2021-05-24T08:31:16Z</time>
      </trkpt>
      <trkpt lat="43.41364" lon="2.4124">
        <ele>709.859</ele>
        <time>2021-05-24T08:31:18Z</time>
      </trkpt>
      <trkpt lat="43.41364" lon="2.4124">
        <ele>710.042</ele>
        <time>2021-05-24T08:31:20Z</time>
      </trkpt>
      <trkpt lat="43.41364" lon="2.4124">
        <ele>710.05</ele>
        <time>2021-05-24T08:31:22Z</time>
      </trkpt>
      <trkpt lat="43.41364" lon="2.4124">
        <ele>710.065</ele>
        <time>2021-05-24T08:31:24Z</time>
      </trkpt>
      <trkpt lat="43.41364" lon="2.4124">
        <ele>710.076</ele>
        <time>2021-05-24T08:31:26Z</time>
      </trkpt>
      <trkpt lat="43.41364" lon="2.4124">
        <ele>710.084</ele>
        <time>2021-05-24T08:31:28Z</time>
      </trkpt>
      <trkpt lat="43.41364" lon="2.4124">
        <ele>710.084</ele>
        <time>2021-05-24T08:31:30Z</time>
      </trkpt>
      <trkpt lat="43.41364" lon="2.4124">
        <ele>710.083</ele>
        <time>2021-05-24T08:31:32Z</time>
      </trkpt>
      <trkpt lat="43.41364" lon="2.4124">
        <ele>710.083</ele>
        <time>2021-05-24T08:31:34Z</time>
      </trkpt>
      <trkpt lat="43.41364" lon="2.4124">
        <ele>710.098</ele>
        <time>2021-05-24T08:31:36Z</time>
      </trkpt>
      <trkpt lat="43.41364" lon="2.4124">
        <ele>710.103</ele>
        <time>2021-05-24T08:31:38Z</time>
      </trkpt>
      <trkpt lat="43.41364" lon="2.4124">
        <ele>710.103</ele>
        <time>2021-05-24T08:31:40Z</time>
      </trkpt>
      <trkpt lat="43.41364" lon="2.4124">
        <ele>709.761</ele>
        <time>2021-05-24T08:31:42Z</time>
      </trkpt>
      <trkpt lat="43.41364" lon="2.4124">
        <ele>709.454</ele>
        <time>2021-05-24T08:31:44Z</time>
      </trkpt>
      <trkpt lat="43.41364" lon="2.4124">
        <ele>709.822</ele>
        <time>2021-05-24T08:31:46Z</time>
      </trkpt>
      <trkpt lat="43.41364" lon="2.4124">
        <ele>710.368</ele>
        <time>2021-05-24T08:31:48Z</time>
      </trkpt>
      <trkpt lat="43.41364" lon="2.41241">
        <ele>711.143</ele>
        <time>2021-05-24T08:31:50Z</time>
      </trkpt>
      <trkpt lat="43.41363" lon="2.41241">
        <ele>711.593</ele>
        <time>2021-05-24T08:31:52Z</time>
      </trkpt>
      <trkpt lat="43.41363" lon="2.41241">
        <ele>711.342</ele>
        <time>2021-05-24T08:31:54Z</time>
      </trkpt>
      <trkpt lat="43.41363" lon="2.41241">
        <ele>711.212</ele>
        <time>2021-05-24T08:31:56Z</time>
      </trkpt>
      <trkpt lat="43.41363" lon="2.41241">
        <ele>711.438</ele>
        <time>2021-05-24T08:31:58Z</time>
      </trkpt>
      <trkpt lat="43.41363" lon="2.41241">
        <ele>711.922</ele>
        <time>2021-05-24T08:32:00Z</time>
      </trkpt>
      <trkpt lat="43.41365" lon="2.41241">
        <ele>711.755</ele>
        <time>2021-05-24T08:32:02Z</time>
      </trkpt>
      <trkpt lat="43.41365" lon="2.4124">
        <ele>711.095</ele>
        <time>2021-05-24T08:32:04Z</time>
      </trkpt>
      <trkpt lat="43.41365" lon="2.41238">
        <ele>711.19</ele>
        <time>2021-05-24T08:32:06Z</time>
      </trkpt>
      <trkpt lat="43.41366" lon="2.41238">
        <ele>711.266</ele>
        <time>2021-05-24T08:32:08Z</time>
      </trkpt>
      <trkpt lat="43.41366" lon="2.41239">
        <ele>710.934</ele>
        <time>2021-05-24T08:32:10Z</time>
      </trkpt>
      <trkpt lat="43.41367" lon="2.41239">
        <ele>710.817</ele>
        <time>2021-05-24T08:32:12Z</time>
      </trkpt>
      <trkpt lat="43.41367" lon="2.41239">
        <ele>710.875</ele>
        <time>2021-05-24T08:32:14Z</time>
      </trkpt>
      <trkpt lat="43.41367" lon="2.4124">
        <ele>711.106</ele>
        <time>2021-05-24T08:32:16Z</time>
      </trkpt>
      <trkpt lat="43.41367" lon="2.41238">
        <ele>711.085</ele>
        <time>2021-05-24T08:32:18Z</time>
      </trkpt>
      <trkpt lat="43.41366" lon="2.41238">
        <ele>712.017</ele>
        <time>2021-05-24T08:32:20Z</time>
      </trkpt>
      <trkpt lat="43.41365" lon="2.41238">
        <ele>712.875</ele>
        <time>2021-05-24T08:32:22Z</time>
      </trkpt>
      <trkpt lat="43.41364" lon="2.41239">
        <ele>712.22</ele>
        <time>2021-05-24T08:32:24Z</time>
      </trkpt>
      <trkpt lat="43.41363" lon="2.41238">
        <ele>711.366</ele>
        <time>2021-05-24T08:32:26Z</time>
      </trkpt>
      <trkpt lat="43.41363" lon="2.41236">
        <ele>711.806</ele>
        <time>2021-05-24T08:32:28Z</time>
      </trkpt>
      <trkpt lat="43.41363" lon="2.41236">
        <ele>711.704</ele>
        <time>2021-05-24T08:32:30Z</time>
      </trkpt>
      <trkpt lat="43.41363" lon="2.41234">
        <ele>712.149</ele>
        <time>2021-05-24T08:32:32Z</time>
      </trkpt>
      <trkpt lat="43.41363" lon="2.41234">
        <ele>712.061</ele>
        <time>2021-05-24T08:32:34Z</time>
      </trkpt>
      <trkpt lat="43.41363" lon="2.41234">
        <ele>712.085</ele>
        <time>2021-05-24T08:32:36Z</time>
      </trkpt>
      <trkpt lat="43.41363" lon="2.41234">
        <ele>712.351</ele>
        <time>2021-05-24T08:32:38Z</time>
      </trkpt>
      <trkpt lat="43.41363" lon="2.41234">
        <ele>712.406</ele>
        <time>2021-05-24T08:32:40Z</time>
      </trkpt>
      <trkpt lat="43.41363" lon="2.41234">
        <ele>712.41</ele>
        <time>2021-05-24T08:32:42Z</time>
      </trkpt>
      <trkpt lat="43.41363" lon="2.41234">
        <ele>712.435</ele>
        <time>2021-05-24T08:32:44Z</time>
      </trkpt>
      <trkpt lat="43.41363" lon="2.41234">
        <ele>712.438</ele>
        <time>2021-05-24T08:32:46Z</time>
      </trkpt>
      <trkpt lat="43.41363" lon="2.41236">
        <ele>711.622</ele>
        <time>2021-05-24T08:32:48Z</time>
      </trkpt>
      <trkpt lat="43.41363" lon="2.41239">
        <ele>710.952</ele>
        <time>2021-05-24T08:32:50Z</time>
      </trkpt>
      <trkpt lat="43.41363" lon="2.41239">
        <ele>710.674</ele>
        <time>2021-05-24T08:32:52Z</time>
      </trkpt>
      <trkpt lat="43.41363" lon="2.41238">
        <ele>710.703</ele>
        <time>2021-05-24T08:32:54Z</time>
      </trkpt>
      <trkpt lat="43.41362" lon="2.41237">
        <ele>710.584</ele>
        <time>2021-05-24T08:32:56Z</time>
      </trkpt>
      <trkpt lat="43.41361" lon="2.41237">
        <ele>710.597</ele>
        <time>2021-05-24T08:32:58Z</time>
      </trkpt>
      <trkpt lat="43.41361" lon="2.41238">
        <ele>710.712</ele>
        <time>2021-05-24T08:33:00Z</time>
      </trkpt>
      <trkpt lat="43.4136" lon="2.41239">
        <ele>710.287</ele>
        <time>2021-05-24T08:33:02Z</time>
      </trkpt>
      <trkpt lat="43.4136" lon="2.41239">
        <ele>710.378</ele>
        <time>2021-05-24T08:33:04Z</time>
      </trkpt>
      <trkpt lat="43.41361" lon="2.41238">
        <ele>710.479</ele>
        <time>2021-05-24T08:33:06Z</time>
      </trkpt>
      <trkpt lat="43.41361" lon="2.41238">
        <ele>710.193</ele>
        <time>2021-05-24T08:33:08Z</time>
      </trkpt>
      <trkpt lat="43.41361" lon="2.41238">
        <ele>710.074</ele>
        <time>2021-05-24T08:33:10Z</time>
      </trkpt>
      <trkpt lat="43.41361" lon="2.41238">
        <ele>710.074</ele>
        <time>2021-05-24T08:33:12Z</time>
      </trkpt>
      <trkpt lat="43.41361" lon="2.41238">
        <ele>710.074</ele>
        <time>2021-05-24T08:33:14Z</time>
      </trkpt>
      <trkpt lat="43.41361" lon="2.41238">
        <ele>710.078</ele>
        <time>2021-05-24T08:33:16Z</time>
      </trkpt>
      <trkpt lat="43.41361" lon="2.41238">
        <ele>710.079</ele>
        <time>2021-05-24T08:33:18Z</time>
      </trkpt>
      <trkpt lat="43.41361" lon="2.41238">
        <ele>710.085</ele>
        <time>2021-05-24T08:33:20Z</time>
      </trkpt>
      <trkpt lat="43.41361" lon="2.41238">
        <ele>710.081</ele>
        <time>2021-05-24T08:33:22Z</time>
      </trkpt>
      <trkpt lat="43.41361" lon="2.41238">
        <ele>710.085</ele>
        <time>2021-05-24T08:33:24Z</time>
      </trkpt>
      <trkpt lat="43.41361" lon="2.41238">
        <ele>710.319</ele>
        <time>2021-05-24T08:33:26Z</time>
      </trkpt>
      <trkpt lat="43.41361" lon="2.41238">
        <ele>710.282</ele>
        <time>2021-05-24T08:33:28Z</time>
      </trkpt>
      <trkpt lat="43.41361" lon="2.41238">
        <ele>710.291</ele>
        <time>2021-05-24T08:33:30Z</time>
      </trkpt>
      <trkpt lat="43.41361" lon="2.41238">
        <ele>710.297</ele>
        <time>2021-05-24T08:33:32Z</time>
      </trkpt>
      <trkpt lat="43.41361" lon="2.41238">
        <ele>710.298</ele>
        <time>2021-05-24T08:33:34Z</time>
      </trkpt>
      <trkpt lat="43.41361" lon="2.41238">
        <ele>710.307</ele>
        <time>2021-05-24T08:33:36Z</time>
      </trkpt>
      <trkpt lat="43.41361" lon="2.41238">
        <ele>710.31</ele>
        <time>2021-05-24T08:33:38Z</time>
      </trkpt>
      <trkpt lat="43.41361" lon="2.41238">
        <ele>710.317</ele>
        <time>2021-05-24T08:33:40Z</time>
      </trkpt>
      <trkpt lat="43.41361" lon="2.41238">
        <ele>710.324</ele>
        <time>2021-05-24T08:33:42Z</time>
      </trkpt>
      <trkpt lat="43.41361" lon="2.41238">
        <ele>710.326</ele>
        <time>2021-05-24T08:33:44Z</time>
      </trkpt>
      <trkpt lat="43.41361" lon="2.41238">
        <ele>710.329</ele>
        <time>2021-05-24T08:33:46Z</time>
      </trkpt>
      <trkpt lat="43.41361" lon="2.41238">
        <ele>710.354</ele>
        <time>2021-05-24T08:33:48Z</time>
      </trkpt>
      <trkpt lat="43.41361" lon="2.41238">
        <ele>710.367</ele>
        <time>2021-05-24T08:33:50Z</time>
      </trkpt>
      <trkpt lat="43.41361" lon="2.41238">
        <ele>710.375</ele>
        <time>2021-05-24T08:33:52Z</time>
      </trkpt>
      <trkpt lat="43.41361" lon="2.41238">
        <ele>710.381</ele>
        <time>2021-05-24T08:33:54Z</time>
      </trkpt>
      <trkpt lat="43.41361" lon="2.41238">
        <ele>710.381</ele>
        <time>2021-05-24T08:33:56Z</time>
      </trkpt>
      <trkpt lat="43.41361" lon="2.41238">
        <ele>710.382</ele>
        <time>2021-05-24T08:33:58Z</time>
      </trkpt>
      <trkpt lat="43.41361" lon="2.41238">
        <ele>710.384</ele>
        <time>2021-05-24T08:34:00Z</time>
      </trkpt>
      <trkpt lat="43.41361" lon="2.41238">
        <ele>710.384</ele>
        <time>2021-05-24T08:34:02Z</time>
      </trkpt>
      <trkpt lat="43.41362" lon="2.41239">
        <ele>710.438</ele>
        <time>2021-05-24T08:34:04Z</time>
      </trkpt>
      <trkpt lat="43.41362" lon="2.41239">
        <ele>710.856</ele>
        <time>2021-05-24T08:34:06Z</time>
      </trkpt>
      <trkpt lat="43.41362" lon="2.41239">
        <ele>710.949</ele>
        <time>2021-05-24T08:34:08Z</time>
      </trkpt>
      <trkpt lat="43.41362" lon="2.41239">
        <ele>710.95</ele>
        <time>2021-05-24T08:34:10Z</time>
      </trkpt>
      <trkpt lat="43.41362" lon="2.41239">
        <ele>710.949</ele>
        <time>2021-05-24T08:34:12Z</time>
      </trkpt>
      <trkpt lat="43.41362" lon="2.41239">
        <ele>710.949</ele>
        <time>2021-05-24T08:34:14Z</time>
      </trkpt>
      <trkpt lat="43.41362" lon="2.41239">
        <ele>710.95</ele>
        <time>2021-05-24T08:34:16Z</time>
      </trkpt>
      <trkpt lat="43.41362" lon="2.41239">
        <ele>710.954</ele>
        <time>2021-05-24T08:34:18Z</time>
      </trkpt>
      <trkpt lat="43.41362" lon="2.41238">
        <ele>711.494</ele>
        <time>2021-05-24T08:34:20Z</time>
      </trkpt>
      <trkpt lat="43.41362" lon="2.41238">
        <ele>711.071</ele>
        <time>2021-05-24T08:34:22Z</time>
      </trkpt>
      <trkpt lat="43.41362" lon="2.41238">
        <ele>711.072</ele>
        <time>2021-05-24T08:34:24Z</time>
      </trkpt>
      <trkpt lat="43.41362" lon="2.41238">
        <ele>711.011</ele>
        <time>2021-05-24T08:34:26Z</time>
      </trkpt>
      <trkpt lat="43.41361" lon="2.41238">
        <ele>711.003</ele>
        <time>2021-05-24T08:34:28Z</time>
      </trkpt>
      <trkpt lat="43.41361" lon="2.41238">
        <ele>711.005</ele>
        <time>2021-05-24T08:34:30Z</time>
      </trkpt>
      <trkpt lat="43.41361" lon="2.41238">
        <ele>711.201</ele>
        <time>2021-05-24T08:34:32Z</time>
      </trkpt>
      <trkpt lat="43.41362" lon="2.41239">
        <ele>711.084</ele>
        <time>2021-05-24T08:34:34Z</time>
      </trkpt>
      <trkpt lat="43.41362" lon="2.41239">
        <ele>711.276</ele>
        <time>2021-05-24T08:34:36Z</time>
      </trkpt>
      <trkpt lat="43.41362" lon="2.4124">
        <ele>711.722</ele>
        <time>2021-05-24T08:34:38Z</time>
      </trkpt>
      <trkpt lat="43.41362" lon="2.4124">
        <ele>711.802</ele>
        <time>2021-05-24T08:34:40Z</time>
      </trkpt>
      <trkpt lat="43.41362" lon="2.41241">
        <ele>712.392</ele>
        <time>2021-05-24T08:34:42Z</time>
      </trkpt>
      <trkpt lat="43.41363" lon="2.41241">
        <ele>712.653</ele>
        <time>2021-05-24T08:34:44Z</time>
      </trkpt>
      <trkpt lat="43.41363" lon="2.41241">
        <ele>712.612</ele>
        <time>2021-05-24T08:34:46Z</time>
      </trkpt>
      <trkpt lat="43.41363" lon="2.41241">
        <ele>712.633</ele>
        <time>2021-05-24T08:34:48Z</time>
      </trkpt>
      <trkpt lat="43.41363" lon="2.41241">
        <ele>712.58</ele>
        <time>2021-05-24T08:34:50Z</time>
      </trkpt>
      <trkpt lat="43.41364" lon="2.4124">
        <ele>712.459</ele>
        <time>2021-05-24T08:34:52Z</time>
      </trkpt>
      <trkpt lat="43.41364" lon="2.41241">
        <ele>712.582</ele>
        <time>2021-05-24T08:34:54Z</time>
      </trkpt>
      <trkpt lat="43.41364" lon="2.41241">
        <ele>712.584</ele>
        <time>2021-05-24T08:34:56Z</time>
      </trkpt>
      <trkpt lat="43.41364" lon="2.41241">
        <ele>712.585</ele>
        <time>2021-05-24T08:34:58Z</time>
      </trkpt>
      <trkpt lat="43.41364" lon="2.41241">
        <ele>712.589</ele>
        <time>2021-05-24T08:35:00Z</time>
      </trkpt>
      <trkpt lat="43.41364" lon="2.41241">
        <ele>712.704</ele>
        <time>2021-05-24T08:35:02Z</time>
      </trkpt>
      <trkpt lat="43.41364" lon="2.41241">
        <ele>712.709</ele>
        <time>2021-05-24T08:35:04Z</time>
      </trkpt>
      <trkpt lat="43.41364" lon="2.41241">
        <ele>712.709</ele>
        <time>2021-05-24T08:35:06Z</time>
      </trkpt>
      <trkpt lat="43.41364" lon="2.41241">
        <ele>712.714</ele>
        <time>2021-05-24T08:35:08Z</time>
      </trkpt>
      <trkpt lat="43.41364" lon="2.41241">
        <ele>712.722</ele>
        <time>2021-05-24T08:35:10Z</time>
      </trkpt>
      <trkpt lat="43.41364" lon="2.41241">
        <ele>712.33</ele>
        <time>2021-05-24T08:35:12Z</time>
      </trkpt>
      <trkpt lat="43.41364" lon="2.41241">
        <ele>712.052</ele>
        <time>2021-05-24T08:35:14Z</time>
      </trkpt>
      <trkpt lat="43.41365" lon="2.4124">
        <ele>709.812</ele>
        <time>2021-05-24T08:35:16Z</time>
      </trkpt>
      <trkpt lat="43.41365" lon="2.4124">
        <ele>710.407</ele>
        <time>2021-05-24T08:35:18Z</time>
      </trkpt>
      <trkpt lat="43.41366" lon="2.4124">
        <ele>710.412</ele>
        <time>2021-05-24T08:35:20Z</time>
      </trkpt>
      <trkpt lat="43.41367" lon="2.4124">
        <ele>710.064</ele>
        <time>2021-05-24T08:35:22Z</time>
      </trkpt>
      <trkpt lat="43.41367" lon="2.41239">
        <ele>710.585</ele>
        <time>2021-05-24T08:35:24Z</time>
      </trkpt>
      <trkpt lat="43.41367" lon="2.41238">
        <ele>710.247</ele>
        <time>2021-05-24T08:35:26Z</time>
      </trkpt>
      <trkpt lat="43.41368" lon="2.41237">
        <ele>709.997</ele>
        <time>2021-05-24T08:35:28Z</time>
      </trkpt>
      <trkpt lat="43.41369" lon="2.41236">
        <ele>709.758</ele>
        <time>2021-05-24T08:35:30Z</time>
      </trkpt>
      <trkpt lat="43.41369" lon="2.41233">
        <ele>710.286</ele>
        <time>2021-05-24T08:35:32Z</time>
      </trkpt>
      <trkpt lat="43.4137" lon="2.41231">
        <ele>710.213</ele>
        <time>2021-05-24T08:35:34Z</time>
      </trkpt>
      <trkpt lat="43.41372" lon="2.4123">
        <ele>710.038</ele>
        <time>2021-05-24T08:35:36Z</time>
      </trkpt>
      <trkpt lat="43.41373" lon="2.41228">
        <ele>710.498</ele>
        <time>2021-05-24T08:35:38Z</time>
      </trkpt>
      <trkpt lat="43.41373" lon="2.41227">
        <ele>709.417</ele>
        <time>2021-05-24T08:35:40Z</time>
      </trkpt>
      <trkpt lat="43.41374" lon="2.41228">
        <ele>706.793</ele>
        <time>2021-05-24T08:35:42Z</time>
      </trkpt>
      <trkpt lat="43.41374" lon="2.41228">
        <ele>706.205</ele>
        <time>2021-05-24T08:35:44Z</time>
      </trkpt>
      <trkpt lat="43.41375" lon="2.41226">
        <ele>706.543</ele>
        <time>2021-05-24T08:35:46Z</time>
      </trkpt>
      <trkpt lat="43.41374" lon="2.41225">
        <ele>707.162</ele>
        <time>2021-05-24T08:35:48Z</time>
      </trkpt>
      <trkpt lat="43.41373" lon="2.41225">
        <ele>707.389</ele>
        <time>2021-05-24T08:35:50Z</time>
      </trkpt>
      <trkpt lat="43.41373" lon="2.41225">
        <ele>707.406</ele>
        <time>2021-05-24T08:35:52Z</time>
      </trkpt>
      <trkpt lat="43.41372" lon="2.41223">
        <ele>708.588</ele>
        <time>2021-05-24T08:35:54Z</time>
      </trkpt>
      <trkpt lat="43.41373" lon="2.41223">
        <ele>709.156</ele>
        <time>2021-05-24T08:35:56Z</time>
      </trkpt>
      <trkpt lat="43.41374" lon="2.41221">
        <ele>708.889</ele>
        <time>2021-05-24T08:35:58Z</time>
      </trkpt>
      <trkpt lat="43.41374" lon="2.4122">
        <ele>707.953</ele>
        <time>2021-05-24T08:36:00Z</time>
      </trkpt>
      <trkpt lat="43.41373" lon="2.41219">
        <ele>708.305</ele>
        <time>2021-05-24T08:36:02Z</time>
      </trkpt>
      <trkpt lat="43.41373" lon="2.41219">
        <ele>708.788</ele>
        <time>2021-05-24T08:36:04Z</time>
      </trkpt>
      <trkpt lat="43.41374" lon="2.41219">
        <ele>709.225</ele>
        <time>2021-05-24T08:36:06Z</time>
      </trkpt>
      <trkpt lat="43.41374" lon="2.41219">
        <ele>708.667</ele>
        <time>2021-05-24T08:36:08Z</time>
      </trkpt>
      <trkpt lat="43.41374" lon="2.41219">
        <ele>708.661</ele>
        <time>2021-05-24T08:36:10Z</time>
      </trkpt>
      <trkpt lat="43.41374" lon="2.41219">
        <ele>708.645</ele>
        <time>2021-05-24T08:36:12Z</time>
      </trkpt>
      <trkpt lat="43.41374" lon="2.41219">
        <ele>708.647</ele>
        <time>2021-05-24T08:36:14Z</time>
      </trkpt>
      <trkpt lat="43.41374" lon="2.41219">
        <ele>708.972</ele>
        <time>2021-05-24T08:36:16Z</time>
      </trkpt>
      <trkpt lat="43.41374" lon="2.41219">
        <ele>709.043</ele>
        <time>2021-05-24T08:36:18Z</time>
      </trkpt>
      <trkpt lat="43.41374" lon="2.41219">
        <ele>709.032</ele>
        <time>2021-05-24T08:36:20Z</time>
      </trkpt>
      <trkpt lat="43.41374" lon="2.41219">
        <ele>709.171</ele>
        <time>2021-05-24T08:36:22Z</time>
      </trkpt>
      <trkpt lat="43.41375" lon="2.41217">
        <ele>711.289</ele>
        <time>2021-05-24T08:36:24Z</time>
      </trkpt>
      <trkpt lat="43.41375" lon="2.41217">
        <ele>711.241</ele>
        <time>2021-05-24T08:36:26Z</time>
      </trkpt>
      <trkpt lat="43.41376" lon="2.41217">
        <ele>711.271</ele>
        <time>2021-05-24T08:36:28Z</time>
      </trkpt>
      <trkpt lat="43.41376" lon="2.41217">
        <ele>711.417</ele>
        <time>2021-05-24T08:36:29Z</time>
      </trkpt>
      <trkpt lat="43.41376" lon="2.41213">
        <ele>712.512</ele>
        <time>2021-05-24T08:36:32Z</time>
      </trkpt>
      <trkpt lat="43.41376" lon="2.41211">
        <ele>713.298</ele>
        <time>2021-05-24T08:36:34Z</time>
      </trkpt>
      <trkpt lat="43.41376" lon="2.41211">
        <ele>713.324</ele>
        <time>2021-05-24T08:36:36Z</time>
      </trkpt>
      <trkpt lat="43.41375" lon="2.4121">
        <ele>714.24</ele>
        <time>2021-05-24T08:36:38Z</time>
      </trkpt>
      <trkpt lat="43.41375" lon="2.4121">
        <ele>714.245</ele>
        <time>2021-05-24T08:36:40Z</time>
      </trkpt>
      <trkpt lat="43.41375" lon="2.4121">
        <ele>714.24</ele>
        <time>2021-05-24T08:36:42Z</time>
      </trkpt>
      <trkpt lat="43.41375" lon="2.4121">
        <ele>714.236</ele>
        <time>2021-05-24T08:36:44Z</time>
      </trkpt>
      <trkpt lat="43.41375" lon="2.4121">
        <ele>714.235</ele>
        <time>2021-05-24T08:36:46Z</time>
      </trkpt>
      <trkpt lat="43.41375" lon="2.41209">
        <ele>714.504</ele>
        <time>2021-05-24T08:36:48Z</time>
      </trkpt>
      <trkpt lat="43.41375" lon="2.41209">
        <ele>714.516</ele>
        <time>2021-05-24T08:36:50Z</time>
      </trkpt>
      <trkpt lat="43.41375" lon="2.41209">
        <ele>714.521</ele>
        <time>2021-05-24T08:36:52Z</time>
      </trkpt>
      <trkpt lat="43.41375" lon="2.41209">
        <ele>714.503</ele>
        <time>2021-05-24T08:36:54Z</time>
      </trkpt>
      <trkpt lat="43.41375" lon="2.41209">
        <ele>714.478</ele>
        <time>2021-05-24T08:36:56Z</time>
      </trkpt>
      <trkpt lat="43.41375" lon="2.41209">
        <ele>714.484</ele>
        <time>2021-05-24T08:36:58Z</time>
      </trkpt>
      <trkpt lat="43.41375" lon="2.41209">
        <ele>714.485</ele>
        <time>2021-05-24T08:37:00Z</time>
      </trkpt>
      <trkpt lat="43.41375" lon="2.41209">
        <ele>714.491</ele>
        <time>2021-05-24T08:37:02Z</time>
      </trkpt>
      <trkpt lat="43.41375" lon="2.41209">
        <ele>714.488</ele>
        <time>2021-05-24T08:37:04Z</time>
      </trkpt>
      <trkpt lat="43.41375" lon="2.41209">
        <ele>714.5</ele>
        <time>2021-05-24T08:37:06Z</time>
      </trkpt>
      <trkpt lat="43.41375" lon="2.41209">
        <ele>714.511</ele>
        <time>2021-05-24T08:37:08Z</time>
      </trkpt>
      <trkpt lat="43.41375" lon="2.41209">
        <ele>714.517</ele>
        <time>2021-05-24T08:37:10Z</time>
      </trkpt>
      <trkpt lat="43.41376" lon="2.41209">
        <ele>714.41</ele>
        <time>2021-05-24T08:37:12Z</time>
      </trkpt>
      <trkpt lat="43.41376" lon="2.41209">
        <ele>714.96</ele>
        <time>2021-05-24T08:37:14Z</time>
      </trkpt>
      <trkpt lat="43.41376" lon="2.41208">
        <ele>714.305</ele>
        <time>2021-05-24T08:37:16Z</time>
      </trkpt>
      <trkpt lat="43.41375" lon="2.41208">
        <ele>715.099</ele>
        <time>2021-05-24T08:37:18Z</time>
      </trkpt>
      <trkpt lat="43.41375" lon="2.41208">
        <ele>715.557</ele>
        <time>2021-05-24T08:37:20Z</time>
      </trkpt>
      <trkpt lat="43.41375" lon="2.41208">
        <ele>715.524</ele>
        <time>2021-05-24T08:37:22Z</time>
      </trkpt>
      <trkpt lat="43.41375" lon="2.41207">
        <ele>715.983</ele>
        <time>2021-05-24T08:37:24Z</time>
      </trkpt>
      <trkpt lat="43.41374" lon="2.41207">
        <ele>715.813</ele>
        <time>2021-05-24T08:37:26Z</time>
      </trkpt>
      <trkpt lat="43.41374" lon="2.41206">
        <ele>715.85</ele>
        <time>2021-05-24T08:37:28Z</time>
      </trkpt>
      <trkpt lat="43.41375" lon="2.41203">
        <ele>716.449</ele>
        <time>2021-05-24T08:37:30Z</time>
      </trkpt>
      <trkpt lat="43.41374" lon="2.412">
        <ele>716.835</ele>
        <time>2021-05-24T08:37:32Z</time>
      </trkpt>
      <trkpt lat="43.41375" lon="2.41198">
        <ele>716.515</ele>
        <time>2021-05-24T08:37:34Z</time>
      </trkpt>
      <trkpt lat="43.41375" lon="2.41195">
        <ele>717.008</ele>
        <time>2021-05-24T08:37:36Z</time>
      </trkpt>
      <trkpt lat="43.41376" lon="2.41192">
        <ele>716.046</ele>
        <time>2021-05-24T08:37:38Z</time>
      </trkpt>
      <trkpt lat="43.41377" lon="2.4119">
        <ele>716.361</ele>
        <time>2021-05-24T08:37:40Z</time>
      </trkpt>
      <trkpt lat="43.41377" lon="2.41187">
        <ele>716.289</ele>
        <time>2021-05-24T08:37:42Z</time>
      </trkpt>
      <trkpt lat="43.41377" lon="2.41185">
        <ele>716.792</ele>
        <time>2021-05-24T08:37:44Z</time>
      </trkpt>
      <trkpt lat="43.41377" lon="2.41182">
        <ele>716.977</ele>
        <time>2021-05-24T08:37:46Z</time>
      </trkpt>
      <trkpt lat="43.41378" lon="2.41179">
        <ele>716.536</ele>
        <time>2021-05-24T08:37:48Z</time>
      </trkpt>
      <trkpt lat="43.41378" lon="2.41176">
        <ele>716.176</ele>
        <time>2021-05-24T08:37:50Z</time>
      </trkpt>
      <trkpt lat="43.41379" lon="2.41173">
        <ele>716.118</ele>
        <time>2021-05-24T08:37:52Z</time>
      </trkpt>
      <trkpt lat="43.4138" lon="2.41171">
        <ele>715.877</ele>
        <time>2021-05-24T08:37:54Z</time>
      </trkpt>
      <trkpt lat="43.41381" lon="2.41168">
        <ele>715.921</ele>
        <time>2021-05-24T08:37:56Z</time>
      </trkpt>
      <trkpt lat="43.41384" lon="2.41168">
        <ele>715.337</ele>
        <time>2021-05-24T08:37:58Z</time>
      </trkpt>
      <trkpt lat="43.41384" lon="2.41172">
        <ele>715.725</ele>
        <time>2021-05-24T08:38:00Z</time>
      </trkpt>
      <trkpt lat="43.41383" lon="2.41175">
        <ele>715.206</ele>
        <time>2021-05-24T08:38:02Z</time>
      </trkpt>
      <trkpt lat="43.41382" lon="2.41177">
        <ele>714.621</ele>
        <time>2021-05-24T08:38:04Z</time>
      </trkpt>
      <trkpt lat="43.41381" lon="2.4118">
        <ele>714.499</ele>
        <time>2021-05-24T08:38:06Z</time>
      </trkpt>
      <trkpt lat="43.4138" lon="2.41183">
        <ele>715.2</ele>
        <time>2021-05-24T08:38:08Z</time>
      </trkpt>
      <trkpt lat="43.4138" lon="2.41186">
        <ele>715.342</ele>
        <time>2021-05-24T08:38:10Z</time>
      </trkpt>
      <trkpt lat="43.41379" lon="2.41188">
        <ele>714.813</ele>
        <time>2021-05-24T08:38:12Z</time>
      </trkpt>
      <trkpt lat="43.41378" lon="2.41191">
        <ele>714.991</ele>
        <time>2021-05-24T08:38:14Z</time>
      </trkpt>
      <trkpt lat="43.41377" lon="2.41195">
        <ele>714.89</ele>
        <time>2021-05-24T08:38:16Z</time>
      </trkpt>
      <trkpt lat="43.41377" lon="2.41198">
        <ele>715.008</ele>
        <time>2021-05-24T08:38:18Z</time>
      </trkpt>
      <trkpt lat="43.41377" lon="2.41202">
        <ele>714.855</ele>
        <time>2021-05-24T08:38:20Z</time>
      </trkpt>
      <trkpt lat="43.41379" lon="2.41204">
        <ele>715.271</ele>
        <time>2021-05-24T08:38:22Z</time>
      </trkpt>
      <trkpt lat="43.41381" lon="2.41204">
        <ele>715.243</ele>
        <time>2021-05-24T08:38:24Z</time>
      </trkpt>
      <trkpt lat="43.41383" lon="2.41203">
        <ele>714.839</ele>
        <time>2021-05-24T08:38:26Z</time>
      </trkpt>
      <trkpt lat="43.41385" lon="2.41201">
        <ele>715.354</ele>
        <time>2021-05-24T08:38:28Z</time>
      </trkpt>
      <trkpt lat="43.41386" lon="2.41199">
        <ele>715.349</ele>
        <time>2021-05-24T08:38:30Z</time>
      </trkpt>
      <trkpt lat="43.41388" lon="2.41196">
        <ele>715.092</ele>
        <time>2021-05-24T08:38:32Z</time>
      </trkpt>
      <trkpt lat="43.41389" lon="2.41194">
        <ele>715.032</ele>
        <time>2021-05-24T08:38:34Z</time>
      </trkpt>
      <trkpt lat="43.41391" lon="2.41191">
        <ele>715.186</ele>
        <time>2021-05-24T08:38:36Z</time>
      </trkpt>
      <trkpt lat="43.41392" lon="2.41189">
        <ele>715.215</ele>
        <time>2021-05-24T08:38:38Z</time>
      </trkpt>
      <trkpt lat="43.41394" lon="2.41187">
        <ele>715.122</ele>
        <time>2021-05-24T08:38:40Z</time>
      </trkpt>
      <trkpt lat="43.41395" lon="2.41184">
        <ele>715.12</ele>
        <time>2021-05-24T08:38:42Z</time>
      </trkpt>
      <trkpt lat="43.41397" lon="2.41182">
        <ele>714.115</ele>
        <time>2021-05-24T08:38:44Z</time>
      </trkpt>
      <trkpt lat="43.41399" lon="2.4118">
        <ele>713.799</ele>
        <time>2021-05-24T08:38:46Z</time>
      </trkpt>
      <trkpt lat="43.414" lon="2.41176">
        <ele>713.653</ele>
        <time>2021-05-24T08:38:48Z</time>
      </trkpt>
      <trkpt lat="43.414" lon="2.41173">
        <ele>714.729</ele>
        <time>2021-05-24T08:38:50Z</time>
      </trkpt>
      <trkpt lat="43.414" lon="2.41171">
        <ele>714.788</ele>
        <time>2021-05-24T08:38:52Z</time>
      </trkpt>
      <trkpt lat="43.41401" lon="2.41168">
        <ele>715.292</ele>
        <time>2021-05-24T08:38:54Z</time>
      </trkpt>
      <trkpt lat="43.41402" lon="2.41165">
        <ele>715.594</ele>
        <time>2021-05-24T08:38:56Z</time>
      </trkpt>
      <trkpt lat="43.41402" lon="2.41162">
        <ele>715.347</ele>
        <time>2021-05-24T08:38:58Z</time>
      </trkpt>
      <trkpt lat="43.41402" lon="2.41159">
        <ele>716.258</ele>
        <time>2021-05-24T08:39:00Z</time>
      </trkpt>
      <trkpt lat="43.41403" lon="2.41156">
        <ele>717.932</ele>
        <time>2021-05-24T08:39:02Z</time>
      </trkpt>
      <trkpt lat="43.41405" lon="2.41153">
        <ele>719.106</ele>
        <time>2021-05-24T08:39:04Z</time>
      </trkpt>
      <trkpt lat="43.41406" lon="2.4115">
        <ele>719.07</ele>
        <time>2021-05-24T08:39:06Z</time>
      </trkpt>
      <trkpt lat="43.41407" lon="2.41147">
        <ele>719.101</ele>
        <time>2021-05-24T08:39:08Z</time>
      </trkpt>
      <trkpt lat="43.41409" lon="2.41144">
        <ele>717.699</ele>
        <time>2021-05-24T08:39:10Z</time>
      </trkpt>
      <trkpt lat="43.4141" lon="2.41142">
        <ele>717.491</ele>
        <time>2021-05-24T08:39:12Z</time>
      </trkpt>
      <trkpt lat="43.4141" lon="2.41139">
        <ele>717.312</ele>
        <time>2021-05-24T08:39:14Z</time>
      </trkpt>
      <trkpt lat="43.41411" lon="2.41137">
        <ele>717.1</ele>
        <time>2021-05-24T08:39:16Z</time>
      </trkpt>
      <trkpt lat="43.41412" lon="2.41133">
        <ele>717.376</ele>
        <time>2021-05-24T08:39:18Z</time>
      </trkpt>
      <trkpt lat="43.41413" lon="2.4113">
        <ele>717.469</ele>
        <time>2021-05-24T08:39:20Z</time>
      </trkpt>
      <trkpt lat="43.41414" lon="2.41126">
        <ele>717.892</ele>
        <time>2021-05-24T08:39:22Z</time>
      </trkpt>
      <trkpt lat="43.41415" lon="2.41123">
        <ele>718.711</ele>
        <time>2021-05-24T08:39:24Z</time>
      </trkpt>
      <trkpt lat="43.41416" lon="2.4112">
        <ele>718.611</ele>
        <time>2021-05-24T08:39:26Z</time>
      </trkpt>
      <trkpt lat="43.41416" lon="2.41118">
        <ele>719.682</ele>
        <time>2021-05-24T08:39:28Z</time>
      </trkpt>
      <trkpt lat="43.41418" lon="2.41115">
        <ele>720.812</ele>
        <time>2021-05-24T08:39:30Z</time>
      </trkpt>
      <trkpt lat="43.41419" lon="2.41112">
        <ele>722.447</ele>
        <time>2021-05-24T08:39:32Z</time>
      </trkpt>
      <trkpt lat="43.4142" lon="2.4111">
        <ele>721.846</ele>
        <time>2021-05-24T08:39:34Z</time>
      </trkpt>
      <trkpt lat="43.41421" lon="2.41108">
        <ele>722.337</ele>
        <time>2021-05-24T08:39:36Z</time>
      </trkpt>
      <trkpt lat="43.41423" lon="2.41106">
        <ele>722.12</ele>
        <time>2021-05-24T08:39:38Z</time>
      </trkpt>
      <trkpt lat="43.41424" lon="2.41104">
        <ele>722.291</ele>
        <time>2021-05-24T08:39:40Z</time>
      </trkpt>
      <trkpt lat="43.41425" lon="2.41102">
        <ele>722.818</ele>
        <time>2021-05-24T08:39:42Z</time>
      </trkpt>
      <trkpt lat="43.41426" lon="2.41099">
        <ele>723.033</ele>
        <time>2021-05-24T08:39:44Z</time>
      </trkpt>
      <trkpt lat="43.41427" lon="2.41097">
        <ele>723.502</ele>
        <time>2021-05-24T08:39:46Z</time>
      </trkpt>
      <trkpt lat="43.41429" lon="2.41095">
        <ele>723.401</ele>
        <time>2021-05-24T08:39:48Z</time>
      </trkpt>
      <trkpt lat="43.4143" lon="2.41092">
        <ele>722.623</ele>
        <time>2021-05-24T08:39:50Z</time>
      </trkpt>
      <trkpt lat="43.41431" lon="2.4109">
        <ele>722.605</ele>
        <time>2021-05-24T08:39:52Z</time>
      </trkpt>
      <trkpt lat="43.41432" lon="2.41087">
        <ele>723.149</ele>
        <time>2021-05-24T08:39:54Z</time>
      </trkpt>
      <trkpt lat="43.41433" lon="2.41085">
        <ele>722.724</ele>
        <time>2021-05-24T08:39:56Z</time>
      </trkpt>
      <trkpt lat="43.41435" lon="2.41083">
        <ele>722.696</ele>
        <time>2021-05-24T08:39:58Z</time>
      </trkpt>
      <trkpt lat="43.41435" lon="2.4108">
        <ele>722.18</ele>
        <time>2021-05-24T08:40:00Z</time>
      </trkpt>
      <trkpt lat="43.41437" lon="2.41078">
        <ele>722.971</ele>
        <time>2021-05-24T08:40:02Z</time>
      </trkpt>
      <trkpt lat="43.41439" lon="2.41076">
        <ele>724.103</ele>
        <time>2021-05-24T08:40:04Z</time>
      </trkpt>
      <trkpt lat="43.41441" lon="2.41073">
        <ele>724.747</ele>
        <time>2021-05-24T08:40:06Z</time>
      </trkpt>
      <trkpt lat="43.41443" lon="2.4107">
        <ele>724.596</ele>
        <time>2021-05-24T08:40:08Z</time>
      </trkpt>
      <trkpt lat="43.41445" lon="2.41068">
        <ele>724.274</ele>
        <time>2021-05-24T08:40:10Z</time>
      </trkpt>
      <trkpt lat="43.41445" lon="2.41066">
        <ele>724.69</ele>
        <time>2021-05-24T08:40:12Z</time>
      </trkpt>
      <trkpt lat="43.41447" lon="2.41064">
        <ele>725.085</ele>
        <time>2021-05-24T08:40:14Z</time>
      </trkpt>
      <trkpt lat="43.41449" lon="2.41062">
        <ele>725.027</ele>
        <time>2021-05-24T08:40:16Z</time>
      </trkpt>
      <trkpt lat="43.4145" lon="2.41059">
        <ele>724.227</ele>
        <time>2021-05-24T08:40:18Z</time>
      </trkpt>
      <trkpt lat="43.41452" lon="2.41058">
        <ele>724.426</ele>
        <time>2021-05-24T08:40:20Z</time>
      </trkpt>
      <trkpt lat="43.41454" lon="2.41056">
        <ele>723.982</ele>
        <time>2021-05-24T08:40:22Z</time>
      </trkpt>
      <trkpt lat="43.41456" lon="2.41054">
        <ele>723.632</ele>
        <time>2021-05-24T08:40:24Z</time>
      </trkpt>
      <trkpt lat="43.41458" lon="2.41052">
        <ele>723.257</ele>
        <time>2021-05-24T08:40:26Z</time>
      </trkpt>
      <trkpt lat="43.4146" lon="2.4105">
        <ele>722.708</ele>
        <time>2021-05-24T08:40:28Z</time>
      </trkpt>
      <trkpt lat="43.41462" lon="2.41048">
        <ele>723.458</ele>
        <time>2021-05-24T08:40:30Z</time>
      </trkpt>
      <trkpt lat="43.41464" lon="2.41046">
        <ele>723.976</ele>
        <time>2021-05-24T08:40:32Z</time>
      </trkpt>
      <trkpt lat="43.41466" lon="2.41044">
        <ele>723.334</ele>
        <time>2021-05-24T08:40:34Z</time>
      </trkpt>
      <trkpt lat="43.41468" lon="2.41042">
        <ele>723.421</ele>
        <time>2021-05-24T08:40:36Z</time>
      </trkpt>
      <trkpt lat="43.4147" lon="2.4104">
        <ele>724.437</ele>
        <time>2021-05-24T08:40:38Z</time>
      </trkpt>
      <trkpt lat="43.41471" lon="2.41038">
        <ele>724.3</ele>
        <time>2021-05-24T08:40:40Z</time>
      </trkpt>
      <trkpt lat="43.41473" lon="2.41036">
        <ele>724.61</ele>
        <time>2021-05-24T08:40:42Z</time>
      </trkpt>
      <trkpt lat="43.41475" lon="2.41035">
        <ele>724.845</ele>
        <time>2021-05-24T08:40:44Z</time>
      </trkpt>
      <trkpt lat="43.41477" lon="2.41034">
        <ele>725.072</ele>
        <time>2021-05-24T08:40:46Z</time>
      </trkpt>
      <trkpt lat="43.41479" lon="2.41032">
        <ele>725.228</ele>
        <time>2021-05-24T08:40:48Z</time>
      </trkpt>
      <trkpt lat="43.41482" lon="2.41031">
        <ele>726.022</ele>
        <time>2021-05-24T08:40:50Z</time>
      </trkpt>
      <trkpt lat="43.41484" lon="2.4103">
        <ele>726.631</ele>
        <time>2021-05-24T08:40:52Z</time>
      </trkpt>
      <trkpt lat="43.41486" lon="2.4103">
        <ele>727.872</ele>
        <time>2021-05-24T08:40:54Z</time>
      </trkpt>
      <trkpt lat="43.41488" lon="2.4103">
        <ele>728.636</ele>
        <time>2021-05-24T08:40:56Z</time>
      </trkpt>
      <trkpt lat="43.41491" lon="2.41029">
        <ele>730.027</ele>
        <time>2021-05-24T08:40:58Z</time>
      </trkpt>
      <trkpt lat="43.41493" lon="2.41029">
        <ele>731.066</ele>
        <time>2021-05-24T08:41:00Z</time>
      </trkpt>
      <trkpt lat="43.41496" lon="2.41028">
        <ele>730.081</ele>
        <time>2021-05-24T08:41:02Z</time>
      </trkpt>
      <trkpt lat="43.41498" lon="2.41027">
        <ele>729.957</ele>
        <time>2021-05-24T08:41:04Z</time>
      </trkpt>
      <trkpt lat="43.41499" lon="2.41028">
        <ele>730.183</ele>
        <time>2021-05-24T08:41:06Z</time>
      </trkpt>
      <trkpt lat="43.415" lon="2.41031">
        <ele>730.189</ele>
        <time>2021-05-24T08:41:08Z</time>
      </trkpt>
      <trkpt lat="43.415" lon="2.41034">
        <ele>730.753</ele>
        <time>2021-05-24T08:41:10Z</time>
      </trkpt>
      <trkpt lat="43.415" lon="2.41038">
        <ele>730.653</ele>
        <time>2021-05-24T08:41:12Z</time>
      </trkpt>
      <trkpt lat="43.41499" lon="2.41041">
        <ele>730.062</ele>
        <time>2021-05-24T08:41:14Z</time>
      </trkpt>
      <trkpt lat="43.41499" lon="2.41043">
        <ele>730.094</ele>
        <time>2021-05-24T08:41:16Z</time>
      </trkpt>
      <trkpt lat="43.41498" lon="2.41045">
        <ele>730.089</ele>
        <time>2021-05-24T08:41:18Z</time>
      </trkpt>
      <trkpt lat="43.41498" lon="2.41048">
        <ele>730.46</ele>
        <time>2021-05-24T08:41:20Z</time>
      </trkpt>
      <trkpt lat="43.41497" lon="2.4105">
        <ele>730.511</ele>
        <time>2021-05-24T08:41:22Z</time>
      </trkpt>
      <trkpt lat="43.41495" lon="2.41052">
        <ele>731.614</ele>
        <time>2021-05-24T08:41:24Z</time>
      </trkpt>
      <trkpt lat="43.41493" lon="2.41054">
        <ele>732.482</ele>
        <time>2021-05-24T08:41:26Z</time>
      </trkpt>
      <trkpt lat="43.41492" lon="2.41055">
        <ele>732.356</ele>
        <time>2021-05-24T08:41:28Z</time>
      </trkpt>
      <trkpt lat="43.41491" lon="2.41057">
        <ele>732.273</ele>
        <time>2021-05-24T08:41:30Z</time>
      </trkpt>
      <trkpt lat="43.4149" lon="2.4106">
        <ele>733.534</ele>
        <time>2021-05-24T08:41:32Z</time>
      </trkpt>
      <trkpt lat="43.41488" lon="2.41063">
        <ele>734.393</ele>
        <time>2021-05-24T08:41:34Z</time>
      </trkpt>
      <trkpt lat="43.41486" lon="2.41066">
        <ele>734.919</ele>
        <time>2021-05-24T08:41:36Z</time>
      </trkpt>
      <trkpt lat="43.41485" lon="2.41068">
        <ele>735.064</ele>
        <time>2021-05-24T08:41:38Z</time>
      </trkpt>
      <trkpt lat="43.41484" lon="2.4107">
        <ele>735.072</ele>
        <time>2021-05-24T08:41:40Z</time>
      </trkpt>
      <trkpt lat="43.41482" lon="2.41073">
        <ele>735.259</ele>
        <time>2021-05-24T08:41:42Z</time>
      </trkpt>
      <trkpt lat="43.41481" lon="2.41076">
        <ele>735.604</ele>
        <time>2021-05-24T08:41:44Z</time>
      </trkpt>
      <trkpt lat="43.4148" lon="2.41079">
        <ele>736.469</ele>
        <time>2021-05-24T08:41:46Z</time>
      </trkpt>
      <trkpt lat="43.41479" lon="2.41081">
        <ele>736.491</ele>
        <time>2021-05-24T08:41:48Z</time>
      </trkpt>
      <trkpt lat="43.41478" lon="2.41085">
        <ele>737.04</ele>
        <time>2021-05-24T08:41:50Z</time>
      </trkpt>
      <trkpt lat="43.41477" lon="2.41087">
        <ele>737.288</ele>
        <time>2021-05-24T08:41:52Z</time>
      </trkpt>
      <trkpt lat="43.41477" lon="2.41089">
        <ele>737.548</ele>
        <time>2021-05-24T08:41:54Z</time>
      </trkpt>
      <trkpt lat="43.41476" lon="2.41092">
        <ele>738.011</ele>
        <time>2021-05-24T08:41:56Z</time>
      </trkpt>
      <trkpt lat="43.41475" lon="2.41095">
        <ele>738.801</ele>
        <time>2021-05-24T08:41:58Z</time>
      </trkpt>
      <trkpt lat="43.41475" lon="2.41099">
        <ele>738.686</ele>
        <time>2021-05-24T08:42:01Z</time>
      </trkpt>
      <trkpt lat="43.41475" lon="2.41101">
        <ele>738.622</ele>
        <time>2021-05-24T08:42:03Z</time>
      </trkpt>
      <trkpt lat="43.41476" lon="2.41104">
        <ele>738.731</ele>
        <time>2021-05-24T08:42:05Z</time>
      </trkpt>
      <trkpt lat="43.41476" lon="2.41106">
        <ele>739.072</ele>
        <time>2021-05-24T08:42:07Z</time>
      </trkpt>
      <trkpt lat="43.41477" lon="2.41109">
        <ele>738.754</ele>
        <time>2021-05-24T08:42:09Z</time>
      </trkpt>
      <trkpt lat="43.41479" lon="2.41111">
        <ele>738.366</ele>
        <time>2021-05-24T08:42:11Z</time>
      </trkpt>
      <trkpt lat="43.4148" lon="2.41113">
        <ele>738.148</ele>
        <time>2021-05-24T08:42:13Z</time>
      </trkpt>
      <trkpt lat="43.41482" lon="2.41113">
        <ele>738.291</ele>
        <time>2021-05-24T08:42:15Z</time>
      </trkpt>
      <trkpt lat="43.41484" lon="2.41112">
        <ele>738.545</ele>
        <time>2021-05-24T08:42:17Z</time>
      </trkpt>
      <trkpt lat="43.41486" lon="2.41111">
        <ele>738.427</ele>
        <time>2021-05-24T08:42:19Z</time>
      </trkpt>
      <trkpt lat="43.41488" lon="2.4111">
        <ele>739.31</ele>
        <time>2021-05-24T08:42:21Z</time>
      </trkpt>
      <trkpt lat="43.41489" lon="2.41108">
        <ele>739.277</ele>
        <time>2021-05-24T08:42:23Z</time>
      </trkpt>
      <trkpt lat="43.4149" lon="2.41106">
        <ele>739.271</ele>
        <time>2021-05-24T08:42:25Z</time>
      </trkpt>
      <trkpt lat="43.41492" lon="2.41105">
        <ele>739.438</ele>
        <time>2021-05-24T08:42:27Z</time>
      </trkpt>
      <trkpt lat="43.41494" lon="2.41103">
        <ele>739.606</ele>
        <time>2021-05-24T08:42:29Z</time>
      </trkpt>
      <trkpt lat="43.41496" lon="2.41103">
        <ele>740.657</ele>
        <time>2021-05-24T08:42:31Z</time>
      </trkpt>
      <trkpt lat="43.41497" lon="2.41101">
        <ele>740.882</ele>
        <time>2021-05-24T08:42:33Z</time>
      </trkpt>
      <trkpt lat="43.41499" lon="2.411">
        <ele>741.692</ele>
        <time>2021-05-24T08:42:35Z</time>
      </trkpt>
      <trkpt lat="43.41501" lon="2.411">
        <ele>741.953</ele>
        <time>2021-05-24T08:42:37Z</time>
      </trkpt>
      <trkpt lat="43.41503" lon="2.41099">
        <ele>742.806</ele>
        <time>2021-05-24T08:42:39Z</time>
      </trkpt>
      <trkpt lat="43.41505" lon="2.41099">
        <ele>742.006</ele>
        <time>2021-05-24T08:42:41Z</time>
      </trkpt>
      <trkpt lat="43.41506" lon="2.41101">
        <ele>741.354</ele>
        <time>2021-05-24T08:42:43Z</time>
      </trkpt>
      <trkpt lat="43.41508" lon="2.41102">
        <ele>741.19</ele>
        <time>2021-05-24T08:42:45Z</time>
      </trkpt>
      <trkpt lat="43.4151" lon="2.41103">
        <ele>741.168</ele>
        <time>2021-05-24T08:42:47Z</time>
      </trkpt>
      <trkpt lat="43.41512" lon="2.41104">
        <ele>741.323</ele>
        <time>2021-05-24T08:42:49Z</time>
      </trkpt>
      <trkpt lat="43.41514" lon="2.41106">
        <ele>741.366</ele>
        <time>2021-05-24T08:42:51Z</time>
      </trkpt>
      <trkpt lat="43.41516" lon="2.41107">
        <ele>741.779</ele>
        <time>2021-05-24T08:42:53Z</time>
      </trkpt>
      <trkpt lat="43.41517" lon="2.41109">
        <ele>742.418</ele>
        <time>2021-05-24T08:42:55Z</time>
      </trkpt>
      <trkpt lat="43.41519" lon="2.41111">
        <ele>743.291</ele>
        <time>2021-05-24T08:42:57Z</time>
      </trkpt>
      <trkpt lat="43.41521" lon="2.41112">
        <ele>743.963</ele>
        <time>2021-05-24T08:42:59Z</time>
      </trkpt>
      <trkpt lat="43.41522" lon="2.41113">
        <ele>744.286</ele>
        <time>2021-05-24T08:43:01Z</time>
      </trkpt>
      <trkpt lat="43.41524" lon="2.41115">
        <ele>744.674</ele>
        <time>2021-05-24T08:43:03Z</time>
      </trkpt>
      <trkpt lat="43.41525" lon="2.41116">
        <ele>744.799</ele>
        <time>2021-05-24T08:43:05Z</time>
      </trkpt>
      <trkpt lat="43.41526" lon="2.41118">
        <ele>745.15</ele>
        <time>2021-05-24T08:43:07Z</time>
      </trkpt>
      <trkpt lat="43.41528" lon="2.41119">
        <ele>745.293</ele>
        <time>2021-05-24T08:43:09Z</time>
      </trkpt>
      <trkpt lat="43.41529" lon="2.41122">
        <ele>745.344</ele>
        <time>2021-05-24T08:43:11Z</time>
      </trkpt>
      <trkpt lat="43.4153" lon="2.41123">
        <ele>745.084</ele>
        <time>2021-05-24T08:43:13Z</time>
      </trkpt>
      <trkpt lat="43.41532" lon="2.41125">
        <ele>745.839</ele>
        <time>2021-05-24T08:43:15Z</time>
      </trkpt>
      <trkpt lat="43.41533" lon="2.41127">
        <ele>746.602</ele>
        <time>2021-05-24T08:43:17Z</time>
      </trkpt>
      <trkpt lat="43.41533" lon="2.41129">
        <ele>747.411</ele>
        <time>2021-05-24T08:43:19Z</time>
      </trkpt>
      <trkpt lat="43.41534" lon="2.41132">
        <ele>749.03</ele>
        <time>2021-05-24T08:43:21Z</time>
      </trkpt>
      <trkpt lat="43.41535" lon="2.41134">
        <ele>749.785</ele>
        <time>2021-05-24T08:43:23Z</time>
      </trkpt>
      <trkpt lat="43.41537" lon="2.41135">
        <ele>750.341</ele>
        <time>2021-05-24T08:43:25Z</time>
      </trkpt>
      <trkpt lat="43.41538" lon="2.41137">
        <ele>750.216</ele>
        <time>2021-05-24T08:43:27Z</time>
      </trkpt>
      <trkpt lat="43.41539" lon="2.41139">
        <ele>750.12</ele>
        <time>2021-05-24T08:43:29Z</time>
      </trkpt>
      <trkpt lat="43.4154" lon="2.41141">
        <ele>750.988</ele>
        <time>2021-05-24T08:43:31Z</time>
      </trkpt>
      <trkpt lat="43.41541" lon="2.41143">
        <ele>750.953</ele>
        <time>2021-05-24T08:43:33Z</time>
      </trkpt>
      <trkpt lat="43.41541" lon="2.41145">
        <ele>751.036</ele>
        <time>2021-05-24T08:43:35Z</time>
      </trkpt>
      <trkpt lat="43.41542" lon="2.41147">
        <ele>750.993</ele>
        <time>2021-05-24T08:43:37Z</time>
      </trkpt>
      <trkpt lat="43.41543" lon="2.4115">
        <ele>751.276</ele>
        <time>2021-05-24T08:43:39Z</time>
      </trkpt>
      <trkpt lat="43.41543" lon="2.41152">
        <ele>751.907</ele>
        <time>2021-05-24T08:43:41Z</time>
      </trkpt>
      <trkpt lat="43.41543" lon="2.41155">
        <ele>751.922</ele>
        <time>2021-05-24T08:43:43Z</time>
      </trkpt>
      <trkpt lat="43.41544" lon="2.41157">
        <ele>752.298</ele>
        <time>2021-05-24T08:43:45Z</time>
      </trkpt>
      <trkpt lat="43.41544" lon="2.4116">
        <ele>753.172</ele>
        <time>2021-05-24T08:43:47Z</time>
      </trkpt>
      <trkpt lat="43.41543" lon="2.41162">
        <ele>752.882</ele>
        <time>2021-05-24T08:43:49Z</time>
      </trkpt>
      <trkpt lat="43.41542" lon="2.41164">
        <ele>753.268</ele>
        <time>2021-05-24T08:43:51Z</time>
      </trkpt>
      <trkpt lat="43.41542" lon="2.41165">
        <ele>753.324</ele>
        <time>2021-05-24T08:43:52Z</time>
      </trkpt>
      <trkpt lat="43.41542" lon="2.41172">
        <ele>752.969</ele>
        <time>2021-05-24T08:43:59Z</time>
      </trkpt>
      <trkpt lat="43.41542" lon="2.41173">
        <ele>753.305</ele>
        <time>2021-05-24T08:44:01Z</time>
      </trkpt>
      <trkpt lat="43.41543" lon="2.41175">
        <ele>753.442</ele>
        <time>2021-05-24T08:44:03Z</time>
      </trkpt>
      <trkpt lat="43.41544" lon="2.41177">
        <ele>753.817</ele>
        <time>2021-05-24T08:44:05Z</time>
      </trkpt>
      <trkpt lat="43.41544" lon="2.41178">
        <ele>754.406</ele>
        <time>2021-05-24T08:44:07Z</time>
      </trkpt>
      <trkpt lat="43.41545" lon="2.41179">
        <ele>755.024</ele>
        <time>2021-05-24T08:44:09Z</time>
      </trkpt>
      <trkpt lat="43.41546" lon="2.4118">
        <ele>755.567</ele>
        <time>2021-05-24T08:44:11Z</time>
      </trkpt>
      <trkpt lat="43.41547" lon="2.41179">
        <ele>756.215</ele>
        <time>2021-05-24T08:44:13Z</time>
      </trkpt>
      <trkpt lat="43.41548" lon="2.4118">
        <ele>757.29</ele>
        <time>2021-05-24T08:44:15Z</time>
      </trkpt>
      <trkpt lat="43.41549" lon="2.4118">
        <ele>758.687</ele>
        <time>2021-05-24T08:44:17Z</time>
      </trkpt>
      <trkpt lat="43.4155" lon="2.41181">
        <ele>758.509</ele>
        <time>2021-05-24T08:44:19Z</time>
      </trkpt>
      <trkpt lat="43.4155" lon="2.41183">
        <ele>758.841</ele>
        <time>2021-05-24T08:44:21Z</time>
      </trkpt>
      <trkpt lat="43.4155" lon="2.41185">
        <ele>758.005</ele>
        <time>2021-05-24T08:44:23Z</time>
      </trkpt>
      <trkpt lat="43.41551" lon="2.41186">
        <ele>758.004</ele>
        <time>2021-05-24T08:44:25Z</time>
      </trkpt>
      <trkpt lat="43.41551" lon="2.41189">
        <ele>758.215</ele>
        <time>2021-05-24T08:44:27Z</time>
      </trkpt>
      <trkpt lat="43.41552" lon="2.41191">
        <ele>759.052</ele>
        <time>2021-05-24T08:44:29Z</time>
      </trkpt>
      <trkpt lat="43.41553" lon="2.41193">
        <ele>760.081</ele>
        <time>2021-05-24T08:44:31Z</time>
      </trkpt>
      <trkpt lat="43.41554" lon="2.41195">
        <ele>760.768</ele>
        <time>2021-05-24T08:44:33Z</time>
      </trkpt>
      <trkpt lat="43.41554" lon="2.41197">
        <ele>761.858</ele>
        <time>2021-05-24T08:44:35Z</time>
      </trkpt>
      <trkpt lat="43.41555" lon="2.41199">
        <ele>761.438</ele>
        <time>2021-05-24T08:44:37Z</time>
      </trkpt>
      <trkpt lat="43.41555" lon="2.41202">
        <ele>760.539</ele>
        <time>2021-05-24T08:44:39Z</time>
      </trkpt>
      <trkpt lat="43.41555" lon="2.41205">
        <ele>760.376</ele>
        <time>2021-05-24T08:44:41Z</time>
      </trkpt>
      <trkpt lat="43.41556" lon="2.41207">
        <ele>759.696</ele>
        <time>2021-05-24T08:44:43Z</time>
      </trkpt>
      <trkpt lat="43.41557" lon="2.41209">
        <ele>760.28</ele>
        <time>2021-05-24T08:44:45Z</time>
      </trkpt>
      <trkpt lat="43.41557" lon="2.41211">
        <ele>760.375</ele>
        <time>2021-05-24T08:44:47Z</time>
      </trkpt>
      <trkpt lat="43.41558" lon="2.41213">
        <ele>760.202</ele>
        <time>2021-05-24T08:44:49Z</time>
      </trkpt>
      <trkpt lat="43.41558" lon="2.41215">
        <ele>760.198</ele>
        <time>2021-05-24T08:44:51Z</time>
      </trkpt>
      <trkpt lat="43.41559" lon="2.41217">
        <ele>759.955</ele>
        <time>2021-05-24T08:44:53Z</time>
      </trkpt>
      <trkpt lat="43.4156" lon="2.41219">
        <ele>760.293</ele>
        <time>2021-05-24T08:44:55Z</time>
      </trkpt>
      <trkpt lat="43.41561" lon="2.41221">
        <ele>760.436</ele>
        <time>2021-05-24T08:44:57Z</time>
      </trkpt>
      <trkpt lat="43.41561" lon="2.41222">
        <ele>760.741</ele>
        <time>2021-05-24T08:44:59Z</time>
      </trkpt>
      <trkpt lat="43.41562" lon="2.41224">
        <ele>761.903</ele>
        <time>2021-05-24T08:45:01Z</time>
      </trkpt>
      <trkpt lat="43.41563" lon="2.41226">
        <ele>762.307</ele>
        <time>2021-05-24T08:45:03Z</time>
      </trkpt>
      <trkpt lat="43.41564" lon="2.41228">
        <ele>763.195</ele>
        <time>2021-05-24T08:45:05Z</time>
      </trkpt>
      <trkpt lat="43.41564" lon="2.4123">
        <ele>763.73</ele>
        <time>2021-05-24T08:45:07Z</time>
      </trkpt>
      <trkpt lat="43.41565" lon="2.41232">
        <ele>764.24</ele>
        <time>2021-05-24T08:45:09Z</time>
      </trkpt>
      <trkpt lat="43.41566" lon="2.41233">
        <ele>764.998</ele>
        <time>2021-05-24T08:45:11Z</time>
      </trkpt>
      <trkpt lat="43.41567" lon="2.41235">
        <ele>765.925</ele>
        <time>2021-05-24T08:45:13Z</time>
      </trkpt>
      <trkpt lat="43.41568" lon="2.41236">
        <ele>765.076</ele>
        <time>2021-05-24T08:45:15Z</time>
      </trkpt>
      <trkpt lat="43.41569" lon="2.41238">
        <ele>765.576</ele>
        <time>2021-05-24T08:45:17Z</time>
      </trkpt>
      <trkpt lat="43.4157" lon="2.4124">
        <ele>765.125</ele>
        <time>2021-05-24T08:45:19Z</time>
      </trkpt>
      <trkpt lat="43.41571" lon="2.41241">
        <ele>765.6</ele>
        <time>2021-05-24T08:45:21Z</time>
      </trkpt>
      <trkpt lat="43.41572" lon="2.41243">
        <ele>765.917</ele>
        <time>2021-05-24T08:45:23Z</time>
      </trkpt>
      <trkpt lat="43.41573" lon="2.41244">
        <ele>766.235</ele>
        <time>2021-05-24T08:45:25Z</time>
      </trkpt>
      <trkpt lat="43.41574" lon="2.41246">
        <ele>766.664</ele>
        <time>2021-05-24T08:45:27Z</time>
      </trkpt>
      <trkpt lat="43.41576" lon="2.41248">
        <ele>766.609</ele>
        <time>2021-05-24T08:45:29Z</time>
      </trkpt>
      <trkpt lat="43.41577" lon="2.41249">
        <ele>766.43</ele>
        <time>2021-05-24T08:45:31Z</time>
      </trkpt>
      <trkpt lat="43.41578" lon="2.41249">
        <ele>766.829</ele>
        <time>2021-05-24T08:45:33Z</time>
      </trkpt>
      <trkpt lat="43.4158" lon="2.4125">
        <ele>767.671</ele>
        <time>2021-05-24T08:45:35Z</time>
      </trkpt>
      <trkpt lat="43.41581" lon="2.41251">
        <ele>767.61</ele>
        <time>2021-05-24T08:45:37Z</time>
      </trkpt>
      <trkpt lat="43.41583" lon="2.41251">
        <ele>767.115</ele>
        <time>2021-05-24T08:45:39Z</time>
      </trkpt>
      <trkpt lat="43.41584" lon="2.41251">
        <ele>767.492</ele>
        <time>2021-05-24T08:45:41Z</time>
      </trkpt>
      <trkpt lat="43.41586" lon="2.41252">
        <ele>767.724</ele>
        <time>2021-05-24T08:45:43Z</time>
      </trkpt>
      <trkpt lat="43.41588" lon="2.41253">
        <ele>767.599</ele>
        <time>2021-05-24T08:45:45Z</time>
      </trkpt>
      <trkpt lat="43.4159" lon="2.41254">
        <ele>767.64</ele>
        <time>2021-05-24T08:45:47Z</time>
      </trkpt>
      <trkpt lat="43.41591" lon="2.41255">
        <ele>767.915</ele>
        <time>2021-05-24T08:45:49Z</time>
      </trkpt>
      <trkpt lat="43.41593" lon="2.41255">
        <ele>768.897</ele>
        <time>2021-05-24T08:45:51Z</time>
      </trkpt>
      <trkpt lat="43.41595" lon="2.41256">
        <ele>768.964</ele>
        <time>2021-05-24T08:45:53Z</time>
      </trkpt>
      <trkpt lat="43.41597" lon="2.41257">
        <ele>768.893</ele>
        <time>2021-05-24T08:45:55Z</time>
      </trkpt>
      <trkpt lat="43.41598" lon="2.41258">
        <ele>769.359</ele>
        <time>2021-05-24T08:45:57Z</time>
      </trkpt>
      <trkpt lat="43.416" lon="2.41258">
        <ele>769.788</ele>
        <time>2021-05-24T08:45:59Z</time>
      </trkpt>
      <trkpt lat="43.41602" lon="2.4126">
        <ele>770.496</ele>
        <time>2021-05-24T08:46:01Z</time>
      </trkpt>
      <trkpt lat="43.41604" lon="2.4126">
        <ele>769.936</ele>
        <time>2021-05-24T08:46:03Z</time>
      </trkpt>
      <trkpt lat="43.41606" lon="2.41261">
        <ele>769.439</ele>
        <time>2021-05-24T08:46:05Z</time>
      </trkpt>
      <trkpt lat="43.41608" lon="2.41262">
        <ele>769.38</ele>
        <time>2021-05-24T08:46:07Z</time>
      </trkpt>
      <trkpt lat="43.41609" lon="2.41263">
        <ele>769.907</ele>
        <time>2021-05-24T08:46:09Z</time>
      </trkpt>
      <trkpt lat="43.41611" lon="2.41264">
        <ele>769.658</ele>
        <time>2021-05-24T08:46:11Z</time>
      </trkpt>
      <trkpt lat="43.41613" lon="2.41265">
        <ele>770.268</ele>
        <time>2021-05-24T08:46:13Z</time>
      </trkpt>
      <trkpt lat="43.41615" lon="2.41266">
        <ele>770.462</ele>
        <time>2021-05-24T08:46:15Z</time>
      </trkpt>
      <trkpt lat="43.41617" lon="2.41267">
        <ele>770.959</ele>
        <time>2021-05-24T08:46:17Z</time>
      </trkpt>
      <trkpt lat="43.41619" lon="2.41269">
        <ele>771.806</ele>
        <time>2021-05-24T08:46:19Z</time>
      </trkpt>
      <trkpt lat="43.4162" lon="2.4127">
        <ele>770.479</ele>
        <time>2021-05-24T08:46:21Z</time>
      </trkpt>
      <trkpt lat="43.41622" lon="2.41271">
        <ele>770.866</ele>
        <time>2021-05-24T08:46:23Z</time>
      </trkpt>
      <trkpt lat="43.41624" lon="2.41272">
        <ele>770.924</ele>
        <time>2021-05-24T08:46:25Z</time>
      </trkpt>
      <trkpt lat="43.41626" lon="2.41274">
        <ele>771.857</ele>
        <time>2021-05-24T08:46:27Z</time>
      </trkpt>
      <trkpt lat="43.41626" lon="2.41274">
        <ele>772.283</ele>
        <time>2021-05-24T08:46:28Z</time>
      </trkpt>
      <trkpt lat="43.41632" lon="2.41281">
        <ele>773.62</ele>
        <time>2021-05-24T08:46:35Z</time>
      </trkpt>
      <trkpt lat="43.41634" lon="2.41283">
        <ele>773.998</ele>
        <time>2021-05-24T08:46:37Z</time>
      </trkpt>
      <trkpt lat="43.41635" lon="2.41285">
        <ele>775.099</ele>
        <time>2021-05-24T08:46:39Z</time>
      </trkpt>
      <trkpt lat="43.41637" lon="2.41288">
        <ele>775.492</ele>
        <time>2021-05-24T08:46:41Z</time>
      </trkpt>
      <trkpt lat="43.41638" lon="2.4129">
        <ele>776.099</ele>
        <time>2021-05-24T08:46:43Z</time>
      </trkpt>
      <trkpt lat="43.4164" lon="2.41292">
        <ele>776.94</ele>
        <time>2021-05-24T08:46:45Z</time>
      </trkpt>
      <trkpt lat="43.41641" lon="2.41294">
        <ele>776.91</ele>
        <time>2021-05-24T08:46:47Z</time>
      </trkpt>
      <trkpt lat="43.41642" lon="2.41295">
        <ele>777.169</ele>
        <time>2021-05-24T08:46:49Z</time>
      </trkpt>
      <trkpt lat="43.41644" lon="2.41297">
        <ele>777.229</ele>
        <time>2021-05-24T08:46:51Z</time>
      </trkpt>
      <trkpt lat="43.41644" lon="2.41298">
        <ele>777.132</ele>
        <time>2021-05-24T08:46:52Z</time>
      </trkpt>
      <trkpt lat="43.41647" lon="2.413">
        <ele>777.358</ele>
        <time>2021-05-24T08:46:55Z</time>
      </trkpt>
      <trkpt lat="43.41648" lon="2.41302">
        <ele>777.423</ele>
        <time>2021-05-24T08:46:57Z</time>
      </trkpt>
      <trkpt lat="43.4165" lon="2.41305">
        <ele>778.014</ele>
        <time>2021-05-24T08:46:59Z</time>
      </trkpt>
      <trkpt lat="43.41651" lon="2.41307">
        <ele>778.622</ele>
        <time>2021-05-24T08:47:01Z</time>
      </trkpt>
      <trkpt lat="43.41652" lon="2.41309">
        <ele>779.029</ele>
        <time>2021-05-24T08:47:03Z</time>
      </trkpt>
      <trkpt lat="43.41653" lon="2.41311">
        <ele>778.695</ele>
        <time>2021-05-24T08:47:05Z</time>
      </trkpt>
      <trkpt lat="43.41655" lon="2.41313">
        <ele>779.105</ele>
        <time>2021-05-24T08:47:07Z</time>
      </trkpt>
      <trkpt lat="43.41656" lon="2.41315">
        <ele>779.89</ele>
        <time>2021-05-24T08:47:09Z</time>
      </trkpt>
      <trkpt lat="43.41657" lon="2.41317">
        <ele>780.193</ele>
        <time>2021-05-24T08:47:11Z</time>
      </trkpt>
      <trkpt lat="43.41659" lon="2.41319">
        <ele>780.627</ele>
        <time>2021-05-24T08:47:13Z</time>
      </trkpt>
      <trkpt lat="43.4166" lon="2.41321">
        <ele>780.773</ele>
        <time>2021-05-24T08:47:15Z</time>
      </trkpt>
      <trkpt lat="43.41661" lon="2.41323">
        <ele>781.89</ele>
        <time>2021-05-24T08:47:17Z</time>
      </trkpt>
      <trkpt lat="43.41662" lon="2.41326">
        <ele>781.509</ele>
        <time>2021-05-24T08:47:19Z</time>
      </trkpt>
      <trkpt lat="43.41664" lon="2.41328">
        <ele>781.452</ele>
        <time>2021-05-24T08:47:21Z</time>
      </trkpt>
      <trkpt lat="43.41665" lon="2.4133">
        <ele>782.138</ele>
        <time>2021-05-24T08:47:23Z</time>
      </trkpt>
      <trkpt lat="43.41666" lon="2.41332">
        <ele>783.011</ele>
        <time>2021-05-24T08:47:25Z</time>
      </trkpt>
      <trkpt lat="43.41667" lon="2.41333">
        <ele>783.363</ele>
        <time>2021-05-24T08:47:27Z</time>
      </trkpt>
      <trkpt lat="43.41669" lon="2.41335">
        <ele>783.9</ele>
        <time>2021-05-24T08:47:29Z</time>
      </trkpt>
      <trkpt lat="43.4167" lon="2.41336">
        <ele>784.368</ele>
        <time>2021-05-24T08:47:31Z</time>
      </trkpt>
      <trkpt lat="43.41672" lon="2.41338">
        <ele>784.867</ele>
        <time>2021-05-24T08:47:33Z</time>
      </trkpt>
      <trkpt lat="43.41674" lon="2.41338">
        <ele>785.004</ele>
        <time>2021-05-24T08:47:35Z</time>
      </trkpt>
      <trkpt lat="43.41675" lon="2.41339">
        <ele>785.66</ele>
        <time>2021-05-24T08:47:37Z</time>
      </trkpt>
      <trkpt lat="43.41677" lon="2.4134">
        <ele>785.541</ele>
        <time>2021-05-24T08:47:39Z</time>
      </trkpt>
      <trkpt lat="43.41679" lon="2.41341">
        <ele>786.414</ele>
        <time>2021-05-24T08:47:41Z</time>
      </trkpt>
      <trkpt lat="43.41681" lon="2.41342">
        <ele>786.225</ele>
        <time>2021-05-24T08:47:43Z</time>
      </trkpt>
      <trkpt lat="43.41682" lon="2.41344">
        <ele>786.716</ele>
        <time>2021-05-24T08:47:45Z</time>
      </trkpt>
      <trkpt lat="43.41684" lon="2.41345">
        <ele>785.934</ele>
        <time>2021-05-24T08:47:47Z</time>
      </trkpt>
      <trkpt lat="43.41686" lon="2.41346">
        <ele>786.713</ele>
        <time>2021-05-24T08:47:49Z</time>
      </trkpt>
      <trkpt lat="43.41687" lon="2.41347">
        <ele>786.809</ele>
        <time>2021-05-24T08:47:51Z</time>
      </trkpt>
      <trkpt lat="43.41689" lon="2.41349">
        <ele>787.782</ele>
        <time>2021-05-24T08:47:53Z</time>
      </trkpt>
      <trkpt lat="43.41691" lon="2.4135">
        <ele>788.324</ele>
        <time>2021-05-24T08:47:55Z</time>
      </trkpt>
      <trkpt lat="43.41692" lon="2.41352">
        <ele>789.248</ele>
        <time>2021-05-24T08:47:57Z</time>
      </trkpt>
      <trkpt lat="43.41694" lon="2.41353">
        <ele>789.758</ele>
        <time>2021-05-24T08:47:59Z</time>
      </trkpt>
      <trkpt lat="43.41695" lon="2.41355">
        <ele>789.33</ele>
        <time>2021-05-24T08:48:01Z</time>
      </trkpt>
      <trkpt lat="43.41697" lon="2.41357">
        <ele>790.024</ele>
        <time>2021-05-24T08:48:03Z</time>
      </trkpt>
      <trkpt lat="43.41698" lon="2.41359">
        <ele>790.53</ele>
        <time>2021-05-24T08:48:05Z</time>
      </trkpt>
      <trkpt lat="43.417" lon="2.41361">
        <ele>790.974</ele>
        <time>2021-05-24T08:48:07Z</time>
      </trkpt>
      <trkpt lat="43.41702" lon="2.41363">
        <ele>791.639</ele>
        <time>2021-05-24T08:48:09Z</time>
      </trkpt>
      <trkpt lat="43.41703" lon="2.41364">
        <ele>791.945</ele>
        <time>2021-05-24T08:48:11Z</time>
      </trkpt>
      <trkpt lat="43.41704" lon="2.41366">
        <ele>792.381</ele>
        <time>2021-05-24T08:48:13Z</time>
      </trkpt>
      <trkpt lat="43.41706" lon="2.41367">
        <ele>792.388</ele>
        <time>2021-05-24T08:48:15Z</time>
      </trkpt>
      <trkpt lat="43.41707" lon="2.41368">
        <ele>792.822</ele>
        <time>2021-05-24T08:48:17Z</time>
      </trkpt>
      <trkpt lat="43.41709" lon="2.4137">
        <ele>792.843</ele>
        <time>2021-05-24T08:48:19Z</time>
      </trkpt>
      <trkpt lat="43.4171" lon="2.41372">
        <ele>793.652</ele>
        <time>2021-05-24T08:48:21Z</time>
      </trkpt>
      <trkpt lat="43.41712" lon="2.41373">
        <ele>793.948</ele>
        <time>2021-05-24T08:48:23Z</time>
      </trkpt>
      <trkpt lat="43.41714" lon="2.41375">
        <ele>793.938</ele>
        <time>2021-05-24T08:48:25Z</time>
      </trkpt>
      <trkpt lat="43.41715" lon="2.41376">
        <ele>794.588</ele>
        <time>2021-05-24T08:48:27Z</time>
      </trkpt>
      <trkpt lat="43.41716" lon="2.41378">
        <ele>794.649</ele>
        <time>2021-05-24T08:48:29Z</time>
      </trkpt>
      <trkpt lat="43.41718" lon="2.4138">
        <ele>795.598</ele>
        <time>2021-05-24T08:48:31Z</time>
      </trkpt>
      <trkpt lat="43.4172" lon="2.41381">
        <ele>795.383</ele>
        <time>2021-05-24T08:48:33Z</time>
      </trkpt>
      <trkpt lat="43.41721" lon="2.41383">
        <ele>795.556</ele>
        <time>2021-05-24T08:48:35Z</time>
      </trkpt>
      <trkpt lat="43.41723" lon="2.41384">
        <ele>796.399</ele>
        <time>2021-05-24T08:48:37Z</time>
      </trkpt>
      <trkpt lat="43.41724" lon="2.41386">
        <ele>796.536</ele>
        <time>2021-05-24T08:48:39Z</time>
      </trkpt>
      <trkpt lat="43.41726" lon="2.41387">
        <ele>796.622</ele>
        <time>2021-05-24T08:48:41Z</time>
      </trkpt>
      <trkpt lat="43.41727" lon="2.41389">
        <ele>797.429</ele>
        <time>2021-05-24T08:48:43Z</time>
      </trkpt>
      <trkpt lat="43.41729" lon="2.41391">
        <ele>797.81</ele>
        <time>2021-05-24T08:48:45Z</time>
      </trkpt>
      <trkpt lat="43.4173" lon="2.41393">
        <ele>798.329</ele>
        <time>2021-05-24T08:48:47Z</time>
      </trkpt>
      <trkpt lat="43.41732" lon="2.41394">
        <ele>798.009</ele>
        <time>2021-05-24T08:48:49Z</time>
      </trkpt>
      <trkpt lat="43.41733" lon="2.41396">
        <ele>798.398</ele>
        <time>2021-05-24T08:48:51Z</time>
      </trkpt>
      <trkpt lat="43.41734" lon="2.41397">
        <ele>798.594</ele>
        <time>2021-05-24T08:48:53Z</time>
      </trkpt>
      <trkpt lat="43.41735" lon="2.41399">
        <ele>799.545</ele>
        <time>2021-05-24T08:48:55Z</time>
      </trkpt>
      <trkpt lat="43.41737" lon="2.414">
        <ele>799.455</ele>
        <time>2021-05-24T08:48:57Z</time>
      </trkpt>
      <trkpt lat="43.41738" lon="2.41402">
        <ele>799.613</ele>
        <time>2021-05-24T08:48:59Z</time>
      </trkpt>
      <trkpt lat="43.41739" lon="2.41403">
        <ele>799.651</ele>
        <time>2021-05-24T08:49:01Z</time>
      </trkpt>
      <trkpt lat="43.41741" lon="2.41405">
        <ele>799.42</ele>
        <time>2021-05-24T08:49:03Z</time>
      </trkpt>
      <trkpt lat="43.41742" lon="2.41407">
        <ele>799.666</ele>
        <time>2021-05-24T08:49:05Z</time>
      </trkpt>
      <trkpt lat="43.41744" lon="2.41409">
        <ele>800.244</ele>
        <time>2021-05-24T08:49:07Z</time>
      </trkpt>
      <trkpt lat="43.41746" lon="2.41411">
        <ele>800.383</ele>
        <time>2021-05-24T08:49:09Z</time>
      </trkpt>
      <trkpt lat="43.41747" lon="2.41412">
        <ele>800.488</ele>
        <time>2021-05-24T08:49:11Z</time>
      </trkpt>
      <trkpt lat="43.41748" lon="2.41414">
        <ele>800.585</ele>
        <time>2021-05-24T08:49:13Z</time>
      </trkpt>
      <trkpt lat="43.41749" lon="2.41416">
        <ele>801.349</ele>
        <time>2021-05-24T08:49:15Z</time>
      </trkpt>
      <trkpt lat="43.41751" lon="2.41418">
        <ele>800.983</ele>
        <time>2021-05-24T08:49:17Z</time>
      </trkpt>
      <trkpt lat="43.41752" lon="2.41419">
        <ele>801.111</ele>
        <time>2021-05-24T08:49:19Z</time>
      </trkpt>
      <trkpt lat="43.41754" lon="2.41421">
        <ele>801.021</ele>
        <time>2021-05-24T08:49:21Z</time>
      </trkpt>
      <trkpt lat="43.41756" lon="2.41422">
        <ele>801.587</ele>
        <time>2021-05-24T08:49:23Z</time>
      </trkpt>
      <trkpt lat="43.41757" lon="2.41424">
        <ele>802.145</ele>
        <time>2021-05-24T08:49:25Z</time>
      </trkpt>
      <trkpt lat="43.41759" lon="2.41425">
        <ele>802.892</ele>
        <time>2021-05-24T08:49:27Z</time>
      </trkpt>
      <trkpt lat="43.41761" lon="2.41427">
        <ele>802.891</ele>
        <time>2021-05-24T08:49:29Z</time>
      </trkpt>
      <trkpt lat="43.41762" lon="2.41428">
        <ele>802.572</ele>
        <time>2021-05-24T08:49:31Z</time>
      </trkpt>
      <trkpt lat="43.41764" lon="2.4143">
        <ele>803.642</ele>
        <time>2021-05-24T08:49:33Z</time>
      </trkpt>
      <trkpt lat="43.41765" lon="2.41431">
        <ele>804.046</ele>
        <time>2021-05-24T08:49:35Z</time>
      </trkpt>
      <trkpt lat="43.41766" lon="2.41433">
        <ele>804.707</ele>
        <time>2021-05-24T08:49:37Z</time>
      </trkpt>
      <trkpt lat="43.41768" lon="2.41434">
        <ele>805.384</ele>
        <time>2021-05-24T08:49:39Z</time>
      </trkpt>
      <trkpt lat="43.41769" lon="2.41436">
        <ele>805.349</ele>
        <time>2021-05-24T08:49:41Z</time>
      </trkpt>
      <trkpt lat="43.41771" lon="2.41437">
        <ele>805.597</ele>
        <time>2021-05-24T08:49:43Z</time>
      </trkpt>
      <trkpt lat="43.41773" lon="2.41438">
        <ele>805.94</ele>
        <time>2021-05-24T08:49:45Z</time>
      </trkpt>
      <trkpt lat="43.41775" lon="2.4144">
        <ele>806.725</ele>
        <time>2021-05-24T08:49:47Z</time>
      </trkpt>
      <trkpt lat="43.41777" lon="2.41442">
        <ele>807.405</ele>
        <time>2021-05-24T08:49:49Z</time>
      </trkpt>
      <trkpt lat="43.41778" lon="2.41443">
        <ele>807.738</ele>
        <time>2021-05-24T08:49:51Z</time>
      </trkpt>
      <trkpt lat="43.4178" lon="2.41444">
        <ele>807.717</ele>
        <time>2021-05-24T08:49:53Z</time>
      </trkpt>
      <trkpt lat="43.41781" lon="2.41446">
        <ele>808.336</ele>
        <time>2021-05-24T08:49:55Z</time>
      </trkpt>
      <trkpt lat="43.41783" lon="2.41448">
        <ele>808.107</ele>
        <time>2021-05-24T08:49:57Z</time>
      </trkpt>
      <trkpt lat="43.41785" lon="2.4145">
        <ele>808.691</ele>
        <time>2021-05-24T08:49:59Z</time>
      </trkpt>
      <trkpt lat="43.41786" lon="2.41451">
        <ele>809.613</ele>
        <time>2021-05-24T08:50:01Z</time>
      </trkpt>
      <trkpt lat="43.41788" lon="2.41453">
        <ele>809.921</ele>
        <time>2021-05-24T08:50:03Z</time>
      </trkpt>
      <trkpt lat="43.4179" lon="2.41454">
        <ele>809.965</ele>
        <time>2021-05-24T08:50:05Z</time>
      </trkpt>
      <trkpt lat="43.41792" lon="2.41456">
        <ele>810.613</ele>
        <time>2021-05-24T08:50:07Z</time>
      </trkpt>
      <trkpt lat="43.41794" lon="2.41457">
        <ele>811.438</ele>
        <time>2021-05-24T08:50:09Z</time>
      </trkpt>
      <trkpt lat="43.41796" lon="2.41458">
        <ele>811.706</ele>
        <time>2021-05-24T08:50:11Z</time>
      </trkpt>
      <trkpt lat="43.41798" lon="2.41459">
        <ele>812.462</ele>
        <time>2021-05-24T08:50:13Z</time>
      </trkpt>
      <trkpt lat="43.418" lon="2.4146">
        <ele>813.054</ele>
        <time>2021-05-24T08:50:15Z</time>
      </trkpt>
      <trkpt lat="43.41802" lon="2.41462">
        <ele>813.427</ele>
        <time>2021-05-24T08:50:17Z</time>
      </trkpt>
      <trkpt lat="43.41804" lon="2.41464">
        <ele>813.835</ele>
        <time>2021-05-24T08:50:19Z</time>
      </trkpt>
      <trkpt lat="43.41806" lon="2.41465">
        <ele>815.217</ele>
        <time>2021-05-24T08:50:21Z</time>
      </trkpt>
      <trkpt lat="43.41808" lon="2.41466">
        <ele>815.233</ele>
        <time>2021-05-24T08:50:23Z</time>
      </trkpt>
      <trkpt lat="43.4181" lon="2.41468">
        <ele>815.114</ele>
        <time>2021-05-24T08:50:25Z</time>
      </trkpt>
      <trkpt lat="43.41812" lon="2.41469">
        <ele>815.207</ele>
        <time>2021-05-24T08:50:27Z</time>
      </trkpt>
      <trkpt lat="43.41814" lon="2.41471">
        <ele>815.726</ele>
        <time>2021-05-24T08:50:29Z</time>
      </trkpt>
      <trkpt lat="43.41815" lon="2.41473">
        <ele>816.389</ele>
        <time>2021-05-24T08:50:31Z</time>
      </trkpt>
      <trkpt lat="43.41817" lon="2.41474">
        <ele>816.692</ele>
        <time>2021-05-24T08:50:33Z</time>
      </trkpt>
      <trkpt lat="43.41819" lon="2.41475">
        <ele>816.643</ele>
        <time>2021-05-24T08:50:35Z</time>
      </trkpt>
      <trkpt lat="43.41821" lon="2.41478">
        <ele>817.232</ele>
        <time>2021-05-24T08:50:37Z</time>
      </trkpt>
      <trkpt lat="43.41822" lon="2.41479">
        <ele>817.054</ele>
        <time>2021-05-24T08:50:39Z</time>
      </trkpt>
      <trkpt lat="43.41824" lon="2.41481">
        <ele>817.028</ele>
        <time>2021-05-24T08:50:41Z</time>
      </trkpt>
      <trkpt lat="43.41825" lon="2.41484">
        <ele>819.65</ele>
        <time>2021-05-24T08:50:43Z</time>
      </trkpt>
      <trkpt lat="43.41826" lon="2.41485">
        <ele>820.21</ele>
        <time>2021-05-24T08:50:45Z</time>
      </trkpt>
      <trkpt lat="43.41827" lon="2.41487">
        <ele>820.6</ele>
        <time>2021-05-24T08:50:47Z</time>
      </trkpt>
      <trkpt lat="43.41826" lon="2.41487">
        <ele>819.827</ele>
        <time>2021-05-24T08:50:49Z</time>
      </trkpt>
      <trkpt lat="43.41826" lon="2.41486">
        <ele>819.813</ele>
        <time>2021-05-24T08:50:51Z</time>
      </trkpt>
      <trkpt lat="43.41826" lon="2.41486">
        <ele>819.809</ele>
        <time>2021-05-24T08:50:53Z</time>
      </trkpt>
      <trkpt lat="43.41826" lon="2.41486">
        <ele>819.806</ele>
        <time>2021-05-24T08:50:55Z</time>
      </trkpt>
      <trkpt lat="43.41827" lon="2.41487">
        <ele>819.462</ele>
        <time>2021-05-24T08:50:57Z</time>
      </trkpt>
      <trkpt lat="43.41827" lon="2.41487">
        <ele>818.527</ele>
        <time>2021-05-24T08:50:59Z</time>
      </trkpt>
      <trkpt lat="43.41827" lon="2.41488">
        <ele>818.836</ele>
        <time>2021-05-24T08:51:01Z</time>
      </trkpt>
      <trkpt lat="43.41828" lon="2.41488">
        <ele>818.155</ele>
        <time>2021-05-24T08:51:03Z</time>
      </trkpt>
      <trkpt lat="43.41828" lon="2.4149">
        <ele>818.366</ele>
        <time>2021-05-24T08:51:05Z</time>
      </trkpt>
      <trkpt lat="43.41828" lon="2.41491">
        <ele>818.352</ele>
        <time>2021-05-24T08:51:07Z</time>
      </trkpt>
      <trkpt lat="43.41828" lon="2.41492">
        <ele>818.347</ele>
        <time>2021-05-24T08:51:09Z</time>
      </trkpt>
      <trkpt lat="43.41828" lon="2.41492">
        <ele>818.342</ele>
        <time>2021-05-24T08:51:11Z</time>
      </trkpt>
      <trkpt lat="43.41828" lon="2.41492">
        <ele>818.337</ele>
        <time>2021-05-24T08:51:13Z</time>
      </trkpt>
      <trkpt lat="43.41828" lon="2.41492">
        <ele>818.325</ele>
        <time>2021-05-24T08:51:15Z</time>
      </trkpt>
      <trkpt lat="43.41828" lon="2.41492">
        <ele>818.326</ele>
        <time>2021-05-24T08:51:17Z</time>
      </trkpt>
      <trkpt lat="43.41828" lon="2.41492">
        <ele>818.319</ele>
        <time>2021-05-24T08:51:19Z</time>
      </trkpt>
      <trkpt lat="43.41828" lon="2.41493">
        <ele>818.146</ele>
        <time>2021-05-24T08:51:21Z</time>
      </trkpt>
      <trkpt lat="43.41828" lon="2.41494">
        <ele>817.891</ele>
        <time>2021-05-24T08:51:23Z</time>
      </trkpt>
      <trkpt lat="43.41828" lon="2.41496">
        <ele>819.029</ele>
        <time>2021-05-24T08:51:25Z</time>
      </trkpt>
      <trkpt lat="43.41829" lon="2.41496">
        <ele>818.557</ele>
        <time>2021-05-24T08:51:27Z</time>
      </trkpt>
      <trkpt lat="43.4183" lon="2.41496">
        <ele>818.385</ele>
        <time>2021-05-24T08:51:29Z</time>
      </trkpt>
      <trkpt lat="43.41831" lon="2.41497">
        <ele>818.423</ele>
        <time>2021-05-24T08:51:31Z</time>
      </trkpt>
      <trkpt lat="43.41832" lon="2.41498">
        <ele>818.122</ele>
        <time>2021-05-24T08:51:33Z</time>
      </trkpt>
      <trkpt lat="43.41834" lon="2.41498">
        <ele>818.153</ele>
        <time>2021-05-24T08:51:35Z</time>
      </trkpt>
      <trkpt lat="43.41835" lon="2.415">
        <ele>818.502</ele>
        <time>2021-05-24T08:51:37Z</time>
      </trkpt>
      <trkpt lat="43.41837" lon="2.41502">
        <ele>819.155</ele>
        <time>2021-05-24T08:51:39Z</time>
      </trkpt>
      <trkpt lat="43.41839" lon="2.41503">
        <ele>819.18</ele>
        <time>2021-05-24T08:51:41Z</time>
      </trkpt>
      <trkpt lat="43.41841" lon="2.41505">
        <ele>818.497</ele>
        <time>2021-05-24T08:51:43Z</time>
      </trkpt>
      <trkpt lat="43.41843" lon="2.41506">
        <ele>818.407</ele>
        <time>2021-05-24T08:51:45Z</time>
      </trkpt>
      <trkpt lat="43.41845" lon="2.41508">
        <ele>817.807</ele>
        <time>2021-05-24T08:51:47Z</time>
      </trkpt>
      <trkpt lat="43.41847" lon="2.41509">
        <ele>818.242</ele>
        <time>2021-05-24T08:51:49Z</time>
      </trkpt>
      <trkpt lat="43.4185" lon="2.41511">
        <ele>819.139</ele>
        <time>2021-05-24T08:51:51Z</time>
      </trkpt>
      <trkpt lat="43.41852" lon="2.41513">
        <ele>819.49</ele>
        <time>2021-05-24T08:51:53Z</time>
      </trkpt>
      <trkpt lat="43.41854" lon="2.41514">
        <ele>819.432</ele>
        <time>2021-05-24T08:51:55Z</time>
      </trkpt>
      <trkpt lat="43.41857" lon="2.41517">
        <ele>820.76</ele>
        <time>2021-05-24T08:51:58Z</time>
      </trkpt>
      <trkpt lat="43.41859" lon="2.41519">
        <ele>821.187</ele>
        <time>2021-05-24T08:52:00Z</time>
      </trkpt>
      <trkpt lat="43.41861" lon="2.41522">
        <ele>821.805</ele>
        <time>2021-05-24T08:52:02Z</time>
      </trkpt>
      <trkpt lat="43.41863" lon="2.41524">
        <ele>822.49</ele>
        <time>2021-05-24T08:52:04Z</time>
      </trkpt>
      <trkpt lat="43.41865" lon="2.41527">
        <ele>823.16</ele>
        <time>2021-05-24T08:52:06Z</time>
      </trkpt>
      <trkpt lat="43.41868" lon="2.41529">
        <ele>823.896</ele>
        <time>2021-05-24T08:52:08Z</time>
      </trkpt>
      <trkpt lat="43.4187" lon="2.41531">
        <ele>824.293</ele>
        <time>2021-05-24T08:52:10Z</time>
      </trkpt>
      <trkpt lat="43.41871" lon="2.41533">
        <ele>824.37</ele>
        <time>2021-05-24T08:52:12Z</time>
      </trkpt>
      <trkpt lat="43.41873" lon="2.41535">
        <ele>824.336</ele>
        <time>2021-05-24T08:52:14Z</time>
      </trkpt>
      <trkpt lat="43.41875" lon="2.41537">
        <ele>824.602</ele>
        <time>2021-05-24T08:52:16Z</time>
      </trkpt>
      <trkpt lat="43.41877" lon="2.41538">
        <ele>824.238</ele>
        <time>2021-05-24T08:52:18Z</time>
      </trkpt>
      <trkpt lat="43.41879" lon="2.41539">
        <ele>823.936</ele>
        <time>2021-05-24T08:52:20Z</time>
      </trkpt>
      <trkpt lat="43.41881" lon="2.41542">
        <ele>824.989</ele>
        <time>2021-05-24T08:52:22Z</time>
      </trkpt>
      <trkpt lat="43.41883" lon="2.41544">
        <ele>825.255</ele>
        <time>2021-05-24T08:52:24Z</time>
      </trkpt>
      <trkpt lat="43.41885" lon="2.41546">
        <ele>825.43</ele>
        <time>2021-05-24T08:52:26Z</time>
      </trkpt>
      <trkpt lat="43.41887" lon="2.41548">
        <ele>825.621</ele>
        <time>2021-05-24T08:52:28Z</time>
      </trkpt>
      <trkpt lat="43.4189" lon="2.41551">
        <ele>826.322</ele>
        <time>2021-05-24T08:52:30Z</time>
      </trkpt>
      <trkpt lat="43.41892" lon="2.41553">
        <ele>827.398</ele>
        <time>2021-05-24T08:52:32Z</time>
      </trkpt>
      <trkpt lat="43.41893" lon="2.41555">
        <ele>827.557</ele>
        <time>2021-05-24T08:52:34Z</time>
      </trkpt>
      <trkpt lat="43.41895" lon="2.41558">
        <ele>828.393</ele>
        <time>2021-05-24T08:52:36Z</time>
      </trkpt>
      <trkpt lat="43.41897" lon="2.41559">
        <ele>827.594</ele>
        <time>2021-05-24T08:52:38Z</time>
      </trkpt>
      <trkpt lat="43.41898" lon="2.4156">
        <ele>827.678</ele>
        <time>2021-05-24T08:52:40Z</time>
      </trkpt>
      <trkpt lat="43.419" lon="2.41562">
        <ele>827.233</ele>
        <time>2021-05-24T08:52:42Z</time>
      </trkpt>
      <trkpt lat="43.41901" lon="2.41563">
        <ele>827.267</ele>
        <time>2021-05-24T08:52:44Z</time>
      </trkpt>
      <trkpt lat="43.41903" lon="2.41566">
        <ele>827.521</ele>
        <time>2021-05-24T08:52:46Z</time>
      </trkpt>
      <trkpt lat="43.41905" lon="2.41568">
        <ele>827.539</ele>
        <time>2021-05-24T08:52:48Z</time>
      </trkpt>
      <trkpt lat="43.41906" lon="2.41571">
        <ele>827.676</ele>
        <time>2021-05-24T08:52:50Z</time>
      </trkpt>
      <trkpt lat="43.41908" lon="2.41573">
        <ele>827.014</ele>
        <time>2021-05-24T08:52:52Z</time>
      </trkpt>
      <trkpt lat="43.41909" lon="2.41575">
        <ele>826.45</ele>
        <time>2021-05-24T08:52:54Z</time>
      </trkpt>
      <trkpt lat="43.41911" lon="2.41578">
        <ele>826.887</ele>
        <time>2021-05-24T08:52:56Z</time>
      </trkpt>
      <trkpt lat="43.41913" lon="2.41581">
        <ele>826.95</ele>
        <time>2021-05-24T08:52:58Z</time>
      </trkpt>
      <trkpt lat="43.41915" lon="2.41583">
        <ele>826.778</ele>
        <time>2021-05-24T08:53:00Z</time>
      </trkpt>
      <trkpt lat="43.41916" lon="2.41585">
        <ele>826.754</ele>
        <time>2021-05-24T08:53:02Z</time>
      </trkpt>
      <trkpt lat="43.41918" lon="2.41587">
        <ele>826.417</ele>
        <time>2021-05-24T08:53:04Z</time>
      </trkpt>
      <trkpt lat="43.4192" lon="2.4159">
        <ele>826.802</ele>
        <time>2021-05-24T08:53:06Z</time>
      </trkpt>
      <trkpt lat="43.41922" lon="2.41594">
        <ele>827.033</ele>
        <time>2021-05-24T08:53:08Z</time>
      </trkpt>
      <trkpt lat="43.41923" lon="2.41595">
        <ele>826.737</ele>
        <time>2021-05-24T08:53:10Z</time>
      </trkpt>
      <trkpt lat="43.41925" lon="2.41597">
        <ele>826.623</ele>
        <time>2021-05-24T08:53:12Z</time>
      </trkpt>
      <trkpt lat="43.41927" lon="2.41598">
        <ele>825.541</ele>
        <time>2021-05-24T08:53:14Z</time>
      </trkpt>
      <trkpt lat="43.41929" lon="2.41601">
        <ele>826.498</ele>
        <time>2021-05-24T08:53:16Z</time>
      </trkpt>
      <trkpt lat="43.41931" lon="2.41603">
        <ele>826.053</ele>
        <time>2021-05-24T08:53:18Z</time>
      </trkpt>
      <trkpt lat="43.41932" lon="2.41605">
        <ele>826.289</ele>
        <time>2021-05-24T08:53:20Z</time>
      </trkpt>
      <trkpt lat="43.41934" lon="2.41607">
        <ele>827.786</ele>
        <time>2021-05-24T08:53:22Z</time>
      </trkpt>
      <trkpt lat="43.41936" lon="2.41609">
        <ele>827.086</ele>
        <time>2021-05-24T08:53:24Z</time>
      </trkpt>
      <trkpt lat="43.41937" lon="2.4161">
        <ele>825.706</ele>
        <time>2021-05-24T08:53:26Z</time>
      </trkpt>
      <trkpt lat="43.4194" lon="2.41611">
        <ele>827.627</ele>
        <time>2021-05-24T08:53:28Z</time>
      </trkpt>
      <trkpt lat="43.41942" lon="2.41613">
        <ele>829.572</ele>
        <time>2021-05-24T08:53:30Z</time>
      </trkpt>
      <trkpt lat="43.41945" lon="2.41615">
        <ele>829.741</ele>
        <time>2021-05-24T08:53:32Z</time>
      </trkpt>
      <trkpt lat="43.41947" lon="2.41617">
        <ele>830.001</ele>
        <time>2021-05-24T08:53:34Z</time>
      </trkpt>
      <trkpt lat="43.41949" lon="2.41618">
        <ele>830.041</ele>
        <time>2021-05-24T08:53:36Z</time>
      </trkpt>
      <trkpt lat="43.41951" lon="2.41619">
        <ele>829.887</ele>
        <time>2021-05-24T08:53:38Z</time>
      </trkpt>
      <trkpt lat="43.41953" lon="2.4162">
        <ele>831.281</ele>
        <time>2021-05-24T08:53:40Z</time>
      </trkpt>
      <trkpt lat="43.41955" lon="2.41623">
        <ele>831.398</ele>
        <time>2021-05-24T08:53:42Z</time>
      </trkpt>
      <trkpt lat="43.41957" lon="2.41625">
        <ele>831.732</ele>
        <time>2021-05-24T08:53:44Z</time>
      </trkpt>
      <trkpt lat="43.41959" lon="2.41626">
        <ele>832.494</ele>
        <time>2021-05-24T08:53:46Z</time>
      </trkpt>
      <trkpt lat="43.41961" lon="2.41628">
        <ele>832.03</ele>
        <time>2021-05-24T08:53:48Z</time>
      </trkpt>
      <trkpt lat="43.41964" lon="2.4163">
        <ele>831.91</ele>
        <time>2021-05-24T08:53:50Z</time>
      </trkpt>
      <trkpt lat="43.41967" lon="2.41632">
        <ele>832.391</ele>
        <time>2021-05-24T08:53:52Z</time>
      </trkpt>
      <trkpt lat="43.41969" lon="2.41633">
        <ele>833.066</ele>
        <time>2021-05-24T08:53:54Z</time>
      </trkpt>
      <trkpt lat="43.41972" lon="2.41635">
        <ele>833.039</ele>
        <time>2021-05-24T08:53:56Z</time>
      </trkpt>
      <trkpt lat="43.41975" lon="2.41637">
        <ele>833.198</ele>
        <time>2021-05-24T08:53:58Z</time>
      </trkpt>
      <trkpt lat="43.41976" lon="2.41639">
        <ele>833.025</ele>
        <time>2021-05-24T08:54:00Z</time>
      </trkpt>
      <trkpt lat="43.41979" lon="2.41639">
        <ele>833.865</ele>
        <time>2021-05-24T08:54:02Z</time>
      </trkpt>
      <trkpt lat="43.41982" lon="2.41642">
        <ele>834.634</ele>
        <time>2021-05-24T08:54:04Z</time>
      </trkpt>
      <trkpt lat="43.41983" lon="2.41643">
        <ele>834.95</ele>
        <time>2021-05-24T08:54:06Z</time>
      </trkpt>
      <trkpt lat="43.41985" lon="2.41646">
        <ele>834.413</ele>
        <time>2021-05-24T08:54:08Z</time>
      </trkpt>
      <trkpt lat="43.41987" lon="2.41648">
        <ele>834.639</ele>
        <time>2021-05-24T08:54:10Z</time>
      </trkpt>
      <trkpt lat="43.41989" lon="2.41649">
        <ele>834.935</ele>
        <time>2021-05-24T08:54:12Z</time>
      </trkpt>
      <trkpt lat="43.4199" lon="2.41649">
        <ele>835.244</ele>
        <time>2021-05-24T08:54:14Z</time>
      </trkpt>
      <trkpt lat="43.41992" lon="2.41652">
        <ele>835.369</ele>
        <time>2021-05-24T08:54:16Z</time>
      </trkpt>
      <trkpt lat="43.41994" lon="2.41653">
        <ele>834.833</ele>
        <time>2021-05-24T08:54:18Z</time>
      </trkpt>
      <trkpt lat="43.41996" lon="2.41654">
        <ele>835.153</ele>
        <time>2021-05-24T08:54:20Z</time>
      </trkpt>
      <trkpt lat="43.41997" lon="2.41656">
        <ele>835.025</ele>
        <time>2021-05-24T08:54:22Z</time>
      </trkpt>
      <trkpt lat="43.42" lon="2.41657">
        <ele>835.608</ele>
        <time>2021-05-24T08:54:24Z</time>
      </trkpt>
      <trkpt lat="43.42002" lon="2.4166">
        <ele>836.916</ele>
        <time>2021-05-24T08:54:26Z</time>
      </trkpt>
      <trkpt lat="43.42003" lon="2.41661">
        <ele>837.082</ele>
        <time>2021-05-24T08:54:28Z</time>
      </trkpt>
      <trkpt lat="43.42006" lon="2.41664">
        <ele>837.695</ele>
        <time>2021-05-24T08:54:30Z</time>
      </trkpt>
      <trkpt lat="43.42008" lon="2.41667">
        <ele>838.338</ele>
        <time>2021-05-24T08:54:32Z</time>
      </trkpt>
      <trkpt lat="43.4201" lon="2.4167">
        <ele>838.828</ele>
        <time>2021-05-24T08:54:34Z</time>
      </trkpt>
      <trkpt lat="43.42011" lon="2.41672">
        <ele>839.64</ele>
        <time>2021-05-24T08:54:36Z</time>
      </trkpt>
      <trkpt lat="43.42013" lon="2.41673">
        <ele>839.641</ele>
        <time>2021-05-24T08:54:38Z</time>
      </trkpt>
      <trkpt lat="43.42014" lon="2.41674">
        <ele>839.1</ele>
        <time>2021-05-24T08:54:40Z</time>
      </trkpt>
      <trkpt lat="43.42016" lon="2.41675">
        <ele>839.203</ele>
        <time>2021-05-24T08:54:42Z</time>
      </trkpt>
      <trkpt lat="43.42017" lon="2.41677">
        <ele>839.247</ele>
        <time>2021-05-24T08:54:44Z</time>
      </trkpt>
      <trkpt lat="43.42019" lon="2.41679">
        <ele>839.201</ele>
        <time>2021-05-24T08:54:46Z</time>
      </trkpt>
      <trkpt lat="43.42021" lon="2.41681">
        <ele>839.651</ele>
        <time>2021-05-24T08:54:48Z</time>
      </trkpt>
      <trkpt lat="43.42022" lon="2.41682">
        <ele>839.537</ele>
        <time>2021-05-24T08:54:50Z</time>
      </trkpt>
      <trkpt lat="43.42024" lon="2.41684">
        <ele>839.124</ele>
        <time>2021-05-24T08:54:52Z</time>
      </trkpt>
      <trkpt lat="43.42025" lon="2.41685">
        <ele>839.073</ele>
        <time>2021-05-24T08:54:54Z</time>
      </trkpt>
      <trkpt lat="43.42027" lon="2.41687">
        <ele>838.966</ele>
        <time>2021-05-24T08:54:56Z</time>
      </trkpt>
      <trkpt lat="43.42029" lon="2.4169">
        <ele>839.381</ele>
        <time>2021-05-24T08:54:58Z</time>
      </trkpt>
      <trkpt lat="43.42031" lon="2.41692">
        <ele>840.497</ele>
        <time>2021-05-24T08:55:00Z</time>
      </trkpt>
      <trkpt lat="43.42032" lon="2.41694">
        <ele>840.752</ele>
        <time>2021-05-24T08:55:02Z</time>
      </trkpt>
      <trkpt lat="43.42034" lon="2.41696">
        <ele>840.856</ele>
        <time>2021-05-24T08:55:04Z</time>
      </trkpt>
      <trkpt lat="43.42035" lon="2.41698">
        <ele>841.07</ele>
        <time>2021-05-24T08:55:06Z</time>
      </trkpt>
      <trkpt lat="43.42037" lon="2.417">
        <ele>840.97</ele>
        <time>2021-05-24T08:55:08Z</time>
      </trkpt>
      <trkpt lat="43.42038" lon="2.41702">
        <ele>841.266</ele>
        <time>2021-05-24T08:55:10Z</time>
      </trkpt>
      <trkpt lat="43.4204" lon="2.41704">
        <ele>842.078</ele>
        <time>2021-05-24T08:55:12Z</time>
      </trkpt>
      <trkpt lat="43.42041" lon="2.41706">
        <ele>841.686</ele>
        <time>2021-05-24T08:55:14Z</time>
      </trkpt>
      <trkpt lat="43.42043" lon="2.41708">
        <ele>842.229</ele>
        <time>2021-05-24T08:55:16Z</time>
      </trkpt>
      <trkpt lat="43.42044" lon="2.4171">
        <ele>842.419</ele>
        <time>2021-05-24T08:55:18Z</time>
      </trkpt>
      <trkpt lat="43.42046" lon="2.41712">
        <ele>842.612</ele>
        <time>2021-05-24T08:55:20Z</time>
      </trkpt>
      <trkpt lat="43.42048" lon="2.41714">
        <ele>842.667</ele>
        <time>2021-05-24T08:55:22Z</time>
      </trkpt>
      <trkpt lat="43.4205" lon="2.41715">
        <ele>842.15</ele>
        <time>2021-05-24T08:55:24Z</time>
      </trkpt>
      <trkpt lat="43.42051" lon="2.41717">
        <ele>842.443</ele>
        <time>2021-05-24T08:55:26Z</time>
      </trkpt>
      <trkpt lat="43.42053" lon="2.41718">
        <ele>842.758</ele>
        <time>2021-05-24T08:55:28Z</time>
      </trkpt>
      <trkpt lat="43.42055" lon="2.4172">
        <ele>841.985</ele>
        <time>2021-05-24T08:55:30Z</time>
      </trkpt>
      <trkpt lat="43.42056" lon="2.41723">
        <ele>842.939</ele>
        <time>2021-05-24T08:55:32Z</time>
      </trkpt>
      <trkpt lat="43.42058" lon="2.41725">
        <ele>843.002</ele>
        <time>2021-05-24T08:55:34Z</time>
      </trkpt>
      <trkpt lat="43.4206" lon="2.41727">
        <ele>843.762</ele>
        <time>2021-05-24T08:55:36Z</time>
      </trkpt>
      <trkpt lat="43.42061" lon="2.41729">
        <ele>844.565</ele>
        <time>2021-05-24T08:55:38Z</time>
      </trkpt>
      <trkpt lat="43.42063" lon="2.41731">
        <ele>845.591</ele>
        <time>2021-05-24T08:55:40Z</time>
      </trkpt>
      <trkpt lat="43.42064" lon="2.41733">
        <ele>844.706</ele>
        <time>2021-05-24T08:55:42Z</time>
      </trkpt>
      <trkpt lat="43.42066" lon="2.41735">
        <ele>845.312</ele>
        <time>2021-05-24T08:55:44Z</time>
      </trkpt>
      <trkpt lat="43.42068" lon="2.41739">
        <ele>845.44</ele>
        <time>2021-05-24T08:55:46Z</time>
      </trkpt>
      <trkpt lat="43.4207" lon="2.41743">
        <ele>845.851</ele>
        <time>2021-05-24T08:55:48Z</time>
      </trkpt>
      <trkpt lat="43.42071" lon="2.41747">
        <ele>846.493</ele>
        <time>2021-05-24T08:55:50Z</time>
      </trkpt>
      <trkpt lat="43.42073" lon="2.41749">
        <ele>846.14</ele>
        <time>2021-05-24T08:55:52Z</time>
      </trkpt>
      <trkpt lat="43.42074" lon="2.41751">
        <ele>846.112</ele>
        <time>2021-05-24T08:55:54Z</time>
      </trkpt>
      <trkpt lat="43.42075" lon="2.41753">
        <ele>846.083</ele>
        <time>2021-05-24T08:55:56Z</time>
      </trkpt>
      <trkpt lat="43.42076" lon="2.41756">
        <ele>846.619</ele>
        <time>2021-05-24T08:55:58Z</time>
      </trkpt>
      <trkpt lat="43.42077" lon="2.41759">
        <ele>847.008</ele>
        <time>2021-05-24T08:56:00Z</time>
      </trkpt>
      <trkpt lat="43.42078" lon="2.41761">
        <ele>847.883</ele>
        <time>2021-05-24T08:56:02Z</time>
      </trkpt>
      <trkpt lat="43.4208" lon="2.41764">
        <ele>847.692</ele>
        <time>2021-05-24T08:56:04Z</time>
      </trkpt>
      <trkpt lat="43.42081" lon="2.41767">
        <ele>848.044</ele>
        <time>2021-05-24T08:56:06Z</time>
      </trkpt>
      <trkpt lat="43.42083" lon="2.41769">
        <ele>848.391</ele>
        <time>2021-05-24T08:56:08Z</time>
      </trkpt>
      <trkpt lat="43.42084" lon="2.41771">
        <ele>847.916</ele>
        <time>2021-05-24T08:56:10Z</time>
      </trkpt>
      <trkpt lat="43.42085" lon="2.41773">
        <ele>848.353</ele>
        <time>2021-05-24T08:56:12Z</time>
      </trkpt>
      <trkpt lat="43.42087" lon="2.41776">
        <ele>848.499</ele>
        <time>2021-05-24T08:56:14Z</time>
      </trkpt>
      <trkpt lat="43.42088" lon="2.41778">
        <ele>848.287</ele>
        <time>2021-05-24T08:56:16Z</time>
      </trkpt>
      <trkpt lat="43.4209" lon="2.4178">
        <ele>847.731</ele>
        <time>2021-05-24T08:56:18Z</time>
      </trkpt>
      <trkpt lat="43.42092" lon="2.41782">
        <ele>847.672</ele>
        <time>2021-05-24T08:56:20Z</time>
      </trkpt>
      <trkpt lat="43.42093" lon="2.41784">
        <ele>847.512</ele>
        <time>2021-05-24T08:56:22Z</time>
      </trkpt>
      <trkpt lat="43.42095" lon="2.41786">
        <ele>847.829</ele>
        <time>2021-05-24T08:56:24Z</time>
      </trkpt>
      <trkpt lat="43.42096" lon="2.41787">
        <ele>847.558</ele>
        <time>2021-05-24T08:56:26Z</time>
      </trkpt>
      <trkpt lat="43.42098" lon="2.41789">
        <ele>847.263</ele>
        <time>2021-05-24T08:56:28Z</time>
      </trkpt>
      <trkpt lat="43.421" lon="2.41791">
        <ele>846.999</ele>
        <time>2021-05-24T08:56:30Z</time>
      </trkpt>
      <trkpt lat="43.42102" lon="2.41793">
        <ele>846.471</ele>
        <time>2021-05-24T08:56:32Z</time>
      </trkpt>
      <trkpt lat="43.42104" lon="2.41795">
        <ele>846.296</ele>
        <time>2021-05-24T08:56:34Z</time>
      </trkpt>
      <trkpt lat="43.42107" lon="2.41798">
        <ele>846.726</ele>
        <time>2021-05-24T08:56:36Z</time>
      </trkpt>
      <trkpt lat="43.42109" lon="2.41799">
        <ele>846.792</ele>
        <time>2021-05-24T08:56:38Z</time>
      </trkpt>
      <trkpt lat="43.42111" lon="2.41801">
        <ele>846.767</ele>
        <time>2021-05-24T08:56:40Z</time>
      </trkpt>
      <trkpt lat="43.42113" lon="2.41803">
        <ele>846.613</ele>
        <time>2021-05-24T08:56:42Z</time>
      </trkpt>
      <trkpt lat="43.42115" lon="2.41804">
        <ele>846.14</ele>
        <time>2021-05-24T08:56:44Z</time>
      </trkpt>
      <trkpt lat="43.42117" lon="2.41806">
        <ele>845.516</ele>
        <time>2021-05-24T08:56:46Z</time>
      </trkpt>
      <trkpt lat="43.42119" lon="2.41807">
        <ele>845.566</ele>
        <time>2021-05-24T08:56:48Z</time>
      </trkpt>
      <trkpt lat="43.42121" lon="2.41809">
        <ele>844.987</ele>
        <time>2021-05-24T08:56:50Z</time>
      </trkpt>
      <trkpt lat="43.42123" lon="2.41811">
        <ele>844.314</ele>
        <time>2021-05-24T08:56:52Z</time>
      </trkpt>
      <trkpt lat="43.42125" lon="2.41812">
        <ele>843.659</ele>
        <time>2021-05-24T08:56:54Z</time>
      </trkpt>
      <trkpt lat="43.42127" lon="2.41815">
        <ele>843.523</ele>
        <time>2021-05-24T08:56:56Z</time>
      </trkpt>
      <trkpt lat="43.4213" lon="2.41816">
        <ele>843.596</ele>
        <time>2021-05-24T08:56:58Z</time>
      </trkpt>
      <trkpt lat="43.42132" lon="2.41818">
        <ele>842.814</ele>
        <time>2021-05-24T08:57:00Z</time>
      </trkpt>
      <trkpt lat="43.42134" lon="2.41819">
        <ele>842.392</ele>
        <time>2021-05-24T08:57:02Z</time>
      </trkpt>
      <trkpt lat="43.42136" lon="2.41821">
        <ele>842.214</ele>
        <time>2021-05-24T08:57:04Z</time>
      </trkpt>
      <trkpt lat="43.42138" lon="2.41822">
        <ele>841.875</ele>
        <time>2021-05-24T08:57:06Z</time>
      </trkpt>
      <trkpt lat="43.4214" lon="2.41824">
        <ele>841.226</ele>
        <time>2021-05-24T08:57:08Z</time>
      </trkpt>
      <trkpt lat="43.42143" lon="2.41826">
        <ele>841.007</ele>
        <time>2021-05-24T08:57:10Z</time>
      </trkpt>
      <trkpt lat="43.42145" lon="2.41827">
        <ele>841.334</ele>
        <time>2021-05-24T08:57:12Z</time>
      </trkpt>
      <trkpt lat="43.42148" lon="2.41828">
        <ele>841.426</ele>
        <time>2021-05-24T08:57:14Z</time>
      </trkpt>
      <trkpt lat="43.4215" lon="2.41829">
        <ele>841.162</ele>
        <time>2021-05-24T08:57:16Z</time>
      </trkpt>
      <trkpt lat="43.42153" lon="2.41829">
        <ele>840.946</ele>
        <time>2021-05-24T08:57:18Z</time>
      </trkpt>
      <trkpt lat="43.42155" lon="2.41831">
        <ele>840.861</ele>
        <time>2021-05-24T08:57:20Z</time>
      </trkpt>
      <trkpt lat="43.42158" lon="2.41832">
        <ele>841.419</ele>
        <time>2021-05-24T08:57:22Z</time>
      </trkpt>
      <trkpt lat="43.4216" lon="2.41833">
        <ele>840.914</ele>
        <time>2021-05-24T08:57:24Z</time>
      </trkpt>
      <trkpt lat="43.42163" lon="2.41833">
        <ele>840.782</ele>
        <time>2021-05-24T08:57:26Z</time>
      </trkpt>
      <trkpt lat="43.42165" lon="2.41835">
        <ele>841.258</ele>
        <time>2021-05-24T08:57:28Z</time>
      </trkpt>
      <trkpt lat="43.42167" lon="2.41837">
        <ele>841.409</ele>
        <time>2021-05-24T08:57:30Z</time>
      </trkpt>
      <trkpt lat="43.42169" lon="2.41839">
        <ele>842.295</ele>
        <time>2021-05-24T08:57:32Z</time>
      </trkpt>
      <trkpt lat="43.42171" lon="2.41841">
        <ele>842.481</ele>
        <time>2021-05-24T08:57:34Z</time>
      </trkpt>
      <trkpt lat="43.42174" lon="2.41842">
        <ele>842.554</ele>
        <time>2021-05-24T08:57:36Z</time>
      </trkpt>
      <trkpt lat="43.42176" lon="2.41845">
        <ele>842.106</ele>
        <time>2021-05-24T08:57:38Z</time>
      </trkpt>
      <trkpt lat="43.42178" lon="2.41849">
        <ele>841.655</ele>
        <time>2021-05-24T08:57:40Z</time>
      </trkpt>
      <trkpt lat="43.42179" lon="2.41851">
        <ele>841.768</ele>
        <time>2021-05-24T08:57:42Z</time>
      </trkpt>
      <trkpt lat="43.42182" lon="2.41852">
        <ele>841.302</ele>
        <time>2021-05-24T08:57:44Z</time>
      </trkpt>
      <trkpt lat="43.42183" lon="2.41854">
        <ele>840.966</ele>
        <time>2021-05-24T08:57:46Z</time>
      </trkpt>
      <trkpt lat="43.42185" lon="2.41857">
        <ele>841.789</ele>
        <time>2021-05-24T08:57:48Z</time>
      </trkpt>
      <trkpt lat="43.42187" lon="2.41859">
        <ele>842.17</ele>
        <time>2021-05-24T08:57:50Z</time>
      </trkpt>
      <trkpt lat="43.42188" lon="2.41862">
        <ele>842.601</ele>
        <time>2021-05-24T08:57:52Z</time>
      </trkpt>
      <trkpt lat="43.4219" lon="2.41865">
        <ele>842.838</ele>
        <time>2021-05-24T08:57:54Z</time>
      </trkpt>
      <trkpt lat="43.4219" lon="2.41867">
        <ele>843.116</ele>
        <time>2021-05-24T08:57:55Z</time>
      </trkpt>
      <trkpt lat="43.42192" lon="2.41872">
        <ele>843.322</ele>
        <time>2021-05-24T08:57:58Z</time>
      </trkpt>
      <trkpt lat="43.42194" lon="2.41874">
        <ele>843.091</ele>
        <time>2021-05-24T08:58:00Z</time>
      </trkpt>
      <trkpt lat="43.42195" lon="2.41876">
        <ele>843.14</ele>
        <time>2021-05-24T08:58:02Z</time>
      </trkpt>
      <trkpt lat="43.42197" lon="2.41879">
        <ele>843.287</ele>
        <time>2021-05-24T08:58:04Z</time>
      </trkpt>
      <trkpt lat="43.42197" lon="2.41883">
        <ele>843.651</ele>
        <time>2021-05-24T08:58:06Z</time>
      </trkpt>
      <trkpt lat="43.42198" lon="2.41886">
        <ele>843.917</ele>
        <time>2021-05-24T08:58:08Z</time>
      </trkpt>
      <trkpt lat="43.42199" lon="2.41889">
        <ele>843.602</ele>
        <time>2021-05-24T08:58:10Z</time>
      </trkpt>
      <trkpt lat="43.422" lon="2.41893">
        <ele>843.6</ele>
        <time>2021-05-24T08:58:12Z</time>
      </trkpt>
      <trkpt lat="43.42201" lon="2.41896">
        <ele>843.639</ele>
        <time>2021-05-24T08:58:14Z</time>
      </trkpt>
      <trkpt lat="43.42201" lon="2.41899">
        <ele>843.513</ele>
        <time>2021-05-24T08:58:16Z</time>
      </trkpt>
      <trkpt lat="43.42202" lon="2.41902">
        <ele>843.212</ele>
        <time>2021-05-24T08:58:18Z</time>
      </trkpt>
      <trkpt lat="43.42204" lon="2.41905">
        <ele>842.959</ele>
        <time>2021-05-24T08:58:20Z</time>
      </trkpt>
      <trkpt lat="43.42205" lon="2.41909">
        <ele>841.991</ele>
        <time>2021-05-24T08:58:22Z</time>
      </trkpt>
      <trkpt lat="43.42207" lon="2.41914">
        <ele>842.024</ele>
        <time>2021-05-24T08:58:24Z</time>
      </trkpt>
      <trkpt lat="43.42208" lon="2.41917">
        <ele>843.64</ele>
        <time>2021-05-24T08:58:26Z</time>
      </trkpt>
      <trkpt lat="43.4221" lon="2.41921">
        <ele>843.514</ele>
        <time>2021-05-24T08:58:28Z</time>
      </trkpt>
      <trkpt lat="43.42211" lon="2.41924">
        <ele>844.593</ele>
        <time>2021-05-24T08:58:30Z</time>
      </trkpt>
      <trkpt lat="43.42211" lon="2.41928">
        <ele>845.765</ele>
        <time>2021-05-24T08:58:32Z</time>
      </trkpt>
      <trkpt lat="43.42213" lon="2.4193">
        <ele>845.548</ele>
        <time>2021-05-24T08:58:34Z</time>
      </trkpt>
      <trkpt lat="43.42214" lon="2.41932">
        <ele>844.676</ele>
        <time>2021-05-24T08:58:36Z</time>
      </trkpt>
      <trkpt lat="43.42215" lon="2.41935">
        <ele>844.52</ele>
        <time>2021-05-24T08:58:38Z</time>
      </trkpt>
      <trkpt lat="43.42215" lon="2.41937">
        <ele>843.963</ele>
        <time>2021-05-24T08:58:40Z</time>
      </trkpt>
      <trkpt lat="43.42216" lon="2.4194">
        <ele>844.886</ele>
        <time>2021-05-24T08:58:42Z</time>
      </trkpt>
      <trkpt lat="43.42216" lon="2.41943">
        <ele>845.729</ele>
        <time>2021-05-24T08:58:44Z</time>
      </trkpt>
      <trkpt lat="43.42217" lon="2.41947">
        <ele>845.969</ele>
        <time>2021-05-24T08:58:46Z</time>
      </trkpt>
      <trkpt lat="43.42217" lon="2.4195">
        <ele>846.268</ele>
        <time>2021-05-24T08:58:48Z</time>
      </trkpt>
      <trkpt lat="43.42218" lon="2.41953">
        <ele>845.988</ele>
        <time>2021-05-24T08:58:50Z</time>
      </trkpt>
      <trkpt lat="43.42219" lon="2.41955">
        <ele>846.328</ele>
        <time>2021-05-24T08:58:52Z</time>
      </trkpt>
      <trkpt lat="43.42221" lon="2.41957">
        <ele>846.788</ele>
        <time>2021-05-24T08:58:54Z</time>
      </trkpt>
      <trkpt lat="43.42222" lon="2.41959">
        <ele>846.577</ele>
        <time>2021-05-24T08:58:56Z</time>
      </trkpt>
      <trkpt lat="43.42223" lon="2.41962">
        <ele>846.507</ele>
        <time>2021-05-24T08:58:58Z</time>
      </trkpt>
      <trkpt lat="43.42224" lon="2.41964">
        <ele>847.044</ele>
        <time>2021-05-24T08:59:00Z</time>
      </trkpt>
      <trkpt lat="43.42225" lon="2.41967">
        <ele>847.533</ele>
        <time>2021-05-24T08:59:02Z</time>
      </trkpt>
      <trkpt lat="43.42226" lon="2.4197">
        <ele>847.305</ele>
        <time>2021-05-24T08:59:04Z</time>
      </trkpt>
      <trkpt lat="43.42227" lon="2.41973">
        <ele>847.441</ele>
        <time>2021-05-24T08:59:06Z</time>
      </trkpt>
      <trkpt lat="43.42228" lon="2.41975">
        <ele>848.17</ele>
        <time>2021-05-24T08:59:08Z</time>
      </trkpt>
      <trkpt lat="43.4223" lon="2.41977">
        <ele>847.575</ele>
        <time>2021-05-24T08:59:10Z</time>
      </trkpt>
      <trkpt lat="43.42231" lon="2.4198">
        <ele>848.224</ele>
        <time>2021-05-24T08:59:12Z</time>
      </trkpt>
      <trkpt lat="43.42232" lon="2.41982">
        <ele>848.6</ele>
        <time>2021-05-24T08:59:14Z</time>
      </trkpt>
      <trkpt lat="43.42232" lon="2.41985">
        <ele>848.88</ele>
        <time>2021-05-24T08:59:16Z</time>
      </trkpt>
      <trkpt lat="43.42233" lon="2.41987">
        <ele>849.975</ele>
        <time>2021-05-24T08:59:18Z</time>
      </trkpt>
      <trkpt lat="43.42235" lon="2.4199">
        <ele>850.04</ele>
        <time>2021-05-24T08:59:20Z</time>
      </trkpt>
      <trkpt lat="43.42236" lon="2.41993">
        <ele>850.321</ele>
        <time>2021-05-24T08:59:22Z</time>
      </trkpt>
      <trkpt lat="43.42237" lon="2.41995">
        <ele>850.787</ele>
        <time>2021-05-24T08:59:24Z</time>
      </trkpt>
      <trkpt lat="43.42237" lon="2.41998">
        <ele>850.505</ele>
        <time>2021-05-24T08:59:26Z</time>
      </trkpt>
      <trkpt lat="43.42238" lon="2.42001">
        <ele>850.772</ele>
        <time>2021-05-24T08:59:28Z</time>
      </trkpt>
      <trkpt lat="43.42239" lon="2.42003">
        <ele>851.926</ele>
        <time>2021-05-24T08:59:30Z</time>
      </trkpt>
      <trkpt lat="43.4224" lon="2.42006">
        <ele>851.974</ele>
        <time>2021-05-24T08:59:32Z</time>
      </trkpt>
      <trkpt lat="43.42241" lon="2.42008">
        <ele>852.452</ele>
        <time>2021-05-24T08:59:34Z</time>
      </trkpt>
      <trkpt lat="43.42241" lon="2.42011">
        <ele>852.511</ele>
        <time>2021-05-24T08:59:36Z</time>
      </trkpt>
      <trkpt lat="43.42242" lon="2.42013">
        <ele>853.574</ele>
        <time>2021-05-24T08:59:38Z</time>
      </trkpt>
      <trkpt lat="43.42243" lon="2.42017">
        <ele>854.382</ele>
        <time>2021-05-24T08:59:40Z</time>
      </trkpt>
      <trkpt lat="43.42244" lon="2.4202">
        <ele>854.327</ele>
        <time>2021-05-24T08:59:42Z</time>
      </trkpt>
      <trkpt lat="43.42245" lon="2.42023">
        <ele>854.701</ele>
        <time>2021-05-24T08:59:44Z</time>
      </trkpt>
      <trkpt lat="43.42246" lon="2.42026">
        <ele>855.424</ele>
        <time>2021-05-24T08:59:46Z</time>
      </trkpt>
      <trkpt lat="43.42247" lon="2.42028">
        <ele>855.271</ele>
        <time>2021-05-24T08:59:48Z</time>
      </trkpt>
      <trkpt lat="43.42248" lon="2.42031">
        <ele>855.656</ele>
        <time>2021-05-24T08:59:50Z</time>
      </trkpt>
      <trkpt lat="43.42249" lon="2.42034">
        <ele>855.122</ele>
        <time>2021-05-24T08:59:52Z</time>
      </trkpt>
      <trkpt lat="43.42252" lon="2.42037">
        <ele>854.276</ele>
        <time>2021-05-24T08:59:54Z</time>
      </trkpt>
      <trkpt lat="43.42254" lon="2.42039">
        <ele>852.129</ele>
        <time>2021-05-24T08:59:56Z</time>
      </trkpt>
      <trkpt lat="43.42255" lon="2.42043">
        <ele>852.726</ele>
        <time>2021-05-24T08:59:58Z</time>
      </trkpt>
      <trkpt lat="43.42255" lon="2.42044">
        <ele>851.806</ele>
        <time>2021-05-24T09:00:00Z</time>
      </trkpt>
      <trkpt lat="43.42257" lon="2.42043">
        <ele>852.659</ele>
        <time>2021-05-24T09:00:02Z</time>
      </trkpt>
      <trkpt lat="43.42258" lon="2.42043">
        <ele>853.169</ele>
        <time>2021-05-24T09:00:04Z</time>
      </trkpt>
      <trkpt lat="43.42257" lon="2.42043">
        <ele>853.085</ele>
        <time>2021-05-24T09:00:06Z</time>
      </trkpt>
      <trkpt lat="43.42257" lon="2.42043">
        <ele>853.086</ele>
        <time>2021-05-24T09:00:08Z</time>
      </trkpt>
      <trkpt lat="43.42258" lon="2.42043">
        <ele>853.756</ele>
        <time>2021-05-24T09:00:10Z</time>
      </trkpt>
      <trkpt lat="43.42258" lon="2.42042">
        <ele>853.86</ele>
        <time>2021-05-24T09:00:12Z</time>
      </trkpt>
      <trkpt lat="43.42258" lon="2.42042">
        <ele>853.855</ele>
        <time>2021-05-24T09:00:14Z</time>
      </trkpt>
      <trkpt lat="43.42258" lon="2.42042">
        <ele>853.853</ele>
        <time>2021-05-24T09:00:16Z</time>
      </trkpt>
      <trkpt lat="43.42259" lon="2.42042">
        <ele>853.913</ele>
        <time>2021-05-24T09:00:18Z</time>
      </trkpt>
      <trkpt lat="43.42259" lon="2.42043">
        <ele>853.33</ele>
        <time>2021-05-24T09:00:20Z</time>
      </trkpt>
      <trkpt lat="43.42259" lon="2.42043">
        <ele>853.415</ele>
        <time>2021-05-24T09:00:22Z</time>
      </trkpt>
      <trkpt lat="43.42259" lon="2.42043">
        <ele>853.417</ele>
        <time>2021-05-24T09:00:24Z</time>
      </trkpt>
      <trkpt lat="43.42259" lon="2.42043">
        <ele>853.421</ele>
        <time>2021-05-24T09:00:26Z</time>
      </trkpt>
      <trkpt lat="43.42259" lon="2.42043">
        <ele>853.723</ele>
        <time>2021-05-24T09:00:28Z</time>
      </trkpt>
      <trkpt lat="43.42258" lon="2.42044">
        <ele>854.365</ele>
        <time>2021-05-24T09:00:30Z</time>
      </trkpt>
      <trkpt lat="43.42257" lon="2.42044">
        <ele>855.062</ele>
        <time>2021-05-24T09:00:32Z</time>
      </trkpt>
      <trkpt lat="43.42257" lon="2.42045">
        <ele>854.8</ele>
        <time>2021-05-24T09:00:34Z</time>
      </trkpt>
      <trkpt lat="43.42257" lon="2.42045">
        <ele>854.912</ele>
        <time>2021-05-24T09:00:36Z</time>
      </trkpt>
      <trkpt lat="43.42256" lon="2.42046">
        <ele>854.897</ele>
        <time>2021-05-24T09:00:38Z</time>
      </trkpt>
      <trkpt lat="43.42256" lon="2.42046">
        <ele>854.901</ele>
        <time>2021-05-24T09:00:40Z</time>
      </trkpt>
      <trkpt lat="43.42256" lon="2.42046">
        <ele>854.898</ele>
        <time>2021-05-24T09:00:42Z</time>
      </trkpt>
      <trkpt lat="43.42256" lon="2.42047">
        <ele>854.224</ele>
        <time>2021-05-24T09:00:44Z</time>
      </trkpt>
      <trkpt lat="43.42256" lon="2.42047">
        <ele>854.576</ele>
        <time>2021-05-24T09:00:46Z</time>
      </trkpt>
      <trkpt lat="43.42256" lon="2.42047">
        <ele>854.58</ele>
        <time>2021-05-24T09:00:48Z</time>
      </trkpt>
      <trkpt lat="43.42256" lon="2.42047">
        <ele>854.583</ele>
        <time>2021-05-24T09:00:50Z</time>
      </trkpt>
      <trkpt lat="43.42256" lon="2.42047">
        <ele>854.588</ele>
        <time>2021-05-24T09:00:52Z</time>
      </trkpt>
      <trkpt lat="43.42256" lon="2.42048">
        <ele>854.931</ele>
        <time>2021-05-24T09:00:54Z</time>
      </trkpt>
      <trkpt lat="43.42255" lon="2.42048">
        <ele>854.313</ele>
        <time>2021-05-24T09:00:56Z</time>
      </trkpt>
      <trkpt lat="43.42255" lon="2.42048">
        <ele>854.321</ele>
        <time>2021-05-24T09:00:58Z</time>
      </trkpt>
      <trkpt lat="43.42255" lon="2.42048">
        <ele>854.412</ele>
        <time>2021-05-24T09:01:00Z</time>
      </trkpt>
      <trkpt lat="43.42255" lon="2.42048">
        <ele>854.719</ele>
        <time>2021-05-24T09:01:02Z</time>
      </trkpt>
      <trkpt lat="43.42255" lon="2.42048">
        <ele>854.715</ele>
        <time>2021-05-24T09:01:04Z</time>
      </trkpt>
      <trkpt lat="43.42255" lon="2.42048">
        <ele>854.711</ele>
        <time>2021-05-24T09:01:06Z</time>
      </trkpt>
      <trkpt lat="43.42255" lon="2.42048">
        <ele>854.704</ele>
        <time>2021-05-24T09:01:08Z</time>
      </trkpt>
      <trkpt lat="43.42254" lon="2.42048">
        <ele>854.763</ele>
        <time>2021-05-24T09:01:10Z</time>
      </trkpt>
      <trkpt lat="43.42253" lon="2.4205">
        <ele>854.84</ele>
        <time>2021-05-24T09:01:12Z</time>
      </trkpt>
      <trkpt lat="43.42254" lon="2.42051">
        <ele>855.893</ele>
        <time>2021-05-24T09:01:14Z</time>
      </trkpt>
      <trkpt lat="43.42254" lon="2.42052">
        <ele>855.744</ele>
        <time>2021-05-24T09:01:16Z</time>
      </trkpt>
      <trkpt lat="43.42256" lon="2.42051">
        <ele>856.212</ele>
        <time>2021-05-24T09:01:18Z</time>
      </trkpt>
      <trkpt lat="43.42256" lon="2.42051">
        <ele>856.206</ele>
        <time>2021-05-24T09:01:20Z</time>
      </trkpt>
      <trkpt lat="43.42256" lon="2.42051">
        <ele>856.199</ele>
        <time>2021-05-24T09:01:22Z</time>
      </trkpt>
      <trkpt lat="43.42256" lon="2.42051">
        <ele>856.203</ele>
        <time>2021-05-24T09:01:24Z</time>
      </trkpt>
      <trkpt lat="43.42256" lon="2.42051">
        <ele>856.199</ele>
        <time>2021-05-24T09:01:26Z</time>
      </trkpt>
      <trkpt lat="43.42256" lon="2.42051">
        <ele>856.195</ele>
        <time>2021-05-24T09:01:28Z</time>
      </trkpt>
      <trkpt lat="43.42256" lon="2.42051">
        <ele>856.294</ele>
        <time>2021-05-24T09:01:30Z</time>
      </trkpt>
      <trkpt lat="43.42256" lon="2.42052">
        <ele>856.35</ele>
        <time>2021-05-24T09:01:32Z</time>
      </trkpt>
      <trkpt lat="43.42256" lon="2.42053">
        <ele>856.101</ele>
        <time>2021-05-24T09:01:34Z</time>
      </trkpt>
      <trkpt lat="43.42256" lon="2.42054">
        <ele>856.445</ele>
        <time>2021-05-24T09:01:36Z</time>
      </trkpt>
      <trkpt lat="43.42256" lon="2.42054">
        <ele>856.375</ele>
        <time>2021-05-24T09:01:38Z</time>
      </trkpt>
      <trkpt lat="43.42256" lon="2.42054">
        <ele>856.379</ele>
        <time>2021-05-24T09:01:40Z</time>
      </trkpt>
      <trkpt lat="43.42255" lon="2.42055">
        <ele>857.088</ele>
        <time>2021-05-24T09:01:42Z</time>
      </trkpt>
      <trkpt lat="43.42254" lon="2.42055">
        <ele>856.909</ele>
        <time>2021-05-24T09:01:44Z</time>
      </trkpt>
      <trkpt lat="43.42254" lon="2.42055">
        <ele>856.908</ele>
        <time>2021-05-24T09:01:46Z</time>
      </trkpt>
      <trkpt lat="43.42254" lon="2.42055">
        <ele>856.91</ele>
        <time>2021-05-24T09:01:48Z</time>
      </trkpt>
      <trkpt lat="43.42254" lon="2.42055">
        <ele>856.913</ele>
        <time>2021-05-24T09:01:50Z</time>
      </trkpt>
      <trkpt lat="43.42254" lon="2.42055">
        <ele>856.913</ele>
        <time>2021-05-24T09:01:52Z</time>
      </trkpt>
      <trkpt lat="43.42254" lon="2.42055">
        <ele>856.916</ele>
        <time>2021-05-24T09:01:54Z</time>
      </trkpt>
      <trkpt lat="43.42254" lon="2.42055">
        <ele>856.909</ele>
        <time>2021-05-24T09:01:56Z</time>
      </trkpt>
      <trkpt lat="43.42254" lon="2.42055">
        <ele>856.908</ele>
        <time>2021-05-24T09:01:58Z</time>
      </trkpt>
      <trkpt lat="43.42254" lon="2.42055">
        <ele>855.759</ele>
        <time>2021-05-24T09:02:00Z</time>
      </trkpt>
      <trkpt lat="43.42254" lon="2.42055">
        <ele>855.74</ele>
        <time>2021-05-24T09:02:02Z</time>
      </trkpt>
      <trkpt lat="43.42254" lon="2.42055">
        <ele>855.73</ele>
        <time>2021-05-24T09:02:04Z</time>
      </trkpt>
      <trkpt lat="43.42254" lon="2.42055">
        <ele>855.723</ele>
        <time>2021-05-24T09:02:06Z</time>
      </trkpt>
      <trkpt lat="43.42254" lon="2.42055">
        <ele>855.721</ele>
        <time>2021-05-24T09:02:08Z</time>
      </trkpt>
      <trkpt lat="43.42254" lon="2.42056">
        <ele>856.397</ele>
        <time>2021-05-24T09:02:10Z</time>
      </trkpt>
      <trkpt lat="43.42254" lon="2.42058">
        <ele>856.319</ele>
        <time>2021-05-24T09:02:12Z</time>
      </trkpt>
      <trkpt lat="43.42255" lon="2.4206">
        <ele>855.654</ele>
        <time>2021-05-24T09:02:14Z</time>
      </trkpt>
      <trkpt lat="43.42256" lon="2.42062">
        <ele>856.725</ele>
        <time>2021-05-24T09:02:16Z</time>
      </trkpt>
      <trkpt lat="43.42256" lon="2.42064">
        <ele>857.197</ele>
        <time>2021-05-24T09:02:18Z</time>
      </trkpt>
      <trkpt lat="43.42256" lon="2.42067">
        <ele>857.955</ele>
        <time>2021-05-24T09:02:20Z</time>
      </trkpt>
      <trkpt lat="43.42255" lon="2.4207">
        <ele>859.009</ele>
        <time>2021-05-24T09:02:22Z</time>
      </trkpt>
      <trkpt lat="43.42254" lon="2.42072">
        <ele>858.768</ele>
        <time>2021-05-24T09:02:24Z</time>
      </trkpt>
      <trkpt lat="43.42254" lon="2.42073">
        <ele>859.797</ele>
        <time>2021-05-24T09:02:26Z</time>
      </trkpt>
      <trkpt lat="43.42254" lon="2.42074">
        <ele>860.645</ele>
        <time>2021-05-24T09:02:28Z</time>
      </trkpt>
      <trkpt lat="43.42253" lon="2.42072">
        <ele>860.85</ele>
        <time>2021-05-24T09:02:30Z</time>
      </trkpt>
      <trkpt lat="43.42252" lon="2.42071">
        <ele>861.376</ele>
        <time>2021-05-24T09:02:32Z</time>
      </trkpt>
      <trkpt lat="43.42252" lon="2.42073">
        <ele>861.137</ele>
        <time>2021-05-24T09:02:34Z</time>
      </trkpt>
      <trkpt lat="43.42251" lon="2.42076">
        <ele>861.125</ele>
        <time>2021-05-24T09:02:36Z</time>
      </trkpt>
      <trkpt lat="43.42252" lon="2.42078">
        <ele>861.386</ele>
        <time>2021-05-24T09:02:38Z</time>
      </trkpt>
      <trkpt lat="43.42252" lon="2.42082">
        <ele>860.419</ele>
        <time>2021-05-24T09:02:40Z</time>
      </trkpt>
      <trkpt lat="43.42253" lon="2.42084">
        <ele>860.268</ele>
        <time>2021-05-24T09:02:42Z</time>
      </trkpt>
      <trkpt lat="43.42254" lon="2.42087">
        <ele>859.474</ele>
        <time>2021-05-24T09:02:44Z</time>
      </trkpt>
      <trkpt lat="43.42255" lon="2.4209">
        <ele>859.943</ele>
        <time>2021-05-24T09:02:46Z</time>
      </trkpt>
      <trkpt lat="43.42255" lon="2.42093">
        <ele>859.032</ele>
        <time>2021-05-24T09:02:48Z</time>
      </trkpt>
      <trkpt lat="43.42255" lon="2.42095">
        <ele>857.177</ele>
        <time>2021-05-24T09:02:50Z</time>
      </trkpt>
      <trkpt lat="43.42253" lon="2.42097">
        <ele>856.732</ele>
        <time>2021-05-24T09:02:52Z</time>
      </trkpt>
      <trkpt lat="43.42252" lon="2.42099">
        <ele>855.615</ele>
        <time>2021-05-24T09:02:54Z</time>
      </trkpt>
      <trkpt lat="43.42252" lon="2.42102">
        <ele>855.619</ele>
        <time>2021-05-24T09:02:56Z</time>
      </trkpt>
      <trkpt lat="43.42251" lon="2.42106">
        <ele>857.857</ele>
        <time>2021-05-24T09:02:58Z</time>
      </trkpt>
      <trkpt lat="43.4225" lon="2.4211">
        <ele>856.921</ele>
        <time>2021-05-24T09:03:00Z</time>
      </trkpt>
      <trkpt lat="43.4225" lon="2.42113">
        <ele>855.773</ele>
        <time>2021-05-24T09:03:02Z</time>
      </trkpt>
      <trkpt lat="43.42251" lon="2.42116">
        <ele>855.427</ele>
        <time>2021-05-24T09:03:04Z</time>
      </trkpt>
      <trkpt lat="43.42251" lon="2.42119">
        <ele>856.082</ele>
        <time>2021-05-24T09:03:06Z</time>
      </trkpt>
      <trkpt lat="43.42251" lon="2.42122">
        <ele>856.125</ele>
        <time>2021-05-24T09:03:08Z</time>
      </trkpt>
      <trkpt lat="43.42251" lon="2.42125">
        <ele>855.522</ele>
        <time>2021-05-24T09:03:10Z</time>
      </trkpt>
      <trkpt lat="43.4225" lon="2.42128">
        <ele>855.644</ele>
        <time>2021-05-24T09:03:12Z</time>
      </trkpt>
      <trkpt lat="43.4225" lon="2.42131">
        <ele>856.371</ele>
        <time>2021-05-24T09:03:14Z</time>
      </trkpt>
      <trkpt lat="43.4225" lon="2.42135">
        <ele>860.351</ele>
        <time>2021-05-24T09:03:16Z</time>
      </trkpt>
      <trkpt lat="43.4225" lon="2.42138">
        <ele>859.704</ele>
        <time>2021-05-24T09:03:18Z</time>
      </trkpt>
      <trkpt lat="43.42251" lon="2.42141">
        <ele>860.12</ele>
        <time>2021-05-24T09:03:20Z</time>
      </trkpt>
      <trkpt lat="43.42251" lon="2.42144">
        <ele>860.998</ele>
        <time>2021-05-24T09:03:22Z</time>
      </trkpt>
      <trkpt lat="43.42251" lon="2.42147">
        <ele>861.52</ele>
        <time>2021-05-24T09:03:24Z</time>
      </trkpt>
      <trkpt lat="43.42251" lon="2.4215">
        <ele>861.477</ele>
        <time>2021-05-24T09:03:26Z</time>
      </trkpt>
      <trkpt lat="43.4225" lon="2.42154">
        <ele>863.988</ele>
        <time>2021-05-24T09:03:28Z</time>
      </trkpt>
      <trkpt lat="43.42249" lon="2.42156">
        <ele>864.144</ele>
        <time>2021-05-24T09:03:30Z</time>
      </trkpt>
      <trkpt lat="43.42248" lon="2.42158">
        <ele>862.541</ele>
        <time>2021-05-24T09:03:32Z</time>
      </trkpt>
      <trkpt lat="43.42249" lon="2.42159">
        <ele>861.671</ele>
        <time>2021-05-24T09:03:34Z</time>
      </trkpt>
      <trkpt lat="43.42249" lon="2.42159">
        <ele>861.207</ele>
        <time>2021-05-24T09:03:36Z</time>
      </trkpt>
      <trkpt lat="43.42249" lon="2.42158">
        <ele>860.786</ele>
        <time>2021-05-24T09:03:38Z</time>
      </trkpt>
      <trkpt lat="43.42249" lon="2.42157">
        <ele>861.24</ele>
        <time>2021-05-24T09:03:40Z</time>
      </trkpt>
      <trkpt lat="43.42249" lon="2.42157">
        <ele>862.439</ele>
        <time>2021-05-24T09:03:42Z</time>
      </trkpt>
      <trkpt lat="43.4225" lon="2.42157">
        <ele>863.747</ele>
        <time>2021-05-24T09:03:44Z</time>
      </trkpt>
      <trkpt lat="43.4225" lon="2.42157">
        <ele>863.759</ele>
        <time>2021-05-24T09:03:46Z</time>
      </trkpt>
      <trkpt lat="43.4225" lon="2.42157">
        <ele>863.755</ele>
        <time>2021-05-24T09:03:48Z</time>
      </trkpt>
      <trkpt lat="43.4225" lon="2.42157">
        <ele>863.766</ele>
        <time>2021-05-24T09:03:50Z</time>
      </trkpt>
      <trkpt lat="43.4225" lon="2.42157">
        <ele>863.768</ele>
        <time>2021-05-24T09:03:52Z</time>
      </trkpt>
      <trkpt lat="43.4225" lon="2.42157">
        <ele>863.766</ele>
        <time>2021-05-24T09:03:54Z</time>
      </trkpt>
      <trkpt lat="43.4225" lon="2.42157">
        <ele>863.764</ele>
        <time>2021-05-24T09:03:56Z</time>
      </trkpt>
      <trkpt lat="43.4225" lon="2.42157">
        <ele>863.761</ele>
        <time>2021-05-24T09:03:58Z</time>
      </trkpt>
      <trkpt lat="43.4225" lon="2.42157">
        <ele>863.772</ele>
        <time>2021-05-24T09:04:00Z</time>
      </trkpt>
      <trkpt lat="43.4225" lon="2.42157">
        <ele>863.767</ele>
        <time>2021-05-24T09:04:02Z</time>
      </trkpt>
      <trkpt lat="43.4225" lon="2.42157">
        <ele>863.784</ele>
        <time>2021-05-24T09:04:04Z</time>
      </trkpt>
      <trkpt lat="43.4225" lon="2.42157">
        <ele>863.763</ele>
        <time>2021-05-24T09:04:06Z</time>
      </trkpt>
      <trkpt lat="43.4225" lon="2.42157">
        <ele>863.749</ele>
        <time>2021-05-24T09:04:08Z</time>
      </trkpt>
      <trkpt lat="43.4225" lon="2.42157">
        <ele>863.753</ele>
        <time>2021-05-24T09:04:10Z</time>
      </trkpt>
      <trkpt lat="43.4225" lon="2.42157">
        <ele>863.757</ele>
        <time>2021-05-24T09:04:12Z</time>
      </trkpt>
      <trkpt lat="43.4225" lon="2.42158">
        <ele>863.44</ele>
        <time>2021-05-24T09:04:14Z</time>
      </trkpt>
      <trkpt lat="43.42251" lon="2.4216">
        <ele>864.016</ele>
        <time>2021-05-24T09:04:16Z</time>
      </trkpt>
      <trkpt lat="43.42251" lon="2.42162">
        <ele>864.073</ele>
        <time>2021-05-24T09:04:18Z</time>
      </trkpt>
      <trkpt lat="43.42251" lon="2.42163">
        <ele>863.093</ele>
        <time>2021-05-24T09:04:20Z</time>
      </trkpt>
      <trkpt lat="43.42252" lon="2.42165">
        <ele>862.386</ele>
        <time>2021-05-24T09:04:22Z</time>
      </trkpt>
      <trkpt lat="43.42254" lon="2.42166">
        <ele>862.32</ele>
        <time>2021-05-24T09:04:24Z</time>
      </trkpt>
      <trkpt lat="43.42256" lon="2.42168">
        <ele>862.78</ele>
        <time>2021-05-24T09:04:26Z</time>
      </trkpt>
      <trkpt lat="43.42258" lon="2.4217">
        <ele>862.174</ele>
        <time>2021-05-24T09:04:28Z</time>
      </trkpt>
      <trkpt lat="43.42259" lon="2.42172">
        <ele>862.284</ele>
        <time>2021-05-24T09:04:30Z</time>
      </trkpt>
      <trkpt lat="43.42261" lon="2.42174">
        <ele>862.616</ele>
        <time>2021-05-24T09:04:32Z</time>
      </trkpt>
      <trkpt lat="43.42262" lon="2.42177">
        <ele>863.439</ele>
        <time>2021-05-24T09:04:34Z</time>
      </trkpt>
      <trkpt lat="43.42264" lon="2.42179">
        <ele>863.876</ele>
        <time>2021-05-24T09:04:36Z</time>
      </trkpt>
      <trkpt lat="43.42266" lon="2.42181">
        <ele>864.51</ele>
        <time>2021-05-24T09:04:38Z</time>
      </trkpt>
      <trkpt lat="43.42267" lon="2.42183">
        <ele>864.755</ele>
        <time>2021-05-24T09:04:40Z</time>
      </trkpt>
      <trkpt lat="43.42269" lon="2.42184">
        <ele>865.013</ele>
        <time>2021-05-24T09:04:42Z</time>
      </trkpt>
      <trkpt lat="43.4227" lon="2.42186">
        <ele>865.065</ele>
        <time>2021-05-24T09:04:44Z</time>
      </trkpt>
      <trkpt lat="43.42272" lon="2.42188">
        <ele>865.556</ele>
        <time>2021-05-24T09:04:46Z</time>
      </trkpt>
      <trkpt lat="43.4227" lon="2.42191">
        <ele>865.445</ele>
        <time>2021-05-24T09:04:48Z</time>
      </trkpt>
      <trkpt lat="43.42269" lon="2.42193">
        <ele>865.224</ele>
        <time>2021-05-24T09:04:50Z</time>
      </trkpt>
      <trkpt lat="43.42268" lon="2.42195">
        <ele>866.121</ele>
        <time>2021-05-24T09:04:52Z</time>
      </trkpt>
      <trkpt lat="43.42268" lon="2.42198">
        <ele>867.177</ele>
        <time>2021-05-24T09:04:54Z</time>
      </trkpt>
      <trkpt lat="43.42268" lon="2.42201">
        <ele>868.061</ele>
        <time>2021-05-24T09:04:56Z</time>
      </trkpt>
      <trkpt lat="43.42268" lon="2.42204">
        <ele>868.001</ele>
        <time>2021-05-24T09:04:58Z</time>
      </trkpt>
      <trkpt lat="43.42267" lon="2.42206">
        <ele>867.643</ele>
        <time>2021-05-24T09:05:00Z</time>
      </trkpt>
      <trkpt lat="43.42266" lon="2.42209">
        <ele>868.401</ele>
        <time>2021-05-24T09:05:02Z</time>
      </trkpt>
      <trkpt lat="43.42266" lon="2.42212">
        <ele>868.128</ele>
        <time>2021-05-24T09:05:04Z</time>
      </trkpt>
      <trkpt lat="43.42266" lon="2.42214">
        <ele>867.932</ele>
        <time>2021-05-24T09:05:06Z</time>
      </trkpt>
      <trkpt lat="43.42267" lon="2.42216">
        <ele>867.509</ele>
        <time>2021-05-24T09:05:08Z</time>
      </trkpt>
      <trkpt lat="43.42267" lon="2.42219">
        <ele>867.604</ele>
        <time>2021-05-24T09:05:10Z</time>
      </trkpt>
      <trkpt lat="43.42266" lon="2.42222">
        <ele>868.3</ele>
        <time>2021-05-24T09:05:12Z</time>
      </trkpt>
      <trkpt lat="43.42266" lon="2.42225">
        <ele>868.237</ele>
        <time>2021-05-24T09:05:14Z</time>
      </trkpt>
      <trkpt lat="43.42265" lon="2.42228">
        <ele>868.536</ele>
        <time>2021-05-24T09:05:16Z</time>
      </trkpt>
      <trkpt lat="43.42265" lon="2.4223">
        <ele>868.835</ele>
        <time>2021-05-24T09:05:18Z</time>
      </trkpt>
      <trkpt lat="43.42265" lon="2.42233">
        <ele>869.848</ele>
        <time>2021-05-24T09:05:20Z</time>
      </trkpt>
      <trkpt lat="43.42265" lon="2.42236">
        <ele>871.227</ele>
        <time>2021-05-24T09:05:22Z</time>
      </trkpt>
      <trkpt lat="43.42265" lon="2.42239">
        <ele>871</ele>
        <time>2021-05-24T09:05:24Z</time>
      </trkpt>
      <trkpt lat="43.42265" lon="2.42242">
        <ele>871.433</ele>
        <time>2021-05-24T09:05:26Z</time>
      </trkpt>
      <trkpt lat="43.42265" lon="2.42245">
        <ele>871.552</ele>
        <time>2021-05-24T09:05:28Z</time>
      </trkpt>
      <trkpt lat="43.42264" lon="2.42248">
        <ele>871.877</ele>
        <time>2021-05-24T09:05:30Z</time>
      </trkpt>
      <trkpt lat="43.42264" lon="2.42251">
        <ele>871.602</ele>
        <time>2021-05-24T09:05:32Z</time>
      </trkpt>
      <trkpt lat="43.42263" lon="2.42255">
        <ele>871.772</ele>
        <time>2021-05-24T09:05:35Z</time>
      </trkpt>
      <trkpt lat="43.42263" lon="2.42258">
        <ele>871.647</ele>
        <time>2021-05-24T09:05:37Z</time>
      </trkpt>
      <trkpt lat="43.42263" lon="2.4226">
        <ele>872.289</ele>
        <time>2021-05-24T09:05:39Z</time>
      </trkpt>
      <trkpt lat="43.42264" lon="2.42263">
        <ele>872.62</ele>
        <time>2021-05-24T09:05:41Z</time>
      </trkpt>
      <trkpt lat="43.42264" lon="2.42266">
        <ele>872.832</ele>
        <time>2021-05-24T09:05:43Z</time>
      </trkpt>
      <trkpt lat="43.42265" lon="2.42269">
        <ele>873.761</ele>
        <time>2021-05-24T09:05:45Z</time>
      </trkpt>
      <trkpt lat="43.42265" lon="2.42272">
        <ele>873.182</ele>
        <time>2021-05-24T09:05:47Z</time>
      </trkpt>
      <trkpt lat="43.42264" lon="2.42276">
        <ele>873.281</ele>
        <time>2021-05-24T09:05:49Z</time>
      </trkpt>
      <trkpt lat="43.42264" lon="2.42278">
        <ele>872.37</ele>
        <time>2021-05-24T09:05:51Z</time>
      </trkpt>
      <trkpt lat="43.42265" lon="2.42281">
        <ele>872.396</ele>
        <time>2021-05-24T09:05:53Z</time>
      </trkpt>
      <trkpt lat="43.42265" lon="2.42284">
        <ele>872.58</ele>
        <time>2021-05-24T09:05:55Z</time>
      </trkpt>
      <trkpt lat="43.42265" lon="2.42287">
        <ele>872.618</ele>
        <time>2021-05-24T09:05:57Z</time>
      </trkpt>
      <trkpt lat="43.42265" lon="2.4229">
        <ele>873.81</ele>
        <time>2021-05-24T09:05:59Z</time>
      </trkpt>
      <trkpt lat="43.42265" lon="2.42293">
        <ele>875.372</ele>
        <time>2021-05-24T09:06:01Z</time>
      </trkpt>
      <trkpt lat="43.42266" lon="2.42296">
        <ele>876.352</ele>
        <time>2021-05-24T09:06:03Z</time>
      </trkpt>
      <trkpt lat="43.42266" lon="2.42299">
        <ele>876.548</ele>
        <time>2021-05-24T09:06:05Z</time>
      </trkpt>
      <trkpt lat="43.42266" lon="2.42301">
        <ele>876.195</ele>
        <time>2021-05-24T09:06:07Z</time>
      </trkpt>
      <trkpt lat="43.42266" lon="2.42304">
        <ele>875.643</ele>
        <time>2021-05-24T09:06:09Z</time>
      </trkpt>
      <trkpt lat="43.42266" lon="2.42307">
        <ele>876.567</ele>
        <time>2021-05-24T09:06:11Z</time>
      </trkpt>
      <trkpt lat="43.42266" lon="2.4231">
        <ele>879.036</ele>
        <time>2021-05-24T09:06:13Z</time>
      </trkpt>
      <trkpt lat="43.42266" lon="2.42313">
        <ele>878.606</ele>
        <time>2021-05-24T09:06:15Z</time>
      </trkpt>
      <trkpt lat="43.42267" lon="2.42316">
        <ele>879.118</ele>
        <time>2021-05-24T09:06:17Z</time>
      </trkpt>
      <trkpt lat="43.42266" lon="2.42319">
        <ele>878.427</ele>
        <time>2021-05-24T09:06:19Z</time>
      </trkpt>
      <trkpt lat="43.42266" lon="2.42322">
        <ele>878.592</ele>
        <time>2021-05-24T09:06:21Z</time>
      </trkpt>
      <trkpt lat="43.42266" lon="2.42325">
        <ele>877.753</ele>
        <time>2021-05-24T09:06:23Z</time>
      </trkpt>
      <trkpt lat="43.42265" lon="2.42328">
        <ele>877.579</ele>
        <time>2021-05-24T09:06:25Z</time>
      </trkpt>
      <trkpt lat="43.42265" lon="2.4233">
        <ele>877.266</ele>
        <time>2021-05-24T09:06:27Z</time>
      </trkpt>
      <trkpt lat="43.42265" lon="2.42333">
        <ele>876.598</ele>
        <time>2021-05-24T09:06:29Z</time>
      </trkpt>
      <trkpt lat="43.42265" lon="2.42336">
        <ele>877.241</ele>
        <time>2021-05-24T09:06:31Z</time>
      </trkpt>
      <trkpt lat="43.42265" lon="2.42339">
        <ele>876.695</ele>
        <time>2021-05-24T09:06:33Z</time>
      </trkpt>
      <trkpt lat="43.42265" lon="2.42342">
        <ele>876.939</ele>
        <time>2021-05-24T09:06:35Z</time>
      </trkpt>
      <trkpt lat="43.42265" lon="2.42345">
        <ele>877.169</ele>
        <time>2021-05-24T09:06:37Z</time>
      </trkpt>
      <trkpt lat="43.42266" lon="2.42348">
        <ele>877.455</ele>
        <time>2021-05-24T09:06:39Z</time>
      </trkpt>
      <trkpt lat="43.42266" lon="2.4235">
        <ele>876.94</ele>
        <time>2021-05-24T09:06:41Z</time>
      </trkpt>
      <trkpt lat="43.42266" lon="2.42353">
        <ele>876.967</ele>
        <time>2021-05-24T09:06:43Z</time>
      </trkpt>
      <trkpt lat="43.42267" lon="2.42356">
        <ele>878.297</ele>
        <time>2021-05-24T09:06:45Z</time>
      </trkpt>
      <trkpt lat="43.42267" lon="2.42358">
        <ele>879.078</ele>
        <time>2021-05-24T09:06:47Z</time>
      </trkpt>
      <trkpt lat="43.42267" lon="2.42361">
        <ele>879.112</ele>
        <time>2021-05-24T09:06:49Z</time>
      </trkpt>
      <trkpt lat="43.42268" lon="2.42364">
        <ele>879.88</ele>
        <time>2021-05-24T09:06:51Z</time>
      </trkpt>
      <trkpt lat="43.42269" lon="2.42366">
        <ele>880.393</ele>
        <time>2021-05-24T09:06:53Z</time>
      </trkpt>
      <trkpt lat="43.42269" lon="2.42369">
        <ele>881.186</ele>
        <time>2021-05-24T09:06:55Z</time>
      </trkpt>
      <trkpt lat="43.42269" lon="2.42372">
        <ele>881.362</ele>
        <time>2021-05-24T09:06:57Z</time>
      </trkpt>
      <trkpt lat="43.42269" lon="2.42375">
        <ele>882.03</ele>
        <time>2021-05-24T09:06:59Z</time>
      </trkpt>
      <trkpt lat="43.4227" lon="2.42378">
        <ele>883.575</ele>
        <time>2021-05-24T09:07:01Z</time>
      </trkpt>
      <trkpt lat="43.42271" lon="2.42381">
        <ele>884.416</ele>
        <time>2021-05-24T09:07:03Z</time>
      </trkpt>
      <trkpt lat="43.42271" lon="2.42384">
        <ele>886.077</ele>
        <time>2021-05-24T09:07:05Z</time>
      </trkpt>
      <trkpt lat="43.42272" lon="2.42387">
        <ele>887.432</ele>
        <time>2021-05-24T09:07:07Z</time>
      </trkpt>
      <trkpt lat="43.42273" lon="2.42388">
        <ele>888.068</ele>
        <time>2021-05-24T09:07:08Z</time>
      </trkpt>
      <trkpt lat="43.42273" lon="2.42393">
        <ele>889.383</ele>
        <time>2021-05-24T09:07:11Z</time>
      </trkpt>
      <trkpt lat="43.42273" lon="2.42396">
        <ele>889.675</ele>
        <time>2021-05-24T09:07:13Z</time>
      </trkpt>
      <trkpt lat="43.42274" lon="2.42399">
        <ele>890.49</ele>
        <time>2021-05-24T09:07:15Z</time>
      </trkpt>
      <trkpt lat="43.42274" lon="2.42402">
        <ele>890.215</ele>
        <time>2021-05-24T09:07:17Z</time>
      </trkpt>
      <trkpt lat="43.42274" lon="2.42405">
        <ele>890.54</ele>
        <time>2021-05-24T09:07:19Z</time>
      </trkpt>
      <trkpt lat="43.42275" lon="2.42408">
        <ele>891.033</ele>
        <time>2021-05-24T09:07:21Z</time>
      </trkpt>
      <trkpt lat="43.42275" lon="2.4241">
        <ele>891.033</ele>
        <time>2021-05-24T09:07:23Z</time>
      </trkpt>
      <trkpt lat="43.42275" lon="2.42413">
        <ele>891.601</ele>
        <time>2021-05-24T09:07:25Z</time>
      </trkpt>
      <trkpt lat="43.42276" lon="2.42415">
        <ele>892.5</ele>
        <time>2021-05-24T09:07:27Z</time>
      </trkpt>
      <trkpt lat="43.42276" lon="2.42418">
        <ele>892.887</ele>
        <time>2021-05-24T09:07:29Z</time>
      </trkpt>
      <trkpt lat="43.42277" lon="2.42421">
        <ele>893.603</ele>
        <time>2021-05-24T09:07:31Z</time>
      </trkpt>
      <trkpt lat="43.42277" lon="2.42423">
        <ele>894.362</ele>
        <time>2021-05-24T09:07:33Z</time>
      </trkpt>
      <trkpt lat="43.42278" lon="2.42426">
        <ele>894.884</ele>
        <time>2021-05-24T09:07:35Z</time>
      </trkpt>
      <trkpt lat="43.42277" lon="2.42429">
        <ele>895.568</ele>
        <time>2021-05-24T09:07:37Z</time>
      </trkpt>
      <trkpt lat="43.42277" lon="2.42432">
        <ele>895.876</ele>
        <time>2021-05-24T09:07:39Z</time>
      </trkpt>
      <trkpt lat="43.42277" lon="2.42435">
        <ele>896.228</ele>
        <time>2021-05-24T09:07:41Z</time>
      </trkpt>
      <trkpt lat="43.42277" lon="2.42438">
        <ele>896.276</ele>
        <time>2021-05-24T09:07:43Z</time>
      </trkpt>
      <trkpt lat="43.42277" lon="2.4244">
        <ele>897.072</ele>
        <time>2021-05-24T09:07:45Z</time>
      </trkpt>
      <trkpt lat="43.42277" lon="2.42443">
        <ele>897.212</ele>
        <time>2021-05-24T09:07:47Z</time>
      </trkpt>
      <trkpt lat="43.42277" lon="2.42445">
        <ele>897.197</ele>
        <time>2021-05-24T09:07:49Z</time>
      </trkpt>
      <trkpt lat="43.42276" lon="2.42448">
        <ele>897.403</ele>
        <time>2021-05-24T09:07:51Z</time>
      </trkpt>
      <trkpt lat="43.42275" lon="2.4245">
        <ele>898.394</ele>
        <time>2021-05-24T09:07:53Z</time>
      </trkpt>
      <trkpt lat="43.42275" lon="2.42453">
        <ele>898.847</ele>
        <time>2021-05-24T09:07:55Z</time>
      </trkpt>
      <trkpt lat="43.42275" lon="2.42456">
        <ele>899.141</ele>
        <time>2021-05-24T09:07:57Z</time>
      </trkpt>
      <trkpt lat="43.42274" lon="2.42458">
        <ele>899.984</ele>
        <time>2021-05-24T09:07:59Z</time>
      </trkpt>
      <trkpt lat="43.42273" lon="2.42461">
        <ele>900.172</ele>
        <time>2021-05-24T09:08:01Z</time>
      </trkpt>
      <trkpt lat="43.42272" lon="2.42463">
        <ele>900.669</ele>
        <time>2021-05-24T09:08:03Z</time>
      </trkpt>
      <trkpt lat="43.42272" lon="2.42466">
        <ele>901.328</ele>
        <time>2021-05-24T09:08:05Z</time>
      </trkpt>
      <trkpt lat="43.42271" lon="2.42469">
        <ele>901.575</ele>
        <time>2021-05-24T09:08:07Z</time>
      </trkpt>
      <trkpt lat="43.42271" lon="2.42472">
        <ele>902.462</ele>
        <time>2021-05-24T09:08:09Z</time>
      </trkpt>
      <trkpt lat="43.4227" lon="2.42475">
        <ele>903.105</ele>
        <time>2021-05-24T09:08:11Z</time>
      </trkpt>
      <trkpt lat="43.4227" lon="2.42477">
        <ele>903.262</ele>
        <time>2021-05-24T09:08:13Z</time>
      </trkpt>
      <trkpt lat="43.42269" lon="2.4248">
        <ele>903.087</ele>
        <time>2021-05-24T09:08:15Z</time>
      </trkpt>
      <trkpt lat="43.42269" lon="2.42482">
        <ele>903.526</ele>
        <time>2021-05-24T09:08:17Z</time>
      </trkpt>
      <trkpt lat="43.42268" lon="2.42485">
        <ele>903.851</ele>
        <time>2021-05-24T09:08:19Z</time>
      </trkpt>
      <trkpt lat="43.42268" lon="2.42487">
        <ele>904.726</ele>
        <time>2021-05-24T09:08:21Z</time>
      </trkpt>
      <trkpt lat="43.42267" lon="2.4249">
        <ele>905.175</ele>
        <time>2021-05-24T09:08:23Z</time>
      </trkpt>
      <trkpt lat="43.42267" lon="2.42492">
        <ele>905.428</ele>
        <time>2021-05-24T09:08:25Z</time>
      </trkpt>
      <trkpt lat="43.42267" lon="2.42495">
        <ele>906.05</ele>
        <time>2021-05-24T09:08:27Z</time>
      </trkpt>
      <trkpt lat="43.42266" lon="2.42498">
        <ele>906.367</ele>
        <time>2021-05-24T09:08:29Z</time>
      </trkpt>
      <trkpt lat="43.42266" lon="2.42501">
        <ele>907.044</ele>
        <time>2021-05-24T09:08:31Z</time>
      </trkpt>
      <trkpt lat="43.42265" lon="2.42503">
        <ele>907.546</ele>
        <time>2021-05-24T09:08:33Z</time>
      </trkpt>
      <trkpt lat="43.42265" lon="2.42505">
        <ele>907.887</ele>
        <time>2021-05-24T09:08:35Z</time>
      </trkpt>
      <trkpt lat="43.42264" lon="2.42508">
        <ele>908.126</ele>
        <time>2021-05-24T09:08:37Z</time>
      </trkpt>
      <trkpt lat="43.42264" lon="2.4251">
        <ele>908.808</ele>
        <time>2021-05-24T09:08:39Z</time>
      </trkpt>
      <trkpt lat="43.42264" lon="2.42512">
        <ele>908.888</ele>
        <time>2021-05-24T09:08:41Z</time>
      </trkpt>
      <trkpt lat="43.42264" lon="2.42515">
        <ele>909.115</ele>
        <time>2021-05-24T09:08:43Z</time>
      </trkpt>
      <trkpt lat="43.42263" lon="2.42517">
        <ele>908.898</ele>
        <time>2021-05-24T09:08:45Z</time>
      </trkpt>
      <trkpt lat="43.42262" lon="2.4252">
        <ele>909.267</ele>
        <time>2021-05-24T09:08:47Z</time>
      </trkpt>
      <trkpt lat="43.42262" lon="2.42523">
        <ele>908.865</ele>
        <time>2021-05-24T09:08:49Z</time>
      </trkpt>
      <trkpt lat="43.42262" lon="2.42527">
        <ele>907.738</ele>
        <time>2021-05-24T09:08:51Z</time>
      </trkpt>
      <trkpt lat="43.42262" lon="2.4253">
        <ele>906.518</ele>
        <time>2021-05-24T09:08:53Z</time>
      </trkpt>
      <trkpt lat="43.42263" lon="2.42533">
        <ele>905.654</ele>
        <time>2021-05-24T09:08:55Z</time>
      </trkpt>
      <trkpt lat="43.42264" lon="2.42536">
        <ele>905.452</ele>
        <time>2021-05-24T09:08:57Z</time>
      </trkpt>
      <trkpt lat="43.42267" lon="2.42537">
        <ele>904.931</ele>
        <time>2021-05-24T09:08:59Z</time>
      </trkpt>
      <trkpt lat="43.42268" lon="2.42538">
        <ele>903.861</ele>
        <time>2021-05-24T09:09:01Z</time>
      </trkpt>
      <trkpt lat="43.42269" lon="2.4254">
        <ele>903.823</ele>
        <time>2021-05-24T09:09:03Z</time>
      </trkpt>
      <trkpt lat="43.42271" lon="2.42541">
        <ele>904.419</ele>
        <time>2021-05-24T09:09:05Z</time>
      </trkpt>
      <trkpt lat="43.42273" lon="2.42542">
        <ele>904.682</ele>
        <time>2021-05-24T09:09:07Z</time>
      </trkpt>
      <trkpt lat="43.42274" lon="2.42543">
        <ele>904.866</ele>
        <time>2021-05-24T09:09:09Z</time>
      </trkpt>
      <trkpt lat="43.42276" lon="2.42545">
        <ele>904.767</ele>
        <time>2021-05-24T09:09:11Z</time>
      </trkpt>
      <trkpt lat="43.42276" lon="2.42547">
        <ele>905.077</ele>
        <time>2021-05-24T09:09:13Z</time>
      </trkpt>
      <trkpt lat="43.42278" lon="2.42548">
        <ele>906.117</ele>
        <time>2021-05-24T09:09:15Z</time>
      </trkpt>
      <trkpt lat="43.42278" lon="2.4255">
        <ele>906.482</ele>
        <time>2021-05-24T09:09:17Z</time>
      </trkpt>
      <trkpt lat="43.42279" lon="2.42552">
        <ele>907.157</ele>
        <time>2021-05-24T09:09:19Z</time>
      </trkpt>
      <trkpt lat="43.42279" lon="2.42554">
        <ele>908.771</ele>
        <time>2021-05-24T09:09:21Z</time>
      </trkpt>
      <trkpt lat="43.4228" lon="2.42556">
        <ele>909.357</ele>
        <time>2021-05-24T09:09:23Z</time>
      </trkpt>
      <trkpt lat="43.4228" lon="2.42558">
        <ele>909.942</ele>
        <time>2021-05-24T09:09:25Z</time>
      </trkpt>
      <trkpt lat="43.4228" lon="2.4256">
        <ele>910.697</ele>
        <time>2021-05-24T09:09:27Z</time>
      </trkpt>
      <trkpt lat="43.42281" lon="2.42562">
        <ele>911.464</ele>
        <time>2021-05-24T09:09:29Z</time>
      </trkpt>
      <trkpt lat="43.42281" lon="2.42565">
        <ele>910.745</ele>
        <time>2021-05-24T09:09:31Z</time>
      </trkpt>
      <trkpt lat="43.42281" lon="2.42567">
        <ele>910.393</ele>
        <time>2021-05-24T09:09:33Z</time>
      </trkpt>
      <trkpt lat="43.4228" lon="2.42569">
        <ele>910.672</ele>
        <time>2021-05-24T09:09:35Z</time>
      </trkpt>
      <trkpt lat="43.42279" lon="2.42571">
        <ele>911.371</ele>
        <time>2021-05-24T09:09:37Z</time>
      </trkpt>
      <trkpt lat="43.42278" lon="2.42573">
        <ele>911.977</ele>
        <time>2021-05-24T09:09:39Z</time>
      </trkpt>
      <trkpt lat="43.42277" lon="2.42576">
        <ele>913.315</ele>
        <time>2021-05-24T09:09:41Z</time>
      </trkpt>
      <trkpt lat="43.42276" lon="2.42578">
        <ele>914.704</ele>
        <time>2021-05-24T09:09:43Z</time>
      </trkpt>
      <trkpt lat="43.42274" lon="2.42581">
        <ele>915.837</ele>
        <time>2021-05-24T09:09:45Z</time>
      </trkpt>
      <trkpt lat="43.42273" lon="2.42583">
        <ele>916.79</ele>
        <time>2021-05-24T09:09:47Z</time>
      </trkpt>
      <trkpt lat="43.42273" lon="2.42584">
        <ele>917.79</ele>
        <time>2021-05-24T09:09:49Z</time>
      </trkpt>
      <trkpt lat="43.42273" lon="2.42587">
        <ele>919.139</ele>
        <time>2021-05-24T09:09:51Z</time>
      </trkpt>
      <trkpt lat="43.42274" lon="2.4259">
        <ele>919.513</ele>
        <time>2021-05-24T09:09:53Z</time>
      </trkpt>
      <trkpt lat="43.42274" lon="2.42592">
        <ele>919.468</ele>
        <time>2021-05-24T09:09:55Z</time>
      </trkpt>
      <trkpt lat="43.42275" lon="2.42594">
        <ele>919.24</ele>
        <time>2021-05-24T09:09:57Z</time>
      </trkpt>
      <trkpt lat="43.42275" lon="2.42597">
        <ele>920.068</ele>
        <time>2021-05-24T09:09:59Z</time>
      </trkpt>
      <trkpt lat="43.42275" lon="2.42599">
        <ele>921.015</ele>
        <time>2021-05-24T09:10:01Z</time>
      </trkpt>
      <trkpt lat="43.42275" lon="2.42602">
        <ele>921.674</ele>
        <time>2021-05-24T09:10:03Z</time>
      </trkpt>
      <trkpt lat="43.42275" lon="2.42604">
        <ele>921.558</ele>
        <time>2021-05-24T09:10:05Z</time>
      </trkpt>
      <trkpt lat="43.42276" lon="2.42606">
        <ele>923.095</ele>
        <time>2021-05-24T09:10:07Z</time>
      </trkpt>
      <trkpt lat="43.42276" lon="2.42608">
        <ele>924.095</ele>
        <time>2021-05-24T09:10:09Z</time>
      </trkpt>
      <trkpt lat="43.42277" lon="2.42611">
        <ele>925.649</ele>
        <time>2021-05-24T09:10:11Z</time>
      </trkpt>
      <trkpt lat="43.42277" lon="2.42613">
        <ele>925.468</ele>
        <time>2021-05-24T09:10:13Z</time>
      </trkpt>
      <trkpt lat="43.42277" lon="2.42615">
        <ele>925.455</ele>
        <time>2021-05-24T09:10:15Z</time>
      </trkpt>
      <trkpt lat="43.42278" lon="2.42617">
        <ele>925.924</ele>
        <time>2021-05-24T09:10:17Z</time>
      </trkpt>
      <trkpt lat="43.42279" lon="2.42619">
        <ele>925.813</ele>
        <time>2021-05-24T09:10:19Z</time>
      </trkpt>
      <trkpt lat="43.42279" lon="2.42622">
        <ele>927.737</ele>
        <time>2021-05-24T09:10:21Z</time>
      </trkpt>
      <trkpt lat="43.42279" lon="2.42623">
        <ele>927.873</ele>
        <time>2021-05-24T09:10:23Z</time>
      </trkpt>
      <trkpt lat="43.4228" lon="2.42625">
        <ele>929.522</ele>
        <time>2021-05-24T09:10:25Z</time>
      </trkpt>
      <trkpt lat="43.4228" lon="2.42627">
        <ele>930.69</ele>
        <time>2021-05-24T09:10:27Z</time>
      </trkpt>
      <trkpt lat="43.4228" lon="2.42629">
        <ele>931.403</ele>
        <time>2021-05-24T09:10:29Z</time>
      </trkpt>
      <trkpt lat="43.42281" lon="2.42631">
        <ele>931.136</ele>
        <time>2021-05-24T09:10:31Z</time>
      </trkpt>
      <trkpt lat="43.42282" lon="2.42632">
        <ele>931.027</ele>
        <time>2021-05-24T09:10:33Z</time>
      </trkpt>
      <trkpt lat="43.42282" lon="2.42635">
        <ele>931.122</ele>
        <time>2021-05-24T09:10:35Z</time>
      </trkpt>
      <trkpt lat="43.42283" lon="2.42637">
        <ele>931.686</ele>
        <time>2021-05-24T09:10:37Z</time>
      </trkpt>
      <trkpt lat="43.42283" lon="2.4264">
        <ele>930.689</ele>
        <time>2021-05-24T09:10:39Z</time>
      </trkpt>
      <trkpt lat="43.42285" lon="2.42642">
        <ele>930.114</ele>
        <time>2021-05-24T09:10:41Z</time>
      </trkpt>
      <trkpt lat="43.42286" lon="2.42643">
        <ele>930.318</ele>
        <time>2021-05-24T09:10:43Z</time>
      </trkpt>
      <trkpt lat="43.42287" lon="2.42646">
        <ele>931.198</ele>
        <time>2021-05-24T09:10:45Z</time>
      </trkpt>
      <trkpt lat="43.42286" lon="2.42648">
        <ele>931.465</ele>
        <time>2021-05-24T09:10:47Z</time>
      </trkpt>
      <trkpt lat="43.42287" lon="2.4265">
        <ele>931.95</ele>
        <time>2021-05-24T09:10:49Z</time>
      </trkpt>
      <trkpt lat="43.42287" lon="2.42653">
        <ele>932.405</ele>
        <time>2021-05-24T09:10:51Z</time>
      </trkpt>
      <trkpt lat="43.42287" lon="2.42655">
        <ele>932.376</ele>
        <time>2021-05-24T09:10:53Z</time>
      </trkpt>
      <trkpt lat="43.42288" lon="2.42658">
        <ele>932.39</ele>
        <time>2021-05-24T09:10:55Z</time>
      </trkpt>
      <trkpt lat="43.42289" lon="2.42659">
        <ele>931.546</ele>
        <time>2021-05-24T09:10:57Z</time>
      </trkpt>
      <trkpt lat="43.4229" lon="2.42661">
        <ele>931.604</ele>
        <time>2021-05-24T09:10:59Z</time>
      </trkpt>
      <trkpt lat="43.4229" lon="2.42663">
        <ele>930.972</ele>
        <time>2021-05-24T09:11:01Z</time>
      </trkpt>
      <trkpt lat="43.42289" lon="2.42666">
        <ele>932.106</ele>
        <time>2021-05-24T09:11:03Z</time>
      </trkpt>
      <trkpt lat="43.4229" lon="2.42668">
        <ele>932.684</ele>
        <time>2021-05-24T09:11:05Z</time>
      </trkpt>
      <trkpt lat="43.4229" lon="2.4267">
        <ele>930.992</ele>
        <time>2021-05-24T09:11:07Z</time>
      </trkpt>
      <trkpt lat="43.42289" lon="2.42673">
        <ele>930.597</ele>
        <time>2021-05-24T09:11:09Z</time>
      </trkpt>
      <trkpt lat="43.42289" lon="2.42675">
        <ele>931.877</ele>
        <time>2021-05-24T09:11:11Z</time>
      </trkpt>
      <trkpt lat="43.42289" lon="2.42678">
        <ele>931.438</ele>
        <time>2021-05-24T09:11:13Z</time>
      </trkpt>
      <trkpt lat="43.42289" lon="2.4268">
        <ele>931.331</ele>
        <time>2021-05-24T09:11:15Z</time>
      </trkpt>
      <trkpt lat="43.42289" lon="2.42682">
        <ele>933.458</ele>
        <time>2021-05-24T09:11:17Z</time>
      </trkpt>
      <trkpt lat="43.42289" lon="2.42684">
        <ele>934.699</ele>
        <time>2021-05-24T09:11:19Z</time>
      </trkpt>
      <trkpt lat="43.4229" lon="2.42686">
        <ele>935.39</ele>
        <time>2021-05-24T09:11:21Z</time>
      </trkpt>
      <trkpt lat="43.42291" lon="2.42689">
        <ele>936.075</ele>
        <time>2021-05-24T09:11:23Z</time>
      </trkpt>
      <trkpt lat="43.42291" lon="2.42691">
        <ele>936.042</ele>
        <time>2021-05-24T09:11:25Z</time>
      </trkpt>
      <trkpt lat="43.42292" lon="2.42693">
        <ele>935.909</ele>
        <time>2021-05-24T09:11:27Z</time>
      </trkpt>
      <trkpt lat="43.42291" lon="2.42695">
        <ele>936.706</ele>
        <time>2021-05-24T09:11:29Z</time>
      </trkpt>
      <trkpt lat="43.42292" lon="2.42697">
        <ele>937.655</ele>
        <time>2021-05-24T09:11:31Z</time>
      </trkpt>
      <trkpt lat="43.42293" lon="2.42699">
        <ele>940.468</ele>
        <time>2021-05-24T09:11:33Z</time>
      </trkpt>
      <trkpt lat="43.42293" lon="2.42701">
        <ele>942.17</ele>
        <time>2021-05-24T09:11:35Z</time>
      </trkpt>
      <trkpt lat="43.42294" lon="2.42704">
        <ele>941.83</ele>
        <time>2021-05-24T09:11:37Z</time>
      </trkpt>
      <trkpt lat="43.42296" lon="2.42705">
        <ele>941.233</ele>
        <time>2021-05-24T09:11:39Z</time>
      </trkpt>
      <trkpt lat="43.42297" lon="2.42706">
        <ele>940.539</ele>
        <time>2021-05-24T09:11:41Z</time>
      </trkpt>
      <trkpt lat="43.42298" lon="2.42707">
        <ele>940.649</ele>
        <time>2021-05-24T09:11:43Z</time>
      </trkpt>
      <trkpt lat="43.42299" lon="2.42709">
        <ele>940.335</ele>
        <time>2021-05-24T09:11:45Z</time>
      </trkpt>
      <trkpt lat="43.42299" lon="2.4271">
        <ele>940.336</ele>
        <time>2021-05-24T09:11:47Z</time>
      </trkpt>
      <trkpt lat="43.423" lon="2.42712">
        <ele>940.238</ele>
        <time>2021-05-24T09:11:49Z</time>
      </trkpt>
      <trkpt lat="43.42301" lon="2.42714">
        <ele>941.039</ele>
        <time>2021-05-24T09:11:51Z</time>
      </trkpt>
      <trkpt lat="43.42303" lon="2.42714">
        <ele>941.414</ele>
        <time>2021-05-24T09:11:53Z</time>
      </trkpt>
      <trkpt lat="43.42304" lon="2.42715">
        <ele>941.219</ele>
        <time>2021-05-24T09:11:55Z</time>
      </trkpt>
      <trkpt lat="43.42306" lon="2.42717">
        <ele>941.7</ele>
        <time>2021-05-24T09:11:57Z</time>
      </trkpt>
      <trkpt lat="43.42307" lon="2.42717">
        <ele>941.065</ele>
        <time>2021-05-24T09:11:59Z</time>
      </trkpt>
      <trkpt lat="43.42309" lon="2.42718">
        <ele>941.746</ele>
        <time>2021-05-24T09:12:01Z</time>
      </trkpt>
      <trkpt lat="43.42311" lon="2.42719">
        <ele>942.03</ele>
        <time>2021-05-24T09:12:03Z</time>
      </trkpt>
      <trkpt lat="43.42312" lon="2.42721">
        <ele>942.591</ele>
        <time>2021-05-24T09:12:05Z</time>
      </trkpt>
      <trkpt lat="43.42313" lon="2.42722">
        <ele>943.557</ele>
        <time>2021-05-24T09:12:07Z</time>
      </trkpt>
      <trkpt lat="43.42315" lon="2.42724">
        <ele>944.341</ele>
        <time>2021-05-24T09:12:10Z</time>
      </trkpt>
      <trkpt lat="43.42316" lon="2.42726">
        <ele>944.119</ele>
        <time>2021-05-24T09:12:12Z</time>
      </trkpt>
      <trkpt lat="43.42316" lon="2.42728">
        <ele>945.493</ele>
        <time>2021-05-24T09:12:14Z</time>
      </trkpt>
      <trkpt lat="43.42317" lon="2.42731">
        <ele>945.079</ele>
        <time>2021-05-24T09:12:16Z</time>
      </trkpt>
      <trkpt lat="43.42317" lon="2.42733">
        <ele>945.79</ele>
        <time>2021-05-24T09:12:18Z</time>
      </trkpt>
      <trkpt lat="43.42317" lon="2.42736">
        <ele>946.85</ele>
        <time>2021-05-24T09:12:20Z</time>
      </trkpt>
      <trkpt lat="43.42318" lon="2.42739">
        <ele>947.291</ele>
        <time>2021-05-24T09:12:22Z</time>
      </trkpt>
      <trkpt lat="43.42317" lon="2.42741">
        <ele>947.982</ele>
        <time>2021-05-24T09:12:24Z</time>
      </trkpt>
      <trkpt lat="43.42317" lon="2.42743">
        <ele>949.391</ele>
        <time>2021-05-24T09:12:26Z</time>
      </trkpt>
      <trkpt lat="43.42316" lon="2.42745">
        <ele>950.525</ele>
        <time>2021-05-24T09:12:28Z</time>
      </trkpt>
      <trkpt lat="43.42316" lon="2.42747">
        <ele>951.069</ele>
        <time>2021-05-24T09:12:30Z</time>
      </trkpt>
      <trkpt lat="43.42315" lon="2.42749">
        <ele>951.928</ele>
        <time>2021-05-24T09:12:32Z</time>
      </trkpt>
      <trkpt lat="43.42315" lon="2.42751">
        <ele>952.178</ele>
        <time>2021-05-24T09:12:34Z</time>
      </trkpt>
      <trkpt lat="43.42315" lon="2.42753">
        <ele>952.98</ele>
        <time>2021-05-24T09:12:36Z</time>
      </trkpt>
      <trkpt lat="43.42315" lon="2.42756">
        <ele>952.949</ele>
        <time>2021-05-24T09:12:38Z</time>
      </trkpt>
      <trkpt lat="43.42316" lon="2.42758">
        <ele>952.137</ele>
        <time>2021-05-24T09:12:40Z</time>
      </trkpt>
      <trkpt lat="43.42316" lon="2.4276">
        <ele>951.935</ele>
        <time>2021-05-24T09:12:42Z</time>
      </trkpt>
      <trkpt lat="43.42317" lon="2.42761">
        <ele>952.548</ele>
        <time>2021-05-24T09:12:44Z</time>
      </trkpt>
      <trkpt lat="43.42318" lon="2.42763">
        <ele>952.429</ele>
        <time>2021-05-24T09:12:46Z</time>
      </trkpt>
      <trkpt lat="43.42318" lon="2.42765">
        <ele>951.653</ele>
        <time>2021-05-24T09:12:48Z</time>
      </trkpt>
      <trkpt lat="43.42319" lon="2.42767">
        <ele>952.635</ele>
        <time>2021-05-24T09:12:50Z</time>
      </trkpt>
      <trkpt lat="43.42319" lon="2.42769">
        <ele>952.622</ele>
        <time>2021-05-24T09:12:52Z</time>
      </trkpt>
      <trkpt lat="43.42319" lon="2.42772">
        <ele>953.439</ele>
        <time>2021-05-24T09:12:54Z</time>
      </trkpt>
      <trkpt lat="43.42319" lon="2.42774">
        <ele>952.736</ele>
        <time>2021-05-24T09:12:56Z</time>
      </trkpt>
      <trkpt lat="43.42318" lon="2.42776">
        <ele>953.234</ele>
        <time>2021-05-24T09:12:58Z</time>
      </trkpt>
      <trkpt lat="43.42317" lon="2.42778">
        <ele>954.063</ele>
        <time>2021-05-24T09:13:00Z</time>
      </trkpt>
      <trkpt lat="43.42317" lon="2.4278">
        <ele>953.809</ele>
        <time>2021-05-24T09:13:02Z</time>
      </trkpt>
      <trkpt lat="43.42315" lon="2.42782">
        <ele>954.326</ele>
        <time>2021-05-24T09:13:04Z</time>
      </trkpt>
      <trkpt lat="43.42314" lon="2.42784">
        <ele>955.258</ele>
        <time>2021-05-24T09:13:06Z</time>
      </trkpt>
      <trkpt lat="43.42312" lon="2.42786">
        <ele>954.579</ele>
        <time>2021-05-24T09:13:08Z</time>
      </trkpt>
      <trkpt lat="43.42311" lon="2.4279">
        <ele>954.443</ele>
        <time>2021-05-24T09:13:10Z</time>
      </trkpt>
      <trkpt lat="43.4231" lon="2.42793">
        <ele>953.933</ele>
        <time>2021-05-24T09:13:12Z</time>
      </trkpt>
      <trkpt lat="43.4231" lon="2.42797">
        <ele>952.784</ele>
        <time>2021-05-24T09:13:14Z</time>
      </trkpt>
      <trkpt lat="43.4231" lon="2.428">
        <ele>952.217</ele>
        <time>2021-05-24T09:13:16Z</time>
      </trkpt>
      <trkpt lat="43.42311" lon="2.42803">
        <ele>953.565</ele>
        <time>2021-05-24T09:13:18Z</time>
      </trkpt>
      <trkpt lat="43.42311" lon="2.42807">
        <ele>955.039</ele>
        <time>2021-05-24T09:13:20Z</time>
      </trkpt>
      <trkpt lat="43.42312" lon="2.4281">
        <ele>954.621</ele>
        <time>2021-05-24T09:13:22Z</time>
      </trkpt>
      <trkpt lat="43.42312" lon="2.42812">
        <ele>956.106</ele>
        <time>2021-05-24T09:13:24Z</time>
      </trkpt>
      <trkpt lat="43.42312" lon="2.42814">
        <ele>957.828</ele>
        <time>2021-05-24T09:13:26Z</time>
      </trkpt>
      <trkpt lat="43.42313" lon="2.42817">
        <ele>958.786</ele>
        <time>2021-05-24T09:13:28Z</time>
      </trkpt>
      <trkpt lat="43.42313" lon="2.42819">
        <ele>960.08</ele>
        <time>2021-05-24T09:13:30Z</time>
      </trkpt>
      <trkpt lat="43.42314" lon="2.42821">
        <ele>960.614</ele>
        <time>2021-05-24T09:13:32Z</time>
      </trkpt>
      <trkpt lat="43.42314" lon="2.42823">
        <ele>961.702</ele>
        <time>2021-05-24T09:13:34Z</time>
      </trkpt>
      <trkpt lat="43.42315" lon="2.42825">
        <ele>962.915</ele>
        <time>2021-05-24T09:13:36Z</time>
      </trkpt>
      <trkpt lat="43.42315" lon="2.42825">
        <ele>963.034</ele>
        <time>2021-05-24T09:13:37Z</time>
      </trkpt>
      <trkpt lat="43.42315" lon="2.42828">
        <ele>962.668</ele>
        <time>2021-05-24T09:13:40Z</time>
      </trkpt>
      <trkpt lat="43.42315" lon="2.4283">
        <ele>962.924</ele>
        <time>2021-05-24T09:13:42Z</time>
      </trkpt>
      <trkpt lat="43.42316" lon="2.42832">
        <ele>964.144</ele>
        <time>2021-05-24T09:13:44Z</time>
      </trkpt>
      <trkpt lat="43.42316" lon="2.42834">
        <ele>965.854</ele>
        <time>2021-05-24T09:13:46Z</time>
      </trkpt>
      <trkpt lat="43.42317" lon="2.42836">
        <ele>965.742</ele>
        <time>2021-05-24T09:13:48Z</time>
      </trkpt>
      <trkpt lat="43.42318" lon="2.42837">
        <ele>965.908</ele>
        <time>2021-05-24T09:13:50Z</time>
      </trkpt>
      <trkpt lat="43.42319" lon="2.42838">
        <ele>966.535</ele>
        <time>2021-05-24T09:13:52Z</time>
      </trkpt>
      <trkpt lat="43.42319" lon="2.4284">
        <ele>966.694</ele>
        <time>2021-05-24T09:13:54Z</time>
      </trkpt>
      <trkpt lat="43.4232" lon="2.42842">
        <ele>966.218</ele>
        <time>2021-05-24T09:13:56Z</time>
      </trkpt>
      <trkpt lat="43.42321" lon="2.42845">
        <ele>966.787</ele>
        <time>2021-05-24T09:14:00Z</time>
      </trkpt>
      <trkpt lat="43.42321" lon="2.42847">
        <ele>967.63</ele>
        <time>2021-05-24T09:14:02Z</time>
      </trkpt>
      <trkpt lat="43.42322" lon="2.42849">
        <ele>968.371</ele>
        <time>2021-05-24T09:14:04Z</time>
      </trkpt>
      <trkpt lat="43.42322" lon="2.42851">
        <ele>969.048</ele>
        <time>2021-05-24T09:14:06Z</time>
      </trkpt>
      <trkpt lat="43.42323" lon="2.42853">
        <ele>968.901</ele>
        <time>2021-05-24T09:14:08Z</time>
      </trkpt>
      <trkpt lat="43.42323" lon="2.42855">
        <ele>969.38</ele>
        <time>2021-05-24T09:14:10Z</time>
      </trkpt>
      <trkpt lat="43.42324" lon="2.42857">
        <ele>969.863</ele>
        <time>2021-05-24T09:14:12Z</time>
      </trkpt>
      <trkpt lat="43.42325" lon="2.42859">
        <ele>970.784</ele>
        <time>2021-05-24T09:14:14Z</time>
      </trkpt>
      <trkpt lat="43.42326" lon="2.42861">
        <ele>972.582</ele>
        <time>2021-05-24T09:14:16Z</time>
      </trkpt>
      <trkpt lat="43.42327" lon="2.42862">
        <ele>972.961</ele>
        <time>2021-05-24T09:14:18Z</time>
      </trkpt>
      <trkpt lat="43.42328" lon="2.42864">
        <ele>973.482</ele>
        <time>2021-05-24T09:14:20Z</time>
      </trkpt>
      <trkpt lat="43.42328" lon="2.42866">
        <ele>974.418</ele>
        <time>2021-05-24T09:14:22Z</time>
      </trkpt>
      <trkpt lat="43.4233" lon="2.42867">
        <ele>973.911</ele>
        <time>2021-05-24T09:14:24Z</time>
      </trkpt>
      <trkpt lat="43.42331" lon="2.42868">
        <ele>973.894</ele>
        <time>2021-05-24T09:14:26Z</time>
      </trkpt>
      <trkpt lat="43.42332" lon="2.42869">
        <ele>973.995</ele>
        <time>2021-05-24T09:14:28Z</time>
      </trkpt>
      <trkpt lat="43.42333" lon="2.42871">
        <ele>973.401</ele>
        <time>2021-05-24T09:14:30Z</time>
      </trkpt>
      <trkpt lat="43.42334" lon="2.42873">
        <ele>974.083</ele>
        <time>2021-05-24T09:14:32Z</time>
      </trkpt>
      <trkpt lat="43.42335" lon="2.42874">
        <ele>974.488</ele>
        <time>2021-05-24T09:14:34Z</time>
      </trkpt>
      <trkpt lat="43.42335" lon="2.42876">
        <ele>975.467</ele>
        <time>2021-05-24T09:14:36Z</time>
      </trkpt>
      <trkpt lat="43.42336" lon="2.42877">
        <ele>976.664</ele>
        <time>2021-05-24T09:14:38Z</time>
      </trkpt>
      <trkpt lat="43.42336" lon="2.42879">
        <ele>976.682</ele>
        <time>2021-05-24T09:14:40Z</time>
      </trkpt>
      <trkpt lat="43.42338" lon="2.42881">
        <ele>977.671</ele>
        <time>2021-05-24T09:14:42Z</time>
      </trkpt>
      <trkpt lat="43.42339" lon="2.42883">
        <ele>978.204</ele>
        <time>2021-05-24T09:14:44Z</time>
      </trkpt>
      <trkpt lat="43.4234" lon="2.42884">
        <ele>979.549</ele>
        <time>2021-05-24T09:14:46Z</time>
      </trkpt>
      <trkpt lat="43.42341" lon="2.42886">
        <ele>978.825</ele>
        <time>2021-05-24T09:14:48Z</time>
      </trkpt>
      <trkpt lat="43.42342" lon="2.42888">
        <ele>979.06</ele>
        <time>2021-05-24T09:14:50Z</time>
      </trkpt>
      <trkpt lat="43.42343" lon="2.42889">
        <ele>978.575</ele>
        <time>2021-05-24T09:14:52Z</time>
      </trkpt>
      <trkpt lat="43.42343" lon="2.4289">
        <ele>978.129</ele>
        <time>2021-05-24T09:14:54Z</time>
      </trkpt>
      <trkpt lat="43.42343" lon="2.42893">
        <ele>978.86</ele>
        <time>2021-05-24T09:14:56Z</time>
      </trkpt>
      <trkpt lat="43.42343" lon="2.42895">
        <ele>978.856</ele>
        <time>2021-05-24T09:14:58Z</time>
      </trkpt>
      <trkpt lat="43.42343" lon="2.42896">
        <ele>977.396</ele>
        <time>2021-05-24T09:15:00Z</time>
      </trkpt>
      <trkpt lat="43.42344" lon="2.42898">
        <ele>977.49</ele>
        <time>2021-05-24T09:15:02Z</time>
      </trkpt>
      <trkpt lat="43.42344" lon="2.42901">
        <ele>977.589</ele>
        <time>2021-05-24T09:15:05Z</time>
      </trkpt>
      <trkpt lat="43.42344" lon="2.42903">
        <ele>979.488</ele>
        <time>2021-05-24T09:15:07Z</time>
      </trkpt>
      <trkpt lat="43.42344" lon="2.42905">
        <ele>977.99</ele>
        <time>2021-05-24T09:15:09Z</time>
      </trkpt>
      <trkpt lat="43.42345" lon="2.42907">
        <ele>978.572</ele>
        <time>2021-05-24T09:15:11Z</time>
      </trkpt>
      <trkpt lat="43.42346" lon="2.42909">
        <ele>979.557</ele>
        <time>2021-05-24T09:15:13Z</time>
      </trkpt>
      <trkpt lat="43.42347" lon="2.4291">
        <ele>981.191</ele>
        <time>2021-05-24T09:15:15Z</time>
      </trkpt>
      <trkpt lat="43.42348" lon="2.42912">
        <ele>981.479</ele>
        <time>2021-05-24T09:15:17Z</time>
      </trkpt>
      <trkpt lat="43.42349" lon="2.42913">
        <ele>980.809</ele>
        <time>2021-05-24T09:15:19Z</time>
      </trkpt>
      <trkpt lat="43.42351" lon="2.42914">
        <ele>980.239</ele>
        <time>2021-05-24T09:15:21Z</time>
      </trkpt>
      <trkpt lat="43.42352" lon="2.42914">
        <ele>981.083</ele>
        <time>2021-05-24T09:15:23Z</time>
      </trkpt>
      <trkpt lat="43.42353" lon="2.42916">
        <ele>981.629</ele>
        <time>2021-05-24T09:15:25Z</time>
      </trkpt>
      <trkpt lat="43.42355" lon="2.42917">
        <ele>982.342</ele>
        <time>2021-05-24T09:15:27Z</time>
      </trkpt>
      <trkpt lat="43.42356" lon="2.42919">
        <ele>983.264</ele>
        <time>2021-05-24T09:15:29Z</time>
      </trkpt>
      <trkpt lat="43.42358" lon="2.4292">
        <ele>983.51</ele>
        <time>2021-05-24T09:15:31Z</time>
      </trkpt>
      <trkpt lat="43.42359" lon="2.42921">
        <ele>983.246</ele>
        <time>2021-05-24T09:15:33Z</time>
      </trkpt>
      <trkpt lat="43.4236" lon="2.42923">
        <ele>983.785</ele>
        <time>2021-05-24T09:15:35Z</time>
      </trkpt>
      <trkpt lat="43.42361" lon="2.42925">
        <ele>984.48</ele>
        <time>2021-05-24T09:15:37Z</time>
      </trkpt>
      <trkpt lat="43.42362" lon="2.42926">
        <ele>983.724</ele>
        <time>2021-05-24T09:15:39Z</time>
      </trkpt>
      <trkpt lat="43.42363" lon="2.42928">
        <ele>983.406</ele>
        <time>2021-05-24T09:15:41Z</time>
      </trkpt>
      <trkpt lat="43.42364" lon="2.42929">
        <ele>983.68</ele>
        <time>2021-05-24T09:15:43Z</time>
      </trkpt>
      <trkpt lat="43.42365" lon="2.4293">
        <ele>984.945</ele>
        <time>2021-05-24T09:15:45Z</time>
      </trkpt>
      <trkpt lat="43.42367" lon="2.42931">
        <ele>985.493</ele>
        <time>2021-05-24T09:15:47Z</time>
      </trkpt>
      <trkpt lat="43.42367" lon="2.42933">
        <ele>985.057</ele>
        <time>2021-05-24T09:15:49Z</time>
      </trkpt>
      <trkpt lat="43.42368" lon="2.42935">
        <ele>985.883</ele>
        <time>2021-05-24T09:15:51Z</time>
      </trkpt>
      <trkpt lat="43.42369" lon="2.42937">
        <ele>987.403</ele>
        <time>2021-05-24T09:15:53Z</time>
      </trkpt>
      <trkpt lat="43.42369" lon="2.42939">
        <ele>988.744</ele>
        <time>2021-05-24T09:15:55Z</time>
      </trkpt>
      <trkpt lat="43.4237" lon="2.42941">
        <ele>988.305</ele>
        <time>2021-05-24T09:15:57Z</time>
      </trkpt>
      <trkpt lat="43.4237" lon="2.42942">
        <ele>988.969</ele>
        <time>2021-05-24T09:15:59Z</time>
      </trkpt>
      <trkpt lat="43.4237" lon="2.42944">
        <ele>990.68</ele>
        <time>2021-05-24T09:16:01Z</time>
      </trkpt>
      <trkpt lat="43.42371" lon="2.42946">
        <ele>990.561</ele>
        <time>2021-05-24T09:16:03Z</time>
      </trkpt>
      <trkpt lat="43.42372" lon="2.42948">
        <ele>991.169</ele>
        <time>2021-05-24T09:16:05Z</time>
      </trkpt>
      <trkpt lat="43.42373" lon="2.42951">
        <ele>991.241</ele>
        <time>2021-05-24T09:16:07Z</time>
      </trkpt>
      <trkpt lat="43.42374" lon="2.42953">
        <ele>990.294</ele>
        <time>2021-05-24T09:16:09Z</time>
      </trkpt>
      <trkpt lat="43.42374" lon="2.42955">
        <ele>990.319</ele>
        <time>2021-05-24T09:16:11Z</time>
      </trkpt>
      <trkpt lat="43.42374" lon="2.42958">
        <ele>991.138</ele>
        <time>2021-05-24T09:16:13Z</time>
      </trkpt>
      <trkpt lat="43.42375" lon="2.42959">
        <ele>991.056</ele>
        <time>2021-05-24T09:16:15Z</time>
      </trkpt>
      <trkpt lat="43.42375" lon="2.42961">
        <ele>991.082</ele>
        <time>2021-05-24T09:16:17Z</time>
      </trkpt>
      <trkpt lat="43.42375" lon="2.42964">
        <ele>991.414</ele>
        <time>2021-05-24T09:16:19Z</time>
      </trkpt>
      <trkpt lat="43.42374" lon="2.42967">
        <ele>989.914</ele>
        <time>2021-05-24T09:16:21Z</time>
      </trkpt>
      <trkpt lat="43.42373" lon="2.42969">
        <ele>990.334</ele>
        <time>2021-05-24T09:16:23Z</time>
      </trkpt>
      <trkpt lat="43.42372" lon="2.42971">
        <ele>991.063</ele>
        <time>2021-05-24T09:16:25Z</time>
      </trkpt>
      <trkpt lat="43.42371" lon="2.42973">
        <ele>991.419</ele>
        <time>2021-05-24T09:16:27Z</time>
      </trkpt>
      <trkpt lat="43.4237" lon="2.42976">
        <ele>991.558</ele>
        <time>2021-05-24T09:16:29Z</time>
      </trkpt>
      <trkpt lat="43.4237" lon="2.42979">
        <ele>992.159</ele>
        <time>2021-05-24T09:16:31Z</time>
      </trkpt>
      <trkpt lat="43.42369" lon="2.42982">
        <ele>992.018</ele>
        <time>2021-05-24T09:16:33Z</time>
      </trkpt>
      <trkpt lat="43.42368" lon="2.42985">
        <ele>991.65</ele>
        <time>2021-05-24T09:16:35Z</time>
      </trkpt>
      <trkpt lat="43.42368" lon="2.42987">
        <ele>991.763</ele>
        <time>2021-05-24T09:16:37Z</time>
      </trkpt>
      <trkpt lat="43.42368" lon="2.42989">
        <ele>991.59</ele>
        <time>2021-05-24T09:16:39Z</time>
      </trkpt>
      <trkpt lat="43.42368" lon="2.42991">
        <ele>991.278</ele>
        <time>2021-05-24T09:16:41Z</time>
      </trkpt>
      <trkpt lat="43.42368" lon="2.42993">
        <ele>990.847</ele>
        <time>2021-05-24T09:16:43Z</time>
      </trkpt>
      <trkpt lat="43.42368" lon="2.42995">
        <ele>991.145</ele>
        <time>2021-05-24T09:16:45Z</time>
      </trkpt>
      <trkpt lat="43.42368" lon="2.42998">
        <ele>993.248</ele>
        <time>2021-05-24T09:16:47Z</time>
      </trkpt>
      <trkpt lat="43.42367" lon="2.43">
        <ele>994.487</ele>
        <time>2021-05-24T09:16:49Z</time>
      </trkpt>
      <trkpt lat="43.42366" lon="2.43003">
        <ele>993.068</ele>
        <time>2021-05-24T09:16:51Z</time>
      </trkpt>
      <trkpt lat="43.42366" lon="2.43006">
        <ele>992.745</ele>
        <time>2021-05-24T09:16:53Z</time>
      </trkpt>
      <trkpt lat="43.42365" lon="2.43008">
        <ele>992.93</ele>
        <time>2021-05-24T09:16:55Z</time>
      </trkpt>
      <trkpt lat="43.42364" lon="2.43011">
        <ele>993.151</ele>
        <time>2021-05-24T09:16:57Z</time>
      </trkpt>
      <trkpt lat="43.42364" lon="2.43013">
        <ele>993.992</ele>
        <time>2021-05-24T09:16:59Z</time>
      </trkpt>
      <trkpt lat="43.42363" lon="2.43016">
        <ele>993.575</ele>
        <time>2021-05-24T09:17:01Z</time>
      </trkpt>
      <trkpt lat="43.42363" lon="2.43019">
        <ele>994.021</ele>
        <time>2021-05-24T09:17:03Z</time>
      </trkpt>
      <trkpt lat="43.42362" lon="2.43022">
        <ele>993.856</ele>
        <time>2021-05-24T09:17:05Z</time>
      </trkpt>
      <trkpt lat="43.42362" lon="2.43024">
        <ele>995.272</ele>
        <time>2021-05-24T09:17:07Z</time>
      </trkpt>
      <trkpt lat="43.42361" lon="2.43026">
        <ele>997.269</ele>
        <time>2021-05-24T09:17:09Z</time>
      </trkpt>
      <trkpt lat="43.42361" lon="2.43029">
        <ele>998.484</ele>
        <time>2021-05-24T09:17:11Z</time>
      </trkpt>
      <trkpt lat="43.42361" lon="2.43031">
        <ele>1000.359</ele>
        <time>2021-05-24T09:17:13Z</time>
      </trkpt>
      <trkpt lat="43.42361" lon="2.43034">
        <ele>1001.168</ele>
        <time>2021-05-24T09:17:15Z</time>
      </trkpt>
      <trkpt lat="43.42361" lon="2.43036">
        <ele>1001.709</ele>
        <time>2021-05-24T09:17:17Z</time>
      </trkpt>
      <trkpt lat="43.4236" lon="2.43038">
        <ele>1002.674</ele>
        <time>2021-05-24T09:17:19Z</time>
      </trkpt>
      <trkpt lat="43.4236" lon="2.4304">
        <ele>1003.106</ele>
        <time>2021-05-24T09:17:21Z</time>
      </trkpt>
      <trkpt lat="43.42359" lon="2.43042">
        <ele>1003.021</ele>
        <time>2021-05-24T09:17:23Z</time>
      </trkpt>
      <trkpt lat="43.42358" lon="2.43044">
        <ele>1004.257</ele>
        <time>2021-05-24T09:17:25Z</time>
      </trkpt>
      <trkpt lat="43.42358" lon="2.43046">
        <ele>1004.844</ele>
        <time>2021-05-24T09:17:27Z</time>
      </trkpt>
      <trkpt lat="43.42356" lon="2.43048">
        <ele>1005.905</ele>
        <time>2021-05-24T09:17:29Z</time>
      </trkpt>
      <trkpt lat="43.42356" lon="2.4305">
        <ele>1006.128</ele>
        <time>2021-05-24T09:17:31Z</time>
      </trkpt>
      <trkpt lat="43.42355" lon="2.43051">
        <ele>1007.368</ele>
        <time>2021-05-24T09:17:33Z</time>
      </trkpt>
      <trkpt lat="43.42355" lon="2.43053">
        <ele>1008.431</ele>
        <time>2021-05-24T09:17:35Z</time>
      </trkpt>
      <trkpt lat="43.42355" lon="2.43055">
        <ele>1008.246</ele>
        <time>2021-05-24T09:17:37Z</time>
      </trkpt>
      <trkpt lat="43.42355" lon="2.43057">
        <ele>1008.679</ele>
        <time>2021-05-24T09:17:39Z</time>
      </trkpt>
      <trkpt lat="43.42355" lon="2.4306">
        <ele>1009.196</ele>
        <time>2021-05-24T09:17:42Z</time>
      </trkpt>
      <trkpt lat="43.42354" lon="2.43061">
        <ele>1009.73</ele>
        <time>2021-05-24T09:17:44Z</time>
      </trkpt>
      <trkpt lat="43.42354" lon="2.43063">
        <ele>1010.696</ele>
        <time>2021-05-24T09:17:46Z</time>
      </trkpt>
      <trkpt lat="43.42354" lon="2.43065">
        <ele>1010.581</ele>
        <time>2021-05-24T09:17:48Z</time>
      </trkpt>
      <trkpt lat="43.42354" lon="2.43068">
        <ele>1010.21</ele>
        <time>2021-05-24T09:17:50Z</time>
      </trkpt>
      <trkpt lat="43.42354" lon="2.4307">
        <ele>1010.674</ele>
        <time>2021-05-24T09:17:52Z</time>
      </trkpt>
      <trkpt lat="43.42354" lon="2.43071">
        <ele>1010.568</ele>
        <time>2021-05-24T09:17:54Z</time>
      </trkpt>
      <trkpt lat="43.42354" lon="2.43074">
        <ele>1011.032</ele>
        <time>2021-05-24T09:17:56Z</time>
      </trkpt>
      <trkpt lat="43.42353" lon="2.43076">
        <ele>1010.701</ele>
        <time>2021-05-24T09:17:58Z</time>
      </trkpt>
      <trkpt lat="43.42353" lon="2.43078">
        <ele>1012.297</ele>
        <time>2021-05-24T09:18:00Z</time>
      </trkpt>
      <trkpt lat="43.42352" lon="2.43079">
        <ele>1012.658</ele>
        <time>2021-05-24T09:18:01Z</time>
      </trkpt>
      <trkpt lat="43.42351" lon="2.43082">
        <ele>1013.713</ele>
        <time>2021-05-24T09:18:04Z</time>
      </trkpt>
      <trkpt lat="43.4235" lon="2.43084">
        <ele>1014.25</ele>
        <time>2021-05-24T09:18:06Z</time>
      </trkpt>
      <trkpt lat="43.42349" lon="2.43086">
        <ele>1015.124</ele>
        <time>2021-05-24T09:18:08Z</time>
      </trkpt>
      <trkpt lat="43.42349" lon="2.43089">
        <ele>1015.39</ele>
        <time>2021-05-24T09:18:10Z</time>
      </trkpt>
      <trkpt lat="43.42348" lon="2.43091">
        <ele>1015.655</ele>
        <time>2021-05-24T09:18:12Z</time>
      </trkpt>
      <trkpt lat="43.42348" lon="2.43093">
        <ele>1016.206</ele>
        <time>2021-05-24T09:18:14Z</time>
      </trkpt>
      <trkpt lat="43.42347" lon="2.43095">
        <ele>1016.877</ele>
        <time>2021-05-24T09:18:16Z</time>
      </trkpt>
      <trkpt lat="43.42346" lon="2.43098">
        <ele>1016.633</ele>
        <time>2021-05-24T09:18:18Z</time>
      </trkpt>
      <trkpt lat="43.42346" lon="2.43101">
        <ele>1017.587</ele>
        <time>2021-05-24T09:18:20Z</time>
      </trkpt>
      <trkpt lat="43.42345" lon="2.43103">
        <ele>1018.318</ele>
        <time>2021-05-24T09:18:22Z</time>
      </trkpt>
      <trkpt lat="43.42344" lon="2.43106">
        <ele>1019.609</ele>
        <time>2021-05-24T09:18:24Z</time>
      </trkpt>
      <trkpt lat="43.42344" lon="2.43108">
        <ele>1019.701</ele>
        <time>2021-05-24T09:18:26Z</time>
      </trkpt>
      <trkpt lat="43.42343" lon="2.4311">
        <ele>1020.318</ele>
        <time>2021-05-24T09:18:28Z</time>
      </trkpt>
      <trkpt lat="43.42343" lon="2.43113">
        <ele>1020.559</ele>
        <time>2021-05-24T09:18:30Z</time>
      </trkpt>
      <trkpt lat="43.42343" lon="2.43116">
        <ele>1020.96</ele>
        <time>2021-05-24T09:18:32Z</time>
      </trkpt>
      <trkpt lat="43.42342" lon="2.43118">
        <ele>1021.976</ele>
        <time>2021-05-24T09:18:34Z</time>
      </trkpt>
      <trkpt lat="43.42342" lon="2.43121">
        <ele>1022.032</ele>
        <time>2021-05-24T09:18:36Z</time>
      </trkpt>
      <trkpt lat="43.42341" lon="2.43124">
        <ele>1022.747</ele>
        <time>2021-05-24T09:18:38Z</time>
      </trkpt>
      <trkpt lat="43.42341" lon="2.43126">
        <ele>1022.611</ele>
        <time>2021-05-24T09:18:40Z</time>
      </trkpt>
      <trkpt lat="43.42341" lon="2.43128">
        <ele>1022.063</ele>
        <time>2021-05-24T09:18:42Z</time>
      </trkpt>
      <trkpt lat="43.42341" lon="2.43131">
        <ele>1021.994</ele>
        <time>2021-05-24T09:18:44Z</time>
      </trkpt>
      <trkpt lat="43.4234" lon="2.43133">
        <ele>1021.954</ele>
        <time>2021-05-24T09:18:46Z</time>
      </trkpt>
      <trkpt lat="43.42339" lon="2.43138">
        <ele>1021.92</ele>
        <time>2021-05-24T09:18:48Z</time>
      </trkpt>
      <trkpt lat="43.42338" lon="2.4314">
        <ele>1022.88</ele>
        <time>2021-05-24T09:18:50Z</time>
      </trkpt>
      <trkpt lat="43.42338" lon="2.43142">
        <ele>1023.166</ele>
        <time>2021-05-24T09:18:52Z</time>
      </trkpt>
      <trkpt lat="43.42338" lon="2.43144">
        <ele>1023.702</ele>
        <time>2021-05-24T09:18:54Z</time>
      </trkpt>
      <trkpt lat="43.42337" lon="2.43146">
        <ele>1024.985</ele>
        <time>2021-05-24T09:18:56Z</time>
      </trkpt>
      <trkpt lat="43.42336" lon="2.43148">
        <ele>1024.985</ele>
        <time>2021-05-24T09:18:58Z</time>
      </trkpt>
      <trkpt lat="43.42335" lon="2.4315">
        <ele>1024.894</ele>
        <time>2021-05-24T09:19:00Z</time>
      </trkpt>
      <trkpt lat="43.42334" lon="2.43152">
        <ele>1025.34</ele>
        <time>2021-05-24T09:19:02Z</time>
      </trkpt>
      <trkpt lat="43.42332" lon="2.43153">
        <ele>1025.854</ele>
        <time>2021-05-24T09:19:04Z</time>
      </trkpt>
      <trkpt lat="43.42331" lon="2.43154">
        <ele>1026.499</ele>
        <time>2021-05-24T09:19:06Z</time>
      </trkpt>
      <trkpt lat="43.42331" lon="2.43154">
        <ele>1026.497</ele>
        <time>2021-05-24T09:19:08Z</time>
      </trkpt>
      <trkpt lat="43.42331" lon="2.43154">
        <ele>1026.753</ele>
        <time>2021-05-24T09:19:10Z</time>
      </trkpt>
      <trkpt lat="43.42332" lon="2.43154">
        <ele>1026.421</ele>
        <time>2021-05-24T09:19:12Z</time>
      </trkpt>
      <trkpt lat="43.42332" lon="2.43154">
        <ele>1026.424</ele>
        <time>2021-05-24T09:19:14Z</time>
      </trkpt>
      <trkpt lat="43.42332" lon="2.43154">
        <ele>1026.803</ele>
        <time>2021-05-24T09:19:16Z</time>
      </trkpt>
      <trkpt lat="43.42332" lon="2.43154">
        <ele>1026.807</ele>
        <time>2021-05-24T09:19:18Z</time>
      </trkpt>
      <trkpt lat="43.42332" lon="2.43154">
        <ele>1026.813</ele>
        <time>2021-05-24T09:19:20Z</time>
      </trkpt>
      <trkpt lat="43.42332" lon="2.43154">
        <ele>1027.084</ele>
        <time>2021-05-24T09:19:22Z</time>
      </trkpt>
      <trkpt lat="43.42332" lon="2.43154">
        <ele>1027.868</ele>
        <time>2021-05-24T09:19:24Z</time>
      </trkpt>
      <trkpt lat="43.42331" lon="2.43153">
        <ele>1027.776</ele>
        <time>2021-05-24T09:19:26Z</time>
      </trkpt>
      <trkpt lat="43.4233" lon="2.43153">
        <ele>1027.404</ele>
        <time>2021-05-24T09:19:28Z</time>
      </trkpt>
      <trkpt lat="43.42328" lon="2.43153">
        <ele>1027.816</ele>
        <time>2021-05-24T09:19:30Z</time>
      </trkpt>
      <trkpt lat="43.42328" lon="2.43154">
        <ele>1028.153</ele>
        <time>2021-05-24T09:19:32Z</time>
      </trkpt>
      <trkpt lat="43.42328" lon="2.43153">
        <ele>1028.151</ele>
        <time>2021-05-24T09:19:34Z</time>
      </trkpt>
      <trkpt lat="43.42328" lon="2.43153">
        <ele>1028.149</ele>
        <time>2021-05-24T09:19:36Z</time>
      </trkpt>
      <trkpt lat="43.42328" lon="2.43153">
        <ele>1028.149</ele>
        <time>2021-05-24T09:19:38Z</time>
      </trkpt>
      <trkpt lat="43.42328" lon="2.43153">
        <ele>1028.145</ele>
        <time>2021-05-24T09:19:40Z</time>
      </trkpt>
      <trkpt lat="43.42328" lon="2.43153">
        <ele>1028.142</ele>
        <time>2021-05-24T09:19:42Z</time>
      </trkpt>
      <trkpt lat="43.42328" lon="2.43154">
        <ele>1027.794</ele>
        <time>2021-05-24T09:19:44Z</time>
      </trkpt>
      <trkpt lat="43.42328" lon="2.43154">
        <ele>1027.955</ele>
        <time>2021-05-24T09:19:46Z</time>
      </trkpt>
      <trkpt lat="43.42328" lon="2.43153">
        <ele>1028.109</ele>
        <time>2021-05-24T09:19:48Z</time>
      </trkpt>
      <trkpt lat="43.42327" lon="2.43154">
        <ele>1028.259</ele>
        <time>2021-05-24T09:19:50Z</time>
      </trkpt>
      <trkpt lat="43.42327" lon="2.43153">
        <ele>1028.532</ele>
        <time>2021-05-24T09:19:52Z</time>
      </trkpt>
      <trkpt lat="43.42327" lon="2.43152">
        <ele>1028.519</ele>
        <time>2021-05-24T09:19:54Z</time>
      </trkpt>
      <trkpt lat="43.42327" lon="2.43153">
        <ele>1028.451</ele>
        <time>2021-05-24T09:19:56Z</time>
      </trkpt>
      <trkpt lat="43.42327" lon="2.43153">
        <ele>1028.363</ele>
        <time>2021-05-24T09:19:58Z</time>
      </trkpt>
      <trkpt lat="43.42327" lon="2.43153">
        <ele>1028.373</ele>
        <time>2021-05-24T09:20:00Z</time>
      </trkpt>
      <trkpt lat="43.42327" lon="2.43152">
        <ele>1028.479</ele>
        <time>2021-05-24T09:20:02Z</time>
      </trkpt>
      <trkpt lat="43.42327" lon="2.43152">
        <ele>1028.755</ele>
        <time>2021-05-24T09:20:04Z</time>
      </trkpt>
      <trkpt lat="43.42326" lon="2.43152">
        <ele>1028.989</ele>
        <time>2021-05-24T09:20:06Z</time>
      </trkpt>
      <trkpt lat="43.42326" lon="2.43152">
        <ele>1028.993</ele>
        <time>2021-05-24T09:20:08Z</time>
      </trkpt>
      <trkpt lat="43.42326" lon="2.43152">
        <ele>1028.997</ele>
        <time>2021-05-24T09:20:10Z</time>
      </trkpt>
      <trkpt lat="43.42326" lon="2.43152">
        <ele>1029.134</ele>
        <time>2021-05-24T09:20:13Z</time>
      </trkpt>
      <trkpt lat="43.42327" lon="2.43152">
        <ele>1029.134</ele>
        <time>2021-05-24T09:20:15Z</time>
      </trkpt>
      <trkpt lat="43.42326" lon="2.43152">
        <ele>1029.033</ele>
        <time>2021-05-24T09:20:17Z</time>
      </trkpt>
      <trkpt lat="43.42326" lon="2.43152">
        <ele>1028.62</ele>
        <time>2021-05-24T09:20:19Z</time>
      </trkpt>
      <trkpt lat="43.42326" lon="2.43151">
        <ele>1028.605</ele>
        <time>2021-05-24T09:20:21Z</time>
      </trkpt>
      <trkpt lat="43.42326" lon="2.43151">
        <ele>1028.604</ele>
        <time>2021-05-24T09:20:23Z</time>
      </trkpt>
      <trkpt lat="43.42326" lon="2.43152">
        <ele>1028.648</ele>
        <time>2021-05-24T09:20:25Z</time>
      </trkpt>
      <trkpt lat="43.42326" lon="2.43152">
        <ele>1029.093</ele>
        <time>2021-05-24T09:20:27Z</time>
      </trkpt>
      <trkpt lat="43.42326" lon="2.43152">
        <ele>1028.872</ele>
        <time>2021-05-24T09:20:29Z</time>
      </trkpt>
      <trkpt lat="43.42326" lon="2.43152">
        <ele>1028.879</ele>
        <time>2021-05-24T09:20:31Z</time>
      </trkpt>
      <trkpt lat="43.42326" lon="2.43152">
        <ele>1028.883</ele>
        <time>2021-05-24T09:20:33Z</time>
      </trkpt>
      <trkpt lat="43.42326" lon="2.43152">
        <ele>1028.884</ele>
        <time>2021-05-24T09:20:35Z</time>
      </trkpt>
      <trkpt lat="43.42326" lon="2.43152">
        <ele>1028.886</ele>
        <time>2021-05-24T09:20:37Z</time>
      </trkpt>
      <trkpt lat="43.42326" lon="2.43152">
        <ele>1028.886</ele>
        <time>2021-05-24T09:20:39Z</time>
      </trkpt>
      <trkpt lat="43.42326" lon="2.43152">
        <ele>1028.888</ele>
        <time>2021-05-24T09:20:41Z</time>
      </trkpt>
      <trkpt lat="43.42326" lon="2.43152">
        <ele>1028.892</ele>
        <time>2021-05-24T09:20:43Z</time>
      </trkpt>
      <trkpt lat="43.42326" lon="2.43152">
        <ele>1028.895</ele>
        <time>2021-05-24T09:20:45Z</time>
      </trkpt>
      <trkpt lat="43.42326" lon="2.43152">
        <ele>1029.263</ele>
        <time>2021-05-24T09:20:47Z</time>
      </trkpt>
      <trkpt lat="43.42326" lon="2.43152">
        <ele>1029.511</ele>
        <time>2021-05-24T09:20:49Z</time>
      </trkpt>
      <trkpt lat="43.42326" lon="2.43151">
        <ele>1029.822</ele>
        <time>2021-05-24T09:20:51Z</time>
      </trkpt>
      <trkpt lat="43.42326" lon="2.43151">
        <ele>1029.836</ele>
        <time>2021-05-24T09:20:53Z</time>
      </trkpt>
      <trkpt lat="43.42326" lon="2.43152">
        <ele>1029.199</ele>
        <time>2021-05-24T09:20:55Z</time>
      </trkpt>
      <trkpt lat="43.42326" lon="2.43152">
        <ele>1028.836</ele>
        <time>2021-05-24T09:21:02Z</time>
      </trkpt>
      <trkpt lat="43.42326" lon="2.43152">
        <ele>1028.84</ele>
        <time>2021-05-24T09:21:04Z</time>
      </trkpt>
      <trkpt lat="43.42326" lon="2.43152">
        <ele>1028.837</ele>
        <time>2021-05-24T09:21:06Z</time>
      </trkpt>
      <trkpt lat="43.42327" lon="2.43152">
        <ele>1028.742</ele>
        <time>2021-05-24T09:21:08Z</time>
      </trkpt>
      <trkpt lat="43.42327" lon="2.43152">
        <ele>1028.738</ele>
        <time>2021-05-24T09:21:10Z</time>
      </trkpt>
      <trkpt lat="43.42327" lon="2.43152">
        <ele>1028.737</ele>
        <time>2021-05-24T09:21:12Z</time>
      </trkpt>
      <trkpt lat="43.42327" lon="2.43152">
        <ele>1028.741</ele>
        <time>2021-05-24T09:21:14Z</time>
      </trkpt>
      <trkpt lat="43.42327" lon="2.43152">
        <ele>1028.743</ele>
        <time>2021-05-24T09:21:16Z</time>
      </trkpt>
      <trkpt lat="43.42327" lon="2.43152">
        <ele>1028.764</ele>
        <time>2021-05-24T09:21:18Z</time>
      </trkpt>
      <trkpt lat="43.42327" lon="2.43152">
        <ele>1029.351</ele>
        <time>2021-05-24T09:21:20Z</time>
      </trkpt>
      <trkpt lat="43.42327" lon="2.43152">
        <ele>1029.352</ele>
        <time>2021-05-24T09:21:22Z</time>
      </trkpt>
      <trkpt lat="43.42327" lon="2.43152">
        <ele>1029.356</ele>
        <time>2021-05-24T09:21:24Z</time>
      </trkpt>
      <trkpt lat="43.42327" lon="2.43152">
        <ele>1029.361</ele>
        <time>2021-05-24T09:21:26Z</time>
      </trkpt>
      <trkpt lat="43.42327" lon="2.43152">
        <ele>1029.361</ele>
        <time>2021-05-24T09:21:28Z</time>
      </trkpt>
      <trkpt lat="43.42327" lon="2.43152">
        <ele>1029.363</ele>
        <time>2021-05-24T09:21:30Z</time>
      </trkpt>
      <trkpt lat="43.42327" lon="2.43152">
        <ele>1029.368</ele>
        <time>2021-05-24T09:21:32Z</time>
      </trkpt>
      <trkpt lat="43.42327" lon="2.43152">
        <ele>1029.365</ele>
        <time>2021-05-24T09:21:34Z</time>
      </trkpt>
      <trkpt lat="43.42327" lon="2.43152">
        <ele>1029.365</ele>
        <time>2021-05-24T09:21:36Z</time>
      </trkpt>
      <trkpt lat="43.42327" lon="2.43152">
        <ele>1029.369</ele>
        <time>2021-05-24T09:21:38Z</time>
      </trkpt>
      <trkpt lat="43.42327" lon="2.43152">
        <ele>1029.367</ele>
        <time>2021-05-24T09:21:40Z</time>
      </trkpt>
      <trkpt lat="43.42327" lon="2.43152">
        <ele>1029.366</ele>
        <time>2021-05-24T09:21:42Z</time>
      </trkpt>
      <trkpt lat="43.42327" lon="2.43152">
        <ele>1029.398</ele>
        <time>2021-05-24T09:21:44Z</time>
      </trkpt>
      <trkpt lat="43.42327" lon="2.43152">
        <ele>1029.128</ele>
        <time>2021-05-24T09:21:46Z</time>
      </trkpt>
      <trkpt lat="43.42328" lon="2.43154">
        <ele>1028.903</ele>
        <time>2021-05-24T09:21:48Z</time>
      </trkpt>
      <trkpt lat="43.42328" lon="2.43156">
        <ele>1029.119</ele>
        <time>2021-05-24T09:21:50Z</time>
      </trkpt>
      <trkpt lat="43.42327" lon="2.43158">
        <ele>1029.235</ele>
        <time>2021-05-24T09:21:52Z</time>
      </trkpt>
      <trkpt lat="43.42327" lon="2.4316">
        <ele>1029.651</ele>
        <time>2021-05-24T09:21:54Z</time>
      </trkpt>
      <trkpt lat="43.42328" lon="2.4316">
        <ele>1029.797</ele>
        <time>2021-05-24T09:21:56Z</time>
      </trkpt>
      <trkpt lat="43.42328" lon="2.43159">
        <ele>1029.786</ele>
        <time>2021-05-24T09:21:58Z</time>
      </trkpt>
      <trkpt lat="43.42329" lon="2.43159">
        <ele>1029.785</ele>
        <time>2021-05-24T09:22:00Z</time>
      </trkpt>
      <trkpt lat="43.42329" lon="2.43159">
        <ele>1029.789</ele>
        <time>2021-05-24T09:22:02Z</time>
      </trkpt>
      <trkpt lat="43.42329" lon="2.43159">
        <ele>1029.793</ele>
        <time>2021-05-24T09:22:04Z</time>
      </trkpt>
      <trkpt lat="43.42329" lon="2.43159">
        <ele>1029.797</ele>
        <time>2021-05-24T09:22:06Z</time>
      </trkpt>
      <trkpt lat="43.42329" lon="2.43159">
        <ele>1029.798</ele>
        <time>2021-05-24T09:22:08Z</time>
      </trkpt>
      <trkpt lat="43.42329" lon="2.43159">
        <ele>1029.8</ele>
        <time>2021-05-24T09:22:10Z</time>
      </trkpt>
      <trkpt lat="43.42329" lon="2.43159">
        <ele>1029.8</ele>
        <time>2021-05-24T09:22:12Z</time>
      </trkpt>
      <trkpt lat="43.42329" lon="2.43159">
        <ele>1029.797</ele>
        <time>2021-05-24T09:22:14Z</time>
      </trkpt>
      <trkpt lat="43.42329" lon="2.43159">
        <ele>1029.792</ele>
        <time>2021-05-24T09:22:16Z</time>
      </trkpt>
      <trkpt lat="43.42329" lon="2.43159">
        <ele>1029.781</ele>
        <time>2021-05-24T09:22:18Z</time>
      </trkpt>
      <trkpt lat="43.42329" lon="2.43159">
        <ele>1029.774</ele>
        <time>2021-05-24T09:22:20Z</time>
      </trkpt>
      <trkpt lat="43.42329" lon="2.43159">
        <ele>1029.768</ele>
        <time>2021-05-24T09:22:22Z</time>
      </trkpt>
      <trkpt lat="43.42329" lon="2.43159">
        <ele>1029.77</ele>
        <time>2021-05-24T09:22:24Z</time>
      </trkpt>
      <trkpt lat="43.42329" lon="2.43159">
        <ele>1029.772</ele>
        <time>2021-05-24T09:22:26Z</time>
      </trkpt>
      <trkpt lat="43.42329" lon="2.43159">
        <ele>1030.051</ele>
        <time>2021-05-24T09:22:28Z</time>
      </trkpt>
      <trkpt lat="43.42329" lon="2.43159">
        <ele>1030.04</ele>
        <time>2021-05-24T09:22:30Z</time>
      </trkpt>
      <trkpt lat="43.42329" lon="2.43159">
        <ele>1030.037</ele>
        <time>2021-05-24T09:22:32Z</time>
      </trkpt>
      <trkpt lat="43.42329" lon="2.43159">
        <ele>1030.038</ele>
        <time>2021-05-24T09:22:34Z</time>
      </trkpt>
      <trkpt lat="43.42329" lon="2.43159">
        <ele>1030.041</ele>
        <time>2021-05-24T09:22:36Z</time>
      </trkpt>
      <trkpt lat="43.42329" lon="2.43159">
        <ele>1030.044</ele>
        <time>2021-05-24T09:22:38Z</time>
      </trkpt>
      <trkpt lat="43.42329" lon="2.43159">
        <ele>1030.042</ele>
        <time>2021-05-24T09:22:40Z</time>
      </trkpt>
      <trkpt lat="43.42329" lon="2.43159">
        <ele>1030.041</ele>
        <time>2021-05-24T09:22:42Z</time>
      </trkpt>
      <trkpt lat="43.42329" lon="2.43159">
        <ele>1030.046</ele>
        <time>2021-05-24T09:22:44Z</time>
      </trkpt>
      <trkpt lat="43.42329" lon="2.43159">
        <ele>1030.05</ele>
        <time>2021-05-24T09:22:46Z</time>
      </trkpt>
      <trkpt lat="43.42329" lon="2.43159">
        <ele>1030.053</ele>
        <time>2021-05-24T09:22:48Z</time>
      </trkpt>
      <trkpt lat="43.42329" lon="2.43159">
        <ele>1030.052</ele>
        <time>2021-05-24T09:22:50Z</time>
      </trkpt>
      <trkpt lat="43.42329" lon="2.43159">
        <ele>1030.053</ele>
        <time>2021-05-24T09:22:52Z</time>
      </trkpt>
      <trkpt lat="43.42329" lon="2.43159">
        <ele>1030.053</ele>
        <time>2021-05-24T09:22:54Z</time>
      </trkpt>
      <trkpt lat="43.42329" lon="2.43159">
        <ele>1030.056</ele>
        <time>2021-05-24T09:22:56Z</time>
      </trkpt>
      <trkpt lat="43.42329" lon="2.43159">
        <ele>1030.298</ele>
        <time>2021-05-24T09:22:58Z</time>
      </trkpt>
      <trkpt lat="43.42329" lon="2.43159">
        <ele>1030.302</ele>
        <time>2021-05-24T09:23:00Z</time>
      </trkpt>
      <trkpt lat="43.42329" lon="2.43158">
        <ele>1030.242</ele>
        <time>2021-05-24T09:23:02Z</time>
      </trkpt>
      <trkpt lat="43.42329" lon="2.43157">
        <ele>1030.436</ele>
        <time>2021-05-24T09:23:04Z</time>
      </trkpt>
      <trkpt lat="43.42329" lon="2.43157">
        <ele>1030.29</ele>
        <time>2021-05-24T09:23:06Z</time>
      </trkpt>
      <trkpt lat="43.42329" lon="2.43157">
        <ele>1030.296</ele>
        <time>2021-05-24T09:23:08Z</time>
      </trkpt>
      <trkpt lat="43.42329" lon="2.43157">
        <ele>1030.292</ele>
        <time>2021-05-24T09:23:10Z</time>
      </trkpt>
      <trkpt lat="43.42329" lon="2.43157">
        <ele>1030.286</ele>
        <time>2021-05-24T09:23:12Z</time>
      </trkpt>
      <trkpt lat="43.42329" lon="2.43157">
        <ele>1030.286</ele>
        <time>2021-05-24T09:23:14Z</time>
      </trkpt>
      <trkpt lat="43.42329" lon="2.43156">
        <ele>1030.653</ele>
        <time>2021-05-24T09:23:16Z</time>
      </trkpt>
      <trkpt lat="43.42329" lon="2.43157">
        <ele>1030.668</ele>
        <time>2021-05-24T09:23:18Z</time>
      </trkpt>
      <trkpt lat="43.42329" lon="2.43157">
        <ele>1030.676</ele>
        <time>2021-05-24T09:23:20Z</time>
      </trkpt>
      <trkpt lat="43.42329" lon="2.43157">
        <ele>1030.678</ele>
        <time>2021-05-24T09:23:22Z</time>
      </trkpt>
      <trkpt lat="43.42329" lon="2.43157">
        <ele>1030.678</ele>
        <time>2021-05-24T09:23:24Z</time>
      </trkpt>
      <trkpt lat="43.42329" lon="2.43157">
        <ele>1030.682</ele>
        <time>2021-05-24T09:23:26Z</time>
      </trkpt>
      <trkpt lat="43.42329" lon="2.43157">
        <ele>1030.679</ele>
        <time>2021-05-24T09:23:28Z</time>
      </trkpt>
      <trkpt lat="43.42329" lon="2.43156">
        <ele>1030.68</ele>
        <time>2021-05-24T09:23:30Z</time>
      </trkpt>
      <trkpt lat="43.42329" lon="2.43156">
        <ele>1030.682</ele>
        <time>2021-05-24T09:23:32Z</time>
      </trkpt>
      <trkpt lat="43.42329" lon="2.43156">
        <ele>1030.684</ele>
        <time>2021-05-24T09:23:34Z</time>
      </trkpt>
      <trkpt lat="43.42329" lon="2.43156">
        <ele>1030.687</ele>
        <time>2021-05-24T09:23:36Z</time>
      </trkpt>
      <trkpt lat="43.42329" lon="2.43156">
        <ele>1030.69</ele>
        <time>2021-05-24T09:23:38Z</time>
      </trkpt>
      <trkpt lat="43.42329" lon="2.43156">
        <ele>1030.694</ele>
        <time>2021-05-24T09:23:40Z</time>
      </trkpt>
      <trkpt lat="43.42329" lon="2.43156">
        <ele>1030.695</ele>
        <time>2021-05-24T09:23:42Z</time>
      </trkpt>
      <trkpt lat="43.42329" lon="2.43156">
        <ele>1030.698</ele>
        <time>2021-05-24T09:23:44Z</time>
      </trkpt>
      <trkpt lat="43.42329" lon="2.43156">
        <ele>1030.699</ele>
        <time>2021-05-24T09:23:46Z</time>
      </trkpt>
      <trkpt lat="43.42329" lon="2.43156">
        <ele>1030.699</ele>
        <time>2021-05-24T09:23:48Z</time>
      </trkpt>
      <trkpt lat="43.42329" lon="2.43156">
        <ele>1030.698</ele>
        <time>2021-05-24T09:23:50Z</time>
      </trkpt>
      <trkpt lat="43.42329" lon="2.43156">
        <ele>1030.704</ele>
        <time>2021-05-24T09:23:52Z</time>
      </trkpt>
      <trkpt lat="43.42329" lon="2.43156">
        <ele>1030.707</ele>
        <time>2021-05-24T09:23:54Z</time>
      </trkpt>
      <trkpt lat="43.42329" lon="2.43156">
        <ele>1030.712</ele>
        <time>2021-05-24T09:23:56Z</time>
      </trkpt>
      <trkpt lat="43.42329" lon="2.43156">
        <ele>1030.714</ele>
        <time>2021-05-24T09:23:58Z</time>
      </trkpt>
      <trkpt lat="43.42329" lon="2.43156">
        <ele>1030.715</ele>
        <time>2021-05-24T09:24:00Z</time>
      </trkpt>
      <trkpt lat="43.42329" lon="2.43156">
        <ele>1030.719</ele>
        <time>2021-05-24T09:24:02Z</time>
      </trkpt>
      <trkpt lat="43.42329" lon="2.43156">
        <ele>1030.724</ele>
        <time>2021-05-24T09:24:04Z</time>
      </trkpt>
      <trkpt lat="43.42329" lon="2.43156">
        <ele>1030.73</ele>
        <time>2021-05-24T09:24:06Z</time>
      </trkpt>
      <trkpt lat="43.4233" lon="2.43156">
        <ele>1030.895</ele>
        <time>2021-05-24T09:24:08Z</time>
      </trkpt>
      <trkpt lat="43.4233" lon="2.43156">
        <ele>1030.898</ele>
        <time>2021-05-24T09:24:10Z</time>
      </trkpt>
      <trkpt lat="43.4233" lon="2.43156">
        <ele>1030.905</ele>
        <time>2021-05-24T09:24:12Z</time>
      </trkpt>
      <trkpt lat="43.4233" lon="2.43156">
        <ele>1030.901</ele>
        <time>2021-05-24T09:24:14Z</time>
      </trkpt>
      <trkpt lat="43.4233" lon="2.43156">
        <ele>1030.904</ele>
        <time>2021-05-24T09:24:16Z</time>
      </trkpt>
      <trkpt lat="43.4233" lon="2.43156">
        <ele>1030.902</ele>
        <time>2021-05-24T09:24:18Z</time>
      </trkpt>
      <trkpt lat="43.4233" lon="2.43156">
        <ele>1030.906</ele>
        <time>2021-05-24T09:24:20Z</time>
      </trkpt>
      <trkpt lat="43.4233" lon="2.43156">
        <ele>1030.906</ele>
        <time>2021-05-24T09:24:22Z</time>
      </trkpt>
      <trkpt lat="43.4233" lon="2.43156">
        <ele>1030.904</ele>
        <time>2021-05-24T09:24:24Z</time>
      </trkpt>
      <trkpt lat="43.4233" lon="2.43156">
        <ele>1030.904</ele>
        <time>2021-05-24T09:24:26Z</time>
      </trkpt>
      <trkpt lat="43.4233" lon="2.43156">
        <ele>1030.9</ele>
        <time>2021-05-24T09:24:28Z</time>
      </trkpt>
      <trkpt lat="43.4233" lon="2.43156">
        <ele>1030.901</ele>
        <time>2021-05-24T09:24:30Z</time>
      </trkpt>
      <trkpt lat="43.4233" lon="2.43156">
        <ele>1030.903</ele>
        <time>2021-05-24T09:24:32Z</time>
      </trkpt>
      <trkpt lat="43.4233" lon="2.43156">
        <ele>1030.901</ele>
        <time>2021-05-24T09:24:34Z</time>
      </trkpt>
      <trkpt lat="43.4233" lon="2.43156">
        <ele>1030.893</ele>
        <time>2021-05-24T09:24:36Z</time>
      </trkpt>
      <trkpt lat="43.4233" lon="2.43156">
        <ele>1030.889</ele>
        <time>2021-05-24T09:24:38Z</time>
      </trkpt>
      <trkpt lat="43.4233" lon="2.43156">
        <ele>1030.889</ele>
        <time>2021-05-24T09:24:40Z</time>
      </trkpt>
      <trkpt lat="43.4233" lon="2.43156">
        <ele>1030.888</ele>
        <time>2021-05-24T09:24:42Z</time>
      </trkpt>
      <trkpt lat="43.4233" lon="2.43156">
        <ele>1030.883</ele>
        <time>2021-05-24T09:24:44Z</time>
      </trkpt>
      <trkpt lat="43.4233" lon="2.43156">
        <ele>1030.884</ele>
        <time>2021-05-24T09:24:46Z</time>
      </trkpt>
      <trkpt lat="43.4233" lon="2.43156">
        <ele>1030.884</ele>
        <time>2021-05-24T09:24:48Z</time>
      </trkpt>
      <trkpt lat="43.4233" lon="2.43156">
        <ele>1030.891</ele>
        <time>2021-05-24T09:24:51Z</time>
      </trkpt>
      <trkpt lat="43.4233" lon="2.43156">
        <ele>1030.9</ele>
        <time>2021-05-24T09:24:53Z</time>
      </trkpt>
      <trkpt lat="43.4233" lon="2.43156">
        <ele>1030.9</ele>
        <time>2021-05-24T09:24:55Z</time>
      </trkpt>
      <trkpt lat="43.4233" lon="2.43156">
        <ele>1030.907</ele>
        <time>2021-05-24T09:24:57Z</time>
      </trkpt>
      <trkpt lat="43.4233" lon="2.43156">
        <ele>1030.908</ele>
        <time>2021-05-24T09:24:59Z</time>
      </trkpt>
      <trkpt lat="43.4233" lon="2.43156">
        <ele>1030.911</ele>
        <time>2021-05-24T09:25:01Z</time>
      </trkpt>
      <trkpt lat="43.4233" lon="2.43156">
        <ele>1030.912</ele>
        <time>2021-05-24T09:25:03Z</time>
      </trkpt>
      <trkpt lat="43.4233" lon="2.43156">
        <ele>1030.922</ele>
        <time>2021-05-24T09:25:05Z</time>
      </trkpt>
      <trkpt lat="43.4233" lon="2.43156">
        <ele>1030.925</ele>
        <time>2021-05-24T09:25:07Z</time>
      </trkpt>
      <trkpt lat="43.4233" lon="2.43156">
        <ele>1030.93</ele>
        <time>2021-05-24T09:25:09Z</time>
      </trkpt>
      <trkpt lat="43.4233" lon="2.43156">
        <ele>1030.932</ele>
        <time>2021-05-24T09:25:11Z</time>
      </trkpt>
      <trkpt lat="43.4233" lon="2.43156">
        <ele>1030.937</ele>
        <time>2021-05-24T09:25:13Z</time>
      </trkpt>
      <trkpt lat="43.4233" lon="2.43156">
        <ele>1030.942</ele>
        <time>2021-05-24T09:25:15Z</time>
      </trkpt>
      <trkpt lat="43.4233" lon="2.43156">
        <ele>1030.945</ele>
        <time>2021-05-24T09:25:17Z</time>
      </trkpt>
      <trkpt lat="43.4233" lon="2.43156">
        <ele>1030.949</ele>
        <time>2021-05-24T09:25:19Z</time>
      </trkpt>
      <trkpt lat="43.4233" lon="2.43156">
        <ele>1030.953</ele>
        <time>2021-05-24T09:25:21Z</time>
      </trkpt>
      <trkpt lat="43.4233" lon="2.43156">
        <ele>1030.958</ele>
        <time>2021-05-24T09:25:23Z</time>
      </trkpt>
      <trkpt lat="43.4233" lon="2.43156">
        <ele>1030.961</ele>
        <time>2021-05-24T09:25:25Z</time>
      </trkpt>
      <trkpt lat="43.4233" lon="2.43156">
        <ele>1030.966</ele>
        <time>2021-05-24T09:25:27Z</time>
      </trkpt>
      <trkpt lat="43.4233" lon="2.43156">
        <ele>1030.973</ele>
        <time>2021-05-24T09:25:29Z</time>
      </trkpt>
      <trkpt lat="43.4233" lon="2.43156">
        <ele>1030.977</ele>
        <time>2021-05-24T09:25:31Z</time>
      </trkpt>
      <trkpt lat="43.4233" lon="2.43156">
        <ele>1030.979</ele>
        <time>2021-05-24T09:25:33Z</time>
      </trkpt>
      <trkpt lat="43.4233" lon="2.43156">
        <ele>1030.986</ele>
        <time>2021-05-24T09:25:35Z</time>
      </trkpt>
      <trkpt lat="43.4233" lon="2.43156">
        <ele>1030.84</ele>
        <time>2021-05-24T09:25:37Z</time>
      </trkpt>
      <trkpt lat="43.4233" lon="2.43156">
        <ele>1030.841</ele>
        <time>2021-05-24T09:25:39Z</time>
      </trkpt>
      <trkpt lat="43.4233" lon="2.43156">
        <ele>1030.84</ele>
        <time>2021-05-24T09:25:41Z</time>
      </trkpt>
      <trkpt lat="43.4233" lon="2.43156">
        <ele>1030.839</ele>
        <time>2021-05-24T09:25:43Z</time>
      </trkpt>
      <trkpt lat="43.4233" lon="2.43156">
        <ele>1030.837</ele>
        <time>2021-05-24T09:25:45Z</time>
      </trkpt>
      <trkpt lat="43.4233" lon="2.43156">
        <ele>1030.837</ele>
        <time>2021-05-24T09:25:47Z</time>
      </trkpt>
      <trkpt lat="43.4233" lon="2.43156">
        <ele>1030.838</ele>
        <time>2021-05-24T09:25:49Z</time>
      </trkpt>
      <trkpt lat="43.4233" lon="2.43156">
        <ele>1030.836</ele>
        <time>2021-05-24T09:25:51Z</time>
      </trkpt>
      <trkpt lat="43.4233" lon="2.43156">
        <ele>1030.834</ele>
        <time>2021-05-24T09:25:53Z</time>
      </trkpt>
      <trkpt lat="43.4233" lon="2.43156">
        <ele>1030.837</ele>
        <time>2021-05-24T09:25:55Z</time>
      </trkpt>
      <trkpt lat="43.4233" lon="2.43156">
        <ele>1030.838</ele>
        <time>2021-05-24T09:25:57Z</time>
      </trkpt>
      <trkpt lat="43.4233" lon="2.43156">
        <ele>1030.84</ele>
        <time>2021-05-24T09:25:59Z</time>
      </trkpt>
      <trkpt lat="43.4233" lon="2.43156">
        <ele>1030.843</ele>
        <time>2021-05-24T09:26:01Z</time>
      </trkpt>
      <trkpt lat="43.4233" lon="2.43156">
        <ele>1030.848</ele>
        <time>2021-05-24T09:26:03Z</time>
      </trkpt>
      <trkpt lat="43.4233" lon="2.43156">
        <ele>1030.848</ele>
        <time>2021-05-24T09:26:05Z</time>
      </trkpt>
      <trkpt lat="43.4233" lon="2.43156">
        <ele>1030.85</ele>
        <time>2021-05-24T09:26:07Z</time>
      </trkpt>
      <trkpt lat="43.4233" lon="2.43156">
        <ele>1030.853</ele>
        <time>2021-05-24T09:26:09Z</time>
      </trkpt>
      <trkpt lat="43.4233" lon="2.43156">
        <ele>1030.859</ele>
        <time>2021-05-24T09:26:11Z</time>
      </trkpt>
      <trkpt lat="43.4233" lon="2.43156">
        <ele>1030.865</ele>
        <time>2021-05-24T09:26:13Z</time>
      </trkpt>
      <trkpt lat="43.4233" lon="2.43156">
        <ele>1030.868</ele>
        <time>2021-05-24T09:26:15Z</time>
      </trkpt>
      <trkpt lat="43.4233" lon="2.43156">
        <ele>1030.866</ele>
        <time>2021-05-24T09:26:17Z</time>
      </trkpt>
      <trkpt lat="43.4233" lon="2.43156">
        <ele>1030.862</ele>
        <time>2021-05-24T09:26:19Z</time>
      </trkpt>
      <trkpt lat="43.4233" lon="2.43156">
        <ele>1030.864</ele>
        <time>2021-05-24T09:26:21Z</time>
      </trkpt>
      <trkpt lat="43.4233" lon="2.43156">
        <ele>1030.865</ele>
        <time>2021-05-24T09:26:23Z</time>
      </trkpt>
      <trkpt lat="43.4233" lon="2.43156">
        <ele>1030.867</ele>
        <time>2021-05-24T09:26:25Z</time>
      </trkpt>
      <trkpt lat="43.4233" lon="2.43156">
        <ele>1030.869</ele>
        <time>2021-05-24T09:26:27Z</time>
      </trkpt>
      <trkpt lat="43.4233" lon="2.43156">
        <ele>1030.873</ele>
        <time>2021-05-24T09:26:29Z</time>
      </trkpt>
      <trkpt lat="43.4233" lon="2.43156">
        <ele>1030.875</ele>
        <time>2021-05-24T09:26:31Z</time>
      </trkpt>
      <trkpt lat="43.4233" lon="2.43156">
        <ele>1030.879</ele>
        <time>2021-05-24T09:26:33Z</time>
      </trkpt>
      <trkpt lat="43.4233" lon="2.43156">
        <ele>1030.885</ele>
        <time>2021-05-24T09:26:35Z</time>
      </trkpt>
      <trkpt lat="43.4233" lon="2.43156">
        <ele>1030.888</ele>
        <time>2021-05-24T09:26:37Z</time>
      </trkpt>
      <trkpt lat="43.4233" lon="2.43156">
        <ele>1030.922</ele>
        <time>2021-05-24T09:26:39Z</time>
      </trkpt>
      <trkpt lat="43.4233" lon="2.43157">
        <ele>1031.281</ele>
        <time>2021-05-24T09:26:41Z</time>
      </trkpt>
      <trkpt lat="43.4233" lon="2.43158">
        <ele>1031.571</ele>
        <time>2021-05-24T09:26:43Z</time>
      </trkpt>
      <trkpt lat="43.42329" lon="2.43158">
        <ele>1030.882</ele>
        <time>2021-05-24T09:26:45Z</time>
      </trkpt>
      <trkpt lat="43.42329" lon="2.4316">
        <ele>1030.651</ele>
        <time>2021-05-24T09:26:47Z</time>
      </trkpt>
      <trkpt lat="43.42328" lon="2.4316">
        <ele>1030.603</ele>
        <time>2021-05-24T09:26:49Z</time>
      </trkpt>
      <trkpt lat="43.42328" lon="2.4316">
        <ele>1030.555</ele>
        <time>2021-05-24T09:26:51Z</time>
      </trkpt>
      <trkpt lat="43.42328" lon="2.4316">
        <ele>1030.69</ele>
        <time>2021-05-24T09:26:53Z</time>
      </trkpt>
      <trkpt lat="43.42328" lon="2.4316">
        <ele>1030.69</ele>
        <time>2021-05-24T09:26:55Z</time>
      </trkpt>
      <trkpt lat="43.42327" lon="2.43161">
        <ele>1030.386</ele>
        <time>2021-05-24T09:26:57Z</time>
      </trkpt>
      <trkpt lat="43.42327" lon="2.43162">
        <ele>1030.662</ele>
        <time>2021-05-24T09:26:59Z</time>
      </trkpt>
      <trkpt lat="43.42326" lon="2.43164">
        <ele>1031.25</ele>
        <time>2021-05-24T09:27:01Z</time>
      </trkpt>
      <trkpt lat="43.42325" lon="2.43165">
        <ele>1030.985</ele>
        <time>2021-05-24T09:27:03Z</time>
      </trkpt>
      <trkpt lat="43.42324" lon="2.43167">
        <ele>1031.108</ele>
        <time>2021-05-24T09:27:05Z</time>
      </trkpt>
      <trkpt lat="43.42324" lon="2.43169">
        <ele>1031.265</ele>
        <time>2021-05-24T09:27:07Z</time>
      </trkpt>
      <trkpt lat="43.42324" lon="2.43172">
        <ele>1031.158</ele>
        <time>2021-05-24T09:27:09Z</time>
      </trkpt>
      <trkpt lat="43.42324" lon="2.43174">
        <ele>1031.147</ele>
        <time>2021-05-24T09:27:11Z</time>
      </trkpt>
      <trkpt lat="43.42324" lon="2.43177">
        <ele>1030.804</ele>
        <time>2021-05-24T09:27:13Z</time>
      </trkpt>
      <trkpt lat="43.42324" lon="2.43179">
        <ele>1031.011</ele>
        <time>2021-05-24T09:27:15Z</time>
      </trkpt>
      <trkpt lat="43.42324" lon="2.43181">
        <ele>1030.927</ele>
        <time>2021-05-24T09:27:17Z</time>
      </trkpt>
      <trkpt lat="43.42325" lon="2.43184">
        <ele>1030.769</ele>
        <time>2021-05-24T09:27:19Z</time>
      </trkpt>
      <trkpt lat="43.42324" lon="2.43187">
        <ele>1031.345</ele>
        <time>2021-05-24T09:27:21Z</time>
      </trkpt>
      <trkpt lat="43.42324" lon="2.43189">
        <ele>1031.491</ele>
        <time>2021-05-24T09:27:23Z</time>
      </trkpt>
      <trkpt lat="43.42324" lon="2.4319">
        <ele>1031.308</ele>
        <time>2021-05-24T09:27:24Z</time>
      </trkpt>
      <trkpt lat="43.42323" lon="2.43194">
        <ele>1031.852</ele>
        <time>2021-05-24T09:27:27Z</time>
      </trkpt>
      <trkpt lat="43.42322" lon="2.43197">
        <ele>1032.895</ele>
        <time>2021-05-24T09:27:29Z</time>
      </trkpt>
      <trkpt lat="43.42322" lon="2.432">
        <ele>1033.107</ele>
        <time>2021-05-24T09:27:31Z</time>
      </trkpt>
      <trkpt lat="43.42322" lon="2.43203">
        <ele>1033.603</ele>
        <time>2021-05-24T09:27:33Z</time>
      </trkpt>
      <trkpt lat="43.42321" lon="2.43205">
        <ele>1033.552</ele>
        <time>2021-05-24T09:27:35Z</time>
      </trkpt>
      <trkpt lat="43.42321" lon="2.43208">
        <ele>1033.664</ele>
        <time>2021-05-24T09:27:37Z</time>
      </trkpt>
      <trkpt lat="43.42321" lon="2.43211">
        <ele>1034.432</ele>
        <time>2021-05-24T09:27:39Z</time>
      </trkpt>
      <trkpt lat="43.4232" lon="2.43213">
        <ele>1035.012</ele>
        <time>2021-05-24T09:27:41Z</time>
      </trkpt>
      <trkpt lat="43.4232" lon="2.43216">
        <ele>1036.334</ele>
        <time>2021-05-24T09:27:43Z</time>
      </trkpt>
      <trkpt lat="43.4232" lon="2.43219">
        <ele>1037.033</ele>
        <time>2021-05-24T09:27:45Z</time>
      </trkpt>
      <trkpt lat="43.42319" lon="2.43222">
        <ele>1037.917</ele>
        <time>2021-05-24T09:27:47Z</time>
      </trkpt>
      <trkpt lat="43.42319" lon="2.43225">
        <ele>1038.076</ele>
        <time>2021-05-24T09:27:49Z</time>
      </trkpt>
      <trkpt lat="43.42319" lon="2.43228">
        <ele>1038.771</ele>
        <time>2021-05-24T09:27:51Z</time>
      </trkpt>
      <trkpt lat="43.42319" lon="2.4323">
        <ele>1039.265</ele>
        <time>2021-05-24T09:27:53Z</time>
      </trkpt>
      <trkpt lat="43.42318" lon="2.43233">
        <ele>1039.562</ele>
        <time>2021-05-24T09:27:55Z</time>
      </trkpt>
      <trkpt lat="43.42318" lon="2.43237">
        <ele>1040.481</ele>
        <time>2021-05-24T09:27:57Z</time>
      </trkpt>
      <trkpt lat="43.42318" lon="2.43239">
        <ele>1040.138</ele>
        <time>2021-05-24T09:27:59Z</time>
      </trkpt>
      <trkpt lat="43.42318" lon="2.43242">
        <ele>1040.278</ele>
        <time>2021-05-24T09:28:01Z</time>
      </trkpt>
      <trkpt lat="43.42318" lon="2.43246">
        <ele>1040.894</ele>
        <time>2021-05-24T09:28:03Z</time>
      </trkpt>
      <trkpt lat="43.42317" lon="2.43249">
        <ele>1041.268</ele>
        <time>2021-05-24T09:28:05Z</time>
      </trkpt>
      <trkpt lat="43.42317" lon="2.43252">
        <ele>1041.526</ele>
        <time>2021-05-24T09:28:07Z</time>
      </trkpt>
      <trkpt lat="43.42317" lon="2.43255">
        <ele>1041.999</ele>
        <time>2021-05-24T09:28:09Z</time>
      </trkpt>
      <trkpt lat="43.42317" lon="2.43258">
        <ele>1042.701</ele>
        <time>2021-05-24T09:28:11Z</time>
      </trkpt>
      <trkpt lat="43.42318" lon="2.43261">
        <ele>1042.491</ele>
        <time>2021-05-24T09:28:13Z</time>
      </trkpt>
      <trkpt lat="43.42319" lon="2.43263">
        <ele>1042.923</ele>
        <time>2021-05-24T09:28:15Z</time>
      </trkpt>
      <trkpt lat="43.4232" lon="2.43266">
        <ele>1043.22</ele>
        <time>2021-05-24T09:28:17Z</time>
      </trkpt>
      <trkpt lat="43.42321" lon="2.43268">
        <ele>1043.626</ele>
        <time>2021-05-24T09:28:19Z</time>
      </trkpt>
      <trkpt lat="43.42321" lon="2.43271">
        <ele>1043.589</ele>
        <time>2021-05-24T09:28:21Z</time>
      </trkpt>
      <trkpt lat="43.42322" lon="2.43273">
        <ele>1043.695</ele>
        <time>2021-05-24T09:28:23Z</time>
      </trkpt>
      <trkpt lat="43.42323" lon="2.43276">
        <ele>1044.286</ele>
        <time>2021-05-24T09:28:25Z</time>
      </trkpt>
      <trkpt lat="43.42323" lon="2.43279">
        <ele>1044.621</ele>
        <time>2021-05-24T09:28:27Z</time>
      </trkpt>
      <trkpt lat="43.42323" lon="2.43281">
        <ele>1044.617</ele>
        <time>2021-05-24T09:28:29Z</time>
      </trkpt>
      <trkpt lat="43.42322" lon="2.43283">
        <ele>1044.363</ele>
        <time>2021-05-24T09:28:31Z</time>
      </trkpt>
      <trkpt lat="43.42321" lon="2.43287">
        <ele>1044.709</ele>
        <time>2021-05-24T09:28:33Z</time>
      </trkpt>
      <trkpt lat="43.42321" lon="2.43291">
        <ele>1044.652</ele>
        <time>2021-05-24T09:28:36Z</time>
      </trkpt>
      <trkpt lat="43.42321" lon="2.43294">
        <ele>1045.369</ele>
        <time>2021-05-24T09:28:38Z</time>
      </trkpt>
      <trkpt lat="43.4232" lon="2.43296">
        <ele>1045.276</ele>
        <time>2021-05-24T09:28:40Z</time>
      </trkpt>
      <trkpt lat="43.42319" lon="2.43299">
        <ele>1045.893</ele>
        <time>2021-05-24T09:28:42Z</time>
      </trkpt>
      <trkpt lat="43.42318" lon="2.43301">
        <ele>1045.974</ele>
        <time>2021-05-24T09:28:44Z</time>
      </trkpt>
      <trkpt lat="43.42317" lon="2.43304">
        <ele>1046.171</ele>
        <time>2021-05-24T09:28:46Z</time>
      </trkpt>
      <trkpt lat="43.42316" lon="2.43305">
        <ele>1046.637</ele>
        <time>2021-05-24T09:28:48Z</time>
      </trkpt>
      <trkpt lat="43.42315" lon="2.43307">
        <ele>1046.291</ele>
        <time>2021-05-24T09:28:50Z</time>
      </trkpt>
      <trkpt lat="43.42314" lon="2.43308">
        <ele>1046.518</ele>
        <time>2021-05-24T09:28:52Z</time>
      </trkpt>
      <trkpt lat="43.42312" lon="2.4331">
        <ele>1045.75</ele>
        <time>2021-05-24T09:28:54Z</time>
      </trkpt>
      <trkpt lat="43.4231" lon="2.43313">
        <ele>1046.898</ele>
        <time>2021-05-24T09:28:56Z</time>
      </trkpt>
      <trkpt lat="43.42309" lon="2.43315">
        <ele>1046.496</ele>
        <time>2021-05-24T09:28:58Z</time>
      </trkpt>
      <trkpt lat="43.42308" lon="2.43317">
        <ele>1046.907</ele>
        <time>2021-05-24T09:29:00Z</time>
      </trkpt>
      <trkpt lat="43.42306" lon="2.4332">
        <ele>1046.596</ele>
        <time>2021-05-24T09:29:02Z</time>
      </trkpt>
      <trkpt lat="43.42305" lon="2.43323">
        <ele>1047.592</ele>
        <time>2021-05-24T09:29:04Z</time>
      </trkpt>
      <trkpt lat="43.42305" lon="2.43325">
        <ele>1048.632</ele>
        <time>2021-05-24T09:29:06Z</time>
      </trkpt>
      <trkpt lat="43.42304" lon="2.43328">
        <ele>1049.394</ele>
        <time>2021-05-24T09:29:08Z</time>
      </trkpt>
      <trkpt lat="43.42303" lon="2.4333">
        <ele>1049.156</ele>
        <time>2021-05-24T09:29:10Z</time>
      </trkpt>
      <trkpt lat="43.42302" lon="2.43332">
        <ele>1049.023</ele>
        <time>2021-05-24T09:29:12Z</time>
      </trkpt>
      <trkpt lat="43.423" lon="2.43332">
        <ele>1050.101</ele>
        <time>2021-05-24T09:29:14Z</time>
      </trkpt>
      <trkpt lat="43.42297" lon="2.43332">
        <ele>1050.023</ele>
        <time>2021-05-24T09:29:16Z</time>
      </trkpt>
      <trkpt lat="43.42295" lon="2.43333">
        <ele>1050.152</ele>
        <time>2021-05-24T09:29:18Z</time>
      </trkpt>
      <trkpt lat="43.42292" lon="2.43334">
        <ele>1048.875</ele>
        <time>2021-05-24T09:29:20Z</time>
      </trkpt>
      <trkpt lat="43.42289" lon="2.43336">
        <ele>1047.722</ele>
        <time>2021-05-24T09:29:22Z</time>
      </trkpt>
      <trkpt lat="43.42287" lon="2.43338">
        <ele>1047.061</ele>
        <time>2021-05-24T09:29:24Z</time>
      </trkpt>
      <trkpt lat="43.42285" lon="2.43339">
        <ele>1047.941</ele>
        <time>2021-05-24T09:29:26Z</time>
      </trkpt>
      <trkpt lat="43.42284" lon="2.4334">
        <ele>1047.267</ele>
        <time>2021-05-24T09:29:28Z</time>
      </trkpt>
      <trkpt lat="43.42281" lon="2.43341">
        <ele>1047.925</ele>
        <time>2021-05-24T09:29:30Z</time>
      </trkpt>
      <trkpt lat="43.42278" lon="2.43341">
        <ele>1048.071</ele>
        <time>2021-05-24T09:29:32Z</time>
      </trkpt>
      <trkpt lat="43.42276" lon="2.43342">
        <ele>1048.339</ele>
        <time>2021-05-24T09:29:34Z</time>
      </trkpt>
      <trkpt lat="43.42274" lon="2.43342">
        <ele>1048.488</ele>
        <time>2021-05-24T09:29:35Z</time>
      </trkpt>
      <trkpt lat="43.42269" lon="2.43344">
        <ele>1050.034</ele>
        <time>2021-05-24T09:29:38Z</time>
      </trkpt>
      <trkpt lat="43.42267" lon="2.43344">
        <ele>1051.003</ele>
        <time>2021-05-24T09:29:40Z</time>
      </trkpt>
      <trkpt lat="43.42266" lon="2.43345">
        <ele>1050.747</ele>
        <time>2021-05-24T09:29:42Z</time>
      </trkpt>
      <trkpt lat="43.42264" lon="2.43346">
        <ele>1049.979</ele>
        <time>2021-05-24T09:29:44Z</time>
      </trkpt>
      <trkpt lat="43.42263" lon="2.43347">
        <ele>1049.448</ele>
        <time>2021-05-24T09:29:46Z</time>
      </trkpt>
      <trkpt lat="43.42262" lon="2.43349">
        <ele>1049.463</ele>
        <time>2021-05-24T09:29:48Z</time>
      </trkpt>
      <trkpt lat="43.42261" lon="2.4335">
        <ele>1048.82</ele>
        <time>2021-05-24T09:29:50Z</time>
      </trkpt>
      <trkpt lat="43.42259" lon="2.43352">
        <ele>1048.458</ele>
        <time>2021-05-24T09:29:52Z</time>
      </trkpt>
      <trkpt lat="43.42257" lon="2.43353">
        <ele>1047.15</ele>
        <time>2021-05-24T09:29:54Z</time>
      </trkpt>
      <trkpt lat="43.42255" lon="2.43355">
        <ele>1047.62</ele>
        <time>2021-05-24T09:29:56Z</time>
      </trkpt>
      <trkpt lat="43.42253" lon="2.43357">
        <ele>1047.718</ele>
        <time>2021-05-24T09:29:58Z</time>
      </trkpt>
      <trkpt lat="43.42252" lon="2.43361">
        <ele>1047.488</ele>
        <time>2021-05-24T09:30:00Z</time>
      </trkpt>
      <trkpt lat="43.42252" lon="2.43364">
        <ele>1047.282</ele>
        <time>2021-05-24T09:30:02Z</time>
      </trkpt>
      <trkpt lat="43.42253" lon="2.43368">
        <ele>1047.018</ele>
        <time>2021-05-24T09:30:04Z</time>
      </trkpt>
      <trkpt lat="43.42254" lon="2.4337">
        <ele>1048.385</ele>
        <time>2021-05-24T09:30:06Z</time>
      </trkpt>
      <trkpt lat="43.42255" lon="2.43371">
        <ele>1049.886</ele>
        <time>2021-05-24T09:30:08Z</time>
      </trkpt>
      <trkpt lat="43.42257" lon="2.43373">
        <ele>1049.462</ele>
        <time>2021-05-24T09:30:10Z</time>
      </trkpt>
      <trkpt lat="43.42258" lon="2.43375">
        <ele>1050.063</ele>
        <time>2021-05-24T09:30:12Z</time>
      </trkpt>
      <trkpt lat="43.42259" lon="2.43377">
        <ele>1050.846</ele>
        <time>2021-05-24T09:30:14Z</time>
      </trkpt>
      <trkpt lat="43.42259" lon="2.4338">
        <ele>1051.059</ele>
        <time>2021-05-24T09:30:16Z</time>
      </trkpt>
      <trkpt lat="43.4226" lon="2.43383">
        <ele>1052.325</ele>
        <time>2021-05-24T09:30:18Z</time>
      </trkpt>
      <trkpt lat="43.42261" lon="2.43386">
        <ele>1052.511</ele>
        <time>2021-05-24T09:30:20Z</time>
      </trkpt>
      <trkpt lat="43.42261" lon="2.43389">
        <ele>1052.665</ele>
        <time>2021-05-24T09:30:22Z</time>
      </trkpt>
      <trkpt lat="43.42262" lon="2.43392">
        <ele>1053.369</ele>
        <time>2021-05-24T09:30:24Z</time>
      </trkpt>
      <trkpt lat="43.42262" lon="2.43395">
        <ele>1054.078</ele>
        <time>2021-05-24T09:30:26Z</time>
      </trkpt>
      <trkpt lat="43.42262" lon="2.43398">
        <ele>1054.856</ele>
        <time>2021-05-24T09:30:28Z</time>
      </trkpt>
      <trkpt lat="43.42263" lon="2.43402">
        <ele>1054.705</ele>
        <time>2021-05-24T09:30:30Z</time>
      </trkpt>
      <trkpt lat="43.42264" lon="2.43404">
        <ele>1054.866</ele>
        <time>2021-05-24T09:30:32Z</time>
      </trkpt>
      <trkpt lat="43.42265" lon="2.43407">
        <ele>1054.059</ele>
        <time>2021-05-24T09:30:34Z</time>
      </trkpt>
      <trkpt lat="43.42265" lon="2.43409">
        <ele>1054.826</ele>
        <time>2021-05-24T09:30:36Z</time>
      </trkpt>
      <trkpt lat="43.42266" lon="2.43411">
        <ele>1054.313</ele>
        <time>2021-05-24T09:30:38Z</time>
      </trkpt>
      <trkpt lat="43.42267" lon="2.43414">
        <ele>1053.998</ele>
        <time>2021-05-24T09:30:40Z</time>
      </trkpt>
      <trkpt lat="43.42268" lon="2.43417">
        <ele>1053.834</ele>
        <time>2021-05-24T09:30:42Z</time>
      </trkpt>
      <trkpt lat="43.42268" lon="2.43419">
        <ele>1053.769</ele>
        <time>2021-05-24T09:30:43Z</time>
      </trkpt>
      <trkpt lat="43.4227" lon="2.43424">
        <ele>1054.536</ele>
        <time>2021-05-24T09:30:46Z</time>
      </trkpt>
      <trkpt lat="43.42271" lon="2.43428">
        <ele>1055.712</ele>
        <time>2021-05-24T09:30:48Z</time>
      </trkpt>
      <trkpt lat="43.42272" lon="2.43431">
        <ele>1056.152</ele>
        <time>2021-05-24T09:30:50Z</time>
      </trkpt>
      <trkpt lat="43.42273" lon="2.43434">
        <ele>1056.487</ele>
        <time>2021-05-24T09:30:52Z</time>
      </trkpt>
      <trkpt lat="43.42274" lon="2.43437">
        <ele>1057.389</ele>
        <time>2021-05-24T09:30:54Z</time>
      </trkpt>
      <trkpt lat="43.42274" lon="2.43439">
        <ele>1057.567</ele>
        <time>2021-05-24T09:30:56Z</time>
      </trkpt>
      <trkpt lat="43.42274" lon="2.43442">
        <ele>1058.329</ele>
        <time>2021-05-24T09:30:58Z</time>
      </trkpt>
      <trkpt lat="43.42274" lon="2.43446">
        <ele>1058.449</ele>
        <time>2021-05-24T09:31:00Z</time>
      </trkpt>
      <trkpt lat="43.42273" lon="2.43449">
        <ele>1059.205</ele>
        <time>2021-05-24T09:31:02Z</time>
      </trkpt>
      <trkpt lat="43.42272" lon="2.43453">
        <ele>1059.953</ele>
        <time>2021-05-24T09:31:04Z</time>
      </trkpt>
      <trkpt lat="43.42271" lon="2.43456">
        <ele>1061.149</ele>
        <time>2021-05-24T09:31:06Z</time>
      </trkpt>
      <trkpt lat="43.4227" lon="2.43459">
        <ele>1061.665</ele>
        <time>2021-05-24T09:31:08Z</time>
      </trkpt>
      <trkpt lat="43.42269" lon="2.43461">
        <ele>1062.038</ele>
        <time>2021-05-24T09:31:10Z</time>
      </trkpt>
      <trkpt lat="43.42268" lon="2.43464">
        <ele>1062.565</ele>
        <time>2021-05-24T09:31:12Z</time>
      </trkpt>
      <trkpt lat="43.42267" lon="2.43466">
        <ele>1063.201</ele>
        <time>2021-05-24T09:31:14Z</time>
      </trkpt>
      <trkpt lat="43.42267" lon="2.43468">
        <ele>1063.898</ele>
        <time>2021-05-24T09:31:16Z</time>
      </trkpt>
      <trkpt lat="43.42265" lon="2.4347">
        <ele>1063.936</ele>
        <time>2021-05-24T09:31:18Z</time>
      </trkpt>
      <trkpt lat="43.42264" lon="2.43473">
        <ele>1063.747</ele>
        <time>2021-05-24T09:31:20Z</time>
      </trkpt>
      <trkpt lat="43.42261" lon="2.43476">
        <ele>1064.453</ele>
        <time>2021-05-24T09:31:22Z</time>
      </trkpt>
      <trkpt lat="43.4226" lon="2.43478">
        <ele>1064.292</ele>
        <time>2021-05-24T09:31:24Z</time>
      </trkpt>
      <trkpt lat="43.42259" lon="2.4348">
        <ele>1063.709</ele>
        <time>2021-05-24T09:31:26Z</time>
      </trkpt>
      <trkpt lat="43.42258" lon="2.43482">
        <ele>1063.702</ele>
        <time>2021-05-24T09:31:28Z</time>
      </trkpt>
      <trkpt lat="43.42257" lon="2.43484">
        <ele>1063.075</ele>
        <time>2021-05-24T09:31:30Z</time>
      </trkpt>
      <trkpt lat="43.42256" lon="2.43487">
        <ele>1063.352</ele>
        <time>2021-05-24T09:31:32Z</time>
      </trkpt>
      <trkpt lat="43.42255" lon="2.43489">
        <ele>1063.21</ele>
        <time>2021-05-24T09:31:34Z</time>
      </trkpt>
      <trkpt lat="43.42254" lon="2.43492">
        <ele>1063.1</ele>
        <time>2021-05-24T09:31:36Z</time>
      </trkpt>
      <trkpt lat="43.42253" lon="2.43494">
        <ele>1062.244</ele>
        <time>2021-05-24T09:31:38Z</time>
      </trkpt>
      <trkpt lat="43.42251" lon="2.43497">
        <ele>1062.612</ele>
        <time>2021-05-24T09:31:40Z</time>
      </trkpt>
      <trkpt lat="43.4225" lon="2.43499">
        <ele>1062.696</ele>
        <time>2021-05-24T09:31:42Z</time>
      </trkpt>
      <trkpt lat="43.42248" lon="2.43502">
        <ele>1062.979</ele>
        <time>2021-05-24T09:31:44Z</time>
      </trkpt>
      <trkpt lat="43.42247" lon="2.43503">
        <ele>1063.1</ele>
        <time>2021-05-24T09:31:46Z</time>
      </trkpt>
      <trkpt lat="43.42245" lon="2.43505">
        <ele>1062.722</ele>
        <time>2021-05-24T09:31:48Z</time>
      </trkpt>
      <trkpt lat="43.42244" lon="2.43505">
        <ele>1062.979</ele>
        <time>2021-05-24T09:31:50Z</time>
      </trkpt>
      <trkpt lat="43.42244" lon="2.43505">
        <ele>1062.979</ele>
        <time>2021-05-24T09:31:52Z</time>
      </trkpt>
      <trkpt lat="43.42243" lon="2.43507">
        <ele>1063.171</ele>
        <time>2021-05-24T09:31:54Z</time>
      </trkpt>
      <trkpt lat="43.42242" lon="2.43509">
        <ele>1063.082</ele>
        <time>2021-05-24T09:31:56Z</time>
      </trkpt>
      <trkpt lat="43.4224" lon="2.43511">
        <ele>1063.228</ele>
        <time>2021-05-24T09:31:58Z</time>
      </trkpt>
      <trkpt lat="43.42239" lon="2.43514">
        <ele>1063.578</ele>
        <time>2021-05-24T09:32:00Z</time>
      </trkpt>
      <trkpt lat="43.42237" lon="2.43516">
        <ele>1063.88</ele>
        <time>2021-05-24T09:32:02Z</time>
      </trkpt>
      <trkpt lat="43.42236" lon="2.43518">
        <ele>1064.367</ele>
        <time>2021-05-24T09:32:04Z</time>
      </trkpt>
      <trkpt lat="43.42235" lon="2.43521">
        <ele>1064.826</ele>
        <time>2021-05-24T09:32:06Z</time>
      </trkpt>
      <trkpt lat="43.42235" lon="2.43523">
        <ele>1065.467</ele>
        <time>2021-05-24T09:32:08Z</time>
      </trkpt>
      <trkpt lat="43.42235" lon="2.43525">
        <ele>1066.184</ele>
        <time>2021-05-24T09:32:10Z</time>
      </trkpt>
      <trkpt lat="43.42234" lon="2.43526">
        <ele>1066.088</ele>
        <time>2021-05-24T09:32:12Z</time>
      </trkpt>
      <trkpt lat="43.42234" lon="2.43526">
        <ele>1066.042</ele>
        <time>2021-05-24T09:32:14Z</time>
      </trkpt>
      <trkpt lat="43.42234" lon="2.43526">
        <ele>1066.05</ele>
        <time>2021-05-24T09:32:16Z</time>
      </trkpt>
      <trkpt lat="43.42234" lon="2.43526">
        <ele>1066.048</ele>
        <time>2021-05-24T09:32:18Z</time>
      </trkpt>
      <trkpt lat="43.42234" lon="2.43526">
        <ele>1066.046</ele>
        <time>2021-05-24T09:32:20Z</time>
      </trkpt>
      <trkpt lat="43.42234" lon="2.43526">
        <ele>1066.463</ele>
        <time>2021-05-24T09:32:22Z</time>
      </trkpt>
      <trkpt lat="43.42234" lon="2.43526">
        <ele>1066.409</ele>
        <time>2021-05-24T09:32:24Z</time>
      </trkpt>
      <trkpt lat="43.42234" lon="2.43526">
        <ele>1066.387</ele>
        <time>2021-05-24T09:32:26Z</time>
      </trkpt>
      <trkpt lat="43.42234" lon="2.43526">
        <ele>1066.378</ele>
        <time>2021-05-24T09:32:28Z</time>
      </trkpt>
      <trkpt lat="43.42234" lon="2.43526">
        <ele>1066.375</ele>
        <time>2021-05-24T09:32:30Z</time>
      </trkpt>
      <trkpt lat="43.42234" lon="2.43526">
        <ele>1066.371</ele>
        <time>2021-05-24T09:32:32Z</time>
      </trkpt>
      <trkpt lat="43.42234" lon="2.43526">
        <ele>1066.364</ele>
        <time>2021-05-24T09:32:34Z</time>
      </trkpt>
      <trkpt lat="43.42234" lon="2.43526">
        <ele>1066.357</ele>
        <time>2021-05-24T09:32:36Z</time>
      </trkpt>
      <trkpt lat="43.42234" lon="2.43526">
        <ele>1066.351</ele>
        <time>2021-05-24T09:32:38Z</time>
      </trkpt>
      <trkpt lat="43.42234" lon="2.43526">
        <ele>1066.347</ele>
        <time>2021-05-24T09:32:40Z</time>
      </trkpt>
      <trkpt lat="43.42234" lon="2.43526">
        <ele>1066.35</ele>
        <time>2021-05-24T09:32:42Z</time>
      </trkpt>
      <trkpt lat="43.42234" lon="2.43526">
        <ele>1066.35</ele>
        <time>2021-05-24T09:32:44Z</time>
      </trkpt>
      <trkpt lat="43.42234" lon="2.43526">
        <ele>1066.347</ele>
        <time>2021-05-24T09:32:46Z</time>
      </trkpt>
      <trkpt lat="43.42234" lon="2.43526">
        <ele>1066.35</ele>
        <time>2021-05-24T09:32:48Z</time>
      </trkpt>
      <trkpt lat="43.42234" lon="2.43526">
        <ele>1066.353</ele>
        <time>2021-05-24T09:32:50Z</time>
      </trkpt>
      <trkpt lat="43.42234" lon="2.43526">
        <ele>1066.354</ele>
        <time>2021-05-24T09:32:52Z</time>
      </trkpt>
      <trkpt lat="43.42234" lon="2.43526">
        <ele>1066.356</ele>
        <time>2021-05-24T09:32:54Z</time>
      </trkpt>
      <trkpt lat="43.42234" lon="2.43526">
        <ele>1066.354</ele>
        <time>2021-05-24T09:32:56Z</time>
      </trkpt>
      <trkpt lat="43.42234" lon="2.43526">
        <ele>1066.356</ele>
        <time>2021-05-24T09:32:58Z</time>
      </trkpt>
      <trkpt lat="43.42234" lon="2.43526">
        <ele>1066.357</ele>
        <time>2021-05-24T09:33:00Z</time>
      </trkpt>
      <trkpt lat="43.42234" lon="2.43526">
        <ele>1066.353</ele>
        <time>2021-05-24T09:33:02Z</time>
      </trkpt>
      <trkpt lat="43.42234" lon="2.43526">
        <ele>1066.355</ele>
        <time>2021-05-24T09:33:04Z</time>
      </trkpt>
      <trkpt lat="43.42234" lon="2.43526">
        <ele>1066.359</ele>
        <time>2021-05-24T09:33:06Z</time>
      </trkpt>
      <trkpt lat="43.42234" lon="2.43526">
        <ele>1066.361</ele>
        <time>2021-05-24T09:33:08Z</time>
      </trkpt>
      <trkpt lat="43.42234" lon="2.43526">
        <ele>1066.359</ele>
        <time>2021-05-24T09:33:10Z</time>
      </trkpt>
      <trkpt lat="43.42234" lon="2.43526">
        <ele>1066.358</ele>
        <time>2021-05-24T09:33:12Z</time>
      </trkpt>
      <trkpt lat="43.42234" lon="2.43526">
        <ele>1066.356</ele>
        <time>2021-05-24T09:33:14Z</time>
      </trkpt>
      <trkpt lat="43.42234" lon="2.43526">
        <ele>1066.354</ele>
        <time>2021-05-24T09:33:16Z</time>
      </trkpt>
      <trkpt lat="43.42234" lon="2.43526">
        <ele>1066.351</ele>
        <time>2021-05-24T09:33:18Z</time>
      </trkpt>
      <trkpt lat="43.42234" lon="2.43526">
        <ele>1066.345</ele>
        <time>2021-05-24T09:33:20Z</time>
      </trkpt>
      <trkpt lat="43.42234" lon="2.43526">
        <ele>1066.341</ele>
        <time>2021-05-24T09:33:22Z</time>
      </trkpt>
      <trkpt lat="43.42234" lon="2.43526">
        <ele>1066.34</ele>
        <time>2021-05-24T09:33:24Z</time>
      </trkpt>
      <trkpt lat="43.42234" lon="2.43526">
        <ele>1066.344</ele>
        <time>2021-05-24T09:33:26Z</time>
      </trkpt>
      <trkpt lat="43.42234" lon="2.43526">
        <ele>1066.343</ele>
        <time>2021-05-24T09:33:28Z</time>
      </trkpt>
      <trkpt lat="43.42234" lon="2.43526">
        <ele>1066.343</ele>
        <time>2021-05-24T09:33:30Z</time>
      </trkpt>
      <trkpt lat="43.42234" lon="2.43526">
        <ele>1066.342</ele>
        <time>2021-05-24T09:33:32Z</time>
      </trkpt>
      <trkpt lat="43.42234" lon="2.43526">
        <ele>1066.339</ele>
        <time>2021-05-24T09:33:34Z</time>
      </trkpt>
      <trkpt lat="43.42234" lon="2.43526">
        <ele>1066.343</ele>
        <time>2021-05-24T09:33:36Z</time>
      </trkpt>
      <trkpt lat="43.42234" lon="2.43526">
        <ele>1066.343</ele>
        <time>2021-05-24T09:33:38Z</time>
      </trkpt>
      <trkpt lat="43.42234" lon="2.43526">
        <ele>1066.343</ele>
        <time>2021-05-24T09:33:40Z</time>
      </trkpt>
      <trkpt lat="43.42234" lon="2.43526">
        <ele>1066.341</ele>
        <time>2021-05-24T09:33:42Z</time>
      </trkpt>
      <trkpt lat="43.42234" lon="2.43526">
        <ele>1066.338</ele>
        <time>2021-05-24T09:33:44Z</time>
      </trkpt>
      <trkpt lat="43.42234" lon="2.43526">
        <ele>1066.336</ele>
        <time>2021-05-24T09:33:46Z</time>
      </trkpt>
      <trkpt lat="43.42234" lon="2.43526">
        <ele>1066.335</ele>
        <time>2021-05-24T09:33:48Z</time>
      </trkpt>
      <trkpt lat="43.42234" lon="2.43526">
        <ele>1066.335</ele>
        <time>2021-05-24T09:33:50Z</time>
      </trkpt>
      <trkpt lat="43.42234" lon="2.43526">
        <ele>1066.334</ele>
        <time>2021-05-24T09:33:52Z</time>
      </trkpt>
      <trkpt lat="43.42235" lon="2.43526">
        <ele>1066.336</ele>
        <time>2021-05-24T09:33:54Z</time>
      </trkpt>
      <trkpt lat="43.42235" lon="2.43526">
        <ele>1066.335</ele>
        <time>2021-05-24T09:33:56Z</time>
      </trkpt>
      <trkpt lat="43.42235" lon="2.43526">
        <ele>1066.478</ele>
        <time>2021-05-24T09:33:58Z</time>
      </trkpt>
      <trkpt lat="43.42235" lon="2.43526">
        <ele>1066.485</ele>
        <time>2021-05-24T09:34:00Z</time>
      </trkpt>
      <trkpt lat="43.42235" lon="2.43526">
        <ele>1066.485</ele>
        <time>2021-05-24T09:34:02Z</time>
      </trkpt>
      <trkpt lat="43.42235" lon="2.43526">
        <ele>1066.482</ele>
        <time>2021-05-24T09:34:04Z</time>
      </trkpt>
      <trkpt lat="43.42235" lon="2.43526">
        <ele>1066.48</ele>
        <time>2021-05-24T09:34:06Z</time>
      </trkpt>
      <trkpt lat="43.42235" lon="2.43526">
        <ele>1066.478</ele>
        <time>2021-05-24T09:34:08Z</time>
      </trkpt>
      <trkpt lat="43.42235" lon="2.43526">
        <ele>1066.473</ele>
        <time>2021-05-24T09:34:10Z</time>
      </trkpt>
      <trkpt lat="43.42235" lon="2.43526">
        <ele>1066.473</ele>
        <time>2021-05-24T09:34:12Z</time>
      </trkpt>
      <trkpt lat="43.42235" lon="2.43526">
        <ele>1066.471</ele>
        <time>2021-05-24T09:34:14Z</time>
      </trkpt>
      <trkpt lat="43.42235" lon="2.43526">
        <ele>1066.469</ele>
        <time>2021-05-24T09:34:16Z</time>
      </trkpt>
      <trkpt lat="43.42235" lon="2.43526">
        <ele>1066.468</ele>
        <time>2021-05-24T09:34:18Z</time>
      </trkpt>
      <trkpt lat="43.42235" lon="2.43526">
        <ele>1066.468</ele>
        <time>2021-05-24T09:34:20Z</time>
      </trkpt>
      <trkpt lat="43.42235" lon="2.43526">
        <ele>1066.465</ele>
        <time>2021-05-24T09:34:22Z</time>
      </trkpt>
      <trkpt lat="43.42235" lon="2.43526">
        <ele>1066.47</ele>
        <time>2021-05-24T09:34:24Z</time>
      </trkpt>
      <trkpt lat="43.42235" lon="2.43526">
        <ele>1066.472</ele>
        <time>2021-05-24T09:34:26Z</time>
      </trkpt>
      <trkpt lat="43.42235" lon="2.43526">
        <ele>1066.477</ele>
        <time>2021-05-24T09:34:28Z</time>
      </trkpt>
      <trkpt lat="43.42235" lon="2.43526">
        <ele>1066.482</ele>
        <time>2021-05-24T09:34:30Z</time>
      </trkpt>
      <trkpt lat="43.42235" lon="2.43526">
        <ele>1066.483</ele>
        <time>2021-05-24T09:34:32Z</time>
      </trkpt>
      <trkpt lat="43.42235" lon="2.43526">
        <ele>1066.483</ele>
        <time>2021-05-24T09:34:34Z</time>
      </trkpt>
      <trkpt lat="43.42235" lon="2.43526">
        <ele>1066.483</ele>
        <time>2021-05-24T09:34:36Z</time>
      </trkpt>
      <trkpt lat="43.42235" lon="2.43526">
        <ele>1066.486</ele>
        <time>2021-05-24T09:34:38Z</time>
      </trkpt>
      <trkpt lat="43.42235" lon="2.43526">
        <ele>1066.487</ele>
        <time>2021-05-24T09:34:40Z</time>
      </trkpt>
      <trkpt lat="43.42235" lon="2.43526">
        <ele>1066.482</ele>
        <time>2021-05-24T09:34:42Z</time>
      </trkpt>
      <trkpt lat="43.42234" lon="2.43527">
        <ele>1066.288</ele>
        <time>2021-05-24T09:34:44Z</time>
      </trkpt>
      <trkpt lat="43.42234" lon="2.43527">
        <ele>1065.967</ele>
        <time>2021-05-24T09:34:46Z</time>
      </trkpt>
      <trkpt lat="43.42234" lon="2.43526">
        <ele>1065.959</ele>
        <time>2021-05-24T09:34:48Z</time>
      </trkpt>
      <trkpt lat="43.42234" lon="2.43527">
        <ele>1065.946</ele>
        <time>2021-05-24T09:34:50Z</time>
      </trkpt>
      <trkpt lat="43.42234" lon="2.43527">
        <ele>1065.95</ele>
        <time>2021-05-24T09:34:52Z</time>
      </trkpt>
      <trkpt lat="43.42234" lon="2.43527">
        <ele>1065.95</ele>
        <time>2021-05-24T09:34:54Z</time>
      </trkpt>
      <trkpt lat="43.42234" lon="2.43527">
        <ele>1065.947</ele>
        <time>2021-05-24T09:34:56Z</time>
      </trkpt>
      <trkpt lat="43.42233" lon="2.43528">
        <ele>1065.853</ele>
        <time>2021-05-24T09:34:58Z</time>
      </trkpt>
      <trkpt lat="43.42233" lon="2.43528">
        <ele>1065.844</ele>
        <time>2021-05-24T09:35:00Z</time>
      </trkpt>
      <trkpt lat="43.42233" lon="2.43528">
        <ele>1065.84</ele>
        <time>2021-05-24T09:35:02Z</time>
      </trkpt>
      <trkpt lat="43.42232" lon="2.43528">
        <ele>1065.838</ele>
        <time>2021-05-24T09:35:04Z</time>
      </trkpt>
      <trkpt lat="43.42232" lon="2.43528">
        <ele>1065.837</ele>
        <time>2021-05-24T09:35:06Z</time>
      </trkpt>
      <trkpt lat="43.42232" lon="2.43528">
        <ele>1065.832</ele>
        <time>2021-05-24T09:35:08Z</time>
      </trkpt>
      <trkpt lat="43.42233" lon="2.43528">
        <ele>1065.688</ele>
        <time>2021-05-24T09:35:10Z</time>
      </trkpt>
      <trkpt lat="43.42233" lon="2.43531">
        <ele>1065.886</ele>
        <time>2021-05-24T09:35:12Z</time>
      </trkpt>
      <trkpt lat="43.42232" lon="2.43534">
        <ele>1065.999</ele>
        <time>2021-05-24T09:35:14Z</time>
      </trkpt>
      <trkpt lat="43.42232" lon="2.43537">
        <ele>1065.988</ele>
        <time>2021-05-24T09:35:16Z</time>
      </trkpt>
      <trkpt lat="43.42235" lon="2.43539">
        <ele>1066.035</ele>
        <time>2021-05-24T09:35:18Z</time>
      </trkpt>
      <trkpt lat="43.42238" lon="2.43541">
        <ele>1066.194</ele>
        <time>2021-05-24T09:35:20Z</time>
      </trkpt>
      <trkpt lat="43.4224" lon="2.43545">
        <ele>1066.251</ele>
        <time>2021-05-24T09:35:22Z</time>
      </trkpt>
      <trkpt lat="43.42241" lon="2.43548">
        <ele>1066.777</ele>
        <time>2021-05-24T09:35:24Z</time>
      </trkpt>
      <trkpt lat="43.42241" lon="2.43551">
        <ele>1066.756</ele>
        <time>2021-05-24T09:35:26Z</time>
      </trkpt>
      <trkpt lat="43.42241" lon="2.43555">
        <ele>1066.932</ele>
        <time>2021-05-24T09:35:28Z</time>
      </trkpt>
      <trkpt lat="43.42241" lon="2.43559">
        <ele>1067.153</ele>
        <time>2021-05-24T09:35:30Z</time>
      </trkpt>
      <trkpt lat="43.42241" lon="2.43562">
        <ele>1067.36</ele>
        <time>2021-05-24T09:35:32Z</time>
      </trkpt>
      <trkpt lat="43.4224" lon="2.43566">
        <ele>1067.199</ele>
        <time>2021-05-24T09:35:34Z</time>
      </trkpt>
      <trkpt lat="43.42239" lon="2.43569">
        <ele>1067.392</ele>
        <time>2021-05-24T09:35:36Z</time>
      </trkpt>
      <trkpt lat="43.42239" lon="2.43572">
        <ele>1067.174</ele>
        <time>2021-05-24T09:35:38Z</time>
      </trkpt>
      <trkpt lat="43.42238" lon="2.43575">
        <ele>1067.007</ele>
        <time>2021-05-24T09:35:40Z</time>
      </trkpt>
      <trkpt lat="43.42237" lon="2.43579">
        <ele>1066.817</ele>
        <time>2021-05-24T09:35:42Z</time>
      </trkpt>
      <trkpt lat="43.42236" lon="2.43582">
        <ele>1067.029</ele>
        <time>2021-05-24T09:35:44Z</time>
      </trkpt>
      <trkpt lat="43.42235" lon="2.43585">
        <ele>1066.832</ele>
        <time>2021-05-24T09:35:46Z</time>
      </trkpt>
      <trkpt lat="43.42234" lon="2.43589">
        <ele>1066.915</ele>
        <time>2021-05-24T09:35:48Z</time>
      </trkpt>
      <trkpt lat="43.42233" lon="2.43592">
        <ele>1066.747</ele>
        <time>2021-05-24T09:35:50Z</time>
      </trkpt>
      <trkpt lat="43.42232" lon="2.43595">
        <ele>1067.058</ele>
        <time>2021-05-24T09:35:52Z</time>
      </trkpt>
      <trkpt lat="43.4223" lon="2.43598">
        <ele>1066.718</ele>
        <time>2021-05-24T09:35:54Z</time>
      </trkpt>
      <trkpt lat="43.42229" lon="2.43601">
        <ele>1066.854</ele>
        <time>2021-05-24T09:35:56Z</time>
      </trkpt>
      <trkpt lat="43.42228" lon="2.43605">
        <ele>1067.324</ele>
        <time>2021-05-24T09:35:58Z</time>
      </trkpt>
      <trkpt lat="43.42227" lon="2.43608">
        <ele>1067.492</ele>
        <time>2021-05-24T09:36:00Z</time>
      </trkpt>
      <trkpt lat="43.42226" lon="2.43612">
        <ele>1067.412</ele>
        <time>2021-05-24T09:36:02Z</time>
      </trkpt>
      <trkpt lat="43.42225" lon="2.43615">
        <ele>1067.363</ele>
        <time>2021-05-24T09:36:04Z</time>
      </trkpt>
      <trkpt lat="43.42224" lon="2.43618">
        <ele>1067.613</ele>
        <time>2021-05-24T09:36:06Z</time>
      </trkpt>
      <trkpt lat="43.42223" lon="2.43621">
        <ele>1067.515</ele>
        <time>2021-05-24T09:36:08Z</time>
      </trkpt>
      <trkpt lat="43.42221" lon="2.43624">
        <ele>1067.465</ele>
        <time>2021-05-24T09:36:10Z</time>
      </trkpt>
      <trkpt lat="43.4222" lon="2.43627">
        <ele>1067.594</ele>
        <time>2021-05-24T09:36:12Z</time>
      </trkpt>
      <trkpt lat="43.42219" lon="2.4363">
        <ele>1067.079</ele>
        <time>2021-05-24T09:36:14Z</time>
      </trkpt>
      <trkpt lat="43.42218" lon="2.43633">
        <ele>1067.289</ele>
        <time>2021-05-24T09:36:16Z</time>
      </trkpt>
      <trkpt lat="43.42217" lon="2.43637">
        <ele>1067.325</ele>
        <time>2021-05-24T09:36:18Z</time>
      </trkpt>
      <trkpt lat="43.42216" lon="2.4364">
        <ele>1067.418</ele>
        <time>2021-05-24T09:36:20Z</time>
      </trkpt>
      <trkpt lat="43.42215" lon="2.43643">
        <ele>1067.23</ele>
        <time>2021-05-24T09:36:22Z</time>
      </trkpt>
      <trkpt lat="43.42213" lon="2.43646">
        <ele>1067.423</ele>
        <time>2021-05-24T09:36:24Z</time>
      </trkpt>
      <trkpt lat="43.42211" lon="2.4365">
        <ele>1067.876</ele>
        <time>2021-05-24T09:36:26Z</time>
      </trkpt>
      <trkpt lat="43.4221" lon="2.43653">
        <ele>1067.845</ele>
        <time>2021-05-24T09:36:28Z</time>
      </trkpt>
      <trkpt lat="43.42209" lon="2.43657">
        <ele>1067.857</ele>
        <time>2021-05-24T09:36:30Z</time>
      </trkpt>
      <trkpt lat="43.42207" lon="2.4366">
        <ele>1068.228</ele>
        <time>2021-05-24T09:36:32Z</time>
      </trkpt>
      <trkpt lat="43.42205" lon="2.43664">
        <ele>1069.254</ele>
        <time>2021-05-24T09:36:34Z</time>
      </trkpt>
      <trkpt lat="43.42204" lon="2.43667">
        <ele>1068.976</ele>
        <time>2021-05-24T09:36:36Z</time>
      </trkpt>
      <trkpt lat="43.42203" lon="2.4367">
        <ele>1069.162</ele>
        <time>2021-05-24T09:36:38Z</time>
      </trkpt>
      <trkpt lat="43.42202" lon="2.43673">
        <ele>1069.277</ele>
        <time>2021-05-24T09:36:40Z</time>
      </trkpt>
      <trkpt lat="43.422" lon="2.43676">
        <ele>1069.487</ele>
        <time>2021-05-24T09:36:42Z</time>
      </trkpt>
      <trkpt lat="43.42199" lon="2.4368">
        <ele>1069.726</ele>
        <time>2021-05-24T09:36:44Z</time>
      </trkpt>
      <trkpt lat="43.42197" lon="2.43683">
        <ele>1069.434</ele>
        <time>2021-05-24T09:36:46Z</time>
      </trkpt>
      <trkpt lat="43.42196" lon="2.43687">
        <ele>1069.313</ele>
        <time>2021-05-24T09:36:48Z</time>
      </trkpt>
      <trkpt lat="43.42195" lon="2.4369">
        <ele>1069.716</ele>
        <time>2021-05-24T09:36:50Z</time>
      </trkpt>
      <trkpt lat="43.42194" lon="2.43694">
        <ele>1069.714</ele>
        <time>2021-05-24T09:36:52Z</time>
      </trkpt>
      <trkpt lat="43.42193" lon="2.43697">
        <ele>1070.217</ele>
        <time>2021-05-24T09:36:54Z</time>
      </trkpt>
      <trkpt lat="43.42192" lon="2.437">
        <ele>1070.567</ele>
        <time>2021-05-24T09:36:56Z</time>
      </trkpt>
      <trkpt lat="43.42191" lon="2.43704">
        <ele>1070.26</ele>
        <time>2021-05-24T09:36:58Z</time>
      </trkpt>
      <trkpt lat="43.42189" lon="2.43709">
        <ele>1070.555</ele>
        <time>2021-05-24T09:37:00Z</time>
      </trkpt>
      <trkpt lat="43.42188" lon="2.43713">
        <ele>1070.7</ele>
        <time>2021-05-24T09:37:02Z</time>
      </trkpt>
      <trkpt lat="43.42187" lon="2.43715">
        <ele>1070.754</ele>
        <time>2021-05-24T09:37:04Z</time>
      </trkpt>
      <trkpt lat="43.42186" lon="2.43718">
        <ele>1070.486</ele>
        <time>2021-05-24T09:37:06Z</time>
      </trkpt>
      <trkpt lat="43.42185" lon="2.43721">
        <ele>1070.574</ele>
        <time>2021-05-24T09:37:08Z</time>
      </trkpt>
      <trkpt lat="43.42184" lon="2.43724">
        <ele>1071.097</ele>
        <time>2021-05-24T09:37:10Z</time>
      </trkpt>
      <trkpt lat="43.42182" lon="2.43728">
        <ele>1071.687</ele>
        <time>2021-05-24T09:37:12Z</time>
      </trkpt>
      <trkpt lat="43.42181" lon="2.4373">
        <ele>1071.264</ele>
        <time>2021-05-24T09:37:14Z</time>
      </trkpt>
      <trkpt lat="43.4218" lon="2.43732">
        <ele>1071.194</ele>
        <time>2021-05-24T09:37:16Z</time>
      </trkpt>
      <trkpt lat="43.42179" lon="2.43735">
        <ele>1070.191</ele>
        <time>2021-05-24T09:37:18Z</time>
      </trkpt>
      <trkpt lat="43.42179" lon="2.43738">
        <ele>1070.142</ele>
        <time>2021-05-24T09:37:20Z</time>
      </trkpt>
      <trkpt lat="43.42179" lon="2.43738">
        <ele>1070.114</ele>
        <time>2021-05-24T09:37:22Z</time>
      </trkpt>
      <trkpt lat="43.42178" lon="2.43738">
        <ele>1069.524</ele>
        <time>2021-05-24T09:37:24Z</time>
      </trkpt>
      <trkpt lat="43.42178" lon="2.43738">
        <ele>1069.482</ele>
        <time>2021-05-24T09:37:26Z</time>
      </trkpt>
      <trkpt lat="43.42178" lon="2.43738">
        <ele>1069.483</ele>
        <time>2021-05-24T09:37:28Z</time>
      </trkpt>
      <trkpt lat="43.42178" lon="2.43738">
        <ele>1069.483</ele>
        <time>2021-05-24T09:37:30Z</time>
      </trkpt>
      <trkpt lat="43.42179" lon="2.43737">
        <ele>1068.523</ele>
        <time>2021-05-24T09:37:32Z</time>
      </trkpt>
      <trkpt lat="43.42179" lon="2.43736">
        <ele>1068.546</ele>
        <time>2021-05-24T09:37:34Z</time>
      </trkpt>
      <trkpt lat="43.42179" lon="2.43737">
        <ele>1068.221</ele>
        <time>2021-05-24T09:37:36Z</time>
      </trkpt>
      <trkpt lat="43.42178" lon="2.43739">
        <ele>1067.996</ele>
        <time>2021-05-24T09:37:38Z</time>
      </trkpt>
      <trkpt lat="43.42176" lon="2.4374">
        <ele>1068.128</ele>
        <time>2021-05-24T09:37:40Z</time>
      </trkpt>
      <trkpt lat="43.42176" lon="2.4374">
        <ele>1067.523</ele>
        <time>2021-05-24T09:37:42Z</time>
      </trkpt>
      <trkpt lat="43.42176" lon="2.43741">
        <ele>1067.632</ele>
        <time>2021-05-24T09:37:44Z</time>
      </trkpt>
      <trkpt lat="43.42175" lon="2.4374">
        <ele>1068.314</ele>
        <time>2021-05-24T09:37:47Z</time>
      </trkpt>
      <trkpt lat="43.42175" lon="2.4374">
        <ele>1068.315</ele>
        <time>2021-05-24T09:37:49Z</time>
      </trkpt>
      <trkpt lat="43.42175" lon="2.4374">
        <ele>1068.313</ele>
        <time>2021-05-24T09:37:51Z</time>
      </trkpt>
      <trkpt lat="43.42175" lon="2.4374">
        <ele>1068.309</ele>
        <time>2021-05-24T09:37:53Z</time>
      </trkpt>
      <trkpt lat="43.42175" lon="2.4374">
        <ele>1067.774</ele>
        <time>2021-05-24T09:37:55Z</time>
      </trkpt>
      <trkpt lat="43.42176" lon="2.43739">
        <ele>1067.772</ele>
        <time>2021-05-24T09:37:57Z</time>
      </trkpt>
      <trkpt lat="43.42176" lon="2.43739">
        <ele>1067.775</ele>
        <time>2021-05-24T09:37:59Z</time>
      </trkpt>
      <trkpt lat="43.42176" lon="2.43739">
        <ele>1067.777</ele>
        <time>2021-05-24T09:38:01Z</time>
      </trkpt>
      <trkpt lat="43.42176" lon="2.43739">
        <ele>1067.777</ele>
        <time>2021-05-24T09:38:03Z</time>
      </trkpt>
      <trkpt lat="43.42176" lon="2.43739">
        <ele>1067.775</ele>
        <time>2021-05-24T09:38:05Z</time>
      </trkpt>
      <trkpt lat="43.42176" lon="2.43739">
        <ele>1067.775</ele>
        <time>2021-05-24T09:38:07Z</time>
      </trkpt>
      <trkpt lat="43.42176" lon="2.43739">
        <ele>1067.772</ele>
        <time>2021-05-24T09:38:09Z</time>
      </trkpt>
      <trkpt lat="43.42175" lon="2.43739">
        <ele>1067.707</ele>
        <time>2021-05-24T09:38:11Z</time>
      </trkpt>
      <trkpt lat="43.42175" lon="2.4374">
        <ele>1067.376</ele>
        <time>2021-05-24T09:38:13Z</time>
      </trkpt>
      <trkpt lat="43.42173" lon="2.43741">
        <ele>1067.148</ele>
        <time>2021-05-24T09:38:15Z</time>
      </trkpt>
      <trkpt lat="43.42171" lon="2.43744">
        <ele>1066.955</ele>
        <time>2021-05-24T09:38:17Z</time>
      </trkpt>
      <trkpt lat="43.4217" lon="2.43746">
        <ele>1066.376</ele>
        <time>2021-05-24T09:38:19Z</time>
      </trkpt>
      <trkpt lat="43.42168" lon="2.43749">
        <ele>1065.995</ele>
        <time>2021-05-24T09:38:21Z</time>
      </trkpt>
      <trkpt lat="43.42167" lon="2.43751">
        <ele>1065.509</ele>
        <time>2021-05-24T09:38:23Z</time>
      </trkpt>
      <trkpt lat="43.42165" lon="2.43752">
        <ele>1064.706</ele>
        <time>2021-05-24T09:38:25Z</time>
      </trkpt>
      <trkpt lat="43.42163" lon="2.43753">
        <ele>1064.428</ele>
        <time>2021-05-24T09:38:27Z</time>
      </trkpt>
      <trkpt lat="43.42161" lon="2.43754">
        <ele>1064.144</ele>
        <time>2021-05-24T09:38:29Z</time>
      </trkpt>
      <trkpt lat="43.42158" lon="2.43754">
        <ele>1063.971</ele>
        <time>2021-05-24T09:38:31Z</time>
      </trkpt>
      <trkpt lat="43.42155" lon="2.43755">
        <ele>1063.815</ele>
        <time>2021-05-24T09:38:33Z</time>
      </trkpt>
      <trkpt lat="43.42153" lon="2.43754">
        <ele>1063.571</ele>
        <time>2021-05-24T09:38:35Z</time>
      </trkpt>
      <trkpt lat="43.42151" lon="2.43753">
        <ele>1062.812</ele>
        <time>2021-05-24T09:38:37Z</time>
      </trkpt>
      <trkpt lat="43.42149" lon="2.43752">
        <ele>1062.452</ele>
        <time>2021-05-24T09:38:39Z</time>
      </trkpt>
      <trkpt lat="43.42147" lon="2.4375">
        <ele>1061.832</ele>
        <time>2021-05-24T09:38:41Z</time>
      </trkpt>
      <trkpt lat="43.42144" lon="2.43749">
        <ele>1062.3</ele>
        <time>2021-05-24T09:38:43Z</time>
      </trkpt>
      <trkpt lat="43.42142" lon="2.43748">
        <ele>1062.406</ele>
        <time>2021-05-24T09:38:45Z</time>
      </trkpt>
      <trkpt lat="43.4214" lon="2.43746">
        <ele>1062.4</ele>
        <time>2021-05-24T09:38:47Z</time>
      </trkpt>
      <trkpt lat="43.42138" lon="2.43744">
        <ele>1061.168</ele>
        <time>2021-05-24T09:38:49Z</time>
      </trkpt>
      <trkpt lat="43.42136" lon="2.43742">
        <ele>1061.719</ele>
        <time>2021-05-24T09:38:51Z</time>
      </trkpt>
      <trkpt lat="43.42134" lon="2.43741">
        <ele>1061.639</ele>
        <time>2021-05-24T09:38:53Z</time>
      </trkpt>
      <trkpt lat="43.42132" lon="2.43739">
        <ele>1061.748</ele>
        <time>2021-05-24T09:38:55Z</time>
      </trkpt>
      <trkpt lat="43.4213" lon="2.43736">
        <ele>1061.557</ele>
        <time>2021-05-24T09:38:57Z</time>
      </trkpt>
      <trkpt lat="43.42128" lon="2.43735">
        <ele>1060.465</ele>
        <time>2021-05-24T09:38:59Z</time>
      </trkpt>
      <trkpt lat="43.42125" lon="2.43734">
        <ele>1059.848</ele>
        <time>2021-05-24T09:39:01Z</time>
      </trkpt>
      <trkpt lat="43.42123" lon="2.43734">
        <ele>1059.775</ele>
        <time>2021-05-24T09:39:03Z</time>
      </trkpt>
      <trkpt lat="43.4212" lon="2.43733">
        <ele>1059.347</ele>
        <time>2021-05-24T09:39:05Z</time>
      </trkpt>
      <trkpt lat="43.42118" lon="2.43732">
        <ele>1059.45</ele>
        <time>2021-05-24T09:39:07Z</time>
      </trkpt>
      <trkpt lat="43.42116" lon="2.43732">
        <ele>1059.146</ele>
        <time>2021-05-24T09:39:09Z</time>
      </trkpt>
      <trkpt lat="43.42113" lon="2.43732">
        <ele>1058.757</ele>
        <time>2021-05-24T09:39:11Z</time>
      </trkpt>
      <trkpt lat="43.42111" lon="2.43731">
        <ele>1058.96</ele>
        <time>2021-05-24T09:39:13Z</time>
      </trkpt>
      <trkpt lat="43.42108" lon="2.43731">
        <ele>1058.493</ele>
        <time>2021-05-24T09:39:15Z</time>
      </trkpt>
      <trkpt lat="43.42105" lon="2.43732">
        <ele>1058.327</ele>
        <time>2021-05-24T09:39:17Z</time>
      </trkpt>
      <trkpt lat="43.42102" lon="2.43733">
        <ele>1057.91</ele>
        <time>2021-05-24T09:39:19Z</time>
      </trkpt>
      <trkpt lat="43.42099" lon="2.43733">
        <ele>1057.657</ele>
        <time>2021-05-24T09:39:21Z</time>
      </trkpt>
      <trkpt lat="43.42097" lon="2.43734">
        <ele>1057.657</ele>
        <time>2021-05-24T09:39:23Z</time>
      </trkpt>
      <trkpt lat="43.42095" lon="2.43735">
        <ele>1057.34</ele>
        <time>2021-05-24T09:39:25Z</time>
      </trkpt>
      <trkpt lat="43.42092" lon="2.43735">
        <ele>1057.567</ele>
        <time>2021-05-24T09:39:27Z</time>
      </trkpt>
      <trkpt lat="43.4209" lon="2.43735">
        <ele>1057.209</ele>
        <time>2021-05-24T09:39:29Z</time>
      </trkpt>
      <trkpt lat="43.42087" lon="2.43736">
        <ele>1056.527</ele>
        <time>2021-05-24T09:39:31Z</time>
      </trkpt>
      <trkpt lat="43.42085" lon="2.43736">
        <ele>1056.595</ele>
        <time>2021-05-24T09:39:33Z</time>
      </trkpt>
      <trkpt lat="43.42083" lon="2.43737">
        <ele>1056.59</ele>
        <time>2021-05-24T09:39:35Z</time>
      </trkpt>
      <trkpt lat="43.4208" lon="2.43736">
        <ele>1055.595</ele>
        <time>2021-05-24T09:39:37Z</time>
      </trkpt>
      <trkpt lat="43.42077" lon="2.43736">
        <ele>1054.958</ele>
        <time>2021-05-24T09:39:39Z</time>
      </trkpt>
      <trkpt lat="43.42075" lon="2.43736">
        <ele>1054.389</ele>
        <time>2021-05-24T09:39:41Z</time>
      </trkpt>
      <trkpt lat="43.42072" lon="2.43736">
        <ele>1053.97</ele>
        <time>2021-05-24T09:39:43Z</time>
      </trkpt>
      <trkpt lat="43.4207" lon="2.43736">
        <ele>1054.368</ele>
        <time>2021-05-24T09:39:45Z</time>
      </trkpt>
      <trkpt lat="43.42068" lon="2.43736">
        <ele>1054.322</ele>
        <time>2021-05-24T09:39:47Z</time>
      </trkpt>
      <trkpt lat="43.42065" lon="2.43735">
        <ele>1053.905</ele>
        <time>2021-05-24T09:39:49Z</time>
      </trkpt>
      <trkpt lat="43.42062" lon="2.43735">
        <ele>1053.588</ele>
        <time>2021-05-24T09:39:51Z</time>
      </trkpt>
      <trkpt lat="43.42059" lon="2.43735">
        <ele>1052.609</ele>
        <time>2021-05-24T09:39:53Z</time>
      </trkpt>
      <trkpt lat="43.42057" lon="2.43735">
        <ele>1052.063</ele>
        <time>2021-05-24T09:39:55Z</time>
      </trkpt>
      <trkpt lat="43.42054" lon="2.43735">
        <ele>1051.225</ele>
        <time>2021-05-24T09:39:57Z</time>
      </trkpt>
      <trkpt lat="43.42051" lon="2.43735">
        <ele>1051.008</ele>
        <time>2021-05-24T09:39:59Z</time>
      </trkpt>
      <trkpt lat="43.42049" lon="2.43734">
        <ele>1050.431</ele>
        <time>2021-05-24T09:40:01Z</time>
      </trkpt>
      <trkpt lat="43.42046" lon="2.43734">
        <ele>1049.645</ele>
        <time>2021-05-24T09:40:03Z</time>
      </trkpt>
      <trkpt lat="43.42044" lon="2.43734">
        <ele>1049.058</ele>
        <time>2021-05-24T09:40:05Z</time>
      </trkpt>
      <trkpt lat="43.42041" lon="2.43733">
        <ele>1049.074</ele>
        <time>2021-05-24T09:40:07Z</time>
      </trkpt>
      <trkpt lat="43.42038" lon="2.43733">
        <ele>1048.148</ele>
        <time>2021-05-24T09:40:09Z</time>
      </trkpt>
      <trkpt lat="43.42036" lon="2.43732">
        <ele>1047.932</ele>
        <time>2021-05-24T09:40:11Z</time>
      </trkpt>
      <trkpt lat="43.42033" lon="2.43732">
        <ele>1047.467</ele>
        <time>2021-05-24T09:40:13Z</time>
      </trkpt>
      <trkpt lat="43.4203" lon="2.43731">
        <ele>1047.012</ele>
        <time>2021-05-24T09:40:15Z</time>
      </trkpt>
      <trkpt lat="43.42027" lon="2.43731">
        <ele>1046.946</ele>
        <time>2021-05-24T09:40:17Z</time>
      </trkpt>
      <trkpt lat="43.42025" lon="2.43731">
        <ele>1045.882</ele>
        <time>2021-05-24T09:40:19Z</time>
      </trkpt>
      <trkpt lat="43.42022" lon="2.43731">
        <ele>1045.629</ele>
        <time>2021-05-24T09:40:21Z</time>
      </trkpt>
      <trkpt lat="43.42019" lon="2.4373">
        <ele>1045.689</ele>
        <time>2021-05-24T09:40:23Z</time>
      </trkpt>
      <trkpt lat="43.42017" lon="2.43729">
        <ele>1045.588</ele>
        <time>2021-05-24T09:40:25Z</time>
      </trkpt>
      <trkpt lat="43.42014" lon="2.43728">
        <ele>1045.706</ele>
        <time>2021-05-24T09:40:27Z</time>
      </trkpt>
      <trkpt lat="43.42012" lon="2.43728">
        <ele>1045.221</ele>
        <time>2021-05-24T09:40:29Z</time>
      </trkpt>
      <trkpt lat="43.42009" lon="2.43727">
        <ele>1045.359</ele>
        <time>2021-05-24T09:40:31Z</time>
      </trkpt>
      <trkpt lat="43.42007" lon="2.43725">
        <ele>1044.649</ele>
        <time>2021-05-24T09:40:33Z</time>
      </trkpt>
      <trkpt lat="43.42004" lon="2.43725">
        <ele>1044.225</ele>
        <time>2021-05-24T09:40:35Z</time>
      </trkpt>
      <trkpt lat="43.42002" lon="2.43724">
        <ele>1043.989</ele>
        <time>2021-05-24T09:40:37Z</time>
      </trkpt>
      <trkpt lat="43.41999" lon="2.43722">
        <ele>1044.029</ele>
        <time>2021-05-24T09:40:39Z</time>
      </trkpt>
      <trkpt lat="43.41996" lon="2.43721">
        <ele>1045.046</ele>
        <time>2021-05-24T09:40:41Z</time>
      </trkpt>
      <trkpt lat="43.41994" lon="2.43719">
        <ele>1045.439</ele>
        <time>2021-05-24T09:40:43Z</time>
      </trkpt>
      <trkpt lat="43.41991" lon="2.43718">
        <ele>1045.379</ele>
        <time>2021-05-24T09:40:45Z</time>
      </trkpt>
      <trkpt lat="43.41989" lon="2.43717">
        <ele>1046.055</ele>
        <time>2021-05-24T09:40:47Z</time>
      </trkpt>
      <trkpt lat="43.41986" lon="2.43716">
        <ele>1046.501</ele>
        <time>2021-05-24T09:40:49Z</time>
      </trkpt>
      <trkpt lat="43.41983" lon="2.43715">
        <ele>1046.603</ele>
        <time>2021-05-24T09:40:51Z</time>
      </trkpt>
      <trkpt lat="43.41981" lon="2.43714">
        <ele>1046.164</ele>
        <time>2021-05-24T09:40:53Z</time>
      </trkpt>
      <trkpt lat="43.41979" lon="2.43713">
        <ele>1046.615</ele>
        <time>2021-05-24T09:40:55Z</time>
      </trkpt>
      <trkpt lat="43.41976" lon="2.43712">
        <ele>1046.472</ele>
        <time>2021-05-24T09:40:57Z</time>
      </trkpt>
      <trkpt lat="43.41974" lon="2.43711">
        <ele>1046.629</ele>
        <time>2021-05-24T09:40:59Z</time>
      </trkpt>
      <trkpt lat="43.41971" lon="2.4371">
        <ele>1046.829</ele>
        <time>2021-05-24T09:41:01Z</time>
      </trkpt>
      <trkpt lat="43.41969" lon="2.43707">
        <ele>1047.626</ele>
        <time>2021-05-24T09:41:03Z</time>
      </trkpt>
      <trkpt lat="43.41967" lon="2.43705">
        <ele>1048.205</ele>
        <time>2021-05-24T09:41:05Z</time>
      </trkpt>
      <trkpt lat="43.41965" lon="2.43703">
        <ele>1048.692</ele>
        <time>2021-05-24T09:41:07Z</time>
      </trkpt>
      <trkpt lat="43.41963" lon="2.437">
        <ele>1049.469</ele>
        <time>2021-05-24T09:41:09Z</time>
      </trkpt>
      <trkpt lat="43.41962" lon="2.43697">
        <ele>1049.548</ele>
        <time>2021-05-24T09:41:11Z</time>
      </trkpt>
      <trkpt lat="43.41961" lon="2.43694">
        <ele>1049.638</ele>
        <time>2021-05-24T09:41:13Z</time>
      </trkpt>
      <trkpt lat="43.41959" lon="2.43691">
        <ele>1051.234</ele>
        <time>2021-05-24T09:41:15Z</time>
      </trkpt>
      <trkpt lat="43.41959" lon="2.43687">
        <ele>1053.081</ele>
        <time>2021-05-24T09:41:17Z</time>
      </trkpt>
      <trkpt lat="43.41958" lon="2.43683">
        <ele>1055.212</ele>
        <time>2021-05-24T09:41:19Z</time>
      </trkpt>
      <trkpt lat="43.41957" lon="2.43677">
        <ele>1055.463</ele>
        <time>2021-05-24T09:41:21Z</time>
      </trkpt>
      <trkpt lat="43.41956" lon="2.43671">
        <ele>1055.825</ele>
        <time>2021-05-24T09:41:23Z</time>
      </trkpt>
      <trkpt lat="43.41955" lon="2.43666">
        <ele>1056.025</ele>
        <time>2021-05-24T09:41:25Z</time>
      </trkpt>
      <trkpt lat="43.41954" lon="2.4366">
        <ele>1056.161</ele>
        <time>2021-05-24T09:41:27Z</time>
      </trkpt>
      <trkpt lat="43.41952" lon="2.43656">
        <ele>1056.925</ele>
        <time>2021-05-24T09:41:29Z</time>
      </trkpt>
      <trkpt lat="43.41951" lon="2.4365">
        <ele>1057.057</ele>
        <time>2021-05-24T09:41:31Z</time>
      </trkpt>
      <trkpt lat="43.41949" lon="2.43646">
        <ele>1058.05</ele>
        <time>2021-05-24T09:41:33Z</time>
      </trkpt>
      <trkpt lat="43.41946" lon="2.43643">
        <ele>1058.909</ele>
        <time>2021-05-24T09:41:35Z</time>
      </trkpt>
      <trkpt lat="43.41945" lon="2.4364">
        <ele>1059.48</ele>
        <time>2021-05-24T09:41:37Z</time>
      </trkpt>
      <trkpt lat="43.41946" lon="2.43639">
        <ele>1059.27</ele>
        <time>2021-05-24T09:41:39Z</time>
      </trkpt>
      <trkpt lat="43.41946" lon="2.43639">
        <ele>1059.251</ele>
        <time>2021-05-24T09:41:41Z</time>
      </trkpt>
      <trkpt lat="43.41946" lon="2.4364">
        <ele>1059.071</ele>
        <time>2021-05-24T09:41:43Z</time>
      </trkpt>
      <trkpt lat="43.41946" lon="2.4364">
        <ele>1059.054</ele>
        <time>2021-05-24T09:41:46Z</time>
      </trkpt>
      <trkpt lat="43.41946" lon="2.4364">
        <ele>1059.366</ele>
        <time>2021-05-24T09:41:48Z</time>
      </trkpt>
      <trkpt lat="43.41944" lon="2.43638">
        <ele>1059.711</ele>
        <time>2021-05-24T09:41:50Z</time>
      </trkpt>
      <trkpt lat="43.41943" lon="2.43636">
        <ele>1060.268</ele>
        <time>2021-05-24T09:41:52Z</time>
      </trkpt>
      <trkpt lat="43.41941" lon="2.43634">
        <ele>1060.958</ele>
        <time>2021-05-24T09:41:54Z</time>
      </trkpt>
      <trkpt lat="43.41939" lon="2.43632">
        <ele>1061.309</ele>
        <time>2021-05-24T09:41:56Z</time>
      </trkpt>
      <trkpt lat="43.41938" lon="2.43629">
        <ele>1062.134</ele>
        <time>2021-05-24T09:41:58Z</time>
      </trkpt>
      <trkpt lat="43.41936" lon="2.43627">
        <ele>1062.469</ele>
        <time>2021-05-24T09:42:00Z</time>
      </trkpt>
      <trkpt lat="43.41934" lon="2.43624">
        <ele>1062.944</ele>
        <time>2021-05-24T09:42:02Z</time>
      </trkpt>
      <trkpt lat="43.41933" lon="2.43621">
        <ele>1064.013</ele>
        <time>2021-05-24T09:42:04Z</time>
      </trkpt>
      <trkpt lat="43.41931" lon="2.4362">
        <ele>1064.443</ele>
        <time>2021-05-24T09:42:06Z</time>
      </trkpt>
      <trkpt lat="43.4193" lon="2.43618">
        <ele>1064.875</ele>
        <time>2021-05-24T09:42:08Z</time>
      </trkpt>
      <trkpt lat="43.41929" lon="2.43616">
        <ele>1065.228</ele>
        <time>2021-05-24T09:42:10Z</time>
      </trkpt>
      <trkpt lat="43.41928" lon="2.43613">
        <ele>1066.009</ele>
        <time>2021-05-24T09:42:12Z</time>
      </trkpt>
      <trkpt lat="43.41926" lon="2.43612">
        <ele>1066.628</ele>
        <time>2021-05-24T09:42:14Z</time>
      </trkpt>
      <trkpt lat="43.41924" lon="2.4361">
        <ele>1066.292</ele>
        <time>2021-05-24T09:42:16Z</time>
      </trkpt>
      <trkpt lat="43.41922" lon="2.43608">
        <ele>1067.163</ele>
        <time>2021-05-24T09:42:18Z</time>
      </trkpt>
      <trkpt lat="43.41921" lon="2.43605">
        <ele>1067.006</ele>
        <time>2021-05-24T09:42:20Z</time>
      </trkpt>
      <trkpt lat="43.41919" lon="2.43606">
        <ele>1066.917</ele>
        <time>2021-05-24T09:42:22Z</time>
      </trkpt>
      <trkpt lat="43.41917" lon="2.43607">
        <ele>1066.683</ele>
        <time>2021-05-24T09:42:24Z</time>
      </trkpt>
      <trkpt lat="43.41915" lon="2.43607">
        <ele>1066.611</ele>
        <time>2021-05-24T09:42:26Z</time>
      </trkpt>
      <trkpt lat="43.41914" lon="2.43606">
        <ele>1065.913</ele>
        <time>2021-05-24T09:42:28Z</time>
      </trkpt>
      <trkpt lat="43.41912" lon="2.43606">
        <ele>1066.484</ele>
        <time>2021-05-24T09:42:30Z</time>
      </trkpt>
      <trkpt lat="43.4191" lon="2.43606">
        <ele>1066.392</ele>
        <time>2021-05-24T09:42:32Z</time>
      </trkpt>
      <trkpt lat="43.41907" lon="2.43605">
        <ele>1066.57</ele>
        <time>2021-05-24T09:42:34Z</time>
      </trkpt>
      <trkpt lat="43.41905" lon="2.43605">
        <ele>1066.792</ele>
        <time>2021-05-24T09:42:36Z</time>
      </trkpt>
      <trkpt lat="43.41903" lon="2.43605">
        <ele>1067.239</ele>
        <time>2021-05-24T09:42:38Z</time>
      </trkpt>
      <trkpt lat="43.419" lon="2.43604">
        <ele>1067.394</ele>
        <time>2021-05-24T09:42:40Z</time>
      </trkpt>
      <trkpt lat="43.41898" lon="2.43604">
        <ele>1068.199</ele>
        <time>2021-05-24T09:42:42Z</time>
      </trkpt>
      <trkpt lat="43.41896" lon="2.43604">
        <ele>1068.869</ele>
        <time>2021-05-24T09:42:44Z</time>
      </trkpt>
      <trkpt lat="43.41894" lon="2.43603">
        <ele>1068.943</ele>
        <time>2021-05-24T09:42:46Z</time>
      </trkpt>
      <trkpt lat="43.41892" lon="2.43602">
        <ele>1069.676</ele>
        <time>2021-05-24T09:42:48Z</time>
      </trkpt>
      <trkpt lat="43.4189" lon="2.436">
        <ele>1070.133</ele>
        <time>2021-05-24T09:42:50Z</time>
      </trkpt>
      <trkpt lat="43.41889" lon="2.43599">
        <ele>1071.056</ele>
        <time>2021-05-24T09:42:52Z</time>
      </trkpt>
      <trkpt lat="43.41887" lon="2.43597">
        <ele>1071.665</ele>
        <time>2021-05-24T09:42:54Z</time>
      </trkpt>
      <trkpt lat="43.41887" lon="2.43595">
        <ele>1071.804</ele>
        <time>2021-05-24T09:42:56Z</time>
      </trkpt>
      <trkpt lat="43.41888" lon="2.43596">
        <ele>1071.766</ele>
        <time>2021-05-24T09:42:58Z</time>
      </trkpt>
      <trkpt lat="43.41888" lon="2.43595">
        <ele>1071.583</ele>
        <time>2021-05-24T09:43:00Z</time>
      </trkpt>
      <trkpt lat="43.41888" lon="2.43595">
        <ele>1071.584</ele>
        <time>2021-05-24T09:43:02Z</time>
      </trkpt>
      <trkpt lat="43.41888" lon="2.43595">
        <ele>1071.582</ele>
        <time>2021-05-24T09:43:04Z</time>
      </trkpt>
      <trkpt lat="43.41887" lon="2.43595">
        <ele>1071.839</ele>
        <time>2021-05-24T09:43:06Z</time>
      </trkpt>
      <trkpt lat="43.41885" lon="2.43594">
        <ele>1072.198</ele>
        <time>2021-05-24T09:43:08Z</time>
      </trkpt>
      <trkpt lat="43.41884" lon="2.43592">
        <ele>1072.346</ele>
        <time>2021-05-24T09:43:10Z</time>
      </trkpt>
      <trkpt lat="43.41883" lon="2.4359">
        <ele>1072.852</ele>
        <time>2021-05-24T09:43:12Z</time>
      </trkpt>
      <trkpt lat="43.41883" lon="2.43587">
        <ele>1073.374</ele>
        <time>2021-05-24T09:43:14Z</time>
      </trkpt>
      <trkpt lat="43.41884" lon="2.43586">
        <ele>1073.662</ele>
        <time>2021-05-24T09:43:16Z</time>
      </trkpt>
      <trkpt lat="43.41886" lon="2.43584">
        <ele>1073.666</ele>
        <time>2021-05-24T09:43:18Z</time>
      </trkpt>
      <trkpt lat="43.41887" lon="2.43583">
        <ele>1073.704</ele>
        <time>2021-05-24T09:43:20Z</time>
      </trkpt>
      <trkpt lat="43.41889" lon="2.43583">
        <ele>1073.652</ele>
        <time>2021-05-24T09:43:22Z</time>
      </trkpt>
      <trkpt lat="43.41891" lon="2.43583">
        <ele>1073.969</ele>
        <time>2021-05-24T09:43:24Z</time>
      </trkpt>
      <trkpt lat="43.41893" lon="2.43583">
        <ele>1074.78</ele>
        <time>2021-05-24T09:43:26Z</time>
      </trkpt>
      <trkpt lat="43.41895" lon="2.43583">
        <ele>1075.219</ele>
        <time>2021-05-24T09:43:28Z</time>
      </trkpt>
      <trkpt lat="43.41897" lon="2.43583">
        <ele>1076.396</ele>
        <time>2021-05-24T09:43:30Z</time>
      </trkpt>
      <trkpt lat="43.41899" lon="2.43585">
        <ele>1077.796</ele>
        <time>2021-05-24T09:43:32Z</time>
      </trkpt>
      <trkpt lat="43.41898" lon="2.43585">
        <ele>1076.622</ele>
        <time>2021-05-24T09:43:34Z</time>
      </trkpt>
      <trkpt lat="43.41897" lon="2.43584">
        <ele>1076.252</ele>
        <time>2021-05-24T09:43:36Z</time>
      </trkpt>
      <trkpt lat="43.41897" lon="2.43584">
        <ele>1076.164</ele>
        <time>2021-05-24T09:43:38Z</time>
      </trkpt>
      <trkpt lat="43.41897" lon="2.43584">
        <ele>1076.179</ele>
        <time>2021-05-24T09:43:40Z</time>
      </trkpt>
      <trkpt lat="43.41896" lon="2.43583">
        <ele>1075.716</ele>
        <time>2021-05-24T09:43:42Z</time>
      </trkpt>
      <trkpt lat="43.41896" lon="2.43583">
        <ele>1075.694</ele>
        <time>2021-05-24T09:43:44Z</time>
      </trkpt>
      <trkpt lat="43.41896" lon="2.43583">
        <ele>1075.952</ele>
        <time>2021-05-24T09:43:46Z</time>
      </trkpt>
      <trkpt lat="43.41896" lon="2.43583">
        <ele>1075.962</ele>
        <time>2021-05-24T09:43:48Z</time>
      </trkpt>
      <trkpt lat="43.41896" lon="2.43583">
        <ele>1075.631</ele>
        <time>2021-05-24T09:43:50Z</time>
      </trkpt>
      <trkpt lat="43.41896" lon="2.43583">
        <ele>1075.549</ele>
        <time>2021-05-24T09:43:52Z</time>
      </trkpt>
      <trkpt lat="43.41896" lon="2.43583">
        <ele>1075.55</ele>
        <time>2021-05-24T09:43:54Z</time>
      </trkpt>
      <trkpt lat="43.41896" lon="2.43583">
        <ele>1075.551</ele>
        <time>2021-05-24T09:43:56Z</time>
      </trkpt>
      <trkpt lat="43.41896" lon="2.43583">
        <ele>1075.551</ele>
        <time>2021-05-24T09:43:58Z</time>
      </trkpt>
      <trkpt lat="43.41896" lon="2.43583">
        <ele>1075.552</ele>
        <time>2021-05-24T09:44:00Z</time>
      </trkpt>
      <trkpt lat="43.41896" lon="2.43583">
        <ele>1075.557</ele>
        <time>2021-05-24T09:44:02Z</time>
      </trkpt>
      <trkpt lat="43.41896" lon="2.43583">
        <ele>1075.557</ele>
        <time>2021-05-24T09:44:04Z</time>
      </trkpt>
      <trkpt lat="43.41896" lon="2.43583">
        <ele>1075.559</ele>
        <time>2021-05-24T09:44:06Z</time>
      </trkpt>
      <trkpt lat="43.41896" lon="2.43583">
        <ele>1075.561</ele>
        <time>2021-05-24T09:44:08Z</time>
      </trkpt>
      <trkpt lat="43.41896" lon="2.43583">
        <ele>1075.563</ele>
        <time>2021-05-24T09:44:10Z</time>
      </trkpt>
      <trkpt lat="43.41896" lon="2.43583">
        <ele>1075.564</ele>
        <time>2021-05-24T09:44:12Z</time>
      </trkpt>
      <trkpt lat="43.41896" lon="2.43583">
        <ele>1075.564</ele>
        <time>2021-05-24T09:44:14Z</time>
      </trkpt>
      <trkpt lat="43.41896" lon="2.43583">
        <ele>1075.565</ele>
        <time>2021-05-24T09:44:16Z</time>
      </trkpt>
      <trkpt lat="43.41896" lon="2.43583">
        <ele>1075.569</ele>
        <time>2021-05-24T09:44:18Z</time>
      </trkpt>
      <trkpt lat="43.41896" lon="2.43583">
        <ele>1075.57</ele>
        <time>2021-05-24T09:44:20Z</time>
      </trkpt>
      <trkpt lat="43.41896" lon="2.43583">
        <ele>1075.572</ele>
        <time>2021-05-24T09:44:22Z</time>
      </trkpt>
      <trkpt lat="43.41896" lon="2.43583">
        <ele>1075.572</ele>
        <time>2021-05-24T09:44:24Z</time>
      </trkpt>
      <trkpt lat="43.41896" lon="2.43583">
        <ele>1075.571</ele>
        <time>2021-05-24T09:44:26Z</time>
      </trkpt>
      <trkpt lat="43.41896" lon="2.43583">
        <ele>1075.57</ele>
        <time>2021-05-24T09:44:28Z</time>
      </trkpt>
      <trkpt lat="43.41896" lon="2.43583">
        <ele>1075.571</ele>
        <time>2021-05-24T09:44:30Z</time>
      </trkpt>
      <trkpt lat="43.41896" lon="2.43583">
        <ele>1075.573</ele>
        <time>2021-05-24T09:44:32Z</time>
      </trkpt>
      <trkpt lat="43.41896" lon="2.43583">
        <ele>1075.574</ele>
        <time>2021-05-24T09:44:34Z</time>
      </trkpt>
      <trkpt lat="43.41896" lon="2.43583">
        <ele>1075.576</ele>
        <time>2021-05-24T09:44:36Z</time>
      </trkpt>
      <trkpt lat="43.41896" lon="2.43583">
        <ele>1075.578</ele>
        <time>2021-05-24T09:44:38Z</time>
      </trkpt>
      <trkpt lat="43.41896" lon="2.43583">
        <ele>1075.818</ele>
        <time>2021-05-24T09:44:40Z</time>
      </trkpt>
      <trkpt lat="43.41896" lon="2.43583">
        <ele>1075.884</ele>
        <time>2021-05-24T09:44:42Z</time>
      </trkpt>
      <trkpt lat="43.41896" lon="2.43583">
        <ele>1075.883</ele>
        <time>2021-05-24T09:44:44Z</time>
      </trkpt>
      <trkpt lat="43.41896" lon="2.43583">
        <ele>1075.885</ele>
        <time>2021-05-24T09:44:46Z</time>
      </trkpt>
      <trkpt lat="43.41896" lon="2.43583">
        <ele>1075.887</ele>
        <time>2021-05-24T09:44:48Z</time>
      </trkpt>
      <trkpt lat="43.41896" lon="2.43583">
        <ele>1075.892</ele>
        <time>2021-05-24T09:44:50Z</time>
      </trkpt>
      <trkpt lat="43.41896" lon="2.43583">
        <ele>1075.894</ele>
        <time>2021-05-24T09:44:52Z</time>
      </trkpt>
      <trkpt lat="43.41896" lon="2.43583">
        <ele>1075.899</ele>
        <time>2021-05-24T09:44:54Z</time>
      </trkpt>
      <trkpt lat="43.41896" lon="2.43583">
        <ele>1075.903</ele>
        <time>2021-05-24T09:44:56Z</time>
      </trkpt>
      <trkpt lat="43.41896" lon="2.43583">
        <ele>1075.907</ele>
        <time>2021-05-24T09:44:58Z</time>
      </trkpt>
      <trkpt lat="43.41896" lon="2.43583">
        <ele>1075.909</ele>
        <time>2021-05-24T09:45:00Z</time>
      </trkpt>
      <trkpt lat="43.41896" lon="2.43583">
        <ele>1075.914</ele>
        <time>2021-05-24T09:45:02Z</time>
      </trkpt>
      <trkpt lat="43.41896" lon="2.43583">
        <ele>1075.915</ele>
        <time>2021-05-24T09:45:04Z</time>
      </trkpt>
      <trkpt lat="43.41895" lon="2.43583">
        <ele>1075.859</ele>
        <time>2021-05-24T09:45:06Z</time>
      </trkpt>
      <trkpt lat="43.41895" lon="2.43583">
        <ele>1075.891</ele>
        <time>2021-05-24T09:45:08Z</time>
      </trkpt>
      <trkpt lat="43.41895" lon="2.43583">
        <ele>1076.008</ele>
        <time>2021-05-24T09:45:10Z</time>
      </trkpt>
      <trkpt lat="43.41895" lon="2.43583">
        <ele>1076.008</ele>
        <time>2021-05-24T09:45:12Z</time>
      </trkpt>
      <trkpt lat="43.41895" lon="2.43583">
        <ele>1076.009</ele>
        <time>2021-05-24T09:45:14Z</time>
      </trkpt>
      <trkpt lat="43.41895" lon="2.43583">
        <ele>1076.009</ele>
        <time>2021-05-24T09:45:16Z</time>
      </trkpt>
      <trkpt lat="43.41895" lon="2.43583">
        <ele>1076.011</ele>
        <time>2021-05-24T09:45:18Z</time>
      </trkpt>
      <trkpt lat="43.41895" lon="2.43583">
        <ele>1076.014</ele>
        <time>2021-05-24T09:45:20Z</time>
      </trkpt>
      <trkpt lat="43.41895" lon="2.43583">
        <ele>1076.015</ele>
        <time>2021-05-24T09:45:22Z</time>
      </trkpt>
      <trkpt lat="43.41895" lon="2.43583">
        <ele>1076.022</ele>
        <time>2021-05-24T09:45:24Z</time>
      </trkpt>
      <trkpt lat="43.41895" lon="2.43583">
        <ele>1076.021</ele>
        <time>2021-05-24T09:45:26Z</time>
      </trkpt>
      <trkpt lat="43.41895" lon="2.43583">
        <ele>1076.02</ele>
        <time>2021-05-24T09:45:28Z</time>
      </trkpt>
      <trkpt lat="43.41895" lon="2.43583">
        <ele>1076.446</ele>
        <time>2021-05-24T09:45:30Z</time>
      </trkpt>
      <trkpt lat="43.41895" lon="2.43582">
        <ele>1077.162</ele>
        <time>2021-05-24T09:45:32Z</time>
      </trkpt>
      <trkpt lat="43.41895" lon="2.43582">
        <ele>1077.333</ele>
        <time>2021-05-24T09:45:34Z</time>
      </trkpt>
      <trkpt lat="43.41896" lon="2.43582">
        <ele>1077.105</ele>
        <time>2021-05-24T09:45:36Z</time>
      </trkpt>
      <trkpt lat="43.41896" lon="2.43582">
        <ele>1077.094</ele>
        <time>2021-05-24T09:45:38Z</time>
      </trkpt>
      <trkpt lat="43.41896" lon="2.43583">
        <ele>1077.496</ele>
        <time>2021-05-24T09:45:40Z</time>
      </trkpt>
      <trkpt lat="43.41896" lon="2.43583">
        <ele>1077.491</ele>
        <time>2021-05-24T09:45:42Z</time>
      </trkpt>
      <trkpt lat="43.41896" lon="2.43582">
        <ele>1077.222</ele>
        <time>2021-05-24T09:45:44Z</time>
      </trkpt>
      <trkpt lat="43.41896" lon="2.4358">
        <ele>1076.98</ele>
        <time>2021-05-24T09:45:46Z</time>
      </trkpt>
      <trkpt lat="43.41895" lon="2.43579">
        <ele>1076.684</ele>
        <time>2021-05-24T09:45:48Z</time>
      </trkpt>
      <trkpt lat="43.41895" lon="2.43576">
        <ele>1076.529</ele>
        <time>2021-05-24T09:45:50Z</time>
      </trkpt>
      <trkpt lat="43.41895" lon="2.43575">
        <ele>1076.652</ele>
        <time>2021-05-24T09:45:52Z</time>
      </trkpt>
      <trkpt lat="43.41895" lon="2.43575">
        <ele>1076.655</ele>
        <time>2021-05-24T09:45:54Z</time>
      </trkpt>
      <trkpt lat="43.41895" lon="2.43575">
        <ele>1076.655</ele>
        <time>2021-05-24T09:45:56Z</time>
      </trkpt>
      <trkpt lat="43.41895" lon="2.43575">
        <ele>1076.657</ele>
        <time>2021-05-24T09:45:58Z</time>
      </trkpt>
      <trkpt lat="43.41895" lon="2.43574">
        <ele>1076.784</ele>
        <time>2021-05-24T09:46:00Z</time>
      </trkpt>
      <trkpt lat="43.41895" lon="2.43572">
        <ele>1076.841</ele>
        <time>2021-05-24T09:46:02Z</time>
      </trkpt>
      <trkpt lat="43.41896" lon="2.4357">
        <ele>1076.948</ele>
        <time>2021-05-24T09:46:04Z</time>
      </trkpt>
      <trkpt lat="43.41897" lon="2.43568">
        <ele>1077.119</ele>
        <time>2021-05-24T09:46:06Z</time>
      </trkpt>
      <trkpt lat="43.41897" lon="2.43565">
        <ele>1076.52</ele>
        <time>2021-05-24T09:46:08Z</time>
      </trkpt>
      <trkpt lat="43.41897" lon="2.43562">
        <ele>1076.622</ele>
        <time>2021-05-24T09:46:10Z</time>
      </trkpt>
      <trkpt lat="43.41898" lon="2.43558">
        <ele>1076.653</ele>
        <time>2021-05-24T09:46:12Z</time>
      </trkpt>
      <trkpt lat="43.41898" lon="2.43555">
        <ele>1076.486</ele>
        <time>2021-05-24T09:46:14Z</time>
      </trkpt>
      <trkpt lat="43.41898" lon="2.43552">
        <ele>1076.724</ele>
        <time>2021-05-24T09:46:16Z</time>
      </trkpt>
      <trkpt lat="43.41898" lon="2.4355">
        <ele>1076.817</ele>
        <time>2021-05-24T09:46:18Z</time>
      </trkpt>
      <trkpt lat="43.41898" lon="2.43547">
        <ele>1077.233</ele>
        <time>2021-05-24T09:46:20Z</time>
      </trkpt>
      <trkpt lat="43.41897" lon="2.43544">
        <ele>1077.296</ele>
        <time>2021-05-24T09:46:22Z</time>
      </trkpt>
      <trkpt lat="43.41896" lon="2.43542">
        <ele>1076.594</ele>
        <time>2021-05-24T09:46:24Z</time>
      </trkpt>
      <trkpt lat="43.41895" lon="2.4354">
        <ele>1076.374</ele>
        <time>2021-05-24T09:46:26Z</time>
      </trkpt>
      <trkpt lat="43.41894" lon="2.43537">
        <ele>1076.395</ele>
        <time>2021-05-24T09:46:28Z</time>
      </trkpt>
      <trkpt lat="43.41894" lon="2.43535">
        <ele>1075.816</ele>
        <time>2021-05-24T09:46:30Z</time>
      </trkpt>
      <trkpt lat="43.41895" lon="2.43535">
        <ele>1076.226</ele>
        <time>2021-05-24T09:46:32Z</time>
      </trkpt>
      <trkpt lat="43.41895" lon="2.43535">
        <ele>1076.24</ele>
        <time>2021-05-24T09:46:34Z</time>
      </trkpt>
      <trkpt lat="43.41895" lon="2.43535">
        <ele>1076.242</ele>
        <time>2021-05-24T09:46:36Z</time>
      </trkpt>
      <trkpt lat="43.41894" lon="2.43535">
        <ele>1076.407</ele>
        <time>2021-05-24T09:46:38Z</time>
      </trkpt>
      <trkpt lat="43.41894" lon="2.43535">
        <ele>1076.361</ele>
        <time>2021-05-24T09:46:40Z</time>
      </trkpt>
      <trkpt lat="43.41895" lon="2.43535">
        <ele>1076.368</ele>
        <time>2021-05-24T09:46:42Z</time>
      </trkpt>
      <trkpt lat="43.41894" lon="2.43535">
        <ele>1076.347</ele>
        <time>2021-05-24T09:46:44Z</time>
      </trkpt>
      <trkpt lat="43.41894" lon="2.43535">
        <ele>1076.339</ele>
        <time>2021-05-24T09:46:46Z</time>
      </trkpt>
      <trkpt lat="43.41894" lon="2.43535">
        <ele>1076.237</ele>
        <time>2021-05-24T09:46:48Z</time>
      </trkpt>
      <trkpt lat="43.41894" lon="2.43535">
        <ele>1076.219</ele>
        <time>2021-05-24T09:46:50Z</time>
      </trkpt>
      <trkpt lat="43.41894" lon="2.43533">
        <ele>1076.66</ele>
        <time>2021-05-24T09:46:52Z</time>
      </trkpt>
      <trkpt lat="43.41894" lon="2.43531">
        <ele>1076.899</ele>
        <time>2021-05-24T09:46:54Z</time>
      </trkpt>
      <trkpt lat="43.41895" lon="2.43531">
        <ele>1076.806</ele>
        <time>2021-05-24T09:46:56Z</time>
      </trkpt>
      <trkpt lat="43.41895" lon="2.43529">
        <ele>1077.162</ele>
        <time>2021-05-24T09:46:58Z</time>
      </trkpt>
      <trkpt lat="43.41895" lon="2.43528">
        <ele>1076.796</ele>
        <time>2021-05-24T09:47:00Z</time>
      </trkpt>
      <trkpt lat="43.41895" lon="2.43527">
        <ele>1076.544</ele>
        <time>2021-05-24T09:47:02Z</time>
      </trkpt>
      <trkpt lat="43.41894" lon="2.43526">
        <ele>1076.066</ele>
        <time>2021-05-24T09:47:04Z</time>
      </trkpt>
      <trkpt lat="43.41893" lon="2.43525">
        <ele>1076.132</ele>
        <time>2021-05-24T09:47:06Z</time>
      </trkpt>
      <trkpt lat="43.41892" lon="2.43525">
        <ele>1076.119</ele>
        <time>2021-05-24T09:47:08Z</time>
      </trkpt>
      <trkpt lat="43.41891" lon="2.43524">
        <ele>1075.869</ele>
        <time>2021-05-24T09:47:10Z</time>
      </trkpt>
      <trkpt lat="43.4189" lon="2.43525">
        <ele>1076.33</ele>
        <time>2021-05-24T09:47:12Z</time>
      </trkpt>
      <trkpt lat="43.4189" lon="2.43525">
        <ele>1076.218</ele>
        <time>2021-05-24T09:47:14Z</time>
      </trkpt>
      <trkpt lat="43.41888" lon="2.43524">
        <ele>1076.193</ele>
        <time>2021-05-24T09:47:16Z</time>
      </trkpt>
      <trkpt lat="43.41887" lon="2.43525">
        <ele>1075.73</ele>
        <time>2021-05-24T09:47:18Z</time>
      </trkpt>
      <trkpt lat="43.41885" lon="2.43524">
        <ele>1076.033</ele>
        <time>2021-05-24T09:47:20Z</time>
      </trkpt>
      <trkpt lat="43.41885" lon="2.43523">
        <ele>1076.124</ele>
        <time>2021-05-24T09:47:22Z</time>
      </trkpt>
      <trkpt lat="43.41887" lon="2.43522">
        <ele>1075.842</ele>
        <time>2021-05-24T09:47:24Z</time>
      </trkpt>
      <trkpt lat="43.41887" lon="2.43522">
        <ele>1074.882</ele>
        <time>2021-05-24T09:47:26Z</time>
      </trkpt>
      <trkpt lat="43.41887" lon="2.43523">
        <ele>1074.882</ele>
        <time>2021-05-24T09:47:28Z</time>
      </trkpt>
      <trkpt lat="43.41887" lon="2.43522">
        <ele>1074.907</ele>
        <time>2021-05-24T09:47:30Z</time>
      </trkpt>
      <trkpt lat="43.41886" lon="2.43523">
        <ele>1074.79</ele>
        <time>2021-05-24T09:47:33Z</time>
      </trkpt>
      <trkpt lat="43.41886" lon="2.43523">
        <ele>1074.79</ele>
        <time>2021-05-24T09:47:35Z</time>
      </trkpt>
      <trkpt lat="43.41886" lon="2.43523">
        <ele>1074.788</ele>
        <time>2021-05-24T09:47:37Z</time>
      </trkpt>
      <trkpt lat="43.41886" lon="2.43523">
        <ele>1074.791</ele>
        <time>2021-05-24T09:47:39Z</time>
      </trkpt>
      <trkpt lat="43.41886" lon="2.43523">
        <ele>1074.792</ele>
        <time>2021-05-24T09:47:41Z</time>
      </trkpt>
      <trkpt lat="43.41886" lon="2.43523">
        <ele>1074.791</ele>
        <time>2021-05-24T09:47:43Z</time>
      </trkpt>
      <trkpt lat="43.41886" lon="2.43524">
        <ele>1074.732</ele>
        <time>2021-05-24T09:47:45Z</time>
      </trkpt>
      <trkpt lat="43.41887" lon="2.43524">
        <ele>1074.676</ele>
        <time>2021-05-24T09:47:47Z</time>
      </trkpt>
      <trkpt lat="43.41887" lon="2.43524">
        <ele>1074.68</ele>
        <time>2021-05-24T09:47:49Z</time>
      </trkpt>
      <trkpt lat="43.41887" lon="2.43524">
        <ele>1074.367</ele>
        <time>2021-05-24T09:47:51Z</time>
      </trkpt>
      <trkpt lat="43.41887" lon="2.43525">
        <ele>1074.48</ele>
        <time>2021-05-24T09:47:53Z</time>
      </trkpt>
      <trkpt lat="43.41887" lon="2.43525">
        <ele>1074.486</ele>
        <time>2021-05-24T09:47:55Z</time>
      </trkpt>
      <trkpt lat="43.41887" lon="2.43524">
        <ele>1074.632</ele>
        <time>2021-05-24T09:47:57Z</time>
      </trkpt>
      <trkpt lat="43.41887" lon="2.43524">
        <ele>1074.636</ele>
        <time>2021-05-24T09:47:59Z</time>
      </trkpt>
      <trkpt lat="43.41887" lon="2.43525">
        <ele>1074.529</ele>
        <time>2021-05-24T09:48:01Z</time>
      </trkpt>
      <trkpt lat="43.41887" lon="2.43526">
        <ele>1075.111</ele>
        <time>2021-05-24T09:48:03Z</time>
      </trkpt>
      <trkpt lat="43.41887" lon="2.43526">
        <ele>1075.287</ele>
        <time>2021-05-24T09:48:05Z</time>
      </trkpt>
      <trkpt lat="43.41887" lon="2.43527">
        <ele>1075.432</ele>
        <time>2021-05-24T09:48:07Z</time>
      </trkpt>
      <trkpt lat="43.41887" lon="2.43526">
        <ele>1075.432</ele>
        <time>2021-05-24T09:48:09Z</time>
      </trkpt>
      <trkpt lat="43.41887" lon="2.43526">
        <ele>1075.436</ele>
        <time>2021-05-24T09:48:11Z</time>
      </trkpt>
      <trkpt lat="43.41887" lon="2.43527">
        <ele>1075.413</ele>
        <time>2021-05-24T09:48:13Z</time>
      </trkpt>
      <trkpt lat="43.41888" lon="2.43527">
        <ele>1075.398</ele>
        <time>2021-05-24T09:48:15Z</time>
      </trkpt>
      <trkpt lat="43.41888" lon="2.43528">
        <ele>1075.424</ele>
        <time>2021-05-24T09:48:17Z</time>
      </trkpt>
      <trkpt lat="43.41888" lon="2.43529">
        <ele>1075.555</ele>
        <time>2021-05-24T09:48:19Z</time>
      </trkpt>
      <trkpt lat="43.41889" lon="2.4353">
        <ele>1075.481</ele>
        <time>2021-05-24T09:48:21Z</time>
      </trkpt>
      <trkpt lat="43.4189" lon="2.43532">
        <ele>1075.63</ele>
        <time>2021-05-24T09:48:23Z</time>
      </trkpt>
      <trkpt lat="43.41891" lon="2.43533">
        <ele>1075.631</ele>
        <time>2021-05-24T09:48:25Z</time>
      </trkpt>
      <trkpt lat="43.41892" lon="2.43534">
        <ele>1075.616</ele>
        <time>2021-05-24T09:48:27Z</time>
      </trkpt>
      <trkpt lat="43.41893" lon="2.43534">
        <ele>1075.533</ele>
        <time>2021-05-24T09:48:29Z</time>
      </trkpt>
      <trkpt lat="43.41894" lon="2.43535">
        <ele>1075.703</ele>
        <time>2021-05-24T09:48:31Z</time>
      </trkpt>
      <trkpt lat="43.41895" lon="2.43535">
        <ele>1075.764</ele>
        <time>2021-05-24T09:48:33Z</time>
      </trkpt>
      <trkpt lat="43.41896" lon="2.43536">
        <ele>1075.341</ele>
        <time>2021-05-24T09:48:35Z</time>
      </trkpt>
      <trkpt lat="43.41896" lon="2.43536">
        <ele>1075.332</ele>
        <time>2021-05-24T09:48:37Z</time>
      </trkpt>
      <trkpt lat="43.41896" lon="2.43536">
        <ele>1075.333</ele>
        <time>2021-05-24T09:48:39Z</time>
      </trkpt>
      <trkpt lat="43.41896" lon="2.43536">
        <ele>1075.332</ele>
        <time>2021-05-24T09:48:41Z</time>
      </trkpt>
      <trkpt lat="43.41896" lon="2.43536">
        <ele>1075.33</ele>
        <time>2021-05-24T09:48:43Z</time>
      </trkpt>
      <trkpt lat="43.41896" lon="2.43536">
        <ele>1075.304</ele>
        <time>2021-05-24T09:48:45Z</time>
      </trkpt>
      <trkpt lat="43.41895" lon="2.43537">
        <ele>1075.983</ele>
        <time>2021-05-24T09:48:47Z</time>
      </trkpt>
      <trkpt lat="43.41894" lon="2.43537">
        <ele>1076.058</ele>
        <time>2021-05-24T09:48:49Z</time>
      </trkpt>
      <trkpt lat="43.41894" lon="2.43537">
        <ele>1076.058</ele>
        <time>2021-05-24T09:48:51Z</time>
      </trkpt>
      <trkpt lat="43.41894" lon="2.43537">
        <ele>1076.066</ele>
        <time>2021-05-24T09:48:53Z</time>
      </trkpt>
      <trkpt lat="43.41894" lon="2.43537">
        <ele>1076.073</ele>
        <time>2021-05-24T09:48:55Z</time>
      </trkpt>
      <trkpt lat="43.41894" lon="2.43537">
        <ele>1076.075</ele>
        <time>2021-05-24T09:48:57Z</time>
      </trkpt>
      <trkpt lat="43.41894" lon="2.43537">
        <ele>1075.426</ele>
        <time>2021-05-24T09:48:59Z</time>
      </trkpt>
      <trkpt lat="43.41894" lon="2.43536">
        <ele>1074.179</ele>
        <time>2021-05-24T09:49:01Z</time>
      </trkpt>
      <trkpt lat="43.41895" lon="2.43536">
        <ele>1074.093</ele>
        <time>2021-05-24T09:49:03Z</time>
      </trkpt>
      <trkpt lat="43.41895" lon="2.43536">
        <ele>1074.088</ele>
        <time>2021-05-24T09:49:05Z</time>
      </trkpt>
      <trkpt lat="43.41895" lon="2.43536">
        <ele>1074.262</ele>
        <time>2021-05-24T09:49:07Z</time>
      </trkpt>
      <trkpt lat="43.41894" lon="2.43536">
        <ele>1074.26</ele>
        <time>2021-05-24T09:49:09Z</time>
      </trkpt>
      <trkpt lat="43.41894" lon="2.43536">
        <ele>1074.264</ele>
        <time>2021-05-24T09:49:11Z</time>
      </trkpt>
      <trkpt lat="43.41895" lon="2.43536">
        <ele>1074.239</ele>
        <time>2021-05-24T09:49:13Z</time>
      </trkpt>
      <trkpt lat="43.41895" lon="2.43536">
        <ele>1074.026</ele>
        <time>2021-05-24T09:49:15Z</time>
      </trkpt>
      <trkpt lat="43.41895" lon="2.43536">
        <ele>1074.023</ele>
        <time>2021-05-24T09:49:17Z</time>
      </trkpt>
      <trkpt lat="43.41895" lon="2.43536">
        <ele>1074.023</ele>
        <time>2021-05-24T09:49:19Z</time>
      </trkpt>
      <trkpt lat="43.41895" lon="2.43536">
        <ele>1074.022</ele>
        <time>2021-05-24T09:49:21Z</time>
      </trkpt>
      <trkpt lat="43.41895" lon="2.43536">
        <ele>1074.022</ele>
        <time>2021-05-24T09:49:23Z</time>
      </trkpt>
      <trkpt lat="43.41895" lon="2.43536">
        <ele>1074.02</ele>
        <time>2021-05-24T09:49:25Z</time>
      </trkpt>
      <trkpt lat="43.41895" lon="2.43536">
        <ele>1074.017</ele>
        <time>2021-05-24T09:49:27Z</time>
      </trkpt>
      <trkpt lat="43.41895" lon="2.43536">
        <ele>1074.02</ele>
        <time>2021-05-24T09:49:29Z</time>
      </trkpt>
      <trkpt lat="43.41895" lon="2.43536">
        <ele>1074.022</ele>
        <time>2021-05-24T09:49:31Z</time>
      </trkpt>
      <trkpt lat="43.41895" lon="2.43536">
        <ele>1074.023</ele>
        <time>2021-05-24T09:49:33Z</time>
      </trkpt>
      <trkpt lat="43.41895" lon="2.43536">
        <ele>1074.024</ele>
        <time>2021-05-24T09:49:35Z</time>
      </trkpt>
      <trkpt lat="43.41895" lon="2.43536">
        <ele>1074.029</ele>
        <time>2021-05-24T09:49:37Z</time>
      </trkpt>
      <trkpt lat="43.41895" lon="2.43536">
        <ele>1074.032</ele>
        <time>2021-05-24T09:49:39Z</time>
      </trkpt>
      <trkpt lat="43.41895" lon="2.43536">
        <ele>1074.038</ele>
        <time>2021-05-24T09:49:41Z</time>
      </trkpt>
      <trkpt lat="43.41895" lon="2.43536">
        <ele>1074.613</ele>
        <time>2021-05-24T09:49:43Z</time>
      </trkpt>
      <trkpt lat="43.41895" lon="2.43536">
        <ele>1074.982</ele>
        <time>2021-05-24T09:49:45Z</time>
      </trkpt>
      <trkpt lat="43.41895" lon="2.43536">
        <ele>1074.985</ele>
        <time>2021-05-24T09:49:47Z</time>
      </trkpt>
      <trkpt lat="43.41895" lon="2.43536">
        <ele>1075.342</ele>
        <time>2021-05-24T09:49:49Z</time>
      </trkpt>
      <trkpt lat="43.41895" lon="2.43534">
        <ele>1075.222</ele>
        <time>2021-05-24T09:49:51Z</time>
      </trkpt>
      <trkpt lat="43.41894" lon="2.43533">
        <ele>1074.369</ele>
        <time>2021-05-24T09:49:53Z</time>
      </trkpt>
      <trkpt lat="43.41893" lon="2.43535">
        <ele>1074.523</ele>
        <time>2021-05-24T09:49:55Z</time>
      </trkpt>
      <trkpt lat="43.41893" lon="2.43535">
        <ele>1074.578</ele>
        <time>2021-05-24T09:49:57Z</time>
      </trkpt>
      <trkpt lat="43.41893" lon="2.43535">
        <ele>1074.585</ele>
        <time>2021-05-24T09:49:59Z</time>
      </trkpt>
      <trkpt lat="43.41893" lon="2.43535">
        <ele>1074.589</ele>
        <time>2021-05-24T09:50:01Z</time>
      </trkpt>
      <trkpt lat="43.41893" lon="2.43535">
        <ele>1074.477</ele>
        <time>2021-05-24T09:50:03Z</time>
      </trkpt>
      <trkpt lat="43.41893" lon="2.43535">
        <ele>1074.233</ele>
        <time>2021-05-24T09:50:05Z</time>
      </trkpt>
      <trkpt lat="43.41893" lon="2.43535">
        <ele>1074.1</ele>
        <time>2021-05-24T09:50:07Z</time>
      </trkpt>
      <trkpt lat="43.41893" lon="2.43535">
        <ele>1074.078</ele>
        <time>2021-05-24T09:50:09Z</time>
      </trkpt>
      <trkpt lat="43.41893" lon="2.43535">
        <ele>1074.079</ele>
        <time>2021-05-24T09:50:11Z</time>
      </trkpt>
      <trkpt lat="43.41893" lon="2.43535">
        <ele>1074.08</ele>
        <time>2021-05-24T09:50:13Z</time>
      </trkpt>
      <trkpt lat="43.41893" lon="2.43535">
        <ele>1074.082</ele>
        <time>2021-05-24T09:50:15Z</time>
      </trkpt>
      <trkpt lat="43.41893" lon="2.43535">
        <ele>1074.083</ele>
        <time>2021-05-24T09:50:17Z</time>
      </trkpt>
      <trkpt lat="43.41893" lon="2.43535">
        <ele>1074.108</ele>
        <time>2021-05-24T09:50:19Z</time>
      </trkpt>
      <trkpt lat="43.41893" lon="2.43535">
        <ele>1074.336</ele>
        <time>2021-05-24T09:50:21Z</time>
      </trkpt>
      <trkpt lat="43.41893" lon="2.43535">
        <ele>1074.339</ele>
        <time>2021-05-24T09:50:23Z</time>
      </trkpt>
      <trkpt lat="43.41893" lon="2.43535">
        <ele>1074.341</ele>
        <time>2021-05-24T09:50:25Z</time>
      </trkpt>
      <trkpt lat="43.41893" lon="2.43535">
        <ele>1074.341</ele>
        <time>2021-05-24T09:50:27Z</time>
      </trkpt>
      <trkpt lat="43.41893" lon="2.43535">
        <ele>1074.344</ele>
        <time>2021-05-24T09:50:29Z</time>
      </trkpt>
      <trkpt lat="43.41893" lon="2.43535">
        <ele>1074.17</ele>
        <time>2021-05-24T09:50:31Z</time>
      </trkpt>
      <trkpt lat="43.41894" lon="2.43535">
        <ele>1073.91</ele>
        <time>2021-05-24T09:50:33Z</time>
      </trkpt>
      <trkpt lat="43.41894" lon="2.43535">
        <ele>1073.957</ele>
        <time>2021-05-24T09:50:35Z</time>
      </trkpt>
      <trkpt lat="43.41894" lon="2.43535">
        <ele>1073.953</ele>
        <time>2021-05-24T09:50:37Z</time>
      </trkpt>
      <trkpt lat="43.41894" lon="2.43535">
        <ele>1073.952</ele>
        <time>2021-05-24T09:50:39Z</time>
      </trkpt>
      <trkpt lat="43.41894" lon="2.43536">
        <ele>1073.63</ele>
        <time>2021-05-24T09:50:41Z</time>
      </trkpt>
      <trkpt lat="43.41894" lon="2.43537">
        <ele>1073.367</ele>
        <time>2021-05-24T09:50:43Z</time>
      </trkpt>
      <trkpt lat="43.41894" lon="2.43538">
        <ele>1073.756</ele>
        <time>2021-05-24T09:50:45Z</time>
      </trkpt>
      <trkpt lat="43.41894" lon="2.43538">
        <ele>1073.744</ele>
        <time>2021-05-24T09:50:47Z</time>
      </trkpt>
      <trkpt lat="43.41895" lon="2.43539">
        <ele>1073.713</ele>
        <time>2021-05-24T09:50:49Z</time>
      </trkpt>
      <trkpt lat="43.41895" lon="2.43541">
        <ele>1073.542</ele>
        <time>2021-05-24T09:50:51Z</time>
      </trkpt>
      <trkpt lat="43.41896" lon="2.43543">
        <ele>1073.183</ele>
        <time>2021-05-24T09:50:53Z</time>
      </trkpt>
      <trkpt lat="43.41897" lon="2.43546">
        <ele>1072.921</ele>
        <time>2021-05-24T09:50:55Z</time>
      </trkpt>
      <trkpt lat="43.41897" lon="2.43549">
        <ele>1073.124</ele>
        <time>2021-05-24T09:50:57Z</time>
      </trkpt>
      <trkpt lat="43.41896" lon="2.43552">
        <ele>1073.526</ele>
        <time>2021-05-24T09:50:59Z</time>
      </trkpt>
      <trkpt lat="43.41896" lon="2.43555">
        <ele>1073.26</ele>
        <time>2021-05-24T09:51:01Z</time>
      </trkpt>
      <trkpt lat="43.41896" lon="2.43559">
        <ele>1073.709</ele>
        <time>2021-05-24T09:51:03Z</time>
      </trkpt>
      <trkpt lat="43.41896" lon="2.43563">
        <ele>1074.197</ele>
        <time>2021-05-24T09:51:05Z</time>
      </trkpt>
      <trkpt lat="43.41896" lon="2.43566">
        <ele>1074.248</ele>
        <time>2021-05-24T09:51:07Z</time>
      </trkpt>
      <trkpt lat="43.41896" lon="2.43569">
        <ele>1074.399</ele>
        <time>2021-05-24T09:51:09Z</time>
      </trkpt>
      <trkpt lat="43.41896" lon="2.43571">
        <ele>1074.32</ele>
        <time>2021-05-24T09:51:11Z</time>
      </trkpt>
      <trkpt lat="43.41895" lon="2.43573">
        <ele>1074.541</ele>
        <time>2021-05-24T09:51:13Z</time>
      </trkpt>
      <trkpt lat="43.41895" lon="2.43576">
        <ele>1074.839</ele>
        <time>2021-05-24T09:51:15Z</time>
      </trkpt>
      <trkpt lat="43.41893" lon="2.43578">
        <ele>1074.167</ele>
        <time>2021-05-24T09:51:17Z</time>
      </trkpt>
      <trkpt lat="43.41892" lon="2.4358">
        <ele>1074.274</ele>
        <time>2021-05-24T09:51:19Z</time>
      </trkpt>
      <trkpt lat="43.41891" lon="2.43583">
        <ele>1074.136</ele>
        <time>2021-05-24T09:51:21Z</time>
      </trkpt>
      <trkpt lat="43.41889" lon="2.43584">
        <ele>1074.188</ele>
        <time>2021-05-24T09:51:23Z</time>
      </trkpt>
      <trkpt lat="43.41888" lon="2.43584">
        <ele>1073.413</ele>
        <time>2021-05-24T09:51:25Z</time>
      </trkpt>
      <trkpt lat="43.41886" lon="2.43585">
        <ele>1073.091</ele>
        <time>2021-05-24T09:51:27Z</time>
      </trkpt>
      <trkpt lat="43.41884" lon="2.43587">
        <ele>1073.001</ele>
        <time>2021-05-24T09:51:29Z</time>
      </trkpt>
      <trkpt lat="43.41883" lon="2.43589">
        <ele>1072.806</ele>
        <time>2021-05-24T09:51:31Z</time>
      </trkpt>
      <trkpt lat="43.41883" lon="2.43592">
        <ele>1072.671</ele>
        <time>2021-05-24T09:51:33Z</time>
      </trkpt>
      <trkpt lat="43.41885" lon="2.43595">
        <ele>1073.376</ele>
        <time>2021-05-24T09:51:35Z</time>
      </trkpt>
      <trkpt lat="43.41887" lon="2.43597">
        <ele>1074.361</ele>
        <time>2021-05-24T09:51:37Z</time>
      </trkpt>
      <trkpt lat="43.41889" lon="2.436">
        <ele>1074.653</ele>
        <time>2021-05-24T09:51:39Z</time>
      </trkpt>
      <trkpt lat="43.41891" lon="2.43601">
        <ele>1074.765</ele>
        <time>2021-05-24T09:51:41Z</time>
      </trkpt>
      <trkpt lat="43.41892" lon="2.43602">
        <ele>1074.602</ele>
        <time>2021-05-24T09:51:43Z</time>
      </trkpt>
      <trkpt lat="43.41894" lon="2.43603">
        <ele>1074.777</ele>
        <time>2021-05-24T09:51:45Z</time>
      </trkpt>
      <trkpt lat="43.41896" lon="2.43604">
        <ele>1074.289</ele>
        <time>2021-05-24T09:51:47Z</time>
      </trkpt>
      <trkpt lat="43.41898" lon="2.43605">
        <ele>1073.732</ele>
        <time>2021-05-24T09:51:49Z</time>
      </trkpt>
      <trkpt lat="43.419" lon="2.43606">
        <ele>1073.377</ele>
        <time>2021-05-24T09:51:51Z</time>
      </trkpt>
      <trkpt lat="43.41902" lon="2.43606">
        <ele>1072.6</ele>
        <time>2021-05-24T09:51:53Z</time>
      </trkpt>
      <trkpt lat="43.41904" lon="2.43606">
        <ele>1071.93</ele>
        <time>2021-05-24T09:51:55Z</time>
      </trkpt>
      <trkpt lat="43.41906" lon="2.43607">
        <ele>1071.426</ele>
        <time>2021-05-24T09:51:57Z</time>
      </trkpt>
      <trkpt lat="43.41909" lon="2.43607">
        <ele>1071.794</ele>
        <time>2021-05-24T09:51:59Z</time>
      </trkpt>
      <trkpt lat="43.41911" lon="2.43608">
        <ele>1071.246</ele>
        <time>2021-05-24T09:52:01Z</time>
      </trkpt>
      <trkpt lat="43.41913" lon="2.43608">
        <ele>1070.797</ele>
        <time>2021-05-24T09:52:03Z</time>
      </trkpt>
      <trkpt lat="43.41915" lon="2.43609">
        <ele>1070.623</ele>
        <time>2021-05-24T09:52:05Z</time>
      </trkpt>
      <trkpt lat="43.41918" lon="2.43609">
        <ele>1070.007</ele>
        <time>2021-05-24T09:52:07Z</time>
      </trkpt>
      <trkpt lat="43.4192" lon="2.4361">
        <ele>1069.15</ele>
        <time>2021-05-24T09:52:09Z</time>
      </trkpt>
      <trkpt lat="43.41923" lon="2.4361">
        <ele>1068.364</ele>
        <time>2021-05-24T09:52:11Z</time>
      </trkpt>
      <trkpt lat="43.41924" lon="2.43612">
        <ele>1068.041</ele>
        <time>2021-05-24T09:52:13Z</time>
      </trkpt>
      <trkpt lat="43.41926" lon="2.43614">
        <ele>1067.344</ele>
        <time>2021-05-24T09:52:15Z</time>
      </trkpt>
      <trkpt lat="43.41928" lon="2.43616">
        <ele>1066.837</ele>
        <time>2021-05-24T09:52:17Z</time>
      </trkpt>
      <trkpt lat="43.41929" lon="2.43618">
        <ele>1066.887</ele>
        <time>2021-05-24T09:52:19Z</time>
      </trkpt>
      <trkpt lat="43.4193" lon="2.4362">
        <ele>1066.282</ele>
        <time>2021-05-24T09:52:21Z</time>
      </trkpt>
      <trkpt lat="43.41931" lon="2.43623">
        <ele>1065.479</ele>
        <time>2021-05-24T09:52:23Z</time>
      </trkpt>
      <trkpt lat="43.41933" lon="2.43626">
        <ele>1065.012</ele>
        <time>2021-05-24T09:52:25Z</time>
      </trkpt>
      <trkpt lat="43.41935" lon="2.43628">
        <ele>1064.519</ele>
        <time>2021-05-24T09:52:28Z</time>
      </trkpt>
      <trkpt lat="43.41937" lon="2.4363">
        <ele>1064.09</ele>
        <time>2021-05-24T09:52:30Z</time>
      </trkpt>
      <trkpt lat="43.41939" lon="2.43632">
        <ele>1063.502</ele>
        <time>2021-05-24T09:52:32Z</time>
      </trkpt>
      <trkpt lat="43.4194" lon="2.43633">
        <ele>1063.15</ele>
        <time>2021-05-24T09:52:34Z</time>
      </trkpt>
      <trkpt lat="43.41942" lon="2.43636">
        <ele>1062.406</ele>
        <time>2021-05-24T09:52:36Z</time>
      </trkpt>
      <trkpt lat="43.41944" lon="2.43638">
        <ele>1062.123</ele>
        <time>2021-05-24T09:52:38Z</time>
      </trkpt>
      <trkpt lat="43.41945" lon="2.43639">
        <ele>1061.199</ele>
        <time>2021-05-24T09:52:40Z</time>
      </trkpt>
      <trkpt lat="43.41946" lon="2.43642">
        <ele>1061.215</ele>
        <time>2021-05-24T09:52:42Z</time>
      </trkpt>
      <trkpt lat="43.41947" lon="2.43645">
        <ele>1060.418</ele>
        <time>2021-05-24T09:52:44Z</time>
      </trkpt>
      <trkpt lat="43.41948" lon="2.43647">
        <ele>1059.626</ele>
        <time>2021-05-24T09:52:46Z</time>
      </trkpt>
      <trkpt lat="43.41949" lon="2.43649">
        <ele>1059.361</ele>
        <time>2021-05-24T09:52:48Z</time>
      </trkpt>
      <trkpt lat="43.4195" lon="2.43652">
        <ele>1058.857</ele>
        <time>2021-05-24T09:52:50Z</time>
      </trkpt>
      <trkpt lat="43.41951" lon="2.43655">
        <ele>1058.034</ele>
        <time>2021-05-24T09:52:52Z</time>
      </trkpt>
      <trkpt lat="43.41951" lon="2.43657">
        <ele>1057.709</ele>
        <time>2021-05-24T09:52:54Z</time>
      </trkpt>
      <trkpt lat="43.41952" lon="2.4366">
        <ele>1057.011</ele>
        <time>2021-05-24T09:52:56Z</time>
      </trkpt>
      <trkpt lat="43.41952" lon="2.43663">
        <ele>1056.076</ele>
        <time>2021-05-24T09:52:58Z</time>
      </trkpt>
      <trkpt lat="43.41953" lon="2.43666">
        <ele>1055.594</ele>
        <time>2021-05-24T09:53:00Z</time>
      </trkpt>
      <trkpt lat="43.41953" lon="2.43669">
        <ele>1054.923</ele>
        <time>2021-05-24T09:53:02Z</time>
      </trkpt>
      <trkpt lat="43.41954" lon="2.43672">
        <ele>1054.572</ele>
        <time>2021-05-24T09:53:04Z</time>
      </trkpt>
      <trkpt lat="43.41954" lon="2.43675">
        <ele>1054.366</ele>
        <time>2021-05-24T09:53:06Z</time>
      </trkpt>
      <trkpt lat="43.41955" lon="2.43678">
        <ele>1054.159</ele>
        <time>2021-05-24T09:53:08Z</time>
      </trkpt>
      <trkpt lat="43.41955" lon="2.4368">
        <ele>1053.761</ele>
        <time>2021-05-24T09:53:10Z</time>
      </trkpt>
      <trkpt lat="43.41956" lon="2.43683">
        <ele>1053.204</ele>
        <time>2021-05-24T09:53:12Z</time>
      </trkpt>
      <trkpt lat="43.41956" lon="2.43686">
        <ele>1052.43</ele>
        <time>2021-05-24T09:53:14Z</time>
      </trkpt>
      <trkpt lat="43.41956" lon="2.43689">
        <ele>1052.123</ele>
        <time>2021-05-24T09:53:16Z</time>
      </trkpt>
      <trkpt lat="43.41957" lon="2.43691">
        <ele>1051.878</ele>
        <time>2021-05-24T09:53:18Z</time>
      </trkpt>
      <trkpt lat="43.41958" lon="2.43694">
        <ele>1051.094</ele>
        <time>2021-05-24T09:53:20Z</time>
      </trkpt>
      <trkpt lat="43.41959" lon="2.43697">
        <ele>1050.752</ele>
        <time>2021-05-24T09:53:22Z</time>
      </trkpt>
      <trkpt lat="43.4196" lon="2.43699">
        <ele>1050.198</ele>
        <time>2021-05-24T09:53:24Z</time>
      </trkpt>
      <trkpt lat="43.41962" lon="2.43702">
        <ele>1049.198</ele>
        <time>2021-05-24T09:53:26Z</time>
      </trkpt>
      <trkpt lat="43.41963" lon="2.43704">
        <ele>1049.091</ele>
        <time>2021-05-24T09:53:28Z</time>
      </trkpt>
      <trkpt lat="43.41965" lon="2.43705">
        <ele>1048.77</ele>
        <time>2021-05-24T09:53:30Z</time>
      </trkpt>
      <trkpt lat="43.41967" lon="2.43707">
        <ele>1048.872</ele>
        <time>2021-05-24T09:53:32Z</time>
      </trkpt>
      <trkpt lat="43.41969" lon="2.43709">
        <ele>1049.15</ele>
        <time>2021-05-24T09:53:34Z</time>
      </trkpt>
      <trkpt lat="43.41972" lon="2.4371">
        <ele>1048.506</ele>
        <time>2021-05-24T09:53:36Z</time>
      </trkpt>
      <trkpt lat="43.41974" lon="2.43711">
        <ele>1048.314</ele>
        <time>2021-05-24T09:53:38Z</time>
      </trkpt>
      <trkpt lat="43.41976" lon="2.43711">
        <ele>1048.143</ele>
        <time>2021-05-24T09:53:40Z</time>
      </trkpt>
      <trkpt lat="43.41978" lon="2.43712">
        <ele>1047.945</ele>
        <time>2021-05-24T09:53:42Z</time>
      </trkpt>
      <trkpt lat="43.41981" lon="2.43713">
        <ele>1047.873</ele>
        <time>2021-05-24T09:53:44Z</time>
      </trkpt>
      <trkpt lat="43.41983" lon="2.43714">
        <ele>1048.17</ele>
        <time>2021-05-24T09:53:46Z</time>
      </trkpt>
      <trkpt lat="43.41986" lon="2.43715">
        <ele>1047.647</ele>
        <time>2021-05-24T09:53:48Z</time>
      </trkpt>
      <trkpt lat="43.41988" lon="2.43716">
        <ele>1047.448</ele>
        <time>2021-05-24T09:53:50Z</time>
      </trkpt>
      <trkpt lat="43.4199" lon="2.43716">
        <ele>1046.931</ele>
        <time>2021-05-24T09:53:52Z</time>
      </trkpt>
      <trkpt lat="43.41992" lon="2.43717">
        <ele>1046.36</ele>
        <time>2021-05-24T09:53:54Z</time>
      </trkpt>
      <trkpt lat="43.41994" lon="2.43718">
        <ele>1045.579</ele>
        <time>2021-05-24T09:53:56Z</time>
      </trkpt>
      <trkpt lat="43.41996" lon="2.43718">
        <ele>1045.039</ele>
        <time>2021-05-24T09:53:58Z</time>
      </trkpt>
      <trkpt lat="43.41998" lon="2.4372">
        <ele>1044.873</ele>
        <time>2021-05-24T09:54:00Z</time>
      </trkpt>
      <trkpt lat="43.42" lon="2.43721">
        <ele>1044.817</ele>
        <time>2021-05-24T09:54:02Z</time>
      </trkpt>
      <trkpt lat="43.42002" lon="2.43722">
        <ele>1044.698</ele>
        <time>2021-05-24T09:54:04Z</time>
      </trkpt>
      <trkpt lat="43.42004" lon="2.43723">
        <ele>1044.697</ele>
        <time>2021-05-24T09:54:06Z</time>
      </trkpt>
      <trkpt lat="43.42007" lon="2.43724">
        <ele>1045.342</ele>
        <time>2021-05-24T09:54:08Z</time>
      </trkpt>
      <trkpt lat="43.42009" lon="2.43725">
        <ele>1045.753</ele>
        <time>2021-05-24T09:54:10Z</time>
      </trkpt>
      <trkpt lat="43.42011" lon="2.43726">
        <ele>1046.073</ele>
        <time>2021-05-24T09:54:12Z</time>
      </trkpt>
      <trkpt lat="43.42014" lon="2.43727">
        <ele>1046.084</ele>
        <time>2021-05-24T09:54:14Z</time>
      </trkpt>
      <trkpt lat="43.42016" lon="2.43728">
        <ele>1045.848</ele>
        <time>2021-05-24T09:54:16Z</time>
      </trkpt>
      <trkpt lat="43.42018" lon="2.43729">
        <ele>1045.913</ele>
        <time>2021-05-24T09:54:18Z</time>
      </trkpt>
      <trkpt lat="43.42021" lon="2.43729">
        <ele>1045.506</ele>
        <time>2021-05-24T09:54:20Z</time>
      </trkpt>
      <trkpt lat="43.42023" lon="2.4373">
        <ele>1045.019</ele>
        <time>2021-05-24T09:54:22Z</time>
      </trkpt>
      <trkpt lat="43.42026" lon="2.43731">
        <ele>1045.701</ele>
        <time>2021-05-24T09:54:24Z</time>
      </trkpt>
      <trkpt lat="43.42028" lon="2.43732">
        <ele>1046.024</ele>
        <time>2021-05-24T09:54:26Z</time>
      </trkpt>
      <trkpt lat="43.4203" lon="2.43732">
        <ele>1045.89</ele>
        <time>2021-05-24T09:54:28Z</time>
      </trkpt>
      <trkpt lat="43.42032" lon="2.43733">
        <ele>1045.779</ele>
        <time>2021-05-24T09:54:30Z</time>
      </trkpt>
      <trkpt lat="43.42034" lon="2.43733">
        <ele>1046.175</ele>
        <time>2021-05-24T09:54:32Z</time>
      </trkpt>
      <trkpt lat="43.42036" lon="2.43733">
        <ele>1046.534</ele>
        <time>2021-05-24T09:54:34Z</time>
      </trkpt>
      <trkpt lat="43.42039" lon="2.43733">
        <ele>1047.016</ele>
        <time>2021-05-24T09:54:36Z</time>
      </trkpt>
      <trkpt lat="43.42041" lon="2.43733">
        <ele>1047.371</ele>
        <time>2021-05-24T09:54:38Z</time>
      </trkpt>
      <trkpt lat="43.42043" lon="2.43734">
        <ele>1047.907</ele>
        <time>2021-05-24T09:54:40Z</time>
      </trkpt>
      <trkpt lat="43.42045" lon="2.43734">
        <ele>1048.456</ele>
        <time>2021-05-24T09:54:42Z</time>
      </trkpt>
      <trkpt lat="43.42047" lon="2.43733">
        <ele>1049.718</ele>
        <time>2021-05-24T09:54:44Z</time>
      </trkpt>
      <trkpt lat="43.4205" lon="2.43734">
        <ele>1050.665</ele>
        <time>2021-05-24T09:54:46Z</time>
      </trkpt>
      <trkpt lat="43.42053" lon="2.43735">
        <ele>1050.518</ele>
        <time>2021-05-24T09:54:48Z</time>
      </trkpt>
      <trkpt lat="43.42055" lon="2.43735">
        <ele>1050.311</ele>
        <time>2021-05-24T09:54:50Z</time>
      </trkpt>
      <trkpt lat="43.42057" lon="2.43735">
        <ele>1050.255</ele>
        <time>2021-05-24T09:54:52Z</time>
      </trkpt>
      <trkpt lat="43.42059" lon="2.43735">
        <ele>1050.192</ele>
        <time>2021-05-24T09:54:54Z</time>
      </trkpt>
      <trkpt lat="43.42061" lon="2.43735">
        <ele>1050.776</ele>
        <time>2021-05-24T09:54:56Z</time>
      </trkpt>
      <trkpt lat="43.42063" lon="2.43735">
        <ele>1051.073</ele>
        <time>2021-05-24T09:54:58Z</time>
      </trkpt>
      <trkpt lat="43.42066" lon="2.43735">
        <ele>1051.131</ele>
        <time>2021-05-24T09:55:00Z</time>
      </trkpt>
      <trkpt lat="43.42068" lon="2.43735">
        <ele>1051.858</ele>
        <time>2021-05-24T09:55:02Z</time>
      </trkpt>
      <trkpt lat="43.4207" lon="2.43735">
        <ele>1052.698</ele>
        <time>2021-05-24T09:55:04Z</time>
      </trkpt>
      <trkpt lat="43.42072" lon="2.43736">
        <ele>1052.449</ele>
        <time>2021-05-24T09:55:06Z</time>
      </trkpt>
      <trkpt lat="43.42074" lon="2.43736">
        <ele>1053.168</ele>
        <time>2021-05-24T09:55:08Z</time>
      </trkpt>
      <trkpt lat="43.42076" lon="2.43736">
        <ele>1054.051</ele>
        <time>2021-05-24T09:55:10Z</time>
      </trkpt>
      <trkpt lat="43.42078" lon="2.43736">
        <ele>1053.785</ele>
        <time>2021-05-24T09:55:12Z</time>
      </trkpt>
      <trkpt lat="43.4208" lon="2.43736">
        <ele>1054.343</ele>
        <time>2021-05-24T09:55:14Z</time>
      </trkpt>
      <trkpt lat="43.42082" lon="2.43737">
        <ele>1055.002</ele>
        <time>2021-05-24T09:55:16Z</time>
      </trkpt>
      <trkpt lat="43.42084" lon="2.43736">
        <ele>1055.475</ele>
        <time>2021-05-24T09:55:18Z</time>
      </trkpt>
      <trkpt lat="43.42085" lon="2.43736">
        <ele>1055.939</ele>
        <time>2021-05-24T09:55:20Z</time>
      </trkpt>
      <trkpt lat="43.42087" lon="2.43735">
        <ele>1056.602</ele>
        <time>2021-05-24T09:55:22Z</time>
      </trkpt>
      <trkpt lat="43.42089" lon="2.43735">
        <ele>1056.448</ele>
        <time>2021-05-24T09:55:24Z</time>
      </trkpt>
      <trkpt lat="43.42091" lon="2.43734">
        <ele>1056.355</ele>
        <time>2021-05-24T09:55:26Z</time>
      </trkpt>
      <trkpt lat="43.42093" lon="2.43734">
        <ele>1056.424</ele>
        <time>2021-05-24T09:55:28Z</time>
      </trkpt>
      <trkpt lat="43.42095" lon="2.43733">
        <ele>1057.334</ele>
        <time>2021-05-24T09:55:30Z</time>
      </trkpt>
      <trkpt lat="43.42097" lon="2.43732">
        <ele>1057.086</ele>
        <time>2021-05-24T09:55:32Z</time>
      </trkpt>
      <trkpt lat="43.42099" lon="2.43731">
        <ele>1057.215</ele>
        <time>2021-05-24T09:55:34Z</time>
      </trkpt>
      <trkpt lat="43.42101" lon="2.4373">
        <ele>1056.754</ele>
        <time>2021-05-24T09:55:36Z</time>
      </trkpt>
      <trkpt lat="43.42104" lon="2.43729">
        <ele>1056.414</ele>
        <time>2021-05-24T09:55:38Z</time>
      </trkpt>
      <trkpt lat="43.42105" lon="2.43729">
        <ele>1056.78</ele>
        <time>2021-05-24T09:55:40Z</time>
      </trkpt>
      <trkpt lat="43.42107" lon="2.43729">
        <ele>1057.376</ele>
        <time>2021-05-24T09:55:42Z</time>
      </trkpt>
      <trkpt lat="43.4211" lon="2.43729">
        <ele>1057.88</ele>
        <time>2021-05-24T09:55:44Z</time>
      </trkpt>
      <trkpt lat="43.42112" lon="2.4373">
        <ele>1058.474</ele>
        <time>2021-05-24T09:55:46Z</time>
      </trkpt>
      <trkpt lat="43.42113" lon="2.43731">
        <ele>1058.123</ele>
        <time>2021-05-24T09:55:48Z</time>
      </trkpt>
      <trkpt lat="43.42115" lon="2.43731">
        <ele>1058.886</ele>
        <time>2021-05-24T09:55:50Z</time>
      </trkpt>
      <trkpt lat="43.42118" lon="2.43732">
        <ele>1058.64</ele>
        <time>2021-05-24T09:55:52Z</time>
      </trkpt>
      <trkpt lat="43.4212" lon="2.43733">
        <ele>1059.718</ele>
        <time>2021-05-24T09:55:54Z</time>
      </trkpt>
      <trkpt lat="43.42122" lon="2.43734">
        <ele>1059.497</ele>
        <time>2021-05-24T09:55:56Z</time>
      </trkpt>
      <trkpt lat="43.42124" lon="2.43735">
        <ele>1060.147</ele>
        <time>2021-05-24T09:55:58Z</time>
      </trkpt>
      <trkpt lat="43.42126" lon="2.43736">
        <ele>1060.454</ele>
        <time>2021-05-24T09:56:00Z</time>
      </trkpt>
      <trkpt lat="43.42128" lon="2.43737">
        <ele>1060.587</ele>
        <time>2021-05-24T09:56:02Z</time>
      </trkpt>
      <trkpt lat="43.4213" lon="2.43738">
        <ele>1060.59</ele>
        <time>2021-05-24T09:56:04Z</time>
      </trkpt>
      <trkpt lat="43.42132" lon="2.4374">
        <ele>1061.052</ele>
        <time>2021-05-24T09:56:06Z</time>
      </trkpt>
      <trkpt lat="43.42134" lon="2.43741">
        <ele>1060.952</ele>
        <time>2021-05-24T09:56:08Z</time>
      </trkpt>
      <trkpt lat="43.42136" lon="2.43742">
        <ele>1061.002</ele>
        <time>2021-05-24T09:56:10Z</time>
      </trkpt>
      <trkpt lat="43.42138" lon="2.43744">
        <ele>1061.1</ele>
        <time>2021-05-24T09:56:12Z</time>
      </trkpt>
      <trkpt lat="43.42141" lon="2.43746">
        <ele>1061.408</ele>
        <time>2021-05-24T09:56:14Z</time>
      </trkpt>
      <trkpt lat="43.42143" lon="2.43747">
        <ele>1061.573</ele>
        <time>2021-05-24T09:56:16Z</time>
      </trkpt>
      <trkpt lat="43.42146" lon="2.43748">
        <ele>1061.929</ele>
        <time>2021-05-24T09:56:18Z</time>
      </trkpt>
      <trkpt lat="43.42148" lon="2.4375">
        <ele>1061.824</ele>
        <time>2021-05-24T09:56:20Z</time>
      </trkpt>
      <trkpt lat="43.4215" lon="2.43752">
        <ele>1062.696</ele>
        <time>2021-05-24T09:56:22Z</time>
      </trkpt>
      <trkpt lat="43.42153" lon="2.43753">
        <ele>1062.437</ele>
        <time>2021-05-24T09:56:24Z</time>
      </trkpt>
      <trkpt lat="43.42155" lon="2.43754">
        <ele>1062.454</ele>
        <time>2021-05-24T09:56:26Z</time>
      </trkpt>
      <trkpt lat="43.42158" lon="2.43754">
        <ele>1063.562</ele>
        <time>2021-05-24T09:56:28Z</time>
      </trkpt>
      <trkpt lat="43.42161" lon="2.43754">
        <ele>1064.054</ele>
        <time>2021-05-24T09:56:30Z</time>
      </trkpt>
      <trkpt lat="43.42163" lon="2.43753">
        <ele>1063.979</ele>
        <time>2021-05-24T09:56:32Z</time>
      </trkpt>
      <trkpt lat="43.42165" lon="2.43752">
        <ele>1063.929</ele>
        <time>2021-05-24T09:56:34Z</time>
      </trkpt>
      <trkpt lat="43.42167" lon="2.43751">
        <ele>1063.595</ele>
        <time>2021-05-24T09:56:36Z</time>
      </trkpt>
      <trkpt lat="43.42169" lon="2.43748">
        <ele>1064.331</ele>
        <time>2021-05-24T09:56:38Z</time>
      </trkpt>
      <trkpt lat="43.42171" lon="2.43746">
        <ele>1065.159</ele>
        <time>2021-05-24T09:56:40Z</time>
      </trkpt>
      <trkpt lat="43.42172" lon="2.43744">
        <ele>1065.572</ele>
        <time>2021-05-24T09:56:42Z</time>
      </trkpt>
      <trkpt lat="43.42173" lon="2.43742">
        <ele>1065.226</ele>
        <time>2021-05-24T09:56:44Z</time>
      </trkpt>
      <trkpt lat="43.42175" lon="2.4374">
        <ele>1065.03</ele>
        <time>2021-05-24T09:56:46Z</time>
      </trkpt>
      <trkpt lat="43.42176" lon="2.43738">
        <ele>1064.909</ele>
        <time>2021-05-24T09:56:48Z</time>
      </trkpt>
      <trkpt lat="43.42178" lon="2.43737">
        <ele>1064.998</ele>
        <time>2021-05-24T09:56:50Z</time>
      </trkpt>
      <trkpt lat="43.4218" lon="2.43738">
        <ele>1065.597</ele>
        <time>2021-05-24T09:56:52Z</time>
      </trkpt>
      <trkpt lat="43.42182" lon="2.43739">
        <ele>1065.846</ele>
        <time>2021-05-24T09:56:54Z</time>
      </trkpt>
      <trkpt lat="43.42183" lon="2.43742">
        <ele>1065.23</ele>
        <time>2021-05-24T09:56:56Z</time>
      </trkpt>
      <trkpt lat="43.42184" lon="2.43745">
        <ele>1065.341</ele>
        <time>2021-05-24T09:56:58Z</time>
      </trkpt>
      <trkpt lat="43.42184" lon="2.43747">
        <ele>1064.487</ele>
        <time>2021-05-24T09:57:00Z</time>
      </trkpt>
      <trkpt lat="43.42184" lon="2.4375">
        <ele>1064.249</ele>
        <time>2021-05-24T09:57:02Z</time>
      </trkpt>
      <trkpt lat="43.42184" lon="2.43753">
        <ele>1064.042</ele>
        <time>2021-05-24T09:57:04Z</time>
      </trkpt>
      <trkpt lat="43.42183" lon="2.43757">
        <ele>1066.101</ele>
        <time>2021-05-24T09:57:06Z</time>
      </trkpt>
      <trkpt lat="43.42182" lon="2.4376">
        <ele>1065.84</ele>
        <time>2021-05-24T09:57:08Z</time>
      </trkpt>
      <trkpt lat="43.42181" lon="2.43762">
        <ele>1065.159</ele>
        <time>2021-05-24T09:57:10Z</time>
      </trkpt>
      <trkpt lat="43.4218" lon="2.43764">
        <ele>1064.605</ele>
        <time>2021-05-24T09:57:12Z</time>
      </trkpt>
      <trkpt lat="43.42179" lon="2.43767">
        <ele>1064.547</ele>
        <time>2021-05-24T09:57:14Z</time>
      </trkpt>
      <trkpt lat="43.42178" lon="2.4377">
        <ele>1064.39</ele>
        <time>2021-05-24T09:57:16Z</time>
      </trkpt>
      <trkpt lat="43.42177" lon="2.43773">
        <ele>1064.126</ele>
        <time>2021-05-24T09:57:18Z</time>
      </trkpt>
      <trkpt lat="43.42176" lon="2.43776">
        <ele>1063.782</ele>
        <time>2021-05-24T09:57:20Z</time>
      </trkpt>
      <trkpt lat="43.42175" lon="2.43779">
        <ele>1064.25</ele>
        <time>2021-05-24T09:57:22Z</time>
      </trkpt>
      <trkpt lat="43.42175" lon="2.43783">
        <ele>1062.907</ele>
        <time>2021-05-24T09:57:24Z</time>
      </trkpt>
      <trkpt lat="43.42176" lon="2.43786">
        <ele>1063.031</ele>
        <time>2021-05-24T09:57:26Z</time>
      </trkpt>
      <trkpt lat="43.42178" lon="2.43788">
        <ele>1062.577</ele>
        <time>2021-05-24T09:57:28Z</time>
      </trkpt>
      <trkpt lat="43.42179" lon="2.4379">
        <ele>1062.025</ele>
        <time>2021-05-24T09:57:30Z</time>
      </trkpt>
      <trkpt lat="43.4218" lon="2.43792">
        <ele>1062.107</ele>
        <time>2021-05-24T09:57:32Z</time>
      </trkpt>
      <trkpt lat="43.42182" lon="2.43795">
        <ele>1061.351</ele>
        <time>2021-05-24T09:57:34Z</time>
      </trkpt>
      <trkpt lat="43.42185" lon="2.43797">
        <ele>1061.294</ele>
        <time>2021-05-24T09:57:36Z</time>
      </trkpt>
      <trkpt lat="43.42187" lon="2.438">
        <ele>1062.822</ele>
        <time>2021-05-24T09:57:38Z</time>
      </trkpt>
      <trkpt lat="43.42188" lon="2.43804">
        <ele>1063.11</ele>
        <time>2021-05-24T09:57:40Z</time>
      </trkpt>
      <trkpt lat="43.42189" lon="2.43807">
        <ele>1062.186</ele>
        <time>2021-05-24T09:57:42Z</time>
      </trkpt>
      <trkpt lat="43.4219" lon="2.4381">
        <ele>1061.69</ele>
        <time>2021-05-24T09:57:44Z</time>
      </trkpt>
      <trkpt lat="43.4219" lon="2.43814">
        <ele>1062.249</ele>
        <time>2021-05-24T09:57:46Z</time>
      </trkpt>
      <trkpt lat="43.42189" lon="2.43817">
        <ele>1062.435</ele>
        <time>2021-05-24T09:57:48Z</time>
      </trkpt>
      <trkpt lat="43.42188" lon="2.43819">
        <ele>1063.059</ele>
        <time>2021-05-24T09:57:50Z</time>
      </trkpt>
      <trkpt lat="43.42187" lon="2.43823">
        <ele>1063.07</ele>
        <time>2021-05-24T09:57:52Z</time>
      </trkpt>
      <trkpt lat="43.42187" lon="2.43825">
        <ele>1063.366</ele>
        <time>2021-05-24T09:57:54Z</time>
      </trkpt>
      <trkpt lat="43.42186" lon="2.43829">
        <ele>1062.01</ele>
        <time>2021-05-24T09:57:56Z</time>
      </trkpt>
      <trkpt lat="43.42187" lon="2.43832">
        <ele>1060.744</ele>
        <time>2021-05-24T09:57:58Z</time>
      </trkpt>
      <trkpt lat="43.42187" lon="2.43835">
        <ele>1060.294</ele>
        <time>2021-05-24T09:58:00Z</time>
      </trkpt>
      <trkpt lat="43.42187" lon="2.43838">
        <ele>1059.642</ele>
        <time>2021-05-24T09:58:02Z</time>
      </trkpt>
      <trkpt lat="43.42187" lon="2.43841">
        <ele>1058.623</ele>
        <time>2021-05-24T09:58:04Z</time>
      </trkpt>
      <trkpt lat="43.42188" lon="2.43844">
        <ele>1057.531</ele>
        <time>2021-05-24T09:58:06Z</time>
      </trkpt>
      <trkpt lat="43.42189" lon="2.43848">
        <ele>1056.103</ele>
        <time>2021-05-24T09:58:08Z</time>
      </trkpt>
      <trkpt lat="43.4219" lon="2.43851">
        <ele>1055.5</ele>
        <time>2021-05-24T09:58:10Z</time>
      </trkpt>
      <trkpt lat="43.42191" lon="2.43854">
        <ele>1054.909</ele>
        <time>2021-05-24T09:58:12Z</time>
      </trkpt>
      <trkpt lat="43.42192" lon="2.43856">
        <ele>1054.588</ele>
        <time>2021-05-24T09:58:14Z</time>
      </trkpt>
      <trkpt lat="43.42194" lon="2.43859">
        <ele>1053.858</ele>
        <time>2021-05-24T09:58:16Z</time>
      </trkpt>
      <trkpt lat="43.42195" lon="2.43862">
        <ele>1053.164</ele>
        <time>2021-05-24T09:58:18Z</time>
      </trkpt>
      <trkpt lat="43.42197" lon="2.43865">
        <ele>1052.812</ele>
        <time>2021-05-24T09:58:20Z</time>
      </trkpt>
      <trkpt lat="43.42198" lon="2.43867">
        <ele>1052.155</ele>
        <time>2021-05-24T09:58:22Z</time>
      </trkpt>
      <trkpt lat="43.422" lon="2.43869">
        <ele>1050.974</ele>
        <time>2021-05-24T09:58:24Z</time>
      </trkpt>
      <trkpt lat="43.42202" lon="2.43871">
        <ele>1050.451</ele>
        <time>2021-05-24T09:58:26Z</time>
      </trkpt>
      <trkpt lat="43.42203" lon="2.43873">
        <ele>1049.896</ele>
        <time>2021-05-24T09:58:28Z</time>
      </trkpt>
      <trkpt lat="43.42204" lon="2.43876">
        <ele>1049.765</ele>
        <time>2021-05-24T09:58:30Z</time>
      </trkpt>
      <trkpt lat="43.42205" lon="2.43879">
        <ele>1049.833</ele>
        <time>2021-05-24T09:58:32Z</time>
      </trkpt>
      <trkpt lat="43.42206" lon="2.43882">
        <ele>1048.885</ele>
        <time>2021-05-24T09:58:34Z</time>
      </trkpt>
      <trkpt lat="43.42207" lon="2.43885">
        <ele>1048.404</ele>
        <time>2021-05-24T09:58:36Z</time>
      </trkpt>
      <trkpt lat="43.42208" lon="2.43888">
        <ele>1047.629</ele>
        <time>2021-05-24T09:58:38Z</time>
      </trkpt>
      <trkpt lat="43.4221" lon="2.4389">
        <ele>1047.039</ele>
        <time>2021-05-24T09:58:40Z</time>
      </trkpt>
      <trkpt lat="43.42211" lon="2.43893">
        <ele>1046.125</ele>
        <time>2021-05-24T09:58:42Z</time>
      </trkpt>
      <trkpt lat="43.42212" lon="2.43896">
        <ele>1045.239</ele>
        <time>2021-05-24T09:58:44Z</time>
      </trkpt>
      <trkpt lat="43.42214" lon="2.43899">
        <ele>1044.444</ele>
        <time>2021-05-24T09:58:46Z</time>
      </trkpt>
      <trkpt lat="43.42215" lon="2.43902">
        <ele>1044.002</ele>
        <time>2021-05-24T09:58:48Z</time>
      </trkpt>
      <trkpt lat="43.42217" lon="2.43905">
        <ele>1043.633</ele>
        <time>2021-05-24T09:58:50Z</time>
      </trkpt>
      <trkpt lat="43.42219" lon="2.43907">
        <ele>1043.441</ele>
        <time>2021-05-24T09:58:52Z</time>
      </trkpt>
      <trkpt lat="43.4222" lon="2.4391">
        <ele>1042.837</ele>
        <time>2021-05-24T09:58:54Z</time>
      </trkpt>
      <trkpt lat="43.42221" lon="2.43913">
        <ele>1042.556</ele>
        <time>2021-05-24T09:58:56Z</time>
      </trkpt>
      <trkpt lat="43.42222" lon="2.43916">
        <ele>1042.433</ele>
        <time>2021-05-24T09:58:58Z</time>
      </trkpt>
      <trkpt lat="43.42224" lon="2.43919">
        <ele>1042.384</ele>
        <time>2021-05-24T09:59:00Z</time>
      </trkpt>
      <trkpt lat="43.42225" lon="2.43921">
        <ele>1042.133</ele>
        <time>2021-05-24T09:59:02Z</time>
      </trkpt>
      <trkpt lat="43.42227" lon="2.43924">
        <ele>1041.721</ele>
        <time>2021-05-24T09:59:04Z</time>
      </trkpt>
      <trkpt lat="43.42229" lon="2.43926">
        <ele>1040.564</ele>
        <time>2021-05-24T09:59:06Z</time>
      </trkpt>
      <trkpt lat="43.42231" lon="2.43928">
        <ele>1039.92</ele>
        <time>2021-05-24T09:59:08Z</time>
      </trkpt>
      <trkpt lat="43.42233" lon="2.4393">
        <ele>1039.946</ele>
        <time>2021-05-24T09:59:10Z</time>
      </trkpt>
      <trkpt lat="43.42236" lon="2.43932">
        <ele>1039.91</ele>
        <time>2021-05-24T09:59:12Z</time>
      </trkpt>
      <trkpt lat="43.42238" lon="2.43934">
        <ele>1039.696</ele>
        <time>2021-05-24T09:59:14Z</time>
      </trkpt>
      <trkpt lat="43.4224" lon="2.43936">
        <ele>1039.379</ele>
        <time>2021-05-24T09:59:16Z</time>
      </trkpt>
      <trkpt lat="43.42242" lon="2.43938">
        <ele>1038.91</ele>
        <time>2021-05-24T09:59:18Z</time>
      </trkpt>
      <trkpt lat="43.42244" lon="2.43941">
        <ele>1038.747</ele>
        <time>2021-05-24T09:59:20Z</time>
      </trkpt>
      <trkpt lat="43.42244" lon="2.43944">
        <ele>1038.389</ele>
        <time>2021-05-24T09:59:22Z</time>
      </trkpt>
      <trkpt lat="43.42244" lon="2.43948">
        <ele>1037.308</ele>
        <time>2021-05-24T09:59:24Z</time>
      </trkpt>
      <trkpt lat="43.42245" lon="2.43951">
        <ele>1036.517</ele>
        <time>2021-05-24T09:59:26Z</time>
      </trkpt>
      <trkpt lat="43.42245" lon="2.43955">
        <ele>1036.064</ele>
        <time>2021-05-24T09:59:28Z</time>
      </trkpt>
      <trkpt lat="43.42244" lon="2.43958">
        <ele>1036.036</ele>
        <time>2021-05-24T09:59:30Z</time>
      </trkpt>
      <trkpt lat="43.42245" lon="2.43963">
        <ele>1035.824</ele>
        <time>2021-05-24T09:59:32Z</time>
      </trkpt>
      <trkpt lat="43.42245" lon="2.43967">
        <ele>1034.882</ele>
        <time>2021-05-24T09:59:34Z</time>
      </trkpt>
      <trkpt lat="43.42244" lon="2.43971">
        <ele>1034.159</ele>
        <time>2021-05-24T09:59:36Z</time>
      </trkpt>
      <trkpt lat="43.42244" lon="2.43974">
        <ele>1033.288</ele>
        <time>2021-05-24T09:59:38Z</time>
      </trkpt>
      <trkpt lat="43.42244" lon="2.43978">
        <ele>1033.056</ele>
        <time>2021-05-24T09:59:40Z</time>
      </trkpt>
      <trkpt lat="43.42244" lon="2.43981">
        <ele>1032.561</ele>
        <time>2021-05-24T09:59:42Z</time>
      </trkpt>
      <trkpt lat="43.42243" lon="2.43985">
        <ele>1032.111</ele>
        <time>2021-05-24T09:59:44Z</time>
      </trkpt>
      <trkpt lat="43.42243" lon="2.43989">
        <ele>1031.455</ele>
        <time>2021-05-24T09:59:46Z</time>
      </trkpt>
      <trkpt lat="43.42243" lon="2.43992">
        <ele>1030.857</ele>
        <time>2021-05-24T09:59:48Z</time>
      </trkpt>
      <trkpt lat="43.42244" lon="2.43996">
        <ele>1030.577</ele>
        <time>2021-05-24T09:59:50Z</time>
      </trkpt>
      <trkpt lat="43.42245" lon="2.43999">
        <ele>1030.523</ele>
        <time>2021-05-24T09:59:52Z</time>
      </trkpt>
      <trkpt lat="43.42246" lon="2.44002">
        <ele>1030.324</ele>
        <time>2021-05-24T09:59:54Z</time>
      </trkpt>
      <trkpt lat="43.42248" lon="2.44005">
        <ele>1030.483</ele>
        <time>2021-05-24T09:59:56Z</time>
      </trkpt>
      <trkpt lat="43.42249" lon="2.44008">
        <ele>1030.616</ele>
        <time>2021-05-24T09:59:58Z</time>
      </trkpt>
      <trkpt lat="43.42251" lon="2.44011">
        <ele>1030.587</ele>
        <time>2021-05-24T10:00:00Z</time>
      </trkpt>
      <trkpt lat="43.42253" lon="2.44014">
        <ele>1030.117</ele>
        <time>2021-05-24T10:00:02Z</time>
      </trkpt>
      <trkpt lat="43.42254" lon="2.44017">
        <ele>1030.405</ele>
        <time>2021-05-24T10:00:04Z</time>
      </trkpt>
      <trkpt lat="43.42256" lon="2.44021">
        <ele>1030.663</ele>
        <time>2021-05-24T10:00:06Z</time>
      </trkpt>
      <trkpt lat="43.42258" lon="2.44023">
        <ele>1030.569</ele>
        <time>2021-05-24T10:00:08Z</time>
      </trkpt>
      <trkpt lat="43.4226" lon="2.44026">
        <ele>1030.365</ele>
        <time>2021-05-24T10:00:10Z</time>
      </trkpt>
      <trkpt lat="43.42261" lon="2.44029">
        <ele>1030.49</ele>
        <time>2021-05-24T10:00:12Z</time>
      </trkpt>
      <trkpt lat="43.42263" lon="2.44031">
        <ele>1030.394</ele>
        <time>2021-05-24T10:00:14Z</time>
      </trkpt>
      <trkpt lat="43.42265" lon="2.44034">
        <ele>1030.395</ele>
        <time>2021-05-24T10:00:16Z</time>
      </trkpt>
      <trkpt lat="43.42266" lon="2.44037">
        <ele>1030.337</ele>
        <time>2021-05-24T10:00:18Z</time>
      </trkpt>
      <trkpt lat="43.42268" lon="2.44039">
        <ele>1030.102</ele>
        <time>2021-05-24T10:00:20Z</time>
      </trkpt>
      <trkpt lat="43.42269" lon="2.44042">
        <ele>1030.257</ele>
        <time>2021-05-24T10:00:22Z</time>
      </trkpt>
      <trkpt lat="43.42271" lon="2.44045">
        <ele>1030.137</ele>
        <time>2021-05-24T10:00:24Z</time>
      </trkpt>
      <trkpt lat="43.42272" lon="2.44047">
        <ele>1030.233</ele>
        <time>2021-05-24T10:00:26Z</time>
      </trkpt>
      <trkpt lat="43.42273" lon="2.4405">
        <ele>1030.082</ele>
        <time>2021-05-24T10:00:28Z</time>
      </trkpt>
      <trkpt lat="43.42274" lon="2.44052">
        <ele>1030.032</ele>
        <time>2021-05-24T10:00:30Z</time>
      </trkpt>
      <trkpt lat="43.42274" lon="2.44054">
        <ele>1030.669</ele>
        <time>2021-05-24T10:00:32Z</time>
      </trkpt>
      <trkpt lat="43.42273" lon="2.44054">
        <ele>1030.576</ele>
        <time>2021-05-24T10:00:34Z</time>
      </trkpt>
      <trkpt lat="43.42273" lon="2.44054">
        <ele>1031.023</ele>
        <time>2021-05-24T10:00:36Z</time>
      </trkpt>
      <trkpt lat="43.42273" lon="2.44054">
        <ele>1031.023</ele>
        <time>2021-05-24T10:00:38Z</time>
      </trkpt>
      <trkpt lat="43.42273" lon="2.44054">
        <ele>1031.021</ele>
        <time>2021-05-24T10:00:40Z</time>
      </trkpt>
      <trkpt lat="43.42272" lon="2.44054">
        <ele>1031.004</ele>
        <time>2021-05-24T10:00:42Z</time>
      </trkpt>
      <trkpt lat="43.42273" lon="2.44054">
        <ele>1030.982</ele>
        <time>2021-05-24T10:00:44Z</time>
      </trkpt>
      <trkpt lat="43.42273" lon="2.44055">
        <ele>1030.93</ele>
        <time>2021-05-24T10:00:46Z</time>
      </trkpt>
      <trkpt lat="43.42273" lon="2.44057">
        <ele>1031.257</ele>
        <time>2021-05-24T10:00:48Z</time>
      </trkpt>
      <trkpt lat="43.42275" lon="2.44058">
        <ele>1030.888</ele>
        <time>2021-05-24T10:00:50Z</time>
      </trkpt>
      <trkpt lat="43.42277" lon="2.44061">
        <ele>1030.436</ele>
        <time>2021-05-24T10:00:52Z</time>
      </trkpt>
      <trkpt lat="43.42279" lon="2.44063">
        <ele>1030.364</ele>
        <time>2021-05-24T10:00:54Z</time>
      </trkpt>
      <trkpt lat="43.4228" lon="2.44066">
        <ele>1030.451</ele>
        <time>2021-05-24T10:00:56Z</time>
      </trkpt>
      <trkpt lat="43.42281" lon="2.44069">
        <ele>1030.705</ele>
        <time>2021-05-24T10:00:58Z</time>
      </trkpt>
      <trkpt lat="43.42282" lon="2.44071">
        <ele>1030.486</ele>
        <time>2021-05-24T10:01:00Z</time>
      </trkpt>
      <trkpt lat="43.42282" lon="2.44074">
        <ele>1030.129</ele>
        <time>2021-05-24T10:01:02Z</time>
      </trkpt>
      <trkpt lat="43.42283" lon="2.44077">
        <ele>1030.427</ele>
        <time>2021-05-24T10:01:04Z</time>
      </trkpt>
      <trkpt lat="43.42284" lon="2.4408">
        <ele>1030.838</ele>
        <time>2021-05-24T10:01:06Z</time>
      </trkpt>
      <trkpt lat="43.42285" lon="2.44082">
        <ele>1031.314</ele>
        <time>2021-05-24T10:01:08Z</time>
      </trkpt>
      <trkpt lat="43.42285" lon="2.44085">
        <ele>1031.98</ele>
        <time>2021-05-24T10:01:10Z</time>
      </trkpt>
      <trkpt lat="43.42285" lon="2.44086">
        <ele>1032.283</ele>
        <time>2021-05-24T10:01:12Z</time>
      </trkpt>
      <trkpt lat="43.42285" lon="2.44086">
        <ele>1032.285</ele>
        <time>2021-05-24T10:01:14Z</time>
      </trkpt>
      <trkpt lat="43.42286" lon="2.44088">
        <ele>1032.436</ele>
        <time>2021-05-24T10:01:16Z</time>
      </trkpt>
      <trkpt lat="43.42286" lon="2.4409">
        <ele>1032.712</ele>
        <time>2021-05-24T10:01:18Z</time>
      </trkpt>
      <trkpt lat="43.42287" lon="2.44093">
        <ele>1032.514</ele>
        <time>2021-05-24T10:01:20Z</time>
      </trkpt>
      <trkpt lat="43.42288" lon="2.44096">
        <ele>1033.098</ele>
        <time>2021-05-24T10:01:22Z</time>
      </trkpt>
      <trkpt lat="43.42288" lon="2.44099">
        <ele>1032.812</ele>
        <time>2021-05-24T10:01:24Z</time>
      </trkpt>
      <trkpt lat="43.42289" lon="2.44101">
        <ele>1033.316</ele>
        <time>2021-05-24T10:01:26Z</time>
      </trkpt>
      <trkpt lat="43.42289" lon="2.44105">
        <ele>1033.382</ele>
        <time>2021-05-24T10:01:28Z</time>
      </trkpt>
      <trkpt lat="43.42289" lon="2.44109">
        <ele>1033.511</ele>
        <time>2021-05-24T10:01:30Z</time>
      </trkpt>
      <trkpt lat="43.4229" lon="2.44112">
        <ele>1033.584</ele>
        <time>2021-05-24T10:01:32Z</time>
      </trkpt>
      <trkpt lat="43.4229" lon="2.44115">
        <ele>1032.931</ele>
        <time>2021-05-24T10:01:34Z</time>
      </trkpt>
      <trkpt lat="43.42291" lon="2.44118">
        <ele>1032.265</ele>
        <time>2021-05-24T10:01:36Z</time>
      </trkpt>
      <trkpt lat="43.42292" lon="2.4412">
        <ele>1031.546</ele>
        <time>2021-05-24T10:01:38Z</time>
      </trkpt>
      <trkpt lat="43.42295" lon="2.44122">
        <ele>1030.745</ele>
        <time>2021-05-24T10:01:40Z</time>
      </trkpt>
      <trkpt lat="43.42297" lon="2.44124">
        <ele>1030.502</ele>
        <time>2021-05-24T10:01:42Z</time>
      </trkpt>
      <trkpt lat="43.42298" lon="2.44126">
        <ele>1031.435</ele>
        <time>2021-05-24T10:01:44Z</time>
      </trkpt>
      <trkpt lat="43.423" lon="2.44128">
        <ele>1032.078</ele>
        <time>2021-05-24T10:01:46Z</time>
      </trkpt>
      <trkpt lat="43.42302" lon="2.4413">
        <ele>1032.277</ele>
        <time>2021-05-24T10:01:48Z</time>
      </trkpt>
      <trkpt lat="43.42304" lon="2.44132">
        <ele>1032.844</ele>
        <time>2021-05-24T10:01:50Z</time>
      </trkpt>
      <trkpt lat="43.42306" lon="2.44135">
        <ele>1033.815</ele>
        <time>2021-05-24T10:01:52Z</time>
      </trkpt>
      <trkpt lat="43.42308" lon="2.44136">
        <ele>1034.145</ele>
        <time>2021-05-24T10:01:54Z</time>
      </trkpt>
      <trkpt lat="43.4231" lon="2.44136">
        <ele>1033.6</ele>
        <time>2021-05-24T10:01:56Z</time>
      </trkpt>
      <trkpt lat="43.42312" lon="2.44137">
        <ele>1034.457</ele>
        <time>2021-05-24T10:01:58Z</time>
      </trkpt>
      <trkpt lat="43.42313" lon="2.44138">
        <ele>1034.339</ele>
        <time>2021-05-24T10:02:00Z</time>
      </trkpt>
      <trkpt lat="43.42315" lon="2.44139">
        <ele>1033.979</ele>
        <time>2021-05-24T10:02:02Z</time>
      </trkpt>
      <trkpt lat="43.42316" lon="2.44138">
        <ele>1032.484</ele>
        <time>2021-05-24T10:02:04Z</time>
      </trkpt>
      <trkpt lat="43.42315" lon="2.44138">
        <ele>1032.807</ele>
        <time>2021-05-24T10:02:06Z</time>
      </trkpt>
      <trkpt lat="43.42315" lon="2.44138">
        <ele>1032.809</ele>
        <time>2021-05-24T10:02:08Z</time>
      </trkpt>
      <trkpt lat="43.42315" lon="2.44138">
        <ele>1032.811</ele>
        <time>2021-05-24T10:02:10Z</time>
      </trkpt>
      <trkpt lat="43.42315" lon="2.44138">
        <ele>1032.818</ele>
        <time>2021-05-24T10:02:12Z</time>
      </trkpt>
      <trkpt lat="43.42315" lon="2.44138">
        <ele>1032.814</ele>
        <time>2021-05-24T10:02:14Z</time>
      </trkpt>
      <trkpt lat="43.42315" lon="2.44138">
        <ele>1032.82</ele>
        <time>2021-05-24T10:02:16Z</time>
      </trkpt>
      <trkpt lat="43.42315" lon="2.44138">
        <ele>1032.822</ele>
        <time>2021-05-24T10:02:18Z</time>
      </trkpt>
      <trkpt lat="43.42315" lon="2.44138">
        <ele>1033.157</ele>
        <time>2021-05-24T10:02:20Z</time>
      </trkpt>
      <trkpt lat="43.42315" lon="2.44139">
        <ele>1033.161</ele>
        <time>2021-05-24T10:02:22Z</time>
      </trkpt>
      <trkpt lat="43.42315" lon="2.44139">
        <ele>1033.162</ele>
        <time>2021-05-24T10:02:24Z</time>
      </trkpt>
      <trkpt lat="43.42315" lon="2.44139">
        <ele>1033.163</ele>
        <time>2021-05-24T10:02:26Z</time>
      </trkpt>
      <trkpt lat="43.42316" lon="2.44138">
        <ele>1033.259</ele>
        <time>2021-05-24T10:02:28Z</time>
      </trkpt>
      <trkpt lat="43.42316" lon="2.44139">
        <ele>1033.953</ele>
        <time>2021-05-24T10:02:30Z</time>
      </trkpt>
      <trkpt lat="43.42316" lon="2.44139">
        <ele>1033.961</ele>
        <time>2021-05-24T10:02:32Z</time>
      </trkpt>
      <trkpt lat="43.42316" lon="2.44139">
        <ele>1033.972</ele>
        <time>2021-05-24T10:02:34Z</time>
      </trkpt>
      <trkpt lat="43.42316" lon="2.44139">
        <ele>1033.982</ele>
        <time>2021-05-24T10:02:36Z</time>
      </trkpt>
      <trkpt lat="43.42316" lon="2.44139">
        <ele>1033.995</ele>
        <time>2021-05-24T10:02:38Z</time>
      </trkpt>
      <trkpt lat="43.42316" lon="2.44139">
        <ele>1033.995</ele>
        <time>2021-05-24T10:02:40Z</time>
      </trkpt>
      <trkpt lat="43.42316" lon="2.44139">
        <ele>1033.994</ele>
        <time>2021-05-24T10:02:42Z</time>
      </trkpt>
      <trkpt lat="43.42316" lon="2.44139">
        <ele>1033.995</ele>
        <time>2021-05-24T10:02:44Z</time>
      </trkpt>
      <trkpt lat="43.42316" lon="2.44139">
        <ele>1033.997</ele>
        <time>2021-05-24T10:02:46Z</time>
      </trkpt>
      <trkpt lat="43.42316" lon="2.44139">
        <ele>1033.994</ele>
        <time>2021-05-24T10:02:48Z</time>
      </trkpt>
      <trkpt lat="43.42316" lon="2.44139">
        <ele>1034.001</ele>
        <time>2021-05-24T10:02:50Z</time>
      </trkpt>
      <trkpt lat="43.42316" lon="2.44139">
        <ele>1034.013</ele>
        <time>2021-05-24T10:02:52Z</time>
      </trkpt>
      <trkpt lat="43.42316" lon="2.44139">
        <ele>1034.021</ele>
        <time>2021-05-24T10:02:54Z</time>
      </trkpt>
      <trkpt lat="43.42316" lon="2.44139">
        <ele>1034.022</ele>
        <time>2021-05-24T10:02:56Z</time>
      </trkpt>
      <trkpt lat="43.42316" lon="2.44139">
        <ele>1034.026</ele>
        <time>2021-05-24T10:02:58Z</time>
      </trkpt>
      <trkpt lat="43.42316" lon="2.44139">
        <ele>1034.026</ele>
        <time>2021-05-24T10:03:00Z</time>
      </trkpt>
      <trkpt lat="43.42317" lon="2.44139">
        <ele>1034.261</ele>
        <time>2021-05-24T10:03:02Z</time>
      </trkpt>
      <trkpt lat="43.42317" lon="2.44139">
        <ele>1034.624</ele>
        <time>2021-05-24T10:03:04Z</time>
      </trkpt>
      <trkpt lat="43.42317" lon="2.4414">
        <ele>1034.622</ele>
        <time>2021-05-24T10:03:06Z</time>
      </trkpt>
      <trkpt lat="43.42317" lon="2.4414">
        <ele>1034.623</ele>
        <time>2021-05-24T10:03:08Z</time>
      </trkpt>
      <trkpt lat="43.42317" lon="2.4414">
        <ele>1034.628</ele>
        <time>2021-05-24T10:03:10Z</time>
      </trkpt>
      <trkpt lat="43.42317" lon="2.4414">
        <ele>1034.629</ele>
        <time>2021-05-24T10:03:12Z</time>
      </trkpt>
      <trkpt lat="43.42317" lon="2.4414">
        <ele>1034.624</ele>
        <time>2021-05-24T10:03:14Z</time>
      </trkpt>
      <trkpt lat="43.42317" lon="2.4414">
        <ele>1034.627</ele>
        <time>2021-05-24T10:03:16Z</time>
      </trkpt>
      <trkpt lat="43.42317" lon="2.4414">
        <ele>1034.627</ele>
        <time>2021-05-24T10:03:18Z</time>
      </trkpt>
      <trkpt lat="43.42317" lon="2.4414">
        <ele>1034.625</ele>
        <time>2021-05-24T10:03:20Z</time>
      </trkpt>
      <trkpt lat="43.42317" lon="2.4414">
        <ele>1034.636</ele>
        <time>2021-05-24T10:03:22Z</time>
      </trkpt>
      <trkpt lat="43.42317" lon="2.4414">
        <ele>1034.639</ele>
        <time>2021-05-24T10:03:24Z</time>
      </trkpt>
      <trkpt lat="43.42317" lon="2.4414">
        <ele>1034.645</ele>
        <time>2021-05-24T10:03:26Z</time>
      </trkpt>
      <trkpt lat="43.42317" lon="2.4414">
        <ele>1034.648</ele>
        <time>2021-05-24T10:03:28Z</time>
      </trkpt>
      <trkpt lat="43.42317" lon="2.4414">
        <ele>1034.653</ele>
        <time>2021-05-24T10:03:30Z</time>
      </trkpt>
      <trkpt lat="43.42317" lon="2.4414">
        <ele>1034.658</ele>
        <time>2021-05-24T10:03:32Z</time>
      </trkpt>
      <trkpt lat="43.42317" lon="2.4414">
        <ele>1034.662</ele>
        <time>2021-05-24T10:03:34Z</time>
      </trkpt>
      <trkpt lat="43.42317" lon="2.4414">
        <ele>1034.662</ele>
        <time>2021-05-24T10:03:36Z</time>
      </trkpt>
      <trkpt lat="43.42317" lon="2.4414">
        <ele>1034.657</ele>
        <time>2021-05-24T10:03:38Z</time>
      </trkpt>
      <trkpt lat="43.42317" lon="2.4414">
        <ele>1034.652</ele>
        <time>2021-05-24T10:03:40Z</time>
      </trkpt>
      <trkpt lat="43.42317" lon="2.4414">
        <ele>1034.648</ele>
        <time>2021-05-24T10:03:42Z</time>
      </trkpt>
      <trkpt lat="43.42317" lon="2.4414">
        <ele>1034.648</ele>
        <time>2021-05-24T10:03:44Z</time>
      </trkpt>
      <trkpt lat="43.42317" lon="2.4414">
        <ele>1034.645</ele>
        <time>2021-05-24T10:03:46Z</time>
      </trkpt>
      <trkpt lat="43.42317" lon="2.4414">
        <ele>1034.645</ele>
        <time>2021-05-24T10:03:48Z</time>
      </trkpt>
      <trkpt lat="43.42317" lon="2.4414">
        <ele>1034.642</ele>
        <time>2021-05-24T10:03:50Z</time>
      </trkpt>
      <trkpt lat="43.42317" lon="2.4414">
        <ele>1035.03</ele>
        <time>2021-05-24T10:03:52Z</time>
      </trkpt>
      <trkpt lat="43.42317" lon="2.44141">
        <ele>1035.351</ele>
        <time>2021-05-24T10:03:54Z</time>
      </trkpt>
      <trkpt lat="43.42318" lon="2.44141">
        <ele>1035.461</ele>
        <time>2021-05-24T10:03:56Z</time>
      </trkpt>
      <trkpt lat="43.42318" lon="2.44141">
        <ele>1035.525</ele>
        <time>2021-05-24T10:03:58Z</time>
      </trkpt>
      <trkpt lat="43.42318" lon="2.44142">
        <ele>1035.492</ele>
        <time>2021-05-24T10:04:00Z</time>
      </trkpt>
      <trkpt lat="43.42318" lon="2.44143">
        <ele>1035.382</ele>
        <time>2021-05-24T10:04:02Z</time>
      </trkpt>
      <trkpt lat="43.42319" lon="2.44145">
        <ele>1035.112</ele>
        <time>2021-05-24T10:04:04Z</time>
      </trkpt>
      <trkpt lat="43.42319" lon="2.44147">
        <ele>1035.483</ele>
        <time>2021-05-24T10:04:06Z</time>
      </trkpt>
      <trkpt lat="43.42318" lon="2.44149">
        <ele>1035.627</ele>
        <time>2021-05-24T10:04:08Z</time>
      </trkpt>
      <trkpt lat="43.42318" lon="2.4415">
        <ele>1034.124</ele>
        <time>2021-05-24T10:04:10Z</time>
      </trkpt>
      <trkpt lat="43.42317" lon="2.44151">
        <ele>1034.107</ele>
        <time>2021-05-24T10:04:12Z</time>
      </trkpt>
      <trkpt lat="43.42317" lon="2.44153">
        <ele>1032.874</ele>
        <time>2021-05-24T10:04:14Z</time>
      </trkpt>
      <trkpt lat="43.42316" lon="2.44155">
        <ele>1033.72</ele>
        <time>2021-05-24T10:04:16Z</time>
      </trkpt>
      <trkpt lat="43.42315" lon="2.44158">
        <ele>1034.479</ele>
        <time>2021-05-24T10:04:18Z</time>
      </trkpt>
      <trkpt lat="43.42315" lon="2.4416">
        <ele>1034.637</ele>
        <time>2021-05-24T10:04:20Z</time>
      </trkpt>
      <trkpt lat="43.42315" lon="2.44162">
        <ele>1034.378</ele>
        <time>2021-05-24T10:04:22Z</time>
      </trkpt>
      <trkpt lat="43.42315" lon="2.44165">
        <ele>1034.112</ele>
        <time>2021-05-24T10:04:24Z</time>
      </trkpt>
      <trkpt lat="43.42315" lon="2.44168">
        <ele>1034.637</ele>
        <time>2021-05-24T10:04:26Z</time>
      </trkpt>
      <trkpt lat="43.42315" lon="2.44171">
        <ele>1035.155</ele>
        <time>2021-05-24T10:04:28Z</time>
      </trkpt>
      <trkpt lat="43.42315" lon="2.44175">
        <ele>1035.206</ele>
        <time>2021-05-24T10:04:30Z</time>
      </trkpt>
      <trkpt lat="43.42315" lon="2.44177">
        <ele>1035.657</ele>
        <time>2021-05-24T10:04:32Z</time>
      </trkpt>
      <trkpt lat="43.42315" lon="2.4418">
        <ele>1035.64</ele>
        <time>2021-05-24T10:04:34Z</time>
      </trkpt>
      <trkpt lat="43.42315" lon="2.44183">
        <ele>1036.09</ele>
        <time>2021-05-24T10:04:36Z</time>
      </trkpt>
      <trkpt lat="43.42315" lon="2.44186">
        <ele>1037.017</ele>
        <time>2021-05-24T10:04:38Z</time>
      </trkpt>
      <trkpt lat="43.42314" lon="2.44189">
        <ele>1036.255</ele>
        <time>2021-05-24T10:04:40Z</time>
      </trkpt>
      <trkpt lat="43.42314" lon="2.44192">
        <ele>1036.034</ele>
        <time>2021-05-24T10:04:42Z</time>
      </trkpt>
      <trkpt lat="43.42312" lon="2.44195">
        <ele>1035.554</ele>
        <time>2021-05-24T10:04:44Z</time>
      </trkpt>
      <trkpt lat="43.42312" lon="2.44198">
        <ele>1035.928</ele>
        <time>2021-05-24T10:04:46Z</time>
      </trkpt>
      <trkpt lat="43.4231" lon="2.44201">
        <ele>1037.028</ele>
        <time>2021-05-24T10:04:48Z</time>
      </trkpt>
      <trkpt lat="43.42309" lon="2.44203">
        <ele>1037.84</ele>
        <time>2021-05-24T10:04:50Z</time>
      </trkpt>
      <trkpt lat="43.42308" lon="2.44205">
        <ele>1037.945</ele>
        <time>2021-05-24T10:04:52Z</time>
      </trkpt>
      <trkpt lat="43.42306" lon="2.44208">
        <ele>1037.718</ele>
        <time>2021-05-24T10:04:54Z</time>
      </trkpt>
      <trkpt lat="43.42305" lon="2.4421">
        <ele>1037.494</ele>
        <time>2021-05-24T10:04:56Z</time>
      </trkpt>
      <trkpt lat="43.42304" lon="2.44213">
        <ele>1037.057</ele>
        <time>2021-05-24T10:04:58Z</time>
      </trkpt>
      <trkpt lat="43.42302" lon="2.44216">
        <ele>1037.366</ele>
        <time>2021-05-24T10:05:00Z</time>
      </trkpt>
      <trkpt lat="43.42301" lon="2.44219">
        <ele>1037.093</ele>
        <time>2021-05-24T10:05:02Z</time>
      </trkpt>
      <trkpt lat="43.423" lon="2.44222">
        <ele>1035.646</ele>
        <time>2021-05-24T10:05:04Z</time>
      </trkpt>
      <trkpt lat="43.42298" lon="2.44224">
        <ele>1036.919</ele>
        <time>2021-05-24T10:05:06Z</time>
      </trkpt>
      <trkpt lat="43.42297" lon="2.44226">
        <ele>1036.67</ele>
        <time>2021-05-24T10:05:08Z</time>
      </trkpt>
      <trkpt lat="43.42296" lon="2.44228">
        <ele>1036.738</ele>
        <time>2021-05-24T10:05:10Z</time>
      </trkpt>
      <trkpt lat="43.42294" lon="2.44231">
        <ele>1037.361</ele>
        <time>2021-05-24T10:05:12Z</time>
      </trkpt>
      <trkpt lat="43.42293" lon="2.44235">
        <ele>1036.929</ele>
        <time>2021-05-24T10:05:14Z</time>
      </trkpt>
      <trkpt lat="43.42292" lon="2.44238">
        <ele>1037.281</ele>
        <time>2021-05-24T10:05:16Z</time>
      </trkpt>
      <trkpt lat="43.42291" lon="2.4424">
        <ele>1037.259</ele>
        <time>2021-05-24T10:05:18Z</time>
      </trkpt>
      <trkpt lat="43.42289" lon="2.44243">
        <ele>1037.584</ele>
        <time>2021-05-24T10:05:20Z</time>
      </trkpt>
      <trkpt lat="43.42288" lon="2.44245">
        <ele>1036.627</ele>
        <time>2021-05-24T10:05:22Z</time>
      </trkpt>
      <trkpt lat="43.42287" lon="2.44248">
        <ele>1035.889</ele>
        <time>2021-05-24T10:05:24Z</time>
      </trkpt>
      <trkpt lat="43.42286" lon="2.44251">
        <ele>1035.989</ele>
        <time>2021-05-24T10:05:26Z</time>
      </trkpt>
      <trkpt lat="43.42285" lon="2.44254">
        <ele>1036.19</ele>
        <time>2021-05-24T10:05:28Z</time>
      </trkpt>
      <trkpt lat="43.42284" lon="2.44257">
        <ele>1035.785</ele>
        <time>2021-05-24T10:05:30Z</time>
      </trkpt>
      <trkpt lat="43.42282" lon="2.44261">
        <ele>1036.561</ele>
        <time>2021-05-24T10:05:32Z</time>
      </trkpt>
      <trkpt lat="43.42282" lon="2.44264">
        <ele>1036.202</ele>
        <time>2021-05-24T10:05:34Z</time>
      </trkpt>
      <trkpt lat="43.42281" lon="2.44267">
        <ele>1036.913</ele>
        <time>2021-05-24T10:05:36Z</time>
      </trkpt>
      <trkpt lat="43.4228" lon="2.4427">
        <ele>1037.477</ele>
        <time>2021-05-24T10:05:38Z</time>
      </trkpt>
      <trkpt lat="43.42279" lon="2.44272">
        <ele>1036.9</ele>
        <time>2021-05-24T10:05:40Z</time>
      </trkpt>
      <trkpt lat="43.42278" lon="2.44275">
        <ele>1036.892</ele>
        <time>2021-05-24T10:05:42Z</time>
      </trkpt>
      <trkpt lat="43.42277" lon="2.44278">
        <ele>1037.177</ele>
        <time>2021-05-24T10:05:44Z</time>
      </trkpt>
      <trkpt lat="43.42277" lon="2.4428">
        <ele>1037.387</ele>
        <time>2021-05-24T10:05:46Z</time>
      </trkpt>
      <trkpt lat="43.42275" lon="2.44283">
        <ele>1038.609</ele>
        <time>2021-05-24T10:05:48Z</time>
      </trkpt>
      <trkpt lat="43.42274" lon="2.44286">
        <ele>1038.8</ele>
        <time>2021-05-24T10:05:50Z</time>
      </trkpt>
      <trkpt lat="43.42273" lon="2.4429">
        <ele>1040.338</ele>
        <time>2021-05-24T10:05:52Z</time>
      </trkpt>
      <trkpt lat="43.42272" lon="2.44293">
        <ele>1041.382</ele>
        <time>2021-05-24T10:05:54Z</time>
      </trkpt>
      <trkpt lat="43.42271" lon="2.44295">
        <ele>1042.516</ele>
        <time>2021-05-24T10:05:56Z</time>
      </trkpt>
      <trkpt lat="43.4227" lon="2.44298">
        <ele>1043.559</ele>
        <time>2021-05-24T10:05:58Z</time>
      </trkpt>
      <trkpt lat="43.42268" lon="2.44301">
        <ele>1044.401</ele>
        <time>2021-05-24T10:06:00Z</time>
      </trkpt>
      <trkpt lat="43.42267" lon="2.44304">
        <ele>1043.297</ele>
        <time>2021-05-24T10:06:02Z</time>
      </trkpt>
      <trkpt lat="43.42266" lon="2.44308">
        <ele>1042.871</ele>
        <time>2021-05-24T10:06:04Z</time>
      </trkpt>
      <trkpt lat="43.42265" lon="2.44312">
        <ele>1044.324</ele>
        <time>2021-05-24T10:06:06Z</time>
      </trkpt>
      <trkpt lat="43.42264" lon="2.44315">
        <ele>1044.814</ele>
        <time>2021-05-24T10:06:08Z</time>
      </trkpt>
      <trkpt lat="43.42263" lon="2.44318">
        <ele>1046.045</ele>
        <time>2021-05-24T10:06:10Z</time>
      </trkpt>
      <trkpt lat="43.42262" lon="2.44321">
        <ele>1046.608</ele>
        <time>2021-05-24T10:06:12Z</time>
      </trkpt>
      <trkpt lat="43.42261" lon="2.44325">
        <ele>1047.196</ele>
        <time>2021-05-24T10:06:14Z</time>
      </trkpt>
      <trkpt lat="43.4226" lon="2.44327">
        <ele>1048.241</ele>
        <time>2021-05-24T10:06:16Z</time>
      </trkpt>
      <trkpt lat="43.42259" lon="2.4433">
        <ele>1048.327</ele>
        <time>2021-05-24T10:06:18Z</time>
      </trkpt>
      <trkpt lat="43.42257" lon="2.44334">
        <ele>1049.256</ele>
        <time>2021-05-24T10:06:20Z</time>
      </trkpt>
      <trkpt lat="43.42256" lon="2.44336">
        <ele>1049.304</ele>
        <time>2021-05-24T10:06:22Z</time>
      </trkpt>
      <trkpt lat="43.42254" lon="2.4434">
        <ele>1049.934</ele>
        <time>2021-05-24T10:06:24Z</time>
      </trkpt>
      <trkpt lat="43.42253" lon="2.44343">
        <ele>1049.836</ele>
        <time>2021-05-24T10:06:26Z</time>
      </trkpt>
      <trkpt lat="43.42252" lon="2.44345">
        <ele>1050.402</ele>
        <time>2021-05-24T10:06:28Z</time>
      </trkpt>
      <trkpt lat="43.42251" lon="2.44348">
        <ele>1050.531</ele>
        <time>2021-05-24T10:06:30Z</time>
      </trkpt>
      <trkpt lat="43.42249" lon="2.44351">
        <ele>1051.571</ele>
        <time>2021-05-24T10:06:32Z</time>
      </trkpt>
      <trkpt lat="43.42247" lon="2.44354">
        <ele>1053.79</ele>
        <time>2021-05-24T10:06:34Z</time>
      </trkpt>
      <trkpt lat="43.42247" lon="2.44357">
        <ele>1051.779</ele>
        <time>2021-05-24T10:06:36Z</time>
      </trkpt>
      <trkpt lat="43.42247" lon="2.44361">
        <ele>1051.852</ele>
        <time>2021-05-24T10:06:38Z</time>
      </trkpt>
      <trkpt lat="43.42246" lon="2.44363">
        <ele>1052.363</ele>
        <time>2021-05-24T10:06:40Z</time>
      </trkpt>
      <trkpt lat="43.42245" lon="2.44366">
        <ele>1054.418</ele>
        <time>2021-05-24T10:06:42Z</time>
      </trkpt>
      <trkpt lat="43.42243" lon="2.44371">
        <ele>1054.819</ele>
        <time>2021-05-24T10:06:44Z</time>
      </trkpt>
      <trkpt lat="43.42242" lon="2.44374">
        <ele>1054.69</ele>
        <time>2021-05-24T10:06:46Z</time>
      </trkpt>
      <trkpt lat="43.42241" lon="2.44376">
        <ele>1052.58</ele>
        <time>2021-05-24T10:06:48Z</time>
      </trkpt>
      <trkpt lat="43.42239" lon="2.44379">
        <ele>1054.476</ele>
        <time>2021-05-24T10:06:50Z</time>
      </trkpt>
      <trkpt lat="43.42237" lon="2.44382">
        <ele>1054.543</ele>
        <time>2021-05-24T10:06:52Z</time>
      </trkpt>
      <trkpt lat="43.42236" lon="2.44384">
        <ele>1055.55</ele>
        <time>2021-05-24T10:06:54Z</time>
      </trkpt>
      <trkpt lat="43.42235" lon="2.44387">
        <ele>1054.634</ele>
        <time>2021-05-24T10:06:56Z</time>
      </trkpt>
      <trkpt lat="43.42234" lon="2.44389">
        <ele>1055.867</ele>
        <time>2021-05-24T10:06:58Z</time>
      </trkpt>
      <trkpt lat="43.42233" lon="2.44391">
        <ele>1055.577</ele>
        <time>2021-05-24T10:07:00Z</time>
      </trkpt>
      <trkpt lat="43.42231" lon="2.44395">
        <ele>1055.58</ele>
        <time>2021-05-24T10:07:02Z</time>
      </trkpt>
      <trkpt lat="43.42229" lon="2.44399">
        <ele>1054.901</ele>
        <time>2021-05-24T10:07:04Z</time>
      </trkpt>
      <trkpt lat="43.42228" lon="2.44403">
        <ele>1055.861</ele>
        <time>2021-05-24T10:07:06Z</time>
      </trkpt>
      <trkpt lat="43.42227" lon="2.44406">
        <ele>1055.236</ele>
        <time>2021-05-24T10:07:08Z</time>
      </trkpt>
      <trkpt lat="43.42226" lon="2.4441">
        <ele>1055.925</ele>
        <time>2021-05-24T10:07:10Z</time>
      </trkpt>
      <trkpt lat="43.42225" lon="2.44412">
        <ele>1057.359</ele>
        <time>2021-05-24T10:07:12Z</time>
      </trkpt>
      <trkpt lat="43.42223" lon="2.44415">
        <ele>1057.204</ele>
        <time>2021-05-24T10:07:14Z</time>
      </trkpt>
      <trkpt lat="43.42222" lon="2.44418">
        <ele>1056.229</ele>
        <time>2021-05-24T10:07:16Z</time>
      </trkpt>
      <trkpt lat="43.42221" lon="2.44421">
        <ele>1054.903</ele>
        <time>2021-05-24T10:07:18Z</time>
      </trkpt>
      <trkpt lat="43.42219" lon="2.44424">
        <ele>1054.532</ele>
        <time>2021-05-24T10:07:20Z</time>
      </trkpt>
      <trkpt lat="43.42218" lon="2.44427">
        <ele>1055.453</ele>
        <time>2021-05-24T10:07:22Z</time>
      </trkpt>
      <trkpt lat="43.42218" lon="2.4443">
        <ele>1052.749</ele>
        <time>2021-05-24T10:07:24Z</time>
      </trkpt>
      <trkpt lat="43.42217" lon="2.44433">
        <ele>1049.795</ele>
        <time>2021-05-24T10:07:26Z</time>
      </trkpt>
      <trkpt lat="43.42216" lon="2.44436">
        <ele>1048.75</ele>
        <time>2021-05-24T10:07:28Z</time>
      </trkpt>
      <trkpt lat="43.42215" lon="2.44439">
        <ele>1048.024</ele>
        <time>2021-05-24T10:07:30Z</time>
      </trkpt>
      <trkpt lat="43.42214" lon="2.44443">
        <ele>1049.24</ele>
        <time>2021-05-24T10:07:32Z</time>
      </trkpt>
      <trkpt lat="43.42213" lon="2.44447">
        <ele>1049.235</ele>
        <time>2021-05-24T10:07:34Z</time>
      </trkpt>
      <trkpt lat="43.42212" lon="2.4445">
        <ele>1049.184</ele>
        <time>2021-05-24T10:07:36Z</time>
      </trkpt>
      <trkpt lat="43.42211" lon="2.44455">
        <ele>1048.953</ele>
        <time>2021-05-24T10:07:38Z</time>
      </trkpt>
      <trkpt lat="43.42211" lon="2.44459">
        <ele>1048.105</ele>
        <time>2021-05-24T10:07:40Z</time>
      </trkpt>
      <trkpt lat="43.42209" lon="2.44461">
        <ele>1050.901</ele>
        <time>2021-05-24T10:07:42Z</time>
      </trkpt>
      <trkpt lat="43.42208" lon="2.44464">
        <ele>1053.243</ele>
        <time>2021-05-24T10:07:44Z</time>
      </trkpt>
      <trkpt lat="43.42208" lon="2.44467">
        <ele>1052.592</ele>
        <time>2021-05-24T10:07:46Z</time>
      </trkpt>
      <trkpt lat="43.42202" lon="2.44466">
        <ele>1050.38</ele>
        <time>2021-05-24T10:07:48Z</time>
      </trkpt>
      <trkpt lat="43.42199" lon="2.44469">
        <ele>1050.95</ele>
        <time>2021-05-24T10:07:50Z</time>
      </trkpt>
      <trkpt lat="43.42198" lon="2.4447">
        <ele>1053.319</ele>
        <time>2021-05-24T10:07:52Z</time>
      </trkpt>
      <trkpt lat="43.42199" lon="2.4447">
        <ele>1053.686</ele>
        <time>2021-05-24T10:07:54Z</time>
      </trkpt>
      <trkpt lat="43.42199" lon="2.4447">
        <ele>1053.682</ele>
        <time>2021-05-24T10:07:56Z</time>
      </trkpt>
      <trkpt lat="43.42199" lon="2.4447">
        <ele>1053.679</ele>
        <time>2021-05-24T10:07:58Z</time>
      </trkpt>
      <trkpt lat="43.42199" lon="2.4447">
        <ele>1053.69</ele>
        <time>2021-05-24T10:08:00Z</time>
      </trkpt>
      <trkpt lat="43.42199" lon="2.4447">
        <ele>1053.682</ele>
        <time>2021-05-24T10:08:02Z</time>
      </trkpt>
      <trkpt lat="43.42199" lon="2.4447">
        <ele>1053.93</ele>
        <time>2021-05-24T10:08:04Z</time>
      </trkpt>
      <trkpt lat="43.42199" lon="2.44473">
        <ele>1052.126</ele>
        <time>2021-05-24T10:08:06Z</time>
      </trkpt>
      <trkpt lat="43.42198" lon="2.44477">
        <ele>1056.555</ele>
        <time>2021-05-24T10:08:08Z</time>
      </trkpt>
      <trkpt lat="43.42197" lon="2.44482">
        <ele>1059.481</ele>
        <time>2021-05-24T10:08:10Z</time>
      </trkpt>
      <trkpt lat="43.42196" lon="2.44486">
        <ele>1060.045</ele>
        <time>2021-05-24T10:08:12Z</time>
      </trkpt>
      <trkpt lat="43.42204" lon="2.4448">
        <ele>1048.068</ele>
        <time>2021-05-24T10:08:14Z</time>
      </trkpt>
      <trkpt lat="43.42204" lon="2.4448">
        <ele>1047.39</ele>
        <time>2021-05-24T10:08:16Z</time>
      </trkpt>
      <trkpt lat="43.42203" lon="2.44482">
        <ele>1049.347</ele>
        <time>2021-05-24T10:08:18Z</time>
      </trkpt>
      <trkpt lat="43.42202" lon="2.44485">
        <ele>1048.724</ele>
        <time>2021-05-24T10:08:20Z</time>
      </trkpt>
      <trkpt lat="43.422" lon="2.44489">
        <ele>1045.689</ele>
        <time>2021-05-24T10:08:22Z</time>
      </trkpt>
      <trkpt lat="43.42199" lon="2.44493">
        <ele>1045.468</ele>
        <time>2021-05-24T10:08:24Z</time>
      </trkpt>
      <trkpt lat="43.42197" lon="2.44497">
        <ele>1044.201</ele>
        <time>2021-05-24T10:08:26Z</time>
      </trkpt>
      <trkpt lat="43.42197" lon="2.44499">
        <ele>1041.657</ele>
        <time>2021-05-24T10:08:28Z</time>
      </trkpt>
      <trkpt lat="43.42195" lon="2.44503">
        <ele>1041.76</ele>
        <time>2021-05-24T10:08:30Z</time>
      </trkpt>
      <trkpt lat="43.42193" lon="2.44507">
        <ele>1041.665</ele>
        <time>2021-05-24T10:08:32Z</time>
      </trkpt>
      <trkpt lat="43.42191" lon="2.44511">
        <ele>1042.418</ele>
        <time>2021-05-24T10:08:34Z</time>
      </trkpt>
      <trkpt lat="43.42189" lon="2.44515">
        <ele>1044.485</ele>
        <time>2021-05-24T10:08:36Z</time>
      </trkpt>
      <trkpt lat="43.42188" lon="2.44519">
        <ele>1045.46</ele>
        <time>2021-05-24T10:08:38Z</time>
      </trkpt>
      <trkpt lat="43.42186" lon="2.44523">
        <ele>1047.431</ele>
        <time>2021-05-24T10:08:40Z</time>
      </trkpt>
      <trkpt lat="43.42183" lon="2.44527">
        <ele>1052.868</ele>
        <time>2021-05-24T10:08:42Z</time>
      </trkpt>
      <trkpt lat="43.42181" lon="2.44531">
        <ele>1052.446</ele>
        <time>2021-05-24T10:08:44Z</time>
      </trkpt>
      <trkpt lat="43.4218" lon="2.44534">
        <ele>1052.137</ele>
        <time>2021-05-24T10:08:46Z</time>
      </trkpt>
      <trkpt lat="43.42178" lon="2.44536">
        <ele>1052.945</ele>
        <time>2021-05-24T10:08:48Z</time>
      </trkpt>
      <trkpt lat="43.42177" lon="2.44539">
        <ele>1053.708</ele>
        <time>2021-05-24T10:08:50Z</time>
      </trkpt>
      <trkpt lat="43.42176" lon="2.44542">
        <ele>1054.699</ele>
        <time>2021-05-24T10:08:52Z</time>
      </trkpt>
      <trkpt lat="43.42175" lon="2.44545">
        <ele>1052.818</ele>
        <time>2021-05-24T10:08:54Z</time>
      </trkpt>
      <trkpt lat="43.42174" lon="2.44547">
        <ele>1050.735</ele>
        <time>2021-05-24T10:08:56Z</time>
      </trkpt>
      <trkpt lat="43.42174" lon="2.44551">
        <ele>1050.866</ele>
        <time>2021-05-24T10:08:58Z</time>
      </trkpt>
      <trkpt lat="43.42172" lon="2.44555">
        <ele>1051.796</ele>
        <time>2021-05-24T10:09:00Z</time>
      </trkpt>
      <trkpt lat="43.42171" lon="2.44559">
        <ele>1051.653</ele>
        <time>2021-05-24T10:09:02Z</time>
      </trkpt>
      <trkpt lat="43.4217" lon="2.44561">
        <ele>1050.972</ele>
        <time>2021-05-24T10:09:04Z</time>
      </trkpt>
      <trkpt lat="43.42168" lon="2.44563">
        <ele>1050.643</ele>
        <time>2021-05-24T10:09:06Z</time>
      </trkpt>
      <trkpt lat="43.42167" lon="2.44565">
        <ele>1050.72</ele>
        <time>2021-05-24T10:09:08Z</time>
      </trkpt>
      <trkpt lat="43.42165" lon="2.44568">
        <ele>1050.694</ele>
        <time>2021-05-24T10:09:10Z</time>
      </trkpt>
      <trkpt lat="43.42164" lon="2.44571">
        <ele>1048.93</ele>
        <time>2021-05-24T10:09:12Z</time>
      </trkpt>
      <trkpt lat="43.42162" lon="2.44573">
        <ele>1048.701</ele>
        <time>2021-05-24T10:09:14Z</time>
      </trkpt>
      <trkpt lat="43.42161" lon="2.44576">
        <ele>1047.756</ele>
        <time>2021-05-24T10:09:16Z</time>
      </trkpt>
      <trkpt lat="43.42159" lon="2.44578">
        <ele>1046.982</ele>
        <time>2021-05-24T10:09:18Z</time>
      </trkpt>
      <trkpt lat="43.42158" lon="2.44581">
        <ele>1045.285</ele>
        <time>2021-05-24T10:09:20Z</time>
      </trkpt>
      <trkpt lat="43.42156" lon="2.44584">
        <ele>1045.811</ele>
        <time>2021-05-24T10:09:22Z</time>
      </trkpt>
      <trkpt lat="43.42155" lon="2.44588">
        <ele>1046.423</ele>
        <time>2021-05-24T10:09:24Z</time>
      </trkpt>
      <trkpt lat="43.42155" lon="2.44591">
        <ele>1045.828</ele>
        <time>2021-05-24T10:09:26Z</time>
      </trkpt>
      <trkpt lat="43.42154" lon="2.44594">
        <ele>1047.802</ele>
        <time>2021-05-24T10:09:28Z</time>
      </trkpt>
      <trkpt lat="43.42154" lon="2.44598">
        <ele>1048.301</ele>
        <time>2021-05-24T10:09:30Z</time>
      </trkpt>
      <trkpt lat="43.42154" lon="2.44602">
        <ele>1047.823</ele>
        <time>2021-05-24T10:09:32Z</time>
      </trkpt>
      <trkpt lat="43.42153" lon="2.44606">
        <ele>1048.024</ele>
        <time>2021-05-24T10:09:34Z</time>
      </trkpt>
      <trkpt lat="43.42152" lon="2.4461">
        <ele>1049.368</ele>
        <time>2021-05-24T10:09:36Z</time>
      </trkpt>
      <trkpt lat="43.42152" lon="2.44612">
        <ele>1048.991</ele>
        <time>2021-05-24T10:09:38Z</time>
      </trkpt>
      <trkpt lat="43.42151" lon="2.44615">
        <ele>1048.744</ele>
        <time>2021-05-24T10:09:40Z</time>
      </trkpt>
      <trkpt lat="43.4215" lon="2.44619">
        <ele>1051.484</ele>
        <time>2021-05-24T10:09:42Z</time>
      </trkpt>
      <trkpt lat="43.42149" lon="2.44623">
        <ele>1052.356</ele>
        <time>2021-05-24T10:09:44Z</time>
      </trkpt>
      <trkpt lat="43.42148" lon="2.44625">
        <ele>1052.347</ele>
        <time>2021-05-24T10:09:46Z</time>
      </trkpt>
      <trkpt lat="43.42147" lon="2.44627">
        <ele>1053.159</ele>
        <time>2021-05-24T10:09:48Z</time>
      </trkpt>
      <trkpt lat="43.42148" lon="2.44625">
        <ele>1050.699</ele>
        <time>2021-05-24T10:09:50Z</time>
      </trkpt>
      <trkpt lat="43.42148" lon="2.44625">
        <ele>1050.676</ele>
        <time>2021-05-24T10:09:52Z</time>
      </trkpt>
      <trkpt lat="43.42148" lon="2.44625">
        <ele>1050.67</ele>
        <time>2021-05-24T10:09:54Z</time>
      </trkpt>
      <trkpt lat="43.42148" lon="2.44625">
        <ele>1050.661</ele>
        <time>2021-05-24T10:09:56Z</time>
      </trkpt>
      <trkpt lat="43.42148" lon="2.44625">
        <ele>1050.653</ele>
        <time>2021-05-24T10:09:58Z</time>
      </trkpt>
      <trkpt lat="43.42148" lon="2.44625">
        <ele>1050.649</ele>
        <time>2021-05-24T10:10:00Z</time>
      </trkpt>
      <trkpt lat="43.42148" lon="2.44625">
        <ele>1050.644</ele>
        <time>2021-05-24T10:10:02Z</time>
      </trkpt>
      <trkpt lat="43.42148" lon="2.44625">
        <ele>1050.636</ele>
        <time>2021-05-24T10:10:04Z</time>
      </trkpt>
      <trkpt lat="43.42148" lon="2.44625">
        <ele>1050.633</ele>
        <time>2021-05-24T10:10:06Z</time>
      </trkpt>
      <trkpt lat="43.42148" lon="2.44626">
        <ele>1050.604</ele>
        <time>2021-05-24T10:10:08Z</time>
      </trkpt>
      <trkpt lat="43.42147" lon="2.44628">
        <ele>1050.62</ele>
        <time>2021-05-24T10:10:10Z</time>
      </trkpt>
      <trkpt lat="43.42146" lon="2.4463">
        <ele>1049.672</ele>
        <time>2021-05-24T10:10:12Z</time>
      </trkpt>
      <trkpt lat="43.42144" lon="2.44632">
        <ele>1048.194</ele>
        <time>2021-05-24T10:10:14Z</time>
      </trkpt>
      <trkpt lat="43.42143" lon="2.44634">
        <ele>1048.384</ele>
        <time>2021-05-24T10:10:16Z</time>
      </trkpt>
      <trkpt lat="43.42142" lon="2.44637">
        <ele>1047.401</ele>
        <time>2021-05-24T10:10:18Z</time>
      </trkpt>
      <trkpt lat="43.42141" lon="2.4464">
        <ele>1046.477</ele>
        <time>2021-05-24T10:10:20Z</time>
      </trkpt>
      <trkpt lat="43.42139" lon="2.44644">
        <ele>1045.589</ele>
        <time>2021-05-24T10:10:23Z</time>
      </trkpt>
      <trkpt lat="43.42138" lon="2.44646">
        <ele>1046.252</ele>
        <time>2021-05-24T10:10:25Z</time>
      </trkpt>
      <trkpt lat="43.42136" lon="2.44649">
        <ele>1050.278</ele>
        <time>2021-05-24T10:10:27Z</time>
      </trkpt>
      <trkpt lat="43.42135" lon="2.44651">
        <ele>1051.203</ele>
        <time>2021-05-24T10:10:28Z</time>
      </trkpt>
      <trkpt lat="43.42133" lon="2.44655">
        <ele>1050.875</ele>
        <time>2021-05-24T10:10:31Z</time>
      </trkpt>
      <trkpt lat="43.42132" lon="2.44658">
        <ele>1048.787</ele>
        <time>2021-05-24T10:10:33Z</time>
      </trkpt>
      <trkpt lat="43.42131" lon="2.4466">
        <ele>1045.688</ele>
        <time>2021-05-24T10:10:35Z</time>
      </trkpt>
      <trkpt lat="43.4213" lon="2.44663">
        <ele>1045.862</ele>
        <time>2021-05-24T10:10:37Z</time>
      </trkpt>
      <trkpt lat="43.42129" lon="2.44665">
        <ele>1045.767</ele>
        <time>2021-05-24T10:10:39Z</time>
      </trkpt>
      <trkpt lat="43.42128" lon="2.44667">
        <ele>1045.317</ele>
        <time>2021-05-24T10:10:41Z</time>
      </trkpt>
      <trkpt lat="43.42126" lon="2.4467">
        <ele>1045.195</ele>
        <time>2021-05-24T10:10:43Z</time>
      </trkpt>
      <trkpt lat="43.42125" lon="2.44672">
        <ele>1044.399</ele>
        <time>2021-05-24T10:10:45Z</time>
      </trkpt>
      <trkpt lat="43.42124" lon="2.44675">
        <ele>1043.209</ele>
        <time>2021-05-24T10:10:47Z</time>
      </trkpt>
      <trkpt lat="43.42124" lon="2.44678">
        <ele>1042.519</ele>
        <time>2021-05-24T10:10:49Z</time>
      </trkpt>
      <trkpt lat="43.42123" lon="2.44681">
        <ele>1043.966</ele>
        <time>2021-05-24T10:10:51Z</time>
      </trkpt>
      <trkpt lat="43.42122" lon="2.44684">
        <ele>1044.717</ele>
        <time>2021-05-24T10:10:53Z</time>
      </trkpt>
      <trkpt lat="43.42121" lon="2.44687">
        <ele>1044.707</ele>
        <time>2021-05-24T10:10:55Z</time>
      </trkpt>
      <trkpt lat="43.4212" lon="2.44691">
        <ele>1043.628</ele>
        <time>2021-05-24T10:10:57Z</time>
      </trkpt>
      <trkpt lat="43.4212" lon="2.44694">
        <ele>1044.697</ele>
        <time>2021-05-24T10:10:59Z</time>
      </trkpt>
      <trkpt lat="43.42118" lon="2.44696">
        <ele>1046.267</ele>
        <time>2021-05-24T10:11:01Z</time>
      </trkpt>
      <trkpt lat="43.42118" lon="2.44699">
        <ele>1046.764</ele>
        <time>2021-05-24T10:11:03Z</time>
      </trkpt>
      <trkpt lat="43.42117" lon="2.44702">
        <ele>1043.827</ele>
        <time>2021-05-24T10:11:05Z</time>
      </trkpt>
      <trkpt lat="43.42116" lon="2.44705">
        <ele>1043.037</ele>
        <time>2021-05-24T10:11:07Z</time>
      </trkpt>
      <trkpt lat="43.42115" lon="2.44707">
        <ele>1043.243</ele>
        <time>2021-05-24T10:11:09Z</time>
      </trkpt>
      <trkpt lat="43.42115" lon="2.4471">
        <ele>1043.208</ele>
        <time>2021-05-24T10:11:11Z</time>
      </trkpt>
      <trkpt lat="43.42113" lon="2.44713">
        <ele>1041.899</ele>
        <time>2021-05-24T10:11:13Z</time>
      </trkpt>
      <trkpt lat="43.42112" lon="2.44715">
        <ele>1042.665</ele>
        <time>2021-05-24T10:11:15Z</time>
      </trkpt>
      <trkpt lat="43.42111" lon="2.44717">
        <ele>1045.437</ele>
        <time>2021-05-24T10:11:17Z</time>
      </trkpt>
      <trkpt lat="43.4211" lon="2.4472">
        <ele>1044.54</ele>
        <time>2021-05-24T10:11:19Z</time>
      </trkpt>
      <trkpt lat="43.42109" lon="2.44723">
        <ele>1042.319</ele>
        <time>2021-05-24T10:11:21Z</time>
      </trkpt>
      <trkpt lat="43.42108" lon="2.44725">
        <ele>1041.949</ele>
        <time>2021-05-24T10:11:23Z</time>
      </trkpt>
      <trkpt lat="43.42107" lon="2.44728">
        <ele>1042.275</ele>
        <time>2021-05-24T10:11:25Z</time>
      </trkpt>
      <trkpt lat="43.42106" lon="2.44731">
        <ele>1043.312</ele>
        <time>2021-05-24T10:11:27Z</time>
      </trkpt>
      <trkpt lat="43.42106" lon="2.44735">
        <ele>1043.591</ele>
        <time>2021-05-24T10:11:29Z</time>
      </trkpt>
      <trkpt lat="43.42106" lon="2.44738">
        <ele>1041.61</ele>
        <time>2021-05-24T10:11:31Z</time>
      </trkpt>
      <trkpt lat="43.42107" lon="2.4474">
        <ele>1041.464</ele>
        <time>2021-05-24T10:11:33Z</time>
      </trkpt>
      <trkpt lat="43.42109" lon="2.44741">
        <ele>1038.834</ele>
        <time>2021-05-24T10:11:35Z</time>
      </trkpt>
      <trkpt lat="43.4211" lon="2.44742">
        <ele>1038.012</ele>
        <time>2021-05-24T10:11:37Z</time>
      </trkpt>
      <trkpt lat="43.42112" lon="2.44743">
        <ele>1036.882</ele>
        <time>2021-05-24T10:11:39Z</time>
      </trkpt>
      <trkpt lat="43.42113" lon="2.44745">
        <ele>1036.157</ele>
        <time>2021-05-24T10:11:41Z</time>
      </trkpt>
      <trkpt lat="43.42115" lon="2.44746">
        <ele>1036.061</ele>
        <time>2021-05-24T10:11:43Z</time>
      </trkpt>
      <trkpt lat="43.42116" lon="2.44748">
        <ele>1037.559</ele>
        <time>2021-05-24T10:11:45Z</time>
      </trkpt>
      <trkpt lat="43.42117" lon="2.4475">
        <ele>1038.59</ele>
        <time>2021-05-24T10:11:47Z</time>
      </trkpt>
      <trkpt lat="43.42118" lon="2.44752">
        <ele>1040.369</ele>
        <time>2021-05-24T10:11:49Z</time>
      </trkpt>
      <trkpt lat="43.42119" lon="2.44753">
        <ele>1041.453</ele>
        <time>2021-05-24T10:11:51Z</time>
      </trkpt>
      <trkpt lat="43.4212" lon="2.44753">
        <ele>1042.325</ele>
        <time>2021-05-24T10:11:53Z</time>
      </trkpt>
      <trkpt lat="43.42121" lon="2.44753">
        <ele>1042.949</ele>
        <time>2021-05-24T10:11:55Z</time>
      </trkpt>
      <trkpt lat="43.42122" lon="2.44755">
        <ele>1045.542</ele>
        <time>2021-05-24T10:11:57Z</time>
      </trkpt>
      <trkpt lat="43.42124" lon="2.44756">
        <ele>1044.662</ele>
        <time>2021-05-24T10:11:59Z</time>
      </trkpt>
      <trkpt lat="43.42125" lon="2.44757">
        <ele>1044.113</ele>
        <time>2021-05-24T10:12:01Z</time>
      </trkpt>
      <trkpt lat="43.42126" lon="2.44759">
        <ele>1044.621</ele>
        <time>2021-05-24T10:12:03Z</time>
      </trkpt>
      <trkpt lat="43.42128" lon="2.44759">
        <ele>1042.909</ele>
        <time>2021-05-24T10:12:05Z</time>
      </trkpt>
      <trkpt lat="43.42129" lon="2.4476">
        <ele>1042.828</ele>
        <time>2021-05-24T10:12:07Z</time>
      </trkpt>
      <trkpt lat="43.42131" lon="2.44761">
        <ele>1042.912</ele>
        <time>2021-05-24T10:12:09Z</time>
      </trkpt>
      <trkpt lat="43.42132" lon="2.44762">
        <ele>1043.596</ele>
        <time>2021-05-24T10:12:11Z</time>
      </trkpt>
      <trkpt lat="43.42134" lon="2.44763">
        <ele>1044.077</ele>
        <time>2021-05-24T10:12:13Z</time>
      </trkpt>
      <trkpt lat="43.42135" lon="2.44765">
        <ele>1045.522</ele>
        <time>2021-05-24T10:12:15Z</time>
      </trkpt>
      <trkpt lat="43.42136" lon="2.44766">
        <ele>1045.895</ele>
        <time>2021-05-24T10:12:17Z</time>
      </trkpt>
      <trkpt lat="43.42137" lon="2.44768">
        <ele>1045.318</ele>
        <time>2021-05-24T10:12:19Z</time>
      </trkpt>
      <trkpt lat="43.42138" lon="2.44769">
        <ele>1047.067</ele>
        <time>2021-05-24T10:12:21Z</time>
      </trkpt>
      <trkpt lat="43.42139" lon="2.4477">
        <ele>1046.469</ele>
        <time>2021-05-24T10:12:23Z</time>
      </trkpt>
      <trkpt lat="43.42141" lon="2.44771">
        <ele>1048.245</ele>
        <time>2021-05-24T10:12:25Z</time>
      </trkpt>
      <trkpt lat="43.42142" lon="2.44774">
        <ele>1049.753</ele>
        <time>2021-05-24T10:12:27Z</time>
      </trkpt>
      <trkpt lat="43.42143" lon="2.44775">
        <ele>1049.659</ele>
        <time>2021-05-24T10:12:29Z</time>
      </trkpt>
      <trkpt lat="43.42144" lon="2.44777">
        <ele>1049.877</ele>
        <time>2021-05-24T10:12:31Z</time>
      </trkpt>
      <trkpt lat="43.42145" lon="2.44779">
        <ele>1052.434</ele>
        <time>2021-05-24T10:12:33Z</time>
      </trkpt>
      <trkpt lat="43.42146" lon="2.4478">
        <ele>1051.521</ele>
        <time>2021-05-24T10:12:35Z</time>
      </trkpt>
      <trkpt lat="43.42147" lon="2.44782">
        <ele>1051.364</ele>
        <time>2021-05-24T10:12:37Z</time>
      </trkpt>
      <trkpt lat="43.42149" lon="2.44783">
        <ele>1051.829</ele>
        <time>2021-05-24T10:12:39Z</time>
      </trkpt>
      <trkpt lat="43.4215" lon="2.44784">
        <ele>1052.831</ele>
        <time>2021-05-24T10:12:41Z</time>
      </trkpt>
      <trkpt lat="43.42151" lon="2.44785">
        <ele>1052.731</ele>
        <time>2021-05-24T10:12:43Z</time>
      </trkpt>
      <trkpt lat="43.42153" lon="2.44786">
        <ele>1052.393</ele>
        <time>2021-05-24T10:12:45Z</time>
      </trkpt>
      <trkpt lat="43.42155" lon="2.44786">
        <ele>1052.342</ele>
        <time>2021-05-24T10:12:47Z</time>
      </trkpt>
      <trkpt lat="43.42156" lon="2.44787">
        <ele>1053.064</ele>
        <time>2021-05-24T10:12:49Z</time>
      </trkpt>
      <trkpt lat="43.42157" lon="2.44788">
        <ele>1053.028</ele>
        <time>2021-05-24T10:12:51Z</time>
      </trkpt>
      <trkpt lat="43.42159" lon="2.44789">
        <ele>1053.34</ele>
        <time>2021-05-24T10:12:53Z</time>
      </trkpt>
      <trkpt lat="43.4216" lon="2.44789">
        <ele>1053.263</ele>
        <time>2021-05-24T10:12:55Z</time>
      </trkpt>
      <trkpt lat="43.42161" lon="2.4479">
        <ele>1053.531</ele>
        <time>2021-05-24T10:12:57Z</time>
      </trkpt>
      <trkpt lat="43.42163" lon="2.4479">
        <ele>1053.461</ele>
        <time>2021-05-24T10:12:59Z</time>
      </trkpt>
      <trkpt lat="43.42164" lon="2.44789">
        <ele>1054.223</ele>
        <time>2021-05-24T10:13:01Z</time>
      </trkpt>
      <trkpt lat="43.42166" lon="2.44789">
        <ele>1053.995</ele>
        <time>2021-05-24T10:13:03Z</time>
      </trkpt>
      <trkpt lat="43.42168" lon="2.44789">
        <ele>1054.855</ele>
        <time>2021-05-24T10:13:05Z</time>
      </trkpt>
      <trkpt lat="43.4217" lon="2.44789">
        <ele>1055.148</ele>
        <time>2021-05-24T10:13:07Z</time>
      </trkpt>
      <trkpt lat="43.42171" lon="2.44789">
        <ele>1055.89</ele>
        <time>2021-05-24T10:13:09Z</time>
      </trkpt>
      <trkpt lat="43.42173" lon="2.4479">
        <ele>1055.67</ele>
        <time>2021-05-24T10:13:11Z</time>
      </trkpt>
      <trkpt lat="43.42174" lon="2.4479">
        <ele>1055.161</ele>
        <time>2021-05-24T10:13:13Z</time>
      </trkpt>
      <trkpt lat="43.42176" lon="2.4479">
        <ele>1056.331</ele>
        <time>2021-05-24T10:13:15Z</time>
      </trkpt>
      <trkpt lat="43.42177" lon="2.4479">
        <ele>1057.333</ele>
        <time>2021-05-24T10:13:17Z</time>
      </trkpt>
      <trkpt lat="43.42178" lon="2.4479">
        <ele>1056.883</ele>
        <time>2021-05-24T10:13:19Z</time>
      </trkpt>
      <trkpt lat="43.4218" lon="2.4479">
        <ele>1057.908</ele>
        <time>2021-05-24T10:13:21Z</time>
      </trkpt>
      <trkpt lat="43.42181" lon="2.4479">
        <ele>1059.908</ele>
        <time>2021-05-24T10:13:23Z</time>
      </trkpt>
      <trkpt lat="43.42183" lon="2.44789">
        <ele>1060.316</ele>
        <time>2021-05-24T10:13:25Z</time>
      </trkpt>
      <trkpt lat="43.42184" lon="2.44789">
        <ele>1060.281</ele>
        <time>2021-05-24T10:13:27Z</time>
      </trkpt>
      <trkpt lat="43.42185" lon="2.4479">
        <ele>1060.799</ele>
        <time>2021-05-24T10:13:29Z</time>
      </trkpt>
      <trkpt lat="43.42187" lon="2.44792">
        <ele>1061.326</ele>
        <time>2021-05-24T10:13:31Z</time>
      </trkpt>
      <trkpt lat="43.42188" lon="2.44792">
        <ele>1060.755</ele>
        <time>2021-05-24T10:13:33Z</time>
      </trkpt>
      <trkpt lat="43.42189" lon="2.44793">
        <ele>1062.059</ele>
        <time>2021-05-24T10:13:35Z</time>
      </trkpt>
      <trkpt lat="43.42191" lon="2.44794">
        <ele>1061.918</ele>
        <time>2021-05-24T10:13:37Z</time>
      </trkpt>
      <trkpt lat="43.42192" lon="2.44794">
        <ele>1062.78</ele>
        <time>2021-05-24T10:13:39Z</time>
      </trkpt>
      <trkpt lat="43.42193" lon="2.44794">
        <ele>1063.485</ele>
        <time>2021-05-24T10:13:41Z</time>
      </trkpt>
      <trkpt lat="43.42195" lon="2.44794">
        <ele>1063.661</ele>
        <time>2021-05-24T10:13:43Z</time>
      </trkpt>
      <trkpt lat="43.42196" lon="2.44795">
        <ele>1062.745</ele>
        <time>2021-05-24T10:13:45Z</time>
      </trkpt>
      <trkpt lat="43.42198" lon="2.44796">
        <ele>1062.637</ele>
        <time>2021-05-24T10:13:47Z</time>
      </trkpt>
      <trkpt lat="43.42199" lon="2.44797">
        <ele>1063.102</ele>
        <time>2021-05-24T10:13:49Z</time>
      </trkpt>
      <trkpt lat="43.422" lon="2.44798">
        <ele>1064.84</ele>
        <time>2021-05-24T10:13:51Z</time>
      </trkpt>
      <trkpt lat="43.42202" lon="2.44799">
        <ele>1066.315</ele>
        <time>2021-05-24T10:13:53Z</time>
      </trkpt>
      <trkpt lat="43.42203" lon="2.448">
        <ele>1068.029</ele>
        <time>2021-05-24T10:13:55Z</time>
      </trkpt>
      <trkpt lat="43.42203" lon="2.448">
        <ele>1067.659</ele>
        <time>2021-05-24T10:13:57Z</time>
      </trkpt>
      <trkpt lat="43.42204" lon="2.44802">
        <ele>1067.207</ele>
        <time>2021-05-24T10:13:59Z</time>
      </trkpt>
      <trkpt lat="43.42205" lon="2.44803">
        <ele>1066.576</ele>
        <time>2021-05-24T10:14:01Z</time>
      </trkpt>
      <trkpt lat="43.42207" lon="2.44804">
        <ele>1067.833</ele>
        <time>2021-05-24T10:14:03Z</time>
      </trkpt>
      <trkpt lat="43.42208" lon="2.44806">
        <ele>1067.624</ele>
        <time>2021-05-24T10:14:05Z</time>
      </trkpt>
      <trkpt lat="43.42209" lon="2.44807">
        <ele>1068.222</ele>
        <time>2021-05-24T10:14:07Z</time>
      </trkpt>
      <trkpt lat="43.4221" lon="2.44808">
        <ele>1068.034</ele>
        <time>2021-05-24T10:14:09Z</time>
      </trkpt>
      <trkpt lat="43.42211" lon="2.4481">
        <ele>1069.156</ele>
        <time>2021-05-24T10:14:11Z</time>
      </trkpt>
      <trkpt lat="43.42212" lon="2.4481">
        <ele>1068.828</ele>
        <time>2021-05-24T10:14:13Z</time>
      </trkpt>
      <trkpt lat="43.42213" lon="2.44812">
        <ele>1070.507</ele>
        <time>2021-05-24T10:14:15Z</time>
      </trkpt>
      <trkpt lat="43.42215" lon="2.44813">
        <ele>1072.041</ele>
        <time>2021-05-24T10:14:17Z</time>
      </trkpt>
      <trkpt lat="43.42216" lon="2.44814">
        <ele>1071.414</ele>
        <time>2021-05-24T10:14:19Z</time>
      </trkpt>
      <trkpt lat="43.42217" lon="2.44816">
        <ele>1070.942</ele>
        <time>2021-05-24T10:14:21Z</time>
      </trkpt>
      <trkpt lat="43.42219" lon="2.44816">
        <ele>1070.712</ele>
        <time>2021-05-24T10:14:23Z</time>
      </trkpt>
      <trkpt lat="43.42219" lon="2.44818">
        <ele>1070.712</ele>
        <time>2021-05-24T10:14:25Z</time>
      </trkpt>
      <trkpt lat="43.4222" lon="2.44819">
        <ele>1070.668</ele>
        <time>2021-05-24T10:14:27Z</time>
      </trkpt>
      <trkpt lat="43.42222" lon="2.44821">
        <ele>1072.45</ele>
        <time>2021-05-24T10:14:29Z</time>
      </trkpt>
      <trkpt lat="43.42223" lon="2.44822">
        <ele>1074.525</ele>
        <time>2021-05-24T10:14:31Z</time>
      </trkpt>
      <trkpt lat="43.42224" lon="2.44823">
        <ele>1078.011</ele>
        <time>2021-05-24T10:14:33Z</time>
      </trkpt>
      <trkpt lat="43.42226" lon="2.44824">
        <ele>1076.988</ele>
        <time>2021-05-24T10:14:35Z</time>
      </trkpt>
      <trkpt lat="43.42228" lon="2.44824">
        <ele>1077.406</ele>
        <time>2021-05-24T10:14:37Z</time>
      </trkpt>
      <trkpt lat="43.42229" lon="2.44825">
        <ele>1077.364</ele>
        <time>2021-05-24T10:14:39Z</time>
      </trkpt>
      <trkpt lat="43.4223" lon="2.44826">
        <ele>1078.108</ele>
        <time>2021-05-24T10:14:41Z</time>
      </trkpt>
      <trkpt lat="43.42232" lon="2.44827">
        <ele>1077.214</ele>
        <time>2021-05-24T10:14:43Z</time>
      </trkpt>
      <trkpt lat="43.42234" lon="2.44827">
        <ele>1077.033</ele>
        <time>2021-05-24T10:14:45Z</time>
      </trkpt>
      <trkpt lat="43.42235" lon="2.44827">
        <ele>1077.133</ele>
        <time>2021-05-24T10:14:47Z</time>
      </trkpt>
      <trkpt lat="43.42237" lon="2.44828">
        <ele>1077.471</ele>
        <time>2021-05-24T10:14:49Z</time>
      </trkpt>
      <trkpt lat="43.42238" lon="2.44828">
        <ele>1077.349</ele>
        <time>2021-05-24T10:14:51Z</time>
      </trkpt>
      <trkpt lat="43.4224" lon="2.44828">
        <ele>1076.323</ele>
        <time>2021-05-24T10:14:53Z</time>
      </trkpt>
      <trkpt lat="43.42241" lon="2.44829">
        <ele>1075.562</ele>
        <time>2021-05-24T10:14:55Z</time>
      </trkpt>
      <trkpt lat="43.42242" lon="2.4483">
        <ele>1076.29</ele>
        <time>2021-05-24T10:14:57Z</time>
      </trkpt>
      <trkpt lat="43.42244" lon="2.44832">
        <ele>1076.916</ele>
        <time>2021-05-24T10:14:59Z</time>
      </trkpt>
      <trkpt lat="43.42245" lon="2.44834">
        <ele>1077.204</ele>
        <time>2021-05-24T10:15:01Z</time>
      </trkpt>
      <trkpt lat="43.42246" lon="2.44835">
        <ele>1077.885</ele>
        <time>2021-05-24T10:15:03Z</time>
      </trkpt>
      <trkpt lat="43.42248" lon="2.44836">
        <ele>1078.133</ele>
        <time>2021-05-24T10:15:05Z</time>
      </trkpt>
      <trkpt lat="43.42249" lon="2.44837">
        <ele>1077.861</ele>
        <time>2021-05-24T10:15:07Z</time>
      </trkpt>
      <trkpt lat="43.42251" lon="2.44838">
        <ele>1077.629</ele>
        <time>2021-05-24T10:15:09Z</time>
      </trkpt>
      <trkpt lat="43.42252" lon="2.44839">
        <ele>1077.3</ele>
        <time>2021-05-24T10:15:11Z</time>
      </trkpt>
      <trkpt lat="43.42254" lon="2.44839">
        <ele>1077.799</ele>
        <time>2021-05-24T10:15:13Z</time>
      </trkpt>
      <trkpt lat="43.42255" lon="2.4484">
        <ele>1077.035</ele>
        <time>2021-05-24T10:15:15Z</time>
      </trkpt>
      <trkpt lat="43.42256" lon="2.44842">
        <ele>1078.061</ele>
        <time>2021-05-24T10:15:17Z</time>
      </trkpt>
      <trkpt lat="43.42255" lon="2.44844">
        <ele>1080.376</ele>
        <time>2021-05-24T10:15:19Z</time>
      </trkpt>
      <trkpt lat="43.42257" lon="2.44846">
        <ele>1080.769</ele>
        <time>2021-05-24T10:15:21Z</time>
      </trkpt>
      <trkpt lat="43.42258" lon="2.44847">
        <ele>1080.883</ele>
        <time>2021-05-24T10:15:23Z</time>
      </trkpt>
      <trkpt lat="43.42259" lon="2.44848">
        <ele>1081.009</ele>
        <time>2021-05-24T10:15:25Z</time>
      </trkpt>
      <trkpt lat="43.4226" lon="2.44848">
        <ele>1081.476</ele>
        <time>2021-05-24T10:15:27Z</time>
      </trkpt>
      <trkpt lat="43.42262" lon="2.44849">
        <ele>1082.455</ele>
        <time>2021-05-24T10:15:29Z</time>
      </trkpt>
      <trkpt lat="43.42264" lon="2.4485">
        <ele>1083.365</ele>
        <time>2021-05-24T10:15:31Z</time>
      </trkpt>
      <trkpt lat="43.42266" lon="2.44851">
        <ele>1083.133</ele>
        <time>2021-05-24T10:15:33Z</time>
      </trkpt>
      <trkpt lat="43.42267" lon="2.44852">
        <ele>1082.298</ele>
        <time>2021-05-24T10:15:35Z</time>
      </trkpt>
      <trkpt lat="43.42269" lon="2.44853">
        <ele>1083.171</ele>
        <time>2021-05-24T10:15:37Z</time>
      </trkpt>
      <trkpt lat="43.42271" lon="2.44855">
        <ele>1084.087</ele>
        <time>2021-05-24T10:15:39Z</time>
      </trkpt>
      <trkpt lat="43.42272" lon="2.44856">
        <ele>1084.51</ele>
        <time>2021-05-24T10:15:41Z</time>
      </trkpt>
      <trkpt lat="43.42274" lon="2.44857">
        <ele>1085.423</ele>
        <time>2021-05-24T10:15:43Z</time>
      </trkpt>
      <trkpt lat="43.42275" lon="2.44858">
        <ele>1086.51</ele>
        <time>2021-05-24T10:15:45Z</time>
      </trkpt>
      <trkpt lat="43.42277" lon="2.44859">
        <ele>1086.421</ele>
        <time>2021-05-24T10:15:47Z</time>
      </trkpt>
      <trkpt lat="43.42279" lon="2.4486">
        <ele>1087.605</ele>
        <time>2021-05-24T10:15:49Z</time>
      </trkpt>
      <trkpt lat="43.4228" lon="2.44861">
        <ele>1087.581</ele>
        <time>2021-05-24T10:15:51Z</time>
      </trkpt>
      <trkpt lat="43.42282" lon="2.44863">
        <ele>1087.281</ele>
        <time>2021-05-24T10:15:53Z</time>
      </trkpt>
      <trkpt lat="43.42284" lon="2.44864">
        <ele>1086.747</ele>
        <time>2021-05-24T10:15:55Z</time>
      </trkpt>
      <trkpt lat="43.42286" lon="2.44865">
        <ele>1087.148</ele>
        <time>2021-05-24T10:15:57Z</time>
      </trkpt>
      <trkpt lat="43.42288" lon="2.44866">
        <ele>1087.003</ele>
        <time>2021-05-24T10:15:59Z</time>
      </trkpt>
      <trkpt lat="43.42289" lon="2.44867">
        <ele>1086.934</ele>
        <time>2021-05-24T10:16:01Z</time>
      </trkpt>
      <trkpt lat="43.4229" lon="2.44869">
        <ele>1086.33</ele>
        <time>2021-05-24T10:16:03Z</time>
      </trkpt>
      <trkpt lat="43.42292" lon="2.44871">
        <ele>1086.02</ele>
        <time>2021-05-24T10:16:05Z</time>
      </trkpt>
      <trkpt lat="43.42293" lon="2.44872">
        <ele>1085.853</ele>
        <time>2021-05-24T10:16:07Z</time>
      </trkpt>
      <trkpt lat="43.42294" lon="2.44874">
        <ele>1085.992</ele>
        <time>2021-05-24T10:16:09Z</time>
      </trkpt>
      <trkpt lat="43.42296" lon="2.44876">
        <ele>1086.567</ele>
        <time>2021-05-24T10:16:11Z</time>
      </trkpt>
      <trkpt lat="43.42298" lon="2.44878">
        <ele>1086.747</ele>
        <time>2021-05-24T10:16:13Z</time>
      </trkpt>
      <trkpt lat="43.423" lon="2.44878">
        <ele>1087.512</ele>
        <time>2021-05-24T10:16:15Z</time>
      </trkpt>
      <trkpt lat="43.42301" lon="2.4488">
        <ele>1088.101</ele>
        <time>2021-05-24T10:16:17Z</time>
      </trkpt>
      <trkpt lat="43.42303" lon="2.44883">
        <ele>1088.98</ele>
        <time>2021-05-24T10:16:19Z</time>
      </trkpt>
      <trkpt lat="43.42302" lon="2.44884">
        <ele>1088.749</ele>
        <time>2021-05-24T10:16:21Z</time>
      </trkpt>
      <trkpt lat="43.42301" lon="2.44884">
        <ele>1088.75</ele>
        <time>2021-05-24T10:16:23Z</time>
      </trkpt>
      <trkpt lat="43.42301" lon="2.44883">
        <ele>1088.742</ele>
        <time>2021-05-24T10:16:25Z</time>
      </trkpt>
      <trkpt lat="43.42301" lon="2.44883">
        <ele>1088.75</ele>
        <time>2021-05-24T10:16:27Z</time>
      </trkpt>
      <trkpt lat="43.42301" lon="2.44883">
        <ele>1088.752</ele>
        <time>2021-05-24T10:16:29Z</time>
      </trkpt>
      <trkpt lat="43.42301" lon="2.44883">
        <ele>1088.759</ele>
        <time>2021-05-24T10:16:31Z</time>
      </trkpt>
      <trkpt lat="43.42301" lon="2.44884">
        <ele>1089.047</ele>
        <time>2021-05-24T10:16:33Z</time>
      </trkpt>
      <trkpt lat="43.42303" lon="2.44884">
        <ele>1089.064</ele>
        <time>2021-05-24T10:16:35Z</time>
      </trkpt>
      <trkpt lat="43.42303" lon="2.44884">
        <ele>1089.068</ele>
        <time>2021-05-24T10:16:37Z</time>
      </trkpt>
      <trkpt lat="43.42303" lon="2.44884">
        <ele>1089.07</ele>
        <time>2021-05-24T10:16:39Z</time>
      </trkpt>
      <trkpt lat="43.42303" lon="2.44884">
        <ele>1089.07</ele>
        <time>2021-05-24T10:16:41Z</time>
      </trkpt>
      <trkpt lat="43.42303" lon="2.44884">
        <ele>1089.07</ele>
        <time>2021-05-24T10:16:43Z</time>
      </trkpt>
      <trkpt lat="43.42303" lon="2.44884">
        <ele>1089.073</ele>
        <time>2021-05-24T10:16:45Z</time>
      </trkpt>
      <trkpt lat="43.42303" lon="2.44884">
        <ele>1089.079</ele>
        <time>2021-05-24T10:16:47Z</time>
      </trkpt>
      <trkpt lat="43.42303" lon="2.44884">
        <ele>1089.079</ele>
        <time>2021-05-24T10:16:49Z</time>
      </trkpt>
      <trkpt lat="43.42303" lon="2.44884">
        <ele>1089.079</ele>
        <time>2021-05-24T10:16:51Z</time>
      </trkpt>
      <trkpt lat="43.42303" lon="2.44884">
        <ele>1089.072</ele>
        <time>2021-05-24T10:16:53Z</time>
      </trkpt>
      <trkpt lat="43.42303" lon="2.44884">
        <ele>1089.075</ele>
        <time>2021-05-24T10:16:55Z</time>
      </trkpt>
      <trkpt lat="43.42303" lon="2.44884">
        <ele>1089.082</ele>
        <time>2021-05-24T10:16:57Z</time>
      </trkpt>
      <trkpt lat="43.42303" lon="2.44884">
        <ele>1089.083</ele>
        <time>2021-05-24T10:16:59Z</time>
      </trkpt>
      <trkpt lat="43.42303" lon="2.44884">
        <ele>1089.093</ele>
        <time>2021-05-24T10:17:01Z</time>
      </trkpt>
      <trkpt lat="43.42303" lon="2.44884">
        <ele>1089.107</ele>
        <time>2021-05-24T10:17:03Z</time>
      </trkpt>
      <trkpt lat="43.42303" lon="2.44883">
        <ele>1089.969</ele>
        <time>2021-05-24T10:17:05Z</time>
      </trkpt>
      <trkpt lat="43.42304" lon="2.44883">
        <ele>1089.879</ele>
        <time>2021-05-24T10:17:07Z</time>
      </trkpt>
      <trkpt lat="43.42304" lon="2.44884">
        <ele>1089.595</ele>
        <time>2021-05-24T10:17:09Z</time>
      </trkpt>
      <trkpt lat="43.42303" lon="2.44886">
        <ele>1088.686</ele>
        <time>2021-05-24T10:17:11Z</time>
      </trkpt>
      <trkpt lat="43.42303" lon="2.44886">
        <ele>1088.944</ele>
        <time>2021-05-24T10:17:13Z</time>
      </trkpt>
      <trkpt lat="43.42305" lon="2.44883">
        <ele>1085.769</ele>
        <time>2021-05-24T10:17:15Z</time>
      </trkpt>
      <trkpt lat="43.42306" lon="2.44883">
        <ele>1083.192</ele>
        <time>2021-05-24T10:17:17Z</time>
      </trkpt>
      <trkpt lat="43.42306" lon="2.44883">
        <ele>1084.492</ele>
        <time>2021-05-24T10:17:19Z</time>
      </trkpt>
      <trkpt lat="43.42307" lon="2.44884">
        <ele>1086.531</ele>
        <time>2021-05-24T10:17:21Z</time>
      </trkpt>
      <trkpt lat="43.42308" lon="2.44885">
        <ele>1087.055</ele>
        <time>2021-05-24T10:17:23Z</time>
      </trkpt>
      <trkpt lat="43.4231" lon="2.44886">
        <ele>1088.102</ele>
        <time>2021-05-24T10:17:25Z</time>
      </trkpt>
      <trkpt lat="43.42311" lon="2.44886">
        <ele>1088.547</ele>
        <time>2021-05-24T10:17:27Z</time>
      </trkpt>
      <trkpt lat="43.42312" lon="2.44886">
        <ele>1089.087</ele>
        <time>2021-05-24T10:17:29Z</time>
      </trkpt>
      <trkpt lat="43.42313" lon="2.44886">
        <ele>1088.792</ele>
        <time>2021-05-24T10:17:31Z</time>
      </trkpt>
      <trkpt lat="43.42314" lon="2.44887">
        <ele>1088.547</ele>
        <time>2021-05-24T10:17:33Z</time>
      </trkpt>
      <trkpt lat="43.42315" lon="2.44889">
        <ele>1087.838</ele>
        <time>2021-05-24T10:17:35Z</time>
      </trkpt>
      <trkpt lat="43.42317" lon="2.4489">
        <ele>1088.185</ele>
        <time>2021-05-24T10:17:37Z</time>
      </trkpt>
      <trkpt lat="43.42319" lon="2.4489">
        <ele>1089.543</ele>
        <time>2021-05-24T10:17:39Z</time>
      </trkpt>
      <trkpt lat="43.42321" lon="2.44891">
        <ele>1090.009</ele>
        <time>2021-05-24T10:17:41Z</time>
      </trkpt>
      <trkpt lat="43.42323" lon="2.44893">
        <ele>1091.515</ele>
        <time>2021-05-24T10:17:43Z</time>
      </trkpt>
      <trkpt lat="43.42326" lon="2.44896">
        <ele>1093.479</ele>
        <time>2021-05-24T10:17:45Z</time>
      </trkpt>
      <trkpt lat="43.42328" lon="2.44898">
        <ele>1094.671</ele>
        <time>2021-05-24T10:17:47Z</time>
      </trkpt>
      <trkpt lat="43.42329" lon="2.44899">
        <ele>1094.654</ele>
        <time>2021-05-24T10:17:49Z</time>
      </trkpt>
      <trkpt lat="43.4233" lon="2.449">
        <ele>1094.537</ele>
        <time>2021-05-24T10:17:51Z</time>
      </trkpt>
      <trkpt lat="43.42332" lon="2.44901">
        <ele>1094.636</ele>
        <time>2021-05-24T10:17:53Z</time>
      </trkpt>
      <trkpt lat="43.42334" lon="2.44902">
        <ele>1094.773</ele>
        <time>2021-05-24T10:17:55Z</time>
      </trkpt>
      <trkpt lat="43.42335" lon="2.44903">
        <ele>1094.14</ele>
        <time>2021-05-24T10:17:57Z</time>
      </trkpt>
      <trkpt lat="43.42336" lon="2.44905">
        <ele>1093.979</ele>
        <time>2021-05-24T10:17:59Z</time>
      </trkpt>
      <trkpt lat="43.42337" lon="2.44906">
        <ele>1093.827</ele>
        <time>2021-05-24T10:18:01Z</time>
      </trkpt>
      <trkpt lat="43.42339" lon="2.44907">
        <ele>1093.616</ele>
        <time>2021-05-24T10:18:03Z</time>
      </trkpt>
      <trkpt lat="43.4234" lon="2.44909">
        <ele>1093.307</ele>
        <time>2021-05-24T10:18:05Z</time>
      </trkpt>
      <trkpt lat="43.42341" lon="2.4491">
        <ele>1092.644</ele>
        <time>2021-05-24T10:18:07Z</time>
      </trkpt>
      <trkpt lat="43.42343" lon="2.44912">
        <ele>1093.432</ele>
        <time>2021-05-24T10:18:09Z</time>
      </trkpt>
      <trkpt lat="43.42345" lon="2.44913">
        <ele>1093.507</ele>
        <time>2021-05-24T10:18:11Z</time>
      </trkpt>
      <trkpt lat="43.42346" lon="2.44914">
        <ele>1094.255</ele>
        <time>2021-05-24T10:18:13Z</time>
      </trkpt>
      <trkpt lat="43.42348" lon="2.44915">
        <ele>1094.425</ele>
        <time>2021-05-24T10:18:15Z</time>
      </trkpt>
      <trkpt lat="43.4235" lon="2.44916">
        <ele>1094.576</ele>
        <time>2021-05-24T10:18:17Z</time>
      </trkpt>
      <trkpt lat="43.42351" lon="2.44916">
        <ele>1094.326</ele>
        <time>2021-05-24T10:18:19Z</time>
      </trkpt>
      <trkpt lat="43.42354" lon="2.44918">
        <ele>1095.943</ele>
        <time>2021-05-24T10:18:21Z</time>
      </trkpt>
      <trkpt lat="43.42356" lon="2.44919">
        <ele>1095.621</ele>
        <time>2021-05-24T10:18:23Z</time>
      </trkpt>
      <trkpt lat="43.42358" lon="2.4492">
        <ele>1095.876</ele>
        <time>2021-05-24T10:18:25Z</time>
      </trkpt>
      <trkpt lat="43.4236" lon="2.44921">
        <ele>1096.162</ele>
        <time>2021-05-24T10:18:27Z</time>
      </trkpt>
      <trkpt lat="43.42362" lon="2.44922">
        <ele>1096.648</ele>
        <time>2021-05-24T10:18:29Z</time>
      </trkpt>
      <trkpt lat="43.42363" lon="2.44923">
        <ele>1096.515</ele>
        <time>2021-05-24T10:18:31Z</time>
      </trkpt>
      <trkpt lat="43.42365" lon="2.44925">
        <ele>1096.963</ele>
        <time>2021-05-24T10:18:33Z</time>
      </trkpt>
      <trkpt lat="43.42367" lon="2.44926">
        <ele>1097.33</ele>
        <time>2021-05-24T10:18:35Z</time>
      </trkpt>
      <trkpt lat="43.42369" lon="2.44928">
        <ele>1097.389</ele>
        <time>2021-05-24T10:18:37Z</time>
      </trkpt>
      <trkpt lat="43.42371" lon="2.44929">
        <ele>1097.61</ele>
        <time>2021-05-24T10:18:39Z</time>
      </trkpt>
      <trkpt lat="43.42372" lon="2.44931">
        <ele>1097.614</ele>
        <time>2021-05-24T10:18:41Z</time>
      </trkpt>
      <trkpt lat="43.42374" lon="2.44932">
        <ele>1097.332</ele>
        <time>2021-05-24T10:18:43Z</time>
      </trkpt>
      <trkpt lat="43.42376" lon="2.44934">
        <ele>1097.849</ele>
        <time>2021-05-24T10:18:45Z</time>
      </trkpt>
      <trkpt lat="43.42378" lon="2.44935">
        <ele>1097.589</ele>
        <time>2021-05-24T10:18:47Z</time>
      </trkpt>
      <trkpt lat="43.4238" lon="2.44936">
        <ele>1097.514</ele>
        <time>2021-05-24T10:18:49Z</time>
      </trkpt>
      <trkpt lat="43.42382" lon="2.44938">
        <ele>1097.775</ele>
        <time>2021-05-24T10:18:51Z</time>
      </trkpt>
      <trkpt lat="43.42384" lon="2.44939">
        <ele>1098.115</ele>
        <time>2021-05-24T10:18:53Z</time>
      </trkpt>
      <trkpt lat="43.42386" lon="2.44941">
        <ele>1098.178</ele>
        <time>2021-05-24T10:18:55Z</time>
      </trkpt>
      <trkpt lat="43.42388" lon="2.44943">
        <ele>1099.128</ele>
        <time>2021-05-24T10:18:57Z</time>
      </trkpt>
      <trkpt lat="43.4239" lon="2.44945">
        <ele>1099.56</ele>
        <time>2021-05-24T10:18:59Z</time>
      </trkpt>
      <trkpt lat="43.42392" lon="2.44947">
        <ele>1100.395</ele>
        <time>2021-05-24T10:19:01Z</time>
      </trkpt>
      <trkpt lat="43.42394" lon="2.44949">
        <ele>1100.672</ele>
        <time>2021-05-24T10:19:03Z</time>
      </trkpt>
      <trkpt lat="43.42396" lon="2.44951">
        <ele>1101.313</ele>
        <time>2021-05-24T10:19:05Z</time>
      </trkpt>
      <trkpt lat="43.42397" lon="2.44953">
        <ele>1100.685</ele>
        <time>2021-05-24T10:19:07Z</time>
      </trkpt>
      <trkpt lat="43.42399" lon="2.44955">
        <ele>1100.992</ele>
        <time>2021-05-24T10:19:09Z</time>
      </trkpt>
      <trkpt lat="43.42401" lon="2.44957">
        <ele>1101.18</ele>
        <time>2021-05-24T10:19:11Z</time>
      </trkpt>
      <trkpt lat="43.42403" lon="2.44958">
        <ele>1101.066</ele>
        <time>2021-05-24T10:19:13Z</time>
      </trkpt>
      <trkpt lat="43.42405" lon="2.4496">
        <ele>1100.77</ele>
        <time>2021-05-24T10:19:15Z</time>
      </trkpt>
      <trkpt lat="43.42407" lon="2.44959">
        <ele>1100.665</ele>
        <time>2021-05-24T10:19:17Z</time>
      </trkpt>
      <trkpt lat="43.42408" lon="2.44961">
        <ele>1100.124</ele>
        <time>2021-05-24T10:19:19Z</time>
      </trkpt>
      <trkpt lat="43.4241" lon="2.44962">
        <ele>1099.81</ele>
        <time>2021-05-24T10:19:21Z</time>
      </trkpt>
      <trkpt lat="43.42411" lon="2.44964">
        <ele>1099.583</ele>
        <time>2021-05-24T10:19:23Z</time>
      </trkpt>
      <trkpt lat="43.42413" lon="2.44965">
        <ele>1099.836</ele>
        <time>2021-05-24T10:19:25Z</time>
      </trkpt>
      <trkpt lat="43.42415" lon="2.44966">
        <ele>1100.032</ele>
        <time>2021-05-24T10:19:27Z</time>
      </trkpt>
      <trkpt lat="43.42417" lon="2.44967">
        <ele>1099.94</ele>
        <time>2021-05-24T10:19:29Z</time>
      </trkpt>
      <trkpt lat="43.42419" lon="2.44969">
        <ele>1099.859</ele>
        <time>2021-05-24T10:19:31Z</time>
      </trkpt>
      <trkpt lat="43.4242" lon="2.44969">
        <ele>1099.859</ele>
        <time>2021-05-24T10:19:33Z</time>
      </trkpt>
      <trkpt lat="43.42422" lon="2.44971">
        <ele>1100.107</ele>
        <time>2021-05-24T10:19:35Z</time>
      </trkpt>
      <trkpt lat="43.42423" lon="2.44972">
        <ele>1100.454</ele>
        <time>2021-05-24T10:19:37Z</time>
      </trkpt>
      <trkpt lat="43.42423" lon="2.44972">
        <ele>1100.553</ele>
        <time>2021-05-24T10:19:39Z</time>
      </trkpt>
      <trkpt lat="43.42423" lon="2.44972">
        <ele>1100.544</ele>
        <time>2021-05-24T10:19:41Z</time>
      </trkpt>
      <trkpt lat="43.42423" lon="2.44972">
        <ele>1100.544</ele>
        <time>2021-05-24T10:19:43Z</time>
      </trkpt>
      <trkpt lat="43.42423" lon="2.44972">
        <ele>1100.537</ele>
        <time>2021-05-24T10:19:45Z</time>
      </trkpt>
      <trkpt lat="43.42423" lon="2.44972">
        <ele>1100.536</ele>
        <time>2021-05-24T10:19:47Z</time>
      </trkpt>
      <trkpt lat="43.42423" lon="2.44972">
        <ele>1100.534</ele>
        <time>2021-05-24T10:19:49Z</time>
      </trkpt>
      <trkpt lat="43.42423" lon="2.44972">
        <ele>1100.533</ele>
        <time>2021-05-24T10:19:51Z</time>
      </trkpt>
      <trkpt lat="43.42423" lon="2.44972">
        <ele>1100.534</ele>
        <time>2021-05-24T10:19:53Z</time>
      </trkpt>
      <trkpt lat="43.42423" lon="2.44972">
        <ele>1100.535</ele>
        <time>2021-05-24T10:19:55Z</time>
      </trkpt>
      <trkpt lat="43.42423" lon="2.44972">
        <ele>1100.534</ele>
        <time>2021-05-24T10:19:57Z</time>
      </trkpt>
      <trkpt lat="43.42424" lon="2.44972">
        <ele>1100.533</ele>
        <time>2021-05-24T10:19:59Z</time>
      </trkpt>
      <trkpt lat="43.42424" lon="2.44972">
        <ele>1100.533</ele>
        <time>2021-05-24T10:20:01Z</time>
      </trkpt>
      <trkpt lat="43.42424" lon="2.44972">
        <ele>1100.533</ele>
        <time>2021-05-24T10:20:03Z</time>
      </trkpt>
      <trkpt lat="43.42424" lon="2.44972">
        <ele>1100.534</ele>
        <time>2021-05-24T10:20:05Z</time>
      </trkpt>
      <trkpt lat="43.42424" lon="2.44972">
        <ele>1100.535</ele>
        <time>2021-05-24T10:20:07Z</time>
      </trkpt>
      <trkpt lat="43.42424" lon="2.44972">
        <ele>1100.533</ele>
        <time>2021-05-24T10:20:09Z</time>
      </trkpt>
      <trkpt lat="43.42424" lon="2.44972">
        <ele>1100.53</ele>
        <time>2021-05-24T10:20:11Z</time>
      </trkpt>
      <trkpt lat="43.42424" lon="2.44972">
        <ele>1100.53</ele>
        <time>2021-05-24T10:20:13Z</time>
      </trkpt>
      <trkpt lat="43.42424" lon="2.44972">
        <ele>1100.533</ele>
        <time>2021-05-24T10:20:15Z</time>
      </trkpt>
      <trkpt lat="43.42424" lon="2.44972">
        <ele>1100.533</ele>
        <time>2021-05-24T10:20:17Z</time>
      </trkpt>
      <trkpt lat="43.42424" lon="2.44972">
        <ele>1100.537</ele>
        <time>2021-05-24T10:20:19Z</time>
      </trkpt>
      <trkpt lat="43.42424" lon="2.44972">
        <ele>1100.541</ele>
        <time>2021-05-24T10:20:21Z</time>
      </trkpt>
      <trkpt lat="43.42424" lon="2.44972">
        <ele>1100.553</ele>
        <time>2021-05-24T10:20:23Z</time>
      </trkpt>
      <trkpt lat="43.42424" lon="2.44972">
        <ele>1100.562</ele>
        <time>2021-05-24T10:20:25Z</time>
      </trkpt>
      <trkpt lat="43.42424" lon="2.44972">
        <ele>1100.561</ele>
        <time>2021-05-24T10:20:27Z</time>
      </trkpt>
      <trkpt lat="43.42424" lon="2.44972">
        <ele>1100.561</ele>
        <time>2021-05-24T10:20:29Z</time>
      </trkpt>
      <trkpt lat="43.42424" lon="2.44972">
        <ele>1100.567</ele>
        <time>2021-05-24T10:20:31Z</time>
      </trkpt>
      <trkpt lat="43.42424" lon="2.44972">
        <ele>1100.568</ele>
        <time>2021-05-24T10:20:33Z</time>
      </trkpt>
      <trkpt lat="43.42424" lon="2.44972">
        <ele>1100.567</ele>
        <time>2021-05-24T10:20:35Z</time>
      </trkpt>
      <trkpt lat="43.42424" lon="2.44972">
        <ele>1100.566</ele>
        <time>2021-05-24T10:20:37Z</time>
      </trkpt>
      <trkpt lat="43.42424" lon="2.44972">
        <ele>1100.566</ele>
        <time>2021-05-24T10:20:39Z</time>
      </trkpt>
      <trkpt lat="43.42424" lon="2.44972">
        <ele>1100.566</ele>
        <time>2021-05-24T10:20:41Z</time>
      </trkpt>
      <trkpt lat="43.42424" lon="2.44972">
        <ele>1100.568</ele>
        <time>2021-05-24T10:20:43Z</time>
      </trkpt>
      <trkpt lat="43.42424" lon="2.44972">
        <ele>1100.569</ele>
        <time>2021-05-24T10:20:45Z</time>
      </trkpt>
      <trkpt lat="43.42424" lon="2.44972">
        <ele>1100.571</ele>
        <time>2021-05-24T10:20:47Z</time>
      </trkpt>
      <trkpt lat="43.42424" lon="2.44972">
        <ele>1100.573</ele>
        <time>2021-05-24T10:20:49Z</time>
      </trkpt>
      <trkpt lat="43.42424" lon="2.44972">
        <ele>1100.575</ele>
        <time>2021-05-24T10:20:51Z</time>
      </trkpt>
      <trkpt lat="43.42424" lon="2.44972">
        <ele>1100.578</ele>
        <time>2021-05-24T10:20:53Z</time>
      </trkpt>
      <trkpt lat="43.42424" lon="2.44972">
        <ele>1100.58</ele>
        <time>2021-05-24T10:20:55Z</time>
      </trkpt>
      <trkpt lat="43.42424" lon="2.44972">
        <ele>1100.582</ele>
        <time>2021-05-24T10:20:57Z</time>
      </trkpt>
      <trkpt lat="43.42424" lon="2.44972">
        <ele>1100.583</ele>
        <time>2021-05-24T10:20:59Z</time>
      </trkpt>
      <trkpt lat="43.42424" lon="2.44972">
        <ele>1100.582</ele>
        <time>2021-05-24T10:21:01Z</time>
      </trkpt>
      <trkpt lat="43.42424" lon="2.44972">
        <ele>1100.582</ele>
        <time>2021-05-24T10:21:03Z</time>
      </trkpt>
      <trkpt lat="43.42424" lon="2.44972">
        <ele>1100.854</ele>
        <time>2021-05-24T10:21:05Z</time>
      </trkpt>
      <trkpt lat="43.42424" lon="2.44972">
        <ele>1100.854</ele>
        <time>2021-05-24T10:21:07Z</time>
      </trkpt>
      <trkpt lat="43.42424" lon="2.44972">
        <ele>1100.854</ele>
        <time>2021-05-24T10:21:09Z</time>
      </trkpt>
      <trkpt lat="43.42424" lon="2.44972">
        <ele>1100.855</ele>
        <time>2021-05-24T10:21:11Z</time>
      </trkpt>
      <trkpt lat="43.42424" lon="2.44972">
        <ele>1100.855</ele>
        <time>2021-05-24T10:21:13Z</time>
      </trkpt>
      <trkpt lat="43.42424" lon="2.44972">
        <ele>1100.725</ele>
        <time>2021-05-24T10:21:15Z</time>
      </trkpt>
      <trkpt lat="43.42425" lon="2.44973">
        <ele>1100.737</ele>
        <time>2021-05-24T10:21:17Z</time>
      </trkpt>
      <trkpt lat="43.42426" lon="2.44973">
        <ele>1100.266</ele>
        <time>2021-05-24T10:21:19Z</time>
      </trkpt>
      <trkpt lat="43.42428" lon="2.44975">
        <ele>1100.668</ele>
        <time>2021-05-24T10:21:21Z</time>
      </trkpt>
      <trkpt lat="43.42429" lon="2.44976">
        <ele>1100.852</ele>
        <time>2021-05-24T10:21:23Z</time>
      </trkpt>
      <trkpt lat="43.4243" lon="2.44976">
        <ele>1100.9</ele>
        <time>2021-05-24T10:21:25Z</time>
      </trkpt>
      <trkpt lat="43.42432" lon="2.44978">
        <ele>1100.868</ele>
        <time>2021-05-24T10:21:27Z</time>
      </trkpt>
      <trkpt lat="43.42434" lon="2.44979">
        <ele>1100.862</ele>
        <time>2021-05-24T10:21:29Z</time>
      </trkpt>
      <trkpt lat="43.42435" lon="2.4498">
        <ele>1101.03</ele>
        <time>2021-05-24T10:21:31Z</time>
      </trkpt>
      <trkpt lat="43.42436" lon="2.44981">
        <ele>1100.799</ele>
        <time>2021-05-24T10:21:33Z</time>
      </trkpt>
      <trkpt lat="43.42438" lon="2.44982">
        <ele>1100.782</ele>
        <time>2021-05-24T10:21:35Z</time>
      </trkpt>
      <trkpt lat="43.4244" lon="2.44982">
        <ele>1100.34</ele>
        <time>2021-05-24T10:21:37Z</time>
      </trkpt>
      <trkpt lat="43.42442" lon="2.44984">
        <ele>1101.215</ele>
        <time>2021-05-24T10:21:39Z</time>
      </trkpt>
      <trkpt lat="43.42444" lon="2.44986">
        <ele>1101.332</ele>
        <time>2021-05-24T10:21:41Z</time>
      </trkpt>
      <trkpt lat="43.42446" lon="2.44987">
        <ele>1102.001</ele>
        <time>2021-05-24T10:21:43Z</time>
      </trkpt>
      <trkpt lat="43.42448" lon="2.44988">
        <ele>1102.328</ele>
        <time>2021-05-24T10:21:45Z</time>
      </trkpt>
      <trkpt lat="43.42451" lon="2.44989">
        <ele>1102.554</ele>
        <time>2021-05-24T10:21:47Z</time>
      </trkpt>
      <trkpt lat="43.42453" lon="2.44991">
        <ele>1102.559</ele>
        <time>2021-05-24T10:21:49Z</time>
      </trkpt>
      <trkpt lat="43.42456" lon="2.44992">
        <ele>1102.034</ele>
        <time>2021-05-24T10:21:51Z</time>
      </trkpt>
      <trkpt lat="43.42458" lon="2.44992">
        <ele>1102.306</ele>
        <time>2021-05-24T10:21:53Z</time>
      </trkpt>
      <trkpt lat="43.4246" lon="2.44993">
        <ele>1102.062</ele>
        <time>2021-05-24T10:21:55Z</time>
      </trkpt>
      <trkpt lat="43.42462" lon="2.44994">
        <ele>1101.673</ele>
        <time>2021-05-24T10:21:57Z</time>
      </trkpt>
      <trkpt lat="43.42464" lon="2.44995">
        <ele>1101.194</ele>
        <time>2021-05-24T10:21:59Z</time>
      </trkpt>
      <trkpt lat="43.42466" lon="2.44996">
        <ele>1101.072</ele>
        <time>2021-05-24T10:22:01Z</time>
      </trkpt>
      <trkpt lat="43.42468" lon="2.44997">
        <ele>1100.783</ele>
        <time>2021-05-24T10:22:03Z</time>
      </trkpt>
      <trkpt lat="43.4247" lon="2.44998">
        <ele>1100.616</ele>
        <time>2021-05-24T10:22:05Z</time>
      </trkpt>
      <trkpt lat="43.42472" lon="2.45">
        <ele>1100.994</ele>
        <time>2021-05-24T10:22:07Z</time>
      </trkpt>
      <trkpt lat="43.42475" lon="2.45001">
        <ele>1101.236</ele>
        <time>2021-05-24T10:22:09Z</time>
      </trkpt>
      <trkpt lat="43.42477" lon="2.45002">
        <ele>1101.072</ele>
        <time>2021-05-24T10:22:11Z</time>
      </trkpt>
      <trkpt lat="43.42479" lon="2.45003">
        <ele>1100.979</ele>
        <time>2021-05-24T10:22:13Z</time>
      </trkpt>
      <trkpt lat="43.42481" lon="2.45005">
        <ele>1100.881</ele>
        <time>2021-05-24T10:22:15Z</time>
      </trkpt>
      <trkpt lat="43.42484" lon="2.45006">
        <ele>1101.398</ele>
        <time>2021-05-24T10:22:17Z</time>
      </trkpt>
      <trkpt lat="43.42486" lon="2.45007">
        <ele>1101.544</ele>
        <time>2021-05-24T10:22:19Z</time>
      </trkpt>
      <trkpt lat="43.42488" lon="2.45008">
        <ele>1101.043</ele>
        <time>2021-05-24T10:22:21Z</time>
      </trkpt>
      <trkpt lat="43.42491" lon="2.4501">
        <ele>1101.444</ele>
        <time>2021-05-24T10:22:23Z</time>
      </trkpt>
      <trkpt lat="43.42493" lon="2.45011">
        <ele>1101.077</ele>
        <time>2021-05-24T10:22:25Z</time>
      </trkpt>
      <trkpt lat="43.42496" lon="2.45013">
        <ele>1101.832</ele>
        <time>2021-05-24T10:22:27Z</time>
      </trkpt>
      <trkpt lat="43.42498" lon="2.45015">
        <ele>1101.898</ele>
        <time>2021-05-24T10:22:29Z</time>
      </trkpt>
      <trkpt lat="43.42501" lon="2.45016">
        <ele>1102.469</ele>
        <time>2021-05-24T10:22:31Z</time>
      </trkpt>
      <trkpt lat="43.42504" lon="2.45018">
        <ele>1102.517</ele>
        <time>2021-05-24T10:22:33Z</time>
      </trkpt>
      <trkpt lat="43.42506" lon="2.45019">
        <ele>1102.707</ele>
        <time>2021-05-24T10:22:35Z</time>
      </trkpt>
      <trkpt lat="43.42509" lon="2.45021">
        <ele>1102.465</ele>
        <time>2021-05-24T10:22:37Z</time>
      </trkpt>
      <trkpt lat="43.42511" lon="2.45022">
        <ele>1102.538</ele>
        <time>2021-05-24T10:22:39Z</time>
      </trkpt>
      <trkpt lat="43.42513" lon="2.45023">
        <ele>1102.527</ele>
        <time>2021-05-24T10:22:41Z</time>
      </trkpt>
      <trkpt lat="43.42515" lon="2.45025">
        <ele>1102.197</ele>
        <time>2021-05-24T10:22:43Z</time>
      </trkpt>
      <trkpt lat="43.42517" lon="2.45025">
        <ele>1102.239</ele>
        <time>2021-05-24T10:22:45Z</time>
      </trkpt>
      <trkpt lat="43.4252" lon="2.45027">
        <ele>1103.07</ele>
        <time>2021-05-24T10:22:47Z</time>
      </trkpt>
      <trkpt lat="43.42522" lon="2.45028">
        <ele>1103.826</ele>
        <time>2021-05-24T10:22:49Z</time>
      </trkpt>
      <trkpt lat="43.42525" lon="2.45029">
        <ele>1104.117</ele>
        <time>2021-05-24T10:22:51Z</time>
      </trkpt>
      <trkpt lat="43.42527" lon="2.45031">
        <ele>1104.892</ele>
        <time>2021-05-24T10:22:53Z</time>
      </trkpt>
      <trkpt lat="43.4253" lon="2.45033">
        <ele>1105.147</ele>
        <time>2021-05-24T10:22:55Z</time>
      </trkpt>
      <trkpt lat="43.42532" lon="2.45035">
        <ele>1104.967</ele>
        <time>2021-05-24T10:22:57Z</time>
      </trkpt>
      <trkpt lat="43.42534" lon="2.45036">
        <ele>1105.164</ele>
        <time>2021-05-24T10:22:59Z</time>
      </trkpt>
      <trkpt lat="43.42536" lon="2.45038">
        <ele>1105.062</ele>
        <time>2021-05-24T10:23:01Z</time>
      </trkpt>
      <trkpt lat="43.42538" lon="2.4504">
        <ele>1105.67</ele>
        <time>2021-05-24T10:23:03Z</time>
      </trkpt>
      <trkpt lat="43.4254" lon="2.45042">
        <ele>1106.11</ele>
        <time>2021-05-24T10:23:05Z</time>
      </trkpt>
      <trkpt lat="43.42543" lon="2.45044">
        <ele>1106.699</ele>
        <time>2021-05-24T10:23:07Z</time>
      </trkpt>
      <trkpt lat="43.42545" lon="2.45047">
        <ele>1107.246</ele>
        <time>2021-05-24T10:23:09Z</time>
      </trkpt>
      <trkpt lat="43.42547" lon="2.45048">
        <ele>1107.465</ele>
        <time>2021-05-24T10:23:11Z</time>
      </trkpt>
      <trkpt lat="43.42549" lon="2.4505">
        <ele>1107.086</ele>
        <time>2021-05-24T10:23:13Z</time>
      </trkpt>
      <trkpt lat="43.42551" lon="2.45051">
        <ele>1107.132</ele>
        <time>2021-05-24T10:23:15Z</time>
      </trkpt>
      <trkpt lat="43.42553" lon="2.45053">
        <ele>1106.977</ele>
        <time>2021-05-24T10:23:17Z</time>
      </trkpt>
      <trkpt lat="43.42555" lon="2.45055">
        <ele>1107.012</ele>
        <time>2021-05-24T10:23:19Z</time>
      </trkpt>
      <trkpt lat="43.42557" lon="2.45057">
        <ele>1106.666</ele>
        <time>2021-05-24T10:23:21Z</time>
      </trkpt>
      <trkpt lat="43.42559" lon="2.45058">
        <ele>1106.667</ele>
        <time>2021-05-24T10:23:23Z</time>
      </trkpt>
      <trkpt lat="43.42561" lon="2.4506">
        <ele>1106.212</ele>
        <time>2021-05-24T10:23:25Z</time>
      </trkpt>
      <trkpt lat="43.42562" lon="2.45062">
        <ele>1106.344</ele>
        <time>2021-05-24T10:23:27Z</time>
      </trkpt>
      <trkpt lat="43.42564" lon="2.45064">
        <ele>1105.56</ele>
        <time>2021-05-24T10:23:29Z</time>
      </trkpt>
      <trkpt lat="43.42565" lon="2.45066">
        <ele>1105.575</ele>
        <time>2021-05-24T10:23:31Z</time>
      </trkpt>
      <trkpt lat="43.42567" lon="2.45068">
        <ele>1105.523</ele>
        <time>2021-05-24T10:23:33Z</time>
      </trkpt>
      <trkpt lat="43.42569" lon="2.4507">
        <ele>1106.025</ele>
        <time>2021-05-24T10:23:35Z</time>
      </trkpt>
      <trkpt lat="43.42571" lon="2.45072">
        <ele>1105.826</ele>
        <time>2021-05-24T10:23:37Z</time>
      </trkpt>
      <trkpt lat="43.42573" lon="2.45074">
        <ele>1105.918</ele>
        <time>2021-05-24T10:23:39Z</time>
      </trkpt>
      <trkpt lat="43.42575" lon="2.45077">
        <ele>1106.299</ele>
        <time>2021-05-24T10:23:41Z</time>
      </trkpt>
      <trkpt lat="43.42577" lon="2.45079">
        <ele>1106.522</ele>
        <time>2021-05-24T10:23:43Z</time>
      </trkpt>
      <trkpt lat="43.42579" lon="2.45081">
        <ele>1106.431</ele>
        <time>2021-05-24T10:23:45Z</time>
      </trkpt>
      <trkpt lat="43.42581" lon="2.45082">
        <ele>1106.278</ele>
        <time>2021-05-24T10:23:47Z</time>
      </trkpt>
      <trkpt lat="43.42583" lon="2.45085">
        <ele>1105.927</ele>
        <time>2021-05-24T10:23:49Z</time>
      </trkpt>
      <trkpt lat="43.42585" lon="2.45089">
        <ele>1106.213</ele>
        <time>2021-05-24T10:23:51Z</time>
      </trkpt>
      <trkpt lat="43.42586" lon="2.45091">
        <ele>1106.005</ele>
        <time>2021-05-24T10:23:53Z</time>
      </trkpt>
      <trkpt lat="43.42588" lon="2.45094">
        <ele>1106.238</ele>
        <time>2021-05-24T10:23:55Z</time>
      </trkpt>
      <trkpt lat="43.4259" lon="2.45097">
        <ele>1106.49</ele>
        <time>2021-05-24T10:23:57Z</time>
      </trkpt>
      <trkpt lat="43.42593" lon="2.451">
        <ele>1106.883</ele>
        <time>2021-05-24T10:23:59Z</time>
      </trkpt>
      <trkpt lat="43.42594" lon="2.45102">
        <ele>1106.129</ele>
        <time>2021-05-24T10:24:01Z</time>
      </trkpt>
      <trkpt lat="43.42596" lon="2.45104">
        <ele>1106.776</ele>
        <time>2021-05-24T10:24:03Z</time>
      </trkpt>
      <trkpt lat="43.42597" lon="2.45107">
        <ele>1107.133</ele>
        <time>2021-05-24T10:24:05Z</time>
      </trkpt>
      <trkpt lat="43.42599" lon="2.45109">
        <ele>1108.116</ele>
        <time>2021-05-24T10:24:07Z</time>
      </trkpt>
      <trkpt lat="43.42601" lon="2.45112">
        <ele>1108.088</ele>
        <time>2021-05-24T10:24:09Z</time>
      </trkpt>
      <trkpt lat="43.42603" lon="2.45114">
        <ele>1108.115</ele>
        <time>2021-05-24T10:24:11Z</time>
      </trkpt>
      <trkpt lat="43.42604" lon="2.45116">
        <ele>1108.547</ele>
        <time>2021-05-24T10:24:13Z</time>
      </trkpt>
      <trkpt lat="43.42606" lon="2.45119">
        <ele>1108.302</ele>
        <time>2021-05-24T10:24:15Z</time>
      </trkpt>
      <trkpt lat="43.42608" lon="2.45121">
        <ele>1108.423</ele>
        <time>2021-05-24T10:24:17Z</time>
      </trkpt>
      <trkpt lat="43.42609" lon="2.45123">
        <ele>1108.509</ele>
        <time>2021-05-24T10:24:19Z</time>
      </trkpt>
      <trkpt lat="43.42611" lon="2.45125">
        <ele>1108.596</ele>
        <time>2021-05-24T10:24:21Z</time>
      </trkpt>
      <trkpt lat="43.42613" lon="2.45127">
        <ele>1108.935</ele>
        <time>2021-05-24T10:24:23Z</time>
      </trkpt>
      <trkpt lat="43.42615" lon="2.4513">
        <ele>1109.293</ele>
        <time>2021-05-24T10:24:25Z</time>
      </trkpt>
      <trkpt lat="43.42616" lon="2.45133">
        <ele>1109.294</ele>
        <time>2021-05-24T10:24:27Z</time>
      </trkpt>
      <trkpt lat="43.42618" lon="2.45136">
        <ele>1109.603</ele>
        <time>2021-05-24T10:24:29Z</time>
      </trkpt>
      <trkpt lat="43.4262" lon="2.45138">
        <ele>1109.804</ele>
        <time>2021-05-24T10:24:31Z</time>
      </trkpt>
      <trkpt lat="43.42621" lon="2.4514">
        <ele>1109.801</ele>
        <time>2021-05-24T10:24:33Z</time>
      </trkpt>
      <trkpt lat="43.42623" lon="2.45142">
        <ele>1109.056</ele>
        <time>2021-05-24T10:24:35Z</time>
      </trkpt>
      <trkpt lat="43.42624" lon="2.45144">
        <ele>1109.248</ele>
        <time>2021-05-24T10:24:37Z</time>
      </trkpt>
      <trkpt lat="43.42626" lon="2.45147">
        <ele>1109.526</ele>
        <time>2021-05-24T10:24:39Z</time>
      </trkpt>
      <trkpt lat="43.42628" lon="2.45149">
        <ele>1110.097</ele>
        <time>2021-05-24T10:24:41Z</time>
      </trkpt>
      <trkpt lat="43.42629" lon="2.45151">
        <ele>1110.18</ele>
        <time>2021-05-24T10:24:43Z</time>
      </trkpt>
      <trkpt lat="43.42632" lon="2.45153">
        <ele>1110.723</ele>
        <time>2021-05-24T10:24:46Z</time>
      </trkpt>
      <trkpt lat="43.42634" lon="2.45156">
        <ele>1111.515</ele>
        <time>2021-05-24T10:24:48Z</time>
      </trkpt>
      <trkpt lat="43.42635" lon="2.45158">
        <ele>1112.334</ele>
        <time>2021-05-24T10:24:50Z</time>
      </trkpt>
      <trkpt lat="43.42636" lon="2.45161">
        <ele>1113.495</ele>
        <time>2021-05-24T10:24:52Z</time>
      </trkpt>
      <trkpt lat="43.42638" lon="2.45163">
        <ele>1113.714</ele>
        <time>2021-05-24T10:24:54Z</time>
      </trkpt>
      <trkpt lat="43.4264" lon="2.45166">
        <ele>1114.088</ele>
        <time>2021-05-24T10:24:56Z</time>
      </trkpt>
      <trkpt lat="43.42641" lon="2.45168">
        <ele>1113.521</ele>
        <time>2021-05-24T10:24:58Z</time>
      </trkpt>
      <trkpt lat="43.42643" lon="2.45169">
        <ele>1113.985</ele>
        <time>2021-05-24T10:25:00Z</time>
      </trkpt>
      <trkpt lat="43.42645" lon="2.45171">
        <ele>1114.472</ele>
        <time>2021-05-24T10:25:02Z</time>
      </trkpt>
      <trkpt lat="43.42646" lon="2.45174">
        <ele>1114.633</ele>
        <time>2021-05-24T10:25:04Z</time>
      </trkpt>
      <trkpt lat="43.42648" lon="2.45176">
        <ele>1114.65</ele>
        <time>2021-05-24T10:25:06Z</time>
      </trkpt>
      <trkpt lat="43.42649" lon="2.45179">
        <ele>1115.055</ele>
        <time>2021-05-24T10:25:08Z</time>
      </trkpt>
      <trkpt lat="43.42651" lon="2.45181">
        <ele>1115.111</ele>
        <time>2021-05-24T10:25:10Z</time>
      </trkpt>
      <trkpt lat="43.42652" lon="2.45184">
        <ele>1114.985</ele>
        <time>2021-05-24T10:25:12Z</time>
      </trkpt>
      <trkpt lat="43.42654" lon="2.45186">
        <ele>1115.179</ele>
        <time>2021-05-24T10:25:14Z</time>
      </trkpt>
      <trkpt lat="43.42656" lon="2.45188">
        <ele>1115.421</ele>
        <time>2021-05-24T10:25:16Z</time>
      </trkpt>
      <trkpt lat="43.42657" lon="2.4519">
        <ele>1115.3</ele>
        <time>2021-05-24T10:25:18Z</time>
      </trkpt>
      <trkpt lat="43.42659" lon="2.45191">
        <ele>1115.465</ele>
        <time>2021-05-24T10:25:20Z</time>
      </trkpt>
      <trkpt lat="43.42661" lon="2.45193">
        <ele>1116.042</ele>
        <time>2021-05-24T10:25:22Z</time>
      </trkpt>
      <trkpt lat="43.42662" lon="2.45195">
        <ele>1116.168</ele>
        <time>2021-05-24T10:25:24Z</time>
      </trkpt>
      <trkpt lat="43.42664" lon="2.45198">
        <ele>1115.711</ele>
        <time>2021-05-24T10:25:26Z</time>
      </trkpt>
      <trkpt lat="43.42665" lon="2.452">
        <ele>1115.581</ele>
        <time>2021-05-24T10:25:28Z</time>
      </trkpt>
      <trkpt lat="43.42667" lon="2.45203">
        <ele>1116.554</ele>
        <time>2021-05-24T10:25:30Z</time>
      </trkpt>
      <trkpt lat="43.42669" lon="2.45205">
        <ele>1117.666</ele>
        <time>2021-05-24T10:25:32Z</time>
      </trkpt>
      <trkpt lat="43.4267" lon="2.45208">
        <ele>1117.925</ele>
        <time>2021-05-24T10:25:34Z</time>
      </trkpt>
      <trkpt lat="43.42672" lon="2.4521">
        <ele>1118.143</ele>
        <time>2021-05-24T10:25:36Z</time>
      </trkpt>
      <trkpt lat="43.42673" lon="2.45211">
        <ele>1118.291</ele>
        <time>2021-05-24T10:25:38Z</time>
      </trkpt>
      <trkpt lat="43.42675" lon="2.45213">
        <ele>1119.14</ele>
        <time>2021-05-24T10:25:40Z</time>
      </trkpt>
      <trkpt lat="43.42676" lon="2.45216">
        <ele>1119.346</ele>
        <time>2021-05-24T10:25:42Z</time>
      </trkpt>
      <trkpt lat="43.42678" lon="2.45218">
        <ele>1119.274</ele>
        <time>2021-05-24T10:25:44Z</time>
      </trkpt>
      <trkpt lat="43.42679" lon="2.45221">
        <ele>1119.901</ele>
        <time>2021-05-24T10:25:46Z</time>
      </trkpt>
      <trkpt lat="43.4268" lon="2.45224">
        <ele>1120.525</ele>
        <time>2021-05-24T10:25:48Z</time>
      </trkpt>
      <trkpt lat="43.42681" lon="2.45226">
        <ele>1120.393</ele>
        <time>2021-05-24T10:25:50Z</time>
      </trkpt>
      <trkpt lat="43.42682" lon="2.45228">
        <ele>1120.68</ele>
        <time>2021-05-24T10:25:52Z</time>
      </trkpt>
      <trkpt lat="43.42684" lon="2.45231">
        <ele>1120.426</ele>
        <time>2021-05-24T10:25:54Z</time>
      </trkpt>
      <trkpt lat="43.42685" lon="2.45233">
        <ele>1120.513</ele>
        <time>2021-05-24T10:25:56Z</time>
      </trkpt>
      <trkpt lat="43.42686" lon="2.45235">
        <ele>1119.855</ele>
        <time>2021-05-24T10:25:58Z</time>
      </trkpt>
      <trkpt lat="43.42687" lon="2.45238">
        <ele>1119.872</ele>
        <time>2021-05-24T10:26:00Z</time>
      </trkpt>
      <trkpt lat="43.42688" lon="2.4524">
        <ele>1119.638</ele>
        <time>2021-05-24T10:26:02Z</time>
      </trkpt>
      <trkpt lat="43.42689" lon="2.45243">
        <ele>1119.523</ele>
        <time>2021-05-24T10:26:04Z</time>
      </trkpt>
      <trkpt lat="43.4269" lon="2.45245">
        <ele>1119.69</ele>
        <time>2021-05-24T10:26:06Z</time>
      </trkpt>
      <trkpt lat="43.42691" lon="2.45248">
        <ele>1119.517</ele>
        <time>2021-05-24T10:26:08Z</time>
      </trkpt>
      <trkpt lat="43.42692" lon="2.45251">
        <ele>1119.615</ele>
        <time>2021-05-24T10:26:10Z</time>
      </trkpt>
      <trkpt lat="43.42693" lon="2.45254">
        <ele>1119.942</ele>
        <time>2021-05-24T10:26:12Z</time>
      </trkpt>
      <trkpt lat="43.42694" lon="2.45257">
        <ele>1120.39</ele>
        <time>2021-05-24T10:26:14Z</time>
      </trkpt>
      <trkpt lat="43.42694" lon="2.4526">
        <ele>1120.609</ele>
        <time>2021-05-24T10:26:16Z</time>
      </trkpt>
      <trkpt lat="43.42695" lon="2.45263">
        <ele>1121.266</ele>
        <time>2021-05-24T10:26:18Z</time>
      </trkpt>
      <trkpt lat="43.42696" lon="2.45266">
        <ele>1121.423</ele>
        <time>2021-05-24T10:26:20Z</time>
      </trkpt>
      <trkpt lat="43.42696" lon="2.45269">
        <ele>1121.048</ele>
        <time>2021-05-24T10:26:22Z</time>
      </trkpt>
      <trkpt lat="43.42697" lon="2.45272">
        <ele>1120.9</ele>
        <time>2021-05-24T10:26:24Z</time>
      </trkpt>
      <trkpt lat="43.42698" lon="2.45275">
        <ele>1121.162</ele>
        <time>2021-05-24T10:26:26Z</time>
      </trkpt>
      <trkpt lat="43.42698" lon="2.45278">
        <ele>1120.964</ele>
        <time>2021-05-24T10:26:28Z</time>
      </trkpt>
      <trkpt lat="43.42698" lon="2.45281">
        <ele>1121.237</ele>
        <time>2021-05-24T10:26:30Z</time>
      </trkpt>
      <trkpt lat="43.42699" lon="2.45284">
        <ele>1121.41</ele>
        <time>2021-05-24T10:26:32Z</time>
      </trkpt>
      <trkpt lat="43.427" lon="2.45287">
        <ele>1121.689</ele>
        <time>2021-05-24T10:26:34Z</time>
      </trkpt>
      <trkpt lat="43.42701" lon="2.4529">
        <ele>1121.543</ele>
        <time>2021-05-24T10:26:36Z</time>
      </trkpt>
      <trkpt lat="43.42702" lon="2.45293">
        <ele>1122.064</ele>
        <time>2021-05-24T10:26:38Z</time>
      </trkpt>
      <trkpt lat="43.42703" lon="2.45295">
        <ele>1122.416</ele>
        <time>2021-05-24T10:26:40Z</time>
      </trkpt>
      <trkpt lat="43.42704" lon="2.45298">
        <ele>1122.45</ele>
        <time>2021-05-24T10:26:42Z</time>
      </trkpt>
      <trkpt lat="43.42705" lon="2.453">
        <ele>1122.361</ele>
        <time>2021-05-24T10:26:44Z</time>
      </trkpt>
      <trkpt lat="43.42706" lon="2.45303">
        <ele>1121.983</ele>
        <time>2021-05-24T10:26:46Z</time>
      </trkpt>
      <trkpt lat="43.42707" lon="2.45306">
        <ele>1122.475</ele>
        <time>2021-05-24T10:26:48Z</time>
      </trkpt>
      <trkpt lat="43.42708" lon="2.4531">
        <ele>1123.23</ele>
        <time>2021-05-24T10:26:50Z</time>
      </trkpt>
      <trkpt lat="43.42709" lon="2.45313">
        <ele>1123.138</ele>
        <time>2021-05-24T10:26:52Z</time>
      </trkpt>
      <trkpt lat="43.4271" lon="2.45316">
        <ele>1123.948</ele>
        <time>2021-05-24T10:26:54Z</time>
      </trkpt>
      <trkpt lat="43.42711" lon="2.4532">
        <ele>1124.183</ele>
        <time>2021-05-24T10:26:56Z</time>
      </trkpt>
      <trkpt lat="43.42711" lon="2.45322">
        <ele>1124.34</ele>
        <time>2021-05-24T10:26:58Z</time>
      </trkpt>
      <trkpt lat="43.42712" lon="2.45326">
        <ele>1124.08</ele>
        <time>2021-05-24T10:27:00Z</time>
      </trkpt>
      <trkpt lat="43.42713" lon="2.45329">
        <ele>1124.887</ele>
        <time>2021-05-24T10:27:02Z</time>
      </trkpt>
      <trkpt lat="43.42713" lon="2.45332">
        <ele>1125.067</ele>
        <time>2021-05-24T10:27:04Z</time>
      </trkpt>
      <trkpt lat="43.42714" lon="2.45336">
        <ele>1125.101</ele>
        <time>2021-05-24T10:27:06Z</time>
      </trkpt>
      <trkpt lat="43.42714" lon="2.45338">
        <ele>1125.578</ele>
        <time>2021-05-24T10:27:08Z</time>
      </trkpt>
      <trkpt lat="43.42715" lon="2.45341">
        <ele>1125.431</ele>
        <time>2021-05-24T10:27:10Z</time>
      </trkpt>
      <trkpt lat="43.42716" lon="2.45344">
        <ele>1125.418</ele>
        <time>2021-05-24T10:27:12Z</time>
      </trkpt>
      <trkpt lat="43.42716" lon="2.45347">
        <ele>1126.453</ele>
        <time>2021-05-24T10:27:14Z</time>
      </trkpt>
      <trkpt lat="43.42717" lon="2.4535">
        <ele>1126.786</ele>
        <time>2021-05-24T10:27:16Z</time>
      </trkpt>
      <trkpt lat="43.42718" lon="2.45353">
        <ele>1126.275</ele>
        <time>2021-05-24T10:27:18Z</time>
      </trkpt>
      <trkpt lat="43.42718" lon="2.45355">
        <ele>1126.438</ele>
        <time>2021-05-24T10:27:20Z</time>
      </trkpt>
      <trkpt lat="43.42719" lon="2.45358">
        <ele>1126.657</ele>
        <time>2021-05-24T10:27:22Z</time>
      </trkpt>
      <trkpt lat="43.4272" lon="2.45361">
        <ele>1127.195</ele>
        <time>2021-05-24T10:27:24Z</time>
      </trkpt>
      <trkpt lat="43.42721" lon="2.45364">
        <ele>1127.385</ele>
        <time>2021-05-24T10:27:26Z</time>
      </trkpt>
      <trkpt lat="43.42721" lon="2.45366">
        <ele>1127.887</ele>
        <time>2021-05-24T10:27:28Z</time>
      </trkpt>
      <trkpt lat="43.42723" lon="2.45371">
        <ele>1128.226</ele>
        <time>2021-05-24T10:27:31Z</time>
      </trkpt>
      <trkpt lat="43.42723" lon="2.45374">
        <ele>1128.384</ele>
        <time>2021-05-24T10:27:33Z</time>
      </trkpt>
      <trkpt lat="43.42724" lon="2.45377">
        <ele>1128.835</ele>
        <time>2021-05-24T10:27:35Z</time>
      </trkpt>
      <trkpt lat="43.42725" lon="2.4538">
        <ele>1129.472</ele>
        <time>2021-05-24T10:27:37Z</time>
      </trkpt>
      <trkpt lat="43.42726" lon="2.45383">
        <ele>1129.51</ele>
        <time>2021-05-24T10:27:39Z</time>
      </trkpt>
      <trkpt lat="43.42726" lon="2.45386">
        <ele>1129.806</ele>
        <time>2021-05-24T10:27:41Z</time>
      </trkpt>
      <trkpt lat="43.42727" lon="2.45388">
        <ele>1129.806</ele>
        <time>2021-05-24T10:27:43Z</time>
      </trkpt>
      <trkpt lat="43.42728" lon="2.45391">
        <ele>1129.909</ele>
        <time>2021-05-24T10:27:45Z</time>
      </trkpt>
      <trkpt lat="43.42729" lon="2.45394">
        <ele>1130.576</ele>
        <time>2021-05-24T10:27:47Z</time>
      </trkpt>
      <trkpt lat="43.42729" lon="2.45397">
        <ele>1130.915</ele>
        <time>2021-05-24T10:27:49Z</time>
      </trkpt>
      <trkpt lat="43.4273" lon="2.454">
        <ele>1130.997</ele>
        <time>2021-05-24T10:27:51Z</time>
      </trkpt>
      <trkpt lat="43.42731" lon="2.45403">
        <ele>1131.793</ele>
        <time>2021-05-24T10:27:53Z</time>
      </trkpt>
      <trkpt lat="43.42731" lon="2.45406">
        <ele>1132.167</ele>
        <time>2021-05-24T10:27:55Z</time>
      </trkpt>
      <trkpt lat="43.42732" lon="2.4541">
        <ele>1133.028</ele>
        <time>2021-05-24T10:27:57Z</time>
      </trkpt>
      <trkpt lat="43.42733" lon="2.45414">
        <ele>1133.764</ele>
        <time>2021-05-24T10:27:59Z</time>
      </trkpt>
      <trkpt lat="43.42733" lon="2.45417">
        <ele>1133.933</ele>
        <time>2021-05-24T10:28:01Z</time>
      </trkpt>
      <trkpt lat="43.42734" lon="2.4542">
        <ele>1133.976</ele>
        <time>2021-05-24T10:28:03Z</time>
      </trkpt>
      <trkpt lat="43.42734" lon="2.45422">
        <ele>1133.867</ele>
        <time>2021-05-24T10:28:05Z</time>
      </trkpt>
      <trkpt lat="43.42735" lon="2.45425">
        <ele>1134.325</ele>
        <time>2021-05-24T10:28:07Z</time>
      </trkpt>
      <trkpt lat="43.42736" lon="2.45428">
        <ele>1134.435</ele>
        <time>2021-05-24T10:28:09Z</time>
      </trkpt>
      <trkpt lat="43.42737" lon="2.45431">
        <ele>1134.811</ele>
        <time>2021-05-24T10:28:11Z</time>
      </trkpt>
      <trkpt lat="43.42737" lon="2.45434">
        <ele>1134.888</ele>
        <time>2021-05-24T10:28:13Z</time>
      </trkpt>
      <trkpt lat="43.42738" lon="2.45437">
        <ele>1135.701</ele>
        <time>2021-05-24T10:28:15Z</time>
      </trkpt>
      <trkpt lat="43.42739" lon="2.4544">
        <ele>1136.048</ele>
        <time>2021-05-24T10:28:17Z</time>
      </trkpt>
      <trkpt lat="43.4274" lon="2.45443">
        <ele>1136.622</ele>
        <time>2021-05-24T10:28:19Z</time>
      </trkpt>
      <trkpt lat="43.4274" lon="2.45447">
        <ele>1137.031</ele>
        <time>2021-05-24T10:28:21Z</time>
      </trkpt>
      <trkpt lat="43.42741" lon="2.4545">
        <ele>1137.07</ele>
        <time>2021-05-24T10:28:23Z</time>
      </trkpt>
      <trkpt lat="43.42742" lon="2.45453">
        <ele>1136.744</ele>
        <time>2021-05-24T10:28:25Z</time>
      </trkpt>
      <trkpt lat="43.42742" lon="2.45456">
        <ele>1136.672</ele>
        <time>2021-05-24T10:28:27Z</time>
      </trkpt>
      <trkpt lat="43.42743" lon="2.45459">
        <ele>1137.074</ele>
        <time>2021-05-24T10:28:29Z</time>
      </trkpt>
      <trkpt lat="43.42743" lon="2.45462">
        <ele>1137.559</ele>
        <time>2021-05-24T10:28:31Z</time>
      </trkpt>
      <trkpt lat="43.42743" lon="2.45465">
        <ele>1138.326</ele>
        <time>2021-05-24T10:28:33Z</time>
      </trkpt>
      <trkpt lat="43.42743" lon="2.45468">
        <ele>1138.114</ele>
        <time>2021-05-24T10:28:35Z</time>
      </trkpt>
      <trkpt lat="43.42743" lon="2.45472">
        <ele>1138.782</ele>
        <time>2021-05-24T10:28:37Z</time>
      </trkpt>
      <trkpt lat="43.42743" lon="2.45475">
        <ele>1138.732</ele>
        <time>2021-05-24T10:28:39Z</time>
      </trkpt>
      <trkpt lat="43.42744" lon="2.45478">
        <ele>1138.212</ele>
        <time>2021-05-24T10:28:41Z</time>
      </trkpt>
      <trkpt lat="43.42743" lon="2.45482">
        <ele>1138.626</ele>
        <time>2021-05-24T10:28:43Z</time>
      </trkpt>
      <trkpt lat="43.42742" lon="2.45486">
        <ele>1140.112</ele>
        <time>2021-05-24T10:28:45Z</time>
      </trkpt>
      <trkpt lat="43.42742" lon="2.45488">
        <ele>1140.622</ele>
        <time>2021-05-24T10:28:47Z</time>
      </trkpt>
      <trkpt lat="43.42742" lon="2.45492">
        <ele>1138.765</ele>
        <time>2021-05-24T10:28:49Z</time>
      </trkpt>
      <trkpt lat="43.42742" lon="2.45495">
        <ele>1139.596</ele>
        <time>2021-05-24T10:28:51Z</time>
      </trkpt>
      <trkpt lat="43.42742" lon="2.455">
        <ele>1140.882</ele>
        <time>2021-05-24T10:28:53Z</time>
      </trkpt>
      <trkpt lat="43.42742" lon="2.45503">
        <ele>1140.903</ele>
        <time>2021-05-24T10:28:55Z</time>
      </trkpt>
      <trkpt lat="43.42743" lon="2.45506">
        <ele>1140.941</ele>
        <time>2021-05-24T10:28:57Z</time>
      </trkpt>
      <trkpt lat="43.42743" lon="2.45509">
        <ele>1140.869</ele>
        <time>2021-05-24T10:28:59Z</time>
      </trkpt>
      <trkpt lat="43.42743" lon="2.45512">
        <ele>1140.38</ele>
        <time>2021-05-24T10:29:01Z</time>
      </trkpt>
      <trkpt lat="43.42743" lon="2.45515">
        <ele>1140.754</ele>
        <time>2021-05-24T10:29:03Z</time>
      </trkpt>
      <trkpt lat="43.42743" lon="2.4552">
        <ele>1141.729</ele>
        <time>2021-05-24T10:29:05Z</time>
      </trkpt>
      <trkpt lat="43.42743" lon="2.45524">
        <ele>1142.661</ele>
        <time>2021-05-24T10:29:07Z</time>
      </trkpt>
      <trkpt lat="43.42743" lon="2.45528">
        <ele>1143.62</ele>
        <time>2021-05-24T10:29:09Z</time>
      </trkpt>
      <trkpt lat="43.42743" lon="2.45531">
        <ele>1143.634</ele>
        <time>2021-05-24T10:29:11Z</time>
      </trkpt>
      <trkpt lat="43.42744" lon="2.45536">
        <ele>1143.773</ele>
        <time>2021-05-24T10:29:14Z</time>
      </trkpt>
      <trkpt lat="43.42744" lon="2.45538">
        <ele>1143.908</ele>
        <time>2021-05-24T10:29:16Z</time>
      </trkpt>
      <trkpt lat="43.42743" lon="2.45541">
        <ele>1143.819</ele>
        <time>2021-05-24T10:29:18Z</time>
      </trkpt>
      <trkpt lat="43.42743" lon="2.45545">
        <ele>1144.663</ele>
        <time>2021-05-24T10:29:20Z</time>
      </trkpt>
      <trkpt lat="43.42742" lon="2.45549">
        <ele>1145.651</ele>
        <time>2021-05-24T10:29:22Z</time>
      </trkpt>
      <trkpt lat="43.42742" lon="2.45552">
        <ele>1146.275</ele>
        <time>2021-05-24T10:29:24Z</time>
      </trkpt>
      <trkpt lat="43.42742" lon="2.45555">
        <ele>1145.885</ele>
        <time>2021-05-24T10:29:26Z</time>
      </trkpt>
      <trkpt lat="43.42742" lon="2.45557">
        <ele>1146.785</ele>
        <time>2021-05-24T10:29:28Z</time>
      </trkpt>
      <trkpt lat="43.42741" lon="2.4556">
        <ele>1146.26</ele>
        <time>2021-05-24T10:29:30Z</time>
      </trkpt>
      <trkpt lat="43.42741" lon="2.45563">
        <ele>1146.367</ele>
        <time>2021-05-24T10:29:32Z</time>
      </trkpt>
      <trkpt lat="43.42741" lon="2.45566">
        <ele>1146.53</ele>
        <time>2021-05-24T10:29:34Z</time>
      </trkpt>
      <trkpt lat="43.42741" lon="2.45569">
        <ele>1147.143</ele>
        <time>2021-05-24T10:29:36Z</time>
      </trkpt>
      <trkpt lat="43.4274" lon="2.45573">
        <ele>1147.124</ele>
        <time>2021-05-24T10:29:38Z</time>
      </trkpt>
      <trkpt lat="43.4274" lon="2.45576">
        <ele>1146.94</ele>
        <time>2021-05-24T10:29:40Z</time>
      </trkpt>
      <trkpt lat="43.4274" lon="2.45579">
        <ele>1147.68</ele>
        <time>2021-05-24T10:29:42Z</time>
      </trkpt>
      <trkpt lat="43.42739" lon="2.45583">
        <ele>1148.057</ele>
        <time>2021-05-24T10:29:44Z</time>
      </trkpt>
      <trkpt lat="43.42739" lon="2.45586">
        <ele>1148.727</ele>
        <time>2021-05-24T10:29:46Z</time>
      </trkpt>
      <trkpt lat="43.42739" lon="2.45589">
        <ele>1149.071</ele>
        <time>2021-05-24T10:29:48Z</time>
      </trkpt>
      <trkpt lat="43.42738" lon="2.45592">
        <ele>1148.834</ele>
        <time>2021-05-24T10:29:50Z</time>
      </trkpt>
      <trkpt lat="43.42738" lon="2.45595">
        <ele>1149.405</ele>
        <time>2021-05-24T10:29:52Z</time>
      </trkpt>
      <trkpt lat="43.42739" lon="2.45598">
        <ele>1149.456</ele>
        <time>2021-05-24T10:29:54Z</time>
      </trkpt>
      <trkpt lat="43.42739" lon="2.45602">
        <ele>1149.288</ele>
        <time>2021-05-24T10:29:56Z</time>
      </trkpt>
      <trkpt lat="43.42739" lon="2.45605">
        <ele>1149.585</ele>
        <time>2021-05-24T10:29:58Z</time>
      </trkpt>
      <trkpt lat="43.42739" lon="2.45607">
        <ele>1149.504</ele>
        <time>2021-05-24T10:30:00Z</time>
      </trkpt>
      <trkpt lat="43.42739" lon="2.45611">
        <ele>1149.414</ele>
        <time>2021-05-24T10:30:02Z</time>
      </trkpt>
      <trkpt lat="43.42739" lon="2.45614">
        <ele>1149.37</ele>
        <time>2021-05-24T10:30:04Z</time>
      </trkpt>
      <trkpt lat="43.42739" lon="2.45617">
        <ele>1149.07</ele>
        <time>2021-05-24T10:30:06Z</time>
      </trkpt>
      <trkpt lat="43.42739" lon="2.4562">
        <ele>1149.881</ele>
        <time>2021-05-24T10:30:08Z</time>
      </trkpt>
      <trkpt lat="43.4274" lon="2.45623">
        <ele>1150.242</ele>
        <time>2021-05-24T10:30:10Z</time>
      </trkpt>
      <trkpt lat="43.4274" lon="2.45626">
        <ele>1150.863</ele>
        <time>2021-05-24T10:30:12Z</time>
      </trkpt>
      <trkpt lat="43.42741" lon="2.45629">
        <ele>1150.131</ele>
        <time>2021-05-24T10:30:14Z</time>
      </trkpt>
      <trkpt lat="43.42742" lon="2.45632">
        <ele>1150.065</ele>
        <time>2021-05-24T10:30:16Z</time>
      </trkpt>
      <trkpt lat="43.42743" lon="2.45634">
        <ele>1149.91</ele>
        <time>2021-05-24T10:30:18Z</time>
      </trkpt>
      <trkpt lat="43.42745" lon="2.45638">
        <ele>1149.533</ele>
        <time>2021-05-24T10:30:20Z</time>
      </trkpt>
      <trkpt lat="43.42745" lon="2.45641">
        <ele>1150.189</ele>
        <time>2021-05-24T10:30:22Z</time>
      </trkpt>
      <trkpt lat="43.42746" lon="2.45645">
        <ele>1151.014</ele>
        <time>2021-05-24T10:30:24Z</time>
      </trkpt>
      <trkpt lat="43.42748" lon="2.45649">
        <ele>1152.04</ele>
        <time>2021-05-24T10:30:26Z</time>
      </trkpt>
      <trkpt lat="43.42749" lon="2.45653">
        <ele>1152.221</ele>
        <time>2021-05-24T10:30:28Z</time>
      </trkpt>
      <trkpt lat="43.4275" lon="2.45657">
        <ele>1152.233</ele>
        <time>2021-05-24T10:30:30Z</time>
      </trkpt>
      <trkpt lat="43.42751" lon="2.45659">
        <ele>1151.986</ele>
        <time>2021-05-24T10:30:32Z</time>
      </trkpt>
      <trkpt lat="43.42752" lon="2.45662">
        <ele>1151.847</ele>
        <time>2021-05-24T10:30:34Z</time>
      </trkpt>
      <trkpt lat="43.42753" lon="2.45666">
        <ele>1151.417</ele>
        <time>2021-05-24T10:30:36Z</time>
      </trkpt>
      <trkpt lat="43.42755" lon="2.45668">
        <ele>1151.555</ele>
        <time>2021-05-24T10:30:38Z</time>
      </trkpt>
      <trkpt lat="43.42756" lon="2.45671">
        <ele>1150.809</ele>
        <time>2021-05-24T10:30:40Z</time>
      </trkpt>
      <trkpt lat="43.42757" lon="2.45674">
        <ele>1150.976</ele>
        <time>2021-05-24T10:30:42Z</time>
      </trkpt>
      <trkpt lat="43.42758" lon="2.45677">
        <ele>1150.581</ele>
        <time>2021-05-24T10:30:44Z</time>
      </trkpt>
      <trkpt lat="43.4276" lon="2.45681">
        <ele>1151.103</ele>
        <time>2021-05-24T10:30:46Z</time>
      </trkpt>
      <trkpt lat="43.42761" lon="2.45685">
        <ele>1151.877</ele>
        <time>2021-05-24T10:30:48Z</time>
      </trkpt>
      <trkpt lat="43.42763" lon="2.45687">
        <ele>1152.103</ele>
        <time>2021-05-24T10:30:50Z</time>
      </trkpt>
      <trkpt lat="43.42765" lon="2.45689">
        <ele>1152.467</ele>
        <time>2021-05-24T10:30:52Z</time>
      </trkpt>
      <trkpt lat="43.42766" lon="2.45692">
        <ele>1152.788</ele>
        <time>2021-05-24T10:30:54Z</time>
      </trkpt>
      <trkpt lat="43.42767" lon="2.45695">
        <ele>1152.854</ele>
        <time>2021-05-24T10:30:56Z</time>
      </trkpt>
      <trkpt lat="43.42769" lon="2.45697">
        <ele>1153.167</ele>
        <time>2021-05-24T10:30:58Z</time>
      </trkpt>
      <trkpt lat="43.42771" lon="2.45699">
        <ele>1153.217</ele>
        <time>2021-05-24T10:31:00Z</time>
      </trkpt>
      <trkpt lat="43.42773" lon="2.457">
        <ele>1152.983</ele>
        <time>2021-05-24T10:31:02Z</time>
      </trkpt>
      <trkpt lat="43.42775" lon="2.45701">
        <ele>1153.576</ele>
        <time>2021-05-24T10:31:04Z</time>
      </trkpt>
      <trkpt lat="43.42777" lon="2.45701">
        <ele>1154.383</ele>
        <time>2021-05-24T10:31:06Z</time>
      </trkpt>
      <trkpt lat="43.42779" lon="2.45701">
        <ele>1155.22</ele>
        <time>2021-05-24T10:31:08Z</time>
      </trkpt>
      <trkpt lat="43.42781" lon="2.45701">
        <ele>1155.847</ele>
        <time>2021-05-24T10:31:10Z</time>
      </trkpt>
      <trkpt lat="43.42783" lon="2.457">
        <ele>1156.494</ele>
        <time>2021-05-24T10:31:12Z</time>
      </trkpt>
      <trkpt lat="43.42785" lon="2.457">
        <ele>1156.969</ele>
        <time>2021-05-24T10:31:14Z</time>
      </trkpt>
      <trkpt lat="43.42787" lon="2.457">
        <ele>1157.702</ele>
        <time>2021-05-24T10:31:16Z</time>
      </trkpt>
      <trkpt lat="43.42789" lon="2.45699">
        <ele>1157.129</ele>
        <time>2021-05-24T10:31:18Z</time>
      </trkpt>
      <trkpt lat="43.42792" lon="2.45701">
        <ele>1157.816</ele>
        <time>2021-05-24T10:31:20Z</time>
      </trkpt>
      <trkpt lat="43.42794" lon="2.45703">
        <ele>1158.218</ele>
        <time>2021-05-24T10:31:22Z</time>
      </trkpt>
      <trkpt lat="43.42794" lon="2.45706">
        <ele>1158.85</ele>
        <time>2021-05-24T10:31:24Z</time>
      </trkpt>
      <trkpt lat="43.42794" lon="2.45709">
        <ele>1158.809</ele>
        <time>2021-05-24T10:31:26Z</time>
      </trkpt>
      <trkpt lat="43.42794" lon="2.45713">
        <ele>1158.527</ele>
        <time>2021-05-24T10:31:28Z</time>
      </trkpt>
      <trkpt lat="43.42793" lon="2.45715">
        <ele>1158.823</ele>
        <time>2021-05-24T10:31:30Z</time>
      </trkpt>
      <trkpt lat="43.42792" lon="2.45718">
        <ele>1158.855</ele>
        <time>2021-05-24T10:31:32Z</time>
      </trkpt>
      <trkpt lat="43.42791" lon="2.45722">
        <ele>1158.714</ele>
        <time>2021-05-24T10:31:34Z</time>
      </trkpt>
      <trkpt lat="43.42791" lon="2.45726">
        <ele>1159.982</ele>
        <time>2021-05-24T10:31:36Z</time>
      </trkpt>
      <trkpt lat="43.4279" lon="2.45729">
        <ele>1159.895</ele>
        <time>2021-05-24T10:31:38Z</time>
      </trkpt>
      <trkpt lat="43.4279" lon="2.45733">
        <ele>1160.415</ele>
        <time>2021-05-24T10:31:40Z</time>
      </trkpt>
      <trkpt lat="43.4279" lon="2.45736">
        <ele>1160.492</ele>
        <time>2021-05-24T10:31:42Z</time>
      </trkpt>
      <trkpt lat="43.42789" lon="2.45739">
        <ele>1160.5</ele>
        <time>2021-05-24T10:31:44Z</time>
      </trkpt>
      <trkpt lat="43.42789" lon="2.45743">
        <ele>1160.377</ele>
        <time>2021-05-24T10:31:46Z</time>
      </trkpt>
      <trkpt lat="43.42788" lon="2.45747">
        <ele>1160.888</ele>
        <time>2021-05-24T10:31:48Z</time>
      </trkpt>
      <trkpt lat="43.42787" lon="2.45751">
        <ele>1161.5</ele>
        <time>2021-05-24T10:31:50Z</time>
      </trkpt>
      <trkpt lat="43.42787" lon="2.45755">
        <ele>1162.484</ele>
        <time>2021-05-24T10:31:52Z</time>
      </trkpt>
      <trkpt lat="43.42786" lon="2.45759">
        <ele>1163.226</ele>
        <time>2021-05-24T10:31:54Z</time>
      </trkpt>
      <trkpt lat="43.42785" lon="2.45764">
        <ele>1163.761</ele>
        <time>2021-05-24T10:31:56Z</time>
      </trkpt>
      <trkpt lat="43.42785" lon="2.45769">
        <ele>1164.191</ele>
        <time>2021-05-24T10:31:58Z</time>
      </trkpt>
      <trkpt lat="43.42784" lon="2.45772">
        <ele>1164.631</ele>
        <time>2021-05-24T10:32:00Z</time>
      </trkpt>
      <trkpt lat="43.42784" lon="2.45775">
        <ele>1165.108</ele>
        <time>2021-05-24T10:32:02Z</time>
      </trkpt>
      <trkpt lat="43.42783" lon="2.45778">
        <ele>1165.557</ele>
        <time>2021-05-24T10:32:04Z</time>
      </trkpt>
      <trkpt lat="43.42783" lon="2.45781">
        <ele>1166.039</ele>
        <time>2021-05-24T10:32:06Z</time>
      </trkpt>
      <trkpt lat="43.42782" lon="2.45784">
        <ele>1165.704</ele>
        <time>2021-05-24T10:32:08Z</time>
      </trkpt>
      <trkpt lat="43.42782" lon="2.45788">
        <ele>1165.795</ele>
        <time>2021-05-24T10:32:10Z</time>
      </trkpt>
      <trkpt lat="43.42781" lon="2.45791">
        <ele>1166.347</ele>
        <time>2021-05-24T10:32:12Z</time>
      </trkpt>
      <trkpt lat="43.42781" lon="2.45794">
        <ele>1166.206</ele>
        <time>2021-05-24T10:32:14Z</time>
      </trkpt>
      <trkpt lat="43.42781" lon="2.45797">
        <ele>1166.573</ele>
        <time>2021-05-24T10:32:16Z</time>
      </trkpt>
      <trkpt lat="43.4278" lon="2.458">
        <ele>1166.114</ele>
        <time>2021-05-24T10:32:18Z</time>
      </trkpt>
      <trkpt lat="43.4278" lon="2.45803">
        <ele>1166.077</ele>
        <time>2021-05-24T10:32:20Z</time>
      </trkpt>
      <trkpt lat="43.42779" lon="2.45806">
        <ele>1165.632</ele>
        <time>2021-05-24T10:32:22Z</time>
      </trkpt>
      <trkpt lat="43.42779" lon="2.45809">
        <ele>1166.612</ele>
        <time>2021-05-24T10:32:24Z</time>
      </trkpt>
      <trkpt lat="43.42779" lon="2.45812">
        <ele>1166.88</ele>
        <time>2021-05-24T10:32:26Z</time>
      </trkpt>
      <trkpt lat="43.42778" lon="2.45815">
        <ele>1166.845</ele>
        <time>2021-05-24T10:32:28Z</time>
      </trkpt>
      <trkpt lat="43.42778" lon="2.45818">
        <ele>1166.866</ele>
        <time>2021-05-24T10:32:30Z</time>
      </trkpt>
      <trkpt lat="43.42778" lon="2.45821">
        <ele>1167.136</ele>
        <time>2021-05-24T10:32:32Z</time>
      </trkpt>
      <trkpt lat="43.42778" lon="2.45824">
        <ele>1167.215</ele>
        <time>2021-05-24T10:32:34Z</time>
      </trkpt>
      <trkpt lat="43.42778" lon="2.45827">
        <ele>1166.689</ele>
        <time>2021-05-24T10:32:36Z</time>
      </trkpt>
      <trkpt lat="43.42778" lon="2.4583">
        <ele>1167.441</ele>
        <time>2021-05-24T10:32:38Z</time>
      </trkpt>
      <trkpt lat="43.42778" lon="2.45833">
        <ele>1167.459</ele>
        <time>2021-05-24T10:32:40Z</time>
      </trkpt>
      <trkpt lat="43.42778" lon="2.45836">
        <ele>1167.698</ele>
        <time>2021-05-24T10:32:42Z</time>
      </trkpt>
      <trkpt lat="43.42778" lon="2.45839">
        <ele>1167.839</ele>
        <time>2021-05-24T10:32:44Z</time>
      </trkpt>
      <trkpt lat="43.42778" lon="2.45842">
        <ele>1167.97</ele>
        <time>2021-05-24T10:32:46Z</time>
      </trkpt>
      <trkpt lat="43.42778" lon="2.45845">
        <ele>1167.903</ele>
        <time>2021-05-24T10:32:48Z</time>
      </trkpt>
      <trkpt lat="43.42778" lon="2.45848">
        <ele>1168.073</ele>
        <time>2021-05-24T10:32:50Z</time>
      </trkpt>
      <trkpt lat="43.42778" lon="2.45851">
        <ele>1168.68</ele>
        <time>2021-05-24T10:32:52Z</time>
      </trkpt>
      <trkpt lat="43.42778" lon="2.45854">
        <ele>1168.728</ele>
        <time>2021-05-24T10:32:54Z</time>
      </trkpt>
      <trkpt lat="43.42778" lon="2.45857">
        <ele>1168.83</ele>
        <time>2021-05-24T10:32:56Z</time>
      </trkpt>
      <trkpt lat="43.42778" lon="2.4586">
        <ele>1169.11</ele>
        <time>2021-05-24T10:32:58Z</time>
      </trkpt>
      <trkpt lat="43.42778" lon="2.45863">
        <ele>1169.368</ele>
        <time>2021-05-24T10:33:00Z</time>
      </trkpt>
      <trkpt lat="43.42777" lon="2.45866">
        <ele>1169.628</ele>
        <time>2021-05-24T10:33:02Z</time>
      </trkpt>
      <trkpt lat="43.42777" lon="2.45869">
        <ele>1170.002</ele>
        <time>2021-05-24T10:33:04Z</time>
      </trkpt>
      <trkpt lat="43.42776" lon="2.45872">
        <ele>1170.08</ele>
        <time>2021-05-24T10:33:06Z</time>
      </trkpt>
      <trkpt lat="43.42775" lon="2.45875">
        <ele>1169.751</ele>
        <time>2021-05-24T10:33:08Z</time>
      </trkpt>
      <trkpt lat="43.42775" lon="2.45878">
        <ele>1169.931</ele>
        <time>2021-05-24T10:33:10Z</time>
      </trkpt>
      <trkpt lat="43.42774" lon="2.45881">
        <ele>1170.475</ele>
        <time>2021-05-24T10:33:12Z</time>
      </trkpt>
      <trkpt lat="43.42772" lon="2.45885">
        <ele>1171.492</ele>
        <time>2021-05-24T10:33:14Z</time>
      </trkpt>
      <trkpt lat="43.42771" lon="2.45888">
        <ele>1171.647</ele>
        <time>2021-05-24T10:33:16Z</time>
      </trkpt>
      <trkpt lat="43.4277" lon="2.4589">
        <ele>1171.836</ele>
        <time>2021-05-24T10:33:18Z</time>
      </trkpt>
      <trkpt lat="43.4277" lon="2.45893">
        <ele>1171.544</ele>
        <time>2021-05-24T10:33:20Z</time>
      </trkpt>
      <trkpt lat="43.42769" lon="2.45896">
        <ele>1171.644</ele>
        <time>2021-05-24T10:33:22Z</time>
      </trkpt>
      <trkpt lat="43.42767" lon="2.45898">
        <ele>1172.076</ele>
        <time>2021-05-24T10:33:24Z</time>
      </trkpt>
      <trkpt lat="43.42766" lon="2.45901">
        <ele>1172.368</ele>
        <time>2021-05-24T10:33:26Z</time>
      </trkpt>
      <trkpt lat="43.42765" lon="2.45904">
        <ele>1172.758</ele>
        <time>2021-05-24T10:33:28Z</time>
      </trkpt>
      <trkpt lat="43.42764" lon="2.45907">
        <ele>1173.307</ele>
        <time>2021-05-24T10:33:30Z</time>
      </trkpt>
      <trkpt lat="43.42762" lon="2.4591">
        <ele>1173.216</ele>
        <time>2021-05-24T10:33:32Z</time>
      </trkpt>
      <trkpt lat="43.42761" lon="2.45913">
        <ele>1173.741</ele>
        <time>2021-05-24T10:33:34Z</time>
      </trkpt>
      <trkpt lat="43.4276" lon="2.45916">
        <ele>1174.417</ele>
        <time>2021-05-24T10:33:36Z</time>
      </trkpt>
      <trkpt lat="43.42759" lon="2.45918">
        <ele>1174.612</ele>
        <time>2021-05-24T10:33:38Z</time>
      </trkpt>
      <trkpt lat="43.42758" lon="2.45921">
        <ele>1174.684</ele>
        <time>2021-05-24T10:33:40Z</time>
      </trkpt>
      <trkpt lat="43.42756" lon="2.45924">
        <ele>1174.934</ele>
        <time>2021-05-24T10:33:42Z</time>
      </trkpt>
      <trkpt lat="43.42755" lon="2.45926">
        <ele>1174.618</ele>
        <time>2021-05-24T10:33:44Z</time>
      </trkpt>
      <trkpt lat="43.42753" lon="2.45929">
        <ele>1174.254</ele>
        <time>2021-05-24T10:33:46Z</time>
      </trkpt>
      <trkpt lat="43.42752" lon="2.45932">
        <ele>1174.362</ele>
        <time>2021-05-24T10:33:48Z</time>
      </trkpt>
      <trkpt lat="43.4275" lon="2.45934">
        <ele>1174.883</ele>
        <time>2021-05-24T10:33:50Z</time>
      </trkpt>
      <trkpt lat="43.42749" lon="2.45937">
        <ele>1174.91</ele>
        <time>2021-05-24T10:33:52Z</time>
      </trkpt>
      <trkpt lat="43.42748" lon="2.4594">
        <ele>1175.543</ele>
        <time>2021-05-24T10:33:54Z</time>
      </trkpt>
      <trkpt lat="43.42746" lon="2.45943">
        <ele>1175.889</ele>
        <time>2021-05-24T10:33:56Z</time>
      </trkpt>
      <trkpt lat="43.42744" lon="2.45946">
        <ele>1176.975</ele>
        <time>2021-05-24T10:33:58Z</time>
      </trkpt>
      <trkpt lat="43.42742" lon="2.45949">
        <ele>1176.859</ele>
        <time>2021-05-24T10:34:00Z</time>
      </trkpt>
      <trkpt lat="43.42741" lon="2.45951">
        <ele>1176.799</ele>
        <time>2021-05-24T10:34:02Z</time>
      </trkpt>
      <trkpt lat="43.42739" lon="2.45954">
        <ele>1177.171</ele>
        <time>2021-05-24T10:34:04Z</time>
      </trkpt>
      <trkpt lat="43.42736" lon="2.45957">
        <ele>1178.363</ele>
        <time>2021-05-24T10:34:06Z</time>
      </trkpt>
      <trkpt lat="43.42735" lon="2.45959">
        <ele>1176.033</ele>
        <time>2021-05-24T10:34:08Z</time>
      </trkpt>
      <trkpt lat="43.42734" lon="2.45961">
        <ele>1175.282</ele>
        <time>2021-05-24T10:34:10Z</time>
      </trkpt>
      <trkpt lat="43.42733" lon="2.45963">
        <ele>1175.636</ele>
        <time>2021-05-24T10:34:12Z</time>
      </trkpt>
      <trkpt lat="43.42732" lon="2.45966">
        <ele>1176.722</ele>
        <time>2021-05-24T10:34:14Z</time>
      </trkpt>
      <trkpt lat="43.4273" lon="2.45968">
        <ele>1177.075</ele>
        <time>2021-05-24T10:34:16Z</time>
      </trkpt>
      <trkpt lat="43.42728" lon="2.45971">
        <ele>1177.386</ele>
        <time>2021-05-24T10:34:18Z</time>
      </trkpt>
      <trkpt lat="43.42726" lon="2.45973">
        <ele>1178.026</ele>
        <time>2021-05-24T10:34:20Z</time>
      </trkpt>
      <trkpt lat="43.42724" lon="2.45976">
        <ele>1179.017</ele>
        <time>2021-05-24T10:34:22Z</time>
      </trkpt>
      <trkpt lat="43.42722" lon="2.45978">
        <ele>1179.167</ele>
        <time>2021-05-24T10:34:24Z</time>
      </trkpt>
      <trkpt lat="43.4272" lon="2.45981">
        <ele>1180.279</ele>
        <time>2021-05-24T10:34:26Z</time>
      </trkpt>
      <trkpt lat="43.42718" lon="2.45983">
        <ele>1180.839</ele>
        <time>2021-05-24T10:34:28Z</time>
      </trkpt>
      <trkpt lat="43.42716" lon="2.45985">
        <ele>1181.05</ele>
        <time>2021-05-24T10:34:30Z</time>
      </trkpt>
      <trkpt lat="43.42713" lon="2.45987">
        <ele>1181.406</ele>
        <time>2021-05-24T10:34:32Z</time>
      </trkpt>
      <trkpt lat="43.42711" lon="2.45989">
        <ele>1181.49</ele>
        <time>2021-05-24T10:34:34Z</time>
      </trkpt>
      <trkpt lat="43.42709" lon="2.45991">
        <ele>1181.894</ele>
        <time>2021-05-24T10:34:36Z</time>
      </trkpt>
      <trkpt lat="43.42706" lon="2.45993">
        <ele>1182.502</ele>
        <time>2021-05-24T10:34:38Z</time>
      </trkpt>
      <trkpt lat="43.42703" lon="2.45995">
        <ele>1182.241</ele>
        <time>2021-05-24T10:34:40Z</time>
      </trkpt>
      <trkpt lat="43.42701" lon="2.45997">
        <ele>1182.162</ele>
        <time>2021-05-24T10:34:42Z</time>
      </trkpt>
      <trkpt lat="43.427" lon="2.45999">
        <ele>1182.709</ele>
        <time>2021-05-24T10:34:44Z</time>
      </trkpt>
      <trkpt lat="43.42699" lon="2.46002">
        <ele>1182.744</ele>
        <time>2021-05-24T10:34:46Z</time>
      </trkpt>
      <trkpt lat="43.42698" lon="2.46004">
        <ele>1182.781</ele>
        <time>2021-05-24T10:34:48Z</time>
      </trkpt>
      <trkpt lat="43.42696" lon="2.46006">
        <ele>1182.401</ele>
        <time>2021-05-24T10:34:50Z</time>
      </trkpt>
      <trkpt lat="43.42695" lon="2.46009">
        <ele>1182.851</ele>
        <time>2021-05-24T10:34:52Z</time>
      </trkpt>
      <trkpt lat="43.42694" lon="2.46011">
        <ele>1183.543</ele>
        <time>2021-05-24T10:34:54Z</time>
      </trkpt>
      <trkpt lat="43.42692" lon="2.46012">
        <ele>1183.686</ele>
        <time>2021-05-24T10:34:56Z</time>
      </trkpt>
      <trkpt lat="43.4269" lon="2.46013">
        <ele>1183.4</ele>
        <time>2021-05-24T10:34:58Z</time>
      </trkpt>
      <trkpt lat="43.42688" lon="2.46013">
        <ele>1183.288</ele>
        <time>2021-05-24T10:35:00Z</time>
      </trkpt>
      <trkpt lat="43.42686" lon="2.46013">
        <ele>1183.809</ele>
        <time>2021-05-24T10:35:02Z</time>
      </trkpt>
      <trkpt lat="43.42683" lon="2.46014">
        <ele>1183.857</ele>
        <time>2021-05-24T10:35:04Z</time>
      </trkpt>
      <trkpt lat="43.42681" lon="2.46015">
        <ele>1183.949</ele>
        <time>2021-05-24T10:35:06Z</time>
      </trkpt>
      <trkpt lat="43.42679" lon="2.46016">
        <ele>1183.919</ele>
        <time>2021-05-24T10:35:08Z</time>
      </trkpt>
      <trkpt lat="43.42677" lon="2.46017">
        <ele>1183.982</ele>
        <time>2021-05-24T10:35:10Z</time>
      </trkpt>
      <trkpt lat="43.42675" lon="2.46017">
        <ele>1184.212</ele>
        <time>2021-05-24T10:35:12Z</time>
      </trkpt>
      <trkpt lat="43.42673" lon="2.46017">
        <ele>1184.292</ele>
        <time>2021-05-24T10:35:14Z</time>
      </trkpt>
      <trkpt lat="43.4267" lon="2.46017">
        <ele>1184.127</ele>
        <time>2021-05-24T10:35:16Z</time>
      </trkpt>
      <trkpt lat="43.42668" lon="2.46017">
        <ele>1184.065</ele>
        <time>2021-05-24T10:35:18Z</time>
      </trkpt>
      <trkpt lat="43.42666" lon="2.46019">
        <ele>1184.817</ele>
        <time>2021-05-24T10:35:20Z</time>
      </trkpt>
      <trkpt lat="43.42664" lon="2.4602">
        <ele>1184.358</ele>
        <time>2021-05-24T10:35:22Z</time>
      </trkpt>
      <trkpt lat="43.42662" lon="2.46022">
        <ele>1184.57</ele>
        <time>2021-05-24T10:35:24Z</time>
      </trkpt>
      <trkpt lat="43.4266" lon="2.46024">
        <ele>1184.408</ele>
        <time>2021-05-24T10:35:26Z</time>
      </trkpt>
      <trkpt lat="43.42658" lon="2.46026">
        <ele>1184.816</ele>
        <time>2021-05-24T10:35:28Z</time>
      </trkpt>
      <trkpt lat="43.42657" lon="2.46029">
        <ele>1185.004</ele>
        <time>2021-05-24T10:35:30Z</time>
      </trkpt>
      <trkpt lat="43.42655" lon="2.46031">
        <ele>1184.655</ele>
        <time>2021-05-24T10:35:32Z</time>
      </trkpt>
      <trkpt lat="43.42654" lon="2.46034">
        <ele>1184.33</ele>
        <time>2021-05-24T10:35:34Z</time>
      </trkpt>
      <trkpt lat="43.42652" lon="2.46037">
        <ele>1184.681</ele>
        <time>2021-05-24T10:35:36Z</time>
      </trkpt>
      <trkpt lat="43.42651" lon="2.46039">
        <ele>1185.054</ele>
        <time>2021-05-24T10:35:38Z</time>
      </trkpt>
      <trkpt lat="43.4265" lon="2.46041">
        <ele>1185.746</ele>
        <time>2021-05-24T10:35:40Z</time>
      </trkpt>
      <trkpt lat="43.42649" lon="2.46043">
        <ele>1186.672</ele>
        <time>2021-05-24T10:35:42Z</time>
      </trkpt>
      <trkpt lat="43.42648" lon="2.46043">
        <ele>1186.553</ele>
        <time>2021-05-24T10:35:44Z</time>
      </trkpt>
      <trkpt lat="43.42648" lon="2.46045">
        <ele>1187.307</ele>
        <time>2021-05-24T10:35:46Z</time>
      </trkpt>
      <trkpt lat="43.42647" lon="2.46048">
        <ele>1187.988</ele>
        <time>2021-05-24T10:35:49Z</time>
      </trkpt>
      <trkpt lat="43.42646" lon="2.4605">
        <ele>1188.721</ele>
        <time>2021-05-24T10:35:51Z</time>
      </trkpt>
      <trkpt lat="43.42646" lon="2.46052">
        <ele>1188.453</ele>
        <time>2021-05-24T10:35:53Z</time>
      </trkpt>
      <trkpt lat="43.42645" lon="2.46054">
        <ele>1188.247</ele>
        <time>2021-05-24T10:35:55Z</time>
      </trkpt>
      <trkpt lat="43.42644" lon="2.46056">
        <ele>1188.191</ele>
        <time>2021-05-24T10:35:57Z</time>
      </trkpt>
      <trkpt lat="43.42642" lon="2.46058">
        <ele>1188.105</ele>
        <time>2021-05-24T10:35:59Z</time>
      </trkpt>
      <trkpt lat="43.42641" lon="2.46061">
        <ele>1188.681</ele>
        <time>2021-05-24T10:36:01Z</time>
      </trkpt>
      <trkpt lat="43.4264" lon="2.46062">
        <ele>1188.85</ele>
        <time>2021-05-24T10:36:03Z</time>
      </trkpt>
      <trkpt lat="43.42637" lon="2.46063">
        <ele>1189.218</ele>
        <time>2021-05-24T10:36:05Z</time>
      </trkpt>
      <trkpt lat="43.42635" lon="2.46065">
        <ele>1190.284</ele>
        <time>2021-05-24T10:36:07Z</time>
      </trkpt>
      <trkpt lat="43.42633" lon="2.46066">
        <ele>1190.806</ele>
        <time>2021-05-24T10:36:09Z</time>
      </trkpt>
      <trkpt lat="43.4263" lon="2.46067">
        <ele>1190.941</ele>
        <time>2021-05-24T10:36:11Z</time>
      </trkpt>
      <trkpt lat="43.42628" lon="2.46067">
        <ele>1190.743</ele>
        <time>2021-05-24T10:36:13Z</time>
      </trkpt>
      <trkpt lat="43.42626" lon="2.46068">
        <ele>1191.137</ele>
        <time>2021-05-24T10:36:15Z</time>
      </trkpt>
      <trkpt lat="43.42624" lon="2.46069">
        <ele>1191.153</ele>
        <time>2021-05-24T10:36:17Z</time>
      </trkpt>
      <trkpt lat="43.42622" lon="2.46069">
        <ele>1191.284</ele>
        <time>2021-05-24T10:36:19Z</time>
      </trkpt>
      <trkpt lat="43.42619" lon="2.4607">
        <ele>1192.26</ele>
        <time>2021-05-24T10:36:21Z</time>
      </trkpt>
      <trkpt lat="43.42616" lon="2.46071">
        <ele>1192.501</ele>
        <time>2021-05-24T10:36:23Z</time>
      </trkpt>
      <trkpt lat="43.42614" lon="2.46071">
        <ele>1192.407</ele>
        <time>2021-05-24T10:36:25Z</time>
      </trkpt>
      <trkpt lat="43.42611" lon="2.46071">
        <ele>1192.078</ele>
        <time>2021-05-24T10:36:27Z</time>
      </trkpt>
      <trkpt lat="43.42609" lon="2.46071">
        <ele>1192.233</ele>
        <time>2021-05-24T10:36:29Z</time>
      </trkpt>
      <trkpt lat="43.42606" lon="2.46072">
        <ele>1192.384</ele>
        <time>2021-05-24T10:36:31Z</time>
      </trkpt>
      <trkpt lat="43.42603" lon="2.46072">
        <ele>1192.962</ele>
        <time>2021-05-24T10:36:33Z</time>
      </trkpt>
      <trkpt lat="43.42601" lon="2.46072">
        <ele>1193.2</ele>
        <time>2021-05-24T10:36:35Z</time>
      </trkpt>
      <trkpt lat="43.42599" lon="2.46072">
        <ele>1193.329</ele>
        <time>2021-05-24T10:36:37Z</time>
      </trkpt>
      <trkpt lat="43.42595" lon="2.46072">
        <ele>1193.133</ele>
        <time>2021-05-24T10:36:39Z</time>
      </trkpt>
      <trkpt lat="43.42593" lon="2.46073">
        <ele>1192.866</ele>
        <time>2021-05-24T10:36:41Z</time>
      </trkpt>
      <trkpt lat="43.42591" lon="2.46074">
        <ele>1192.067</ele>
        <time>2021-05-24T10:36:43Z</time>
      </trkpt>
      <trkpt lat="43.42588" lon="2.46076">
        <ele>1192.466</ele>
        <time>2021-05-24T10:36:45Z</time>
      </trkpt>
      <trkpt lat="43.42586" lon="2.46078">
        <ele>1193.063</ele>
        <time>2021-05-24T10:36:47Z</time>
      </trkpt>
      <trkpt lat="43.42584" lon="2.46079">
        <ele>1193.615</ele>
        <time>2021-05-24T10:36:49Z</time>
      </trkpt>
      <trkpt lat="43.42582" lon="2.46081">
        <ele>1193.816</ele>
        <time>2021-05-24T10:36:51Z</time>
      </trkpt>
      <trkpt lat="43.4258" lon="2.46082">
        <ele>1194.375</ele>
        <time>2021-05-24T10:36:53Z</time>
      </trkpt>
      <trkpt lat="43.42577" lon="2.46083">
        <ele>1194.375</ele>
        <time>2021-05-24T10:36:55Z</time>
      </trkpt>
      <trkpt lat="43.42575" lon="2.46084">
        <ele>1194.621</ele>
        <time>2021-05-24T10:36:57Z</time>
      </trkpt>
      <trkpt lat="43.42572" lon="2.46086">
        <ele>1195.26</ele>
        <time>2021-05-24T10:36:59Z</time>
      </trkpt>
      <trkpt lat="43.4257" lon="2.46087">
        <ele>1195.612</ele>
        <time>2021-05-24T10:37:01Z</time>
      </trkpt>
      <trkpt lat="43.42567" lon="2.46088">
        <ele>1196.316</ele>
        <time>2021-05-24T10:37:03Z</time>
      </trkpt>
      <trkpt lat="43.42565" lon="2.46089">
        <ele>1195.936</ele>
        <time>2021-05-24T10:37:05Z</time>
      </trkpt>
      <trkpt lat="43.42563" lon="2.4609">
        <ele>1195.95</ele>
        <time>2021-05-24T10:37:07Z</time>
      </trkpt>
      <trkpt lat="43.42561" lon="2.46092">
        <ele>1196.17</ele>
        <time>2021-05-24T10:37:09Z</time>
      </trkpt>
      <trkpt lat="43.42558" lon="2.46094">
        <ele>1196.528</ele>
        <time>2021-05-24T10:37:11Z</time>
      </trkpt>
      <trkpt lat="43.42556" lon="2.46095">
        <ele>1197.088</ele>
        <time>2021-05-24T10:37:13Z</time>
      </trkpt>
      <trkpt lat="43.42554" lon="2.46096">
        <ele>1196.997</ele>
        <time>2021-05-24T10:37:15Z</time>
      </trkpt>
      <trkpt lat="43.42551" lon="2.46096">
        <ele>1197.242</ele>
        <time>2021-05-24T10:37:17Z</time>
      </trkpt>
      <trkpt lat="43.42549" lon="2.46097">
        <ele>1197.335</ele>
        <time>2021-05-24T10:37:19Z</time>
      </trkpt>
      <trkpt lat="43.42546" lon="2.46098">
        <ele>1198.264</ele>
        <time>2021-05-24T10:37:21Z</time>
      </trkpt>
      <trkpt lat="43.42544" lon="2.46099">
        <ele>1198.501</ele>
        <time>2021-05-24T10:37:23Z</time>
      </trkpt>
      <trkpt lat="43.42542" lon="2.46101">
        <ele>1198.711</ele>
        <time>2021-05-24T10:37:25Z</time>
      </trkpt>
      <trkpt lat="43.42541" lon="2.46104">
        <ele>1199.023</ele>
        <time>2021-05-24T10:37:27Z</time>
      </trkpt>
      <trkpt lat="43.42541" lon="2.46107">
        <ele>1199.374</ele>
        <time>2021-05-24T10:37:29Z</time>
      </trkpt>
      <trkpt lat="43.42539" lon="2.4611">
        <ele>1199.955</ele>
        <time>2021-05-24T10:37:31Z</time>
      </trkpt>
      <trkpt lat="43.42538" lon="2.46112">
        <ele>1199.901</ele>
        <time>2021-05-24T10:37:33Z</time>
      </trkpt>
      <trkpt lat="43.42537" lon="2.46116">
        <ele>1200.351</ele>
        <time>2021-05-24T10:37:36Z</time>
      </trkpt>
      <trkpt lat="43.42535" lon="2.46118">
        <ele>1201.533</ele>
        <time>2021-05-24T10:37:38Z</time>
      </trkpt>
      <trkpt lat="43.42534" lon="2.4612">
        <ele>1201.7</ele>
        <time>2021-05-24T10:37:40Z</time>
      </trkpt>
      <trkpt lat="43.42533" lon="2.46122">
        <ele>1202.493</ele>
        <time>2021-05-24T10:37:42Z</time>
      </trkpt>
      <trkpt lat="43.42532" lon="2.46125">
        <ele>1202.72</ele>
        <time>2021-05-24T10:37:44Z</time>
      </trkpt>
      <trkpt lat="43.42531" lon="2.46128">
        <ele>1202.882</ele>
        <time>2021-05-24T10:37:46Z</time>
      </trkpt>
      <trkpt lat="43.4253" lon="2.4613">
        <ele>1203.676</ele>
        <time>2021-05-24T10:37:48Z</time>
      </trkpt>
      <trkpt lat="43.42529" lon="2.46132">
        <ele>1203.655</ele>
        <time>2021-05-24T10:37:50Z</time>
      </trkpt>
      <trkpt lat="43.42527" lon="2.46135">
        <ele>1204.514</ele>
        <time>2021-05-24T10:37:52Z</time>
      </trkpt>
      <trkpt lat="43.42527" lon="2.46137">
        <ele>1204.871</ele>
        <time>2021-05-24T10:37:54Z</time>
      </trkpt>
      <trkpt lat="43.42525" lon="2.46139">
        <ele>1205.858</ele>
        <time>2021-05-24T10:37:56Z</time>
      </trkpt>
      <trkpt lat="43.42524" lon="2.46141">
        <ele>1206.63</ele>
        <time>2021-05-24T10:37:58Z</time>
      </trkpt>
      <trkpt lat="43.42523" lon="2.46143">
        <ele>1206.337</ele>
        <time>2021-05-24T10:38:00Z</time>
      </trkpt>
      <trkpt lat="43.42522" lon="2.46146">
        <ele>1206.575</ele>
        <time>2021-05-24T10:38:02Z</time>
      </trkpt>
      <trkpt lat="43.42521" lon="2.46148">
        <ele>1206.918</ele>
        <time>2021-05-24T10:38:04Z</time>
      </trkpt>
      <trkpt lat="43.4252" lon="2.46151">
        <ele>1206.504</ele>
        <time>2021-05-24T10:38:06Z</time>
      </trkpt>
      <trkpt lat="43.42519" lon="2.46153">
        <ele>1206.697</ele>
        <time>2021-05-24T10:38:08Z</time>
      </trkpt>
      <trkpt lat="43.42517" lon="2.46155">
        <ele>1206.935</ele>
        <time>2021-05-24T10:38:10Z</time>
      </trkpt>
      <trkpt lat="43.42516" lon="2.46157">
        <ele>1206.866</ele>
        <time>2021-05-24T10:38:12Z</time>
      </trkpt>
      <trkpt lat="43.42515" lon="2.46159">
        <ele>1207.299</ele>
        <time>2021-05-24T10:38:14Z</time>
      </trkpt>
      <trkpt lat="43.42514" lon="2.46161">
        <ele>1207.142</ele>
        <time>2021-05-24T10:38:16Z</time>
      </trkpt>
      <trkpt lat="43.42513" lon="2.46163">
        <ele>1207.048</ele>
        <time>2021-05-24T10:38:18Z</time>
      </trkpt>
      <trkpt lat="43.42511" lon="2.46165">
        <ele>1206.421</ele>
        <time>2021-05-24T10:38:20Z</time>
      </trkpt>
      <trkpt lat="43.4251" lon="2.46166">
        <ele>1206.715</ele>
        <time>2021-05-24T10:38:22Z</time>
      </trkpt>
      <trkpt lat="43.42509" lon="2.46168">
        <ele>1206.919</ele>
        <time>2021-05-24T10:38:24Z</time>
      </trkpt>
      <trkpt lat="43.42509" lon="2.4617">
        <ele>1206.934</ele>
        <time>2021-05-24T10:38:26Z</time>
      </trkpt>
      <trkpt lat="43.42508" lon="2.46173">
        <ele>1207.105</ele>
        <time>2021-05-24T10:38:28Z</time>
      </trkpt>
      <trkpt lat="43.42507" lon="2.46175">
        <ele>1207.535</ele>
        <time>2021-05-24T10:38:30Z</time>
      </trkpt>
      <trkpt lat="43.42506" lon="2.46177">
        <ele>1207.649</ele>
        <time>2021-05-24T10:38:32Z</time>
      </trkpt>
      <trkpt lat="43.42504" lon="2.4618">
        <ele>1207.509</ele>
        <time>2021-05-24T10:38:35Z</time>
      </trkpt>
      <trkpt lat="43.42503" lon="2.46182">
        <ele>1208.64</ele>
        <time>2021-05-24T10:38:37Z</time>
      </trkpt>
      <trkpt lat="43.42501" lon="2.46184">
        <ele>1208.813</ele>
        <time>2021-05-24T10:38:39Z</time>
      </trkpt>
      <trkpt lat="43.425" lon="2.46186">
        <ele>1209.058</ele>
        <time>2021-05-24T10:38:41Z</time>
      </trkpt>
      <trkpt lat="43.42498" lon="2.46187">
        <ele>1209.303</ele>
        <time>2021-05-24T10:38:43Z</time>
      </trkpt>
      <trkpt lat="43.42497" lon="2.46189">
        <ele>1209.52</ele>
        <time>2021-05-24T10:38:45Z</time>
      </trkpt>
      <trkpt lat="43.42496" lon="2.46192">
        <ele>1209.472</ele>
        <time>2021-05-24T10:38:47Z</time>
      </trkpt>
      <trkpt lat="43.42495" lon="2.46193">
        <ele>1209.567</ele>
        <time>2021-05-24T10:38:49Z</time>
      </trkpt>
      <trkpt lat="43.42494" lon="2.46195">
        <ele>1210.158</ele>
        <time>2021-05-24T10:38:51Z</time>
      </trkpt>
      <trkpt lat="43.42492" lon="2.46197">
        <ele>1210.196</ele>
        <time>2021-05-24T10:38:53Z</time>
      </trkpt>
      <trkpt lat="43.42491" lon="2.46199">
        <ele>1210.491</ele>
        <time>2021-05-24T10:38:55Z</time>
      </trkpt>
      <trkpt lat="43.42489" lon="2.46201">
        <ele>1210.838</ele>
        <time>2021-05-24T10:38:57Z</time>
      </trkpt>
      <trkpt lat="43.42487" lon="2.46203">
        <ele>1210.708</ele>
        <time>2021-05-24T10:38:59Z</time>
      </trkpt>
      <trkpt lat="43.42486" lon="2.46205">
        <ele>1210.312</ele>
        <time>2021-05-24T10:39:01Z</time>
      </trkpt>
      <trkpt lat="43.42485" lon="2.46208">
        <ele>1211.019</ele>
        <time>2021-05-24T10:39:03Z</time>
      </trkpt>
      <trkpt lat="43.42484" lon="2.4621">
        <ele>1211.427</ele>
        <time>2021-05-24T10:39:05Z</time>
      </trkpt>
      <trkpt lat="43.42482" lon="2.46212">
        <ele>1212.078</ele>
        <time>2021-05-24T10:39:07Z</time>
      </trkpt>
      <trkpt lat="43.42481" lon="2.46214">
        <ele>1211.82</ele>
        <time>2021-05-24T10:39:09Z</time>
      </trkpt>
      <trkpt lat="43.42479" lon="2.46216">
        <ele>1211.971</ele>
        <time>2021-05-24T10:39:11Z</time>
      </trkpt>
      <trkpt lat="43.42478" lon="2.46217">
        <ele>1212.124</ele>
        <time>2021-05-24T10:39:13Z</time>
      </trkpt>
      <trkpt lat="43.42476" lon="2.46218">
        <ele>1212.503</ele>
        <time>2021-05-24T10:39:15Z</time>
      </trkpt>
      <trkpt lat="43.42474" lon="2.4622">
        <ele>1211.925</ele>
        <time>2021-05-24T10:39:17Z</time>
      </trkpt>
      <trkpt lat="43.42472" lon="2.46221">
        <ele>1212.079</ele>
        <time>2021-05-24T10:39:19Z</time>
      </trkpt>
      <trkpt lat="43.4247" lon="2.46222">
        <ele>1212.134</ele>
        <time>2021-05-24T10:39:21Z</time>
      </trkpt>
      <trkpt lat="43.42469" lon="2.46223">
        <ele>1212.27</ele>
        <time>2021-05-24T10:39:23Z</time>
      </trkpt>
      <trkpt lat="43.42467" lon="2.46225">
        <ele>1211.516</ele>
        <time>2021-05-24T10:39:25Z</time>
      </trkpt>
      <trkpt lat="43.42466" lon="2.46226">
        <ele>1212.162</ele>
        <time>2021-05-24T10:39:27Z</time>
      </trkpt>
      <trkpt lat="43.42464" lon="2.46227">
        <ele>1212.098</ele>
        <time>2021-05-24T10:39:29Z</time>
      </trkpt>
      <trkpt lat="43.42462" lon="2.46228">
        <ele>1212.026</ele>
        <time>2021-05-24T10:39:31Z</time>
      </trkpt>
      <trkpt lat="43.42461" lon="2.4623">
        <ele>1212.045</ele>
        <time>2021-05-24T10:39:33Z</time>
      </trkpt>
      <trkpt lat="43.42459" lon="2.46231">
        <ele>1211.97</ele>
        <time>2021-05-24T10:39:35Z</time>
      </trkpt>
      <trkpt lat="43.42457" lon="2.46232">
        <ele>1211.531</ele>
        <time>2021-05-24T10:39:37Z</time>
      </trkpt>
      <trkpt lat="43.42455" lon="2.46232">
        <ele>1212.154</ele>
        <time>2021-05-24T10:39:39Z</time>
      </trkpt>
      <trkpt lat="43.42452" lon="2.46233">
        <ele>1212.244</ele>
        <time>2021-05-24T10:39:41Z</time>
      </trkpt>
      <trkpt lat="43.42451" lon="2.46233">
        <ele>1212.193</ele>
        <time>2021-05-24T10:39:43Z</time>
      </trkpt>
      <trkpt lat="43.42449" lon="2.46233">
        <ele>1212.158</ele>
        <time>2021-05-24T10:39:45Z</time>
      </trkpt>
      <trkpt lat="43.42447" lon="2.46234">
        <ele>1212.271</ele>
        <time>2021-05-24T10:39:47Z</time>
      </trkpt>
      <trkpt lat="43.42446" lon="2.46234">
        <ele>1212.553</ele>
        <time>2021-05-24T10:39:49Z</time>
      </trkpt>
      <trkpt lat="43.42444" lon="2.46234">
        <ele>1212.183</ele>
        <time>2021-05-24T10:39:51Z</time>
      </trkpt>
      <trkpt lat="43.42442" lon="2.46234">
        <ele>1212.469</ele>
        <time>2021-05-24T10:39:53Z</time>
      </trkpt>
      <trkpt lat="43.4244" lon="2.46234">
        <ele>1212.706</ele>
        <time>2021-05-24T10:39:55Z</time>
      </trkpt>
      <trkpt lat="43.42438" lon="2.46235">
        <ele>1212.168</ele>
        <time>2021-05-24T10:39:57Z</time>
      </trkpt>
      <trkpt lat="43.42435" lon="2.46235">
        <ele>1211.802</ele>
        <time>2021-05-24T10:39:59Z</time>
      </trkpt>
      <trkpt lat="43.42433" lon="2.46235">
        <ele>1210.867</ele>
        <time>2021-05-24T10:40:01Z</time>
      </trkpt>
      <trkpt lat="43.42431" lon="2.46236">
        <ele>1210.772</ele>
        <time>2021-05-24T10:40:03Z</time>
      </trkpt>
      <trkpt lat="43.42428" lon="2.46235">
        <ele>1210.876</ele>
        <time>2021-05-24T10:40:05Z</time>
      </trkpt>
      <trkpt lat="43.42426" lon="2.46234">
        <ele>1210.419</ele>
        <time>2021-05-24T10:40:07Z</time>
      </trkpt>
      <trkpt lat="43.42424" lon="2.46234">
        <ele>1210.112</ele>
        <time>2021-05-24T10:40:09Z</time>
      </trkpt>
      <trkpt lat="43.42421" lon="2.46234">
        <ele>1209.888</ele>
        <time>2021-05-24T10:40:11Z</time>
      </trkpt>
      <trkpt lat="43.42421" lon="2.46231">
        <ele>1210.476</ele>
        <time>2021-05-24T10:40:13Z</time>
      </trkpt>
      <trkpt lat="43.42421" lon="2.4623">
        <ele>1210.112</ele>
        <time>2021-05-24T10:40:15Z</time>
      </trkpt>
      <trkpt lat="43.42421" lon="2.46229">
        <ele>1210.113</ele>
        <time>2021-05-24T10:40:17Z</time>
      </trkpt>
      <trkpt lat="43.42421" lon="2.46229">
        <ele>1210.11</ele>
        <time>2021-05-24T10:40:19Z</time>
      </trkpt>
      <trkpt lat="43.42421" lon="2.46229">
        <ele>1210.11</ele>
        <time>2021-05-24T10:40:21Z</time>
      </trkpt>
      <trkpt lat="43.42421" lon="2.46229">
        <ele>1210.119</ele>
        <time>2021-05-24T10:40:23Z</time>
      </trkpt>
      <trkpt lat="43.42421" lon="2.46229">
        <ele>1210.123</ele>
        <time>2021-05-24T10:40:25Z</time>
      </trkpt>
      <trkpt lat="43.42421" lon="2.46229">
        <ele>1210.121</ele>
        <time>2021-05-24T10:40:27Z</time>
      </trkpt>
      <trkpt lat="43.42421" lon="2.46229">
        <ele>1210.127</ele>
        <time>2021-05-24T10:40:29Z</time>
      </trkpt>
      <trkpt lat="43.42421" lon="2.46229">
        <ele>1210.132</ele>
        <time>2021-05-24T10:40:31Z</time>
      </trkpt>
      <trkpt lat="43.42421" lon="2.46229">
        <ele>1210.132</ele>
        <time>2021-05-24T10:40:33Z</time>
      </trkpt>
      <trkpt lat="43.42421" lon="2.46229">
        <ele>1210.136</ele>
        <time>2021-05-24T10:40:35Z</time>
      </trkpt>
      <trkpt lat="43.42421" lon="2.4623">
        <ele>1210.335</ele>
        <time>2021-05-24T10:40:37Z</time>
      </trkpt>
      <trkpt lat="43.4242" lon="2.4623">
        <ele>1210.827</ele>
        <time>2021-05-24T10:40:39Z</time>
      </trkpt>
      <trkpt lat="43.4242" lon="2.46231">
        <ele>1211.113</ele>
        <time>2021-05-24T10:40:41Z</time>
      </trkpt>
      <trkpt lat="43.4242" lon="2.46231">
        <ele>1210.433</ele>
        <time>2021-05-24T10:40:43Z</time>
      </trkpt>
      <trkpt lat="43.4242" lon="2.46232">
        <ele>1210.522</ele>
        <time>2021-05-24T10:40:45Z</time>
      </trkpt>
      <trkpt lat="43.42419" lon="2.46232">
        <ele>1210.695</ele>
        <time>2021-05-24T10:40:47Z</time>
      </trkpt>
      <trkpt lat="43.42418" lon="2.46231">
        <ele>1210.727</ele>
        <time>2021-05-24T10:40:49Z</time>
      </trkpt>
      <trkpt lat="43.42417" lon="2.46233">
        <ele>1211.384</ele>
        <time>2021-05-24T10:40:51Z</time>
      </trkpt>
      <trkpt lat="43.42417" lon="2.46235">
        <ele>1211.274</ele>
        <time>2021-05-24T10:40:53Z</time>
      </trkpt>
      <trkpt lat="43.42416" lon="2.46236">
        <ele>1211.041</ele>
        <time>2021-05-24T10:40:55Z</time>
      </trkpt>
      <trkpt lat="43.42416" lon="2.46236">
        <ele>1211.036</ele>
        <time>2021-05-24T10:40:57Z</time>
      </trkpt>
      <trkpt lat="43.42416" lon="2.46237">
        <ele>1210.741</ele>
        <time>2021-05-24T10:40:59Z</time>
      </trkpt>
      <trkpt lat="43.42415" lon="2.46238">
        <ele>1211.421</ele>
        <time>2021-05-24T10:41:01Z</time>
      </trkpt>
      <trkpt lat="43.42414" lon="2.4624">
        <ele>1211.958</ele>
        <time>2021-05-24T10:41:03Z</time>
      </trkpt>
      <trkpt lat="43.42412" lon="2.46242">
        <ele>1212.101</ele>
        <time>2021-05-24T10:41:05Z</time>
      </trkpt>
      <trkpt lat="43.42411" lon="2.46244">
        <ele>1212.336</ele>
        <time>2021-05-24T10:41:07Z</time>
      </trkpt>
      <trkpt lat="43.4241" lon="2.46246">
        <ele>1212.708</ele>
        <time>2021-05-24T10:41:09Z</time>
      </trkpt>
      <trkpt lat="43.42408" lon="2.46247">
        <ele>1213.051</ele>
        <time>2021-05-24T10:41:11Z</time>
      </trkpt>
      <trkpt lat="43.42406" lon="2.46247">
        <ele>1213.196</ele>
        <time>2021-05-24T10:41:13Z</time>
      </trkpt>
      <trkpt lat="43.42404" lon="2.46247">
        <ele>1213.108</ele>
        <time>2021-05-24T10:41:15Z</time>
      </trkpt>
      <trkpt lat="43.42402" lon="2.46247">
        <ele>1213.122</ele>
        <time>2021-05-24T10:41:17Z</time>
      </trkpt>
      <trkpt lat="43.42399" lon="2.46249">
        <ele>1212.36</ele>
        <time>2021-05-24T10:41:19Z</time>
      </trkpt>
      <trkpt lat="43.42396" lon="2.4625">
        <ele>1212.471</ele>
        <time>2021-05-24T10:41:21Z</time>
      </trkpt>
      <trkpt lat="43.42393" lon="2.46252">
        <ele>1212.262</ele>
        <time>2021-05-24T10:41:23Z</time>
      </trkpt>
      <trkpt lat="43.42392" lon="2.46253">
        <ele>1212.881</ele>
        <time>2021-05-24T10:41:25Z</time>
      </trkpt>
      <trkpt lat="43.42389" lon="2.46256">
        <ele>1212.71</ele>
        <time>2021-05-24T10:41:27Z</time>
      </trkpt>
      <trkpt lat="43.42388" lon="2.46258">
        <ele>1212.139</ele>
        <time>2021-05-24T10:41:29Z</time>
      </trkpt>
      <trkpt lat="43.42388" lon="2.46261">
        <ele>1212.591</ele>
        <time>2021-05-24T10:41:31Z</time>
      </trkpt>
      <trkpt lat="43.42389" lon="2.46263">
        <ele>1212.847</ele>
        <time>2021-05-24T10:41:33Z</time>
      </trkpt>
      <trkpt lat="43.42391" lon="2.46263">
        <ele>1213.316</ele>
        <time>2021-05-24T10:41:35Z</time>
      </trkpt>
      <trkpt lat="43.4239" lon="2.46263">
        <ele>1213.167</ele>
        <time>2021-05-24T10:41:37Z</time>
      </trkpt>
      <trkpt lat="43.42391" lon="2.46262">
        <ele>1212.411</ele>
        <time>2021-05-24T10:41:39Z</time>
      </trkpt>
      <trkpt lat="43.42391" lon="2.46261">
        <ele>1212.196</ele>
        <time>2021-05-24T10:41:41Z</time>
      </trkpt>
      <trkpt lat="43.4239" lon="2.46261">
        <ele>1212.136</ele>
        <time>2021-05-24T10:41:43Z</time>
      </trkpt>
      <trkpt lat="43.42391" lon="2.46262">
        <ele>1212.07</ele>
        <time>2021-05-24T10:41:45Z</time>
      </trkpt>
      <trkpt lat="43.42393" lon="2.46261">
        <ele>1210.983</ele>
        <time>2021-05-24T10:41:47Z</time>
      </trkpt>
      <trkpt lat="43.42393" lon="2.4626">
        <ele>1210.978</ele>
        <time>2021-05-24T10:41:49Z</time>
      </trkpt>
      <trkpt lat="43.42393" lon="2.4626">
        <ele>1210.976</ele>
        <time>2021-05-24T10:41:51Z</time>
      </trkpt>
      <trkpt lat="43.42393" lon="2.4626">
        <ele>1210.973</ele>
        <time>2021-05-24T10:41:53Z</time>
      </trkpt>
      <trkpt lat="43.42393" lon="2.4626">
        <ele>1210.968</ele>
        <time>2021-05-24T10:41:55Z</time>
      </trkpt>
      <trkpt lat="43.42393" lon="2.4626">
        <ele>1210.96</ele>
        <time>2021-05-24T10:41:57Z</time>
      </trkpt>
      <trkpt lat="43.42393" lon="2.4626">
        <ele>1210.958</ele>
        <time>2021-05-24T10:41:59Z</time>
      </trkpt>
      <trkpt lat="43.42393" lon="2.4626">
        <ele>1210.95</ele>
        <time>2021-05-24T10:42:01Z</time>
      </trkpt>
      <trkpt lat="43.42393" lon="2.4626">
        <ele>1210.906</ele>
        <time>2021-05-24T10:42:03Z</time>
      </trkpt>
      <trkpt lat="43.42393" lon="2.4626">
        <ele>1210.725</ele>
        <time>2021-05-24T10:42:05Z</time>
      </trkpt>
      <trkpt lat="43.42393" lon="2.4626">
        <ele>1210.72</ele>
        <time>2021-05-24T10:42:07Z</time>
      </trkpt>
      <trkpt lat="43.42393" lon="2.4626">
        <ele>1210.717</ele>
        <time>2021-05-24T10:42:09Z</time>
      </trkpt>
      <trkpt lat="43.42393" lon="2.4626">
        <ele>1210.652</ele>
        <time>2021-05-24T10:42:11Z</time>
      </trkpt>
      <trkpt lat="43.42393" lon="2.4626">
        <ele>1210.654</ele>
        <time>2021-05-24T10:42:13Z</time>
      </trkpt>
      <trkpt lat="43.42393" lon="2.4626">
        <ele>1210.841</ele>
        <time>2021-05-24T10:42:15Z</time>
      </trkpt>
      <trkpt lat="43.42392" lon="2.4626">
        <ele>1210.843</ele>
        <time>2021-05-24T10:42:17Z</time>
      </trkpt>
      <trkpt lat="43.42392" lon="2.4626">
        <ele>1210.402</ele>
        <time>2021-05-24T10:42:19Z</time>
      </trkpt>
      <trkpt lat="43.42392" lon="2.4626">
        <ele>1210.397</ele>
        <time>2021-05-24T10:42:21Z</time>
      </trkpt>
      <trkpt lat="43.42392" lon="2.4626">
        <ele>1210.391</ele>
        <time>2021-05-24T10:42:23Z</time>
      </trkpt>
      <trkpt lat="43.42392" lon="2.4626">
        <ele>1210.052</ele>
        <time>2021-05-24T10:42:25Z</time>
      </trkpt>
      <trkpt lat="43.42394" lon="2.46259">
        <ele>1210.013</ele>
        <time>2021-05-24T10:42:27Z</time>
      </trkpt>
      <trkpt lat="43.42394" lon="2.4626">
        <ele>1209.872</ele>
        <time>2021-05-24T10:42:29Z</time>
      </trkpt>
      <trkpt lat="43.42394" lon="2.4626">
        <ele>1209.867</ele>
        <time>2021-05-24T10:42:31Z</time>
      </trkpt>
      <trkpt lat="43.42394" lon="2.4626">
        <ele>1209.866</ele>
        <time>2021-05-24T10:42:33Z</time>
      </trkpt>
      <trkpt lat="43.42394" lon="2.4626">
        <ele>1209.865</ele>
        <time>2021-05-24T10:42:35Z</time>
      </trkpt>
      <trkpt lat="43.42394" lon="2.4626">
        <ele>1209.857</ele>
        <time>2021-05-24T10:42:37Z</time>
      </trkpt>
      <trkpt lat="43.42394" lon="2.4626">
        <ele>1209.854</ele>
        <time>2021-05-24T10:42:39Z</time>
      </trkpt>
      <trkpt lat="43.42394" lon="2.4626">
        <ele>1209.858</ele>
        <time>2021-05-24T10:42:41Z</time>
      </trkpt>
      <trkpt lat="43.42394" lon="2.4626">
        <ele>1209.86</ele>
        <time>2021-05-24T10:42:43Z</time>
      </trkpt>
      <trkpt lat="43.42394" lon="2.4626">
        <ele>1209.862</ele>
        <time>2021-05-24T10:42:45Z</time>
      </trkpt>
      <trkpt lat="43.42394" lon="2.4626">
        <ele>1209.863</ele>
        <time>2021-05-24T10:42:47Z</time>
      </trkpt>
      <trkpt lat="43.42394" lon="2.46259">
        <ele>1209.709</ele>
        <time>2021-05-24T10:42:49Z</time>
      </trkpt>
      <trkpt lat="43.42394" lon="2.46259">
        <ele>1209.713</ele>
        <time>2021-05-24T10:42:51Z</time>
      </trkpt>
      <trkpt lat="43.42394" lon="2.46259">
        <ele>1209.717</ele>
        <time>2021-05-24T10:42:53Z</time>
      </trkpt>
      <trkpt lat="43.42394" lon="2.46259">
        <ele>1209.716</ele>
        <time>2021-05-24T10:42:55Z</time>
      </trkpt>
      <trkpt lat="43.42394" lon="2.46259">
        <ele>1209.719</ele>
        <time>2021-05-24T10:42:57Z</time>
      </trkpt>
      <trkpt lat="43.42394" lon="2.46259">
        <ele>1209.722</ele>
        <time>2021-05-24T10:42:59Z</time>
      </trkpt>
      <trkpt lat="43.42394" lon="2.46259">
        <ele>1209.731</ele>
        <time>2021-05-24T10:43:01Z</time>
      </trkpt>
      <trkpt lat="43.42394" lon="2.46259">
        <ele>1209.732</ele>
        <time>2021-05-24T10:43:03Z</time>
      </trkpt>
      <trkpt lat="43.42393" lon="2.4626">
        <ele>1209.366</ele>
        <time>2021-05-24T10:43:05Z</time>
      </trkpt>
      <trkpt lat="43.42393" lon="2.4626">
        <ele>1209.249</ele>
        <time>2021-05-24T10:43:07Z</time>
      </trkpt>
      <trkpt lat="43.42393" lon="2.4626">
        <ele>1209.255</ele>
        <time>2021-05-24T10:43:09Z</time>
      </trkpt>
      <trkpt lat="43.42393" lon="2.4626">
        <ele>1209.257</ele>
        <time>2021-05-24T10:43:11Z</time>
      </trkpt>
      <trkpt lat="43.42393" lon="2.4626">
        <ele>1209.257</ele>
        <time>2021-05-24T10:43:13Z</time>
      </trkpt>
      <trkpt lat="43.42393" lon="2.4626">
        <ele>1208.819</ele>
        <time>2021-05-24T10:43:15Z</time>
      </trkpt>
      <trkpt lat="43.42393" lon="2.4626">
        <ele>1208.692</ele>
        <time>2021-05-24T10:43:17Z</time>
      </trkpt>
      <trkpt lat="43.42393" lon="2.4626">
        <ele>1208.693</ele>
        <time>2021-05-24T10:43:19Z</time>
      </trkpt>
      <trkpt lat="43.42393" lon="2.4626">
        <ele>1208.692</ele>
        <time>2021-05-24T10:43:21Z</time>
      </trkpt>
      <trkpt lat="43.42393" lon="2.4626">
        <ele>1208.689</ele>
        <time>2021-05-24T10:43:23Z</time>
      </trkpt>
      <trkpt lat="43.42392" lon="2.46259">
        <ele>1208.542</ele>
        <time>2021-05-24T10:43:25Z</time>
      </trkpt>
      <trkpt lat="43.42392" lon="2.4626">
        <ele>1208.542</ele>
        <time>2021-05-24T10:43:27Z</time>
      </trkpt>
      <trkpt lat="43.42392" lon="2.4626">
        <ele>1208.721</ele>
        <time>2021-05-24T10:43:29Z</time>
      </trkpt>
      <trkpt lat="43.42391" lon="2.4626">
        <ele>1208.185</ele>
        <time>2021-05-24T10:43:31Z</time>
      </trkpt>
      <trkpt lat="43.42391" lon="2.4626">
        <ele>1207.96</ele>
        <time>2021-05-24T10:43:33Z</time>
      </trkpt>
      <trkpt lat="43.42391" lon="2.4626">
        <ele>1207.959</ele>
        <time>2021-05-24T10:43:35Z</time>
      </trkpt>
      <trkpt lat="43.42391" lon="2.4626">
        <ele>1207.959</ele>
        <time>2021-05-24T10:43:37Z</time>
      </trkpt>
      <trkpt lat="43.42391" lon="2.4626">
        <ele>1207.959</ele>
        <time>2021-05-24T10:43:39Z</time>
      </trkpt>
      <trkpt lat="43.42391" lon="2.4626">
        <ele>1207.957</ele>
        <time>2021-05-24T10:43:41Z</time>
      </trkpt>
      <trkpt lat="43.42391" lon="2.4626">
        <ele>1207.96</ele>
        <time>2021-05-24T10:43:43Z</time>
      </trkpt>
      <trkpt lat="43.42391" lon="2.4626">
        <ele>1207.959</ele>
        <time>2021-05-24T10:43:45Z</time>
      </trkpt>
      <trkpt lat="43.42391" lon="2.4626">
        <ele>1207.961</ele>
        <time>2021-05-24T10:43:47Z</time>
      </trkpt>
      <trkpt lat="43.42391" lon="2.4626">
        <ele>1207.966</ele>
        <time>2021-05-24T10:43:49Z</time>
      </trkpt>
      <trkpt lat="43.42391" lon="2.4626">
        <ele>1207.97</ele>
        <time>2021-05-24T10:43:51Z</time>
      </trkpt>
      <trkpt lat="43.42391" lon="2.4626">
        <ele>1207.965</ele>
        <time>2021-05-24T10:43:53Z</time>
      </trkpt>
      <trkpt lat="43.42391" lon="2.4626">
        <ele>1207.965</ele>
        <time>2021-05-24T10:43:55Z</time>
      </trkpt>
      <trkpt lat="43.42391" lon="2.4626">
        <ele>1207.961</ele>
        <time>2021-05-24T10:43:57Z</time>
      </trkpt>
      <trkpt lat="43.42391" lon="2.4626">
        <ele>1207.551</ele>
        <time>2021-05-24T10:43:59Z</time>
      </trkpt>
      <trkpt lat="43.42391" lon="2.4626">
        <ele>1207.553</ele>
        <time>2021-05-24T10:44:01Z</time>
      </trkpt>
      <trkpt lat="43.42391" lon="2.4626">
        <ele>1207.547</ele>
        <time>2021-05-24T10:44:03Z</time>
      </trkpt>
      <trkpt lat="43.42391" lon="2.4626">
        <ele>1207.549</ele>
        <time>2021-05-24T10:44:05Z</time>
      </trkpt>
      <trkpt lat="43.42391" lon="2.46259">
        <ele>1207.822</ele>
        <time>2021-05-24T10:44:07Z</time>
      </trkpt>
      <trkpt lat="43.4239" lon="2.46258">
        <ele>1208.393</ele>
        <time>2021-05-24T10:44:09Z</time>
      </trkpt>
      <trkpt lat="43.42389" lon="2.46259">
        <ele>1208.278</ele>
        <time>2021-05-24T10:44:11Z</time>
      </trkpt>
      <trkpt lat="43.42389" lon="2.4626">
        <ele>1208.691</ele>
        <time>2021-05-24T10:44:13Z</time>
      </trkpt>
      <trkpt lat="43.42389" lon="2.4626">
        <ele>1208.851</ele>
        <time>2021-05-24T10:44:15Z</time>
      </trkpt>
      <trkpt lat="43.42389" lon="2.46262">
        <ele>1208.703</ele>
        <time>2021-05-24T10:44:17Z</time>
      </trkpt>
      <trkpt lat="43.42389" lon="2.46263">
        <ele>1208.096</ele>
        <time>2021-05-24T10:44:19Z</time>
      </trkpt>
      <trkpt lat="43.42388" lon="2.46265">
        <ele>1207.502</ele>
        <time>2021-05-24T10:44:21Z</time>
      </trkpt>
      <trkpt lat="43.4239" lon="2.46268">
        <ele>1207.458</ele>
        <time>2021-05-24T10:44:23Z</time>
      </trkpt>
      <trkpt lat="43.42387" lon="2.46271">
        <ele>1207.125</ele>
        <time>2021-05-24T10:44:25Z</time>
      </trkpt>
      <trkpt lat="43.42387" lon="2.46273">
        <ele>1206.706</ele>
        <time>2021-05-24T10:44:27Z</time>
      </trkpt>
      <trkpt lat="43.42387" lon="2.46276">
        <ele>1206.601</ele>
        <time>2021-05-24T10:44:29Z</time>
      </trkpt>
      <trkpt lat="43.42388" lon="2.46276">
        <ele>1206.481</ele>
        <time>2021-05-24T10:44:31Z</time>
      </trkpt>
      <trkpt lat="43.42389" lon="2.46277">
        <ele>1206.939</ele>
        <time>2021-05-24T10:44:33Z</time>
      </trkpt>
      <trkpt lat="43.42389" lon="2.46277">
        <ele>1206.944</ele>
        <time>2021-05-24T10:44:35Z</time>
      </trkpt>
      <trkpt lat="43.42389" lon="2.46277">
        <ele>1207.231</ele>
        <time>2021-05-24T10:44:37Z</time>
      </trkpt>
      <trkpt lat="43.42389" lon="2.46276">
        <ele>1207.235</ele>
        <time>2021-05-24T10:44:39Z</time>
      </trkpt>
      <trkpt lat="43.42389" lon="2.46276">
        <ele>1207.242</ele>
        <time>2021-05-24T10:44:41Z</time>
      </trkpt>
      <trkpt lat="43.42389" lon="2.46276">
        <ele>1207.242</ele>
        <time>2021-05-24T10:44:43Z</time>
      </trkpt>
      <trkpt lat="43.42389" lon="2.46276">
        <ele>1207.241</ele>
        <time>2021-05-24T10:44:45Z</time>
      </trkpt>
      <trkpt lat="43.42389" lon="2.46276">
        <ele>1207.24</ele>
        <time>2021-05-24T10:44:47Z</time>
      </trkpt>
      <trkpt lat="43.42389" lon="2.46276">
        <ele>1207.239</ele>
        <time>2021-05-24T10:44:49Z</time>
      </trkpt>
      <trkpt lat="43.42389" lon="2.46276">
        <ele>1207.243</ele>
        <time>2021-05-24T10:44:51Z</time>
      </trkpt>
      <trkpt lat="43.42389" lon="2.46276">
        <ele>1207.249</ele>
        <time>2021-05-24T10:44:53Z</time>
      </trkpt>
      <trkpt lat="43.42389" lon="2.46276">
        <ele>1207.26</ele>
        <time>2021-05-24T10:44:55Z</time>
      </trkpt>
      <trkpt lat="43.42389" lon="2.46277">
        <ele>1207.665</ele>
        <time>2021-05-24T10:44:57Z</time>
      </trkpt>
      <trkpt lat="43.42389" lon="2.46277">
        <ele>1207.88</ele>
        <time>2021-05-24T10:44:59Z</time>
      </trkpt>
      <trkpt lat="43.42389" lon="2.46277">
        <ele>1208.072</ele>
        <time>2021-05-24T10:45:01Z</time>
      </trkpt>
      <trkpt lat="43.42389" lon="2.46278">
        <ele>1208.236</ele>
        <time>2021-05-24T10:45:03Z</time>
      </trkpt>
      <trkpt lat="43.42389" lon="2.46281">
        <ele>1208.578</ele>
        <time>2021-05-24T10:45:05Z</time>
      </trkpt>
      <trkpt lat="43.42389" lon="2.46284">
        <ele>1208.898</ele>
        <time>2021-05-24T10:45:07Z</time>
      </trkpt>
      <trkpt lat="43.42388" lon="2.46287">
        <ele>1209.387</ele>
        <time>2021-05-24T10:45:09Z</time>
      </trkpt>
      <trkpt lat="43.42388" lon="2.46289">
        <ele>1208.758</ele>
        <time>2021-05-24T10:45:11Z</time>
      </trkpt>
      <trkpt lat="43.42388" lon="2.46292">
        <ele>1209.291</ele>
        <time>2021-05-24T10:45:13Z</time>
      </trkpt>
      <trkpt lat="43.42389" lon="2.46295">
        <ele>1209.361</ele>
        <time>2021-05-24T10:45:15Z</time>
      </trkpt>
      <trkpt lat="43.42389" lon="2.46297">
        <ele>1209.167</ele>
        <time>2021-05-24T10:45:17Z</time>
      </trkpt>
      <trkpt lat="43.42389" lon="2.463">
        <ele>1209.293</ele>
        <time>2021-05-24T10:45:19Z</time>
      </trkpt>
      <trkpt lat="43.4239" lon="2.46301">
        <ele>1208.963</ele>
        <time>2021-05-24T10:45:21Z</time>
      </trkpt>
      <trkpt lat="43.4239" lon="2.46303">
        <ele>1209.417</ele>
        <time>2021-05-24T10:45:23Z</time>
      </trkpt>
      <trkpt lat="43.42391" lon="2.46305">
        <ele>1209.29</ele>
        <time>2021-05-24T10:45:25Z</time>
      </trkpt>
      <trkpt lat="43.42391" lon="2.46305">
        <ele>1208.892</ele>
        <time>2021-05-24T10:45:27Z</time>
      </trkpt>
      <trkpt lat="43.42391" lon="2.46305">
        <ele>1208.888</ele>
        <time>2021-05-24T10:45:29Z</time>
      </trkpt>
      <trkpt lat="43.42392" lon="2.46306">
        <ele>1208.905</ele>
        <time>2021-05-24T10:45:31Z</time>
      </trkpt>
      <trkpt lat="43.42392" lon="2.46308">
        <ele>1209.855</ele>
        <time>2021-05-24T10:45:33Z</time>
      </trkpt>
      <trkpt lat="43.42393" lon="2.4631">
        <ele>1210.498</ele>
        <time>2021-05-24T10:45:35Z</time>
      </trkpt>
      <trkpt lat="43.42393" lon="2.46313">
        <ele>1214.122</ele>
        <time>2021-05-24T10:45:37Z</time>
      </trkpt>
      <trkpt lat="43.42393" lon="2.46314">
        <ele>1214.528</ele>
        <time>2021-05-24T10:45:39Z</time>
      </trkpt>
      <trkpt lat="43.42394" lon="2.46316">
        <ele>1213.51</ele>
        <time>2021-05-24T10:45:41Z</time>
      </trkpt>
      <trkpt lat="43.42394" lon="2.46317">
        <ele>1213.438</ele>
        <time>2021-05-24T10:45:43Z</time>
      </trkpt>
      <trkpt lat="43.42393" lon="2.46316">
        <ele>1214.393</ele>
        <time>2021-05-24T10:45:45Z</time>
      </trkpt>
      <trkpt lat="43.42393" lon="2.46316">
        <ele>1214.392</ele>
        <time>2021-05-24T10:45:47Z</time>
      </trkpt>
      <trkpt lat="43.42392" lon="2.46316">
        <ele>1214.393</ele>
        <time>2021-05-24T10:45:49Z</time>
      </trkpt>
      <trkpt lat="43.42392" lon="2.46316">
        <ele>1214.586</ele>
        <time>2021-05-24T10:45:51Z</time>
      </trkpt>
      <trkpt lat="43.42392" lon="2.46315">
        <ele>1214.668</ele>
        <time>2021-05-24T10:45:53Z</time>
      </trkpt>
      <trkpt lat="43.42392" lon="2.46315">
        <ele>1214.665</ele>
        <time>2021-05-24T10:45:55Z</time>
      </trkpt>
      <trkpt lat="43.42392" lon="2.46315">
        <ele>1214.658</ele>
        <time>2021-05-24T10:45:57Z</time>
      </trkpt>
      <trkpt lat="43.42392" lon="2.46315">
        <ele>1214.658</ele>
        <time>2021-05-24T10:45:59Z</time>
      </trkpt>
      <trkpt lat="43.42392" lon="2.46315">
        <ele>1214.66</ele>
        <time>2021-05-24T10:46:01Z</time>
      </trkpt>
      <trkpt lat="43.42392" lon="2.46315">
        <ele>1214.661</ele>
        <time>2021-05-24T10:46:03Z</time>
      </trkpt>
      <trkpt lat="43.42392" lon="2.46315">
        <ele>1214.656</ele>
        <time>2021-05-24T10:46:05Z</time>
      </trkpt>
      <trkpt lat="43.42392" lon="2.46315">
        <ele>1214.646</ele>
        <time>2021-05-24T10:46:07Z</time>
      </trkpt>
      <trkpt lat="43.42392" lon="2.46314">
        <ele>1214.911</ele>
        <time>2021-05-24T10:46:09Z</time>
      </trkpt>
      <trkpt lat="43.42392" lon="2.46314">
        <ele>1214.639</ele>
        <time>2021-05-24T10:46:11Z</time>
      </trkpt>
      <trkpt lat="43.42392" lon="2.46314">
        <ele>1214.801</ele>
        <time>2021-05-24T10:46:13Z</time>
      </trkpt>
      <trkpt lat="43.42392" lon="2.46313">
        <ele>1214.35</ele>
        <time>2021-05-24T10:46:15Z</time>
      </trkpt>
      <trkpt lat="43.42392" lon="2.46313">
        <ele>1214.349</ele>
        <time>2021-05-24T10:46:17Z</time>
      </trkpt>
      <trkpt lat="43.42392" lon="2.46313">
        <ele>1214.348</ele>
        <time>2021-05-24T10:46:19Z</time>
      </trkpt>
      <trkpt lat="43.42392" lon="2.46313">
        <ele>1214.341</ele>
        <time>2021-05-24T10:46:21Z</time>
      </trkpt>
      <trkpt lat="43.42392" lon="2.46313">
        <ele>1214.424</ele>
        <time>2021-05-24T10:46:23Z</time>
      </trkpt>
      <trkpt lat="43.42392" lon="2.46313">
        <ele>1214.156</ele>
        <time>2021-05-24T10:46:25Z</time>
      </trkpt>
      <trkpt lat="43.42393" lon="2.46312">
        <ele>1214.094</ele>
        <time>2021-05-24T10:46:27Z</time>
      </trkpt>
      <trkpt lat="43.42393" lon="2.46312">
        <ele>1214.097</ele>
        <time>2021-05-24T10:46:29Z</time>
      </trkpt>
      <trkpt lat="43.42393" lon="2.46312">
        <ele>1214.096</ele>
        <time>2021-05-24T10:46:31Z</time>
      </trkpt>
      <trkpt lat="43.42393" lon="2.46312">
        <ele>1212.79</ele>
        <time>2021-05-24T10:46:33Z</time>
      </trkpt>
      <trkpt lat="43.42394" lon="2.46311">
        <ele>1213.391</ele>
        <time>2021-05-24T10:46:35Z</time>
      </trkpt>
      <trkpt lat="43.42396" lon="2.46312">
        <ele>1213.032</ele>
        <time>2021-05-24T10:46:37Z</time>
      </trkpt>
      <trkpt lat="43.42397" lon="2.46312">
        <ele>1212.455</ele>
        <time>2021-05-24T10:46:39Z</time>
      </trkpt>
      <trkpt lat="43.42397" lon="2.46312">
        <ele>1211.931</ele>
        <time>2021-05-24T10:46:41Z</time>
      </trkpt>
      <trkpt lat="43.42398" lon="2.46312">
        <ele>1211.549</ele>
        <time>2021-05-24T10:46:43Z</time>
      </trkpt>
      <trkpt lat="43.424" lon="2.46313">
        <ele>1211.355</ele>
        <time>2021-05-24T10:46:45Z</time>
      </trkpt>
      <trkpt lat="43.42401" lon="2.46315">
        <ele>1211.472</ele>
        <time>2021-05-24T10:46:47Z</time>
      </trkpt>
      <trkpt lat="43.42403" lon="2.46315">
        <ele>1211.472</ele>
        <time>2021-05-24T10:46:49Z</time>
      </trkpt>
      <trkpt lat="43.42404" lon="2.46317">
        <ele>1211.267</ele>
        <time>2021-05-24T10:46:51Z</time>
      </trkpt>
      <trkpt lat="43.42405" lon="2.46317">
        <ele>1211.425</ele>
        <time>2021-05-24T10:46:53Z</time>
      </trkpt>
      <trkpt lat="43.42407" lon="2.46318">
        <ele>1211.833</ele>
        <time>2021-05-24T10:46:55Z</time>
      </trkpt>
      <trkpt lat="43.42408" lon="2.46319">
        <ele>1211.835</ele>
        <time>2021-05-24T10:46:57Z</time>
      </trkpt>
      <trkpt lat="43.4241" lon="2.4632">
        <ele>1211.838</ele>
        <time>2021-05-24T10:46:59Z</time>
      </trkpt>
      <trkpt lat="43.42411" lon="2.4632">
        <ele>1211.733</ele>
        <time>2021-05-24T10:47:01Z</time>
      </trkpt>
      <trkpt lat="43.42413" lon="2.4632">
        <ele>1211.816</ele>
        <time>2021-05-24T10:47:03Z</time>
      </trkpt>
      <trkpt lat="43.42415" lon="2.46319">
        <ele>1211.894</ele>
        <time>2021-05-24T10:47:05Z</time>
      </trkpt>
      <trkpt lat="43.42416" lon="2.46318">
        <ele>1211.999</ele>
        <time>2021-05-24T10:47:07Z</time>
      </trkpt>
      <trkpt lat="43.42418" lon="2.46316">
        <ele>1213.061</ele>
        <time>2021-05-24T10:47:09Z</time>
      </trkpt>
      <trkpt lat="43.42419" lon="2.46315">
        <ele>1213.826</ele>
        <time>2021-05-24T10:47:11Z</time>
      </trkpt>
      <trkpt lat="43.4242" lon="2.46313">
        <ele>1213.988</ele>
        <time>2021-05-24T10:47:13Z</time>
      </trkpt>
      <trkpt lat="43.42421" lon="2.46311">
        <ele>1214.076</ele>
        <time>2021-05-24T10:47:15Z</time>
      </trkpt>
      <trkpt lat="43.42423" lon="2.46309">
        <ele>1214.257</ele>
        <time>2021-05-24T10:47:17Z</time>
      </trkpt>
      <trkpt lat="43.42424" lon="2.46308">
        <ele>1214.059</ele>
        <time>2021-05-24T10:47:19Z</time>
      </trkpt>
      <trkpt lat="43.42425" lon="2.46306">
        <ele>1214.83</ele>
        <time>2021-05-24T10:47:21Z</time>
      </trkpt>
      <trkpt lat="43.42427" lon="2.46306">
        <ele>1214.695</ele>
        <time>2021-05-24T10:47:23Z</time>
      </trkpt>
      <trkpt lat="43.42429" lon="2.46305">
        <ele>1214.628</ele>
        <time>2021-05-24T10:47:25Z</time>
      </trkpt>
      <trkpt lat="43.4243" lon="2.46303">
        <ele>1213.556</ele>
        <time>2021-05-24T10:47:27Z</time>
      </trkpt>
      <trkpt lat="43.42431" lon="2.46303">
        <ele>1213.286</ele>
        <time>2021-05-24T10:47:29Z</time>
      </trkpt>
      <trkpt lat="43.42431" lon="2.46303">
        <ele>1213.097</ele>
        <time>2021-05-24T10:47:31Z</time>
      </trkpt>
      <trkpt lat="43.42431" lon="2.46303">
        <ele>1213.102</ele>
        <time>2021-05-24T10:47:33Z</time>
      </trkpt>
      <trkpt lat="43.42431" lon="2.46303">
        <ele>1213.106</ele>
        <time>2021-05-24T10:47:35Z</time>
      </trkpt>
      <trkpt lat="43.4243" lon="2.46304">
        <ele>1212.749</ele>
        <time>2021-05-24T10:47:37Z</time>
      </trkpt>
      <trkpt lat="43.42429" lon="2.46305">
        <ele>1213.798</ele>
        <time>2021-05-24T10:47:39Z</time>
      </trkpt>
      <trkpt lat="43.42429" lon="2.46306">
        <ele>1213.966</ele>
        <time>2021-05-24T10:47:41Z</time>
      </trkpt>
      <trkpt lat="43.4243" lon="2.46306">
        <ele>1214.523</ele>
        <time>2021-05-24T10:47:43Z</time>
      </trkpt>
      <trkpt lat="43.42429" lon="2.46306">
        <ele>1214.272</ele>
        <time>2021-05-24T10:47:45Z</time>
      </trkpt>
      <trkpt lat="43.42429" lon="2.46307">
        <ele>1214.748</ele>
        <time>2021-05-24T10:47:47Z</time>
      </trkpt>
      <trkpt lat="43.4243" lon="2.46306">
        <ele>1214.377</ele>
        <time>2021-05-24T10:47:49Z</time>
      </trkpt>
      <trkpt lat="43.4243" lon="2.46306">
        <ele>1214.183</ele>
        <time>2021-05-24T10:47:51Z</time>
      </trkpt>
      <trkpt lat="43.42431" lon="2.46306">
        <ele>1214.579</ele>
        <time>2021-05-24T10:47:53Z</time>
      </trkpt>
      <trkpt lat="43.42431" lon="2.46306">
        <ele>1214.576</ele>
        <time>2021-05-24T10:47:55Z</time>
      </trkpt>
      <trkpt lat="43.42431" lon="2.46306">
        <ele>1214.719</ele>
        <time>2021-05-24T10:47:57Z</time>
      </trkpt>
      <trkpt lat="43.42431" lon="2.46306">
        <ele>1215.606</ele>
        <time>2021-05-24T10:47:59Z</time>
      </trkpt>
      <trkpt lat="43.42431" lon="2.46306">
        <ele>1215.627</ele>
        <time>2021-05-24T10:48:01Z</time>
      </trkpt>
      <trkpt lat="43.4243" lon="2.46306">
        <ele>1215.37</ele>
        <time>2021-05-24T10:48:03Z</time>
      </trkpt>
      <trkpt lat="43.42431" lon="2.46307">
        <ele>1215.357</ele>
        <time>2021-05-24T10:48:05Z</time>
      </trkpt>
      <trkpt lat="43.42431" lon="2.46307">
        <ele>1215.355</ele>
        <time>2021-05-24T10:48:07Z</time>
      </trkpt>
      <trkpt lat="43.42431" lon="2.46307">
        <ele>1215.347</ele>
        <time>2021-05-24T10:48:09Z</time>
      </trkpt>
      <trkpt lat="43.4243" lon="2.46308">
        <ele>1215.11</ele>
        <time>2021-05-24T10:48:11Z</time>
      </trkpt>
      <trkpt lat="43.4243" lon="2.4631">
        <ele>1214.388</ele>
        <time>2021-05-24T10:48:13Z</time>
      </trkpt>
      <trkpt lat="43.4243" lon="2.46313">
        <ele>1213.971</ele>
        <time>2021-05-24T10:48:15Z</time>
      </trkpt>
      <trkpt lat="43.42429" lon="2.46315">
        <ele>1214.168</ele>
        <time>2021-05-24T10:48:17Z</time>
      </trkpt>
      <trkpt lat="43.42429" lon="2.46318">
        <ele>1214.326</ele>
        <time>2021-05-24T10:48:19Z</time>
      </trkpt>
      <trkpt lat="43.42429" lon="2.4632">
        <ele>1214.076</ele>
        <time>2021-05-24T10:48:21Z</time>
      </trkpt>
      <trkpt lat="43.42428" lon="2.46323">
        <ele>1213.678</ele>
        <time>2021-05-24T10:48:23Z</time>
      </trkpt>
      <trkpt lat="43.42428" lon="2.46325">
        <ele>1213.366</ele>
        <time>2021-05-24T10:48:25Z</time>
      </trkpt>
      <trkpt lat="43.42429" lon="2.46327">
        <ele>1213.342</ele>
        <time>2021-05-24T10:48:27Z</time>
      </trkpt>
      <trkpt lat="43.42429" lon="2.46329">
        <ele>1213.491</ele>
        <time>2021-05-24T10:48:29Z</time>
      </trkpt>
      <trkpt lat="43.42429" lon="2.46331">
        <ele>1213.598</ele>
        <time>2021-05-24T10:48:31Z</time>
      </trkpt>
      <trkpt lat="43.42428" lon="2.46331">
        <ele>1213.328</ele>
        <time>2021-05-24T10:48:33Z</time>
      </trkpt>
      <trkpt lat="43.42428" lon="2.46331">
        <ele>1213.319</ele>
        <time>2021-05-24T10:48:35Z</time>
      </trkpt>
      <trkpt lat="43.42428" lon="2.46332">
        <ele>1213.354</ele>
        <time>2021-05-24T10:48:37Z</time>
      </trkpt>
      <trkpt lat="43.42428" lon="2.46334">
        <ele>1212.99</ele>
        <time>2021-05-24T10:48:39Z</time>
      </trkpt>
      <trkpt lat="43.42427" lon="2.46335">
        <ele>1213.255</ele>
        <time>2021-05-24T10:48:41Z</time>
      </trkpt>
      <trkpt lat="43.42427" lon="2.46335">
        <ele>1213.249</ele>
        <time>2021-05-24T10:48:43Z</time>
      </trkpt>
      <trkpt lat="43.42427" lon="2.46335">
        <ele>1213.25</ele>
        <time>2021-05-24T10:48:45Z</time>
      </trkpt>
      <trkpt lat="43.42427" lon="2.46335">
        <ele>1213.489</ele>
        <time>2021-05-24T10:48:47Z</time>
      </trkpt>
      <trkpt lat="43.42427" lon="2.46337">
        <ele>1213.247</ele>
        <time>2021-05-24T10:48:49Z</time>
      </trkpt>
      <trkpt lat="43.42427" lon="2.4634">
        <ele>1212.596</ele>
        <time>2021-05-24T10:48:51Z</time>
      </trkpt>
      <trkpt lat="43.42426" lon="2.46342">
        <ele>1212.081</ele>
        <time>2021-05-24T10:48:53Z</time>
      </trkpt>
      <trkpt lat="43.42425" lon="2.46345">
        <ele>1211.86</ele>
        <time>2021-05-24T10:48:55Z</time>
      </trkpt>
      <trkpt lat="43.42424" lon="2.46347">
        <ele>1211.704</ele>
        <time>2021-05-24T10:48:57Z</time>
      </trkpt>
      <trkpt lat="43.42423" lon="2.46349">
        <ele>1211.121</ele>
        <time>2021-05-24T10:48:59Z</time>
      </trkpt>
      <trkpt lat="43.42423" lon="2.46351">
        <ele>1210.717</ele>
        <time>2021-05-24T10:49:01Z</time>
      </trkpt>
      <trkpt lat="43.42422" lon="2.46353">
        <ele>1210.662</ele>
        <time>2021-05-24T10:49:03Z</time>
      </trkpt>
      <trkpt lat="43.42421" lon="2.46354">
        <ele>1210.656</ele>
        <time>2021-05-24T10:49:05Z</time>
      </trkpt>
      <trkpt lat="43.42421" lon="2.46354">
        <ele>1210.639</ele>
        <time>2021-05-24T10:49:07Z</time>
      </trkpt>
      <trkpt lat="43.42421" lon="2.46354">
        <ele>1210.633</ele>
        <time>2021-05-24T10:49:09Z</time>
      </trkpt>
      <trkpt lat="43.42421" lon="2.46354">
        <ele>1210.588</ele>
        <time>2021-05-24T10:49:11Z</time>
      </trkpt>
      <trkpt lat="43.42421" lon="2.46354">
        <ele>1210.741</ele>
        <time>2021-05-24T10:49:13Z</time>
      </trkpt>
      <trkpt lat="43.42421" lon="2.46355">
        <ele>1210.233</ele>
        <time>2021-05-24T10:49:15Z</time>
      </trkpt>
      <trkpt lat="43.4242" lon="2.46355">
        <ele>1209.948</ele>
        <time>2021-05-24T10:49:17Z</time>
      </trkpt>
      <trkpt lat="43.4242" lon="2.46355">
        <ele>1209.672</ele>
        <time>2021-05-24T10:49:19Z</time>
      </trkpt>
      <trkpt lat="43.4242" lon="2.46356">
        <ele>1209.833</ele>
        <time>2021-05-24T10:49:21Z</time>
      </trkpt>
      <trkpt lat="43.42418" lon="2.46357">
        <ele>1209.388</ele>
        <time>2021-05-24T10:49:23Z</time>
      </trkpt>
      <trkpt lat="43.42417" lon="2.46358">
        <ele>1209.362</ele>
        <time>2021-05-24T10:49:25Z</time>
      </trkpt>
      <trkpt lat="43.42416" lon="2.46358">
        <ele>1209.173</ele>
        <time>2021-05-24T10:49:27Z</time>
      </trkpt>
      <trkpt lat="43.42415" lon="2.46359">
        <ele>1208.995</ele>
        <time>2021-05-24T10:49:29Z</time>
      </trkpt>
      <trkpt lat="43.42415" lon="2.46358">
        <ele>1208.95</ele>
        <time>2021-05-24T10:49:31Z</time>
      </trkpt>
      <trkpt lat="43.42416" lon="2.46358">
        <ele>1208.949</ele>
        <time>2021-05-24T10:49:33Z</time>
      </trkpt>
      <trkpt lat="43.42416" lon="2.46358">
        <ele>1208.846</ele>
        <time>2021-05-24T10:49:35Z</time>
      </trkpt>
      <trkpt lat="43.42416" lon="2.46358">
        <ele>1208.849</ele>
        <time>2021-05-24T10:49:37Z</time>
      </trkpt>
      <trkpt lat="43.42416" lon="2.46358">
        <ele>1208.85</ele>
        <time>2021-05-24T10:49:39Z</time>
      </trkpt>
      <trkpt lat="43.42415" lon="2.46359">
        <ele>1208.964</ele>
        <time>2021-05-24T10:49:41Z</time>
      </trkpt>
      <trkpt lat="43.42412" lon="2.4636">
        <ele>1209.055</ele>
        <time>2021-05-24T10:49:43Z</time>
      </trkpt>
      <trkpt lat="43.4241" lon="2.4636">
        <ele>1208.954</ele>
        <time>2021-05-24T10:49:45Z</time>
      </trkpt>
      <trkpt lat="43.42408" lon="2.4636">
        <ele>1208.509</ele>
        <time>2021-05-24T10:49:47Z</time>
      </trkpt>
      <trkpt lat="43.42406" lon="2.4636">
        <ele>1208.449</ele>
        <time>2021-05-24T10:49:49Z</time>
      </trkpt>
      <trkpt lat="43.42404" lon="2.4636">
        <ele>1208.024</ele>
        <time>2021-05-24T10:49:51Z</time>
      </trkpt>
      <trkpt lat="43.42402" lon="2.46359">
        <ele>1207.765</ele>
        <time>2021-05-24T10:49:53Z</time>
      </trkpt>
      <trkpt lat="43.42401" lon="2.4636">
        <ele>1207.965</ele>
        <time>2021-05-24T10:49:55Z</time>
      </trkpt>
      <trkpt lat="43.424" lon="2.4636">
        <ele>1207.214</ele>
        <time>2021-05-24T10:49:57Z</time>
      </trkpt>
      <trkpt lat="43.42398" lon="2.46361">
        <ele>1207.478</ele>
        <time>2021-05-24T10:49:59Z</time>
      </trkpt>
      <trkpt lat="43.42396" lon="2.46361">
        <ele>1207.187</ele>
        <time>2021-05-24T10:50:01Z</time>
      </trkpt>
      <trkpt lat="43.42394" lon="2.46361">
        <ele>1207.159</ele>
        <time>2021-05-24T10:50:03Z</time>
      </trkpt>
      <trkpt lat="43.42392" lon="2.46362">
        <ele>1206.87</ele>
        <time>2021-05-24T10:50:05Z</time>
      </trkpt>
      <trkpt lat="43.42391" lon="2.46362">
        <ele>1206.593</ele>
        <time>2021-05-24T10:50:07Z</time>
      </trkpt>
      <trkpt lat="43.42389" lon="2.46363">
        <ele>1206.32</ele>
        <time>2021-05-24T10:50:09Z</time>
      </trkpt>
      <trkpt lat="43.42386" lon="2.46363">
        <ele>1206.198</ele>
        <time>2021-05-24T10:50:11Z</time>
      </trkpt>
      <trkpt lat="43.42384" lon="2.46363">
        <ele>1205.792</ele>
        <time>2021-05-24T10:50:13Z</time>
      </trkpt>
      <trkpt lat="43.42382" lon="2.46363">
        <ele>1205.269</ele>
        <time>2021-05-24T10:50:15Z</time>
      </trkpt>
      <trkpt lat="43.4238" lon="2.46363">
        <ele>1205.021</ele>
        <time>2021-05-24T10:50:17Z</time>
      </trkpt>
      <trkpt lat="43.42378" lon="2.46364">
        <ele>1205.031</ele>
        <time>2021-05-24T10:50:19Z</time>
      </trkpt>
      <trkpt lat="43.42376" lon="2.46365">
        <ele>1204.204</ele>
        <time>2021-05-24T10:50:21Z</time>
      </trkpt>
      <trkpt lat="43.42374" lon="2.46365">
        <ele>1203.666</ele>
        <time>2021-05-24T10:50:23Z</time>
      </trkpt>
      <trkpt lat="43.42372" lon="2.46365">
        <ele>1203.462</ele>
        <time>2021-05-24T10:50:25Z</time>
      </trkpt>
      <trkpt lat="43.4237" lon="2.46365">
        <ele>1203.528</ele>
        <time>2021-05-24T10:50:27Z</time>
      </trkpt>
      <trkpt lat="43.42368" lon="2.46366">
        <ele>1203.003</ele>
        <time>2021-05-24T10:50:29Z</time>
      </trkpt>
      <trkpt lat="43.42366" lon="2.46366">
        <ele>1203.315</ele>
        <time>2021-05-24T10:50:31Z</time>
      </trkpt>
      <trkpt lat="43.42364" lon="2.46366">
        <ele>1202.759</ele>
        <time>2021-05-24T10:50:33Z</time>
      </trkpt>
      <trkpt lat="43.42363" lon="2.46367">
        <ele>1202.579</ele>
        <time>2021-05-24T10:50:35Z</time>
      </trkpt>
      <trkpt lat="43.42361" lon="2.46367">
        <ele>1202.382</ele>
        <time>2021-05-24T10:50:37Z</time>
      </trkpt>
      <trkpt lat="43.42359" lon="2.46368">
        <ele>1201.64</ele>
        <time>2021-05-24T10:50:39Z</time>
      </trkpt>
      <trkpt lat="43.42358" lon="2.46368">
        <ele>1201.134</ele>
        <time>2021-05-24T10:50:41Z</time>
      </trkpt>
      <trkpt lat="43.42356" lon="2.46369">
        <ele>1200.794</ele>
        <time>2021-05-24T10:50:43Z</time>
      </trkpt>
      <trkpt lat="43.42354" lon="2.4637">
        <ele>1200.686</ele>
        <time>2021-05-24T10:50:45Z</time>
      </trkpt>
      <trkpt lat="43.42351" lon="2.46371">
        <ele>1200.686</ele>
        <time>2021-05-24T10:50:47Z</time>
      </trkpt>
      <trkpt lat="43.42349" lon="2.46372">
        <ele>1200.314</ele>
        <time>2021-05-24T10:50:49Z</time>
      </trkpt>
      <trkpt lat="43.42347" lon="2.46373">
        <ele>1200.206</ele>
        <time>2021-05-24T10:50:51Z</time>
      </trkpt>
      <trkpt lat="43.42345" lon="2.46374">
        <ele>1200.265</ele>
        <time>2021-05-24T10:50:53Z</time>
      </trkpt>
      <trkpt lat="43.42344" lon="2.46375">
        <ele>1199.812</ele>
        <time>2021-05-24T10:50:55Z</time>
      </trkpt>
      <trkpt lat="43.42342" lon="2.46376">
        <ele>1199.576</ele>
        <time>2021-05-24T10:50:57Z</time>
      </trkpt>
      <trkpt lat="43.4234" lon="2.46378">
        <ele>1199.231</ele>
        <time>2021-05-24T10:50:59Z</time>
      </trkpt>
      <trkpt lat="43.42338" lon="2.46379">
        <ele>1199.128</ele>
        <time>2021-05-24T10:51:01Z</time>
      </trkpt>
      <trkpt lat="43.42337" lon="2.4638">
        <ele>1198.892</ele>
        <time>2021-05-24T10:51:03Z</time>
      </trkpt>
      <trkpt lat="43.42335" lon="2.46381">
        <ele>1197.438</ele>
        <time>2021-05-24T10:51:05Z</time>
      </trkpt>
      <trkpt lat="43.42333" lon="2.46382">
        <ele>1196.871</ele>
        <time>2021-05-24T10:51:07Z</time>
      </trkpt>
      <trkpt lat="43.42332" lon="2.46384">
        <ele>1196.753</ele>
        <time>2021-05-24T10:51:09Z</time>
      </trkpt>
      <trkpt lat="43.42331" lon="2.46385">
        <ele>1196.243</ele>
        <time>2021-05-24T10:51:11Z</time>
      </trkpt>
      <trkpt lat="43.42331" lon="2.46385">
        <ele>1196.242</ele>
        <time>2021-05-24T10:51:13Z</time>
      </trkpt>
      <trkpt lat="43.42331" lon="2.46385">
        <ele>1196.409</ele>
        <time>2021-05-24T10:51:15Z</time>
      </trkpt>
      <trkpt lat="43.4233" lon="2.46385">
        <ele>1196.384</ele>
        <time>2021-05-24T10:51:17Z</time>
      </trkpt>
      <trkpt lat="43.4233" lon="2.46385">
        <ele>1196.383</ele>
        <time>2021-05-24T10:51:19Z</time>
      </trkpt>
      <trkpt lat="43.4233" lon="2.46385">
        <ele>1196.673</ele>
        <time>2021-05-24T10:51:21Z</time>
      </trkpt>
      <trkpt lat="43.4233" lon="2.46385">
        <ele>1196.924</ele>
        <time>2021-05-24T10:51:24Z</time>
      </trkpt>
      <trkpt lat="43.4233" lon="2.46385">
        <ele>1196.951</ele>
        <time>2021-05-24T10:51:26Z</time>
      </trkpt>
      <trkpt lat="43.4233" lon="2.46385">
        <ele>1196.942</ele>
        <time>2021-05-24T10:51:28Z</time>
      </trkpt>
      <trkpt lat="43.42329" lon="2.46385">
        <ele>1196.878</ele>
        <time>2021-05-24T10:51:30Z</time>
      </trkpt>
      <trkpt lat="43.42328" lon="2.46386">
        <ele>1196.608</ele>
        <time>2021-05-24T10:51:32Z</time>
      </trkpt>
      <trkpt lat="43.42327" lon="2.46388">
        <ele>1196.03</ele>
        <time>2021-05-24T10:51:34Z</time>
      </trkpt>
      <trkpt lat="43.42326" lon="2.46389">
        <ele>1195.67</ele>
        <time>2021-05-24T10:51:36Z</time>
      </trkpt>
      <trkpt lat="43.42325" lon="2.46389">
        <ele>1195.659</ele>
        <time>2021-05-24T10:51:38Z</time>
      </trkpt>
      <trkpt lat="43.42324" lon="2.4639">
        <ele>1195.782</ele>
        <time>2021-05-24T10:51:40Z</time>
      </trkpt>
      <trkpt lat="43.42322" lon="2.46392">
        <ele>1195.252</ele>
        <time>2021-05-24T10:51:42Z</time>
      </trkpt>
      <trkpt lat="43.4232" lon="2.46393">
        <ele>1194.49</ele>
        <time>2021-05-24T10:51:44Z</time>
      </trkpt>
      <trkpt lat="43.42319" lon="2.46394">
        <ele>1193.595</ele>
        <time>2021-05-24T10:51:46Z</time>
      </trkpt>
      <trkpt lat="43.42318" lon="2.46396">
        <ele>1192.977</ele>
        <time>2021-05-24T10:51:48Z</time>
      </trkpt>
      <trkpt lat="43.42316" lon="2.46398">
        <ele>1193.095</ele>
        <time>2021-05-24T10:51:50Z</time>
      </trkpt>
      <trkpt lat="43.42314" lon="2.46399">
        <ele>1192.278</ele>
        <time>2021-05-24T10:51:52Z</time>
      </trkpt>
      <trkpt lat="43.42312" lon="2.464">
        <ele>1191.762</ele>
        <time>2021-05-24T10:51:54Z</time>
      </trkpt>
      <trkpt lat="43.4231" lon="2.46401">
        <ele>1191.207</ele>
        <time>2021-05-24T10:51:56Z</time>
      </trkpt>
      <trkpt lat="43.42309" lon="2.46403">
        <ele>1191.232</ele>
        <time>2021-05-24T10:51:58Z</time>
      </trkpt>
      <trkpt lat="43.42307" lon="2.46404">
        <ele>1190.001</ele>
        <time>2021-05-24T10:52:00Z</time>
      </trkpt>
      <trkpt lat="43.42306" lon="2.46405">
        <ele>1189.69</ele>
        <time>2021-05-24T10:52:02Z</time>
      </trkpt>
      <trkpt lat="43.42304" lon="2.46406">
        <ele>1189.394</ele>
        <time>2021-05-24T10:52:04Z</time>
      </trkpt>
      <trkpt lat="43.42302" lon="2.46408">
        <ele>1188.449</ele>
        <time>2021-05-24T10:52:06Z</time>
      </trkpt>
      <trkpt lat="43.423" lon="2.46409">
        <ele>1187.223</ele>
        <time>2021-05-24T10:52:08Z</time>
      </trkpt>
      <trkpt lat="43.42298" lon="2.46411">
        <ele>1186.584</ele>
        <time>2021-05-24T10:52:10Z</time>
      </trkpt>
      <trkpt lat="43.42296" lon="2.46412">
        <ele>1186.086</ele>
        <time>2021-05-24T10:52:12Z</time>
      </trkpt>
      <trkpt lat="43.42295" lon="2.46413">
        <ele>1184.937</ele>
        <time>2021-05-24T10:52:14Z</time>
      </trkpt>
      <trkpt lat="43.42293" lon="2.46415">
        <ele>1184.791</ele>
        <time>2021-05-24T10:52:16Z</time>
      </trkpt>
      <trkpt lat="43.42292" lon="2.46416">
        <ele>1184.059</ele>
        <time>2021-05-24T10:52:18Z</time>
      </trkpt>
      <trkpt lat="43.4229" lon="2.46417">
        <ele>1184.011</ele>
        <time>2021-05-24T10:52:20Z</time>
      </trkpt>
      <trkpt lat="43.42289" lon="2.46419">
        <ele>1184.332</ele>
        <time>2021-05-24T10:52:22Z</time>
      </trkpt>
      <trkpt lat="43.42287" lon="2.4642">
        <ele>1183.792</ele>
        <time>2021-05-24T10:52:24Z</time>
      </trkpt>
      <trkpt lat="43.42285" lon="2.46421">
        <ele>1183.376</ele>
        <time>2021-05-24T10:52:26Z</time>
      </trkpt>
      <trkpt lat="43.42282" lon="2.46421">
        <ele>1182.419</ele>
        <time>2021-05-24T10:52:28Z</time>
      </trkpt>
      <trkpt lat="43.4228" lon="2.46421">
        <ele>1182.625</ele>
        <time>2021-05-24T10:52:30Z</time>
      </trkpt>
      <trkpt lat="43.42278" lon="2.4642">
        <ele>1181.87</ele>
        <time>2021-05-24T10:52:32Z</time>
      </trkpt>
      <trkpt lat="43.42277" lon="2.46421">
        <ele>1181.455</ele>
        <time>2021-05-24T10:52:34Z</time>
      </trkpt>
      <trkpt lat="43.42276" lon="2.46422">
        <ele>1180.449</ele>
        <time>2021-05-24T10:52:36Z</time>
      </trkpt>
      <trkpt lat="43.42274" lon="2.46423">
        <ele>1179.367</ele>
        <time>2021-05-24T10:52:38Z</time>
      </trkpt>
      <trkpt lat="43.42273" lon="2.46424">
        <ele>1179.26</ele>
        <time>2021-05-24T10:52:40Z</time>
      </trkpt>
      <trkpt lat="43.42273" lon="2.46424">
        <ele>1179.181</ele>
        <time>2021-05-24T10:52:42Z</time>
      </trkpt>
      <trkpt lat="43.42273" lon="2.46424">
        <ele>1179.209</ele>
        <time>2021-05-24T10:52:44Z</time>
      </trkpt>
      <trkpt lat="43.42272" lon="2.46426">
        <ele>1179.438</ele>
        <time>2021-05-24T10:52:46Z</time>
      </trkpt>
      <trkpt lat="43.4227" lon="2.46426">
        <ele>1179.242</ele>
        <time>2021-05-24T10:52:48Z</time>
      </trkpt>
      <trkpt lat="43.42269" lon="2.46427">
        <ele>1178.923</ele>
        <time>2021-05-24T10:52:50Z</time>
      </trkpt>
      <trkpt lat="43.42267" lon="2.46429">
        <ele>1178.702</ele>
        <time>2021-05-24T10:52:52Z</time>
      </trkpt>
      <trkpt lat="43.42266" lon="2.4643">
        <ele>1177.768</ele>
        <time>2021-05-24T10:52:54Z</time>
      </trkpt>
      <trkpt lat="43.42264" lon="2.4643">
        <ele>1177.659</ele>
        <time>2021-05-24T10:52:56Z</time>
      </trkpt>
      <trkpt lat="43.42262" lon="2.46431">
        <ele>1177.163</ele>
        <time>2021-05-24T10:52:58Z</time>
      </trkpt>
      <trkpt lat="43.42261" lon="2.46432">
        <ele>1176.282</ele>
        <time>2021-05-24T10:53:00Z</time>
      </trkpt>
      <trkpt lat="43.42259" lon="2.46433">
        <ele>1175.979</ele>
        <time>2021-05-24T10:53:02Z</time>
      </trkpt>
      <trkpt lat="43.42259" lon="2.46433">
        <ele>1175.803</ele>
        <time>2021-05-24T10:53:04Z</time>
      </trkpt>
      <trkpt lat="43.42259" lon="2.46433">
        <ele>1175.816</ele>
        <time>2021-05-24T10:53:06Z</time>
      </trkpt>
      <trkpt lat="43.42258" lon="2.46434">
        <ele>1176.39</ele>
        <time>2021-05-24T10:53:08Z</time>
      </trkpt>
      <trkpt lat="43.42256" lon="2.46435">
        <ele>1175.82</ele>
        <time>2021-05-24T10:53:10Z</time>
      </trkpt>
      <trkpt lat="43.42254" lon="2.46436">
        <ele>1175.028</ele>
        <time>2021-05-24T10:53:12Z</time>
      </trkpt>
      <trkpt lat="43.42252" lon="2.46437">
        <ele>1174.221</ele>
        <time>2021-05-24T10:53:14Z</time>
      </trkpt>
      <trkpt lat="43.4225" lon="2.46438">
        <ele>1173.769</ele>
        <time>2021-05-24T10:53:16Z</time>
      </trkpt>
      <trkpt lat="43.42249" lon="2.46438">
        <ele>1173.156</ele>
        <time>2021-05-24T10:53:18Z</time>
      </trkpt>
      <trkpt lat="43.42247" lon="2.46438">
        <ele>1172.585</ele>
        <time>2021-05-24T10:53:20Z</time>
      </trkpt>
      <trkpt lat="43.42245" lon="2.46438">
        <ele>1172.371</ele>
        <time>2021-05-24T10:53:22Z</time>
      </trkpt>
      <trkpt lat="43.42242" lon="2.46439">
        <ele>1171.326</ele>
        <time>2021-05-24T10:53:24Z</time>
      </trkpt>
      <trkpt lat="43.42241" lon="2.46441">
        <ele>1170.98</ele>
        <time>2021-05-24T10:53:26Z</time>
      </trkpt>
      <trkpt lat="43.42238" lon="2.46442">
        <ele>1170.685</ele>
        <time>2021-05-24T10:53:28Z</time>
      </trkpt>
      <trkpt lat="43.42237" lon="2.46443">
        <ele>1170.465</ele>
        <time>2021-05-24T10:53:30Z</time>
      </trkpt>
      <trkpt lat="43.42235" lon="2.46444">
        <ele>1170.322</ele>
        <time>2021-05-24T10:53:32Z</time>
      </trkpt>
      <trkpt lat="43.42232" lon="2.46444">
        <ele>1170.228</ele>
        <time>2021-05-24T10:53:34Z</time>
      </trkpt>
      <trkpt lat="43.42231" lon="2.46444">
        <ele>1169.826</ele>
        <time>2021-05-24T10:53:36Z</time>
      </trkpt>
      <trkpt lat="43.42229" lon="2.46442">
        <ele>1169.41</ele>
        <time>2021-05-24T10:53:38Z</time>
      </trkpt>
      <trkpt lat="43.42227" lon="2.46442">
        <ele>1168.352</ele>
        <time>2021-05-24T10:53:40Z</time>
      </trkpt>
      <trkpt lat="43.42225" lon="2.46442">
        <ele>1168.31</ele>
        <time>2021-05-24T10:53:42Z</time>
      </trkpt>
      <trkpt lat="43.42224" lon="2.46442">
        <ele>1167.876</ele>
        <time>2021-05-24T10:53:44Z</time>
      </trkpt>
      <trkpt lat="43.42223" lon="2.46441">
        <ele>1166.904</ele>
        <time>2021-05-24T10:53:46Z</time>
      </trkpt>
      <trkpt lat="43.42222" lon="2.46441">
        <ele>1166.435</ele>
        <time>2021-05-24T10:53:48Z</time>
      </trkpt>
      <trkpt lat="43.42221" lon="2.4644">
        <ele>1166.087</ele>
        <time>2021-05-24T10:53:50Z</time>
      </trkpt>
      <trkpt lat="43.4222" lon="2.46438">
        <ele>1166.334</ele>
        <time>2021-05-24T10:53:52Z</time>
      </trkpt>
      <trkpt lat="43.4222" lon="2.46435">
        <ele>1166.262</ele>
        <time>2021-05-24T10:53:54Z</time>
      </trkpt>
      <trkpt lat="43.4222" lon="2.46433">
        <ele>1165.266</ele>
        <time>2021-05-24T10:53:56Z</time>
      </trkpt>
      <trkpt lat="43.42219" lon="2.4643">
        <ele>1164.753</ele>
        <time>2021-05-24T10:53:58Z</time>
      </trkpt>
      <trkpt lat="43.42219" lon="2.46428">
        <ele>1164.946</ele>
        <time>2021-05-24T10:54:00Z</time>
      </trkpt>
      <trkpt lat="43.42218" lon="2.46426">
        <ele>1164.848</ele>
        <time>2021-05-24T10:54:02Z</time>
      </trkpt>
      <trkpt lat="43.42219" lon="2.46423">
        <ele>1165.128</ele>
        <time>2021-05-24T10:54:04Z</time>
      </trkpt>
      <trkpt lat="43.42221" lon="2.46421">
        <ele>1166.317</ele>
        <time>2021-05-24T10:54:06Z</time>
      </trkpt>
      <trkpt lat="43.42223" lon="2.46419">
        <ele>1166.876</ele>
        <time>2021-05-24T10:54:08Z</time>
      </trkpt>
      <trkpt lat="43.42224" lon="2.46418">
        <ele>1166.975</ele>
        <time>2021-05-24T10:54:10Z</time>
      </trkpt>
      <trkpt lat="43.42225" lon="2.46416">
        <ele>1167.201</ele>
        <time>2021-05-24T10:54:12Z</time>
      </trkpt>
      <trkpt lat="43.42225" lon="2.46416">
        <ele>1167.655</ele>
        <time>2021-05-24T10:54:14Z</time>
      </trkpt>
      <trkpt lat="43.42225" lon="2.46415">
        <ele>1168.321</ele>
        <time>2021-05-24T10:54:16Z</time>
      </trkpt>
      <trkpt lat="43.42225" lon="2.46414">
        <ele>1168.347</ele>
        <time>2021-05-24T10:54:18Z</time>
      </trkpt>
      <trkpt lat="43.42225" lon="2.46414">
        <ele>1168.342</ele>
        <time>2021-05-24T10:54:20Z</time>
      </trkpt>
      <trkpt lat="43.42224" lon="2.46414">
        <ele>1168.341</ele>
        <time>2021-05-24T10:54:22Z</time>
      </trkpt>
      <trkpt lat="43.42224" lon="2.46414">
        <ele>1168.343</ele>
        <time>2021-05-24T10:54:24Z</time>
      </trkpt>
      <trkpt lat="43.42224" lon="2.46414">
        <ele>1168.347</ele>
        <time>2021-05-24T10:54:26Z</time>
      </trkpt>
      <trkpt lat="43.42224" lon="2.46414">
        <ele>1168.351</ele>
        <time>2021-05-24T10:54:28Z</time>
      </trkpt>
      <trkpt lat="43.42224" lon="2.46414">
        <ele>1168.351</ele>
        <time>2021-05-24T10:54:30Z</time>
      </trkpt>
      <trkpt lat="43.42224" lon="2.46414">
        <ele>1168.353</ele>
        <time>2021-05-24T10:54:32Z</time>
      </trkpt>
      <trkpt lat="43.42224" lon="2.46414">
        <ele>1168.348</ele>
        <time>2021-05-24T10:54:34Z</time>
      </trkpt>
      <trkpt lat="43.42224" lon="2.46414">
        <ele>1168.343</ele>
        <time>2021-05-24T10:54:36Z</time>
      </trkpt>
      <trkpt lat="43.42224" lon="2.46414">
        <ele>1168.339</ele>
        <time>2021-05-24T10:54:38Z</time>
      </trkpt>
      <trkpt lat="43.42224" lon="2.46414">
        <ele>1168.333</ele>
        <time>2021-05-24T10:54:40Z</time>
      </trkpt>
      <trkpt lat="43.42224" lon="2.46414">
        <ele>1168.332</ele>
        <time>2021-05-24T10:54:42Z</time>
      </trkpt>
      <trkpt lat="43.42224" lon="2.46414">
        <ele>1168.33</ele>
        <time>2021-05-24T10:54:44Z</time>
      </trkpt>
      <trkpt lat="43.42224" lon="2.46414">
        <ele>1168.327</ele>
        <time>2021-05-24T10:54:46Z</time>
      </trkpt>
      <trkpt lat="43.42224" lon="2.46414">
        <ele>1168.325</ele>
        <time>2021-05-24T10:54:48Z</time>
      </trkpt>
      <trkpt lat="43.42224" lon="2.46414">
        <ele>1168.319</ele>
        <time>2021-05-24T10:54:50Z</time>
      </trkpt>
      <trkpt lat="43.42224" lon="2.46414">
        <ele>1168.322</ele>
        <time>2021-05-24T10:54:52Z</time>
      </trkpt>
      <trkpt lat="43.42224" lon="2.46414">
        <ele>1168.321</ele>
        <time>2021-05-24T10:54:54Z</time>
      </trkpt>
      <trkpt lat="43.42224" lon="2.46414">
        <ele>1168.325</ele>
        <time>2021-05-24T10:54:56Z</time>
      </trkpt>
      <trkpt lat="43.42224" lon="2.46414">
        <ele>1168.327</ele>
        <time>2021-05-24T10:54:58Z</time>
      </trkpt>
      <trkpt lat="43.42224" lon="2.46414">
        <ele>1168.659</ele>
        <time>2021-05-24T10:55:00Z</time>
      </trkpt>
      <trkpt lat="43.42224" lon="2.46415">
        <ele>1168.203</ele>
        <time>2021-05-24T10:55:02Z</time>
      </trkpt>
      <trkpt lat="43.42224" lon="2.46415">
        <ele>1168.169</ele>
        <time>2021-05-24T10:55:04Z</time>
      </trkpt>
      <trkpt lat="43.42224" lon="2.46415">
        <ele>1168.153</ele>
        <time>2021-05-24T10:55:06Z</time>
      </trkpt>
      <trkpt lat="43.42224" lon="2.46415">
        <ele>1168.149</ele>
        <time>2021-05-24T10:55:08Z</time>
      </trkpt>
      <trkpt lat="43.42223" lon="2.46415">
        <ele>1168.171</ele>
        <time>2021-05-24T10:55:10Z</time>
      </trkpt>
      <trkpt lat="43.42223" lon="2.46417">
        <ele>1168.301</ele>
        <time>2021-05-24T10:55:12Z</time>
      </trkpt>
      <trkpt lat="43.42221" lon="2.46419">
        <ele>1167.605</ele>
        <time>2021-05-24T10:55:14Z</time>
      </trkpt>
      <trkpt lat="43.42219" lon="2.4642">
        <ele>1166.836</ele>
        <time>2021-05-24T10:55:16Z</time>
      </trkpt>
      <trkpt lat="43.42216" lon="2.46421">
        <ele>1166.304</ele>
        <time>2021-05-24T10:55:18Z</time>
      </trkpt>
      <trkpt lat="43.42214" lon="2.46421">
        <ele>1164.901</ele>
        <time>2021-05-24T10:55:20Z</time>
      </trkpt>
      <trkpt lat="43.42211" lon="2.46421">
        <ele>1163.963</ele>
        <time>2021-05-24T10:55:22Z</time>
      </trkpt>
      <trkpt lat="43.42209" lon="2.46421">
        <ele>1163.253</ele>
        <time>2021-05-24T10:55:24Z</time>
      </trkpt>
      <trkpt lat="43.42206" lon="2.46421">
        <ele>1161.467</ele>
        <time>2021-05-24T10:55:26Z</time>
      </trkpt>
      <trkpt lat="43.42203" lon="2.46422">
        <ele>1160.465</ele>
        <time>2021-05-24T10:55:28Z</time>
      </trkpt>
      <trkpt lat="43.42199" lon="2.46426">
        <ele>1160.12</ele>
        <time>2021-05-24T10:55:30Z</time>
      </trkpt>
      <trkpt lat="43.42196" lon="2.4643">
        <ele>1159.906</ele>
        <time>2021-05-24T10:55:32Z</time>
      </trkpt>
      <trkpt lat="43.42195" lon="2.46432">
        <ele>1159.849</ele>
        <time>2021-05-24T10:55:33Z</time>
      </trkpt>
      <trkpt lat="43.42193" lon="2.46435">
        <ele>1158.003</ele>
        <time>2021-05-24T10:55:36Z</time>
      </trkpt>
      <trkpt lat="43.4219" lon="2.46436">
        <ele>1157.086</ele>
        <time>2021-05-24T10:55:38Z</time>
      </trkpt>
      <trkpt lat="43.42186" lon="2.46435">
        <ele>1157.758</ele>
        <time>2021-05-24T10:55:40Z</time>
      </trkpt>
      <trkpt lat="43.42183" lon="2.46432">
        <ele>1158.161</ele>
        <time>2021-05-24T10:55:42Z</time>
      </trkpt>
      <trkpt lat="43.42178" lon="2.4643">
        <ele>1157.519</ele>
        <time>2021-05-24T10:55:44Z</time>
      </trkpt>
      <trkpt lat="43.42175" lon="2.46429">
        <ele>1156.461</ele>
        <time>2021-05-24T10:55:46Z</time>
      </trkpt>
      <trkpt lat="43.42173" lon="2.46428">
        <ele>1155.172</ele>
        <time>2021-05-24T10:55:48Z</time>
      </trkpt>
      <trkpt lat="43.42169" lon="2.46427">
        <ele>1153.972</ele>
        <time>2021-05-24T10:55:50Z</time>
      </trkpt>
      <trkpt lat="43.42164" lon="2.46425">
        <ele>1153.444</ele>
        <time>2021-05-24T10:55:52Z</time>
      </trkpt>
      <trkpt lat="43.42159" lon="2.46423">
        <ele>1152.221</ele>
        <time>2021-05-24T10:55:54Z</time>
      </trkpt>
      <trkpt lat="43.42156" lon="2.46421">
        <ele>1150.673</ele>
        <time>2021-05-24T10:55:56Z</time>
      </trkpt>
      <trkpt lat="43.42153" lon="2.4642">
        <ele>1150.369</ele>
        <time>2021-05-24T10:55:58Z</time>
      </trkpt>
      <trkpt lat="43.4215" lon="2.46418">
        <ele>1149.813</ele>
        <time>2021-05-24T10:56:00Z</time>
      </trkpt>
      <trkpt lat="43.42147" lon="2.46417">
        <ele>1148.992</ele>
        <time>2021-05-24T10:56:02Z</time>
      </trkpt>
      <trkpt lat="43.42145" lon="2.46416">
        <ele>1148.392</ele>
        <time>2021-05-24T10:56:04Z</time>
      </trkpt>
      <trkpt lat="43.42141" lon="2.46415">
        <ele>1147.513</ele>
        <time>2021-05-24T10:56:06Z</time>
      </trkpt>
      <trkpt lat="43.42137" lon="2.46414">
        <ele>1146.914</ele>
        <time>2021-05-24T10:56:08Z</time>
      </trkpt>
      <trkpt lat="43.42134" lon="2.46413">
        <ele>1145.946</ele>
        <time>2021-05-24T10:56:10Z</time>
      </trkpt>
      <trkpt lat="43.42131" lon="2.46411">
        <ele>1145.13</ele>
        <time>2021-05-24T10:56:12Z</time>
      </trkpt>
      <trkpt lat="43.42127" lon="2.46409">
        <ele>1144.616</ele>
        <time>2021-05-24T10:56:14Z</time>
      </trkpt>
      <trkpt lat="43.42124" lon="2.46408">
        <ele>1144.555</ele>
        <time>2021-05-24T10:56:16Z</time>
      </trkpt>
      <trkpt lat="43.42122" lon="2.46406">
        <ele>1144.152</ele>
        <time>2021-05-24T10:56:18Z</time>
      </trkpt>
      <trkpt lat="43.4212" lon="2.46405">
        <ele>1143.976</ele>
        <time>2021-05-24T10:56:20Z</time>
      </trkpt>
      <trkpt lat="43.42116" lon="2.46404">
        <ele>1143.186</ele>
        <time>2021-05-24T10:56:22Z</time>
      </trkpt>
      <trkpt lat="43.42112" lon="2.46402">
        <ele>1142.395</ele>
        <time>2021-05-24T10:56:24Z</time>
      </trkpt>
      <trkpt lat="43.42109" lon="2.46401">
        <ele>1141.569</ele>
        <time>2021-05-24T10:56:26Z</time>
      </trkpt>
      <trkpt lat="43.42107" lon="2.46401">
        <ele>1141.112</ele>
        <time>2021-05-24T10:56:28Z</time>
      </trkpt>
      <trkpt lat="43.42104" lon="2.46399">
        <ele>1140.512</ele>
        <time>2021-05-24T10:56:30Z</time>
      </trkpt>
      <trkpt lat="43.42101" lon="2.46398">
        <ele>1140.348</ele>
        <time>2021-05-24T10:56:32Z</time>
      </trkpt>
      <trkpt lat="43.421" lon="2.46396">
        <ele>1140.487</ele>
        <time>2021-05-24T10:56:34Z</time>
      </trkpt>
      <trkpt lat="43.42097" lon="2.46394">
        <ele>1139.106</ele>
        <time>2021-05-24T10:56:36Z</time>
      </trkpt>
      <trkpt lat="43.42094" lon="2.46393">
        <ele>1138.682</ele>
        <time>2021-05-24T10:56:38Z</time>
      </trkpt>
      <trkpt lat="43.42092" lon="2.46393">
        <ele>1138.432</ele>
        <time>2021-05-24T10:56:40Z</time>
      </trkpt>
      <trkpt lat="43.4209" lon="2.46392">
        <ele>1137.71</ele>
        <time>2021-05-24T10:56:42Z</time>
      </trkpt>
      <trkpt lat="43.42089" lon="2.46391">
        <ele>1136.956</ele>
        <time>2021-05-24T10:56:44Z</time>
      </trkpt>
      <trkpt lat="43.42087" lon="2.4639">
        <ele>1136.149</ele>
        <time>2021-05-24T10:56:46Z</time>
      </trkpt>
      <trkpt lat="43.42086" lon="2.46389">
        <ele>1136.907</ele>
        <time>2021-05-24T10:56:48Z</time>
      </trkpt>
      <trkpt lat="43.42085" lon="2.46388">
        <ele>1136.505</ele>
        <time>2021-05-24T10:56:50Z</time>
      </trkpt>
      <trkpt lat="43.42083" lon="2.46385">
        <ele>1136.72</ele>
        <time>2021-05-24T10:56:52Z</time>
      </trkpt>
      <trkpt lat="43.42083" lon="2.46381">
        <ele>1136.646</ele>
        <time>2021-05-24T10:56:54Z</time>
      </trkpt>
      <trkpt lat="43.42082" lon="2.46378">
        <ele>1136.059</ele>
        <time>2021-05-24T10:56:56Z</time>
      </trkpt>
      <trkpt lat="43.42082" lon="2.46375">
        <ele>1135.695</ele>
        <time>2021-05-24T10:56:58Z</time>
      </trkpt>
      <trkpt lat="43.42081" lon="2.46372">
        <ele>1135.708</ele>
        <time>2021-05-24T10:57:00Z</time>
      </trkpt>
      <trkpt lat="43.4208" lon="2.46369">
        <ele>1135.655</ele>
        <time>2021-05-24T10:57:02Z</time>
      </trkpt>
      <trkpt lat="43.42079" lon="2.46367">
        <ele>1135.647</ele>
        <time>2021-05-24T10:57:04Z</time>
      </trkpt>
      <trkpt lat="43.42079" lon="2.46367">
        <ele>1135.193</ele>
        <time>2021-05-24T10:57:06Z</time>
      </trkpt>
      <trkpt lat="43.42079" lon="2.46368">
        <ele>1135.14</ele>
        <time>2021-05-24T10:57:08Z</time>
      </trkpt>
      <trkpt lat="43.42079" lon="2.46367">
        <ele>1134.919</ele>
        <time>2021-05-24T10:57:10Z</time>
      </trkpt>
      <trkpt lat="43.42079" lon="2.46367">
        <ele>1134.923</ele>
        <time>2021-05-24T10:57:12Z</time>
      </trkpt>
      <trkpt lat="43.4208" lon="2.46367">
        <ele>1135.71</ele>
        <time>2021-05-24T10:57:14Z</time>
      </trkpt>
      <trkpt lat="43.42081" lon="2.46367">
        <ele>1135.86</ele>
        <time>2021-05-24T10:57:16Z</time>
      </trkpt>
      <trkpt lat="43.42081" lon="2.46367">
        <ele>1135.999</ele>
        <time>2021-05-24T10:57:18Z</time>
      </trkpt>
      <trkpt lat="43.42081" lon="2.46368">
        <ele>1136.059</ele>
        <time>2021-05-24T10:57:20Z</time>
      </trkpt>
      <trkpt lat="43.42082" lon="2.46368">
        <ele>1136.059</ele>
        <time>2021-05-24T10:57:22Z</time>
      </trkpt>
      <trkpt lat="43.42082" lon="2.46368">
        <ele>1136.186</ele>
        <time>2021-05-24T10:57:24Z</time>
      </trkpt>
      <trkpt lat="43.42082" lon="2.46367">
        <ele>1137.052</ele>
        <time>2021-05-24T10:57:26Z</time>
      </trkpt>
      <trkpt lat="43.42082" lon="2.46368">
        <ele>1136.942</ele>
        <time>2021-05-24T10:57:28Z</time>
      </trkpt>
      <trkpt lat="43.42083" lon="2.46369">
        <ele>1137.455</ele>
        <time>2021-05-24T10:57:30Z</time>
      </trkpt>
      <trkpt lat="43.42084" lon="2.46368">
        <ele>1137.156</ele>
        <time>2021-05-24T10:57:32Z</time>
      </trkpt>
      <trkpt lat="43.42084" lon="2.46368">
        <ele>1137.532</ele>
        <time>2021-05-24T10:57:34Z</time>
      </trkpt>
      <trkpt lat="43.42084" lon="2.46368">
        <ele>1138.021</ele>
        <time>2021-05-24T10:57:36Z</time>
      </trkpt>
      <trkpt lat="43.42083" lon="2.46368">
        <ele>1137.831</ele>
        <time>2021-05-24T10:57:38Z</time>
      </trkpt>
      <trkpt lat="43.42084" lon="2.46368">
        <ele>1137.572</ele>
        <time>2021-05-24T10:57:40Z</time>
      </trkpt>
      <trkpt lat="43.42084" lon="2.46368">
        <ele>1137.87</ele>
        <time>2021-05-24T10:57:42Z</time>
      </trkpt>
      <trkpt lat="43.42083" lon="2.46368">
        <ele>1138.364</ele>
        <time>2021-05-24T10:57:44Z</time>
      </trkpt>
      <trkpt lat="43.42082" lon="2.46369">
        <ele>1137.896</ele>
        <time>2021-05-24T10:57:46Z</time>
      </trkpt>
      <trkpt lat="43.4208" lon="2.46368">
        <ele>1137.487</ele>
        <time>2021-05-24T10:57:48Z</time>
      </trkpt>
      <trkpt lat="43.42079" lon="2.46367">
        <ele>1137.056</ele>
        <time>2021-05-24T10:57:50Z</time>
      </trkpt>
      <trkpt lat="43.42077" lon="2.46365">
        <ele>1136.381</ele>
        <time>2021-05-24T10:57:52Z</time>
      </trkpt>
      <trkpt lat="43.42076" lon="2.46363">
        <ele>1135.79</ele>
        <time>2021-05-24T10:57:54Z</time>
      </trkpt>
      <trkpt lat="43.42076" lon="2.46363">
        <ele>1136.089</ele>
        <time>2021-05-24T10:57:56Z</time>
      </trkpt>
      <trkpt lat="43.42075" lon="2.46362">
        <ele>1135.315</ele>
        <time>2021-05-24T10:57:58Z</time>
      </trkpt>
      <trkpt lat="43.42074" lon="2.4636">
        <ele>1135.266</ele>
        <time>2021-05-24T10:58:00Z</time>
      </trkpt>
      <trkpt lat="43.42074" lon="2.46359">
        <ele>1135.394</ele>
        <time>2021-05-24T10:58:02Z</time>
      </trkpt>
      <trkpt lat="43.42074" lon="2.46359">
        <ele>1135.395</ele>
        <time>2021-05-24T10:58:04Z</time>
      </trkpt>
      <trkpt lat="43.42074" lon="2.46359">
        <ele>1135.392</ele>
        <time>2021-05-24T10:58:06Z</time>
      </trkpt>
      <trkpt lat="43.42074" lon="2.46359">
        <ele>1135.396</ele>
        <time>2021-05-24T10:58:08Z</time>
      </trkpt>
      <trkpt lat="43.42074" lon="2.46359">
        <ele>1135.401</ele>
        <time>2021-05-24T10:58:10Z</time>
      </trkpt>
      <trkpt lat="43.42074" lon="2.46358">
        <ele>1135.033</ele>
        <time>2021-05-24T10:58:12Z</time>
      </trkpt>
      <trkpt lat="43.42072" lon="2.46357">
        <ele>1134.239</ele>
        <time>2021-05-24T10:58:14Z</time>
      </trkpt>
      <trkpt lat="43.42071" lon="2.46354">
        <ele>1133.239</ele>
        <time>2021-05-24T10:58:16Z</time>
      </trkpt>
      <trkpt lat="43.42069" lon="2.46351">
        <ele>1132.773</ele>
        <time>2021-05-24T10:58:18Z</time>
      </trkpt>
      <trkpt lat="43.42068" lon="2.46349">
        <ele>1132.034</ele>
        <time>2021-05-24T10:58:20Z</time>
      </trkpt>
      <trkpt lat="43.42067" lon="2.46347">
        <ele>1131.773</ele>
        <time>2021-05-24T10:58:22Z</time>
      </trkpt>
      <trkpt lat="43.42065" lon="2.46345">
        <ele>1131.374</ele>
        <time>2021-05-24T10:58:24Z</time>
      </trkpt>
      <trkpt lat="43.42063" lon="2.46343">
        <ele>1130.87</ele>
        <time>2021-05-24T10:58:26Z</time>
      </trkpt>
      <trkpt lat="43.42061" lon="2.4634">
        <ele>1130.742</ele>
        <time>2021-05-24T10:58:28Z</time>
      </trkpt>
      <trkpt lat="43.4206" lon="2.46338">
        <ele>1130.08</ele>
        <time>2021-05-24T10:58:30Z</time>
      </trkpt>
      <trkpt lat="43.42058" lon="2.46336">
        <ele>1129.248</ele>
        <time>2021-05-24T10:58:32Z</time>
      </trkpt>
      <trkpt lat="43.42056" lon="2.46333">
        <ele>1129.051</ele>
        <time>2021-05-24T10:58:34Z</time>
      </trkpt>
      <trkpt lat="43.42054" lon="2.46331">
        <ele>1128.87</ele>
        <time>2021-05-24T10:58:36Z</time>
      </trkpt>
      <trkpt lat="43.42052" lon="2.46329">
        <ele>1128.527</ele>
        <time>2021-05-24T10:58:38Z</time>
      </trkpt>
      <trkpt lat="43.4205" lon="2.46326">
        <ele>1128.297</ele>
        <time>2021-05-24T10:58:40Z</time>
      </trkpt>
      <trkpt lat="43.42049" lon="2.46324">
        <ele>1127.86</ele>
        <time>2021-05-24T10:58:42Z</time>
      </trkpt>
      <trkpt lat="43.42047" lon="2.46322">
        <ele>1127.527</ele>
        <time>2021-05-24T10:58:44Z</time>
      </trkpt>
      <trkpt lat="43.42046" lon="2.46319">
        <ele>1127.503</ele>
        <time>2021-05-24T10:58:46Z</time>
      </trkpt>
      <trkpt lat="43.42044" lon="2.46318">
        <ele>1127.157</ele>
        <time>2021-05-24T10:58:48Z</time>
      </trkpt>
      <trkpt lat="43.42043" lon="2.46315">
        <ele>1126.512</ele>
        <time>2021-05-24T10:58:50Z</time>
      </trkpt>
      <trkpt lat="43.42042" lon="2.46312">
        <ele>1126.689</ele>
        <time>2021-05-24T10:58:52Z</time>
      </trkpt>
      <trkpt lat="43.42041" lon="2.46309">
        <ele>1126.196</ele>
        <time>2021-05-24T10:58:54Z</time>
      </trkpt>
      <trkpt lat="43.4204" lon="2.46306">
        <ele>1125.45</ele>
        <time>2021-05-24T10:58:56Z</time>
      </trkpt>
      <trkpt lat="43.42038" lon="2.46303">
        <ele>1124.625</ele>
        <time>2021-05-24T10:58:58Z</time>
      </trkpt>
      <trkpt lat="43.42036" lon="2.463">
        <ele>1124.515</ele>
        <time>2021-05-24T10:59:00Z</time>
      </trkpt>
      <trkpt lat="43.42034" lon="2.46298">
        <ele>1124.332</ele>
        <time>2021-05-24T10:59:02Z</time>
      </trkpt>
      <trkpt lat="43.42032" lon="2.46295">
        <ele>1123.566</ele>
        <time>2021-05-24T10:59:04Z</time>
      </trkpt>
      <trkpt lat="43.42029" lon="2.46293">
        <ele>1123.179</ele>
        <time>2021-05-24T10:59:06Z</time>
      </trkpt>
      <trkpt lat="43.42027" lon="2.46291">
        <ele>1123.272</ele>
        <time>2021-05-24T10:59:08Z</time>
      </trkpt>
      <trkpt lat="43.42024" lon="2.46289">
        <ele>1122.961</ele>
        <time>2021-05-24T10:59:10Z</time>
      </trkpt>
      <trkpt lat="43.42022" lon="2.46286">
        <ele>1122.875</ele>
        <time>2021-05-24T10:59:12Z</time>
      </trkpt>
      <trkpt lat="43.4202" lon="2.46284">
        <ele>1122.29</ele>
        <time>2021-05-24T10:59:14Z</time>
      </trkpt>
      <trkpt lat="43.42018" lon="2.46282">
        <ele>1121.607</ele>
        <time>2021-05-24T10:59:16Z</time>
      </trkpt>
      <trkpt lat="43.42016" lon="2.46279">
        <ele>1121.616</ele>
        <time>2021-05-24T10:59:18Z</time>
      </trkpt>
      <trkpt lat="43.42014" lon="2.46276">
        <ele>1121.363</ele>
        <time>2021-05-24T10:59:20Z</time>
      </trkpt>
      <trkpt lat="43.42012" lon="2.46274">
        <ele>1121.138</ele>
        <time>2021-05-24T10:59:22Z</time>
      </trkpt>
      <trkpt lat="43.4201" lon="2.46272">
        <ele>1120.649</ele>
        <time>2021-05-24T10:59:24Z</time>
      </trkpt>
      <trkpt lat="43.42007" lon="2.4627">
        <ele>1121.091</ele>
        <time>2021-05-24T10:59:26Z</time>
      </trkpt>
      <trkpt lat="43.42005" lon="2.46267">
        <ele>1121.707</ele>
        <time>2021-05-24T10:59:28Z</time>
      </trkpt>
      <trkpt lat="43.42003" lon="2.46264">
        <ele>1122.163</ele>
        <time>2021-05-24T10:59:30Z</time>
      </trkpt>
      <trkpt lat="43.42" lon="2.46261">
        <ele>1122.072</ele>
        <time>2021-05-24T10:59:32Z</time>
      </trkpt>
      <trkpt lat="43.41998" lon="2.46259">
        <ele>1121.543</ele>
        <time>2021-05-24T10:59:34Z</time>
      </trkpt>
      <trkpt lat="43.41996" lon="2.46257">
        <ele>1120.963</ele>
        <time>2021-05-24T10:59:36Z</time>
      </trkpt>
      <trkpt lat="43.41994" lon="2.46255">
        <ele>1120.663</ele>
        <time>2021-05-24T10:59:38Z</time>
      </trkpt>
      <trkpt lat="43.41992" lon="2.46252">
        <ele>1120.099</ele>
        <time>2021-05-24T10:59:40Z</time>
      </trkpt>
      <trkpt lat="43.41989" lon="2.4625">
        <ele>1120.799</ele>
        <time>2021-05-24T10:59:42Z</time>
      </trkpt>
      <trkpt lat="43.41987" lon="2.46247">
        <ele>1121.36</ele>
        <time>2021-05-24T10:59:44Z</time>
      </trkpt>
      <trkpt lat="43.41985" lon="2.46245">
        <ele>1121.987</ele>
        <time>2021-05-24T10:59:46Z</time>
      </trkpt>
      <trkpt lat="43.41983" lon="2.46242">
        <ele>1121.34</ele>
        <time>2021-05-24T10:59:48Z</time>
      </trkpt>
      <trkpt lat="43.41981" lon="2.4624">
        <ele>1120.935</ele>
        <time>2021-05-24T10:59:50Z</time>
      </trkpt>
      <trkpt lat="43.41979" lon="2.46238">
        <ele>1120.517</ele>
        <time>2021-05-24T10:59:52Z</time>
      </trkpt>
      <trkpt lat="43.41977" lon="2.46236">
        <ele>1120.14</ele>
        <time>2021-05-24T10:59:54Z</time>
      </trkpt>
      <trkpt lat="43.41974" lon="2.46234">
        <ele>1119.553</ele>
        <time>2021-05-24T10:59:56Z</time>
      </trkpt>
      <trkpt lat="43.41972" lon="2.46231">
        <ele>1119.278</ele>
        <time>2021-05-24T10:59:58Z</time>
      </trkpt>
      <trkpt lat="43.4197" lon="2.46229">
        <ele>1119.272</ele>
        <time>2021-05-24T11:00:00Z</time>
      </trkpt>
      <trkpt lat="43.41968" lon="2.46227">
        <ele>1118.742</ele>
        <time>2021-05-24T11:00:02Z</time>
      </trkpt>
      <trkpt lat="43.41966" lon="2.46225">
        <ele>1118.031</ele>
        <time>2021-05-24T11:00:04Z</time>
      </trkpt>
      <trkpt lat="43.41964" lon="2.46222">
        <ele>1119.307</ele>
        <time>2021-05-24T11:00:06Z</time>
      </trkpt>
      <trkpt lat="43.41962" lon="2.4622">
        <ele>1119.216</ele>
        <time>2021-05-24T11:00:08Z</time>
      </trkpt>
      <trkpt lat="43.4196" lon="2.46217">
        <ele>1118.631</ele>
        <time>2021-05-24T11:00:10Z</time>
      </trkpt>
      <trkpt lat="43.41957" lon="2.46215">
        <ele>1118.709</ele>
        <time>2021-05-24T11:00:12Z</time>
      </trkpt>
      <trkpt lat="43.41955" lon="2.46213">
        <ele>1118.963</ele>
        <time>2021-05-24T11:00:14Z</time>
      </trkpt>
      <trkpt lat="43.41953" lon="2.46211">
        <ele>1118.864</ele>
        <time>2021-05-24T11:00:16Z</time>
      </trkpt>
      <trkpt lat="43.4195" lon="2.46208">
        <ele>1119.639</ele>
        <time>2021-05-24T11:00:18Z</time>
      </trkpt>
      <trkpt lat="43.41948" lon="2.46206">
        <ele>1119.854</ele>
        <time>2021-05-24T11:00:20Z</time>
      </trkpt>
      <trkpt lat="43.41947" lon="2.46203">
        <ele>1119.651</ele>
        <time>2021-05-24T11:00:22Z</time>
      </trkpt>
      <trkpt lat="43.41946" lon="2.46201">
        <ele>1119.444</ele>
        <time>2021-05-24T11:00:24Z</time>
      </trkpt>
      <trkpt lat="43.41944" lon="2.46199">
        <ele>1118.06</ele>
        <time>2021-05-24T11:00:26Z</time>
      </trkpt>
      <trkpt lat="43.41942" lon="2.46197">
        <ele>1117.657</ele>
        <time>2021-05-24T11:00:28Z</time>
      </trkpt>
      <trkpt lat="43.41941" lon="2.46195">
        <ele>1117.678</ele>
        <time>2021-05-24T11:00:30Z</time>
      </trkpt>
      <trkpt lat="43.41939" lon="2.46193">
        <ele>1118.444</ele>
        <time>2021-05-24T11:00:32Z</time>
      </trkpt>
      <trkpt lat="43.41937" lon="2.46191">
        <ele>1118.979</ele>
        <time>2021-05-24T11:00:34Z</time>
      </trkpt>
      <trkpt lat="43.41936" lon="2.4619">
        <ele>1118.468</ele>
        <time>2021-05-24T11:00:36Z</time>
      </trkpt>
      <trkpt lat="43.41934" lon="2.46189">
        <ele>1118.701</ele>
        <time>2021-05-24T11:00:38Z</time>
      </trkpt>
      <trkpt lat="43.41933" lon="2.46186">
        <ele>1118.637</ele>
        <time>2021-05-24T11:00:40Z</time>
      </trkpt>
      <trkpt lat="43.41932" lon="2.46185">
        <ele>1118.545</ele>
        <time>2021-05-24T11:00:42Z</time>
      </trkpt>
      <trkpt lat="43.4193" lon="2.46184">
        <ele>1118.92</ele>
        <time>2021-05-24T11:00:44Z</time>
      </trkpt>
      <trkpt lat="43.41929" lon="2.46182">
        <ele>1119.782</ele>
        <time>2021-05-24T11:00:46Z</time>
      </trkpt>
      <trkpt lat="43.41928" lon="2.46181">
        <ele>1119.037</ele>
        <time>2021-05-24T11:00:48Z</time>
      </trkpt>
      <trkpt lat="43.41927" lon="2.46179">
        <ele>1117.934</ele>
        <time>2021-05-24T11:00:50Z</time>
      </trkpt>
      <trkpt lat="43.41925" lon="2.46178">
        <ele>1118.427</ele>
        <time>2021-05-24T11:00:52Z</time>
      </trkpt>
      <trkpt lat="43.41924" lon="2.46177">
        <ele>1119.318</ele>
        <time>2021-05-24T11:00:54Z</time>
      </trkpt>
      <trkpt lat="43.41922" lon="2.46176">
        <ele>1119.616</ele>
        <time>2021-05-24T11:00:56Z</time>
      </trkpt>
      <trkpt lat="43.41921" lon="2.46175">
        <ele>1119.665</ele>
        <time>2021-05-24T11:00:58Z</time>
      </trkpt>
      <trkpt lat="43.41919" lon="2.46173">
        <ele>1118.205</ele>
        <time>2021-05-24T11:01:00Z</time>
      </trkpt>
      <trkpt lat="43.41917" lon="2.46172">
        <ele>1117.512</ele>
        <time>2021-05-24T11:01:02Z</time>
      </trkpt>
      <trkpt lat="43.41916" lon="2.46171">
        <ele>1116.651</ele>
        <time>2021-05-24T11:01:04Z</time>
      </trkpt>
      <trkpt lat="43.41915" lon="2.46169">
        <ele>1116.561</ele>
        <time>2021-05-24T11:01:06Z</time>
      </trkpt>
      <trkpt lat="43.41913" lon="2.46167">
        <ele>1117.209</ele>
        <time>2021-05-24T11:01:08Z</time>
      </trkpt>
      <trkpt lat="43.41911" lon="2.46166">
        <ele>1116.376</ele>
        <time>2021-05-24T11:01:10Z</time>
      </trkpt>
      <trkpt lat="43.4191" lon="2.46164">
        <ele>1116.918</ele>
        <time>2021-05-24T11:01:12Z</time>
      </trkpt>
      <trkpt lat="43.41908" lon="2.46163">
        <ele>1117.052</ele>
        <time>2021-05-24T11:01:14Z</time>
      </trkpt>
      <trkpt lat="43.41907" lon="2.46163">
        <ele>1117.55</ele>
        <time>2021-05-24T11:01:16Z</time>
      </trkpt>
      <trkpt lat="43.41905" lon="2.46163">
        <ele>1117.445</ele>
        <time>2021-05-24T11:01:18Z</time>
      </trkpt>
      <trkpt lat="43.41902" lon="2.46163">
        <ele>1116.807</ele>
        <time>2021-05-24T11:01:20Z</time>
      </trkpt>
      <trkpt lat="43.41901" lon="2.46162">
        <ele>1116.3</ele>
        <time>2021-05-24T11:01:22Z</time>
      </trkpt>
      <trkpt lat="43.41899" lon="2.4616">
        <ele>1114.065</ele>
        <time>2021-05-24T11:01:24Z</time>
      </trkpt>
      <trkpt lat="43.41897" lon="2.46158">
        <ele>1113.352</ele>
        <time>2021-05-24T11:01:26Z</time>
      </trkpt>
      <trkpt lat="43.41896" lon="2.46157">
        <ele>1112.958</ele>
        <time>2021-05-24T11:01:28Z</time>
      </trkpt>
      <trkpt lat="43.41894" lon="2.46156">
        <ele>1112.223</ele>
        <time>2021-05-24T11:01:30Z</time>
      </trkpt>
      <trkpt lat="43.41893" lon="2.46155">
        <ele>1111.714</ele>
        <time>2021-05-24T11:01:32Z</time>
      </trkpt>
      <trkpt lat="43.41891" lon="2.46153">
        <ele>1111.698</ele>
        <time>2021-05-24T11:01:34Z</time>
      </trkpt>
      <trkpt lat="43.4189" lon="2.46151">
        <ele>1110.659</ele>
        <time>2021-05-24T11:01:36Z</time>
      </trkpt>
      <trkpt lat="43.41888" lon="2.4615">
        <ele>1110.515</ele>
        <time>2021-05-24T11:01:38Z</time>
      </trkpt>
      <trkpt lat="43.41887" lon="2.46147">
        <ele>1110.004</ele>
        <time>2021-05-24T11:01:40Z</time>
      </trkpt>
      <trkpt lat="43.41886" lon="2.46145">
        <ele>1109.789</ele>
        <time>2021-05-24T11:01:42Z</time>
      </trkpt>
      <trkpt lat="43.41884" lon="2.46143">
        <ele>1109.668</ele>
        <time>2021-05-24T11:01:44Z</time>
      </trkpt>
      <trkpt lat="43.41883" lon="2.46141">
        <ele>1110.211</ele>
        <time>2021-05-24T11:01:46Z</time>
      </trkpt>
      <trkpt lat="43.41883" lon="2.46139">
        <ele>1109.831</ele>
        <time>2021-05-24T11:01:48Z</time>
      </trkpt>
      <trkpt lat="43.41881" lon="2.46137">
        <ele>1109.664</ele>
        <time>2021-05-24T11:01:50Z</time>
      </trkpt>
      <trkpt lat="43.4188" lon="2.46137">
        <ele>1109.794</ele>
        <time>2021-05-24T11:01:52Z</time>
      </trkpt>
      <trkpt lat="43.41879" lon="2.46135">
        <ele>1110.222</ele>
        <time>2021-05-24T11:01:54Z</time>
      </trkpt>
      <trkpt lat="43.41877" lon="2.46134">
        <ele>1110.075</ele>
        <time>2021-05-24T11:01:56Z</time>
      </trkpt>
      <trkpt lat="43.41875" lon="2.46133">
        <ele>1109.217</ele>
        <time>2021-05-24T11:01:58Z</time>
      </trkpt>
      <trkpt lat="43.41875" lon="2.46132">
        <ele>1108.925</ele>
        <time>2021-05-24T11:02:00Z</time>
      </trkpt>
      <trkpt lat="43.41873" lon="2.46131">
        <ele>1109.187</ele>
        <time>2021-05-24T11:02:02Z</time>
      </trkpt>
      <trkpt lat="43.41871" lon="2.4613">
        <ele>1108.844</ele>
        <time>2021-05-24T11:02:04Z</time>
      </trkpt>
      <trkpt lat="43.4187" lon="2.46128">
        <ele>1107.864</ele>
        <time>2021-05-24T11:02:06Z</time>
      </trkpt>
      <trkpt lat="43.41869" lon="2.46127">
        <ele>1107.756</ele>
        <time>2021-05-24T11:02:08Z</time>
      </trkpt>
      <trkpt lat="43.41867" lon="2.46126">
        <ele>1107.26</ele>
        <time>2021-05-24T11:02:10Z</time>
      </trkpt>
      <trkpt lat="43.41866" lon="2.46125">
        <ele>1106.902</ele>
        <time>2021-05-24T11:02:12Z</time>
      </trkpt>
      <trkpt lat="43.41864" lon="2.46123">
        <ele>1107.269</ele>
        <time>2021-05-24T11:02:14Z</time>
      </trkpt>
      <trkpt lat="43.41863" lon="2.46122">
        <ele>1107.119</ele>
        <time>2021-05-24T11:02:16Z</time>
      </trkpt>
      <trkpt lat="43.41861" lon="2.46121">
        <ele>1106.518</ele>
        <time>2021-05-24T11:02:18Z</time>
      </trkpt>
      <trkpt lat="43.4186" lon="2.4612">
        <ele>1106.069</ele>
        <time>2021-05-24T11:02:20Z</time>
      </trkpt>
      <trkpt lat="43.41859" lon="2.46118">
        <ele>1105.288</ele>
        <time>2021-05-24T11:02:22Z</time>
      </trkpt>
      <trkpt lat="43.41857" lon="2.46117">
        <ele>1104.097</ele>
        <time>2021-05-24T11:02:24Z</time>
      </trkpt>
      <trkpt lat="43.41856" lon="2.46115">
        <ele>1103.64</ele>
        <time>2021-05-24T11:02:26Z</time>
      </trkpt>
      <trkpt lat="43.41855" lon="2.46113">
        <ele>1104.384</ele>
        <time>2021-05-24T11:02:28Z</time>
      </trkpt>
      <trkpt lat="43.41854" lon="2.46111">
        <ele>1104.491</ele>
        <time>2021-05-24T11:02:30Z</time>
      </trkpt>
      <trkpt lat="43.41852" lon="2.4611">
        <ele>1104.369</ele>
        <time>2021-05-24T11:02:32Z</time>
      </trkpt>
      <trkpt lat="43.4185" lon="2.46107">
        <ele>1103.919</ele>
        <time>2021-05-24T11:02:34Z</time>
      </trkpt>
      <trkpt lat="43.41848" lon="2.46105">
        <ele>1103.716</ele>
        <time>2021-05-24T11:02:36Z</time>
      </trkpt>
      <trkpt lat="43.41846" lon="2.46102">
        <ele>1103.766</ele>
        <time>2021-05-24T11:02:38Z</time>
      </trkpt>
      <trkpt lat="43.41845" lon="2.461">
        <ele>1102.712</ele>
        <time>2021-05-24T11:02:40Z</time>
      </trkpt>
      <trkpt lat="43.41844" lon="2.46098">
        <ele>1102.312</ele>
        <time>2021-05-24T11:02:42Z</time>
      </trkpt>
      <trkpt lat="43.41842" lon="2.46097">
        <ele>1101.229</ele>
        <time>2021-05-24T11:02:44Z</time>
      </trkpt>
      <trkpt lat="43.41841" lon="2.46095">
        <ele>1100.606</ele>
        <time>2021-05-24T11:02:46Z</time>
      </trkpt>
      <trkpt lat="43.4184" lon="2.46092">
        <ele>1100.714</ele>
        <time>2021-05-24T11:02:48Z</time>
      </trkpt>
      <trkpt lat="43.41839" lon="2.4609">
        <ele>1100.447</ele>
        <time>2021-05-24T11:02:50Z</time>
      </trkpt>
      <trkpt lat="43.41837" lon="2.46088">
        <ele>1099.522</ele>
        <time>2021-05-24T11:02:52Z</time>
      </trkpt>
      <trkpt lat="43.41836" lon="2.46086">
        <ele>1100.086</ele>
        <time>2021-05-24T11:02:54Z</time>
      </trkpt>
      <trkpt lat="43.41834" lon="2.46084">
        <ele>1099.772</ele>
        <time>2021-05-24T11:02:56Z</time>
      </trkpt>
      <trkpt lat="43.41832" lon="2.46082">
        <ele>1099.353</ele>
        <time>2021-05-24T11:02:58Z</time>
      </trkpt>
      <trkpt lat="43.41831" lon="2.46082">
        <ele>1098.321</ele>
        <time>2021-05-24T11:03:00Z</time>
      </trkpt>
      <trkpt lat="43.41831" lon="2.4608">
        <ele>1097.805</ele>
        <time>2021-05-24T11:03:02Z</time>
      </trkpt>
      <trkpt lat="43.41828" lon="2.4608">
        <ele>1098.145</ele>
        <time>2021-05-24T11:03:04Z</time>
      </trkpt>
      <trkpt lat="43.41827" lon="2.46078">
        <ele>1096.914</ele>
        <time>2021-05-24T11:03:06Z</time>
      </trkpt>
      <trkpt lat="43.41826" lon="2.46078">
        <ele>1096.614</ele>
        <time>2021-05-24T11:03:08Z</time>
      </trkpt>
      <trkpt lat="43.41824" lon="2.46077">
        <ele>1096.103</ele>
        <time>2021-05-24T11:03:10Z</time>
      </trkpt>
      <trkpt lat="43.41823" lon="2.46075">
        <ele>1096.056</ele>
        <time>2021-05-24T11:03:12Z</time>
      </trkpt>
      <trkpt lat="43.41822" lon="2.46073">
        <ele>1095.784</ele>
        <time>2021-05-24T11:03:14Z</time>
      </trkpt>
      <trkpt lat="43.41821" lon="2.46073">
        <ele>1094.987</ele>
        <time>2021-05-24T11:03:16Z</time>
      </trkpt>
      <trkpt lat="43.4182" lon="2.46072">
        <ele>1094.021</ele>
        <time>2021-05-24T11:03:18Z</time>
      </trkpt>
      <trkpt lat="43.41818" lon="2.4607">
        <ele>1093.743</ele>
        <time>2021-05-24T11:03:20Z</time>
      </trkpt>
      <trkpt lat="43.41818" lon="2.46068">
        <ele>1095.463</ele>
        <time>2021-05-24T11:03:22Z</time>
      </trkpt>
      <trkpt lat="43.41817" lon="2.46068">
        <ele>1095.82</ele>
        <time>2021-05-24T11:03:24Z</time>
      </trkpt>
      <trkpt lat="43.41817" lon="2.46067">
        <ele>1095.874</ele>
        <time>2021-05-24T11:03:26Z</time>
      </trkpt>
      <trkpt lat="43.41817" lon="2.46067">
        <ele>1095.882</ele>
        <time>2021-05-24T11:03:28Z</time>
      </trkpt>
      <trkpt lat="43.41817" lon="2.46067">
        <ele>1095.885</ele>
        <time>2021-05-24T11:03:30Z</time>
      </trkpt>
      <trkpt lat="43.41817" lon="2.46067">
        <ele>1095.884</ele>
        <time>2021-05-24T11:03:32Z</time>
      </trkpt>
      <trkpt lat="43.41817" lon="2.46067">
        <ele>1095.882</ele>
        <time>2021-05-24T11:03:34Z</time>
      </trkpt>
      <trkpt lat="43.41817" lon="2.46067">
        <ele>1095.884</ele>
        <time>2021-05-24T11:03:36Z</time>
      </trkpt>
      <trkpt lat="43.41817" lon="2.46067">
        <ele>1095.883</ele>
        <time>2021-05-24T11:03:38Z</time>
      </trkpt>
      <trkpt lat="43.41817" lon="2.46067">
        <ele>1095.88</ele>
        <time>2021-05-24T11:03:40Z</time>
      </trkpt>
      <trkpt lat="43.41817" lon="2.46067">
        <ele>1095.88</ele>
        <time>2021-05-24T11:03:42Z</time>
      </trkpt>
      <trkpt lat="43.41817" lon="2.46067">
        <ele>1095.88</ele>
        <time>2021-05-24T11:03:44Z</time>
      </trkpt>
      <trkpt lat="43.41817" lon="2.46067">
        <ele>1095.879</ele>
        <time>2021-05-24T11:03:46Z</time>
      </trkpt>
      <trkpt lat="43.41817" lon="2.46067">
        <ele>1095.88</ele>
        <time>2021-05-24T11:03:48Z</time>
      </trkpt>
      <trkpt lat="43.41817" lon="2.46067">
        <ele>1095.877</ele>
        <time>2021-05-24T11:03:50Z</time>
      </trkpt>
      <trkpt lat="43.41817" lon="2.46067">
        <ele>1095.883</ele>
        <time>2021-05-24T11:03:51Z</time>
      </trkpt>
      <trkpt lat="43.41817" lon="2.46067">
        <ele>1096.021</ele>
        <time>2021-05-24T11:03:54Z</time>
      </trkpt>
      <trkpt lat="43.41817" lon="2.46067">
        <ele>1096.014</ele>
        <time>2021-05-24T11:03:56Z</time>
      </trkpt>
      <trkpt lat="43.41817" lon="2.46067">
        <ele>1096.023</ele>
        <time>2021-05-24T11:03:58Z</time>
      </trkpt>
      <trkpt lat="43.41817" lon="2.46067">
        <ele>1096.035</ele>
        <time>2021-05-24T11:04:00Z</time>
      </trkpt>
      <trkpt lat="43.41817" lon="2.46067">
        <ele>1096.041</ele>
        <time>2021-05-24T11:04:02Z</time>
      </trkpt>
      <trkpt lat="43.41817" lon="2.46067">
        <ele>1096.047</ele>
        <time>2021-05-24T11:04:04Z</time>
      </trkpt>
      <trkpt lat="43.41817" lon="2.46067">
        <ele>1096.043</ele>
        <time>2021-05-24T11:04:06Z</time>
      </trkpt>
      <trkpt lat="43.41817" lon="2.46067">
        <ele>1096.041</ele>
        <time>2021-05-24T11:04:08Z</time>
      </trkpt>
      <trkpt lat="43.41817" lon="2.46067">
        <ele>1096.042</ele>
        <time>2021-05-24T11:04:10Z</time>
      </trkpt>
      <trkpt lat="43.41817" lon="2.46067">
        <ele>1096.052</ele>
        <time>2021-05-24T11:04:12Z</time>
      </trkpt>
      <trkpt lat="43.41817" lon="2.46067">
        <ele>1096.052</ele>
        <time>2021-05-24T11:04:14Z</time>
      </trkpt>
      <trkpt lat="43.41817" lon="2.46067">
        <ele>1096.052</ele>
        <time>2021-05-24T11:04:16Z</time>
      </trkpt>
      <trkpt lat="43.41817" lon="2.46067">
        <ele>1095.569</ele>
        <time>2021-05-24T11:04:18Z</time>
      </trkpt>
      <trkpt lat="43.41816" lon="2.46066">
        <ele>1095.422</ele>
        <time>2021-05-24T11:04:20Z</time>
      </trkpt>
      <trkpt lat="43.41814" lon="2.46064">
        <ele>1096.348</ele>
        <time>2021-05-24T11:04:22Z</time>
      </trkpt>
      <trkpt lat="43.41812" lon="2.46062">
        <ele>1095.992</ele>
        <time>2021-05-24T11:04:24Z</time>
      </trkpt>
      <trkpt lat="43.41811" lon="2.46061">
        <ele>1094.749</ele>
        <time>2021-05-24T11:04:26Z</time>
      </trkpt>
      <trkpt lat="43.41809" lon="2.46059">
        <ele>1094.02</ele>
        <time>2021-05-24T11:04:28Z</time>
      </trkpt>
      <trkpt lat="43.41807" lon="2.46057">
        <ele>1093.681</ele>
        <time>2021-05-24T11:04:30Z</time>
      </trkpt>
      <trkpt lat="43.41805" lon="2.46056">
        <ele>1092.795</ele>
        <time>2021-05-24T11:04:32Z</time>
      </trkpt>
      <trkpt lat="43.41803" lon="2.46054">
        <ele>1092.298</ele>
        <time>2021-05-24T11:04:34Z</time>
      </trkpt>
      <trkpt lat="43.41802" lon="2.46052">
        <ele>1091.823</ele>
        <time>2021-05-24T11:04:36Z</time>
      </trkpt>
      <trkpt lat="43.418" lon="2.4605">
        <ele>1090.827</ele>
        <time>2021-05-24T11:04:38Z</time>
      </trkpt>
      <trkpt lat="43.41798" lon="2.46048">
        <ele>1091.332</ele>
        <time>2021-05-24T11:04:40Z</time>
      </trkpt>
      <trkpt lat="43.41796" lon="2.46045">
        <ele>1092.089</ele>
        <time>2021-05-24T11:04:42Z</time>
      </trkpt>
      <trkpt lat="43.41794" lon="2.46043">
        <ele>1091.021</ele>
        <time>2021-05-24T11:04:44Z</time>
      </trkpt>
      <trkpt lat="43.41792" lon="2.4604">
        <ele>1090.96</ele>
        <time>2021-05-24T11:04:46Z</time>
      </trkpt>
      <trkpt lat="43.41791" lon="2.46038">
        <ele>1092.084</ele>
        <time>2021-05-24T11:04:48Z</time>
      </trkpt>
      <trkpt lat="43.41789" lon="2.46036">
        <ele>1092.232</ele>
        <time>2021-05-24T11:04:50Z</time>
      </trkpt>
      <trkpt lat="43.41787" lon="2.46034">
        <ele>1091.085</ele>
        <time>2021-05-24T11:04:52Z</time>
      </trkpt>
      <trkpt lat="43.41785" lon="2.46032">
        <ele>1090.468</ele>
        <time>2021-05-24T11:04:54Z</time>
      </trkpt>
      <trkpt lat="43.41783" lon="2.4603">
        <ele>1089.102</ele>
        <time>2021-05-24T11:04:56Z</time>
      </trkpt>
      <trkpt lat="43.41781" lon="2.46027">
        <ele>1087.739</ele>
        <time>2021-05-24T11:04:58Z</time>
      </trkpt>
      <trkpt lat="43.41779" lon="2.46025">
        <ele>1086.982</ele>
        <time>2021-05-24T11:05:00Z</time>
      </trkpt>
      <trkpt lat="43.41777" lon="2.46023">
        <ele>1087.405</ele>
        <time>2021-05-24T11:05:02Z</time>
      </trkpt>
      <trkpt lat="43.41775" lon="2.4602">
        <ele>1088.039</ele>
        <time>2021-05-24T11:05:04Z</time>
      </trkpt>
      <trkpt lat="43.41774" lon="2.46018">
        <ele>1087.17</ele>
        <time>2021-05-24T11:05:06Z</time>
      </trkpt>
      <trkpt lat="43.41772" lon="2.46016">
        <ele>1086.018</ele>
        <time>2021-05-24T11:05:08Z</time>
      </trkpt>
      <trkpt lat="43.4177" lon="2.46014">
        <ele>1084.313</ele>
        <time>2021-05-24T11:05:10Z</time>
      </trkpt>
      <trkpt lat="43.41768" lon="2.46013">
        <ele>1084.414</ele>
        <time>2021-05-24T11:05:12Z</time>
      </trkpt>
      <trkpt lat="43.41766" lon="2.46012">
        <ele>1082.346</ele>
        <time>2021-05-24T11:05:14Z</time>
      </trkpt>
      <trkpt lat="43.41765" lon="2.46009">
        <ele>1082.874</ele>
        <time>2021-05-24T11:05:16Z</time>
      </trkpt>
      <trkpt lat="43.41764" lon="2.46007">
        <ele>1083.153</ele>
        <time>2021-05-24T11:05:18Z</time>
      </trkpt>
      <trkpt lat="43.41762" lon="2.46005">
        <ele>1082.75</ele>
        <time>2021-05-24T11:05:20Z</time>
      </trkpt>
      <trkpt lat="43.4176" lon="2.46004">
        <ele>1081.982</ele>
        <time>2021-05-24T11:05:22Z</time>
      </trkpt>
      <trkpt lat="43.41758" lon="2.46002">
        <ele>1082.429</ele>
        <time>2021-05-24T11:05:24Z</time>
      </trkpt>
      <trkpt lat="43.41756" lon="2.46001">
        <ele>1081.962</ele>
        <time>2021-05-24T11:05:26Z</time>
      </trkpt>
      <trkpt lat="43.41754" lon="2.45998">
        <ele>1082.71</ele>
        <time>2021-05-24T11:05:28Z</time>
      </trkpt>
      <trkpt lat="43.41752" lon="2.45995">
        <ele>1082.361</ele>
        <time>2021-05-24T11:05:30Z</time>
      </trkpt>
      <trkpt lat="43.41751" lon="2.45994">
        <ele>1082.148</ele>
        <time>2021-05-24T11:05:31Z</time>
      </trkpt>
      <trkpt lat="43.41749" lon="2.45991">
        <ele>1081.833</ele>
        <time>2021-05-24T11:05:34Z</time>
      </trkpt>
      <trkpt lat="43.41747" lon="2.45989">
        <ele>1081.067</ele>
        <time>2021-05-24T11:05:36Z</time>
      </trkpt>
      <trkpt lat="43.41745" lon="2.45987">
        <ele>1079.771</ele>
        <time>2021-05-24T11:05:38Z</time>
      </trkpt>
      <trkpt lat="43.41743" lon="2.45985">
        <ele>1079.024</ele>
        <time>2021-05-24T11:05:40Z</time>
      </trkpt>
      <trkpt lat="43.41742" lon="2.45983">
        <ele>1078.529</ele>
        <time>2021-05-24T11:05:42Z</time>
      </trkpt>
      <trkpt lat="43.4174" lon="2.45981">
        <ele>1078.461</ele>
        <time>2021-05-24T11:05:44Z</time>
      </trkpt>
      <trkpt lat="43.41738" lon="2.45979">
        <ele>1077.717</ele>
        <time>2021-05-24T11:05:46Z</time>
      </trkpt>
      <trkpt lat="43.41736" lon="2.45977">
        <ele>1077.615</ele>
        <time>2021-05-24T11:05:48Z</time>
      </trkpt>
      <trkpt lat="43.41734" lon="2.45974">
        <ele>1077.892</ele>
        <time>2021-05-24T11:05:50Z</time>
      </trkpt>
      <trkpt lat="43.41732" lon="2.45972">
        <ele>1076.773</ele>
        <time>2021-05-24T11:05:52Z</time>
      </trkpt>
      <trkpt lat="43.4173" lon="2.45971">
        <ele>1076.474</ele>
        <time>2021-05-24T11:05:54Z</time>
      </trkpt>
      <trkpt lat="43.41728" lon="2.45969">
        <ele>1075.545</ele>
        <time>2021-05-24T11:05:56Z</time>
      </trkpt>
      <trkpt lat="43.41726" lon="2.45968">
        <ele>1075.711</ele>
        <time>2021-05-24T11:05:58Z</time>
      </trkpt>
      <trkpt lat="43.41724" lon="2.45966">
        <ele>1075.337</ele>
        <time>2021-05-24T11:06:00Z</time>
      </trkpt>
      <trkpt lat="43.41722" lon="2.45963">
        <ele>1074.11</ele>
        <time>2021-05-24T11:06:02Z</time>
      </trkpt>
      <trkpt lat="43.41721" lon="2.4596">
        <ele>1073.502</ele>
        <time>2021-05-24T11:06:04Z</time>
      </trkpt>
      <trkpt lat="43.41719" lon="2.45958">
        <ele>1073.179</ele>
        <time>2021-05-24T11:06:06Z</time>
      </trkpt>
      <trkpt lat="43.41717" lon="2.45956">
        <ele>1072.644</ele>
        <time>2021-05-24T11:06:08Z</time>
      </trkpt>
      <trkpt lat="43.41715" lon="2.45954">
        <ele>1071.643</ele>
        <time>2021-05-24T11:06:10Z</time>
      </trkpt>
      <trkpt lat="43.41713" lon="2.45952">
        <ele>1070.784</ele>
        <time>2021-05-24T11:06:12Z</time>
      </trkpt>
      <trkpt lat="43.4171" lon="2.4595">
        <ele>1070.191</ele>
        <time>2021-05-24T11:06:14Z</time>
      </trkpt>
      <trkpt lat="43.41709" lon="2.45948">
        <ele>1069.613</ele>
        <time>2021-05-24T11:06:16Z</time>
      </trkpt>
      <trkpt lat="43.41707" lon="2.45946">
        <ele>1068.981</ele>
        <time>2021-05-24T11:06:18Z</time>
      </trkpt>
      <trkpt lat="43.41705" lon="2.45944">
        <ele>1068.777</ele>
        <time>2021-05-24T11:06:20Z</time>
      </trkpt>
      <trkpt lat="43.41703" lon="2.45942">
        <ele>1066.956</ele>
        <time>2021-05-24T11:06:22Z</time>
      </trkpt>
      <trkpt lat="43.41701" lon="2.45941">
        <ele>1066.756</ele>
        <time>2021-05-24T11:06:24Z</time>
      </trkpt>
      <trkpt lat="43.41699" lon="2.45939">
        <ele>1066.82</ele>
        <time>2021-05-24T11:06:26Z</time>
      </trkpt>
      <trkpt lat="43.41697" lon="2.45937">
        <ele>1067.301</ele>
        <time>2021-05-24T11:06:28Z</time>
      </trkpt>
      <trkpt lat="43.41695" lon="2.45935">
        <ele>1066.419</ele>
        <time>2021-05-24T11:06:30Z</time>
      </trkpt>
      <trkpt lat="43.41693" lon="2.45933">
        <ele>1066.474</ele>
        <time>2021-05-24T11:06:32Z</time>
      </trkpt>
      <trkpt lat="43.41691" lon="2.45931">
        <ele>1066.888</ele>
        <time>2021-05-24T11:06:34Z</time>
      </trkpt>
      <trkpt lat="43.4169" lon="2.45929">
        <ele>1066.848</ele>
        <time>2021-05-24T11:06:36Z</time>
      </trkpt>
      <trkpt lat="43.41688" lon="2.45927">
        <ele>1066.499</ele>
        <time>2021-05-24T11:06:38Z</time>
      </trkpt>
      <trkpt lat="43.41686" lon="2.45925">
        <ele>1066.434</ele>
        <time>2021-05-24T11:06:40Z</time>
      </trkpt>
      <trkpt lat="43.41684" lon="2.45923">
        <ele>1066.188</ele>
        <time>2021-05-24T11:06:42Z</time>
      </trkpt>
      <trkpt lat="43.41682" lon="2.45921">
        <ele>1065.931</ele>
        <time>2021-05-24T11:06:44Z</time>
      </trkpt>
      <trkpt lat="43.4168" lon="2.45919">
        <ele>1065.018</ele>
        <time>2021-05-24T11:06:46Z</time>
      </trkpt>
      <trkpt lat="43.41678" lon="2.45917">
        <ele>1065.044</ele>
        <time>2021-05-24T11:06:48Z</time>
      </trkpt>
      <trkpt lat="43.41676" lon="2.45915">
        <ele>1064.016</ele>
        <time>2021-05-24T11:06:50Z</time>
      </trkpt>
      <trkpt lat="43.41674" lon="2.45913">
        <ele>1063.931</ele>
        <time>2021-05-24T11:06:52Z</time>
      </trkpt>
      <trkpt lat="43.41673" lon="2.45912">
        <ele>1063.024</ele>
        <time>2021-05-24T11:06:54Z</time>
      </trkpt>
      <trkpt lat="43.41671" lon="2.4591">
        <ele>1062.336</ele>
        <time>2021-05-24T11:06:56Z</time>
      </trkpt>
      <trkpt lat="43.41669" lon="2.45908">
        <ele>1061.77</ele>
        <time>2021-05-24T11:06:58Z</time>
      </trkpt>
      <trkpt lat="43.41668" lon="2.45905">
        <ele>1060.676</ele>
        <time>2021-05-24T11:07:00Z</time>
      </trkpt>
      <trkpt lat="43.41666" lon="2.45904">
        <ele>1059.806</ele>
        <time>2021-05-24T11:07:02Z</time>
      </trkpt>
      <trkpt lat="43.41664" lon="2.45902">
        <ele>1059.03</ele>
        <time>2021-05-24T11:07:04Z</time>
      </trkpt>
      <trkpt lat="43.41661" lon="2.459">
        <ele>1058.864</ele>
        <time>2021-05-24T11:07:06Z</time>
      </trkpt>
      <trkpt lat="43.41659" lon="2.45899">
        <ele>1059.672</ele>
        <time>2021-05-24T11:07:08Z</time>
      </trkpt>
      <trkpt lat="43.41658" lon="2.45896">
        <ele>1060.026</ele>
        <time>2021-05-24T11:07:10Z</time>
      </trkpt>
      <trkpt lat="43.41656" lon="2.45894">
        <ele>1059.223</ele>
        <time>2021-05-24T11:07:12Z</time>
      </trkpt>
      <trkpt lat="43.41654" lon="2.45892">
        <ele>1059.619</ele>
        <time>2021-05-24T11:07:14Z</time>
      </trkpt>
      <trkpt lat="43.41652" lon="2.4589">
        <ele>1058.529</ele>
        <time>2021-05-24T11:07:16Z</time>
      </trkpt>
      <trkpt lat="43.41649" lon="2.45888">
        <ele>1058.501</ele>
        <time>2021-05-24T11:07:18Z</time>
      </trkpt>
      <trkpt lat="43.41647" lon="2.45887">
        <ele>1058.16</ele>
        <time>2021-05-24T11:07:20Z</time>
      </trkpt>
      <trkpt lat="43.41645" lon="2.45885">
        <ele>1057.998</ele>
        <time>2021-05-24T11:07:22Z</time>
      </trkpt>
      <trkpt lat="43.41643" lon="2.45883">
        <ele>1058.062</ele>
        <time>2021-05-24T11:07:24Z</time>
      </trkpt>
      <trkpt lat="43.41641" lon="2.45881">
        <ele>1057.631</ele>
        <time>2021-05-24T11:07:26Z</time>
      </trkpt>
      <trkpt lat="43.41639" lon="2.45879">
        <ele>1058.152</ele>
        <time>2021-05-24T11:07:28Z</time>
      </trkpt>
      <trkpt lat="43.41637" lon="2.45877">
        <ele>1057.937</ele>
        <time>2021-05-24T11:07:30Z</time>
      </trkpt>
      <trkpt lat="43.41635" lon="2.45876">
        <ele>1058.072</ele>
        <time>2021-05-24T11:07:32Z</time>
      </trkpt>
      <trkpt lat="43.41633" lon="2.45874">
        <ele>1057.009</ele>
        <time>2021-05-24T11:07:34Z</time>
      </trkpt>
      <trkpt lat="43.41631" lon="2.45871">
        <ele>1057.319</ele>
        <time>2021-05-24T11:07:36Z</time>
      </trkpt>
      <trkpt lat="43.41629" lon="2.45869">
        <ele>1056.6</ele>
        <time>2021-05-24T11:07:38Z</time>
      </trkpt>
      <trkpt lat="43.41627" lon="2.45867">
        <ele>1055.216</ele>
        <time>2021-05-24T11:07:40Z</time>
      </trkpt>
      <trkpt lat="43.41625" lon="2.45865">
        <ele>1054.509</ele>
        <time>2021-05-24T11:07:42Z</time>
      </trkpt>
      <trkpt lat="43.41623" lon="2.45862">
        <ele>1053.777</ele>
        <time>2021-05-24T11:07:44Z</time>
      </trkpt>
      <trkpt lat="43.41621" lon="2.4586">
        <ele>1053.159</ele>
        <time>2021-05-24T11:07:46Z</time>
      </trkpt>
      <trkpt lat="43.41619" lon="2.45858">
        <ele>1053.667</ele>
        <time>2021-05-24T11:07:48Z</time>
      </trkpt>
      <trkpt lat="43.41617" lon="2.45857">
        <ele>1052.8</ele>
        <time>2021-05-24T11:07:50Z</time>
      </trkpt>
      <trkpt lat="43.41614" lon="2.45855">
        <ele>1051.972</ele>
        <time>2021-05-24T11:07:52Z</time>
      </trkpt>
      <trkpt lat="43.41612" lon="2.45853">
        <ele>1052.754</ele>
        <time>2021-05-24T11:07:54Z</time>
      </trkpt>
      <trkpt lat="43.4161" lon="2.45851">
        <ele>1052.342</ele>
        <time>2021-05-24T11:07:56Z</time>
      </trkpt>
      <trkpt lat="43.41608" lon="2.45849">
        <ele>1051.885</ele>
        <time>2021-05-24T11:07:58Z</time>
      </trkpt>
      <trkpt lat="43.41606" lon="2.45846">
        <ele>1052.707</ele>
        <time>2021-05-24T11:08:00Z</time>
      </trkpt>
      <trkpt lat="43.41604" lon="2.45844">
        <ele>1053.099</ele>
        <time>2021-05-24T11:08:02Z</time>
      </trkpt>
      <trkpt lat="43.41601" lon="2.45841">
        <ele>1053.556</ele>
        <time>2021-05-24T11:08:04Z</time>
      </trkpt>
      <trkpt lat="43.41598" lon="2.45837">
        <ele>1055.5</ele>
        <time>2021-05-24T11:08:06Z</time>
      </trkpt>
      <trkpt lat="43.41596" lon="2.45835">
        <ele>1056.446</ele>
        <time>2021-05-24T11:08:08Z</time>
      </trkpt>
      <trkpt lat="43.41594" lon="2.45832">
        <ele>1056.101</ele>
        <time>2021-05-24T11:08:10Z</time>
      </trkpt>
      <trkpt lat="43.41591" lon="2.4583">
        <ele>1055.29</ele>
        <time>2021-05-24T11:08:12Z</time>
      </trkpt>
      <trkpt lat="43.41589" lon="2.45828">
        <ele>1054.87</ele>
        <time>2021-05-24T11:08:14Z</time>
      </trkpt>
      <trkpt lat="43.41586" lon="2.45824">
        <ele>1054.954</ele>
        <time>2021-05-24T11:08:17Z</time>
      </trkpt>
      <trkpt lat="43.41583" lon="2.45822">
        <ele>1054.861</ele>
        <time>2021-05-24T11:08:19Z</time>
      </trkpt>
      <trkpt lat="43.41581" lon="2.45821">
        <ele>1054.388</ele>
        <time>2021-05-24T11:08:21Z</time>
      </trkpt>
      <trkpt lat="43.41579" lon="2.45818">
        <ele>1054.46</ele>
        <time>2021-05-24T11:08:23Z</time>
      </trkpt>
      <trkpt lat="43.41577" lon="2.45816">
        <ele>1054.548</ele>
        <time>2021-05-24T11:08:25Z</time>
      </trkpt>
      <trkpt lat="43.41575" lon="2.45814">
        <ele>1053.251</ele>
        <time>2021-05-24T11:08:27Z</time>
      </trkpt>
      <trkpt lat="43.41572" lon="2.45812">
        <ele>1052.283</ele>
        <time>2021-05-24T11:08:29Z</time>
      </trkpt>
      <trkpt lat="43.4157" lon="2.45809">
        <ele>1052.382</ele>
        <time>2021-05-24T11:08:31Z</time>
      </trkpt>
      <trkpt lat="43.41568" lon="2.45807">
        <ele>1052.431</ele>
        <time>2021-05-24T11:08:33Z</time>
      </trkpt>
      <trkpt lat="43.41566" lon="2.45804">
        <ele>1051.665</ele>
        <time>2021-05-24T11:08:35Z</time>
      </trkpt>
      <trkpt lat="43.41564" lon="2.45802">
        <ele>1050.636</ele>
        <time>2021-05-24T11:08:37Z</time>
      </trkpt>
      <trkpt lat="43.41562" lon="2.458">
        <ele>1050.434</ele>
        <time>2021-05-24T11:08:39Z</time>
      </trkpt>
      <trkpt lat="43.4156" lon="2.45798">
        <ele>1049.937</ele>
        <time>2021-05-24T11:08:41Z</time>
      </trkpt>
      <trkpt lat="43.41558" lon="2.45796">
        <ele>1050.097</ele>
        <time>2021-05-24T11:08:43Z</time>
      </trkpt>
      <trkpt lat="43.41556" lon="2.45793">
        <ele>1050.575</ele>
        <time>2021-05-24T11:08:45Z</time>
      </trkpt>
      <trkpt lat="43.41555" lon="2.45791">
        <ele>1051.587</ele>
        <time>2021-05-24T11:08:47Z</time>
      </trkpt>
      <trkpt lat="43.41553" lon="2.45788">
        <ele>1051.93</ele>
        <time>2021-05-24T11:08:49Z</time>
      </trkpt>
      <trkpt lat="43.41551" lon="2.45786">
        <ele>1052.63</ele>
        <time>2021-05-24T11:08:51Z</time>
      </trkpt>
      <trkpt lat="43.41549" lon="2.45784">
        <ele>1052.151</ele>
        <time>2021-05-24T11:08:53Z</time>
      </trkpt>
      <trkpt lat="43.41546" lon="2.45782">
        <ele>1053.232</ele>
        <time>2021-05-24T11:08:55Z</time>
      </trkpt>
      <trkpt lat="43.41544" lon="2.45781">
        <ele>1054.328</ele>
        <time>2021-05-24T11:08:57Z</time>
      </trkpt>
      <trkpt lat="43.41542" lon="2.4578">
        <ele>1054.661</ele>
        <time>2021-05-24T11:08:59Z</time>
      </trkpt>
      <trkpt lat="43.41539" lon="2.4578">
        <ele>1054.125</ele>
        <time>2021-05-24T11:09:01Z</time>
      </trkpt>
      <trkpt lat="43.41537" lon="2.45781">
        <ele>1054.824</ele>
        <time>2021-05-24T11:09:03Z</time>
      </trkpt>
      <trkpt lat="43.41535" lon="2.45781">
        <ele>1055.385</ele>
        <time>2021-05-24T11:09:05Z</time>
      </trkpt>
      <trkpt lat="43.41532" lon="2.45782">
        <ele>1055.633</ele>
        <time>2021-05-24T11:09:07Z</time>
      </trkpt>
      <trkpt lat="43.4153" lon="2.45783">
        <ele>1056.455</ele>
        <time>2021-05-24T11:09:09Z</time>
      </trkpt>
      <trkpt lat="43.41528" lon="2.45783">
        <ele>1057.286</ele>
        <time>2021-05-24T11:09:11Z</time>
      </trkpt>
      <trkpt lat="43.41528" lon="2.45783">
        <ele>1057.215</ele>
        <time>2021-05-24T11:09:13Z</time>
      </trkpt>
      <trkpt lat="43.41528" lon="2.45783">
        <ele>1057.22</ele>
        <time>2021-05-24T11:09:15Z</time>
      </trkpt>
      <trkpt lat="43.41528" lon="2.45783">
        <ele>1057.226</ele>
        <time>2021-05-24T11:09:17Z</time>
      </trkpt>
      <trkpt lat="43.41528" lon="2.45783">
        <ele>1057.223</ele>
        <time>2021-05-24T11:09:19Z</time>
      </trkpt>
      <trkpt lat="43.41528" lon="2.45783">
        <ele>1057.222</ele>
        <time>2021-05-24T11:09:21Z</time>
      </trkpt>
      <trkpt lat="43.41528" lon="2.45783">
        <ele>1057.218</ele>
        <time>2021-05-24T11:09:23Z</time>
      </trkpt>
      <trkpt lat="43.41528" lon="2.45783">
        <ele>1057.219</ele>
        <time>2021-05-24T11:09:25Z</time>
      </trkpt>
      <trkpt lat="43.41528" lon="2.45784">
        <ele>1057.494</ele>
        <time>2021-05-24T11:09:27Z</time>
      </trkpt>
      <trkpt lat="43.41526" lon="2.45784">
        <ele>1057.767</ele>
        <time>2021-05-24T11:09:29Z</time>
      </trkpt>
      <trkpt lat="43.41524" lon="2.45785">
        <ele>1058.37</ele>
        <time>2021-05-24T11:09:31Z</time>
      </trkpt>
      <trkpt lat="43.41524" lon="2.45785">
        <ele>1058.226</ele>
        <time>2021-05-24T11:09:33Z</time>
      </trkpt>
      <trkpt lat="43.41524" lon="2.45785">
        <ele>1058.216</ele>
        <time>2021-05-24T11:09:35Z</time>
      </trkpt>
      <trkpt lat="43.41523" lon="2.45785">
        <ele>1058.339</ele>
        <time>2021-05-24T11:09:37Z</time>
      </trkpt>
      <trkpt lat="43.41522" lon="2.45785">
        <ele>1058.522</ele>
        <time>2021-05-24T11:09:39Z</time>
      </trkpt>
      <trkpt lat="43.41519" lon="2.45785">
        <ele>1057.956</ele>
        <time>2021-05-24T11:09:41Z</time>
      </trkpt>
      <trkpt lat="43.41518" lon="2.45784">
        <ele>1057.418</ele>
        <time>2021-05-24T11:09:43Z</time>
      </trkpt>
      <trkpt lat="43.41517" lon="2.45785">
        <ele>1055.38</ele>
        <time>2021-05-24T11:09:45Z</time>
      </trkpt>
      <trkpt lat="43.41514" lon="2.45787">
        <ele>1051.799</ele>
        <time>2021-05-24T11:09:47Z</time>
      </trkpt>
      <trkpt lat="43.41513" lon="2.45782">
        <ele>1052.084</ele>
        <time>2021-05-24T11:09:49Z</time>
      </trkpt>
      <trkpt lat="43.41514" lon="2.45782">
        <ele>1052.142</ele>
        <time>2021-05-24T11:09:51Z</time>
      </trkpt>
      <trkpt lat="43.41514" lon="2.4578">
        <ele>1053.438</ele>
        <time>2021-05-24T11:09:53Z</time>
      </trkpt>
      <trkpt lat="43.41514" lon="2.45777">
        <ele>1054.057</ele>
        <time>2021-05-24T11:09:55Z</time>
      </trkpt>
      <trkpt lat="43.41515" lon="2.45774">
        <ele>1054.771</ele>
        <time>2021-05-24T11:09:57Z</time>
      </trkpt>
      <trkpt lat="43.41515" lon="2.45771">
        <ele>1055.667</ele>
        <time>2021-05-24T11:09:59Z</time>
      </trkpt>
      <trkpt lat="43.41515" lon="2.4577">
        <ele>1055.772</ele>
        <time>2021-05-24T11:10:01Z</time>
      </trkpt>
      <trkpt lat="43.41515" lon="2.45768">
        <ele>1055.153</ele>
        <time>2021-05-24T11:10:03Z</time>
      </trkpt>
      <trkpt lat="43.41515" lon="2.45767">
        <ele>1055.829</ele>
        <time>2021-05-24T11:10:05Z</time>
      </trkpt>
      <trkpt lat="43.41514" lon="2.45765">
        <ele>1056.836</ele>
        <time>2021-05-24T11:10:07Z</time>
      </trkpt>
      <trkpt lat="43.41514" lon="2.45765">
        <ele>1056.801</ele>
        <time>2021-05-24T11:10:09Z</time>
      </trkpt>
      <trkpt lat="43.41514" lon="2.45763">
        <ele>1057.542</ele>
        <time>2021-05-24T11:10:11Z</time>
      </trkpt>
      <trkpt lat="43.41514" lon="2.45762">
        <ele>1057.686</ele>
        <time>2021-05-24T11:10:13Z</time>
      </trkpt>
      <trkpt lat="43.41514" lon="2.45761">
        <ele>1058.013</ele>
        <time>2021-05-24T11:10:15Z</time>
      </trkpt>
      <trkpt lat="43.41514" lon="2.45759">
        <ele>1058.563</ele>
        <time>2021-05-24T11:10:17Z</time>
      </trkpt>
      <trkpt lat="43.41514" lon="2.45756">
        <ele>1058.464</ele>
        <time>2021-05-24T11:10:19Z</time>
      </trkpt>
      <trkpt lat="43.41513" lon="2.45753">
        <ele>1058.76</ele>
        <time>2021-05-24T11:10:21Z</time>
      </trkpt>
      <trkpt lat="43.41513" lon="2.4575">
        <ele>1059.399</ele>
        <time>2021-05-24T11:10:23Z</time>
      </trkpt>
      <trkpt lat="43.41512" lon="2.45747">
        <ele>1058.97</ele>
        <time>2021-05-24T11:10:25Z</time>
      </trkpt>
      <trkpt lat="43.41511" lon="2.45744">
        <ele>1059.811</ele>
        <time>2021-05-24T11:10:27Z</time>
      </trkpt>
      <trkpt lat="43.41509" lon="2.45742">
        <ele>1059.707</ele>
        <time>2021-05-24T11:10:29Z</time>
      </trkpt>
      <trkpt lat="43.41507" lon="2.45739">
        <ele>1060.415</ele>
        <time>2021-05-24T11:10:31Z</time>
      </trkpt>
      <trkpt lat="43.41505" lon="2.45737">
        <ele>1060.485</ele>
        <time>2021-05-24T11:10:33Z</time>
      </trkpt>
      <trkpt lat="43.41505" lon="2.45735">
        <ele>1059.807</ele>
        <time>2021-05-24T11:10:35Z</time>
      </trkpt>
      <trkpt lat="43.41505" lon="2.45732">
        <ele>1059.906</ele>
        <time>2021-05-24T11:10:37Z</time>
      </trkpt>
      <trkpt lat="43.41505" lon="2.4573">
        <ele>1060.218</ele>
        <time>2021-05-24T11:10:39Z</time>
      </trkpt>
      <trkpt lat="43.41503" lon="2.45729">
        <ele>1060.651</ele>
        <time>2021-05-24T11:10:41Z</time>
      </trkpt>
      <trkpt lat="43.41501" lon="2.45728">
        <ele>1061.26</ele>
        <time>2021-05-24T11:10:43Z</time>
      </trkpt>
      <trkpt lat="43.41501" lon="2.45729">
        <ele>1060.648</ele>
        <time>2021-05-24T11:10:45Z</time>
      </trkpt>
      <trkpt lat="43.41499" lon="2.45727">
        <ele>1060.022</ele>
        <time>2021-05-24T11:10:48Z</time>
      </trkpt>
      <trkpt lat="43.41497" lon="2.45727">
        <ele>1060.288</ele>
        <time>2021-05-24T11:10:50Z</time>
      </trkpt>
      <trkpt lat="43.41496" lon="2.45725">
        <ele>1060.108</ele>
        <time>2021-05-24T11:10:52Z</time>
      </trkpt>
      <trkpt lat="43.41495" lon="2.45724">
        <ele>1059.629</ele>
        <time>2021-05-24T11:10:54Z</time>
      </trkpt>
      <trkpt lat="43.41494" lon="2.45722">
        <ele>1059.54</ele>
        <time>2021-05-24T11:10:56Z</time>
      </trkpt>
      <trkpt lat="43.41494" lon="2.4572">
        <ele>1059.327</ele>
        <time>2021-05-24T11:10:58Z</time>
      </trkpt>
      <trkpt lat="43.41494" lon="2.45718">
        <ele>1059.523</ele>
        <time>2021-05-24T11:11:00Z</time>
      </trkpt>
      <trkpt lat="43.41494" lon="2.45716">
        <ele>1059.42</ele>
        <time>2021-05-24T11:11:02Z</time>
      </trkpt>
      <trkpt lat="43.41494" lon="2.45714">
        <ele>1059.606</ele>
        <time>2021-05-24T11:11:04Z</time>
      </trkpt>
      <trkpt lat="43.41493" lon="2.45713">
        <ele>1059.35</ele>
        <time>2021-05-24T11:11:06Z</time>
      </trkpt>
      <trkpt lat="43.41492" lon="2.45712">
        <ele>1059.038</ele>
        <time>2021-05-24T11:11:08Z</time>
      </trkpt>
      <trkpt lat="43.41491" lon="2.45711">
        <ele>1058.608</ele>
        <time>2021-05-24T11:11:10Z</time>
      </trkpt>
      <trkpt lat="43.41491" lon="2.4571">
        <ele>1058.635</ele>
        <time>2021-05-24T11:11:12Z</time>
      </trkpt>
      <trkpt lat="43.41491" lon="2.4571">
        <ele>1058.628</ele>
        <time>2021-05-24T11:11:14Z</time>
      </trkpt>
      <trkpt lat="43.41491" lon="2.4571">
        <ele>1058.627</ele>
        <time>2021-05-24T11:11:16Z</time>
      </trkpt>
      <trkpt lat="43.41491" lon="2.4571">
        <ele>1058.625</ele>
        <time>2021-05-24T11:11:18Z</time>
      </trkpt>
      <trkpt lat="43.41491" lon="2.4571">
        <ele>1058.64</ele>
        <time>2021-05-24T11:11:20Z</time>
      </trkpt>
      <trkpt lat="43.41491" lon="2.4571">
        <ele>1058.324</ele>
        <time>2021-05-24T11:11:22Z</time>
      </trkpt>
      <trkpt lat="43.41491" lon="2.4571">
        <ele>1058.328</ele>
        <time>2021-05-24T11:11:24Z</time>
      </trkpt>
      <trkpt lat="43.41491" lon="2.4571">
        <ele>1058.331</ele>
        <time>2021-05-24T11:11:26Z</time>
      </trkpt>
      <trkpt lat="43.41491" lon="2.4571">
        <ele>1058.334</ele>
        <time>2021-05-24T11:11:28Z</time>
      </trkpt>
      <trkpt lat="43.41491" lon="2.45709">
        <ele>1058.368</ele>
        <time>2021-05-24T11:11:30Z</time>
      </trkpt>
      <trkpt lat="43.41491" lon="2.4571">
        <ele>1058.251</ele>
        <time>2021-05-24T11:11:32Z</time>
      </trkpt>
      <trkpt lat="43.41491" lon="2.4571">
        <ele>1058.243</ele>
        <time>2021-05-24T11:11:34Z</time>
      </trkpt>
      <trkpt lat="43.41491" lon="2.4571">
        <ele>1058.242</ele>
        <time>2021-05-24T11:11:36Z</time>
      </trkpt>
      <trkpt lat="43.41491" lon="2.4571">
        <ele>1058.243</ele>
        <time>2021-05-24T11:11:38Z</time>
      </trkpt>
      <trkpt lat="43.41491" lon="2.4571">
        <ele>1058.237</ele>
        <time>2021-05-24T11:11:40Z</time>
      </trkpt>
      <trkpt lat="43.41491" lon="2.4571">
        <ele>1058.159</ele>
        <time>2021-05-24T11:11:42Z</time>
      </trkpt>
      <trkpt lat="43.41491" lon="2.4571">
        <ele>1058.149</ele>
        <time>2021-05-24T11:11:44Z</time>
      </trkpt>
      <trkpt lat="43.41491" lon="2.4571">
        <ele>1058.148</ele>
        <time>2021-05-24T11:11:46Z</time>
      </trkpt>
      <trkpt lat="43.41491" lon="2.4571">
        <ele>1058.142</ele>
        <time>2021-05-24T11:11:48Z</time>
      </trkpt>
      <trkpt lat="43.41491" lon="2.4571">
        <ele>1058.141</ele>
        <time>2021-05-24T11:11:50Z</time>
      </trkpt>
      <trkpt lat="43.41491" lon="2.4571">
        <ele>1058.14</ele>
        <time>2021-05-24T11:11:52Z</time>
      </trkpt>
      <trkpt lat="43.41491" lon="2.4571">
        <ele>1058.138</ele>
        <time>2021-05-24T11:11:54Z</time>
      </trkpt>
      <trkpt lat="43.41491" lon="2.4571">
        <ele>1058.137</ele>
        <time>2021-05-24T11:11:56Z</time>
      </trkpt>
      <trkpt lat="43.41491" lon="2.4571">
        <ele>1058.136</ele>
        <time>2021-05-24T11:11:58Z</time>
      </trkpt>
      <trkpt lat="43.41491" lon="2.4571">
        <ele>1058.132</ele>
        <time>2021-05-24T11:12:00Z</time>
      </trkpt>
      <trkpt lat="43.41491" lon="2.4571">
        <ele>1058.13</ele>
        <time>2021-05-24T11:12:02Z</time>
      </trkpt>
      <trkpt lat="43.41491" lon="2.4571">
        <ele>1058.128</ele>
        <time>2021-05-24T11:12:04Z</time>
      </trkpt>
      <trkpt lat="43.41491" lon="2.4571">
        <ele>1058.122</ele>
        <time>2021-05-24T11:12:06Z</time>
      </trkpt>
      <trkpt lat="43.41491" lon="2.4571">
        <ele>1058.125</ele>
        <time>2021-05-24T11:12:08Z</time>
      </trkpt>
      <trkpt lat="43.41491" lon="2.4571">
        <ele>1058.126</ele>
        <time>2021-05-24T11:12:10Z</time>
      </trkpt>
      <trkpt lat="43.41491" lon="2.4571">
        <ele>1058.215</ele>
        <time>2021-05-24T11:12:12Z</time>
      </trkpt>
      <trkpt lat="43.41491" lon="2.4571">
        <ele>1058.217</ele>
        <time>2021-05-24T11:12:14Z</time>
      </trkpt>
      <trkpt lat="43.41491" lon="2.4571">
        <ele>1058.217</ele>
        <time>2021-05-24T11:12:16Z</time>
      </trkpt>
      <trkpt lat="43.41491" lon="2.4571">
        <ele>1058.216</ele>
        <time>2021-05-24T11:12:18Z</time>
      </trkpt>
      <trkpt lat="43.41491" lon="2.4571">
        <ele>1058.216</ele>
        <time>2021-05-24T11:12:20Z</time>
      </trkpt>
      <trkpt lat="43.41491" lon="2.4571">
        <ele>1058.218</ele>
        <time>2021-05-24T11:12:22Z</time>
      </trkpt>
      <trkpt lat="43.41491" lon="2.4571">
        <ele>1058.226</ele>
        <time>2021-05-24T11:12:24Z</time>
      </trkpt>
      <trkpt lat="43.41491" lon="2.4571">
        <ele>1058.229</ele>
        <time>2021-05-24T11:12:26Z</time>
      </trkpt>
      <trkpt lat="43.41491" lon="2.4571">
        <ele>1058.229</ele>
        <time>2021-05-24T11:12:28Z</time>
      </trkpt>
      <trkpt lat="43.41491" lon="2.4571">
        <ele>1058.232</ele>
        <time>2021-05-24T11:12:30Z</time>
      </trkpt>
      <trkpt lat="43.41491" lon="2.4571">
        <ele>1058.236</ele>
        <time>2021-05-24T11:12:32Z</time>
      </trkpt>
      <trkpt lat="43.41491" lon="2.4571">
        <ele>1058.233</ele>
        <time>2021-05-24T11:12:34Z</time>
      </trkpt>
      <trkpt lat="43.41491" lon="2.4571">
        <ele>1058.233</ele>
        <time>2021-05-24T11:12:36Z</time>
      </trkpt>
      <trkpt lat="43.41491" lon="2.4571">
        <ele>1058.226</ele>
        <time>2021-05-24T11:12:38Z</time>
      </trkpt>
      <trkpt lat="43.41491" lon="2.4571">
        <ele>1058.232</ele>
        <time>2021-05-24T11:12:40Z</time>
      </trkpt>
      <trkpt lat="43.41491" lon="2.4571">
        <ele>1058.227</ele>
        <time>2021-05-24T11:12:42Z</time>
      </trkpt>
      <trkpt lat="43.41491" lon="2.4571">
        <ele>1058.23</ele>
        <time>2021-05-24T11:12:44Z</time>
      </trkpt>
      <trkpt lat="43.41491" lon="2.4571">
        <ele>1058.229</ele>
        <time>2021-05-24T11:12:46Z</time>
      </trkpt>
      <trkpt lat="43.41491" lon="2.4571">
        <ele>1058.227</ele>
        <time>2021-05-24T11:12:48Z</time>
      </trkpt>
      <trkpt lat="43.41491" lon="2.4571">
        <ele>1058.231</ele>
        <time>2021-05-24T11:12:50Z</time>
      </trkpt>
      <trkpt lat="43.41491" lon="2.45709">
        <ele>1058.295</ele>
        <time>2021-05-24T11:12:52Z</time>
      </trkpt>
      <trkpt lat="43.41491" lon="2.45709">
        <ele>1058.541</ele>
        <time>2021-05-24T11:12:54Z</time>
      </trkpt>
      <trkpt lat="43.41491" lon="2.4571">
        <ele>1057.904</ele>
        <time>2021-05-24T11:12:56Z</time>
      </trkpt>
      <trkpt lat="43.4149" lon="2.45709">
        <ele>1057.627</ele>
        <time>2021-05-24T11:12:58Z</time>
      </trkpt>
      <trkpt lat="43.41489" lon="2.45708">
        <ele>1057.514</ele>
        <time>2021-05-24T11:13:00Z</time>
      </trkpt>
      <trkpt lat="43.41487" lon="2.45708">
        <ele>1057.111</ele>
        <time>2021-05-24T11:13:02Z</time>
      </trkpt>
      <trkpt lat="43.41486" lon="2.45708">
        <ele>1056.389</ele>
        <time>2021-05-24T11:13:04Z</time>
      </trkpt>
      <trkpt lat="43.41485" lon="2.45707">
        <ele>1056.006</ele>
        <time>2021-05-24T11:13:06Z</time>
      </trkpt>
      <trkpt lat="43.41483" lon="2.45706">
        <ele>1055.743</ele>
        <time>2021-05-24T11:13:08Z</time>
      </trkpt>
      <trkpt lat="43.41483" lon="2.45706">
        <ele>1055.609</ele>
        <time>2021-05-24T11:13:10Z</time>
      </trkpt>
      <trkpt lat="43.41483" lon="2.45706">
        <ele>1055.381</ele>
        <time>2021-05-24T11:13:12Z</time>
      </trkpt>
      <trkpt lat="43.41481" lon="2.45705">
        <ele>1055.214</ele>
        <time>2021-05-24T11:13:14Z</time>
      </trkpt>
      <trkpt lat="43.4148" lon="2.45704">
        <ele>1055.822</ele>
        <time>2021-05-24T11:13:16Z</time>
      </trkpt>
      <trkpt lat="43.41478" lon="2.45705">
        <ele>1054.68</ele>
        <time>2021-05-24T11:13:18Z</time>
      </trkpt>
      <trkpt lat="43.41476" lon="2.45706">
        <ele>1054.445</ele>
        <time>2021-05-24T11:13:20Z</time>
      </trkpt>
      <trkpt lat="43.41473" lon="2.45706">
        <ele>1053.897</ele>
        <time>2021-05-24T11:13:22Z</time>
      </trkpt>
      <trkpt lat="43.41471" lon="2.45706">
        <ele>1053.754</ele>
        <time>2021-05-24T11:13:24Z</time>
      </trkpt>
      <trkpt lat="43.4147" lon="2.45706">
        <ele>1053.248</ele>
        <time>2021-05-24T11:13:26Z</time>
      </trkpt>
      <trkpt lat="43.41467" lon="2.45708">
        <ele>1052.895</ele>
        <time>2021-05-24T11:13:28Z</time>
      </trkpt>
      <trkpt lat="43.41466" lon="2.45711">
        <ele>1052.62</ele>
        <time>2021-05-24T11:13:30Z</time>
      </trkpt>
      <trkpt lat="43.41465" lon="2.45714">
        <ele>1052.189</ele>
        <time>2021-05-24T11:13:32Z</time>
      </trkpt>
      <trkpt lat="43.41464" lon="2.45717">
        <ele>1052.192</ele>
        <time>2021-05-24T11:13:34Z</time>
      </trkpt>
      <trkpt lat="43.41464" lon="2.4572">
        <ele>1052.037</ele>
        <time>2021-05-24T11:13:36Z</time>
      </trkpt>
      <trkpt lat="43.41463" lon="2.45722">
        <ele>1051.712</ele>
        <time>2021-05-24T11:13:38Z</time>
      </trkpt>
      <trkpt lat="43.41463" lon="2.45725">
        <ele>1051.533</ele>
        <time>2021-05-24T11:13:40Z</time>
      </trkpt>
      <trkpt lat="43.41463" lon="2.45728">
        <ele>1051.349</ele>
        <time>2021-05-24T11:13:42Z</time>
      </trkpt>
      <trkpt lat="43.41463" lon="2.45731">
        <ele>1051.467</ele>
        <time>2021-05-24T11:13:44Z</time>
      </trkpt>
      <trkpt lat="43.41462" lon="2.45734">
        <ele>1051.455</ele>
        <time>2021-05-24T11:13:46Z</time>
      </trkpt>
      <trkpt lat="43.41462" lon="2.45736">
        <ele>1051.577</ele>
        <time>2021-05-24T11:13:48Z</time>
      </trkpt>
      <trkpt lat="43.41463" lon="2.45739">
        <ele>1051.787</ele>
        <time>2021-05-24T11:13:50Z</time>
      </trkpt>
      <trkpt lat="43.41463" lon="2.45741">
        <ele>1052.862</ele>
        <time>2021-05-24T11:13:52Z</time>
      </trkpt>
      <trkpt lat="43.41464" lon="2.45743">
        <ele>1053.592</ele>
        <time>2021-05-24T11:13:54Z</time>
      </trkpt>
      <trkpt lat="43.41464" lon="2.45743">
        <ele>1053.677</ele>
        <time>2021-05-24T11:13:56Z</time>
      </trkpt>
      <trkpt lat="43.41464" lon="2.45743">
        <ele>1053.675</ele>
        <time>2021-05-24T11:13:58Z</time>
      </trkpt>
      <trkpt lat="43.41464" lon="2.45743">
        <ele>1053.675</ele>
        <time>2021-05-24T11:14:00Z</time>
      </trkpt>
      <trkpt lat="43.41464" lon="2.45743">
        <ele>1053.677</ele>
        <time>2021-05-24T11:14:02Z</time>
      </trkpt>
      <trkpt lat="43.41464" lon="2.45744">
        <ele>1053.444</ele>
        <time>2021-05-24T11:14:04Z</time>
      </trkpt>
      <trkpt lat="43.41463" lon="2.45747">
        <ele>1053.944</ele>
        <time>2021-05-24T11:14:06Z</time>
      </trkpt>
      <trkpt lat="43.41463" lon="2.45749">
        <ele>1054.979</ele>
        <time>2021-05-24T11:14:08Z</time>
      </trkpt>
      <trkpt lat="43.41463" lon="2.45752">
        <ele>1057.022</ele>
        <time>2021-05-24T11:14:10Z</time>
      </trkpt>
      <trkpt lat="43.41463" lon="2.45755">
        <ele>1057.286</ele>
        <time>2021-05-24T11:14:12Z</time>
      </trkpt>
      <trkpt lat="43.41464" lon="2.45758">
        <ele>1058.017</ele>
        <time>2021-05-24T11:14:14Z</time>
      </trkpt>
      <trkpt lat="43.41463" lon="2.45762">
        <ele>1059.018</ele>
        <time>2021-05-24T11:14:16Z</time>
      </trkpt>
      <trkpt lat="43.41463" lon="2.45765">
        <ele>1059.633</ele>
        <time>2021-05-24T11:14:18Z</time>
      </trkpt>
      <trkpt lat="43.41461" lon="2.45765">
        <ele>1059.137</ele>
        <time>2021-05-24T11:14:20Z</time>
      </trkpt>
      <trkpt lat="43.41461" lon="2.45767">
        <ele>1059.986</ele>
        <time>2021-05-24T11:14:22Z</time>
      </trkpt>
      <trkpt lat="43.41461" lon="2.45769">
        <ele>1060.025</ele>
        <time>2021-05-24T11:14:24Z</time>
      </trkpt>
      <trkpt lat="43.41462" lon="2.45771">
        <ele>1060.523</ele>
        <time>2021-05-24T11:14:26Z</time>
      </trkpt>
      <trkpt lat="43.41463" lon="2.45772">
        <ele>1058.843</ele>
        <time>2021-05-24T11:14:28Z</time>
      </trkpt>
      <trkpt lat="43.41463" lon="2.45772">
        <ele>1058.764</ele>
        <time>2021-05-24T11:14:30Z</time>
      </trkpt>
      <trkpt lat="43.41463" lon="2.45772">
        <ele>1058.747</ele>
        <time>2021-05-24T11:14:32Z</time>
      </trkpt>
      <trkpt lat="43.41463" lon="2.45771">
        <ele>1056.688</ele>
        <time>2021-05-24T11:14:34Z</time>
      </trkpt>
      <trkpt lat="43.41463" lon="2.4577">
        <ele>1056.659</ele>
        <time>2021-05-24T11:14:36Z</time>
      </trkpt>
      <trkpt lat="43.41463" lon="2.4577">
        <ele>1056.638</ele>
        <time>2021-05-24T11:14:38Z</time>
      </trkpt>
      <trkpt lat="43.41463" lon="2.4577">
        <ele>1056.618</ele>
        <time>2021-05-24T11:14:40Z</time>
      </trkpt>
      <trkpt lat="43.41463" lon="2.4577">
        <ele>1056.596</ele>
        <time>2021-05-24T11:14:42Z</time>
      </trkpt>
      <trkpt lat="43.41463" lon="2.4577">
        <ele>1055.102</ele>
        <time>2021-05-24T11:14:44Z</time>
      </trkpt>
      <trkpt lat="43.41461" lon="2.4577">
        <ele>1054.978</ele>
        <time>2021-05-24T11:14:46Z</time>
      </trkpt>
      <trkpt lat="43.4146" lon="2.4577">
        <ele>1053.721</ele>
        <time>2021-05-24T11:14:48Z</time>
      </trkpt>
      <trkpt lat="43.41458" lon="2.45768">
        <ele>1053.757</ele>
        <time>2021-05-24T11:14:50Z</time>
      </trkpt>
      <trkpt lat="43.41455" lon="2.45767">
        <ele>1052.598</ele>
        <time>2021-05-24T11:14:52Z</time>
      </trkpt>
      <trkpt lat="43.41453" lon="2.45766">
        <ele>1052.112</ele>
        <time>2021-05-24T11:14:54Z</time>
      </trkpt>
      <trkpt lat="43.41453" lon="2.45764">
        <ele>1051.683</ele>
        <time>2021-05-24T11:14:56Z</time>
      </trkpt>
      <trkpt lat="43.41452" lon="2.45762">
        <ele>1050.502</ele>
        <time>2021-05-24T11:14:58Z</time>
      </trkpt>
      <trkpt lat="43.41452" lon="2.4576">
        <ele>1049.555</ele>
        <time>2021-05-24T11:15:00Z</time>
      </trkpt>
      <trkpt lat="43.41451" lon="2.45759">
        <ele>1049.748</ele>
        <time>2021-05-24T11:15:02Z</time>
      </trkpt>
      <trkpt lat="43.4145" lon="2.45756">
        <ele>1050.487</ele>
        <time>2021-05-24T11:15:04Z</time>
      </trkpt>
      <trkpt lat="43.41449" lon="2.45753">
        <ele>1051.303</ele>
        <time>2021-05-24T11:15:06Z</time>
      </trkpt>
      <trkpt lat="43.41448" lon="2.45752">
        <ele>1050.691</ele>
        <time>2021-05-24T11:15:08Z</time>
      </trkpt>
      <trkpt lat="43.41447" lon="2.4575">
        <ele>1050.839</ele>
        <time>2021-05-24T11:15:10Z</time>
      </trkpt>
      <trkpt lat="43.41448" lon="2.45748">
        <ele>1050.553</ele>
        <time>2021-05-24T11:15:12Z</time>
      </trkpt>
      <trkpt lat="43.41449" lon="2.45746">
        <ele>1050.724</ele>
        <time>2021-05-24T11:15:14Z</time>
      </trkpt>
      <trkpt lat="43.4145" lon="2.45746">
        <ele>1051.563</ele>
        <time>2021-05-24T11:15:16Z</time>
      </trkpt>
      <trkpt lat="43.41451" lon="2.45746">
        <ele>1051.716</ele>
        <time>2021-05-24T11:15:18Z</time>
      </trkpt>
      <trkpt lat="43.41452" lon="2.45746">
        <ele>1050.493</ele>
        <time>2021-05-24T11:15:20Z</time>
      </trkpt>
      <trkpt lat="43.41453" lon="2.45747">
        <ele>1051.112</ele>
        <time>2021-05-24T11:15:22Z</time>
      </trkpt>
      <trkpt lat="43.41454" lon="2.45747">
        <ele>1050.882</ele>
        <time>2021-05-24T11:15:24Z</time>
      </trkpt>
      <trkpt lat="43.41454" lon="2.45747">
        <ele>1051.222</ele>
        <time>2021-05-24T11:15:26Z</time>
      </trkpt>
      <trkpt lat="43.41454" lon="2.45747">
        <ele>1051.086</ele>
        <time>2021-05-24T11:15:28Z</time>
      </trkpt>
      <trkpt lat="43.41454" lon="2.45748">
        <ele>1048.867</ele>
        <time>2021-05-24T11:15:30Z</time>
      </trkpt>
      <trkpt lat="43.41455" lon="2.4575">
        <ele>1047.55</ele>
        <time>2021-05-24T11:15:32Z</time>
      </trkpt>
      <trkpt lat="43.41454" lon="2.45751">
        <ele>1048.534</ele>
        <time>2021-05-24T11:15:34Z</time>
      </trkpt>
      <trkpt lat="43.41454" lon="2.45752">
        <ele>1048.951</ele>
        <time>2021-05-24T11:15:36Z</time>
      </trkpt>
      <trkpt lat="43.41454" lon="2.45752">
        <ele>1048.999</ele>
        <time>2021-05-24T11:15:38Z</time>
      </trkpt>
      <trkpt lat="43.41454" lon="2.45752">
        <ele>1048.997</ele>
        <time>2021-05-24T11:15:40Z</time>
      </trkpt>
      <trkpt lat="43.41454" lon="2.45752">
        <ele>1048.994</ele>
        <time>2021-05-24T11:15:42Z</time>
      </trkpt>
      <trkpt lat="43.41454" lon="2.45752">
        <ele>1048.992</ele>
        <time>2021-05-24T11:15:44Z</time>
      </trkpt>
      <trkpt lat="43.41454" lon="2.45752">
        <ele>1048.992</ele>
        <time>2021-05-24T11:15:45Z</time>
      </trkpt>
      <trkpt lat="43.41454" lon="2.45751">
        <ele>1048.868</ele>
        <time>2021-05-24T11:15:48Z</time>
      </trkpt>
      <trkpt lat="43.41454" lon="2.45751">
        <ele>1049.079</ele>
        <time>2021-05-24T11:15:50Z</time>
      </trkpt>
      <trkpt lat="43.41454" lon="2.4575">
        <ele>1049.098</ele>
        <time>2021-05-24T11:15:52Z</time>
      </trkpt>
      <trkpt lat="43.41454" lon="2.4575">
        <ele>1049.094</ele>
        <time>2021-05-24T11:15:54Z</time>
      </trkpt>
      <trkpt lat="43.41454" lon="2.4575">
        <ele>1049.092</ele>
        <time>2021-05-24T11:15:56Z</time>
      </trkpt>
      <trkpt lat="43.41454" lon="2.4575">
        <ele>1048.154</ele>
        <time>2021-05-24T11:15:58Z</time>
      </trkpt>
      <trkpt lat="43.41453" lon="2.45749">
        <ele>1048.728</ele>
        <time>2021-05-24T11:16:00Z</time>
      </trkpt>
      <trkpt lat="43.41453" lon="2.45749">
        <ele>1048.728</ele>
        <time>2021-05-24T11:16:02Z</time>
      </trkpt>
      <trkpt lat="43.41453" lon="2.45749">
        <ele>1048.724</ele>
        <time>2021-05-24T11:16:04Z</time>
      </trkpt>
      <trkpt lat="43.41453" lon="2.45749">
        <ele>1048.726</ele>
        <time>2021-05-24T11:16:06Z</time>
      </trkpt>
      <trkpt lat="43.41453" lon="2.45749">
        <ele>1048.726</ele>
        <time>2021-05-24T11:16:08Z</time>
      </trkpt>
      <trkpt lat="43.41453" lon="2.45749">
        <ele>1048.525</ele>
        <time>2021-05-24T11:16:10Z</time>
      </trkpt>
      <trkpt lat="43.41453" lon="2.45749">
        <ele>1048.514</ele>
        <time>2021-05-24T11:16:12Z</time>
      </trkpt>
      <trkpt lat="43.41453" lon="2.45749">
        <ele>1048.512</ele>
        <time>2021-05-24T11:16:14Z</time>
      </trkpt>
      <trkpt lat="43.41453" lon="2.45749">
        <ele>1048.51</ele>
        <time>2021-05-24T11:16:16Z</time>
      </trkpt>
      <trkpt lat="43.41453" lon="2.45749">
        <ele>1048.42</ele>
        <time>2021-05-24T11:16:18Z</time>
      </trkpt>
      <trkpt lat="43.41453" lon="2.45748">
        <ele>1048.646</ele>
        <time>2021-05-24T11:16:20Z</time>
      </trkpt>
      <trkpt lat="43.41453" lon="2.45748">
        <ele>1048.646</ele>
        <time>2021-05-24T11:16:22Z</time>
      </trkpt>
      <trkpt lat="43.41453" lon="2.45748">
        <ele>1048.644</ele>
        <time>2021-05-24T11:16:24Z</time>
      </trkpt>
      <trkpt lat="43.41453" lon="2.45748">
        <ele>1048.629</ele>
        <time>2021-05-24T11:16:26Z</time>
      </trkpt>
      <trkpt lat="43.41453" lon="2.45748">
        <ele>1048.625</ele>
        <time>2021-05-24T11:16:28Z</time>
      </trkpt>
      <trkpt lat="43.41453" lon="2.45748">
        <ele>1048.52</ele>
        <time>2021-05-24T11:16:30Z</time>
      </trkpt>
      <trkpt lat="43.41453" lon="2.45748">
        <ele>1049.236</ele>
        <time>2021-05-24T11:16:32Z</time>
      </trkpt>
      <trkpt lat="43.41453" lon="2.45748">
        <ele>1048.532</ele>
        <time>2021-05-24T11:16:34Z</time>
      </trkpt>
      <trkpt lat="43.41453" lon="2.45747">
        <ele>1048.21</ele>
        <time>2021-05-24T11:16:36Z</time>
      </trkpt>
      <trkpt lat="43.41453" lon="2.45747">
        <ele>1048.235</ele>
        <time>2021-05-24T11:16:38Z</time>
      </trkpt>
      <trkpt lat="43.41453" lon="2.45747">
        <ele>1048.233</ele>
        <time>2021-05-24T11:16:40Z</time>
      </trkpt>
      <trkpt lat="43.41453" lon="2.45747">
        <ele>1048.233</ele>
        <time>2021-05-24T11:16:42Z</time>
      </trkpt>
      <trkpt lat="43.41452" lon="2.45747">
        <ele>1048.099</ele>
        <time>2021-05-24T11:16:44Z</time>
      </trkpt>
      <trkpt lat="43.41452" lon="2.45747">
        <ele>1048.073</ele>
        <time>2021-05-24T11:16:46Z</time>
      </trkpt>
      <trkpt lat="43.41452" lon="2.45747">
        <ele>1048.138</ele>
        <time>2021-05-24T11:16:48Z</time>
      </trkpt>
      <trkpt lat="43.41452" lon="2.45747">
        <ele>1048.138</ele>
        <time>2021-05-24T11:16:50Z</time>
      </trkpt>
      <trkpt lat="43.41452" lon="2.45747">
        <ele>1048.137</ele>
        <time>2021-05-24T11:16:52Z</time>
      </trkpt>
      <trkpt lat="43.41452" lon="2.45747">
        <ele>1048.136</ele>
        <time>2021-05-24T11:16:54Z</time>
      </trkpt>
      <trkpt lat="43.41452" lon="2.45747">
        <ele>1048.136</ele>
        <time>2021-05-24T11:16:56Z</time>
      </trkpt>
      <trkpt lat="43.41452" lon="2.45747">
        <ele>1048.136</ele>
        <time>2021-05-24T11:16:58Z</time>
      </trkpt>
      <trkpt lat="43.41452" lon="2.45747">
        <ele>1048.139</ele>
        <time>2021-05-24T11:17:00Z</time>
      </trkpt>
      <trkpt lat="43.41452" lon="2.45747">
        <ele>1048.143</ele>
        <time>2021-05-24T11:17:02Z</time>
      </trkpt>
      <trkpt lat="43.41452" lon="2.45747">
        <ele>1048.144</ele>
        <time>2021-05-24T11:17:04Z</time>
      </trkpt>
      <trkpt lat="43.41452" lon="2.45747">
        <ele>1048.14</ele>
        <time>2021-05-24T11:17:06Z</time>
      </trkpt>
      <trkpt lat="43.41452" lon="2.45747">
        <ele>1048.139</ele>
        <time>2021-05-24T11:17:08Z</time>
      </trkpt>
      <trkpt lat="43.41452" lon="2.45747">
        <ele>1048.147</ele>
        <time>2021-05-24T11:17:10Z</time>
      </trkpt>
      <trkpt lat="43.41452" lon="2.45747">
        <ele>1048.147</ele>
        <time>2021-05-24T11:17:12Z</time>
      </trkpt>
      <trkpt lat="43.41452" lon="2.45747">
        <ele>1048.148</ele>
        <time>2021-05-24T11:17:14Z</time>
      </trkpt>
      <trkpt lat="43.41452" lon="2.45747">
        <ele>1048.148</ele>
        <time>2021-05-24T11:17:16Z</time>
      </trkpt>
      <trkpt lat="43.41452" lon="2.45747">
        <ele>1048.153</ele>
        <time>2021-05-24T11:17:18Z</time>
      </trkpt>
      <trkpt lat="43.41452" lon="2.45747">
        <ele>1048.153</ele>
        <time>2021-05-24T11:17:20Z</time>
      </trkpt>
      <trkpt lat="43.41452" lon="2.45747">
        <ele>1048.153</ele>
        <time>2021-05-24T11:17:22Z</time>
      </trkpt>
      <trkpt lat="43.41452" lon="2.45747">
        <ele>1048.154</ele>
        <time>2021-05-24T11:17:24Z</time>
      </trkpt>
      <trkpt lat="43.41452" lon="2.45747">
        <ele>1048.156</ele>
        <time>2021-05-24T11:17:26Z</time>
      </trkpt>
      <trkpt lat="43.41452" lon="2.45747">
        <ele>1048.157</ele>
        <time>2021-05-24T11:17:28Z</time>
      </trkpt>
      <trkpt lat="43.41452" lon="2.45747">
        <ele>1048.156</ele>
        <time>2021-05-24T11:17:30Z</time>
      </trkpt>
      <trkpt lat="43.41452" lon="2.45747">
        <ele>1048.157</ele>
        <time>2021-05-24T11:17:32Z</time>
      </trkpt>
      <trkpt lat="43.41452" lon="2.45747">
        <ele>1048.156</ele>
        <time>2021-05-24T11:17:34Z</time>
      </trkpt>
      <trkpt lat="43.41452" lon="2.45747">
        <ele>1048.159</ele>
        <time>2021-05-24T11:17:36Z</time>
      </trkpt>
      <trkpt lat="43.41452" lon="2.45747">
        <ele>1048.159</ele>
        <time>2021-05-24T11:17:38Z</time>
      </trkpt>
      <trkpt lat="43.41452" lon="2.45747">
        <ele>1048.163</ele>
        <time>2021-05-24T11:17:40Z</time>
      </trkpt>
      <trkpt lat="43.41452" lon="2.45747">
        <ele>1048.31</ele>
        <time>2021-05-24T11:17:42Z</time>
      </trkpt>
      <trkpt lat="43.41452" lon="2.45747">
        <ele>1048.28</ele>
        <time>2021-05-24T11:17:44Z</time>
      </trkpt>
      <trkpt lat="43.41452" lon="2.45747">
        <ele>1048.279</ele>
        <time>2021-05-24T11:17:46Z</time>
      </trkpt>
      <trkpt lat="43.41452" lon="2.45747">
        <ele>1048.277</ele>
        <time>2021-05-24T11:17:48Z</time>
      </trkpt>
      <trkpt lat="43.41452" lon="2.45747">
        <ele>1048.273</ele>
        <time>2021-05-24T11:17:50Z</time>
      </trkpt>
      <trkpt lat="43.41452" lon="2.45747">
        <ele>1048.271</ele>
        <time>2021-05-24T11:17:52Z</time>
      </trkpt>
      <trkpt lat="43.41452" lon="2.45747">
        <ele>1048.264</ele>
        <time>2021-05-24T11:17:54Z</time>
      </trkpt>
      <trkpt lat="43.41452" lon="2.45747">
        <ele>1048.264</ele>
        <time>2021-05-24T11:17:56Z</time>
      </trkpt>
      <trkpt lat="43.41452" lon="2.45747">
        <ele>1048.193</ele>
        <time>2021-05-24T11:17:58Z</time>
      </trkpt>
      <trkpt lat="43.41452" lon="2.45746">
        <ele>1047.204</ele>
        <time>2021-05-24T11:18:00Z</time>
      </trkpt>
      <trkpt lat="43.41453" lon="2.45746">
        <ele>1047.543</ele>
        <time>2021-05-24T11:18:02Z</time>
      </trkpt>
      <trkpt lat="43.41453" lon="2.45746">
        <ele>1047.92</ele>
        <time>2021-05-24T11:18:04Z</time>
      </trkpt>
      <trkpt lat="43.41454" lon="2.45746">
        <ele>1048.154</ele>
        <time>2021-05-24T11:18:06Z</time>
      </trkpt>
      <trkpt lat="43.41454" lon="2.45746">
        <ele>1048.18</ele>
        <time>2021-05-24T11:18:08Z</time>
      </trkpt>
      <trkpt lat="43.41454" lon="2.45746">
        <ele>1048.183</ele>
        <time>2021-05-24T11:18:10Z</time>
      </trkpt>
      <trkpt lat="43.41454" lon="2.45746">
        <ele>1048.184</ele>
        <time>2021-05-24T11:18:12Z</time>
      </trkpt>
      <trkpt lat="43.41454" lon="2.45746">
        <ele>1048.174</ele>
        <time>2021-05-24T11:18:14Z</time>
      </trkpt>
      <trkpt lat="43.41454" lon="2.45746">
        <ele>1048.178</ele>
        <time>2021-05-24T11:18:16Z</time>
      </trkpt>
      <trkpt lat="43.41454" lon="2.45746">
        <ele>1048.183</ele>
        <time>2021-05-24T11:18:18Z</time>
      </trkpt>
      <trkpt lat="43.41454" lon="2.45746">
        <ele>1048.186</ele>
        <time>2021-05-24T11:18:20Z</time>
      </trkpt>
      <trkpt lat="43.41454" lon="2.45746">
        <ele>1048.184</ele>
        <time>2021-05-24T11:18:22Z</time>
      </trkpt>
      <trkpt lat="43.41454" lon="2.45746">
        <ele>1048.183</ele>
        <time>2021-05-24T11:18:24Z</time>
      </trkpt>
      <trkpt lat="43.41454" lon="2.45746">
        <ele>1048.183</ele>
        <time>2021-05-24T11:18:26Z</time>
      </trkpt>
      <trkpt lat="43.41454" lon="2.45746">
        <ele>1048.183</ele>
        <time>2021-05-24T11:18:28Z</time>
      </trkpt>
      <trkpt lat="43.41454" lon="2.45746">
        <ele>1048.183</ele>
        <time>2021-05-24T11:18:30Z</time>
      </trkpt>
      <trkpt lat="43.41454" lon="2.45746">
        <ele>1048.103</ele>
        <time>2021-05-24T11:18:32Z</time>
      </trkpt>
      <trkpt lat="43.41454" lon="2.45746">
        <ele>1048.147</ele>
        <time>2021-05-24T11:18:34Z</time>
      </trkpt>
      <trkpt lat="43.41454" lon="2.45746">
        <ele>1048.146</ele>
        <time>2021-05-24T11:18:36Z</time>
      </trkpt>
      <trkpt lat="43.41454" lon="2.45746">
        <ele>1048.147</ele>
        <time>2021-05-24T11:18:38Z</time>
      </trkpt>
      <trkpt lat="43.41454" lon="2.45745">
        <ele>1048.073</ele>
        <time>2021-05-24T11:18:40Z</time>
      </trkpt>
      <trkpt lat="43.41454" lon="2.45745">
        <ele>1048.073</ele>
        <time>2021-05-24T11:18:42Z</time>
      </trkpt>
      <trkpt lat="43.41454" lon="2.45745">
        <ele>1048.072</ele>
        <time>2021-05-24T11:18:44Z</time>
      </trkpt>
      <trkpt lat="43.41454" lon="2.45745">
        <ele>1048.074</ele>
        <time>2021-05-24T11:18:46Z</time>
      </trkpt>
      <trkpt lat="43.41454" lon="2.45745">
        <ele>1048.074</ele>
        <time>2021-05-24T11:18:48Z</time>
      </trkpt>
      <trkpt lat="43.41454" lon="2.45745">
        <ele>1048.076</ele>
        <time>2021-05-24T11:18:50Z</time>
      </trkpt>
      <trkpt lat="43.41454" lon="2.45745">
        <ele>1048.079</ele>
        <time>2021-05-24T11:18:52Z</time>
      </trkpt>
      <trkpt lat="43.41454" lon="2.45745">
        <ele>1048.074</ele>
        <time>2021-05-24T11:18:54Z</time>
      </trkpt>
      <trkpt lat="43.41454" lon="2.45745">
        <ele>1048.077</ele>
        <time>2021-05-24T11:18:56Z</time>
      </trkpt>
      <trkpt lat="43.41454" lon="2.45745">
        <ele>1048.077</ele>
        <time>2021-05-24T11:18:58Z</time>
      </trkpt>
      <trkpt lat="43.41454" lon="2.45745">
        <ele>1048.076</ele>
        <time>2021-05-24T11:19:00Z</time>
      </trkpt>
      <trkpt lat="43.41454" lon="2.45745">
        <ele>1048.08</ele>
        <time>2021-05-24T11:19:02Z</time>
      </trkpt>
      <trkpt lat="43.41454" lon="2.45745">
        <ele>1048.076</ele>
        <time>2021-05-24T11:19:04Z</time>
      </trkpt>
      <trkpt lat="43.41454" lon="2.45745">
        <ele>1048.08</ele>
        <time>2021-05-24T11:19:06Z</time>
      </trkpt>
      <trkpt lat="43.41454" lon="2.45745">
        <ele>1048.085</ele>
        <time>2021-05-24T11:19:08Z</time>
      </trkpt>
      <trkpt lat="43.41454" lon="2.45745">
        <ele>1048.085</ele>
        <time>2021-05-24T11:19:10Z</time>
      </trkpt>
      <trkpt lat="43.41454" lon="2.45745">
        <ele>1048.087</ele>
        <time>2021-05-24T11:19:12Z</time>
      </trkpt>
      <trkpt lat="43.41454" lon="2.45745">
        <ele>1048.089</ele>
        <time>2021-05-24T11:19:14Z</time>
      </trkpt>
      <trkpt lat="43.41454" lon="2.45745">
        <ele>1048.09</ele>
        <time>2021-05-24T11:19:16Z</time>
      </trkpt>
      <trkpt lat="43.41454" lon="2.45745">
        <ele>1048.088</ele>
        <time>2021-05-24T11:19:18Z</time>
      </trkpt>
      <trkpt lat="43.41454" lon="2.45745">
        <ele>1048.09</ele>
        <time>2021-05-24T11:19:20Z</time>
      </trkpt>
      <trkpt lat="43.41454" lon="2.45745">
        <ele>1048.093</ele>
        <time>2021-05-24T11:19:22Z</time>
      </trkpt>
      <trkpt lat="43.41454" lon="2.45745">
        <ele>1048.095</ele>
        <time>2021-05-24T11:19:24Z</time>
      </trkpt>
      <trkpt lat="43.41454" lon="2.45745">
        <ele>1048.094</ele>
        <time>2021-05-24T11:19:26Z</time>
      </trkpt>
      <trkpt lat="43.41454" lon="2.45745">
        <ele>1048.092</ele>
        <time>2021-05-24T11:19:28Z</time>
      </trkpt>
      <trkpt lat="43.41454" lon="2.45745">
        <ele>1048.093</ele>
        <time>2021-05-24T11:19:30Z</time>
      </trkpt>
      <trkpt lat="43.41454" lon="2.45745">
        <ele>1048.094</ele>
        <time>2021-05-24T11:19:32Z</time>
      </trkpt>
      <trkpt lat="43.41454" lon="2.45745">
        <ele>1048.094</ele>
        <time>2021-05-24T11:19:34Z</time>
      </trkpt>
      <trkpt lat="43.41454" lon="2.45745">
        <ele>1048.095</ele>
        <time>2021-05-24T11:19:36Z</time>
      </trkpt>
      <trkpt lat="43.41454" lon="2.45745">
        <ele>1048.095</ele>
        <time>2021-05-24T11:19:38Z</time>
      </trkpt>
      <trkpt lat="43.41454" lon="2.45745">
        <ele>1048.093</ele>
        <time>2021-05-24T11:19:40Z</time>
      </trkpt>
      <trkpt lat="43.41454" lon="2.45745">
        <ele>1048.093</ele>
        <time>2021-05-24T11:19:42Z</time>
      </trkpt>
      <trkpt lat="43.41454" lon="2.45745">
        <ele>1048.093</ele>
        <time>2021-05-24T11:19:44Z</time>
      </trkpt>
      <trkpt lat="43.41454" lon="2.45745">
        <ele>1048.091</ele>
        <time>2021-05-24T11:19:46Z</time>
      </trkpt>
      <trkpt lat="43.41454" lon="2.45745">
        <ele>1048.091</ele>
        <time>2021-05-24T11:19:48Z</time>
      </trkpt>
      <trkpt lat="43.41454" lon="2.45745">
        <ele>1048.091</ele>
        <time>2021-05-24T11:19:50Z</time>
      </trkpt>
      <trkpt lat="43.41454" lon="2.45745">
        <ele>1048.091</ele>
        <time>2021-05-24T11:19:52Z</time>
      </trkpt>
      <trkpt lat="43.41454" lon="2.45745">
        <ele>1048.092</ele>
        <time>2021-05-24T11:19:54Z</time>
      </trkpt>
      <trkpt lat="43.41454" lon="2.45745">
        <ele>1048.091</ele>
        <time>2021-05-24T11:19:56Z</time>
      </trkpt>
      <trkpt lat="43.41454" lon="2.45745">
        <ele>1048.091</ele>
        <time>2021-05-24T11:19:58Z</time>
      </trkpt>
      <trkpt lat="43.41454" lon="2.45745">
        <ele>1048.091</ele>
        <time>2021-05-24T11:20:00Z</time>
      </trkpt>
      <trkpt lat="43.41454" lon="2.45745">
        <ele>1048.092</ele>
        <time>2021-05-24T11:20:02Z</time>
      </trkpt>
      <trkpt lat="43.41454" lon="2.45745">
        <ele>1048.092</ele>
        <time>2021-05-24T11:20:04Z</time>
      </trkpt>
      <trkpt lat="43.41454" lon="2.45745">
        <ele>1048.094</ele>
        <time>2021-05-24T11:20:06Z</time>
      </trkpt>
      <trkpt lat="43.41454" lon="2.45745">
        <ele>1048.092</ele>
        <time>2021-05-24T11:20:08Z</time>
      </trkpt>
      <trkpt lat="43.41454" lon="2.45745">
        <ele>1048.087</ele>
        <time>2021-05-24T11:20:10Z</time>
      </trkpt>
      <trkpt lat="43.41454" lon="2.45745">
        <ele>1048.08</ele>
        <time>2021-05-24T11:20:12Z</time>
      </trkpt>
      <trkpt lat="43.41454" lon="2.45745">
        <ele>1048.077</ele>
        <time>2021-05-24T11:20:14Z</time>
      </trkpt>
      <trkpt lat="43.41454" lon="2.45745">
        <ele>1048.076</ele>
        <time>2021-05-24T11:20:16Z</time>
      </trkpt>
      <trkpt lat="43.41454" lon="2.45745">
        <ele>1048.075</ele>
        <time>2021-05-24T11:20:18Z</time>
      </trkpt>
      <trkpt lat="43.41454" lon="2.45745">
        <ele>1048.074</ele>
        <time>2021-05-24T11:20:20Z</time>
      </trkpt>
      <trkpt lat="43.41454" lon="2.45745">
        <ele>1048.068</ele>
        <time>2021-05-24T11:20:22Z</time>
      </trkpt>
      <trkpt lat="43.41454" lon="2.45745">
        <ele>1048.069</ele>
        <time>2021-05-24T11:20:24Z</time>
      </trkpt>
      <trkpt lat="43.41454" lon="2.45745">
        <ele>1048.07</ele>
        <time>2021-05-24T11:20:26Z</time>
      </trkpt>
      <trkpt lat="43.41454" lon="2.45745">
        <ele>1048.068</ele>
        <time>2021-05-24T11:20:28Z</time>
      </trkpt>
      <trkpt lat="43.41454" lon="2.45745">
        <ele>1048.067</ele>
        <time>2021-05-24T11:20:30Z</time>
      </trkpt>
      <trkpt lat="43.41454" lon="2.45745">
        <ele>1048.069</ele>
        <time>2021-05-24T11:20:32Z</time>
      </trkpt>
      <trkpt lat="43.41454" lon="2.45745">
        <ele>1048.067</ele>
        <time>2021-05-24T11:20:34Z</time>
      </trkpt>
      <trkpt lat="43.41454" lon="2.45745">
        <ele>1048.064</ele>
        <time>2021-05-24T11:20:36Z</time>
      </trkpt>
      <trkpt lat="43.41454" lon="2.45745">
        <ele>1048.062</ele>
        <time>2021-05-24T11:20:38Z</time>
      </trkpt>
      <trkpt lat="43.41454" lon="2.45745">
        <ele>1048.057</ele>
        <time>2021-05-24T11:20:40Z</time>
      </trkpt>
      <trkpt lat="43.41454" lon="2.45745">
        <ele>1048.063</ele>
        <time>2021-05-24T11:20:42Z</time>
      </trkpt>
      <trkpt lat="43.41454" lon="2.45745">
        <ele>1048.067</ele>
        <time>2021-05-24T11:20:44Z</time>
      </trkpt>
      <trkpt lat="43.41454" lon="2.45745">
        <ele>1048.067</ele>
        <time>2021-05-24T11:20:46Z</time>
      </trkpt>
      <trkpt lat="43.41454" lon="2.45745">
        <ele>1048.061</ele>
        <time>2021-05-24T11:20:48Z</time>
      </trkpt>
      <trkpt lat="43.41454" lon="2.45745">
        <ele>1048.058</ele>
        <time>2021-05-24T11:20:50Z</time>
      </trkpt>
      <trkpt lat="43.41454" lon="2.45745">
        <ele>1048.055</ele>
        <time>2021-05-24T11:20:52Z</time>
      </trkpt>
      <trkpt lat="43.41454" lon="2.45745">
        <ele>1048.054</ele>
        <time>2021-05-24T11:20:54Z</time>
      </trkpt>
      <trkpt lat="43.41454" lon="2.45745">
        <ele>1048.055</ele>
        <time>2021-05-24T11:20:56Z</time>
      </trkpt>
      <trkpt lat="43.41454" lon="2.45745">
        <ele>1048.055</ele>
        <time>2021-05-24T11:20:58Z</time>
      </trkpt>
      <trkpt lat="43.41454" lon="2.45745">
        <ele>1048.059</ele>
        <time>2021-05-24T11:21:00Z</time>
      </trkpt>
      <trkpt lat="43.41454" lon="2.45745">
        <ele>1048.059</ele>
        <time>2021-05-24T11:21:02Z</time>
      </trkpt>
      <trkpt lat="43.41454" lon="2.45745">
        <ele>1048.058</ele>
        <time>2021-05-24T11:21:04Z</time>
      </trkpt>
      <trkpt lat="43.41454" lon="2.45745">
        <ele>1048.058</ele>
        <time>2021-05-24T11:21:06Z</time>
      </trkpt>
      <trkpt lat="43.41454" lon="2.45745">
        <ele>1048.058</ele>
        <time>2021-05-24T11:21:08Z</time>
      </trkpt>
      <trkpt lat="43.41454" lon="2.45745">
        <ele>1048.054</ele>
        <time>2021-05-24T11:21:10Z</time>
      </trkpt>
      <trkpt lat="43.41454" lon="2.45745">
        <ele>1048.055</ele>
        <time>2021-05-24T11:21:12Z</time>
      </trkpt>
      <trkpt lat="43.41454" lon="2.45745">
        <ele>1048.057</ele>
        <time>2021-05-24T11:21:14Z</time>
      </trkpt>
      <trkpt lat="43.41454" lon="2.45745">
        <ele>1048.056</ele>
        <time>2021-05-24T11:21:16Z</time>
      </trkpt>
      <trkpt lat="43.41454" lon="2.45745">
        <ele>1048.055</ele>
        <time>2021-05-24T11:21:18Z</time>
      </trkpt>
      <trkpt lat="43.41454" lon="2.45745">
        <ele>1048.053</ele>
        <time>2021-05-24T11:21:20Z</time>
      </trkpt>
      <trkpt lat="43.41454" lon="2.45745">
        <ele>1048.054</ele>
        <time>2021-05-24T11:21:22Z</time>
      </trkpt>
      <trkpt lat="43.41454" lon="2.45745">
        <ele>1048.056</ele>
        <time>2021-05-24T11:21:24Z</time>
      </trkpt>
      <trkpt lat="43.41454" lon="2.45745">
        <ele>1048.058</ele>
        <time>2021-05-24T11:21:26Z</time>
      </trkpt>
      <trkpt lat="43.41454" lon="2.45745">
        <ele>1048.062</ele>
        <time>2021-05-24T11:21:28Z</time>
      </trkpt>
      <trkpt lat="43.41454" lon="2.45745">
        <ele>1048.059</ele>
        <time>2021-05-24T11:21:30Z</time>
      </trkpt>
      <trkpt lat="43.41454" lon="2.45745">
        <ele>1048.062</ele>
        <time>2021-05-24T11:21:32Z</time>
      </trkpt>
      <trkpt lat="43.41454" lon="2.45745">
        <ele>1048.058</ele>
        <time>2021-05-24T11:21:34Z</time>
      </trkpt>
      <trkpt lat="43.41454" lon="2.45745">
        <ele>1048.054</ele>
        <time>2021-05-24T11:21:36Z</time>
      </trkpt>
      <trkpt lat="43.41454" lon="2.45745">
        <ele>1048.053</ele>
        <time>2021-05-24T11:21:38Z</time>
      </trkpt>
      <trkpt lat="43.41454" lon="2.45745">
        <ele>1048.055</ele>
        <time>2021-05-24T11:21:40Z</time>
      </trkpt>
      <trkpt lat="43.41454" lon="2.45745">
        <ele>1048.054</ele>
        <time>2021-05-24T11:21:42Z</time>
      </trkpt>
      <trkpt lat="43.41454" lon="2.45745">
        <ele>1048.053</ele>
        <time>2021-05-24T11:21:44Z</time>
      </trkpt>
      <trkpt lat="43.41454" lon="2.45745">
        <ele>1048.052</ele>
        <time>2021-05-24T11:21:46Z</time>
      </trkpt>
      <trkpt lat="43.41454" lon="2.45745">
        <ele>1048.053</ele>
        <time>2021-05-24T11:21:48Z</time>
      </trkpt>
      <trkpt lat="43.41454" lon="2.45745">
        <ele>1048.054</ele>
        <time>2021-05-24T11:21:50Z</time>
      </trkpt>
      <trkpt lat="43.41454" lon="2.45745">
        <ele>1048.053</ele>
        <time>2021-05-24T11:21:52Z</time>
      </trkpt>
      <trkpt lat="43.41454" lon="2.45745">
        <ele>1048.053</ele>
        <time>2021-05-24T11:21:54Z</time>
      </trkpt>
      <trkpt lat="43.41454" lon="2.45745">
        <ele>1048.053</ele>
        <time>2021-05-24T11:21:56Z</time>
      </trkpt>
      <trkpt lat="43.41454" lon="2.45745">
        <ele>1048.054</ele>
        <time>2021-05-24T11:21:58Z</time>
      </trkpt>
      <trkpt lat="43.41454" lon="2.45745">
        <ele>1048.053</ele>
        <time>2021-05-24T11:22:00Z</time>
      </trkpt>
      <trkpt lat="43.41454" lon="2.45745">
        <ele>1048.055</ele>
        <time>2021-05-24T11:22:02Z</time>
      </trkpt>
      <trkpt lat="43.41454" lon="2.45745">
        <ele>1048.059</ele>
        <time>2021-05-24T11:22:04Z</time>
      </trkpt>
      <trkpt lat="43.41454" lon="2.45745">
        <ele>1048.059</ele>
        <time>2021-05-24T11:22:06Z</time>
      </trkpt>
      <trkpt lat="43.41454" lon="2.45745">
        <ele>1048.06</ele>
        <time>2021-05-24T11:22:08Z</time>
      </trkpt>
      <trkpt lat="43.41454" lon="2.45745">
        <ele>1048.06</ele>
        <time>2021-05-24T11:22:10Z</time>
      </trkpt>
      <trkpt lat="43.41454" lon="2.45745">
        <ele>1048.063</ele>
        <time>2021-05-24T11:22:12Z</time>
      </trkpt>
      <trkpt lat="43.41454" lon="2.45745">
        <ele>1048.063</ele>
        <time>2021-05-24T11:22:14Z</time>
      </trkpt>
      <trkpt lat="43.41454" lon="2.45745">
        <ele>1048.065</ele>
        <time>2021-05-24T11:22:16Z</time>
      </trkpt>
      <trkpt lat="43.41454" lon="2.45745">
        <ele>1048.066</ele>
        <time>2021-05-24T11:22:18Z</time>
      </trkpt>
      <trkpt lat="43.41454" lon="2.45745">
        <ele>1048.065</ele>
        <time>2021-05-24T11:22:20Z</time>
      </trkpt>
      <trkpt lat="43.41454" lon="2.45745">
        <ele>1048.068</ele>
        <time>2021-05-24T11:22:22Z</time>
      </trkpt>
      <trkpt lat="43.41454" lon="2.45745">
        <ele>1048.068</ele>
        <time>2021-05-24T11:22:24Z</time>
      </trkpt>
      <trkpt lat="43.41454" lon="2.45745">
        <ele>1048.07</ele>
        <time>2021-05-24T11:22:26Z</time>
      </trkpt>
      <trkpt lat="43.41454" lon="2.45745">
        <ele>1048.071</ele>
        <time>2021-05-24T11:22:28Z</time>
      </trkpt>
      <trkpt lat="43.41454" lon="2.45745">
        <ele>1048.071</ele>
        <time>2021-05-24T11:22:30Z</time>
      </trkpt>
      <trkpt lat="43.41454" lon="2.45745">
        <ele>1048.075</ele>
        <time>2021-05-24T11:22:32Z</time>
      </trkpt>
      <trkpt lat="43.41454" lon="2.45745">
        <ele>1048.077</ele>
        <time>2021-05-24T11:22:34Z</time>
      </trkpt>
      <trkpt lat="43.41454" lon="2.45745">
        <ele>1048.077</ele>
        <time>2021-05-24T11:22:36Z</time>
      </trkpt>
      <trkpt lat="43.41454" lon="2.45745">
        <ele>1048.076</ele>
        <time>2021-05-24T11:22:38Z</time>
      </trkpt>
      <trkpt lat="43.41454" lon="2.45745">
        <ele>1048.08</ele>
        <time>2021-05-24T11:22:40Z</time>
      </trkpt>
      <trkpt lat="43.41454" lon="2.45745">
        <ele>1048.082</ele>
        <time>2021-05-24T11:22:42Z</time>
      </trkpt>
      <trkpt lat="43.41454" lon="2.45745">
        <ele>1048.082</ele>
        <time>2021-05-24T11:22:44Z</time>
      </trkpt>
      <trkpt lat="43.41454" lon="2.45745">
        <ele>1048.087</ele>
        <time>2021-05-24T11:22:46Z</time>
      </trkpt>
      <trkpt lat="43.41454" lon="2.45745">
        <ele>1048.087</ele>
        <time>2021-05-24T11:22:48Z</time>
      </trkpt>
      <trkpt lat="43.41454" lon="2.45745">
        <ele>1048.087</ele>
        <time>2021-05-24T11:22:50Z</time>
      </trkpt>
      <trkpt lat="43.41454" lon="2.45745">
        <ele>1048.088</ele>
        <time>2021-05-24T11:22:52Z</time>
      </trkpt>
      <trkpt lat="43.41454" lon="2.45745">
        <ele>1048.086</ele>
        <time>2021-05-24T11:22:54Z</time>
      </trkpt>
      <trkpt lat="43.41454" lon="2.45745">
        <ele>1048.091</ele>
        <time>2021-05-24T11:22:56Z</time>
      </trkpt>
      <trkpt lat="43.41454" lon="2.45745">
        <ele>1048.09</ele>
        <time>2021-05-24T11:22:58Z</time>
      </trkpt>
      <trkpt lat="43.41454" lon="2.45745">
        <ele>1048.093</ele>
        <time>2021-05-24T11:23:00Z</time>
      </trkpt>
      <trkpt lat="43.41454" lon="2.45745">
        <ele>1048.093</ele>
        <time>2021-05-24T11:23:02Z</time>
      </trkpt>
      <trkpt lat="43.41454" lon="2.45745">
        <ele>1048.094</ele>
        <time>2021-05-24T11:23:04Z</time>
      </trkpt>
      <trkpt lat="43.41454" lon="2.45745">
        <ele>1048.096</ele>
        <time>2021-05-24T11:23:06Z</time>
      </trkpt>
      <trkpt lat="43.41454" lon="2.45745">
        <ele>1048.1</ele>
        <time>2021-05-24T11:23:08Z</time>
      </trkpt>
      <trkpt lat="43.41454" lon="2.45745">
        <ele>1048.099</ele>
        <time>2021-05-24T11:23:10Z</time>
      </trkpt>
      <trkpt lat="43.41454" lon="2.45745">
        <ele>1048.104</ele>
        <time>2021-05-24T11:23:12Z</time>
      </trkpt>
      <trkpt lat="43.41454" lon="2.45745">
        <ele>1048.105</ele>
        <time>2021-05-24T11:23:14Z</time>
      </trkpt>
      <trkpt lat="43.41454" lon="2.45745">
        <ele>1048.107</ele>
        <time>2021-05-24T11:23:16Z</time>
      </trkpt>
      <trkpt lat="43.41454" lon="2.45745">
        <ele>1048.108</ele>
        <time>2021-05-24T11:23:18Z</time>
      </trkpt>
      <trkpt lat="43.41454" lon="2.45745">
        <ele>1048.108</ele>
        <time>2021-05-24T11:23:20Z</time>
      </trkpt>
      <trkpt lat="43.41454" lon="2.45745">
        <ele>1048.107</ele>
        <time>2021-05-24T11:23:22Z</time>
      </trkpt>
      <trkpt lat="43.41454" lon="2.45745">
        <ele>1048.106</ele>
        <time>2021-05-24T11:23:24Z</time>
      </trkpt>
      <trkpt lat="43.41454" lon="2.45745">
        <ele>1048.108</ele>
        <time>2021-05-24T11:23:26Z</time>
      </trkpt>
      <trkpt lat="43.41454" lon="2.45745">
        <ele>1048.108</ele>
        <time>2021-05-24T11:23:28Z</time>
      </trkpt>
      <trkpt lat="43.41454" lon="2.45745">
        <ele>1048.107</ele>
        <time>2021-05-24T11:23:30Z</time>
      </trkpt>
      <trkpt lat="43.41454" lon="2.45745">
        <ele>1048.106</ele>
        <time>2021-05-24T11:23:32Z</time>
      </trkpt>
      <trkpt lat="43.41454" lon="2.45745">
        <ele>1048.105</ele>
        <time>2021-05-24T11:23:34Z</time>
      </trkpt>
      <trkpt lat="43.41454" lon="2.45745">
        <ele>1048.104</ele>
        <time>2021-05-24T11:23:36Z</time>
      </trkpt>
      <trkpt lat="43.41454" lon="2.45745">
        <ele>1048.104</ele>
        <time>2021-05-24T11:23:38Z</time>
      </trkpt>
      <trkpt lat="43.41454" lon="2.45745">
        <ele>1048.101</ele>
        <time>2021-05-24T11:23:40Z</time>
      </trkpt>
      <trkpt lat="43.41454" lon="2.45745">
        <ele>1048.098</ele>
        <time>2021-05-24T11:23:42Z</time>
      </trkpt>
      <trkpt lat="43.41454" lon="2.45745">
        <ele>1048.1</ele>
        <time>2021-05-24T11:23:44Z</time>
      </trkpt>
      <trkpt lat="43.41454" lon="2.45745">
        <ele>1048.098</ele>
        <time>2021-05-24T11:23:46Z</time>
      </trkpt>
      <trkpt lat="43.41454" lon="2.45745">
        <ele>1048.098</ele>
        <time>2021-05-24T11:23:48Z</time>
      </trkpt>
      <trkpt lat="43.41454" lon="2.45745">
        <ele>1048.097</ele>
        <time>2021-05-24T11:23:50Z</time>
      </trkpt>
      <trkpt lat="43.41454" lon="2.45745">
        <ele>1048.097</ele>
        <time>2021-05-24T11:23:52Z</time>
      </trkpt>
      <trkpt lat="43.41454" lon="2.45745">
        <ele>1048.099</ele>
        <time>2021-05-24T11:23:54Z</time>
      </trkpt>
      <trkpt lat="43.41454" lon="2.45745">
        <ele>1048.096</ele>
        <time>2021-05-24T11:23:56Z</time>
      </trkpt>
      <trkpt lat="43.41454" lon="2.45745">
        <ele>1048.096</ele>
        <time>2021-05-24T11:23:58Z</time>
      </trkpt>
      <trkpt lat="43.41454" lon="2.45745">
        <ele>1048.093</ele>
        <time>2021-05-24T11:24:00Z</time>
      </trkpt>
      <trkpt lat="43.41454" lon="2.45745">
        <ele>1048.092</ele>
        <time>2021-05-24T11:24:02Z</time>
      </trkpt>
      <trkpt lat="43.41454" lon="2.45745">
        <ele>1048.091</ele>
        <time>2021-05-24T11:24:04Z</time>
      </trkpt>
      <trkpt lat="43.41454" lon="2.45745">
        <ele>1048.088</ele>
        <time>2021-05-24T11:24:06Z</time>
      </trkpt>
      <trkpt lat="43.41454" lon="2.45745">
        <ele>1048.09</ele>
        <time>2021-05-24T11:24:08Z</time>
      </trkpt>
      <trkpt lat="43.41454" lon="2.45745">
        <ele>1048.09</ele>
        <time>2021-05-24T11:24:10Z</time>
      </trkpt>
      <trkpt lat="43.41454" lon="2.45745">
        <ele>1048.085</ele>
        <time>2021-05-24T11:24:12Z</time>
      </trkpt>
      <trkpt lat="43.41454" lon="2.45745">
        <ele>1048.086</ele>
        <time>2021-05-24T11:24:14Z</time>
      </trkpt>
      <trkpt lat="43.41454" lon="2.45745">
        <ele>1048.088</ele>
        <time>2021-05-24T11:24:16Z</time>
      </trkpt>
      <trkpt lat="43.41454" lon="2.45745">
        <ele>1048.089</ele>
        <time>2021-05-24T11:24:18Z</time>
      </trkpt>
      <trkpt lat="43.41454" lon="2.45745">
        <ele>1048.088</ele>
        <time>2021-05-24T11:24:20Z</time>
      </trkpt>
      <trkpt lat="43.41454" lon="2.45745">
        <ele>1048.091</ele>
        <time>2021-05-24T11:24:22Z</time>
      </trkpt>
      <trkpt lat="43.41454" lon="2.45745">
        <ele>1048.09</ele>
        <time>2021-05-24T11:24:24Z</time>
      </trkpt>
      <trkpt lat="43.41454" lon="2.45745">
        <ele>1048.092</ele>
        <time>2021-05-24T11:24:26Z</time>
      </trkpt>
      <trkpt lat="43.41454" lon="2.45745">
        <ele>1048.092</ele>
        <time>2021-05-24T11:24:28Z</time>
      </trkpt>
      <trkpt lat="43.41454" lon="2.45745">
        <ele>1048.093</ele>
        <time>2021-05-24T11:24:30Z</time>
      </trkpt>
      <trkpt lat="43.41454" lon="2.45745">
        <ele>1048.095</ele>
        <time>2021-05-24T11:24:32Z</time>
      </trkpt>
      <trkpt lat="43.41454" lon="2.45745">
        <ele>1048.101</ele>
        <time>2021-05-24T11:24:34Z</time>
      </trkpt>
      <trkpt lat="43.41454" lon="2.45745">
        <ele>1048.101</ele>
        <time>2021-05-24T11:24:36Z</time>
      </trkpt>
      <trkpt lat="43.41454" lon="2.45745">
        <ele>1048.098</ele>
        <time>2021-05-24T11:24:38Z</time>
      </trkpt>
      <trkpt lat="43.41454" lon="2.45745">
        <ele>1048.099</ele>
        <time>2021-05-24T11:24:40Z</time>
      </trkpt>
      <trkpt lat="43.41454" lon="2.45745">
        <ele>1048.1</ele>
        <time>2021-05-24T11:24:42Z</time>
      </trkpt>
      <trkpt lat="43.41454" lon="2.45745">
        <ele>1048.1</ele>
        <time>2021-05-24T11:24:44Z</time>
      </trkpt>
      <trkpt lat="43.41454" lon="2.45745">
        <ele>1048.099</ele>
        <time>2021-05-24T11:24:46Z</time>
      </trkpt>
      <trkpt lat="43.41454" lon="2.45745">
        <ele>1048.102</ele>
        <time>2021-05-24T11:24:48Z</time>
      </trkpt>
      <trkpt lat="43.41454" lon="2.45745">
        <ele>1048.103</ele>
        <time>2021-05-24T11:24:50Z</time>
      </trkpt>
      <trkpt lat="43.41454" lon="2.45745">
        <ele>1048.103</ele>
        <time>2021-05-24T11:24:52Z</time>
      </trkpt>
      <trkpt lat="43.41454" lon="2.45745">
        <ele>1048.099</ele>
        <time>2021-05-24T11:24:54Z</time>
      </trkpt>
      <trkpt lat="43.41454" lon="2.45745">
        <ele>1048.098</ele>
        <time>2021-05-24T11:24:56Z</time>
      </trkpt>
      <trkpt lat="43.41454" lon="2.45745">
        <ele>1048.099</ele>
        <time>2021-05-24T11:24:58Z</time>
      </trkpt>
      <trkpt lat="43.41454" lon="2.45745">
        <ele>1048.099</ele>
        <time>2021-05-24T11:25:00Z</time>
      </trkpt>
      <trkpt lat="43.41454" lon="2.45745">
        <ele>1048.099</ele>
        <time>2021-05-24T11:25:02Z</time>
      </trkpt>
      <trkpt lat="43.41454" lon="2.45745">
        <ele>1048.1</ele>
        <time>2021-05-24T11:25:04Z</time>
      </trkpt>
      <trkpt lat="43.41454" lon="2.45745">
        <ele>1048.101</ele>
        <time>2021-05-24T11:25:06Z</time>
      </trkpt>
      <trkpt lat="43.41454" lon="2.45745">
        <ele>1048.101</ele>
        <time>2021-05-24T11:25:08Z</time>
      </trkpt>
      <trkpt lat="43.41454" lon="2.45745">
        <ele>1048.101</ele>
        <time>2021-05-24T11:25:10Z</time>
      </trkpt>
      <trkpt lat="43.41454" lon="2.45745">
        <ele>1048.103</ele>
        <time>2021-05-24T11:25:12Z</time>
      </trkpt>
      <trkpt lat="43.41454" lon="2.45745">
        <ele>1048.106</ele>
        <time>2021-05-24T11:25:14Z</time>
      </trkpt>
      <trkpt lat="43.41454" lon="2.45745">
        <ele>1048.107</ele>
        <time>2021-05-24T11:25:16Z</time>
      </trkpt>
      <trkpt lat="43.41454" lon="2.45745">
        <ele>1048.108</ele>
        <time>2021-05-24T11:25:18Z</time>
      </trkpt>
      <trkpt lat="43.41454" lon="2.45745">
        <ele>1048.108</ele>
        <time>2021-05-24T11:25:20Z</time>
      </trkpt>
      <trkpt lat="43.41454" lon="2.45745">
        <ele>1048.107</ele>
        <time>2021-05-24T11:25:22Z</time>
      </trkpt>
      <trkpt lat="43.41454" lon="2.45745">
        <ele>1048.106</ele>
        <time>2021-05-24T11:25:24Z</time>
      </trkpt>
      <trkpt lat="43.41454" lon="2.45745">
        <ele>1048.105</ele>
        <time>2021-05-24T11:25:26Z</time>
      </trkpt>
      <trkpt lat="43.41454" lon="2.45745">
        <ele>1048.104</ele>
        <time>2021-05-24T11:25:28Z</time>
      </trkpt>
      <trkpt lat="43.41454" lon="2.45745">
        <ele>1048.104</ele>
        <time>2021-05-24T11:25:30Z</time>
      </trkpt>
      <trkpt lat="43.41454" lon="2.45745">
        <ele>1048.105</ele>
        <time>2021-05-24T11:25:32Z</time>
      </trkpt>
      <trkpt lat="43.41454" lon="2.45745">
        <ele>1048.102</ele>
        <time>2021-05-24T11:25:34Z</time>
      </trkpt>
      <trkpt lat="43.41454" lon="2.45745">
        <ele>1048.104</ele>
        <time>2021-05-24T11:25:36Z</time>
      </trkpt>
      <trkpt lat="43.41454" lon="2.45745">
        <ele>1048.104</ele>
        <time>2021-05-24T11:25:38Z</time>
      </trkpt>
      <trkpt lat="43.41454" lon="2.45745">
        <ele>1048.103</ele>
        <time>2021-05-24T11:25:40Z</time>
      </trkpt>
      <trkpt lat="43.41454" lon="2.45745">
        <ele>1048.104</ele>
        <time>2021-05-24T11:25:42Z</time>
      </trkpt>
      <trkpt lat="43.41454" lon="2.45745">
        <ele>1048.107</ele>
        <time>2021-05-24T11:25:44Z</time>
      </trkpt>
      <trkpt lat="43.41454" lon="2.45745">
        <ele>1048.107</ele>
        <time>2021-05-24T11:25:46Z</time>
      </trkpt>
      <trkpt lat="43.41454" lon="2.45745">
        <ele>1048.107</ele>
        <time>2021-05-24T11:25:48Z</time>
      </trkpt>
      <trkpt lat="43.41454" lon="2.45745">
        <ele>1048.107</ele>
        <time>2021-05-24T11:25:50Z</time>
      </trkpt>
      <trkpt lat="43.41454" lon="2.45745">
        <ele>1048.108</ele>
        <time>2021-05-24T11:25:52Z</time>
      </trkpt>
      <trkpt lat="43.41454" lon="2.45745">
        <ele>1048.109</ele>
        <time>2021-05-24T11:25:54Z</time>
      </trkpt>
      <trkpt lat="43.41454" lon="2.45745">
        <ele>1048.109</ele>
        <time>2021-05-24T11:25:56Z</time>
      </trkpt>
      <trkpt lat="43.41454" lon="2.45745">
        <ele>1048.11</ele>
        <time>2021-05-24T11:25:58Z</time>
      </trkpt>
      <trkpt lat="43.41454" lon="2.45745">
        <ele>1048.109</ele>
        <time>2021-05-24T11:26:00Z</time>
      </trkpt>
      <trkpt lat="43.41454" lon="2.45745">
        <ele>1048.107</ele>
        <time>2021-05-24T11:26:02Z</time>
      </trkpt>
      <trkpt lat="43.41454" lon="2.45745">
        <ele>1048.112</ele>
        <time>2021-05-24T11:26:04Z</time>
      </trkpt>
      <trkpt lat="43.41454" lon="2.45745">
        <ele>1048.113</ele>
        <time>2021-05-24T11:26:06Z</time>
      </trkpt>
      <trkpt lat="43.41454" lon="2.45745">
        <ele>1048.115</ele>
        <time>2021-05-24T11:26:08Z</time>
      </trkpt>
      <trkpt lat="43.41454" lon="2.45745">
        <ele>1048.117</ele>
        <time>2021-05-24T11:26:10Z</time>
      </trkpt>
      <trkpt lat="43.41454" lon="2.45745">
        <ele>1048.119</ele>
        <time>2021-05-24T11:26:12Z</time>
      </trkpt>
      <trkpt lat="43.41454" lon="2.45745">
        <ele>1048.119</ele>
        <time>2021-05-24T11:26:14Z</time>
      </trkpt>
      <trkpt lat="43.41454" lon="2.45745">
        <ele>1048.119</ele>
        <time>2021-05-24T11:26:16Z</time>
      </trkpt>
      <trkpt lat="43.41454" lon="2.45745">
        <ele>1048.12</ele>
        <time>2021-05-24T11:26:18Z</time>
      </trkpt>
      <trkpt lat="43.41454" lon="2.45745">
        <ele>1048.121</ele>
        <time>2021-05-24T11:26:20Z</time>
      </trkpt>
      <trkpt lat="43.41454" lon="2.45745">
        <ele>1048.121</ele>
        <time>2021-05-24T11:26:22Z</time>
      </trkpt>
      <trkpt lat="43.41454" lon="2.45745">
        <ele>1048.121</ele>
        <time>2021-05-24T11:26:24Z</time>
      </trkpt>
      <trkpt lat="43.41454" lon="2.45745">
        <ele>1048.121</ele>
        <time>2021-05-24T11:26:26Z</time>
      </trkpt>
      <trkpt lat="43.41454" lon="2.45745">
        <ele>1048.121</ele>
        <time>2021-05-24T11:26:28Z</time>
      </trkpt>
      <trkpt lat="43.41454" lon="2.45745">
        <ele>1048.12</ele>
        <time>2021-05-24T11:26:30Z</time>
      </trkpt>
      <trkpt lat="43.41454" lon="2.45745">
        <ele>1048.118</ele>
        <time>2021-05-24T11:26:32Z</time>
      </trkpt>
      <trkpt lat="43.41454" lon="2.45745">
        <ele>1048.119</ele>
        <time>2021-05-24T11:26:34Z</time>
      </trkpt>
      <trkpt lat="43.41454" lon="2.45745">
        <ele>1048.119</ele>
        <time>2021-05-24T11:26:36Z</time>
      </trkpt>
      <trkpt lat="43.41454" lon="2.45745">
        <ele>1048.119</ele>
        <time>2021-05-24T11:26:38Z</time>
      </trkpt>
      <trkpt lat="43.41454" lon="2.45746">
        <ele>1048.217</ele>
        <time>2021-05-24T11:26:40Z</time>
      </trkpt>
      <trkpt lat="43.41454" lon="2.45746">
        <ele>1047.345</ele>
        <time>2021-05-24T11:26:42Z</time>
      </trkpt>
      <trkpt lat="43.41454" lon="2.45745">
        <ele>1047.345</ele>
        <time>2021-05-24T11:26:44Z</time>
      </trkpt>
      <trkpt lat="43.41454" lon="2.45745">
        <ele>1047.338</ele>
        <time>2021-05-24T11:26:46Z</time>
      </trkpt>
      <trkpt lat="43.41454" lon="2.45745">
        <ele>1047.344</ele>
        <time>2021-05-24T11:26:48Z</time>
      </trkpt>
      <trkpt lat="43.41454" lon="2.45745">
        <ele>1047.343</ele>
        <time>2021-05-24T11:26:50Z</time>
      </trkpt>
      <trkpt lat="43.41454" lon="2.45745">
        <ele>1047.344</ele>
        <time>2021-05-24T11:26:52Z</time>
      </trkpt>
      <trkpt lat="43.41454" lon="2.45745">
        <ele>1047.342</ele>
        <time>2021-05-24T11:26:54Z</time>
      </trkpt>
      <trkpt lat="43.41454" lon="2.45746">
        <ele>1047.347</ele>
        <time>2021-05-24T11:26:56Z</time>
      </trkpt>
      <trkpt lat="43.41454" lon="2.45746">
        <ele>1047.349</ele>
        <time>2021-05-24T11:26:58Z</time>
      </trkpt>
      <trkpt lat="43.41454" lon="2.45746">
        <ele>1047.345</ele>
        <time>2021-05-24T11:27:00Z</time>
      </trkpt>
      <trkpt lat="43.41453" lon="2.45745">
        <ele>1047.301</ele>
        <time>2021-05-24T11:27:02Z</time>
      </trkpt>
      <trkpt lat="43.41453" lon="2.45745">
        <ele>1047.311</ele>
        <time>2021-05-24T11:27:04Z</time>
      </trkpt>
      <trkpt lat="43.41453" lon="2.45745">
        <ele>1047.312</ele>
        <time>2021-05-24T11:27:06Z</time>
      </trkpt>
      <trkpt lat="43.41453" lon="2.45745">
        <ele>1047.313</ele>
        <time>2021-05-24T11:27:08Z</time>
      </trkpt>
      <trkpt lat="43.41453" lon="2.45745">
        <ele>1047.314</ele>
        <time>2021-05-24T11:27:10Z</time>
      </trkpt>
      <trkpt lat="43.41453" lon="2.45745">
        <ele>1047.313</ele>
        <time>2021-05-24T11:27:12Z</time>
      </trkpt>
      <trkpt lat="43.41453" lon="2.45745">
        <ele>1047.308</ele>
        <time>2021-05-24T11:27:14Z</time>
      </trkpt>
      <trkpt lat="43.41453" lon="2.45745">
        <ele>1047.307</ele>
        <time>2021-05-24T11:27:16Z</time>
      </trkpt>
      <trkpt lat="43.41453" lon="2.45745">
        <ele>1047.306</ele>
        <time>2021-05-24T11:27:18Z</time>
      </trkpt>
      <trkpt lat="43.41453" lon="2.45745">
        <ele>1047.299</ele>
        <time>2021-05-24T11:27:20Z</time>
      </trkpt>
      <trkpt lat="43.41453" lon="2.45745">
        <ele>1047.298</ele>
        <time>2021-05-24T11:27:22Z</time>
      </trkpt>
      <trkpt lat="43.41453" lon="2.45745">
        <ele>1047.296</ele>
        <time>2021-05-24T11:27:24Z</time>
      </trkpt>
      <trkpt lat="43.41453" lon="2.45745">
        <ele>1047.298</ele>
        <time>2021-05-24T11:27:26Z</time>
      </trkpt>
      <trkpt lat="43.41453" lon="2.45745">
        <ele>1047.295</ele>
        <time>2021-05-24T11:27:28Z</time>
      </trkpt>
      <trkpt lat="43.41453" lon="2.45745">
        <ele>1047.297</ele>
        <time>2021-05-24T11:27:30Z</time>
      </trkpt>
      <trkpt lat="43.41453" lon="2.45745">
        <ele>1047.303</ele>
        <time>2021-05-24T11:27:32Z</time>
      </trkpt>
      <trkpt lat="43.41453" lon="2.45745">
        <ele>1047.305</ele>
        <time>2021-05-24T11:27:34Z</time>
      </trkpt>
      <trkpt lat="43.41453" lon="2.45745">
        <ele>1047.305</ele>
        <time>2021-05-24T11:27:36Z</time>
      </trkpt>
      <trkpt lat="43.41453" lon="2.45745">
        <ele>1047.306</ele>
        <time>2021-05-24T11:27:38Z</time>
      </trkpt>
      <trkpt lat="43.41453" lon="2.45745">
        <ele>1047.316</ele>
        <time>2021-05-24T11:27:40Z</time>
      </trkpt>
      <trkpt lat="43.41453" lon="2.45745">
        <ele>1047.322</ele>
        <time>2021-05-24T11:27:42Z</time>
      </trkpt>
      <trkpt lat="43.41453" lon="2.45745">
        <ele>1047.327</ele>
        <time>2021-05-24T11:27:44Z</time>
      </trkpt>
      <trkpt lat="43.41453" lon="2.45745">
        <ele>1047.212</ele>
        <time>2021-05-24T11:27:46Z</time>
      </trkpt>
      <trkpt lat="43.41454" lon="2.45746">
        <ele>1046.613</ele>
        <time>2021-05-24T11:27:48Z</time>
      </trkpt>
      <trkpt lat="43.41454" lon="2.45746">
        <ele>1046.61</ele>
        <time>2021-05-24T11:27:50Z</time>
      </trkpt>
      <trkpt lat="43.41454" lon="2.45746">
        <ele>1046.61</ele>
        <time>2021-05-24T11:27:52Z</time>
      </trkpt>
      <trkpt lat="43.41454" lon="2.45746">
        <ele>1046.617</ele>
        <time>2021-05-24T11:27:54Z</time>
      </trkpt>
      <trkpt lat="43.41454" lon="2.45746">
        <ele>1046.614</ele>
        <time>2021-05-24T11:27:56Z</time>
      </trkpt>
      <trkpt lat="43.41454" lon="2.45746">
        <ele>1046.617</ele>
        <time>2021-05-24T11:27:58Z</time>
      </trkpt>
      <trkpt lat="43.41454" lon="2.45746">
        <ele>1046.619</ele>
        <time>2021-05-24T11:28:00Z</time>
      </trkpt>
      <trkpt lat="43.41454" lon="2.45746">
        <ele>1046.622</ele>
        <time>2021-05-24T11:28:02Z</time>
      </trkpt>
      <trkpt lat="43.41454" lon="2.45746">
        <ele>1046.623</ele>
        <time>2021-05-24T11:28:04Z</time>
      </trkpt>
      <trkpt lat="43.41454" lon="2.45746">
        <ele>1046.623</ele>
        <time>2021-05-24T11:28:06Z</time>
      </trkpt>
      <trkpt lat="43.41454" lon="2.45746">
        <ele>1046.626</ele>
        <time>2021-05-24T11:28:08Z</time>
      </trkpt>
      <trkpt lat="43.41454" lon="2.45746">
        <ele>1046.623</ele>
        <time>2021-05-24T11:28:10Z</time>
      </trkpt>
      <trkpt lat="43.41454" lon="2.45746">
        <ele>1046.623</ele>
        <time>2021-05-24T11:28:12Z</time>
      </trkpt>
      <trkpt lat="43.41454" lon="2.45746">
        <ele>1046.623</ele>
        <time>2021-05-24T11:28:14Z</time>
      </trkpt>
      <trkpt lat="43.41454" lon="2.45746">
        <ele>1046.619</ele>
        <time>2021-05-24T11:28:16Z</time>
      </trkpt>
      <trkpt lat="43.41454" lon="2.45746">
        <ele>1046.625</ele>
        <time>2021-05-24T11:28:18Z</time>
      </trkpt>
      <trkpt lat="43.41454" lon="2.45746">
        <ele>1046.628</ele>
        <time>2021-05-24T11:28:20Z</time>
      </trkpt>
      <trkpt lat="43.41454" lon="2.45746">
        <ele>1046.628</ele>
        <time>2021-05-24T11:28:22Z</time>
      </trkpt>
      <trkpt lat="43.41454" lon="2.45746">
        <ele>1046.633</ele>
        <time>2021-05-24T11:28:24Z</time>
      </trkpt>
      <trkpt lat="43.41454" lon="2.45746">
        <ele>1046.635</ele>
        <time>2021-05-24T11:28:26Z</time>
      </trkpt>
      <trkpt lat="43.41454" lon="2.45746">
        <ele>1046.638</ele>
        <time>2021-05-24T11:28:28Z</time>
      </trkpt>
      <trkpt lat="43.41454" lon="2.45746">
        <ele>1046.641</ele>
        <time>2021-05-24T11:28:30Z</time>
      </trkpt>
      <trkpt lat="43.41454" lon="2.45746">
        <ele>1046.643</ele>
        <time>2021-05-24T11:28:32Z</time>
      </trkpt>
      <trkpt lat="43.41454" lon="2.45746">
        <ele>1046.648</ele>
        <time>2021-05-24T11:28:34Z</time>
      </trkpt>
      <trkpt lat="43.41454" lon="2.45746">
        <ele>1046.649</ele>
        <time>2021-05-24T11:28:36Z</time>
      </trkpt>
      <trkpt lat="43.41454" lon="2.45746">
        <ele>1046.641</ele>
        <time>2021-05-24T11:28:38Z</time>
      </trkpt>
      <trkpt lat="43.41454" lon="2.45746">
        <ele>1046.642</ele>
        <time>2021-05-24T11:28:40Z</time>
      </trkpt>
      <trkpt lat="43.41454" lon="2.45746">
        <ele>1046.647</ele>
        <time>2021-05-24T11:28:42Z</time>
      </trkpt>
      <trkpt lat="43.41454" lon="2.45746">
        <ele>1046.646</ele>
        <time>2021-05-24T11:28:44Z</time>
      </trkpt>
      <trkpt lat="43.41454" lon="2.45746">
        <ele>1046.646</ele>
        <time>2021-05-24T11:28:46Z</time>
      </trkpt>
      <trkpt lat="43.41454" lon="2.45746">
        <ele>1046.648</ele>
        <time>2021-05-24T11:28:48Z</time>
      </trkpt>
      <trkpt lat="43.41454" lon="2.45746">
        <ele>1046.652</ele>
        <time>2021-05-24T11:28:50Z</time>
      </trkpt>
      <trkpt lat="43.41454" lon="2.45746">
        <ele>1046.646</ele>
        <time>2021-05-24T11:28:52Z</time>
      </trkpt>
      <trkpt lat="43.41454" lon="2.45746">
        <ele>1046.646</ele>
        <time>2021-05-24T11:28:54Z</time>
      </trkpt>
      <trkpt lat="43.41454" lon="2.45746">
        <ele>1046.644</ele>
        <time>2021-05-24T11:28:56Z</time>
      </trkpt>
      <trkpt lat="43.41454" lon="2.45746">
        <ele>1046.643</ele>
        <time>2021-05-24T11:28:58Z</time>
      </trkpt>
      <trkpt lat="43.41454" lon="2.45746">
        <ele>1046.648</ele>
        <time>2021-05-24T11:29:00Z</time>
      </trkpt>
      <trkpt lat="43.41454" lon="2.45746">
        <ele>1046.654</ele>
        <time>2021-05-24T11:29:02Z</time>
      </trkpt>
      <trkpt lat="43.41454" lon="2.45746">
        <ele>1046.651</ele>
        <time>2021-05-24T11:29:04Z</time>
      </trkpt>
      <trkpt lat="43.41454" lon="2.45745">
        <ele>1046.901</ele>
        <time>2021-05-24T11:29:06Z</time>
      </trkpt>
      <trkpt lat="43.41454" lon="2.45745">
        <ele>1046.704</ele>
        <time>2021-05-24T11:29:08Z</time>
      </trkpt>
      <trkpt lat="43.41453" lon="2.45745">
        <ele>1046.827</ele>
        <time>2021-05-24T11:29:10Z</time>
      </trkpt>
      <trkpt lat="43.41453" lon="2.45746">
        <ele>1046.779</ele>
        <time>2021-05-24T11:29:12Z</time>
      </trkpt>
      <trkpt lat="43.41453" lon="2.45746">
        <ele>1046.845</ele>
        <time>2021-05-24T11:29:14Z</time>
      </trkpt>
      <trkpt lat="43.41453" lon="2.45746">
        <ele>1046.84</ele>
        <time>2021-05-24T11:29:16Z</time>
      </trkpt>
      <trkpt lat="43.41453" lon="2.45746">
        <ele>1046.841</ele>
        <time>2021-05-24T11:29:18Z</time>
      </trkpt>
      <trkpt lat="43.41453" lon="2.45746">
        <ele>1046.838</ele>
        <time>2021-05-24T11:29:20Z</time>
      </trkpt>
      <trkpt lat="43.41453" lon="2.45746">
        <ele>1046.842</ele>
        <time>2021-05-24T11:29:22Z</time>
      </trkpt>
      <trkpt lat="43.41453" lon="2.45746">
        <ele>1046.843</ele>
        <time>2021-05-24T11:29:24Z</time>
      </trkpt>
      <trkpt lat="43.41453" lon="2.45746">
        <ele>1046.85</ele>
        <time>2021-05-24T11:29:26Z</time>
      </trkpt>
      <trkpt lat="43.41453" lon="2.45746">
        <ele>1046.855</ele>
        <time>2021-05-24T11:29:28Z</time>
      </trkpt>
      <trkpt lat="43.41453" lon="2.45746">
        <ele>1046.857</ele>
        <time>2021-05-24T11:29:30Z</time>
      </trkpt>
      <trkpt lat="43.41453" lon="2.45746">
        <ele>1046.857</ele>
        <time>2021-05-24T11:29:32Z</time>
      </trkpt>
      <trkpt lat="43.41453" lon="2.45746">
        <ele>1046.768</ele>
        <time>2021-05-24T11:29:34Z</time>
      </trkpt>
      <trkpt lat="43.41453" lon="2.45746">
        <ele>1046.766</ele>
        <time>2021-05-24T11:29:36Z</time>
      </trkpt>
      <trkpt lat="43.41453" lon="2.45746">
        <ele>1046.764</ele>
        <time>2021-05-24T11:29:38Z</time>
      </trkpt>
      <trkpt lat="43.41453" lon="2.45746">
        <ele>1046.763</ele>
        <time>2021-05-24T11:29:40Z</time>
      </trkpt>
      <trkpt lat="43.41453" lon="2.45746">
        <ele>1046.76</ele>
        <time>2021-05-24T11:29:42Z</time>
      </trkpt>
      <trkpt lat="43.41453" lon="2.45746">
        <ele>1046.762</ele>
        <time>2021-05-24T11:29:44Z</time>
      </trkpt>
      <trkpt lat="43.41453" lon="2.45746">
        <ele>1046.761</ele>
        <time>2021-05-24T11:29:46Z</time>
      </trkpt>
      <trkpt lat="43.41453" lon="2.45746">
        <ele>1046.764</ele>
        <time>2021-05-24T11:29:48Z</time>
      </trkpt>
      <trkpt lat="43.41453" lon="2.45746">
        <ele>1046.768</ele>
        <time>2021-05-24T11:29:50Z</time>
      </trkpt>
      <trkpt lat="43.41453" lon="2.45746">
        <ele>1046.765</ele>
        <time>2021-05-24T11:29:52Z</time>
      </trkpt>
      <trkpt lat="43.41453" lon="2.45746">
        <ele>1046.766</ele>
        <time>2021-05-24T11:29:54Z</time>
      </trkpt>
      <trkpt lat="43.41453" lon="2.45746">
        <ele>1046.768</ele>
        <time>2021-05-24T11:29:56Z</time>
      </trkpt>
      <trkpt lat="43.41453" lon="2.45746">
        <ele>1046.765</ele>
        <time>2021-05-24T11:29:58Z</time>
      </trkpt>
      <trkpt lat="43.41453" lon="2.45746">
        <ele>1046.767</ele>
        <time>2021-05-24T11:30:00Z</time>
      </trkpt>
      <trkpt lat="43.41453" lon="2.45746">
        <ele>1046.767</ele>
        <time>2021-05-24T11:30:02Z</time>
      </trkpt>
      <trkpt lat="43.41453" lon="2.45746">
        <ele>1046.768</ele>
        <time>2021-05-24T11:30:04Z</time>
      </trkpt>
      <trkpt lat="43.41453" lon="2.45746">
        <ele>1046.771</ele>
        <time>2021-05-24T11:30:06Z</time>
      </trkpt>
      <trkpt lat="43.41453" lon="2.45746">
        <ele>1046.773</ele>
        <time>2021-05-24T11:30:08Z</time>
      </trkpt>
      <trkpt lat="43.41453" lon="2.45746">
        <ele>1046.773</ele>
        <time>2021-05-24T11:30:10Z</time>
      </trkpt>
      <trkpt lat="43.41453" lon="2.45746">
        <ele>1046.776</ele>
        <time>2021-05-24T11:30:12Z</time>
      </trkpt>
      <trkpt lat="43.41453" lon="2.45746">
        <ele>1046.774</ele>
        <time>2021-05-24T11:30:14Z</time>
      </trkpt>
      <trkpt lat="43.41453" lon="2.45746">
        <ele>1046.77</ele>
        <time>2021-05-24T11:30:16Z</time>
      </trkpt>
      <trkpt lat="43.41453" lon="2.45746">
        <ele>1046.768</ele>
        <time>2021-05-24T11:30:18Z</time>
      </trkpt>
      <trkpt lat="43.41453" lon="2.45746">
        <ele>1046.768</ele>
        <time>2021-05-24T11:30:20Z</time>
      </trkpt>
      <trkpt lat="43.41453" lon="2.45746">
        <ele>1046.766</ele>
        <time>2021-05-24T11:30:22Z</time>
      </trkpt>
      <trkpt lat="43.41453" lon="2.45746">
        <ele>1046.768</ele>
        <time>2021-05-24T11:30:24Z</time>
      </trkpt>
      <trkpt lat="43.41453" lon="2.45746">
        <ele>1046.766</ele>
        <time>2021-05-24T11:30:26Z</time>
      </trkpt>
      <trkpt lat="43.41453" lon="2.45746">
        <ele>1046.769</ele>
        <time>2021-05-24T11:30:28Z</time>
      </trkpt>
      <trkpt lat="43.41453" lon="2.45746">
        <ele>1046.767</ele>
        <time>2021-05-24T11:30:30Z</time>
      </trkpt>
      <trkpt lat="43.41453" lon="2.45746">
        <ele>1046.764</ele>
        <time>2021-05-24T11:30:32Z</time>
      </trkpt>
      <trkpt lat="43.41453" lon="2.45746">
        <ele>1046.768</ele>
        <time>2021-05-24T11:30:34Z</time>
      </trkpt>
      <trkpt lat="43.41453" lon="2.45746">
        <ele>1046.768</ele>
        <time>2021-05-24T11:30:36Z</time>
      </trkpt>
      <trkpt lat="43.41453" lon="2.45746">
        <ele>1046.764</ele>
        <time>2021-05-24T11:30:38Z</time>
      </trkpt>
      <trkpt lat="43.41453" lon="2.45746">
        <ele>1046.77</ele>
        <time>2021-05-24T11:30:40Z</time>
      </trkpt>
      <trkpt lat="43.41453" lon="2.45746">
        <ele>1046.765</ele>
        <time>2021-05-24T11:30:42Z</time>
      </trkpt>
      <trkpt lat="43.41453" lon="2.45746">
        <ele>1046.764</ele>
        <time>2021-05-24T11:30:44Z</time>
      </trkpt>
      <trkpt lat="43.41453" lon="2.45746">
        <ele>1046.761</ele>
        <time>2021-05-24T11:30:46Z</time>
      </trkpt>
      <trkpt lat="43.41453" lon="2.45746">
        <ele>1046.764</ele>
        <time>2021-05-24T11:30:48Z</time>
      </trkpt>
      <trkpt lat="43.41453" lon="2.45746">
        <ele>1046.768</ele>
        <time>2021-05-24T11:30:50Z</time>
      </trkpt>
      <trkpt lat="43.41453" lon="2.45746">
        <ele>1046.767</ele>
        <time>2021-05-24T11:30:52Z</time>
      </trkpt>
      <trkpt lat="43.41453" lon="2.45746">
        <ele>1046.765</ele>
        <time>2021-05-24T11:30:54Z</time>
      </trkpt>
      <trkpt lat="43.41453" lon="2.45746">
        <ele>1046.769</ele>
        <time>2021-05-24T11:30:56Z</time>
      </trkpt>
      <trkpt lat="43.41453" lon="2.45746">
        <ele>1047.162</ele>
        <time>2021-05-24T11:30:58Z</time>
      </trkpt>
      <trkpt lat="43.41453" lon="2.45746">
        <ele>1047.163</ele>
        <time>2021-05-24T11:31:00Z</time>
      </trkpt>
      <trkpt lat="43.41453" lon="2.45746">
        <ele>1047.158</ele>
        <time>2021-05-24T11:31:02Z</time>
      </trkpt>
      <trkpt lat="43.41453" lon="2.45746">
        <ele>1047.162</ele>
        <time>2021-05-24T11:31:04Z</time>
      </trkpt>
      <trkpt lat="43.41453" lon="2.45746">
        <ele>1047.163</ele>
        <time>2021-05-24T11:31:06Z</time>
      </trkpt>
      <trkpt lat="43.41453" lon="2.45746">
        <ele>1047.17</ele>
        <time>2021-05-24T11:31:08Z</time>
      </trkpt>
      <trkpt lat="43.41453" lon="2.45746">
        <ele>1047.17</ele>
        <time>2021-05-24T11:31:10Z</time>
      </trkpt>
      <trkpt lat="43.41453" lon="2.45746">
        <ele>1047.172</ele>
        <time>2021-05-24T11:31:12Z</time>
      </trkpt>
      <trkpt lat="43.41453" lon="2.45746">
        <ele>1047.216</ele>
        <time>2021-05-24T11:31:14Z</time>
      </trkpt>
      <trkpt lat="43.41453" lon="2.45746">
        <ele>1047.621</ele>
        <time>2021-05-24T11:31:16Z</time>
      </trkpt>
      <trkpt lat="43.41453" lon="2.45746">
        <ele>1047.817</ele>
        <time>2021-05-24T11:31:18Z</time>
      </trkpt>
      <trkpt lat="43.41455" lon="2.45744">
        <ele>1048.359</ele>
        <time>2021-05-24T11:31:20Z</time>
      </trkpt>
      <trkpt lat="43.41455" lon="2.45743">
        <ele>1048.16</ele>
        <time>2021-05-24T11:31:22Z</time>
      </trkpt>
      <trkpt lat="43.41455" lon="2.45742">
        <ele>1048.127</ele>
        <time>2021-05-24T11:31:24Z</time>
      </trkpt>
      <trkpt lat="43.41455" lon="2.45742">
        <ele>1048.126</ele>
        <time>2021-05-24T11:31:26Z</time>
      </trkpt>
      <trkpt lat="43.41455" lon="2.45742">
        <ele>1048.112</ele>
        <time>2021-05-24T11:31:28Z</time>
      </trkpt>
      <trkpt lat="43.41455" lon="2.45742">
        <ele>1048.116</ele>
        <time>2021-05-24T11:31:30Z</time>
      </trkpt>
      <trkpt lat="43.41455" lon="2.45742">
        <ele>1048.121</ele>
        <time>2021-05-24T11:31:32Z</time>
      </trkpt>
      <trkpt lat="43.41455" lon="2.45742">
        <ele>1048.12</ele>
        <time>2021-05-24T11:31:34Z</time>
      </trkpt>
      <trkpt lat="43.41455" lon="2.45742">
        <ele>1048.122</ele>
        <time>2021-05-24T11:31:36Z</time>
      </trkpt>
      <trkpt lat="43.41455" lon="2.45742">
        <ele>1048.131</ele>
        <time>2021-05-24T11:31:38Z</time>
      </trkpt>
      <trkpt lat="43.41455" lon="2.45742">
        <ele>1048.143</ele>
        <time>2021-05-24T11:31:40Z</time>
      </trkpt>
      <trkpt lat="43.41455" lon="2.45742">
        <ele>1048.145</ele>
        <time>2021-05-24T11:31:42Z</time>
      </trkpt>
      <trkpt lat="43.41455" lon="2.45742">
        <ele>1048.147</ele>
        <time>2021-05-24T11:31:44Z</time>
      </trkpt>
      <trkpt lat="43.41455" lon="2.45742">
        <ele>1048.14</ele>
        <time>2021-05-24T11:31:46Z</time>
      </trkpt>
      <trkpt lat="43.41455" lon="2.45742">
        <ele>1048.147</ele>
        <time>2021-05-24T11:31:48Z</time>
      </trkpt>
      <trkpt lat="43.41455" lon="2.45742">
        <ele>1048.142</ele>
        <time>2021-05-24T11:31:50Z</time>
      </trkpt>
      <trkpt lat="43.41455" lon="2.45742">
        <ele>1048.145</ele>
        <time>2021-05-24T11:31:52Z</time>
      </trkpt>
      <trkpt lat="43.41455" lon="2.45742">
        <ele>1048.143</ele>
        <time>2021-05-24T11:31:54Z</time>
      </trkpt>
      <trkpt lat="43.41455" lon="2.45742">
        <ele>1048.141</ele>
        <time>2021-05-24T11:31:56Z</time>
      </trkpt>
      <trkpt lat="43.41455" lon="2.45742">
        <ele>1048.139</ele>
        <time>2021-05-24T11:31:58Z</time>
      </trkpt>
      <trkpt lat="43.41455" lon="2.45742">
        <ele>1048.141</ele>
        <time>2021-05-24T11:32:00Z</time>
      </trkpt>
      <trkpt lat="43.41455" lon="2.45742">
        <ele>1048.134</ele>
        <time>2021-05-24T11:32:02Z</time>
      </trkpt>
      <trkpt lat="43.41455" lon="2.45742">
        <ele>1048.133</ele>
        <time>2021-05-24T11:32:04Z</time>
      </trkpt>
      <trkpt lat="43.41455" lon="2.45742">
        <ele>1048.127</ele>
        <time>2021-05-24T11:32:06Z</time>
      </trkpt>
      <trkpt lat="43.41455" lon="2.45742">
        <ele>1048.127</ele>
        <time>2021-05-24T11:32:08Z</time>
      </trkpt>
      <trkpt lat="43.41455" lon="2.45742">
        <ele>1048.123</ele>
        <time>2021-05-24T11:32:10Z</time>
      </trkpt>
      <trkpt lat="43.41455" lon="2.45742">
        <ele>1048.119</ele>
        <time>2021-05-24T11:32:12Z</time>
      </trkpt>
      <trkpt lat="43.41456" lon="2.45742">
        <ele>1047.914</ele>
        <time>2021-05-24T11:32:14Z</time>
      </trkpt>
      <trkpt lat="43.41456" lon="2.45741">
        <ele>1047.644</ele>
        <time>2021-05-24T11:32:16Z</time>
      </trkpt>
      <trkpt lat="43.41456" lon="2.45741">
        <ele>1047.646</ele>
        <time>2021-05-24T11:32:18Z</time>
      </trkpt>
      <trkpt lat="43.41456" lon="2.45741">
        <ele>1047.647</ele>
        <time>2021-05-24T11:32:20Z</time>
      </trkpt>
      <trkpt lat="43.41456" lon="2.45741">
        <ele>1047.757</ele>
        <time>2021-05-24T11:32:22Z</time>
      </trkpt>
      <trkpt lat="43.41456" lon="2.45741">
        <ele>1048.528</ele>
        <time>2021-05-24T11:32:24Z</time>
      </trkpt>
      <trkpt lat="43.41457" lon="2.45743">
        <ele>1047.527</ele>
        <time>2021-05-24T11:32:26Z</time>
      </trkpt>
      <trkpt lat="43.41455" lon="2.45746">
        <ele>1048.286</ele>
        <time>2021-05-24T11:32:28Z</time>
      </trkpt>
      <trkpt lat="43.41453" lon="2.45747">
        <ele>1048.861</ele>
        <time>2021-05-24T11:32:30Z</time>
      </trkpt>
      <trkpt lat="43.41451" lon="2.45747">
        <ele>1049.98</ele>
        <time>2021-05-24T11:32:32Z</time>
      </trkpt>
      <trkpt lat="43.41451" lon="2.45746">
        <ele>1049.611</ele>
        <time>2021-05-24T11:32:34Z</time>
      </trkpt>
      <trkpt lat="43.4145" lon="2.45746">
        <ele>1049.232</ele>
        <time>2021-05-24T11:32:36Z</time>
      </trkpt>
      <trkpt lat="43.4145" lon="2.45746">
        <ele>1049.423</ele>
        <time>2021-05-24T11:32:38Z</time>
      </trkpt>
      <trkpt lat="43.4145" lon="2.45746">
        <ele>1049.421</ele>
        <time>2021-05-24T11:32:40Z</time>
      </trkpt>
      <trkpt lat="43.4145" lon="2.45746">
        <ele>1049.421</ele>
        <time>2021-05-24T11:32:42Z</time>
      </trkpt>
      <trkpt lat="43.4145" lon="2.45746">
        <ele>1049.279</ele>
        <time>2021-05-24T11:32:44Z</time>
      </trkpt>
      <trkpt lat="43.4145" lon="2.45746">
        <ele>1049.143</ele>
        <time>2021-05-24T11:32:46Z</time>
      </trkpt>
      <trkpt lat="43.4145" lon="2.45746">
        <ele>1049.166</ele>
        <time>2021-05-24T11:32:48Z</time>
      </trkpt>
      <trkpt lat="43.4145" lon="2.45746">
        <ele>1049.164</ele>
        <time>2021-05-24T11:32:50Z</time>
      </trkpt>
      <trkpt lat="43.41451" lon="2.45745">
        <ele>1047.712</ele>
        <time>2021-05-24T11:32:52Z</time>
      </trkpt>
      <trkpt lat="43.41449" lon="2.45743">
        <ele>1046.439</ele>
        <time>2021-05-24T11:32:54Z</time>
      </trkpt>
      <trkpt lat="43.4145" lon="2.45743">
        <ele>1046.05</ele>
        <time>2021-05-24T11:32:56Z</time>
      </trkpt>
      <trkpt lat="43.4145" lon="2.45743">
        <ele>1046.051</ele>
        <time>2021-05-24T11:32:58Z</time>
      </trkpt>
      <trkpt lat="43.4145" lon="2.45745">
        <ele>1043.962</ele>
        <time>2021-05-24T11:33:00Z</time>
      </trkpt>
      <trkpt lat="43.41448" lon="2.45743">
        <ele>1046.978</ele>
        <time>2021-05-24T11:33:02Z</time>
      </trkpt>
      <trkpt lat="43.41447" lon="2.45745">
        <ele>1047.626</ele>
        <time>2021-05-24T11:33:04Z</time>
      </trkpt>
      <trkpt lat="43.41446" lon="2.45746">
        <ele>1049.046</ele>
        <time>2021-05-24T11:33:06Z</time>
      </trkpt>
      <trkpt lat="43.41447" lon="2.45746">
        <ele>1049.94</ele>
        <time>2021-05-24T11:33:08Z</time>
      </trkpt>
      <trkpt lat="43.41447" lon="2.45746">
        <ele>1049.943</ele>
        <time>2021-05-24T11:33:10Z</time>
      </trkpt>
      <trkpt lat="43.41447" lon="2.45746">
        <ele>1049.943</ele>
        <time>2021-05-24T11:33:12Z</time>
      </trkpt>
      <trkpt lat="43.41447" lon="2.45746">
        <ele>1049.946</ele>
        <time>2021-05-24T11:33:14Z</time>
      </trkpt>
      <trkpt lat="43.41447" lon="2.45746">
        <ele>1049.951</ele>
        <time>2021-05-24T11:33:16Z</time>
      </trkpt>
      <trkpt lat="43.41447" lon="2.45746">
        <ele>1049.951</ele>
        <time>2021-05-24T11:33:18Z</time>
      </trkpt>
      <trkpt lat="43.41447" lon="2.45746">
        <ele>1049.952</ele>
        <time>2021-05-24T11:33:20Z</time>
      </trkpt>
      <trkpt lat="43.41447" lon="2.45746">
        <ele>1049.955</ele>
        <time>2021-05-24T11:33:22Z</time>
      </trkpt>
      <trkpt lat="43.41447" lon="2.45746">
        <ele>1049.955</ele>
        <time>2021-05-24T11:33:24Z</time>
      </trkpt>
      <trkpt lat="43.41447" lon="2.45746">
        <ele>1049.954</ele>
        <time>2021-05-24T11:33:26Z</time>
      </trkpt>
      <trkpt lat="43.41447" lon="2.45746">
        <ele>1049.953</ele>
        <time>2021-05-24T11:33:28Z</time>
      </trkpt>
      <trkpt lat="43.41447" lon="2.45746">
        <ele>1049.957</ele>
        <time>2021-05-24T11:33:30Z</time>
      </trkpt>
      <trkpt lat="43.41447" lon="2.45746">
        <ele>1049.959</ele>
        <time>2021-05-24T11:33:32Z</time>
      </trkpt>
      <trkpt lat="43.41447" lon="2.45746">
        <ele>1049.956</ele>
        <time>2021-05-24T11:33:34Z</time>
      </trkpt>
      <trkpt lat="43.41447" lon="2.45746">
        <ele>1049.984</ele>
        <time>2021-05-24T11:33:36Z</time>
      </trkpt>
      <trkpt lat="43.41447" lon="2.45746">
        <ele>1049.02</ele>
        <time>2021-05-24T11:33:38Z</time>
      </trkpt>
      <trkpt lat="43.41446" lon="2.45746">
        <ele>1050.332</ele>
        <time>2021-05-24T11:33:40Z</time>
      </trkpt>
      <trkpt lat="43.41447" lon="2.45746">
        <ele>1050.369</ele>
        <time>2021-05-24T11:33:42Z</time>
      </trkpt>
      <trkpt lat="43.41447" lon="2.45746">
        <ele>1050.373</ele>
        <time>2021-05-24T11:33:44Z</time>
      </trkpt>
      <trkpt lat="43.41447" lon="2.45746">
        <ele>1050.369</ele>
        <time>2021-05-24T11:33:46Z</time>
      </trkpt>
      <trkpt lat="43.41447" lon="2.45746">
        <ele>1050.367</ele>
        <time>2021-05-24T11:33:48Z</time>
      </trkpt>
      <trkpt lat="43.41447" lon="2.45746">
        <ele>1050.366</ele>
        <time>2021-05-24T11:33:50Z</time>
      </trkpt>
      <trkpt lat="43.41447" lon="2.45746">
        <ele>1050.353</ele>
        <time>2021-05-24T11:33:52Z</time>
      </trkpt>
      <trkpt lat="43.41447" lon="2.45746">
        <ele>1050.357</ele>
        <time>2021-05-24T11:33:54Z</time>
      </trkpt>
      <trkpt lat="43.41447" lon="2.45746">
        <ele>1050.353</ele>
        <time>2021-05-24T11:33:56Z</time>
      </trkpt>
      <trkpt lat="43.41447" lon="2.45746">
        <ele>1050.348</ele>
        <time>2021-05-24T11:33:58Z</time>
      </trkpt>
      <trkpt lat="43.41447" lon="2.45746">
        <ele>1050.338</ele>
        <time>2021-05-24T11:34:00Z</time>
      </trkpt>
      <trkpt lat="43.41447" lon="2.45746">
        <ele>1050.331</ele>
        <time>2021-05-24T11:34:02Z</time>
      </trkpt>
      <trkpt lat="43.41447" lon="2.45746">
        <ele>1050.328</ele>
        <time>2021-05-24T11:34:04Z</time>
      </trkpt>
      <trkpt lat="43.41447" lon="2.45746">
        <ele>1050.323</ele>
        <time>2021-05-24T11:34:06Z</time>
      </trkpt>
      <trkpt lat="43.41447" lon="2.45746">
        <ele>1050.323</ele>
        <time>2021-05-24T11:34:08Z</time>
      </trkpt>
      <trkpt lat="43.41447" lon="2.45746">
        <ele>1050.627</ele>
        <time>2021-05-24T11:34:10Z</time>
      </trkpt>
      <trkpt lat="43.41446" lon="2.45744">
        <ele>1051.757</ele>
        <time>2021-05-24T11:34:12Z</time>
      </trkpt>
      <trkpt lat="43.41445" lon="2.45741">
        <ele>1051.476</ele>
        <time>2021-05-24T11:34:14Z</time>
      </trkpt>
      <trkpt lat="43.41445" lon="2.45741">
        <ele>1051.47</ele>
        <time>2021-05-24T11:34:16Z</time>
      </trkpt>
      <trkpt lat="43.41445" lon="2.45741">
        <ele>1051.771</ele>
        <time>2021-05-24T11:34:18Z</time>
      </trkpt>
      <trkpt lat="43.41446" lon="2.45742">
        <ele>1051.541</ele>
        <time>2021-05-24T11:34:20Z</time>
      </trkpt>
      <trkpt lat="43.41446" lon="2.45742">
        <ele>1051.522</ele>
        <time>2021-05-24T11:34:22Z</time>
      </trkpt>
      <trkpt lat="43.41446" lon="2.45742">
        <ele>1051.501</ele>
        <time>2021-05-24T11:34:24Z</time>
      </trkpt>
      <trkpt lat="43.41446" lon="2.45742">
        <ele>1051.48</ele>
        <time>2021-05-24T11:34:26Z</time>
      </trkpt>
      <trkpt lat="43.41446" lon="2.45742">
        <ele>1051.474</ele>
        <time>2021-05-24T11:34:28Z</time>
      </trkpt>
      <trkpt lat="43.41446" lon="2.45742">
        <ele>1051.472</ele>
        <time>2021-05-24T11:34:30Z</time>
      </trkpt>
      <trkpt lat="43.41446" lon="2.45742">
        <ele>1051.474</ele>
        <time>2021-05-24T11:34:32Z</time>
      </trkpt>
      <trkpt lat="43.41446" lon="2.45742">
        <ele>1051.466</ele>
        <time>2021-05-24T11:34:34Z</time>
      </trkpt>
      <trkpt lat="43.41447" lon="2.45742">
        <ele>1050.552</ele>
        <time>2021-05-24T11:34:36Z</time>
      </trkpt>
      <trkpt lat="43.41448" lon="2.45742">
        <ele>1050.448</ele>
        <time>2021-05-24T11:34:38Z</time>
      </trkpt>
      <trkpt lat="43.41448" lon="2.45742">
        <ele>1050.636</ele>
        <time>2021-05-24T11:34:40Z</time>
      </trkpt>
      <trkpt lat="43.41448" lon="2.45744">
        <ele>1050.11</ele>
        <time>2021-05-24T11:34:42Z</time>
      </trkpt>
      <trkpt lat="43.41449" lon="2.45744">
        <ele>1049.933</ele>
        <time>2021-05-24T11:34:44Z</time>
      </trkpt>
      <trkpt lat="43.41449" lon="2.45744">
        <ele>1049.577</ele>
        <time>2021-05-24T11:34:46Z</time>
      </trkpt>
      <trkpt lat="43.4145" lon="2.45744">
        <ele>1049.364</ele>
        <time>2021-05-24T11:34:48Z</time>
      </trkpt>
      <trkpt lat="43.41451" lon="2.45744">
        <ele>1049.371</ele>
        <time>2021-05-24T11:34:50Z</time>
      </trkpt>
      <trkpt lat="43.41451" lon="2.45744">
        <ele>1049.628</ele>
        <time>2021-05-24T11:34:52Z</time>
      </trkpt>
      <trkpt lat="43.41451" lon="2.45744">
        <ele>1049.923</ele>
        <time>2021-05-24T11:34:54Z</time>
      </trkpt>
      <trkpt lat="43.41451" lon="2.45744">
        <ele>1051.418</ele>
        <time>2021-05-24T11:34:56Z</time>
      </trkpt>
      <trkpt lat="43.41451" lon="2.45744">
        <ele>1051.416</ele>
        <time>2021-05-24T11:34:58Z</time>
      </trkpt>
      <trkpt lat="43.41451" lon="2.45744">
        <ele>1051.412</ele>
        <time>2021-05-24T11:35:00Z</time>
      </trkpt>
      <trkpt lat="43.41451" lon="2.45744">
        <ele>1051.413</ele>
        <time>2021-05-24T11:35:02Z</time>
      </trkpt>
      <trkpt lat="43.41451" lon="2.45744">
        <ele>1051.412</ele>
        <time>2021-05-24T11:35:04Z</time>
      </trkpt>
      <trkpt lat="43.41449" lon="2.45743">
        <ele>1051.99</ele>
        <time>2021-05-24T11:35:06Z</time>
      </trkpt>
      <trkpt lat="43.41448" lon="2.45742">
        <ele>1051.879</ele>
        <time>2021-05-24T11:35:08Z</time>
      </trkpt>
      <trkpt lat="43.41448" lon="2.45742">
        <ele>1051.878</ele>
        <time>2021-05-24T11:35:10Z</time>
      </trkpt>
      <trkpt lat="43.41448" lon="2.45742">
        <ele>1051.88</ele>
        <time>2021-05-24T11:35:12Z</time>
      </trkpt>
      <trkpt lat="43.41448" lon="2.45742">
        <ele>1051.876</ele>
        <time>2021-05-24T11:35:14Z</time>
      </trkpt>
      <trkpt lat="43.41448" lon="2.45742">
        <ele>1051.871</ele>
        <time>2021-05-24T11:35:16Z</time>
      </trkpt>
      <trkpt lat="43.41448" lon="2.45742">
        <ele>1051.87</ele>
        <time>2021-05-24T11:35:18Z</time>
      </trkpt>
      <trkpt lat="43.41448" lon="2.45742">
        <ele>1051.874</ele>
        <time>2021-05-24T11:35:20Z</time>
      </trkpt>
      <trkpt lat="43.41448" lon="2.45742">
        <ele>1051.884</ele>
        <time>2021-05-24T11:35:22Z</time>
      </trkpt>
      <trkpt lat="43.41448" lon="2.45741">
        <ele>1051.885</ele>
        <time>2021-05-24T11:35:24Z</time>
      </trkpt>
      <trkpt lat="43.41448" lon="2.45741">
        <ele>1051.891</ele>
        <time>2021-05-24T11:35:26Z</time>
      </trkpt>
      <trkpt lat="43.41448" lon="2.45741">
        <ele>1051.888</ele>
        <time>2021-05-24T11:35:28Z</time>
      </trkpt>
      <trkpt lat="43.41448" lon="2.45741">
        <ele>1051.884</ele>
        <time>2021-05-24T11:35:30Z</time>
      </trkpt>
      <trkpt lat="43.41448" lon="2.45742">
        <ele>1052.011</ele>
        <time>2021-05-24T11:35:32Z</time>
      </trkpt>
      <trkpt lat="43.41448" lon="2.45742">
        <ele>1052.013</ele>
        <time>2021-05-24T11:35:34Z</time>
      </trkpt>
      <trkpt lat="43.41448" lon="2.45742">
        <ele>1052.015</ele>
        <time>2021-05-24T11:35:36Z</time>
      </trkpt>
      <trkpt lat="43.41448" lon="2.45742">
        <ele>1052.02</ele>
        <time>2021-05-24T11:35:38Z</time>
      </trkpt>
      <trkpt lat="43.41448" lon="2.45742">
        <ele>1052.024</ele>
        <time>2021-05-24T11:35:40Z</time>
      </trkpt>
      <trkpt lat="43.41448" lon="2.45742">
        <ele>1052.021</ele>
        <time>2021-05-24T11:35:42Z</time>
      </trkpt>
      <trkpt lat="43.41448" lon="2.45742">
        <ele>1052.023</ele>
        <time>2021-05-24T11:35:44Z</time>
      </trkpt>
      <trkpt lat="43.41448" lon="2.45742">
        <ele>1050.916</ele>
        <time>2021-05-24T11:35:46Z</time>
      </trkpt>
      <trkpt lat="43.4145" lon="2.45743">
        <ele>1050.21</ele>
        <time>2021-05-24T11:35:48Z</time>
      </trkpt>
      <trkpt lat="43.41451" lon="2.45744">
        <ele>1050.564</ele>
        <time>2021-05-24T11:35:50Z</time>
      </trkpt>
      <trkpt lat="43.41451" lon="2.45743">
        <ele>1050.511</ele>
        <time>2021-05-24T11:35:52Z</time>
      </trkpt>
      <trkpt lat="43.41451" lon="2.45743">
        <ele>1050.785</ele>
        <time>2021-05-24T11:35:54Z</time>
      </trkpt>
      <trkpt lat="43.41451" lon="2.45743">
        <ele>1050.776</ele>
        <time>2021-05-24T11:35:56Z</time>
      </trkpt>
      <trkpt lat="43.41451" lon="2.45743">
        <ele>1050.77</ele>
        <time>2021-05-24T11:35:58Z</time>
      </trkpt>
      <trkpt lat="43.41451" lon="2.45743">
        <ele>1050.768</ele>
        <time>2021-05-24T11:36:00Z</time>
      </trkpt>
      <trkpt lat="43.41451" lon="2.45743">
        <ele>1050.761</ele>
        <time>2021-05-24T11:36:02Z</time>
      </trkpt>
      <trkpt lat="43.41451" lon="2.45743">
        <ele>1050.764</ele>
        <time>2021-05-24T11:36:04Z</time>
      </trkpt>
      <trkpt lat="43.41451" lon="2.45743">
        <ele>1050.761</ele>
        <time>2021-05-24T11:36:06Z</time>
      </trkpt>
      <trkpt lat="43.41451" lon="2.45743">
        <ele>1050.756</ele>
        <time>2021-05-24T11:36:08Z</time>
      </trkpt>
      <trkpt lat="43.41451" lon="2.45743">
        <ele>1050.749</ele>
        <time>2021-05-24T11:36:10Z</time>
      </trkpt>
      <trkpt lat="43.41451" lon="2.45743">
        <ele>1050.744</ele>
        <time>2021-05-24T11:36:12Z</time>
      </trkpt>
      <trkpt lat="43.41451" lon="2.45743">
        <ele>1050.746</ele>
        <time>2021-05-24T11:36:14Z</time>
      </trkpt>
      <trkpt lat="43.41451" lon="2.45743">
        <ele>1050.754</ele>
        <time>2021-05-24T11:36:16Z</time>
      </trkpt>
      <trkpt lat="43.41451" lon="2.45743">
        <ele>1050.749</ele>
        <time>2021-05-24T11:36:18Z</time>
      </trkpt>
      <trkpt lat="43.41451" lon="2.45743">
        <ele>1050.754</ele>
        <time>2021-05-24T11:36:20Z</time>
      </trkpt>
      <trkpt lat="43.41451" lon="2.45743">
        <ele>1050.748</ele>
        <time>2021-05-24T11:36:22Z</time>
      </trkpt>
      <trkpt lat="43.41451" lon="2.45743">
        <ele>1050.744</ele>
        <time>2021-05-24T11:36:24Z</time>
      </trkpt>
      <trkpt lat="43.41451" lon="2.45743">
        <ele>1050.735</ele>
        <time>2021-05-24T11:36:26Z</time>
      </trkpt>
      <trkpt lat="43.41451" lon="2.45743">
        <ele>1050.735</ele>
        <time>2021-05-24T11:36:28Z</time>
      </trkpt>
      <trkpt lat="43.41451" lon="2.45743">
        <ele>1050.739</ele>
        <time>2021-05-24T11:36:30Z</time>
      </trkpt>
      <trkpt lat="43.41451" lon="2.45743">
        <ele>1050.722</ele>
        <time>2021-05-24T11:36:32Z</time>
      </trkpt>
      <trkpt lat="43.41451" lon="2.45743">
        <ele>1050.729</ele>
        <time>2021-05-24T11:36:34Z</time>
      </trkpt>
      <trkpt lat="43.41451" lon="2.45743">
        <ele>1050.726</ele>
        <time>2021-05-24T11:36:36Z</time>
      </trkpt>
      <trkpt lat="43.41451" lon="2.45743">
        <ele>1050.722</ele>
        <time>2021-05-24T11:36:38Z</time>
      </trkpt>
      <trkpt lat="43.41451" lon="2.45743">
        <ele>1050.721</ele>
        <time>2021-05-24T11:36:40Z</time>
      </trkpt>
      <trkpt lat="43.41451" lon="2.45743">
        <ele>1050.719</ele>
        <time>2021-05-24T11:36:42Z</time>
      </trkpt>
      <trkpt lat="43.41451" lon="2.45743">
        <ele>1050.707</ele>
        <time>2021-05-24T11:36:44Z</time>
      </trkpt>
      <trkpt lat="43.41451" lon="2.45743">
        <ele>1050.704</ele>
        <time>2021-05-24T11:36:46Z</time>
      </trkpt>
      <trkpt lat="43.41451" lon="2.45743">
        <ele>1050.698</ele>
        <time>2021-05-24T11:36:48Z</time>
      </trkpt>
      <trkpt lat="43.41451" lon="2.45743">
        <ele>1050.693</ele>
        <time>2021-05-24T11:36:50Z</time>
      </trkpt>
      <trkpt lat="43.41451" lon="2.45743">
        <ele>1050.696</ele>
        <time>2021-05-24T11:36:52Z</time>
      </trkpt>
      <trkpt lat="43.41451" lon="2.45743">
        <ele>1050.694</ele>
        <time>2021-05-24T11:36:54Z</time>
      </trkpt>
      <trkpt lat="43.41451" lon="2.45743">
        <ele>1050.686</ele>
        <time>2021-05-24T11:36:56Z</time>
      </trkpt>
      <trkpt lat="43.41451" lon="2.45743">
        <ele>1050.678</ele>
        <time>2021-05-24T11:36:58Z</time>
      </trkpt>
      <trkpt lat="43.41451" lon="2.45743">
        <ele>1050.672</ele>
        <time>2021-05-24T11:37:00Z</time>
      </trkpt>
      <trkpt lat="43.41451" lon="2.45743">
        <ele>1050.666</ele>
        <time>2021-05-24T11:37:02Z</time>
      </trkpt>
      <trkpt lat="43.41451" lon="2.45743">
        <ele>1050.659</ele>
        <time>2021-05-24T11:37:04Z</time>
      </trkpt>
      <trkpt lat="43.41451" lon="2.45743">
        <ele>1050.651</ele>
        <time>2021-05-24T11:37:06Z</time>
      </trkpt>
      <trkpt lat="43.41451" lon="2.45743">
        <ele>1050.646</ele>
        <time>2021-05-24T11:37:08Z</time>
      </trkpt>
      <trkpt lat="43.41451" lon="2.45743">
        <ele>1050.638</ele>
        <time>2021-05-24T11:37:10Z</time>
      </trkpt>
      <trkpt lat="43.41451" lon="2.45743">
        <ele>1050.626</ele>
        <time>2021-05-24T11:37:12Z</time>
      </trkpt>
      <trkpt lat="43.41451" lon="2.45743">
        <ele>1050.62</ele>
        <time>2021-05-24T11:37:14Z</time>
      </trkpt>
      <trkpt lat="43.41451" lon="2.45743">
        <ele>1050.62</ele>
        <time>2021-05-24T11:37:16Z</time>
      </trkpt>
      <trkpt lat="43.41451" lon="2.45743">
        <ele>1050.619</ele>
        <time>2021-05-24T11:37:18Z</time>
      </trkpt>
      <trkpt lat="43.41451" lon="2.45743">
        <ele>1050.615</ele>
        <time>2021-05-24T11:37:20Z</time>
      </trkpt>
      <trkpt lat="43.41451" lon="2.45743">
        <ele>1050.612</ele>
        <time>2021-05-24T11:37:22Z</time>
      </trkpt>
      <trkpt lat="43.41451" lon="2.45743">
        <ele>1050.607</ele>
        <time>2021-05-24T11:37:24Z</time>
      </trkpt>
      <trkpt lat="43.41451" lon="2.45743">
        <ele>1050.612</ele>
        <time>2021-05-24T11:37:26Z</time>
      </trkpt>
      <trkpt lat="43.41451" lon="2.45743">
        <ele>1050.609</ele>
        <time>2021-05-24T11:37:28Z</time>
      </trkpt>
      <trkpt lat="43.41451" lon="2.45743">
        <ele>1050.603</ele>
        <time>2021-05-24T11:37:30Z</time>
      </trkpt>
      <trkpt lat="43.41451" lon="2.45743">
        <ele>1050.601</ele>
        <time>2021-05-24T11:37:32Z</time>
      </trkpt>
      <trkpt lat="43.41452" lon="2.45743">
        <ele>1050.603</ele>
        <time>2021-05-24T11:37:34Z</time>
      </trkpt>
      <trkpt lat="43.41452" lon="2.45743">
        <ele>1050.6</ele>
        <time>2021-05-24T11:37:36Z</time>
      </trkpt>
      <trkpt lat="43.41452" lon="2.45743">
        <ele>1050.598</ele>
        <time>2021-05-24T11:37:38Z</time>
      </trkpt>
      <trkpt lat="43.41452" lon="2.45743">
        <ele>1050.597</ele>
        <time>2021-05-24T11:37:40Z</time>
      </trkpt>
      <trkpt lat="43.41452" lon="2.45743">
        <ele>1050.598</ele>
        <time>2021-05-24T11:37:42Z</time>
      </trkpt>
      <trkpt lat="43.41452" lon="2.45743">
        <ele>1050.595</ele>
        <time>2021-05-24T11:37:44Z</time>
      </trkpt>
      <trkpt lat="43.41452" lon="2.45743">
        <ele>1050.59</ele>
        <time>2021-05-24T11:37:46Z</time>
      </trkpt>
      <trkpt lat="43.41452" lon="2.45743">
        <ele>1050.58</ele>
        <time>2021-05-24T11:37:48Z</time>
      </trkpt>
      <trkpt lat="43.41452" lon="2.45743">
        <ele>1050.573</ele>
        <time>2021-05-24T11:37:50Z</time>
      </trkpt>
      <trkpt lat="43.41452" lon="2.45743">
        <ele>1050.57</ele>
        <time>2021-05-24T11:37:52Z</time>
      </trkpt>
      <trkpt lat="43.41452" lon="2.45743">
        <ele>1050.571</ele>
        <time>2021-05-24T11:37:54Z</time>
      </trkpt>
      <trkpt lat="43.41452" lon="2.45743">
        <ele>1050.567</ele>
        <time>2021-05-24T11:37:56Z</time>
      </trkpt>
      <trkpt lat="43.41452" lon="2.45743">
        <ele>1050.566</ele>
        <time>2021-05-24T11:37:58Z</time>
      </trkpt>
      <trkpt lat="43.41452" lon="2.45743">
        <ele>1050.559</ele>
        <time>2021-05-24T11:38:00Z</time>
      </trkpt>
      <trkpt lat="43.41452" lon="2.45743">
        <ele>1050.558</ele>
        <time>2021-05-24T11:38:02Z</time>
      </trkpt>
      <trkpt lat="43.41452" lon="2.45743">
        <ele>1050.555</ele>
        <time>2021-05-24T11:38:04Z</time>
      </trkpt>
      <trkpt lat="43.41452" lon="2.45743">
        <ele>1050.551</ele>
        <time>2021-05-24T11:38:06Z</time>
      </trkpt>
      <trkpt lat="43.41452" lon="2.45743">
        <ele>1050.554</ele>
        <time>2021-05-24T11:38:08Z</time>
      </trkpt>
      <trkpt lat="43.41452" lon="2.45743">
        <ele>1050.55</ele>
        <time>2021-05-24T11:38:10Z</time>
      </trkpt>
      <trkpt lat="43.41452" lon="2.45743">
        <ele>1050.553</ele>
        <time>2021-05-24T11:38:12Z</time>
      </trkpt>
      <trkpt lat="43.41452" lon="2.45743">
        <ele>1050.551</ele>
        <time>2021-05-24T11:38:14Z</time>
      </trkpt>
      <trkpt lat="43.41452" lon="2.45743">
        <ele>1050.759</ele>
        <time>2021-05-24T11:38:16Z</time>
      </trkpt>
      <trkpt lat="43.41452" lon="2.45743">
        <ele>1050.739</ele>
        <time>2021-05-24T11:38:18Z</time>
      </trkpt>
      <trkpt lat="43.41452" lon="2.45743">
        <ele>1050.734</ele>
        <time>2021-05-24T11:38:20Z</time>
      </trkpt>
      <trkpt lat="43.41452" lon="2.45743">
        <ele>1050.733</ele>
        <time>2021-05-24T11:38:22Z</time>
      </trkpt>
      <trkpt lat="43.41452" lon="2.45743">
        <ele>1050.736</ele>
        <time>2021-05-24T11:38:24Z</time>
      </trkpt>
      <trkpt lat="43.41452" lon="2.45743">
        <ele>1050.735</ele>
        <time>2021-05-24T11:38:26Z</time>
      </trkpt>
      <trkpt lat="43.41452" lon="2.45743">
        <ele>1050.735</ele>
        <time>2021-05-24T11:38:28Z</time>
      </trkpt>
      <trkpt lat="43.41452" lon="2.45743">
        <ele>1050.734</ele>
        <time>2021-05-24T11:38:30Z</time>
      </trkpt>
      <trkpt lat="43.41452" lon="2.45743">
        <ele>1050.728</ele>
        <time>2021-05-24T11:38:32Z</time>
      </trkpt>
      <trkpt lat="43.41452" lon="2.45743">
        <ele>1050.729</ele>
        <time>2021-05-24T11:38:34Z</time>
      </trkpt>
      <trkpt lat="43.41452" lon="2.45743">
        <ele>1050.73</ele>
        <time>2021-05-24T11:38:36Z</time>
      </trkpt>
      <trkpt lat="43.41452" lon="2.45743">
        <ele>1050.622</ele>
        <time>2021-05-24T11:38:38Z</time>
      </trkpt>
      <trkpt lat="43.41452" lon="2.45743">
        <ele>1050.583</ele>
        <time>2021-05-24T11:38:39Z</time>
      </trkpt>
      <trkpt lat="43.41452" lon="2.45743">
        <ele>1050.108</ele>
        <time>2021-05-24T11:38:42Z</time>
      </trkpt>
      <trkpt lat="43.41452" lon="2.45743">
        <ele>1050.087</ele>
        <time>2021-05-24T11:38:44Z</time>
      </trkpt>
      <trkpt lat="43.41452" lon="2.45743">
        <ele>1050.085</ele>
        <time>2021-05-24T11:38:46Z</time>
      </trkpt>
      <trkpt lat="43.41452" lon="2.45743">
        <ele>1049.961</ele>
        <time>2021-05-24T11:38:48Z</time>
      </trkpt>
      <trkpt lat="43.41452" lon="2.45743">
        <ele>1049.367</ele>
        <time>2021-05-24T11:38:50Z</time>
      </trkpt>
      <trkpt lat="43.41452" lon="2.45743">
        <ele>1049.363</ele>
        <time>2021-05-24T11:38:52Z</time>
      </trkpt>
      <trkpt lat="43.41452" lon="2.45743">
        <ele>1049.357</ele>
        <time>2021-05-24T11:38:54Z</time>
      </trkpt>
      <trkpt lat="43.41452" lon="2.45743">
        <ele>1049.359</ele>
        <time>2021-05-24T11:38:56Z</time>
      </trkpt>
      <trkpt lat="43.41452" lon="2.45743">
        <ele>1049.358</ele>
        <time>2021-05-24T11:38:58Z</time>
      </trkpt>
      <trkpt lat="43.41452" lon="2.45743">
        <ele>1049.358</ele>
        <time>2021-05-24T11:39:00Z</time>
      </trkpt>
      <trkpt lat="43.41452" lon="2.45743">
        <ele>1049.357</ele>
        <time>2021-05-24T11:39:02Z</time>
      </trkpt>
      <trkpt lat="43.41452" lon="2.45743">
        <ele>1049.363</ele>
        <time>2021-05-24T11:39:04Z</time>
      </trkpt>
      <trkpt lat="43.41452" lon="2.45743">
        <ele>1049.368</ele>
        <time>2021-05-24T11:39:06Z</time>
      </trkpt>
      <trkpt lat="43.41452" lon="2.45743">
        <ele>1049.36</ele>
        <time>2021-05-24T11:39:08Z</time>
      </trkpt>
      <trkpt lat="43.41452" lon="2.45743">
        <ele>1049.361</ele>
        <time>2021-05-24T11:39:10Z</time>
      </trkpt>
      <trkpt lat="43.41452" lon="2.45743">
        <ele>1049.361</ele>
        <time>2021-05-24T11:39:12Z</time>
      </trkpt>
      <trkpt lat="43.41452" lon="2.45743">
        <ele>1049.364</ele>
        <time>2021-05-24T11:39:14Z</time>
      </trkpt>
      <trkpt lat="43.41452" lon="2.45743">
        <ele>1049.262</ele>
        <time>2021-05-24T11:39:16Z</time>
      </trkpt>
      <trkpt lat="43.41452" lon="2.45743">
        <ele>1049.263</ele>
        <time>2021-05-24T11:39:18Z</time>
      </trkpt>
      <trkpt lat="43.41452" lon="2.45743">
        <ele>1049.266</ele>
        <time>2021-05-24T11:39:20Z</time>
      </trkpt>
      <trkpt lat="43.41452" lon="2.45743">
        <ele>1049.259</ele>
        <time>2021-05-24T11:39:22Z</time>
      </trkpt>
      <trkpt lat="43.41452" lon="2.45743">
        <ele>1049.265</ele>
        <time>2021-05-24T11:39:24Z</time>
      </trkpt>
      <trkpt lat="43.41452" lon="2.45743">
        <ele>1049.268</ele>
        <time>2021-05-24T11:39:26Z</time>
      </trkpt>
      <trkpt lat="43.41452" lon="2.45743">
        <ele>1049.26</ele>
        <time>2021-05-24T11:39:28Z</time>
      </trkpt>
      <trkpt lat="43.41452" lon="2.45743">
        <ele>1049.259</ele>
        <time>2021-05-24T11:39:30Z</time>
      </trkpt>
      <trkpt lat="43.41452" lon="2.45743">
        <ele>1049.266</ele>
        <time>2021-05-24T11:39:32Z</time>
      </trkpt>
      <trkpt lat="43.41452" lon="2.45743">
        <ele>1049.264</ele>
        <time>2021-05-24T11:39:34Z</time>
      </trkpt>
      <trkpt lat="43.41452" lon="2.45743">
        <ele>1049.267</ele>
        <time>2021-05-24T11:39:36Z</time>
      </trkpt>
      <trkpt lat="43.41452" lon="2.45743">
        <ele>1049.274</ele>
        <time>2021-05-24T11:39:38Z</time>
      </trkpt>
      <trkpt lat="43.41452" lon="2.45743">
        <ele>1049.273</ele>
        <time>2021-05-24T11:39:40Z</time>
      </trkpt>
      <trkpt lat="43.41452" lon="2.45744">
        <ele>1049.259</ele>
        <time>2021-05-24T11:39:42Z</time>
      </trkpt>
      <trkpt lat="43.41452" lon="2.45744">
        <ele>1049.012</ele>
        <time>2021-05-24T11:39:44Z</time>
      </trkpt>
      <trkpt lat="43.41452" lon="2.45744">
        <ele>1049.016</ele>
        <time>2021-05-24T11:39:46Z</time>
      </trkpt>
      <trkpt lat="43.41452" lon="2.45744">
        <ele>1049.172</ele>
        <time>2021-05-24T11:39:48Z</time>
      </trkpt>
      <trkpt lat="43.41452" lon="2.45744">
        <ele>1049.962</ele>
        <time>2021-05-24T11:39:50Z</time>
      </trkpt>
      <trkpt lat="43.41451" lon="2.45744">
        <ele>1049.245</ele>
        <time>2021-05-24T11:39:52Z</time>
      </trkpt>
      <trkpt lat="43.4145" lon="2.45743">
        <ele>1048.856</ele>
        <time>2021-05-24T11:39:54Z</time>
      </trkpt>
      <trkpt lat="43.4145" lon="2.45743">
        <ele>1048.889</ele>
        <time>2021-05-24T11:39:56Z</time>
      </trkpt>
      <trkpt lat="43.4145" lon="2.45743">
        <ele>1048.894</ele>
        <time>2021-05-24T11:39:58Z</time>
      </trkpt>
      <trkpt lat="43.4145" lon="2.45743">
        <ele>1048.895</ele>
        <time>2021-05-24T11:40:00Z</time>
      </trkpt>
      <trkpt lat="43.4145" lon="2.45743">
        <ele>1048.893</ele>
        <time>2021-05-24T11:40:02Z</time>
      </trkpt>
      <trkpt lat="43.4145" lon="2.45743">
        <ele>1048.893</ele>
        <time>2021-05-24T11:40:04Z</time>
      </trkpt>
      <trkpt lat="43.4145" lon="2.45744">
        <ele>1047.032</ele>
        <time>2021-05-24T11:40:06Z</time>
      </trkpt>
      <trkpt lat="43.41447" lon="2.45742">
        <ele>1047.755</ele>
        <time>2021-05-24T11:40:08Z</time>
      </trkpt>
      <trkpt lat="43.41445" lon="2.4574">
        <ele>1047.2</ele>
        <time>2021-05-24T11:40:10Z</time>
      </trkpt>
      <trkpt lat="43.41444" lon="2.45741">
        <ele>1045.746</ele>
        <time>2021-05-24T11:40:12Z</time>
      </trkpt>
      <trkpt lat="43.41443" lon="2.45743">
        <ele>1046.603</ele>
        <time>2021-05-24T11:40:14Z</time>
      </trkpt>
      <trkpt lat="43.41444" lon="2.45745">
        <ele>1046.338</ele>
        <time>2021-05-24T11:40:16Z</time>
      </trkpt>
      <trkpt lat="43.41444" lon="2.45749">
        <ele>1048.024</ele>
        <time>2021-05-24T11:40:18Z</time>
      </trkpt>
      <trkpt lat="43.41445" lon="2.4575">
        <ele>1048.88</ele>
        <time>2021-05-24T11:40:19Z</time>
      </trkpt>
      <trkpt lat="43.41446" lon="2.45754">
        <ele>1051.07</ele>
        <time>2021-05-24T11:40:22Z</time>
      </trkpt>
      <trkpt lat="43.41446" lon="2.45756">
        <ele>1052.63</ele>
        <time>2021-05-24T11:40:24Z</time>
      </trkpt>
      <trkpt lat="43.41445" lon="2.45757">
        <ele>1053.279</ele>
        <time>2021-05-24T11:40:26Z</time>
      </trkpt>
      <trkpt lat="43.41445" lon="2.45758">
        <ele>1052.911</ele>
        <time>2021-05-24T11:40:28Z</time>
      </trkpt>
      <trkpt lat="43.41446" lon="2.4576">
        <ele>1053.265</ele>
        <time>2021-05-24T11:40:30Z</time>
      </trkpt>
      <trkpt lat="43.41446" lon="2.45761">
        <ele>1053.134</ele>
        <time>2021-05-24T11:40:32Z</time>
      </trkpt>
      <trkpt lat="43.41446" lon="2.45762">
        <ele>1054.197</ele>
        <time>2021-05-24T11:40:34Z</time>
      </trkpt>
      <trkpt lat="43.41445" lon="2.45765">
        <ele>1054.278</ele>
        <time>2021-05-24T11:40:36Z</time>
      </trkpt>
      <trkpt lat="43.41445" lon="2.45767">
        <ele>1055.322</ele>
        <time>2021-05-24T11:40:38Z</time>
      </trkpt>
      <trkpt lat="43.41443" lon="2.45768">
        <ele>1056.381</ele>
        <time>2021-05-24T11:40:40Z</time>
      </trkpt>
      <trkpt lat="43.41444" lon="2.45766">
        <ele>1054.111</ele>
        <time>2021-05-24T11:40:42Z</time>
      </trkpt>
      <trkpt lat="43.41444" lon="2.45764">
        <ele>1054.288</ele>
        <time>2021-05-24T11:40:44Z</time>
      </trkpt>
      <trkpt lat="43.41444" lon="2.45761">
        <ele>1054.107</ele>
        <time>2021-05-24T11:40:46Z</time>
      </trkpt>
      <trkpt lat="43.41444" lon="2.45761">
        <ele>1052.84</ele>
        <time>2021-05-24T11:40:48Z</time>
      </trkpt>
      <trkpt lat="43.41444" lon="2.45762">
        <ele>1052.249</ele>
        <time>2021-05-24T11:40:50Z</time>
      </trkpt>
      <trkpt lat="43.41444" lon="2.45762">
        <ele>1052.122</ele>
        <time>2021-05-24T11:40:52Z</time>
      </trkpt>
      <trkpt lat="43.41441" lon="2.45763">
        <ele>1052.341</ele>
        <time>2021-05-24T11:40:54Z</time>
      </trkpt>
      <trkpt lat="43.41437" lon="2.45762">
        <ele>1051.672</ele>
        <time>2021-05-24T11:40:57Z</time>
      </trkpt>
      <trkpt lat="43.41436" lon="2.45763">
        <ele>1053.336</ele>
        <time>2021-05-24T11:40:59Z</time>
      </trkpt>
      <trkpt lat="43.41435" lon="2.45762">
        <ele>1053.036</ele>
        <time>2021-05-24T11:41:01Z</time>
      </trkpt>
      <trkpt lat="43.41434" lon="2.45762">
        <ele>1051.778</ele>
        <time>2021-05-24T11:41:03Z</time>
      </trkpt>
      <trkpt lat="43.41433" lon="2.45761">
        <ele>1052.747</ele>
        <time>2021-05-24T11:41:05Z</time>
      </trkpt>
      <trkpt lat="43.41434" lon="2.45761">
        <ele>1050.487</ele>
        <time>2021-05-24T11:41:07Z</time>
      </trkpt>
      <trkpt lat="43.41434" lon="2.45758">
        <ele>1051.911</ele>
        <time>2021-05-24T11:41:09Z</time>
      </trkpt>
      <trkpt lat="43.41433" lon="2.45756">
        <ele>1052.696</ele>
        <time>2021-05-24T11:41:11Z</time>
      </trkpt>
      <trkpt lat="43.41431" lon="2.45756">
        <ele>1053.695</ele>
        <time>2021-05-24T11:41:14Z</time>
      </trkpt>
      <trkpt lat="43.4143" lon="2.45757">
        <ele>1052.221</ele>
        <time>2021-05-24T11:41:16Z</time>
      </trkpt>
      <trkpt lat="43.41428" lon="2.45757">
        <ele>1051.408</ele>
        <time>2021-05-24T11:41:18Z</time>
      </trkpt>
      <trkpt lat="43.41426" lon="2.45758">
        <ele>1051.297</ele>
        <time>2021-05-24T11:41:20Z</time>
      </trkpt>
      <trkpt lat="43.41425" lon="2.45759">
        <ele>1049.158</ele>
        <time>2021-05-24T11:41:22Z</time>
      </trkpt>
      <trkpt lat="43.41424" lon="2.45761">
        <ele>1047.178</ele>
        <time>2021-05-24T11:41:24Z</time>
      </trkpt>
      <trkpt lat="43.41422" lon="2.45763">
        <ele>1046.154</ele>
        <time>2021-05-24T11:41:26Z</time>
      </trkpt>
      <trkpt lat="43.4142" lon="2.45765">
        <ele>1044.161</ele>
        <time>2021-05-24T11:41:28Z</time>
      </trkpt>
      <trkpt lat="43.41416" lon="2.45767">
        <ele>1043.002</ele>
        <time>2021-05-24T11:41:31Z</time>
      </trkpt>
      <trkpt lat="43.41414" lon="2.45767">
        <ele>1043.507</ele>
        <time>2021-05-24T11:41:33Z</time>
      </trkpt>
      <trkpt lat="43.41413" lon="2.45766">
        <ele>1042.993</ele>
        <time>2021-05-24T11:41:35Z</time>
      </trkpt>
      <trkpt lat="43.41412" lon="2.45765">
        <ele>1043.087</ele>
        <time>2021-05-24T11:41:37Z</time>
      </trkpt>
      <trkpt lat="43.4141" lon="2.45764">
        <ele>1042.955</ele>
        <time>2021-05-24T11:41:39Z</time>
      </trkpt>
      <trkpt lat="43.41409" lon="2.45764">
        <ele>1041.161</ele>
        <time>2021-05-24T11:41:41Z</time>
      </trkpt>
      <trkpt lat="43.41408" lon="2.45765">
        <ele>1040.921</ele>
        <time>2021-05-24T11:41:43Z</time>
      </trkpt>
      <trkpt lat="43.41406" lon="2.45765">
        <ele>1040.659</ele>
        <time>2021-05-24T11:41:45Z</time>
      </trkpt>
      <trkpt lat="43.41404" lon="2.45766">
        <ele>1041.162</ele>
        <time>2021-05-24T11:41:47Z</time>
      </trkpt>
      <trkpt lat="43.41402" lon="2.45766">
        <ele>1041.391</ele>
        <time>2021-05-24T11:41:49Z</time>
      </trkpt>
      <trkpt lat="43.414" lon="2.45767">
        <ele>1040.105</ele>
        <time>2021-05-24T11:41:51Z</time>
      </trkpt>
      <trkpt lat="43.41399" lon="2.45766">
        <ele>1039.502</ele>
        <time>2021-05-24T11:41:53Z</time>
      </trkpt>
      <trkpt lat="43.41399" lon="2.45764">
        <ele>1037.621</ele>
        <time>2021-05-24T11:41:55Z</time>
      </trkpt>
      <trkpt lat="43.41398" lon="2.45763">
        <ele>1037.749</ele>
        <time>2021-05-24T11:41:57Z</time>
      </trkpt>
      <trkpt lat="43.41396" lon="2.45763">
        <ele>1036.466</ele>
        <time>2021-05-24T11:41:59Z</time>
      </trkpt>
      <trkpt lat="43.41395" lon="2.45763">
        <ele>1036.076</ele>
        <time>2021-05-24T11:42:01Z</time>
      </trkpt>
      <trkpt lat="43.41393" lon="2.45762">
        <ele>1035.548</ele>
        <time>2021-05-24T11:42:03Z</time>
      </trkpt>
      <trkpt lat="43.41391" lon="2.45763">
        <ele>1033.793</ele>
        <time>2021-05-24T11:42:05Z</time>
      </trkpt>
      <trkpt lat="43.4139" lon="2.45761">
        <ele>1032.651</ele>
        <time>2021-05-24T11:42:07Z</time>
      </trkpt>
      <trkpt lat="43.4139" lon="2.45759">
        <ele>1032.191</ele>
        <time>2021-05-24T11:42:09Z</time>
      </trkpt>
      <trkpt lat="43.4139" lon="2.45757">
        <ele>1031.237</ele>
        <time>2021-05-24T11:42:11Z</time>
      </trkpt>
      <trkpt lat="43.41389" lon="2.45755">
        <ele>1030.385</ele>
        <time>2021-05-24T11:42:13Z</time>
      </trkpt>
      <trkpt lat="43.41388" lon="2.45754">
        <ele>1029.914</ele>
        <time>2021-05-24T11:42:15Z</time>
      </trkpt>
      <trkpt lat="43.41387" lon="2.45752">
        <ele>1030.648</ele>
        <time>2021-05-24T11:42:17Z</time>
      </trkpt>
      <trkpt lat="43.41386" lon="2.4575">
        <ele>1030.364</ele>
        <time>2021-05-24T11:42:19Z</time>
      </trkpt>
      <trkpt lat="43.41385" lon="2.45746">
        <ele>1030.694</ele>
        <time>2021-05-24T11:42:21Z</time>
      </trkpt>
      <trkpt lat="43.41383" lon="2.45745">
        <ele>1030.921</ele>
        <time>2021-05-24T11:42:23Z</time>
      </trkpt>
      <trkpt lat="43.41381" lon="2.45744">
        <ele>1030.482</ele>
        <time>2021-05-24T11:42:25Z</time>
      </trkpt>
      <trkpt lat="43.41379" lon="2.45744">
        <ele>1029</ele>
        <time>2021-05-24T11:42:27Z</time>
      </trkpt>
      <trkpt lat="43.41377" lon="2.45743">
        <ele>1029.071</ele>
        <time>2021-05-24T11:42:29Z</time>
      </trkpt>
      <trkpt lat="43.41376" lon="2.45741">
        <ele>1028.889</ele>
        <time>2021-05-24T11:42:31Z</time>
      </trkpt>
      <trkpt lat="43.41375" lon="2.45737">
        <ele>1026.62</ele>
        <time>2021-05-24T11:42:34Z</time>
      </trkpt>
      <trkpt lat="43.41375" lon="2.45735">
        <ele>1024.492</ele>
        <time>2021-05-24T11:42:36Z</time>
      </trkpt>
      <trkpt lat="43.41375" lon="2.45732">
        <ele>1023.919</ele>
        <time>2021-05-24T11:42:38Z</time>
      </trkpt>
      <trkpt lat="43.41375" lon="2.45729">
        <ele>1023.305</ele>
        <time>2021-05-24T11:42:40Z</time>
      </trkpt>
      <trkpt lat="43.41375" lon="2.45726">
        <ele>1022.301</ele>
        <time>2021-05-24T11:42:42Z</time>
      </trkpt>
      <trkpt lat="43.41375" lon="2.45724">
        <ele>1021.72</ele>
        <time>2021-05-24T11:42:44Z</time>
      </trkpt>
      <trkpt lat="43.41376" lon="2.45721">
        <ele>1020.55</ele>
        <time>2021-05-24T11:42:46Z</time>
      </trkpt>
      <trkpt lat="43.41376" lon="2.45718">
        <ele>1020.212</ele>
        <time>2021-05-24T11:42:48Z</time>
      </trkpt>
      <trkpt lat="43.41376" lon="2.45715">
        <ele>1021.23</ele>
        <time>2021-05-24T11:42:50Z</time>
      </trkpt>
      <trkpt lat="43.41375" lon="2.45712">
        <ele>1020.469</ele>
        <time>2021-05-24T11:42:52Z</time>
      </trkpt>
      <trkpt lat="43.41374" lon="2.4571">
        <ele>1019.836</ele>
        <time>2021-05-24T11:42:54Z</time>
      </trkpt>
      <trkpt lat="43.41372" lon="2.45708">
        <ele>1019.464</ele>
        <time>2021-05-24T11:42:56Z</time>
      </trkpt>
      <trkpt lat="43.41371" lon="2.45706">
        <ele>1019.336</ele>
        <time>2021-05-24T11:42:58Z</time>
      </trkpt>
      <trkpt lat="43.4137" lon="2.45702">
        <ele>1019.583</ele>
        <time>2021-05-24T11:43:00Z</time>
      </trkpt>
      <trkpt lat="43.41368" lon="2.457">
        <ele>1018.023</ele>
        <time>2021-05-24T11:43:02Z</time>
      </trkpt>
      <trkpt lat="43.41366" lon="2.45698">
        <ele>1016.587</ele>
        <time>2021-05-24T11:43:04Z</time>
      </trkpt>
      <trkpt lat="43.41365" lon="2.45696">
        <ele>1016.382</ele>
        <time>2021-05-24T11:43:06Z</time>
      </trkpt>
      <trkpt lat="43.41363" lon="2.45693">
        <ele>1015.582</ele>
        <time>2021-05-24T11:43:08Z</time>
      </trkpt>
      <trkpt lat="43.41362" lon="2.45692">
        <ele>1015.773</ele>
        <time>2021-05-24T11:43:10Z</time>
      </trkpt>
      <trkpt lat="43.4136" lon="2.45691">
        <ele>1015.386</ele>
        <time>2021-05-24T11:43:12Z</time>
      </trkpt>
      <trkpt lat="43.41358" lon="2.45687">
        <ele>1015.221</ele>
        <time>2021-05-24T11:43:14Z</time>
      </trkpt>
      <trkpt lat="43.41357" lon="2.45685">
        <ele>1014.007</ele>
        <time>2021-05-24T11:43:16Z</time>
      </trkpt>
      <trkpt lat="43.41355" lon="2.45684">
        <ele>1012.997</ele>
        <time>2021-05-24T11:43:18Z</time>
      </trkpt>
      <trkpt lat="43.41354" lon="2.45681">
        <ele>1011.672</ele>
        <time>2021-05-24T11:43:20Z</time>
      </trkpt>
      <trkpt lat="43.41354" lon="2.45678">
        <ele>1010.934</ele>
        <time>2021-05-24T11:43:22Z</time>
      </trkpt>
      <trkpt lat="43.41353" lon="2.45674">
        <ele>1009.739</ele>
        <time>2021-05-24T11:43:24Z</time>
      </trkpt>
      <trkpt lat="43.41351" lon="2.45673">
        <ele>1009.322</ele>
        <time>2021-05-24T11:43:26Z</time>
      </trkpt>
      <trkpt lat="43.41349" lon="2.45671">
        <ele>1007.686</ele>
        <time>2021-05-24T11:43:28Z</time>
      </trkpt>
      <trkpt lat="43.41347" lon="2.4567">
        <ele>1007.213</ele>
        <time>2021-05-24T11:43:30Z</time>
      </trkpt>
      <trkpt lat="43.41345" lon="2.45668">
        <ele>1005.905</ele>
        <time>2021-05-24T11:43:32Z</time>
      </trkpt>
      <trkpt lat="43.41343" lon="2.45667">
        <ele>1006.822</ele>
        <time>2021-05-24T11:43:34Z</time>
      </trkpt>
      <trkpt lat="43.41341" lon="2.45666">
        <ele>1006.507</ele>
        <time>2021-05-24T11:43:36Z</time>
      </trkpt>
      <trkpt lat="43.4134" lon="2.45665">
        <ele>1004.971</ele>
        <time>2021-05-24T11:43:38Z</time>
      </trkpt>
      <trkpt lat="43.41339" lon="2.45662">
        <ele>1004.334</ele>
        <time>2021-05-24T11:43:40Z</time>
      </trkpt>
      <trkpt lat="43.41338" lon="2.45659">
        <ele>1001.435</ele>
        <time>2021-05-24T11:43:42Z</time>
      </trkpt>
      <trkpt lat="43.41338" lon="2.45656">
        <ele>999.281</ele>
        <time>2021-05-24T11:43:44Z</time>
      </trkpt>
      <trkpt lat="43.41337" lon="2.45653">
        <ele>997.734</ele>
        <time>2021-05-24T11:43:46Z</time>
      </trkpt>
      <trkpt lat="43.41337" lon="2.4565">
        <ele>997.277</ele>
        <time>2021-05-24T11:43:48Z</time>
      </trkpt>
      <trkpt lat="43.41337" lon="2.45646">
        <ele>997.57</ele>
        <time>2021-05-24T11:43:50Z</time>
      </trkpt>
      <trkpt lat="43.41337" lon="2.45644">
        <ele>997.172</ele>
        <time>2021-05-24T11:43:52Z</time>
      </trkpt>
      <trkpt lat="43.41337" lon="2.45641">
        <ele>995.593</ele>
        <time>2021-05-24T11:43:54Z</time>
      </trkpt>
      <trkpt lat="43.41337" lon="2.45638">
        <ele>995.587</ele>
        <time>2021-05-24T11:43:56Z</time>
      </trkpt>
      <trkpt lat="43.41338" lon="2.45636">
        <ele>994.67</ele>
        <time>2021-05-24T11:43:58Z</time>
      </trkpt>
      <trkpt lat="43.41338" lon="2.45633">
        <ele>994.524</ele>
        <time>2021-05-24T11:44:00Z</time>
      </trkpt>
      <trkpt lat="43.41338" lon="2.4563">
        <ele>993.786</ele>
        <time>2021-05-24T11:44:02Z</time>
      </trkpt>
      <trkpt lat="43.41338" lon="2.45626">
        <ele>992.526</ele>
        <time>2021-05-24T11:44:04Z</time>
      </trkpt>
      <trkpt lat="43.41337" lon="2.45623">
        <ele>992.84</ele>
        <time>2021-05-24T11:44:06Z</time>
      </trkpt>
      <trkpt lat="43.41337" lon="2.45619">
        <ele>991.939</ele>
        <time>2021-05-24T11:44:08Z</time>
      </trkpt>
      <trkpt lat="43.41337" lon="2.45616">
        <ele>991.373</ele>
        <time>2021-05-24T11:44:10Z</time>
      </trkpt>
      <trkpt lat="43.41336" lon="2.45613">
        <ele>990.714</ele>
        <time>2021-05-24T11:44:12Z</time>
      </trkpt>
      <trkpt lat="43.41335" lon="2.4561">
        <ele>988.435</ele>
        <time>2021-05-24T11:44:14Z</time>
      </trkpt>
      <trkpt lat="43.41334" lon="2.45608">
        <ele>986.389</ele>
        <time>2021-05-24T11:44:16Z</time>
      </trkpt>
      <trkpt lat="43.41335" lon="2.45604">
        <ele>984.9</ele>
        <time>2021-05-24T11:44:18Z</time>
      </trkpt>
      <trkpt lat="43.41335" lon="2.45601">
        <ele>984.291</ele>
        <time>2021-05-24T11:44:20Z</time>
      </trkpt>
      <trkpt lat="43.41334" lon="2.45598">
        <ele>984.438</ele>
        <time>2021-05-24T11:44:22Z</time>
      </trkpt>
      <trkpt lat="43.41333" lon="2.45593">
        <ele>984.516</ele>
        <time>2021-05-24T11:44:25Z</time>
      </trkpt>
      <trkpt lat="43.41333" lon="2.45589">
        <ele>984.65</ele>
        <time>2021-05-24T11:44:28Z</time>
      </trkpt>
      <trkpt lat="43.41332" lon="2.45586">
        <ele>984.694</ele>
        <time>2021-05-24T11:44:30Z</time>
      </trkpt>
      <trkpt lat="43.41331" lon="2.45583">
        <ele>985.207</ele>
        <time>2021-05-24T11:44:32Z</time>
      </trkpt>
      <trkpt lat="43.4133" lon="2.45578">
        <ele>985.953</ele>
        <time>2021-05-24T11:44:34Z</time>
      </trkpt>
      <trkpt lat="43.4133" lon="2.45575">
        <ele>985.81</ele>
        <time>2021-05-24T11:44:36Z</time>
      </trkpt>
      <trkpt lat="43.41329" lon="2.45572">
        <ele>984.204</ele>
        <time>2021-05-24T11:44:38Z</time>
      </trkpt>
      <trkpt lat="43.41327" lon="2.4557">
        <ele>984.487</ele>
        <time>2021-05-24T11:44:40Z</time>
      </trkpt>
      <trkpt lat="43.41325" lon="2.45569">
        <ele>983.035</ele>
        <time>2021-05-24T11:44:42Z</time>
      </trkpt>
      <trkpt lat="43.41323" lon="2.45567">
        <ele>982.625</ele>
        <time>2021-05-24T11:44:44Z</time>
      </trkpt>
      <trkpt lat="43.41322" lon="2.45564">
        <ele>981.983</ele>
        <time>2021-05-24T11:44:46Z</time>
      </trkpt>
      <trkpt lat="43.41322" lon="2.45561">
        <ele>979.482</ele>
        <time>2021-05-24T11:44:48Z</time>
      </trkpt>
      <trkpt lat="43.41321" lon="2.45558">
        <ele>978.478</ele>
        <time>2021-05-24T11:44:50Z</time>
      </trkpt>
      <trkpt lat="43.4132" lon="2.45558">
        <ele>978.007</ele>
        <time>2021-05-24T11:44:52Z</time>
      </trkpt>
      <trkpt lat="43.41318" lon="2.45557">
        <ele>975.844</ele>
        <time>2021-05-24T11:44:54Z</time>
      </trkpt>
      <trkpt lat="43.41316" lon="2.45555">
        <ele>974.766</ele>
        <time>2021-05-24T11:44:56Z</time>
      </trkpt>
      <trkpt lat="43.41316" lon="2.45551">
        <ele>975.079</ele>
        <time>2021-05-24T11:44:58Z</time>
      </trkpt>
      <trkpt lat="43.41314" lon="2.45548">
        <ele>973.63</ele>
        <time>2021-05-24T11:45:00Z</time>
      </trkpt>
      <trkpt lat="43.41313" lon="2.45546">
        <ele>973.262</ele>
        <time>2021-05-24T11:45:02Z</time>
      </trkpt>
      <trkpt lat="43.41312" lon="2.45544">
        <ele>972.037</ele>
        <time>2021-05-24T11:45:04Z</time>
      </trkpt>
      <trkpt lat="43.4131" lon="2.45542">
        <ele>972.11</ele>
        <time>2021-05-24T11:45:06Z</time>
      </trkpt>
      <trkpt lat="43.41308" lon="2.45541">
        <ele>970.657</ele>
        <time>2021-05-24T11:45:08Z</time>
      </trkpt>
      <trkpt lat="43.41306" lon="2.4554">
        <ele>971.032</ele>
        <time>2021-05-24T11:45:10Z</time>
      </trkpt>
      <trkpt lat="43.41304" lon="2.45539">
        <ele>970.235</ele>
        <time>2021-05-24T11:45:12Z</time>
      </trkpt>
      <trkpt lat="43.41302" lon="2.45537">
        <ele>969.847</ele>
        <time>2021-05-24T11:45:14Z</time>
      </trkpt>
      <trkpt lat="43.41301" lon="2.45536">
        <ele>968.124</ele>
        <time>2021-05-24T11:45:16Z</time>
      </trkpt>
      <trkpt lat="43.41299" lon="2.45535">
        <ele>966.958</ele>
        <time>2021-05-24T11:45:18Z</time>
      </trkpt>
      <trkpt lat="43.41297" lon="2.45536">
        <ele>965.938</ele>
        <time>2021-05-24T11:45:20Z</time>
      </trkpt>
      <trkpt lat="43.41295" lon="2.45535">
        <ele>965.351</ele>
        <time>2021-05-24T11:45:22Z</time>
      </trkpt>
      <trkpt lat="43.41293" lon="2.45536">
        <ele>964.154</ele>
        <time>2021-05-24T11:45:24Z</time>
      </trkpt>
      <trkpt lat="43.41291" lon="2.45537">
        <ele>963.799</ele>
        <time>2021-05-24T11:45:26Z</time>
      </trkpt>
      <trkpt lat="43.41288" lon="2.45538">
        <ele>962.986</ele>
        <time>2021-05-24T11:45:28Z</time>
      </trkpt>
      <trkpt lat="43.41286" lon="2.45537">
        <ele>963.346</ele>
        <time>2021-05-24T11:45:30Z</time>
      </trkpt>
      <trkpt lat="43.41285" lon="2.45533">
        <ele>962.617</ele>
        <time>2021-05-24T11:45:32Z</time>
      </trkpt>
      <trkpt lat="43.41284" lon="2.4553">
        <ele>961.374</ele>
        <time>2021-05-24T11:45:34Z</time>
      </trkpt>
      <trkpt lat="43.41284" lon="2.45527">
        <ele>961.009</ele>
        <time>2021-05-24T11:45:36Z</time>
      </trkpt>
      <trkpt lat="43.41284" lon="2.45524">
        <ele>960.228</ele>
        <time>2021-05-24T11:45:38Z</time>
      </trkpt>
      <trkpt lat="43.41282" lon="2.45521">
        <ele>959.105</ele>
        <time>2021-05-24T11:45:40Z</time>
      </trkpt>
      <trkpt lat="43.41281" lon="2.45518">
        <ele>958.281</ele>
        <time>2021-05-24T11:45:42Z</time>
      </trkpt>
      <trkpt lat="43.41281" lon="2.45514">
        <ele>959.134</ele>
        <time>2021-05-24T11:45:44Z</time>
      </trkpt>
      <trkpt lat="43.41281" lon="2.4551">
        <ele>959.314</ele>
        <time>2021-05-24T11:45:46Z</time>
      </trkpt>
      <trkpt lat="43.41279" lon="2.45508">
        <ele>957.613</ele>
        <time>2021-05-24T11:45:48Z</time>
      </trkpt>
      <trkpt lat="43.41277" lon="2.45505">
        <ele>957.427</ele>
        <time>2021-05-24T11:45:50Z</time>
      </trkpt>
      <trkpt lat="43.41276" lon="2.45501">
        <ele>957.233</ele>
        <time>2021-05-24T11:45:52Z</time>
      </trkpt>
      <trkpt lat="43.41275" lon="2.45498">
        <ele>956.013</ele>
        <time>2021-05-24T11:45:54Z</time>
      </trkpt>
      <trkpt lat="43.41273" lon="2.45496">
        <ele>955.264</ele>
        <time>2021-05-24T11:45:56Z</time>
      </trkpt>
      <trkpt lat="43.4127" lon="2.45495">
        <ele>953.796</ele>
        <time>2021-05-24T11:45:58Z</time>
      </trkpt>
      <trkpt lat="43.41268" lon="2.45495">
        <ele>953.875</ele>
        <time>2021-05-24T11:46:00Z</time>
      </trkpt>
      <trkpt lat="43.41266" lon="2.45495">
        <ele>954.367</ele>
        <time>2021-05-24T11:46:02Z</time>
      </trkpt>
      <trkpt lat="43.41264" lon="2.45495">
        <ele>953.644</ele>
        <time>2021-05-24T11:46:04Z</time>
      </trkpt>
      <trkpt lat="43.41262" lon="2.45494">
        <ele>952.108</ele>
        <time>2021-05-24T11:46:06Z</time>
      </trkpt>
      <trkpt lat="43.4126" lon="2.45493">
        <ele>950.451</ele>
        <time>2021-05-24T11:46:08Z</time>
      </trkpt>
      <trkpt lat="43.41257" lon="2.45491">
        <ele>947.774</ele>
        <time>2021-05-24T11:46:10Z</time>
      </trkpt>
      <trkpt lat="43.41254" lon="2.45489">
        <ele>946.276</ele>
        <time>2021-05-24T11:46:12Z</time>
      </trkpt>
      <trkpt lat="43.41252" lon="2.45485">
        <ele>945.334</ele>
        <time>2021-05-24T11:46:14Z</time>
      </trkpt>
      <trkpt lat="43.41251" lon="2.45482">
        <ele>945.755</ele>
        <time>2021-05-24T11:46:16Z</time>
      </trkpt>
      <trkpt lat="43.41251" lon="2.45479">
        <ele>945.489</ele>
        <time>2021-05-24T11:46:18Z</time>
      </trkpt>
      <trkpt lat="43.41251" lon="2.45476">
        <ele>945.024</ele>
        <time>2021-05-24T11:46:20Z</time>
      </trkpt>
      <trkpt lat="43.4125" lon="2.45472">
        <ele>944.815</ele>
        <time>2021-05-24T11:46:22Z</time>
      </trkpt>
      <trkpt lat="43.41249" lon="2.45469">
        <ele>944.375</ele>
        <time>2021-05-24T11:46:24Z</time>
      </trkpt>
      <trkpt lat="43.41248" lon="2.45466">
        <ele>943.937</ele>
        <time>2021-05-24T11:46:26Z</time>
      </trkpt>
      <trkpt lat="43.41247" lon="2.45463">
        <ele>944.163</ele>
        <time>2021-05-24T11:46:28Z</time>
      </trkpt>
      <trkpt lat="43.41246" lon="2.4546">
        <ele>943.977</ele>
        <time>2021-05-24T11:46:30Z</time>
      </trkpt>
      <trkpt lat="43.41245" lon="2.45457">
        <ele>944.445</ele>
        <time>2021-05-24T11:46:32Z</time>
      </trkpt>
      <trkpt lat="43.41243" lon="2.45455">
        <ele>944.559</ele>
        <time>2021-05-24T11:46:34Z</time>
      </trkpt>
      <trkpt lat="43.41242" lon="2.45455">
        <ele>943.094</ele>
        <time>2021-05-24T11:46:36Z</time>
      </trkpt>
      <trkpt lat="43.4124" lon="2.45452">
        <ele>942.309</ele>
        <time>2021-05-24T11:46:38Z</time>
      </trkpt>
      <trkpt lat="43.41238" lon="2.45451">
        <ele>941.7</ele>
        <time>2021-05-24T11:46:40Z</time>
      </trkpt>
      <trkpt lat="43.41236" lon="2.45449">
        <ele>941.354</ele>
        <time>2021-05-24T11:46:42Z</time>
      </trkpt>
      <trkpt lat="43.41234" lon="2.45447">
        <ele>941.326</ele>
        <time>2021-05-24T11:46:44Z</time>
      </trkpt>
      <trkpt lat="43.41232" lon="2.45445">
        <ele>940.967</ele>
        <time>2021-05-24T11:46:46Z</time>
      </trkpt>
      <trkpt lat="43.41231" lon="2.45441">
        <ele>940.537</ele>
        <time>2021-05-24T11:46:48Z</time>
      </trkpt>
      <trkpt lat="43.4123" lon="2.45438">
        <ele>942.003</ele>
        <time>2021-05-24T11:46:50Z</time>
      </trkpt>
      <trkpt lat="43.41228" lon="2.45435">
        <ele>942.451</ele>
        <time>2021-05-24T11:46:52Z</time>
      </trkpt>
      <trkpt lat="43.41227" lon="2.45433">
        <ele>941.818</ele>
        <time>2021-05-24T11:46:54Z</time>
      </trkpt>
      <trkpt lat="43.41225" lon="2.45431">
        <ele>940.996</ele>
        <time>2021-05-24T11:46:56Z</time>
      </trkpt>
      <trkpt lat="43.41223" lon="2.45428">
        <ele>941.722</ele>
        <time>2021-05-24T11:46:58Z</time>
      </trkpt>
      <trkpt lat="43.41221" lon="2.45427">
        <ele>941.595</ele>
        <time>2021-05-24T11:47:00Z</time>
      </trkpt>
      <trkpt lat="43.4122" lon="2.45424">
        <ele>941.434</ele>
        <time>2021-05-24T11:47:02Z</time>
      </trkpt>
      <trkpt lat="43.41218" lon="2.45421">
        <ele>941.5</ele>
        <time>2021-05-24T11:47:04Z</time>
      </trkpt>
      <trkpt lat="43.41217" lon="2.4542">
        <ele>941.023</ele>
        <time>2021-05-24T11:47:06Z</time>
      </trkpt>
      <trkpt lat="43.41215" lon="2.45419">
        <ele>939.111</ele>
        <time>2021-05-24T11:47:08Z</time>
      </trkpt>
      <trkpt lat="43.41213" lon="2.45419">
        <ele>937.643</ele>
        <time>2021-05-24T11:47:10Z</time>
      </trkpt>
      <trkpt lat="43.41211" lon="2.45419">
        <ele>936.746</ele>
        <time>2021-05-24T11:47:12Z</time>
      </trkpt>
      <trkpt lat="43.41208" lon="2.45418">
        <ele>935.67</ele>
        <time>2021-05-24T11:47:14Z</time>
      </trkpt>
      <trkpt lat="43.41206" lon="2.45418">
        <ele>935.903</ele>
        <time>2021-05-24T11:47:16Z</time>
      </trkpt>
      <trkpt lat="43.41204" lon="2.45417">
        <ele>935.332</ele>
        <time>2021-05-24T11:47:18Z</time>
      </trkpt>
      <trkpt lat="43.41202" lon="2.45415">
        <ele>934.989</ele>
        <time>2021-05-24T11:47:20Z</time>
      </trkpt>
      <trkpt lat="43.412" lon="2.45413">
        <ele>933.473</ele>
        <time>2021-05-24T11:47:22Z</time>
      </trkpt>
      <trkpt lat="43.41199" lon="2.4541">
        <ele>933.241</ele>
        <time>2021-05-24T11:47:24Z</time>
      </trkpt>
      <trkpt lat="43.41197" lon="2.45408">
        <ele>932.423</ele>
        <time>2021-05-24T11:47:26Z</time>
      </trkpt>
      <trkpt lat="43.41195" lon="2.45406">
        <ele>931.4</ele>
        <time>2021-05-24T11:47:28Z</time>
      </trkpt>
      <trkpt lat="43.41193" lon="2.45403">
        <ele>930.549</ele>
        <time>2021-05-24T11:47:30Z</time>
      </trkpt>
      <trkpt lat="43.41191" lon="2.45401">
        <ele>930.679</ele>
        <time>2021-05-24T11:47:32Z</time>
      </trkpt>
      <trkpt lat="43.41189" lon="2.45399">
        <ele>931.264</ele>
        <time>2021-05-24T11:47:34Z</time>
      </trkpt>
      <trkpt lat="43.41187" lon="2.45398">
        <ele>931.562</ele>
        <time>2021-05-24T11:47:36Z</time>
      </trkpt>
      <trkpt lat="43.41186" lon="2.45395">
        <ele>933.237</ele>
        <time>2021-05-24T11:47:38Z</time>
      </trkpt>
      <trkpt lat="43.41186" lon="2.45392">
        <ele>933.597</ele>
        <time>2021-05-24T11:47:40Z</time>
      </trkpt>
      <trkpt lat="43.41185" lon="2.4539">
        <ele>932.642</ele>
        <time>2021-05-24T11:47:42Z</time>
      </trkpt>
      <trkpt lat="43.41184" lon="2.45387">
        <ele>931.229</ele>
        <time>2021-05-24T11:47:44Z</time>
      </trkpt>
      <trkpt lat="43.41183" lon="2.45385">
        <ele>930.516</ele>
        <time>2021-05-24T11:47:46Z</time>
      </trkpt>
      <trkpt lat="43.41181" lon="2.45382">
        <ele>929.785</ele>
        <time>2021-05-24T11:47:48Z</time>
      </trkpt>
      <trkpt lat="43.4118" lon="2.4538">
        <ele>930.604</ele>
        <time>2021-05-24T11:47:50Z</time>
      </trkpt>
      <trkpt lat="43.41179" lon="2.45377">
        <ele>930.592</ele>
        <time>2021-05-24T11:47:52Z</time>
      </trkpt>
      <trkpt lat="43.41177" lon="2.45376">
        <ele>930.377</ele>
        <time>2021-05-24T11:47:54Z</time>
      </trkpt>
      <trkpt lat="43.41175" lon="2.45375">
        <ele>929.284</ele>
        <time>2021-05-24T11:47:56Z</time>
      </trkpt>
      <trkpt lat="43.41173" lon="2.45374">
        <ele>928.253</ele>
        <time>2021-05-24T11:47:58Z</time>
      </trkpt>
      <trkpt lat="43.41171" lon="2.45373">
        <ele>927.602</ele>
        <time>2021-05-24T11:48:00Z</time>
      </trkpt>
      <trkpt lat="43.41169" lon="2.45371">
        <ele>926.112</ele>
        <time>2021-05-24T11:48:02Z</time>
      </trkpt>
      <trkpt lat="43.41167" lon="2.4537">
        <ele>924.476</ele>
        <time>2021-05-24T11:48:04Z</time>
      </trkpt>
      <trkpt lat="43.41166" lon="2.45368">
        <ele>923.768</ele>
        <time>2021-05-24T11:48:06Z</time>
      </trkpt>
      <trkpt lat="43.41164" lon="2.45366">
        <ele>923.119</ele>
        <time>2021-05-24T11:48:08Z</time>
      </trkpt>
      <trkpt lat="43.41163" lon="2.45364">
        <ele>922.522</ele>
        <time>2021-05-24T11:48:10Z</time>
      </trkpt>
      <trkpt lat="43.41161" lon="2.45362">
        <ele>921.46</ele>
        <time>2021-05-24T11:48:12Z</time>
      </trkpt>
      <trkpt lat="43.41159" lon="2.45359">
        <ele>920.971</ele>
        <time>2021-05-24T11:48:14Z</time>
      </trkpt>
      <trkpt lat="43.41158" lon="2.45357">
        <ele>919.752</ele>
        <time>2021-05-24T11:48:16Z</time>
      </trkpt>
      <trkpt lat="43.41156" lon="2.45355">
        <ele>918.888</ele>
        <time>2021-05-24T11:48:18Z</time>
      </trkpt>
      <trkpt lat="43.41154" lon="2.45354">
        <ele>918.05</ele>
        <time>2021-05-24T11:48:20Z</time>
      </trkpt>
      <trkpt lat="43.41152" lon="2.45352">
        <ele>917.502</ele>
        <time>2021-05-24T11:48:22Z</time>
      </trkpt>
      <trkpt lat="43.41151" lon="2.45349">
        <ele>917.728</ele>
        <time>2021-05-24T11:48:24Z</time>
      </trkpt>
      <trkpt lat="43.41149" lon="2.45347">
        <ele>918.063</ele>
        <time>2021-05-24T11:48:26Z</time>
      </trkpt>
      <trkpt lat="43.41149" lon="2.45346">
        <ele>918.857</ele>
        <time>2021-05-24T11:48:28Z</time>
      </trkpt>
      <trkpt lat="43.41149" lon="2.45346">
        <ele>918.859</ele>
        <time>2021-05-24T11:48:30Z</time>
      </trkpt>
      <trkpt lat="43.41151" lon="2.45345">
        <ele>920.658</ele>
        <time>2021-05-24T11:48:32Z</time>
      </trkpt>
      <trkpt lat="43.41152" lon="2.45342">
        <ele>920.686</ele>
        <time>2021-05-24T11:48:34Z</time>
      </trkpt>
      <trkpt lat="43.41151" lon="2.45341">
        <ele>920.575</ele>
        <time>2021-05-24T11:48:36Z</time>
      </trkpt>
      <trkpt lat="43.4115" lon="2.45339">
        <ele>920.918</ele>
        <time>2021-05-24T11:48:38Z</time>
      </trkpt>
      <trkpt lat="43.41148" lon="2.45337">
        <ele>921.203</ele>
        <time>2021-05-24T11:48:40Z</time>
      </trkpt>
      <trkpt lat="43.41146" lon="2.45335">
        <ele>920.161</ele>
        <time>2021-05-24T11:48:42Z</time>
      </trkpt>
      <trkpt lat="43.41145" lon="2.45333">
        <ele>919.818</ele>
        <time>2021-05-24T11:48:44Z</time>
      </trkpt>
      <trkpt lat="43.41144" lon="2.45332">
        <ele>920.189</ele>
        <time>2021-05-24T11:48:46Z</time>
      </trkpt>
      <trkpt lat="43.41145" lon="2.4533">
        <ele>919.636</ele>
        <time>2021-05-24T11:48:48Z</time>
      </trkpt>
      <trkpt lat="43.41145" lon="2.4533">
        <ele>919.626</ele>
        <time>2021-05-24T11:48:50Z</time>
      </trkpt>
      <trkpt lat="43.41144" lon="2.45329">
        <ele>919.483</ele>
        <time>2021-05-24T11:48:52Z</time>
      </trkpt>
      <trkpt lat="43.41143" lon="2.45327">
        <ele>919.673</ele>
        <time>2021-05-24T11:48:54Z</time>
      </trkpt>
      <trkpt lat="43.41141" lon="2.45325">
        <ele>919.26</ele>
        <time>2021-05-24T11:48:56Z</time>
      </trkpt>
      <trkpt lat="43.41139" lon="2.45324">
        <ele>919.064</ele>
        <time>2021-05-24T11:48:58Z</time>
      </trkpt>
      <trkpt lat="43.41137" lon="2.45322">
        <ele>919.092</ele>
        <time>2021-05-24T11:49:00Z</time>
      </trkpt>
      <trkpt lat="43.41135" lon="2.4532">
        <ele>918.788</ele>
        <time>2021-05-24T11:49:02Z</time>
      </trkpt>
      <trkpt lat="43.41133" lon="2.45318">
        <ele>918.245</ele>
        <time>2021-05-24T11:49:04Z</time>
      </trkpt>
      <trkpt lat="43.41131" lon="2.45316">
        <ele>917.904</ele>
        <time>2021-05-24T11:49:06Z</time>
      </trkpt>
      <trkpt lat="43.41129" lon="2.45314">
        <ele>918.056</ele>
        <time>2021-05-24T11:49:08Z</time>
      </trkpt>
      <trkpt lat="43.41128" lon="2.45311">
        <ele>917.827</ele>
        <time>2021-05-24T11:49:10Z</time>
      </trkpt>
      <trkpt lat="43.41127" lon="2.45309">
        <ele>916.274</ele>
        <time>2021-05-24T11:49:12Z</time>
      </trkpt>
      <trkpt lat="43.41125" lon="2.45307">
        <ele>916.046</ele>
        <time>2021-05-24T11:49:14Z</time>
      </trkpt>
      <trkpt lat="43.41124" lon="2.45306">
        <ele>915.896</ele>
        <time>2021-05-24T11:49:16Z</time>
      </trkpt>
      <trkpt lat="43.41123" lon="2.45303">
        <ele>915.107</ele>
        <time>2021-05-24T11:49:18Z</time>
      </trkpt>
      <trkpt lat="43.41121" lon="2.45301">
        <ele>913.742</ele>
        <time>2021-05-24T11:49:20Z</time>
      </trkpt>
      <trkpt lat="43.41119" lon="2.45299">
        <ele>912.763</ele>
        <time>2021-05-24T11:49:22Z</time>
      </trkpt>
      <trkpt lat="43.41117" lon="2.45297">
        <ele>912.129</ele>
        <time>2021-05-24T11:49:24Z</time>
      </trkpt>
      <trkpt lat="43.41115" lon="2.45295">
        <ele>911.637</ele>
        <time>2021-05-24T11:49:26Z</time>
      </trkpt>
      <trkpt lat="43.41113" lon="2.45294">
        <ele>911.496</ele>
        <time>2021-05-24T11:49:28Z</time>
      </trkpt>
      <trkpt lat="43.41112" lon="2.45292">
        <ele>910.736</ele>
        <time>2021-05-24T11:49:30Z</time>
      </trkpt>
      <trkpt lat="43.4111" lon="2.4529">
        <ele>910.337</ele>
        <time>2021-05-24T11:49:32Z</time>
      </trkpt>
      <trkpt lat="43.41108" lon="2.45288">
        <ele>909.797</ele>
        <time>2021-05-24T11:49:34Z</time>
      </trkpt>
      <trkpt lat="43.41106" lon="2.45285">
        <ele>909.545</ele>
        <time>2021-05-24T11:49:36Z</time>
      </trkpt>
      <trkpt lat="43.41104" lon="2.45283">
        <ele>909.644</ele>
        <time>2021-05-24T11:49:38Z</time>
      </trkpt>
      <trkpt lat="43.41102" lon="2.45281">
        <ele>909.603</ele>
        <time>2021-05-24T11:49:40Z</time>
      </trkpt>
      <trkpt lat="43.411" lon="2.45278">
        <ele>908.759</ele>
        <time>2021-05-24T11:49:42Z</time>
      </trkpt>
      <trkpt lat="43.41099" lon="2.45275">
        <ele>907.302</ele>
        <time>2021-05-24T11:49:44Z</time>
      </trkpt>
      <trkpt lat="43.41097" lon="2.45272">
        <ele>906.714</ele>
        <time>2021-05-24T11:49:46Z</time>
      </trkpt>
      <trkpt lat="43.41095" lon="2.4527">
        <ele>906.295</ele>
        <time>2021-05-24T11:49:48Z</time>
      </trkpt>
      <trkpt lat="43.41093" lon="2.45267">
        <ele>906.196</ele>
        <time>2021-05-24T11:49:50Z</time>
      </trkpt>
      <trkpt lat="43.41092" lon="2.45264">
        <ele>906.092</ele>
        <time>2021-05-24T11:49:52Z</time>
      </trkpt>
      <trkpt lat="43.4109" lon="2.45262">
        <ele>905.757</ele>
        <time>2021-05-24T11:49:54Z</time>
      </trkpt>
      <trkpt lat="43.41089" lon="2.45259">
        <ele>904.8</ele>
        <time>2021-05-24T11:49:56Z</time>
      </trkpt>
      <trkpt lat="43.41087" lon="2.45256">
        <ele>903.588</ele>
        <time>2021-05-24T11:49:58Z</time>
      </trkpt>
      <trkpt lat="43.41086" lon="2.45252">
        <ele>902.617</ele>
        <time>2021-05-24T11:50:00Z</time>
      </trkpt>
      <trkpt lat="43.41084" lon="2.45249">
        <ele>903.894</ele>
        <time>2021-05-24T11:50:02Z</time>
      </trkpt>
      <trkpt lat="43.4108" lon="2.45249">
        <ele>905.425</ele>
        <time>2021-05-24T11:50:05Z</time>
      </trkpt>
      <trkpt lat="43.41078" lon="2.45246">
        <ele>903.973</ele>
        <time>2021-05-24T11:50:08Z</time>
      </trkpt>
      <trkpt lat="43.41077" lon="2.45244">
        <ele>902.476</ele>
        <time>2021-05-24T11:50:10Z</time>
      </trkpt>
      <trkpt lat="43.41074" lon="2.45241">
        <ele>899.725</ele>
        <time>2021-05-24T11:50:14Z</time>
      </trkpt>
      <trkpt lat="43.41072" lon="2.45239">
        <ele>898.893</ele>
        <time>2021-05-24T11:50:16Z</time>
      </trkpt>
      <trkpt lat="43.41071" lon="2.45237">
        <ele>897.559</ele>
        <time>2021-05-24T11:50:18Z</time>
      </trkpt>
      <trkpt lat="43.41069" lon="2.45235">
        <ele>896.6</ele>
        <time>2021-05-24T11:50:20Z</time>
      </trkpt>
      <trkpt lat="43.41068" lon="2.45233">
        <ele>895.812</ele>
        <time>2021-05-24T11:50:22Z</time>
      </trkpt>
      <trkpt lat="43.41066" lon="2.45231">
        <ele>894.501</ele>
        <time>2021-05-24T11:50:24Z</time>
      </trkpt>
      <trkpt lat="43.41065" lon="2.45228">
        <ele>894.231</ele>
        <time>2021-05-24T11:50:26Z</time>
      </trkpt>
      <trkpt lat="43.41063" lon="2.45226">
        <ele>893.967</ele>
        <time>2021-05-24T11:50:28Z</time>
      </trkpt>
      <trkpt lat="43.41061" lon="2.45225">
        <ele>893.164</ele>
        <time>2021-05-24T11:50:30Z</time>
      </trkpt>
      <trkpt lat="43.41059" lon="2.45224">
        <ele>892.784</ele>
        <time>2021-05-24T11:50:32Z</time>
      </trkpt>
      <trkpt lat="43.41057" lon="2.45222">
        <ele>892.436</ele>
        <time>2021-05-24T11:50:34Z</time>
      </trkpt>
      <trkpt lat="43.41056" lon="2.4522">
        <ele>891.751</ele>
        <time>2021-05-24T11:50:36Z</time>
      </trkpt>
      <trkpt lat="43.41054" lon="2.45218">
        <ele>890.988</ele>
        <time>2021-05-24T11:50:38Z</time>
      </trkpt>
      <trkpt lat="43.41053" lon="2.45216">
        <ele>890.139</ele>
        <time>2021-05-24T11:50:40Z</time>
      </trkpt>
      <trkpt lat="43.41051" lon="2.45214">
        <ele>889.915</ele>
        <time>2021-05-24T11:50:42Z</time>
      </trkpt>
      <trkpt lat="43.41049" lon="2.45212">
        <ele>889.827</ele>
        <time>2021-05-24T11:50:44Z</time>
      </trkpt>
      <trkpt lat="43.41048" lon="2.45209">
        <ele>888.427</ele>
        <time>2021-05-24T11:50:46Z</time>
      </trkpt>
      <trkpt lat="43.41046" lon="2.45206">
        <ele>887.909</ele>
        <time>2021-05-24T11:50:48Z</time>
      </trkpt>
      <trkpt lat="43.41044" lon="2.45204">
        <ele>886.557</ele>
        <time>2021-05-24T11:50:50Z</time>
      </trkpt>
      <trkpt lat="43.41043" lon="2.45201">
        <ele>886.324</ele>
        <time>2021-05-24T11:50:52Z</time>
      </trkpt>
      <trkpt lat="43.41041" lon="2.45198">
        <ele>884.957</ele>
        <time>2021-05-24T11:50:54Z</time>
      </trkpt>
      <trkpt lat="43.4104" lon="2.45194">
        <ele>884.436</ele>
        <time>2021-05-24T11:50:56Z</time>
      </trkpt>
      <trkpt lat="43.41039" lon="2.4519">
        <ele>883.319</ele>
        <time>2021-05-24T11:50:58Z</time>
      </trkpt>
      <trkpt lat="43.41036" lon="2.45189">
        <ele>882.687</ele>
        <time>2021-05-24T11:51:00Z</time>
      </trkpt>
      <trkpt lat="43.41033" lon="2.45185">
        <ele>880.937</ele>
        <time>2021-05-24T11:51:03Z</time>
      </trkpt>
      <trkpt lat="43.41032" lon="2.45182">
        <ele>880.559</ele>
        <time>2021-05-24T11:51:05Z</time>
      </trkpt>
      <trkpt lat="43.41031" lon="2.45178">
        <ele>880.898</ele>
        <time>2021-05-24T11:51:07Z</time>
      </trkpt>
      <trkpt lat="43.4103" lon="2.45175">
        <ele>880.73</ele>
        <time>2021-05-24T11:51:09Z</time>
      </trkpt>
      <trkpt lat="43.41029" lon="2.45173">
        <ele>880.522</ele>
        <time>2021-05-24T11:51:11Z</time>
      </trkpt>
      <trkpt lat="43.41029" lon="2.45172">
        <ele>881.63</ele>
        <time>2021-05-24T11:51:13Z</time>
      </trkpt>
      <trkpt lat="43.41029" lon="2.4517">
        <ele>881.395</ele>
        <time>2021-05-24T11:51:15Z</time>
      </trkpt>
      <trkpt lat="43.41029" lon="2.45168">
        <ele>881.083</ele>
        <time>2021-05-24T11:51:17Z</time>
      </trkpt>
      <trkpt lat="43.41029" lon="2.45165">
        <ele>880.903</ele>
        <time>2021-05-24T11:51:19Z</time>
      </trkpt>
      <trkpt lat="43.4103" lon="2.45161">
        <ele>880.301</ele>
        <time>2021-05-24T11:51:21Z</time>
      </trkpt>
      <trkpt lat="43.41031" lon="2.45158">
        <ele>880.012</ele>
        <time>2021-05-24T11:51:23Z</time>
      </trkpt>
      <trkpt lat="43.41031" lon="2.45155">
        <ele>879.188</ele>
        <time>2021-05-24T11:51:25Z</time>
      </trkpt>
      <trkpt lat="43.41031" lon="2.45151">
        <ele>878.365</ele>
        <time>2021-05-24T11:51:27Z</time>
      </trkpt>
      <trkpt lat="43.41031" lon="2.45149">
        <ele>877.379</ele>
        <time>2021-05-24T11:51:29Z</time>
      </trkpt>
      <trkpt lat="43.41031" lon="2.45146">
        <ele>876.732</ele>
        <time>2021-05-24T11:51:31Z</time>
      </trkpt>
      <trkpt lat="43.41031" lon="2.45144">
        <ele>876.022</ele>
        <time>2021-05-24T11:51:33Z</time>
      </trkpt>
      <trkpt lat="43.41031" lon="2.45142">
        <ele>874.945</ele>
        <time>2021-05-24T11:51:35Z</time>
      </trkpt>
      <trkpt lat="43.4103" lon="2.4514">
        <ele>874.314</ele>
        <time>2021-05-24T11:51:37Z</time>
      </trkpt>
      <trkpt lat="43.4103" lon="2.45137">
        <ele>873.784</ele>
        <time>2021-05-24T11:51:39Z</time>
      </trkpt>
      <trkpt lat="43.41029" lon="2.45134">
        <ele>873.479</ele>
        <time>2021-05-24T11:51:41Z</time>
      </trkpt>
      <trkpt lat="43.41029" lon="2.45132">
        <ele>873.169</ele>
        <time>2021-05-24T11:51:43Z</time>
      </trkpt>
      <trkpt lat="43.4103" lon="2.45129">
        <ele>872.754</ele>
        <time>2021-05-24T11:51:45Z</time>
      </trkpt>
      <trkpt lat="43.4103" lon="2.45126">
        <ele>872.422</ele>
        <time>2021-05-24T11:51:47Z</time>
      </trkpt>
      <trkpt lat="43.4103" lon="2.45123">
        <ele>871.872</ele>
        <time>2021-05-24T11:51:49Z</time>
      </trkpt>
      <trkpt lat="43.4103" lon="2.45119">
        <ele>871.637</ele>
        <time>2021-05-24T11:51:51Z</time>
      </trkpt>
      <trkpt lat="43.4103" lon="2.45116">
        <ele>871.43</ele>
        <time>2021-05-24T11:51:53Z</time>
      </trkpt>
      <trkpt lat="43.41031" lon="2.45112">
        <ele>871.585</ele>
        <time>2021-05-24T11:51:55Z</time>
      </trkpt>
      <trkpt lat="43.41032" lon="2.45109">
        <ele>870.569</ele>
        <time>2021-05-24T11:51:57Z</time>
      </trkpt>
      <trkpt lat="43.41032" lon="2.45106">
        <ele>870.872</ele>
        <time>2021-05-24T11:51:59Z</time>
      </trkpt>
      <trkpt lat="43.41033" lon="2.45102">
        <ele>870.54</ele>
        <time>2021-05-24T11:52:01Z</time>
      </trkpt>
      <trkpt lat="43.41033" lon="2.45098">
        <ele>869.872</ele>
        <time>2021-05-24T11:52:03Z</time>
      </trkpt>
      <trkpt lat="43.41033" lon="2.45094">
        <ele>869.293</ele>
        <time>2021-05-24T11:52:05Z</time>
      </trkpt>
      <trkpt lat="43.41034" lon="2.45091">
        <ele>869.279</ele>
        <time>2021-05-24T11:52:07Z</time>
      </trkpt>
      <trkpt lat="43.41034" lon="2.45088">
        <ele>869.252</ele>
        <time>2021-05-24T11:52:09Z</time>
      </trkpt>
      <trkpt lat="43.41035" lon="2.45084">
        <ele>868.289</ele>
        <time>2021-05-24T11:52:11Z</time>
      </trkpt>
      <trkpt lat="43.41036" lon="2.45081">
        <ele>867.778</ele>
        <time>2021-05-24T11:52:13Z</time>
      </trkpt>
      <trkpt lat="43.41037" lon="2.45078">
        <ele>868.044</ele>
        <time>2021-05-24T11:52:15Z</time>
      </trkpt>
      <trkpt lat="43.41039" lon="2.45075">
        <ele>867.154</ele>
        <time>2021-05-24T11:52:17Z</time>
      </trkpt>
      <trkpt lat="43.4104" lon="2.45071">
        <ele>866.538</ele>
        <time>2021-05-24T11:52:19Z</time>
      </trkpt>
      <trkpt lat="43.41042" lon="2.45069">
        <ele>866.196</ele>
        <time>2021-05-24T11:52:21Z</time>
      </trkpt>
      <trkpt lat="43.41044" lon="2.45066">
        <ele>867.138</ele>
        <time>2021-05-24T11:52:23Z</time>
      </trkpt>
      <trkpt lat="43.41045" lon="2.45063">
        <ele>865.899</ele>
        <time>2021-05-24T11:52:25Z</time>
      </trkpt>
      <trkpt lat="43.41048" lon="2.45059">
        <ele>866.133</ele>
        <time>2021-05-24T11:52:27Z</time>
      </trkpt>
      <trkpt lat="43.41049" lon="2.45055">
        <ele>866.303</ele>
        <time>2021-05-24T11:52:29Z</time>
      </trkpt>
      <trkpt lat="43.4105" lon="2.45052">
        <ele>865.273</ele>
        <time>2021-05-24T11:52:31Z</time>
      </trkpt>
      <trkpt lat="43.41053" lon="2.45048">
        <ele>865.369</ele>
        <time>2021-05-24T11:52:33Z</time>
      </trkpt>
      <trkpt lat="43.41054" lon="2.45045">
        <ele>865.32</ele>
        <time>2021-05-24T11:52:35Z</time>
      </trkpt>
      <trkpt lat="43.41055" lon="2.45042">
        <ele>864.594</ele>
        <time>2021-05-24T11:52:37Z</time>
      </trkpt>
      <trkpt lat="43.41056" lon="2.45039">
        <ele>864.314</ele>
        <time>2021-05-24T11:52:39Z</time>
      </trkpt>
      <trkpt lat="43.41057" lon="2.45036">
        <ele>863.582</ele>
        <time>2021-05-24T11:52:41Z</time>
      </trkpt>
      <trkpt lat="43.41059" lon="2.45033">
        <ele>862.33</ele>
        <time>2021-05-24T11:52:43Z</time>
      </trkpt>
      <trkpt lat="43.4106" lon="2.45029">
        <ele>860.389</ele>
        <time>2021-05-24T11:52:45Z</time>
      </trkpt>
      <trkpt lat="43.41062" lon="2.45026">
        <ele>857.609</ele>
        <time>2021-05-24T11:52:47Z</time>
      </trkpt>
      <trkpt lat="43.41063" lon="2.45023">
        <ele>856.143</ele>
        <time>2021-05-24T11:52:49Z</time>
      </trkpt>
      <trkpt lat="43.41064" lon="2.4502">
        <ele>852.884</ele>
        <time>2021-05-24T11:52:51Z</time>
      </trkpt>
      <trkpt lat="43.41064" lon="2.45017">
        <ele>850.035</ele>
        <time>2021-05-24T11:52:53Z</time>
      </trkpt>
      <trkpt lat="43.41064" lon="2.45013">
        <ele>848.419</ele>
        <time>2021-05-24T11:52:55Z</time>
      </trkpt>
      <trkpt lat="43.41066" lon="2.45009">
        <ele>848.261</ele>
        <time>2021-05-24T11:52:57Z</time>
      </trkpt>
      <trkpt lat="43.41068" lon="2.45006">
        <ele>844.36</ele>
        <time>2021-05-24T11:52:59Z</time>
      </trkpt>
      <trkpt lat="43.41069" lon="2.45003">
        <ele>843.337</ele>
        <time>2021-05-24T11:53:01Z</time>
      </trkpt>
      <trkpt lat="43.41084" lon="2.44975">
        <ele>855.085</ele>
        <time>2021-05-24T11:53:03Z</time>
      </trkpt>
      <trkpt lat="43.41086" lon="2.4497">
        <ele>854.936</ele>
        <time>2021-05-24T11:53:05Z</time>
      </trkpt>
      <trkpt lat="43.4109" lon="2.44964">
        <ele>853.166</ele>
        <time>2021-05-24T11:53:07Z</time>
      </trkpt>
      <trkpt lat="43.41093" lon="2.44961">
        <ele>852.936</ele>
        <time>2021-05-24T11:53:09Z</time>
      </trkpt>
      <trkpt lat="43.41095" lon="2.44959">
        <ele>853.302</ele>
        <time>2021-05-24T11:53:11Z</time>
      </trkpt>
      <trkpt lat="43.41097" lon="2.44958">
        <ele>853.334</ele>
        <time>2021-05-24T11:53:13Z</time>
      </trkpt>
      <trkpt lat="43.41099" lon="2.44957">
        <ele>852.567</ele>
        <time>2021-05-24T11:53:15Z</time>
      </trkpt>
      <trkpt lat="43.41102" lon="2.44955">
        <ele>852.309</ele>
        <time>2021-05-24T11:53:17Z</time>
      </trkpt>
      <trkpt lat="43.41104" lon="2.44954">
        <ele>852.084</ele>
        <time>2021-05-24T11:53:19Z</time>
      </trkpt>
      <trkpt lat="43.41107" lon="2.44952">
        <ele>851.602</ele>
        <time>2021-05-24T11:53:21Z</time>
      </trkpt>
      <trkpt lat="43.41108" lon="2.44954">
        <ele>851.705</ele>
        <time>2021-05-24T11:53:22Z</time>
      </trkpt>
      <trkpt lat="43.4111" lon="2.44952">
        <ele>851.421</ele>
        <time>2021-05-24T11:53:25Z</time>
      </trkpt>
      <trkpt lat="43.41111" lon="2.4495">
        <ele>851.545</ele>
        <time>2021-05-24T11:53:27Z</time>
      </trkpt>
      <trkpt lat="43.41112" lon="2.44947">
        <ele>850.618</ele>
        <time>2021-05-24T11:53:29Z</time>
      </trkpt>
      <trkpt lat="43.41112" lon="2.44944">
        <ele>850.521</ele>
        <time>2021-05-24T11:53:31Z</time>
      </trkpt>
      <trkpt lat="43.41112" lon="2.44941">
        <ele>850.046</ele>
        <time>2021-05-24T11:53:33Z</time>
      </trkpt>
      <trkpt lat="43.41113" lon="2.44939">
        <ele>849.518</ele>
        <time>2021-05-24T11:53:35Z</time>
      </trkpt>
      <trkpt lat="43.41113" lon="2.44937">
        <ele>847.953</ele>
        <time>2021-05-24T11:53:37Z</time>
      </trkpt>
      <trkpt lat="43.41114" lon="2.44935">
        <ele>846.715</ele>
        <time>2021-05-24T11:53:39Z</time>
      </trkpt>
      <trkpt lat="43.41115" lon="2.44933">
        <ele>846.897</ele>
        <time>2021-05-24T11:53:41Z</time>
      </trkpt>
      <trkpt lat="43.41117" lon="2.4493">
        <ele>845.856</ele>
        <time>2021-05-24T11:53:43Z</time>
      </trkpt>
      <trkpt lat="43.41117" lon="2.44927">
        <ele>846.92</ele>
        <time>2021-05-24T11:53:45Z</time>
      </trkpt>
      <trkpt lat="43.41119" lon="2.44925">
        <ele>846.404</ele>
        <time>2021-05-24T11:53:47Z</time>
      </trkpt>
      <trkpt lat="43.41121" lon="2.44922">
        <ele>846.922</ele>
        <time>2021-05-24T11:53:49Z</time>
      </trkpt>
      <trkpt lat="43.41123" lon="2.4492">
        <ele>846.077</ele>
        <time>2021-05-24T11:53:51Z</time>
      </trkpt>
      <trkpt lat="43.41125" lon="2.44918">
        <ele>845.512</ele>
        <time>2021-05-24T11:53:53Z</time>
      </trkpt>
      <trkpt lat="43.41127" lon="2.44916">
        <ele>844.766</ele>
        <time>2021-05-24T11:53:55Z</time>
      </trkpt>
      <trkpt lat="43.41128" lon="2.44914">
        <ele>844.457</ele>
        <time>2021-05-24T11:53:57Z</time>
      </trkpt>
      <trkpt lat="43.41131" lon="2.44913">
        <ele>843.217</ele>
        <time>2021-05-24T11:53:59Z</time>
      </trkpt>
      <trkpt lat="43.41133" lon="2.44913">
        <ele>841.945</ele>
        <time>2021-05-24T11:54:01Z</time>
      </trkpt>
      <trkpt lat="43.41136" lon="2.4491">
        <ele>841.205</ele>
        <time>2021-05-24T11:54:03Z</time>
      </trkpt>
      <trkpt lat="43.41139" lon="2.44908">
        <ele>841.276</ele>
        <time>2021-05-24T11:54:05Z</time>
      </trkpt>
      <trkpt lat="43.41141" lon="2.44906">
        <ele>841.596</ele>
        <time>2021-05-24T11:54:07Z</time>
      </trkpt>
      <trkpt lat="43.41143" lon="2.44904">
        <ele>841.112</ele>
        <time>2021-05-24T11:54:09Z</time>
      </trkpt>
      <trkpt lat="43.41145" lon="2.44903">
        <ele>840.588</ele>
        <time>2021-05-24T11:54:11Z</time>
      </trkpt>
      <trkpt lat="43.41148" lon="2.44901">
        <ele>840.781</ele>
        <time>2021-05-24T11:54:13Z</time>
      </trkpt>
      <trkpt lat="43.4115" lon="2.44899">
        <ele>840.643</ele>
        <time>2021-05-24T11:54:15Z</time>
      </trkpt>
      <trkpt lat="43.41152" lon="2.44897">
        <ele>839.55</ele>
        <time>2021-05-24T11:54:17Z</time>
      </trkpt>
      <trkpt lat="43.41154" lon="2.44894">
        <ele>840.24</ele>
        <time>2021-05-24T11:54:19Z</time>
      </trkpt>
      <trkpt lat="43.41156" lon="2.44893">
        <ele>840.021</ele>
        <time>2021-05-24T11:54:21Z</time>
      </trkpt>
      <trkpt lat="43.41158" lon="2.44891">
        <ele>840.263</ele>
        <time>2021-05-24T11:54:23Z</time>
      </trkpt>
      <trkpt lat="43.4116" lon="2.4489">
        <ele>837.274</ele>
        <time>2021-05-24T11:54:25Z</time>
      </trkpt>
      <trkpt lat="43.41161" lon="2.44888">
        <ele>836.993</ele>
        <time>2021-05-24T11:54:27Z</time>
      </trkpt>
      <trkpt lat="43.41163" lon="2.44886">
        <ele>836.559</ele>
        <time>2021-05-24T11:54:29Z</time>
      </trkpt>
      <trkpt lat="43.41165" lon="2.44884">
        <ele>835.354</ele>
        <time>2021-05-24T11:54:31Z</time>
      </trkpt>
      <trkpt lat="43.41168" lon="2.44883">
        <ele>834.926</ele>
        <time>2021-05-24T11:54:33Z</time>
      </trkpt>
      <trkpt lat="43.4117" lon="2.44881">
        <ele>834.346</ele>
        <time>2021-05-24T11:54:35Z</time>
      </trkpt>
      <trkpt lat="43.41172" lon="2.4488">
        <ele>833.467</ele>
        <time>2021-05-24T11:54:37Z</time>
      </trkpt>
      <trkpt lat="43.41174" lon="2.44879">
        <ele>833.505</ele>
        <time>2021-05-24T11:54:39Z</time>
      </trkpt>
      <trkpt lat="43.41176" lon="2.44878">
        <ele>832.289</ele>
        <time>2021-05-24T11:54:41Z</time>
      </trkpt>
      <trkpt lat="43.41179" lon="2.44876">
        <ele>831.419</ele>
        <time>2021-05-24T11:54:43Z</time>
      </trkpt>
      <trkpt lat="43.41181" lon="2.44881">
        <ele>827.757</ele>
        <time>2021-05-24T11:54:45Z</time>
      </trkpt>
      <trkpt lat="43.41178" lon="2.44882">
        <ele>827.386</ele>
        <time>2021-05-24T11:54:47Z</time>
      </trkpt>
      <trkpt lat="43.41176" lon="2.44883">
        <ele>829.42</ele>
        <time>2021-05-24T11:54:49Z</time>
      </trkpt>
      <trkpt lat="43.41176" lon="2.44882">
        <ele>830.567</ele>
        <time>2021-05-24T11:54:51Z</time>
      </trkpt>
      <trkpt lat="43.41176" lon="2.44882">
        <ele>831.024</ele>
        <time>2021-05-24T11:54:53Z</time>
      </trkpt>
      <trkpt lat="43.41176" lon="2.44881">
        <ele>831.043</ele>
        <time>2021-05-24T11:54:55Z</time>
      </trkpt>
      <trkpt lat="43.41176" lon="2.44882">
        <ele>831.119</ele>
        <time>2021-05-24T11:54:57Z</time>
      </trkpt>
      <trkpt lat="43.41176" lon="2.44882">
        <ele>831.133</ele>
        <time>2021-05-24T11:54:59Z</time>
      </trkpt>
      <trkpt lat="43.41176" lon="2.44882">
        <ele>831.128</ele>
        <time>2021-05-24T11:55:01Z</time>
      </trkpt>
      <trkpt lat="43.41176" lon="2.44882">
        <ele>831.125</ele>
        <time>2021-05-24T11:55:03Z</time>
      </trkpt>
      <trkpt lat="43.41176" lon="2.44882">
        <ele>831.127</ele>
        <time>2021-05-24T11:55:05Z</time>
      </trkpt>
      <trkpt lat="43.41176" lon="2.44882">
        <ele>831.132</ele>
        <time>2021-05-24T11:55:07Z</time>
      </trkpt>
      <trkpt lat="43.41176" lon="2.44882">
        <ele>831.129</ele>
        <time>2021-05-24T11:55:09Z</time>
      </trkpt>
      <trkpt lat="43.41176" lon="2.44882">
        <ele>831.121</ele>
        <time>2021-05-24T11:55:11Z</time>
      </trkpt>
      <trkpt lat="43.41176" lon="2.44882">
        <ele>831.117</ele>
        <time>2021-05-24T11:55:13Z</time>
      </trkpt>
      <trkpt lat="43.41176" lon="2.44882">
        <ele>831.108</ele>
        <time>2021-05-24T11:55:15Z</time>
      </trkpt>
      <trkpt lat="43.41176" lon="2.44882">
        <ele>831.096</ele>
        <time>2021-05-24T11:55:17Z</time>
      </trkpt>
      <trkpt lat="43.41176" lon="2.44882">
        <ele>831.103</ele>
        <time>2021-05-24T11:55:19Z</time>
      </trkpt>
      <trkpt lat="43.41176" lon="2.44882">
        <ele>831.104</ele>
        <time>2021-05-24T11:55:21Z</time>
      </trkpt>
      <trkpt lat="43.41176" lon="2.44882">
        <ele>831.093</ele>
        <time>2021-05-24T11:55:23Z</time>
      </trkpt>
      <trkpt lat="43.41176" lon="2.44882">
        <ele>831.081</ele>
        <time>2021-05-24T11:55:25Z</time>
      </trkpt>
      <trkpt lat="43.41177" lon="2.44881">
        <ele>831.536</ele>
        <time>2021-05-24T11:55:27Z</time>
      </trkpt>
      <trkpt lat="43.41177" lon="2.44881">
        <ele>831.51</ele>
        <time>2021-05-24T11:55:29Z</time>
      </trkpt>
      <trkpt lat="43.41177" lon="2.44881">
        <ele>831.506</ele>
        <time>2021-05-24T11:55:31Z</time>
      </trkpt>
      <trkpt lat="43.41177" lon="2.44881">
        <ele>831.502</ele>
        <time>2021-05-24T11:55:33Z</time>
      </trkpt>
      <trkpt lat="43.41177" lon="2.44881">
        <ele>831.295</ele>
        <time>2021-05-24T11:55:35Z</time>
      </trkpt>
      <trkpt lat="43.41177" lon="2.44881">
        <ele>832.043</ele>
        <time>2021-05-24T11:55:37Z</time>
      </trkpt>
      <trkpt lat="43.41177" lon="2.44881">
        <ele>832.077</ele>
        <time>2021-05-24T11:55:39Z</time>
      </trkpt>
      <trkpt lat="43.41177" lon="2.44881">
        <ele>832.051</ele>
        <time>2021-05-24T11:55:41Z</time>
      </trkpt>
      <trkpt lat="43.41179" lon="2.44881">
        <ele>832.421</ele>
        <time>2021-05-24T11:55:44Z</time>
      </trkpt>
      <trkpt lat="43.41179" lon="2.4488">
        <ele>833.331</ele>
        <time>2021-05-24T11:55:46Z</time>
      </trkpt>
      <trkpt lat="43.41179" lon="2.4488">
        <ele>833.343</ele>
        <time>2021-05-24T11:55:48Z</time>
      </trkpt>
      <trkpt lat="43.41179" lon="2.4488">
        <ele>833.36</ele>
        <time>2021-05-24T11:55:50Z</time>
      </trkpt>
      <trkpt lat="43.41179" lon="2.4488">
        <ele>832.958</ele>
        <time>2021-05-24T11:55:52Z</time>
      </trkpt>
      <trkpt lat="43.41179" lon="2.4488">
        <ele>832.965</ele>
        <time>2021-05-24T11:55:54Z</time>
      </trkpt>
      <trkpt lat="43.4118" lon="2.4488">
        <ele>833.03</ele>
        <time>2021-05-24T11:55:56Z</time>
      </trkpt>
      <trkpt lat="43.41181" lon="2.44878">
        <ele>831.938</ele>
        <time>2021-05-24T11:55:58Z</time>
      </trkpt>
      <trkpt lat="43.41183" lon="2.44876">
        <ele>830.121</ele>
        <time>2021-05-24T11:56:00Z</time>
      </trkpt>
      <trkpt lat="43.41184" lon="2.44875">
        <ele>830.868</ele>
        <time>2021-05-24T11:56:02Z</time>
      </trkpt>
      <trkpt lat="43.41186" lon="2.44874">
        <ele>831.042</ele>
        <time>2021-05-24T11:56:04Z</time>
      </trkpt>
      <trkpt lat="43.41188" lon="2.44874">
        <ele>831.031</ele>
        <time>2021-05-24T11:56:06Z</time>
      </trkpt>
      <trkpt lat="43.41189" lon="2.44871">
        <ele>831.165</ele>
        <time>2021-05-24T11:56:08Z</time>
      </trkpt>
      <trkpt lat="43.41191" lon="2.4487">
        <ele>830.948</ele>
        <time>2021-05-24T11:56:10Z</time>
      </trkpt>
      <trkpt lat="43.41192" lon="2.44869">
        <ele>830.915</ele>
        <time>2021-05-24T11:56:12Z</time>
      </trkpt>
      <trkpt lat="43.41193" lon="2.44868">
        <ele>827.093</ele>
        <time>2021-05-24T11:56:14Z</time>
      </trkpt>
      <trkpt lat="43.41194" lon="2.44866">
        <ele>827.77</ele>
        <time>2021-05-24T11:56:16Z</time>
      </trkpt>
      <trkpt lat="43.41196" lon="2.44865">
        <ele>828.097</ele>
        <time>2021-05-24T11:56:18Z</time>
      </trkpt>
      <trkpt lat="43.41198" lon="2.44865">
        <ele>830.218</ele>
        <time>2021-05-24T11:56:20Z</time>
      </trkpt>
      <trkpt lat="43.412" lon="2.44863">
        <ele>830.688</ele>
        <time>2021-05-24T11:56:22Z</time>
      </trkpt>
      <trkpt lat="43.41201" lon="2.4486">
        <ele>832.252</ele>
        <time>2021-05-24T11:56:24Z</time>
      </trkpt>
      <trkpt lat="43.41203" lon="2.44858">
        <ele>832.527</ele>
        <time>2021-05-24T11:56:26Z</time>
      </trkpt>
      <trkpt lat="43.41204" lon="2.44856">
        <ele>831.966</ele>
        <time>2021-05-24T11:56:28Z</time>
      </trkpt>
      <trkpt lat="43.41207" lon="2.44854">
        <ele>833.809</ele>
        <time>2021-05-24T11:56:30Z</time>
      </trkpt>
      <trkpt lat="43.41209" lon="2.44852">
        <ele>834.155</ele>
        <time>2021-05-24T11:56:32Z</time>
      </trkpt>
      <trkpt lat="43.41212" lon="2.4485">
        <ele>832.674</ele>
        <time>2021-05-24T11:56:34Z</time>
      </trkpt>
      <trkpt lat="43.41214" lon="2.44848">
        <ele>834.496</ele>
        <time>2021-05-24T11:56:36Z</time>
      </trkpt>
      <trkpt lat="43.41216" lon="2.44846">
        <ele>834.22</ele>
        <time>2021-05-24T11:56:38Z</time>
      </trkpt>
      <trkpt lat="43.41219" lon="2.44845">
        <ele>833.523</ele>
        <time>2021-05-24T11:56:40Z</time>
      </trkpt>
      <trkpt lat="43.41221" lon="2.44844">
        <ele>832.61</ele>
        <time>2021-05-24T11:56:42Z</time>
      </trkpt>
      <trkpt lat="43.41223" lon="2.44844">
        <ele>833.889</ele>
        <time>2021-05-24T11:56:44Z</time>
      </trkpt>
      <trkpt lat="43.41224" lon="2.44842">
        <ele>834.818</ele>
        <time>2021-05-24T11:56:46Z</time>
      </trkpt>
      <trkpt lat="43.41227" lon="2.44841">
        <ele>835.862</ele>
        <time>2021-05-24T11:56:48Z</time>
      </trkpt>
      <trkpt lat="43.41229" lon="2.44839">
        <ele>836.979</ele>
        <time>2021-05-24T11:56:50Z</time>
      </trkpt>
      <trkpt lat="43.41231" lon="2.44838">
        <ele>836.218</ele>
        <time>2021-05-24T11:56:52Z</time>
      </trkpt>
      <trkpt lat="43.41234" lon="2.44836">
        <ele>835.649</ele>
        <time>2021-05-24T11:56:54Z</time>
      </trkpt>
      <trkpt lat="43.41236" lon="2.44834">
        <ele>833.632</ele>
        <time>2021-05-24T11:56:56Z</time>
      </trkpt>
      <trkpt lat="43.41237" lon="2.44832">
        <ele>833.332</ele>
        <time>2021-05-24T11:56:58Z</time>
      </trkpt>
      <trkpt lat="43.4124" lon="2.4483">
        <ele>833.078</ele>
        <time>2021-05-24T11:57:00Z</time>
      </trkpt>
      <trkpt lat="43.41241" lon="2.44828">
        <ele>832.905</ele>
        <time>2021-05-24T11:57:02Z</time>
      </trkpt>
      <trkpt lat="43.41242" lon="2.44826">
        <ele>832.388</ele>
        <time>2021-05-24T11:57:04Z</time>
      </trkpt>
      <trkpt lat="43.41243" lon="2.44824">
        <ele>832.062</ele>
        <time>2021-05-24T11:57:06Z</time>
      </trkpt>
      <trkpt lat="43.41245" lon="2.44822">
        <ele>831.625</ele>
        <time>2021-05-24T11:57:08Z</time>
      </trkpt>
      <trkpt lat="43.41246" lon="2.44819">
        <ele>834.785</ele>
        <time>2021-05-24T11:57:10Z</time>
      </trkpt>
      <trkpt lat="43.41245" lon="2.44816">
        <ele>838.07</ele>
        <time>2021-05-24T11:57:12Z</time>
      </trkpt>
      <trkpt lat="43.41243" lon="2.44818">
        <ele>832.09</ele>
        <time>2021-05-24T11:57:14Z</time>
      </trkpt>
      <trkpt lat="43.41243" lon="2.44819">
        <ele>832.126</ele>
        <time>2021-05-24T11:57:16Z</time>
      </trkpt>
      <trkpt lat="43.41243" lon="2.44819">
        <ele>832.14</ele>
        <time>2021-05-24T11:57:18Z</time>
      </trkpt>
      <trkpt lat="43.41243" lon="2.44818">
        <ele>832.592</ele>
        <time>2021-05-24T11:57:20Z</time>
      </trkpt>
      <trkpt lat="43.41243" lon="2.44818">
        <ele>832.599</ele>
        <time>2021-05-24T11:57:22Z</time>
      </trkpt>
      <trkpt lat="43.41243" lon="2.44818">
        <ele>832.541</ele>
        <time>2021-05-24T11:57:24Z</time>
      </trkpt>
      <trkpt lat="43.41243" lon="2.44818">
        <ele>832.644</ele>
        <time>2021-05-24T11:57:26Z</time>
      </trkpt>
      <trkpt lat="43.41243" lon="2.44818">
        <ele>832.636</ele>
        <time>2021-05-24T11:57:28Z</time>
      </trkpt>
      <trkpt lat="43.41243" lon="2.44818">
        <ele>832.647</ele>
        <time>2021-05-24T11:57:30Z</time>
      </trkpt>
      <trkpt lat="43.41243" lon="2.44817">
        <ele>832.737</ele>
        <time>2021-05-24T11:57:32Z</time>
      </trkpt>
      <trkpt lat="43.41243" lon="2.44817">
        <ele>832.739</ele>
        <time>2021-05-24T11:57:34Z</time>
      </trkpt>
      <trkpt lat="43.41243" lon="2.44817">
        <ele>832.737</ele>
        <time>2021-05-24T11:57:36Z</time>
      </trkpt>
      <trkpt lat="43.41243" lon="2.44817">
        <ele>832.745</ele>
        <time>2021-05-24T11:57:38Z</time>
      </trkpt>
      <trkpt lat="43.41243" lon="2.44817">
        <ele>833.056</ele>
        <time>2021-05-24T11:57:40Z</time>
      </trkpt>
      <trkpt lat="43.41242" lon="2.44816">
        <ele>833.703</ele>
        <time>2021-05-24T11:57:42Z</time>
      </trkpt>
      <trkpt lat="43.41242" lon="2.44813">
        <ele>834.068</ele>
        <time>2021-05-24T11:57:44Z</time>
      </trkpt>
      <trkpt lat="43.41243" lon="2.4481">
        <ele>833.732</ele>
        <time>2021-05-24T11:57:46Z</time>
      </trkpt>
      <trkpt lat="43.41243" lon="2.4481">
        <ele>833.879</ele>
        <time>2021-05-24T11:57:48Z</time>
      </trkpt>
      <trkpt lat="43.41243" lon="2.44807">
        <ele>833.464</ele>
        <time>2021-05-24T11:57:50Z</time>
      </trkpt>
      <trkpt lat="43.41243" lon="2.44804">
        <ele>835.203</ele>
        <time>2021-05-24T11:57:52Z</time>
      </trkpt>
      <trkpt lat="43.41242" lon="2.44799">
        <ele>834.765</ele>
        <time>2021-05-24T11:57:54Z</time>
      </trkpt>
      <trkpt lat="43.41241" lon="2.44796">
        <ele>833.523</ele>
        <time>2021-05-24T11:57:56Z</time>
      </trkpt>
      <trkpt lat="43.4124" lon="2.44794">
        <ele>832.449</ele>
        <time>2021-05-24T11:57:58Z</time>
      </trkpt>
      <trkpt lat="43.41238" lon="2.44792">
        <ele>831.187</ele>
        <time>2021-05-24T11:58:00Z</time>
      </trkpt>
      <trkpt lat="43.41237" lon="2.4479">
        <ele>829.853</ele>
        <time>2021-05-24T11:58:02Z</time>
      </trkpt>
      <trkpt lat="43.41234" lon="2.44789">
        <ele>830.032</ele>
        <time>2021-05-24T11:58:04Z</time>
      </trkpt>
      <trkpt lat="43.41232" lon="2.44788">
        <ele>833.344</ele>
        <time>2021-05-24T11:58:06Z</time>
      </trkpt>
      <trkpt lat="43.4123" lon="2.44788">
        <ele>833.638</ele>
        <time>2021-05-24T11:58:08Z</time>
      </trkpt>
      <trkpt lat="43.41228" lon="2.44786">
        <ele>835.528</ele>
        <time>2021-05-24T11:58:10Z</time>
      </trkpt>
      <trkpt lat="43.41226" lon="2.44785">
        <ele>834.072</ele>
        <time>2021-05-24T11:58:12Z</time>
      </trkpt>
      <trkpt lat="43.41222" lon="2.44785">
        <ele>834.684</ele>
        <time>2021-05-24T11:58:14Z</time>
      </trkpt>
      <trkpt lat="43.4122" lon="2.44785">
        <ele>834.863</ele>
        <time>2021-05-24T11:58:16Z</time>
      </trkpt>
      <trkpt lat="43.41218" lon="2.44784">
        <ele>834.704</ele>
        <time>2021-05-24T11:58:18Z</time>
      </trkpt>
      <trkpt lat="43.41215" lon="2.44783">
        <ele>836.974</ele>
        <time>2021-05-24T11:58:20Z</time>
      </trkpt>
      <trkpt lat="43.41212" lon="2.44782">
        <ele>840.211</ele>
        <time>2021-05-24T11:58:22Z</time>
      </trkpt>
      <trkpt lat="43.41209" lon="2.44781">
        <ele>841.618</ele>
        <time>2021-05-24T11:58:24Z</time>
      </trkpt>
      <trkpt lat="43.41206" lon="2.4478">
        <ele>842.732</ele>
        <time>2021-05-24T11:58:26Z</time>
      </trkpt>
      <trkpt lat="43.41204" lon="2.44779">
        <ele>839.514</ele>
        <time>2021-05-24T11:58:28Z</time>
      </trkpt>
      <trkpt lat="43.41201" lon="2.44778">
        <ele>839.292</ele>
        <time>2021-05-24T11:58:30Z</time>
      </trkpt>
      <trkpt lat="43.41199" lon="2.44776">
        <ele>838.315</ele>
        <time>2021-05-24T11:58:32Z</time>
      </trkpt>
      <trkpt lat="43.41196" lon="2.44774">
        <ele>837.172</ele>
        <time>2021-05-24T11:58:34Z</time>
      </trkpt>
      <trkpt lat="43.41194" lon="2.44773">
        <ele>836.361</ele>
        <time>2021-05-24T11:58:36Z</time>
      </trkpt>
      <trkpt lat="43.41191" lon="2.44772">
        <ele>836.49</ele>
        <time>2021-05-24T11:58:38Z</time>
      </trkpt>
      <trkpt lat="43.41189" lon="2.4477">
        <ele>835.05</ele>
        <time>2021-05-24T11:58:40Z</time>
      </trkpt>
      <trkpt lat="43.41187" lon="2.44768">
        <ele>832.567</ele>
        <time>2021-05-24T11:58:42Z</time>
      </trkpt>
      <trkpt lat="43.41184" lon="2.44769">
        <ele>835.705</ele>
        <time>2021-05-24T11:58:44Z</time>
      </trkpt>
      <trkpt lat="43.41181" lon="2.44768">
        <ele>837.642</ele>
        <time>2021-05-24T11:58:46Z</time>
      </trkpt>
      <trkpt lat="43.41179" lon="2.44767">
        <ele>837.58</ele>
        <time>2021-05-24T11:58:48Z</time>
      </trkpt>
      <trkpt lat="43.41177" lon="2.44765">
        <ele>837.722</ele>
        <time>2021-05-24T11:58:50Z</time>
      </trkpt>
      <trkpt lat="43.41175" lon="2.44762">
        <ele>838.747</ele>
        <time>2021-05-24T11:58:52Z</time>
      </trkpt>
      <trkpt lat="43.41174" lon="2.44758">
        <ele>838.47</ele>
        <time>2021-05-24T11:58:54Z</time>
      </trkpt>
      <trkpt lat="43.41176" lon="2.44754">
        <ele>840.498</ele>
        <time>2021-05-24T11:58:56Z</time>
      </trkpt>
      <trkpt lat="43.41178" lon="2.44752">
        <ele>841.236</ele>
        <time>2021-05-24T11:58:58Z</time>
      </trkpt>
      <trkpt lat="43.4118" lon="2.4475">
        <ele>841.786</ele>
        <time>2021-05-24T11:59:00Z</time>
      </trkpt>
      <trkpt lat="43.41181" lon="2.44749">
        <ele>843.062</ele>
        <time>2021-05-24T11:59:02Z</time>
      </trkpt>
      <trkpt lat="43.41183" lon="2.44748">
        <ele>844.209</ele>
        <time>2021-05-24T11:59:04Z</time>
      </trkpt>
      <trkpt lat="43.41184" lon="2.44747">
        <ele>844.014</ele>
        <time>2021-05-24T11:59:06Z</time>
      </trkpt>
      <trkpt lat="43.41185" lon="2.44746">
        <ele>844.752</ele>
        <time>2021-05-24T11:59:08Z</time>
      </trkpt>
      <trkpt lat="43.41187" lon="2.44744">
        <ele>844.887</ele>
        <time>2021-05-24T11:59:10Z</time>
      </trkpt>
      <trkpt lat="43.41186" lon="2.44744">
        <ele>844.783</ele>
        <time>2021-05-24T11:59:12Z</time>
      </trkpt>
      <trkpt lat="43.41186" lon="2.44743">
        <ele>843.811</ele>
        <time>2021-05-24T11:59:14Z</time>
      </trkpt>
      <trkpt lat="43.41182" lon="2.44745">
        <ele>844.013</ele>
        <time>2021-05-24T11:59:16Z</time>
      </trkpt>
      <trkpt lat="43.4118" lon="2.44748">
        <ele>843.975</ele>
        <time>2021-05-24T11:59:18Z</time>
      </trkpt>
      <trkpt lat="43.41179" lon="2.44751">
        <ele>843.171</ele>
        <time>2021-05-24T11:59:20Z</time>
      </trkpt>
      <trkpt lat="43.41178" lon="2.44751">
        <ele>842.689</ele>
        <time>2021-05-24T11:59:22Z</time>
      </trkpt>
      <trkpt lat="43.41176" lon="2.44753">
        <ele>843.245</ele>
        <time>2021-05-24T11:59:24Z</time>
      </trkpt>
      <trkpt lat="43.41176" lon="2.44753">
        <ele>843.132</ele>
        <time>2021-05-24T11:59:26Z</time>
      </trkpt>
      <trkpt lat="43.41176" lon="2.44753">
        <ele>843.129</ele>
        <time>2021-05-24T11:59:28Z</time>
      </trkpt>
      <trkpt lat="43.41176" lon="2.44753">
        <ele>843.134</ele>
        <time>2021-05-24T11:59:30Z</time>
      </trkpt>
      <trkpt lat="43.41176" lon="2.44753">
        <ele>843.743</ele>
        <time>2021-05-24T11:59:32Z</time>
      </trkpt>
      <trkpt lat="43.41176" lon="2.44753">
        <ele>844.081</ele>
        <time>2021-05-24T11:59:34Z</time>
      </trkpt>
      <trkpt lat="43.41176" lon="2.44753">
        <ele>844.31</ele>
        <time>2021-05-24T11:59:36Z</time>
      </trkpt>
      <trkpt lat="43.41176" lon="2.44752">
        <ele>844.283</ele>
        <time>2021-05-24T11:59:38Z</time>
      </trkpt>
      <trkpt lat="43.41176" lon="2.44752">
        <ele>844.288</ele>
        <time>2021-05-24T11:59:40Z</time>
      </trkpt>
      <trkpt lat="43.41176" lon="2.44752">
        <ele>844.294</ele>
        <time>2021-05-24T11:59:42Z</time>
      </trkpt>
      <trkpt lat="43.41176" lon="2.44752">
        <ele>844.717</ele>
        <time>2021-05-24T11:59:44Z</time>
      </trkpt>
      <trkpt lat="43.41176" lon="2.44751">
        <ele>844.809</ele>
        <time>2021-05-24T11:59:46Z</time>
      </trkpt>
      <trkpt lat="43.41176" lon="2.44751">
        <ele>844.816</ele>
        <time>2021-05-24T11:59:48Z</time>
      </trkpt>
      <trkpt lat="43.41176" lon="2.44751">
        <ele>844.824</ele>
        <time>2021-05-24T11:59:50Z</time>
      </trkpt>
      <trkpt lat="43.41176" lon="2.44751">
        <ele>844.848</ele>
        <time>2021-05-24T11:59:52Z</time>
      </trkpt>
      <trkpt lat="43.41176" lon="2.44751">
        <ele>846.103</ele>
        <time>2021-05-24T11:59:54Z</time>
      </trkpt>
      <trkpt lat="43.41175" lon="2.44751">
        <ele>846.112</ele>
        <time>2021-05-24T11:59:56Z</time>
      </trkpt>
      <trkpt lat="43.41175" lon="2.44751">
        <ele>846.101</ele>
        <time>2021-05-24T11:59:58Z</time>
      </trkpt>
      <trkpt lat="43.41175" lon="2.44752">
        <ele>846.29</ele>
        <time>2021-05-24T12:00:00Z</time>
      </trkpt>
      <trkpt lat="43.41175" lon="2.44752">
        <ele>846.333</ele>
        <time>2021-05-24T12:00:02Z</time>
      </trkpt>
      <trkpt lat="43.41175" lon="2.44752">
        <ele>846.575</ele>
        <time>2021-05-24T12:00:04Z</time>
      </trkpt>
      <trkpt lat="43.41175" lon="2.44751">
        <ele>847.076</ele>
        <time>2021-05-24T12:00:06Z</time>
      </trkpt>
      <trkpt lat="43.41175" lon="2.44752">
        <ele>847.252</ele>
        <time>2021-05-24T12:00:08Z</time>
      </trkpt>
      <trkpt lat="43.41175" lon="2.44752">
        <ele>847.543</ele>
        <time>2021-05-24T12:00:10Z</time>
      </trkpt>
      <trkpt lat="43.41175" lon="2.44752">
        <ele>847.522</ele>
        <time>2021-05-24T12:00:12Z</time>
      </trkpt>
      <trkpt lat="43.41175" lon="2.44752">
        <ele>847.517</ele>
        <time>2021-05-24T12:00:14Z</time>
      </trkpt>
      <trkpt lat="43.41175" lon="2.44752">
        <ele>847.518</ele>
        <time>2021-05-24T12:00:16Z</time>
      </trkpt>
      <trkpt lat="43.41175" lon="2.44752">
        <ele>847.514</ele>
        <time>2021-05-24T12:00:18Z</time>
      </trkpt>
      <trkpt lat="43.41175" lon="2.44752">
        <ele>847.514</ele>
        <time>2021-05-24T12:00:20Z</time>
      </trkpt>
      <trkpt lat="43.41175" lon="2.44752">
        <ele>847.52</ele>
        <time>2021-05-24T12:00:22Z</time>
      </trkpt>
      <trkpt lat="43.41175" lon="2.44752">
        <ele>847.519</ele>
        <time>2021-05-24T12:00:24Z</time>
      </trkpt>
      <trkpt lat="43.41175" lon="2.44752">
        <ele>847.364</ele>
        <time>2021-05-24T12:00:26Z</time>
      </trkpt>
      <trkpt lat="43.41175" lon="2.44752">
        <ele>847.239</ele>
        <time>2021-05-24T12:00:28Z</time>
      </trkpt>
      <trkpt lat="43.41175" lon="2.44752">
        <ele>847.23</ele>
        <time>2021-05-24T12:00:30Z</time>
      </trkpt>
      <trkpt lat="43.41175" lon="2.44752">
        <ele>847.226</ele>
        <time>2021-05-24T12:00:32Z</time>
      </trkpt>
      <trkpt lat="43.41175" lon="2.44752">
        <ele>847.237</ele>
        <time>2021-05-24T12:00:34Z</time>
      </trkpt>
      <trkpt lat="43.41175" lon="2.44752">
        <ele>847.241</ele>
        <time>2021-05-24T12:00:36Z</time>
      </trkpt>
      <trkpt lat="43.41175" lon="2.44752">
        <ele>847.255</ele>
        <time>2021-05-24T12:00:38Z</time>
      </trkpt>
      <trkpt lat="43.41175" lon="2.44752">
        <ele>847.273</ele>
        <time>2021-05-24T12:00:40Z</time>
      </trkpt>
      <trkpt lat="43.41175" lon="2.44752">
        <ele>847.27</ele>
        <time>2021-05-24T12:00:42Z</time>
      </trkpt>
      <trkpt lat="43.41175" lon="2.44752">
        <ele>847.27</ele>
        <time>2021-05-24T12:00:44Z</time>
      </trkpt>
      <trkpt lat="43.41175" lon="2.44752">
        <ele>847.707</ele>
        <time>2021-05-24T12:00:46Z</time>
      </trkpt>
      <trkpt lat="43.41175" lon="2.44752">
        <ele>847.71</ele>
        <time>2021-05-24T12:00:48Z</time>
      </trkpt>
      <trkpt lat="43.41175" lon="2.44752">
        <ele>848.128</ele>
        <time>2021-05-24T12:00:50Z</time>
      </trkpt>
      <trkpt lat="43.41174" lon="2.44752">
        <ele>848.15</ele>
        <time>2021-05-24T12:00:52Z</time>
      </trkpt>
      <trkpt lat="43.41174" lon="2.44752">
        <ele>848.145</ele>
        <time>2021-05-24T12:00:54Z</time>
      </trkpt>
      <trkpt lat="43.41174" lon="2.44752">
        <ele>848.13</ele>
        <time>2021-05-24T12:00:56Z</time>
      </trkpt>
      <trkpt lat="43.41174" lon="2.44752">
        <ele>848.129</ele>
        <time>2021-05-24T12:00:58Z</time>
      </trkpt>
      <trkpt lat="43.41175" lon="2.44753">
        <ele>848.018</ele>
        <time>2021-05-24T12:01:00Z</time>
      </trkpt>
      <trkpt lat="43.41175" lon="2.44753">
        <ele>848.007</ele>
        <time>2021-05-24T12:01:02Z</time>
      </trkpt>
      <trkpt lat="43.41175" lon="2.44753">
        <ele>848.005</ele>
        <time>2021-05-24T12:01:04Z</time>
      </trkpt>
      <trkpt lat="43.41175" lon="2.44753">
        <ele>848.446</ele>
        <time>2021-05-24T12:01:06Z</time>
      </trkpt>
      <trkpt lat="43.41175" lon="2.44753">
        <ele>847.762</ele>
        <time>2021-05-24T12:01:08Z</time>
      </trkpt>
      <trkpt lat="43.41174" lon="2.44753">
        <ele>846.902</ele>
        <time>2021-05-24T12:01:10Z</time>
      </trkpt>
      <trkpt lat="43.41174" lon="2.44752">
        <ele>846.945</ele>
        <time>2021-05-24T12:01:12Z</time>
      </trkpt>
      <trkpt lat="43.41174" lon="2.44752">
        <ele>847.378</ele>
        <time>2021-05-24T12:01:14Z</time>
      </trkpt>
      <trkpt lat="43.41174" lon="2.44751">
        <ele>847.595</ele>
        <time>2021-05-24T12:01:16Z</time>
      </trkpt>
      <trkpt lat="43.41175" lon="2.44748">
        <ele>848.442</ele>
        <time>2021-05-24T12:01:18Z</time>
      </trkpt>
      <trkpt lat="43.41174" lon="2.44747">
        <ele>848.176</ele>
        <time>2021-05-24T12:01:20Z</time>
      </trkpt>
      <trkpt lat="43.41174" lon="2.44747">
        <ele>848.181</ele>
        <time>2021-05-24T12:01:22Z</time>
      </trkpt>
      <trkpt lat="43.41174" lon="2.44747">
        <ele>848.197</ele>
        <time>2021-05-24T12:01:24Z</time>
      </trkpt>
      <trkpt lat="43.41175" lon="2.44747">
        <ele>848.773</ele>
        <time>2021-05-24T12:01:26Z</time>
      </trkpt>
      <trkpt lat="43.41175" lon="2.44747">
        <ele>848.812</ele>
        <time>2021-05-24T12:01:28Z</time>
      </trkpt>
      <trkpt lat="43.41175" lon="2.44747">
        <ele>848.812</ele>
        <time>2021-05-24T12:01:30Z</time>
      </trkpt>
      <trkpt lat="43.41175" lon="2.44747">
        <ele>848.808</ele>
        <time>2021-05-24T12:01:32Z</time>
      </trkpt>
      <trkpt lat="43.41175" lon="2.44747">
        <ele>848.823</ele>
        <time>2021-05-24T12:01:34Z</time>
      </trkpt>
      <trkpt lat="43.41175" lon="2.44747">
        <ele>848.827</ele>
        <time>2021-05-24T12:01:36Z</time>
      </trkpt>
      <trkpt lat="43.41175" lon="2.44747">
        <ele>848.2</ele>
        <time>2021-05-24T12:01:38Z</time>
      </trkpt>
      <trkpt lat="43.41175" lon="2.44747">
        <ele>848.416</ele>
        <time>2021-05-24T12:01:40Z</time>
      </trkpt>
      <trkpt lat="43.41175" lon="2.44747">
        <ele>848.728</ele>
        <time>2021-05-24T12:01:42Z</time>
      </trkpt>
      <trkpt lat="43.41175" lon="2.44747">
        <ele>848.719</ele>
        <time>2021-05-24T12:01:44Z</time>
      </trkpt>
      <trkpt lat="43.41175" lon="2.44747">
        <ele>848.716</ele>
        <time>2021-05-24T12:01:46Z</time>
      </trkpt>
      <trkpt lat="43.41175" lon="2.44747">
        <ele>848.974</ele>
        <time>2021-05-24T12:01:48Z</time>
      </trkpt>
      <trkpt lat="43.41175" lon="2.44747">
        <ele>848.94</ele>
        <time>2021-05-24T12:01:50Z</time>
      </trkpt>
      <trkpt lat="43.41175" lon="2.44747">
        <ele>848.947</ele>
        <time>2021-05-24T12:01:52Z</time>
      </trkpt>
      <trkpt lat="43.41175" lon="2.44747">
        <ele>848.98</ele>
        <time>2021-05-24T12:01:54Z</time>
      </trkpt>
      <trkpt lat="43.41175" lon="2.44749">
        <ele>848.168</ele>
        <time>2021-05-24T12:01:56Z</time>
      </trkpt>
      <trkpt lat="43.41174" lon="2.44753">
        <ele>845.923</ele>
        <time>2021-05-24T12:01:58Z</time>
      </trkpt>
      <trkpt lat="43.41173" lon="2.44756">
        <ele>847.86</ele>
        <time>2021-05-24T12:02:00Z</time>
      </trkpt>
      <trkpt lat="43.41171" lon="2.44757">
        <ele>848.414</ele>
        <time>2021-05-24T12:02:02Z</time>
      </trkpt>
      <trkpt lat="43.4117" lon="2.44758">
        <ele>847.042</ele>
        <time>2021-05-24T12:02:04Z</time>
      </trkpt>
      <trkpt lat="43.41168" lon="2.44758">
        <ele>848.642</ele>
        <time>2021-05-24T12:02:06Z</time>
      </trkpt>
      <trkpt lat="43.41166" lon="2.44758">
        <ele>847.948</ele>
        <time>2021-05-24T12:02:08Z</time>
      </trkpt>
      <trkpt lat="43.41164" lon="2.44759">
        <ele>848.131</ele>
        <time>2021-05-24T12:02:10Z</time>
      </trkpt>
      <trkpt lat="43.41161" lon="2.4476">
        <ele>847.787</ele>
        <time>2021-05-24T12:02:12Z</time>
      </trkpt>
      <trkpt lat="43.4116" lon="2.44761">
        <ele>846.941</ele>
        <time>2021-05-24T12:02:14Z</time>
      </trkpt>
      <trkpt lat="43.41158" lon="2.44761">
        <ele>845.572</ele>
        <time>2021-05-24T12:02:16Z</time>
      </trkpt>
      <trkpt lat="43.41157" lon="2.44761">
        <ele>845.09</ele>
        <time>2021-05-24T12:02:18Z</time>
      </trkpt>
      <trkpt lat="43.41154" lon="2.44761">
        <ele>845.033</ele>
        <time>2021-05-24T12:02:20Z</time>
      </trkpt>
      <trkpt lat="43.41151" lon="2.44761">
        <ele>844.98</ele>
        <time>2021-05-24T12:02:22Z</time>
      </trkpt>
      <trkpt lat="43.41149" lon="2.44762">
        <ele>845.535</ele>
        <time>2021-05-24T12:02:24Z</time>
      </trkpt>
      <trkpt lat="43.41147" lon="2.44761">
        <ele>846.083</ele>
        <time>2021-05-24T12:02:26Z</time>
      </trkpt>
      <trkpt lat="43.41145" lon="2.4476">
        <ele>846.435</ele>
        <time>2021-05-24T12:02:28Z</time>
      </trkpt>
      <trkpt lat="43.41142" lon="2.44759">
        <ele>846.451</ele>
        <time>2021-05-24T12:02:30Z</time>
      </trkpt>
      <trkpt lat="43.4114" lon="2.4476">
        <ele>848.025</ele>
        <time>2021-05-24T12:02:32Z</time>
      </trkpt>
      <trkpt lat="43.41138" lon="2.44761">
        <ele>851.047</ele>
        <time>2021-05-24T12:02:34Z</time>
      </trkpt>
      <trkpt lat="43.41137" lon="2.44763">
        <ele>851.325</ele>
        <time>2021-05-24T12:02:36Z</time>
      </trkpt>
      <trkpt lat="43.41135" lon="2.44762">
        <ele>849.972</ele>
        <time>2021-05-24T12:02:38Z</time>
      </trkpt>
      <trkpt lat="43.41133" lon="2.44761">
        <ele>849.309</ele>
        <time>2021-05-24T12:02:40Z</time>
      </trkpt>
      <trkpt lat="43.4113" lon="2.44761">
        <ele>850.908</ele>
        <time>2021-05-24T12:02:42Z</time>
      </trkpt>
      <trkpt lat="43.41128" lon="2.4476">
        <ele>850.436</ele>
        <time>2021-05-24T12:02:44Z</time>
      </trkpt>
      <trkpt lat="43.41125" lon="2.4476">
        <ele>849.996</ele>
        <time>2021-05-24T12:02:46Z</time>
      </trkpt>
      <trkpt lat="43.41123" lon="2.44759">
        <ele>850.342</ele>
        <time>2021-05-24T12:02:48Z</time>
      </trkpt>
      <trkpt lat="43.41121" lon="2.44758">
        <ele>849.717</ele>
        <time>2021-05-24T12:02:50Z</time>
      </trkpt>
      <trkpt lat="43.41119" lon="2.44757">
        <ele>849.556</ele>
        <time>2021-05-24T12:02:52Z</time>
      </trkpt>
      <trkpt lat="43.41116" lon="2.44756">
        <ele>850.283</ele>
        <time>2021-05-24T12:02:54Z</time>
      </trkpt>
      <trkpt lat="43.41114" lon="2.44755">
        <ele>849.827</ele>
        <time>2021-05-24T12:02:56Z</time>
      </trkpt>
      <trkpt lat="43.41112" lon="2.44756">
        <ele>849.484</ele>
        <time>2021-05-24T12:02:58Z</time>
      </trkpt>
      <trkpt lat="43.4111" lon="2.44755">
        <ele>847.194</ele>
        <time>2021-05-24T12:03:00Z</time>
      </trkpt>
      <trkpt lat="43.41108" lon="2.44755">
        <ele>846.273</ele>
        <time>2021-05-24T12:03:02Z</time>
      </trkpt>
      <trkpt lat="43.41106" lon="2.44755">
        <ele>844.972</ele>
        <time>2021-05-24T12:03:04Z</time>
      </trkpt>
      <trkpt lat="43.41103" lon="2.44755">
        <ele>843.429</ele>
        <time>2021-05-24T12:03:06Z</time>
      </trkpt>
      <trkpt lat="43.41101" lon="2.44754">
        <ele>842.395</ele>
        <time>2021-05-24T12:03:08Z</time>
      </trkpt>
      <trkpt lat="43.41098" lon="2.44754">
        <ele>842.223</ele>
        <time>2021-05-24T12:03:10Z</time>
      </trkpt>
      <trkpt lat="43.41096" lon="2.44753">
        <ele>841.164</ele>
        <time>2021-05-24T12:03:12Z</time>
      </trkpt>
      <trkpt lat="43.41094" lon="2.44753">
        <ele>842.272</ele>
        <time>2021-05-24T12:03:14Z</time>
      </trkpt>
      <trkpt lat="43.41091" lon="2.44753">
        <ele>842.423</ele>
        <time>2021-05-24T12:03:16Z</time>
      </trkpt>
      <trkpt lat="43.41089" lon="2.44753">
        <ele>841.108</ele>
        <time>2021-05-24T12:03:18Z</time>
      </trkpt>
      <trkpt lat="43.41086" lon="2.44752">
        <ele>840.018</ele>
        <time>2021-05-24T12:03:20Z</time>
      </trkpt>
      <trkpt lat="43.41084" lon="2.44751">
        <ele>839.227</ele>
        <time>2021-05-24T12:03:22Z</time>
      </trkpt>
      <trkpt lat="43.41081" lon="2.44751">
        <ele>837.893</ele>
        <time>2021-05-24T12:03:24Z</time>
      </trkpt>
      <trkpt lat="43.41079" lon="2.4475">
        <ele>837.466</ele>
        <time>2021-05-24T12:03:26Z</time>
      </trkpt>
      <trkpt lat="43.41077" lon="2.44749">
        <ele>836.228</ele>
        <time>2021-05-24T12:03:28Z</time>
      </trkpt>
      <trkpt lat="43.41075" lon="2.44748">
        <ele>835.704</ele>
        <time>2021-05-24T12:03:30Z</time>
      </trkpt>
      <trkpt lat="43.41072" lon="2.44748">
        <ele>835.632</ele>
        <time>2021-05-24T12:03:32Z</time>
      </trkpt>
      <trkpt lat="43.4107" lon="2.44746">
        <ele>836.466</ele>
        <time>2021-05-24T12:03:34Z</time>
      </trkpt>
      <trkpt lat="43.41068" lon="2.44744">
        <ele>836.801</ele>
        <time>2021-05-24T12:03:36Z</time>
      </trkpt>
      <trkpt lat="43.41065" lon="2.44742">
        <ele>838.337</ele>
        <time>2021-05-24T12:03:38Z</time>
      </trkpt>
      <trkpt lat="43.41062" lon="2.4474">
        <ele>838.618</ele>
        <time>2021-05-24T12:03:40Z</time>
      </trkpt>
      <trkpt lat="43.4106" lon="2.44739">
        <ele>838.17</ele>
        <time>2021-05-24T12:03:42Z</time>
      </trkpt>
      <trkpt lat="43.41057" lon="2.4474">
        <ele>839.722</ele>
        <time>2021-05-24T12:03:44Z</time>
      </trkpt>
      <trkpt lat="43.41055" lon="2.44738">
        <ele>839.706</ele>
        <time>2021-05-24T12:03:46Z</time>
      </trkpt>
      <trkpt lat="43.41052" lon="2.44737">
        <ele>839.138</ele>
        <time>2021-05-24T12:03:48Z</time>
      </trkpt>
      <trkpt lat="43.4105" lon="2.44735">
        <ele>839.607</ele>
        <time>2021-05-24T12:03:50Z</time>
      </trkpt>
      <trkpt lat="43.41048" lon="2.44733">
        <ele>838.859</ele>
        <time>2021-05-24T12:03:52Z</time>
      </trkpt>
      <trkpt lat="43.41046" lon="2.44731">
        <ele>838.161</ele>
        <time>2021-05-24T12:03:54Z</time>
      </trkpt>
      <trkpt lat="43.41043" lon="2.4473">
        <ele>838.918</ele>
        <time>2021-05-24T12:03:56Z</time>
      </trkpt>
      <trkpt lat="43.41041" lon="2.44729">
        <ele>838.002</ele>
        <time>2021-05-24T12:03:58Z</time>
      </trkpt>
      <trkpt lat="43.41039" lon="2.44728">
        <ele>837.567</ele>
        <time>2021-05-24T12:04:00Z</time>
      </trkpt>
      <trkpt lat="43.41037" lon="2.44726">
        <ele>836.919</ele>
        <time>2021-05-24T12:04:02Z</time>
      </trkpt>
      <trkpt lat="43.41036" lon="2.44724">
        <ele>835.969</ele>
        <time>2021-05-24T12:04:04Z</time>
      </trkpt>
      <trkpt lat="43.41035" lon="2.44722">
        <ele>834.026</ele>
        <time>2021-05-24T12:04:06Z</time>
      </trkpt>
      <trkpt lat="43.41033" lon="2.4472">
        <ele>832.531</ele>
        <time>2021-05-24T12:04:08Z</time>
      </trkpt>
      <trkpt lat="43.41031" lon="2.44718">
        <ele>831.765</ele>
        <time>2021-05-24T12:04:10Z</time>
      </trkpt>
      <trkpt lat="43.4103" lon="2.44717">
        <ele>831.571</ele>
        <time>2021-05-24T12:04:12Z</time>
      </trkpt>
      <trkpt lat="43.41028" lon="2.44715">
        <ele>831.164</ele>
        <time>2021-05-24T12:04:14Z</time>
      </trkpt>
      <trkpt lat="43.41025" lon="2.44715">
        <ele>832.524</ele>
        <time>2021-05-24T12:04:16Z</time>
      </trkpt>
      <trkpt lat="43.41023" lon="2.44715">
        <ele>834.207</ele>
        <time>2021-05-24T12:04:18Z</time>
      </trkpt>
      <trkpt lat="43.41022" lon="2.44714">
        <ele>833.727</ele>
        <time>2021-05-24T12:04:20Z</time>
      </trkpt>
      <trkpt lat="43.41021" lon="2.44714">
        <ele>833.895</ele>
        <time>2021-05-24T12:04:22Z</time>
      </trkpt>
      <trkpt lat="43.41021" lon="2.44714">
        <ele>833.998</ele>
        <time>2021-05-24T12:04:24Z</time>
      </trkpt>
      <trkpt lat="43.41021" lon="2.44714">
        <ele>833.998</ele>
        <time>2021-05-24T12:04:26Z</time>
      </trkpt>
      <trkpt lat="43.4102" lon="2.44714">
        <ele>834.312</ele>
        <time>2021-05-24T12:04:28Z</time>
      </trkpt>
      <trkpt lat="43.41019" lon="2.44713">
        <ele>832.69</ele>
        <time>2021-05-24T12:04:30Z</time>
      </trkpt>
      <trkpt lat="43.41017" lon="2.44711">
        <ele>832.221</ele>
        <time>2021-05-24T12:04:32Z</time>
      </trkpt>
      <trkpt lat="43.41015" lon="2.4471">
        <ele>832.853</ele>
        <time>2021-05-24T12:04:34Z</time>
      </trkpt>
      <trkpt lat="43.41014" lon="2.44711">
        <ele>833.267</ele>
        <time>2021-05-24T12:04:36Z</time>
      </trkpt>
      <trkpt lat="43.41012" lon="2.44711">
        <ele>832.82</ele>
        <time>2021-05-24T12:04:38Z</time>
      </trkpt>
      <trkpt lat="43.4101" lon="2.4471">
        <ele>832.859</ele>
        <time>2021-05-24T12:04:40Z</time>
      </trkpt>
      <trkpt lat="43.41007" lon="2.4471">
        <ele>834.091</ele>
        <time>2021-05-24T12:04:42Z</time>
      </trkpt>
      <trkpt lat="43.41005" lon="2.4471">
        <ele>833.008</ele>
        <time>2021-05-24T12:04:44Z</time>
      </trkpt>
      <trkpt lat="43.41003" lon="2.44708">
        <ele>832.901</ele>
        <time>2021-05-24T12:04:46Z</time>
      </trkpt>
      <trkpt lat="43.41001" lon="2.44707">
        <ele>833.468</ele>
        <time>2021-05-24T12:04:48Z</time>
      </trkpt>
      <trkpt lat="43.40999" lon="2.44707">
        <ele>834.309</ele>
        <time>2021-05-24T12:04:50Z</time>
      </trkpt>
      <trkpt lat="43.40996" lon="2.44707">
        <ele>834.959</ele>
        <time>2021-05-24T12:04:52Z</time>
      </trkpt>
      <trkpt lat="43.40994" lon="2.44707">
        <ele>834.61</ele>
        <time>2021-05-24T12:04:54Z</time>
      </trkpt>
      <trkpt lat="43.40991" lon="2.44707">
        <ele>835.184</ele>
        <time>2021-05-24T12:04:56Z</time>
      </trkpt>
      <trkpt lat="43.40988" lon="2.44706">
        <ele>835.66</ele>
        <time>2021-05-24T12:04:58Z</time>
      </trkpt>
      <trkpt lat="43.40986" lon="2.44706">
        <ele>835.422</ele>
        <time>2021-05-24T12:05:00Z</time>
      </trkpt>
      <trkpt lat="43.40983" lon="2.44706">
        <ele>834.946</ele>
        <time>2021-05-24T12:05:02Z</time>
      </trkpt>
      <trkpt lat="43.40981" lon="2.44705">
        <ele>834.804</ele>
        <time>2021-05-24T12:05:04Z</time>
      </trkpt>
      <trkpt lat="43.40978" lon="2.44705">
        <ele>834.337</ele>
        <time>2021-05-24T12:05:06Z</time>
      </trkpt>
      <trkpt lat="43.40976" lon="2.44704">
        <ele>833.666</ele>
        <time>2021-05-24T12:05:08Z</time>
      </trkpt>
      <trkpt lat="43.40973" lon="2.44704">
        <ele>834.684</ele>
        <time>2021-05-24T12:05:10Z</time>
      </trkpt>
      <trkpt lat="43.4097" lon="2.44703">
        <ele>834.256</ele>
        <time>2021-05-24T12:05:12Z</time>
      </trkpt>
      <trkpt lat="43.40968" lon="2.44703">
        <ele>833.929</ele>
        <time>2021-05-24T12:05:14Z</time>
      </trkpt>
      <trkpt lat="43.40966" lon="2.44702">
        <ele>833.93</ele>
        <time>2021-05-24T12:05:16Z</time>
      </trkpt>
      <trkpt lat="43.40963" lon="2.44702">
        <ele>833.31</ele>
        <time>2021-05-24T12:05:18Z</time>
      </trkpt>
      <trkpt lat="43.4096" lon="2.44701">
        <ele>832.954</ele>
        <time>2021-05-24T12:05:20Z</time>
      </trkpt>
      <trkpt lat="43.40958" lon="2.447">
        <ele>832.151</ele>
        <time>2021-05-24T12:05:22Z</time>
      </trkpt>
      <trkpt lat="43.40956" lon="2.44699">
        <ele>832.382</ele>
        <time>2021-05-24T12:05:24Z</time>
      </trkpt>
      <trkpt lat="43.40953" lon="2.44697">
        <ele>832.181</ele>
        <time>2021-05-24T12:05:26Z</time>
      </trkpt>
      <trkpt lat="43.40951" lon="2.44696">
        <ele>831.757</ele>
        <time>2021-05-24T12:05:28Z</time>
      </trkpt>
      <trkpt lat="43.40948" lon="2.44695">
        <ele>831.51</ele>
        <time>2021-05-24T12:05:30Z</time>
      </trkpt>
      <trkpt lat="43.40946" lon="2.44694">
        <ele>832.162</ele>
        <time>2021-05-24T12:05:32Z</time>
      </trkpt>
      <trkpt lat="43.40945" lon="2.44694">
        <ele>828.136</ele>
        <time>2021-05-24T12:05:34Z</time>
      </trkpt>
      <trkpt lat="43.40943" lon="2.44693">
        <ele>827.021</ele>
        <time>2021-05-24T12:05:36Z</time>
      </trkpt>
      <trkpt lat="43.40941" lon="2.44692">
        <ele>826.71</ele>
        <time>2021-05-24T12:05:38Z</time>
      </trkpt>
      <trkpt lat="43.40938" lon="2.44689">
        <ele>827.18</ele>
        <time>2021-05-24T12:05:40Z</time>
      </trkpt>
      <trkpt lat="43.40935" lon="2.44688">
        <ele>827.317</ele>
        <time>2021-05-24T12:05:42Z</time>
      </trkpt>
      <trkpt lat="43.40933" lon="2.44686">
        <ele>826.139</ele>
        <time>2021-05-24T12:05:44Z</time>
      </trkpt>
      <trkpt lat="43.40931" lon="2.44684">
        <ele>825.882</ele>
        <time>2021-05-24T12:05:46Z</time>
      </trkpt>
      <trkpt lat="43.40929" lon="2.44682">
        <ele>825.831</ele>
        <time>2021-05-24T12:05:48Z</time>
      </trkpt>
      <trkpt lat="43.40926" lon="2.4468">
        <ele>825.982</ele>
        <time>2021-05-24T12:05:50Z</time>
      </trkpt>
      <trkpt lat="43.40924" lon="2.44678">
        <ele>825.824</ele>
        <time>2021-05-24T12:05:52Z</time>
      </trkpt>
      <trkpt lat="43.40921" lon="2.44677">
        <ele>825.689</ele>
        <time>2021-05-24T12:05:54Z</time>
      </trkpt>
      <trkpt lat="43.40919" lon="2.44676">
        <ele>825.498</ele>
        <time>2021-05-24T12:05:56Z</time>
      </trkpt>
      <trkpt lat="43.40916" lon="2.44675">
        <ele>825.744</ele>
        <time>2021-05-24T12:05:58Z</time>
      </trkpt>
      <trkpt lat="43.40913" lon="2.44674">
        <ele>826.218</ele>
        <time>2021-05-24T12:06:00Z</time>
      </trkpt>
      <trkpt lat="43.4091" lon="2.44671">
        <ele>828.791</ele>
        <time>2021-05-24T12:06:02Z</time>
      </trkpt>
      <trkpt lat="43.40907" lon="2.44669">
        <ele>830.179</ele>
        <time>2021-05-24T12:06:04Z</time>
      </trkpt>
      <trkpt lat="43.40904" lon="2.44668">
        <ele>830.063</ele>
        <time>2021-05-24T12:06:06Z</time>
      </trkpt>
      <trkpt lat="43.40901" lon="2.44666">
        <ele>829.869</ele>
        <time>2021-05-24T12:06:08Z</time>
      </trkpt>
      <trkpt lat="43.409" lon="2.44663">
        <ele>829.155</ele>
        <time>2021-05-24T12:06:10Z</time>
      </trkpt>
      <trkpt lat="43.40898" lon="2.4466">
        <ele>831.594</ele>
        <time>2021-05-24T12:06:12Z</time>
      </trkpt>
      <trkpt lat="43.40896" lon="2.44657">
        <ele>831.254</ele>
        <time>2021-05-24T12:06:14Z</time>
      </trkpt>
      <trkpt lat="43.40894" lon="2.44652">
        <ele>832.831</ele>
        <time>2021-05-24T12:06:16Z</time>
      </trkpt>
      <trkpt lat="43.40893" lon="2.44648">
        <ele>832.791</ele>
        <time>2021-05-24T12:06:18Z</time>
      </trkpt>
      <trkpt lat="43.40892" lon="2.44645">
        <ele>833.905</ele>
        <time>2021-05-24T12:06:20Z</time>
      </trkpt>
      <trkpt lat="43.40891" lon="2.44641">
        <ele>834.446</ele>
        <time>2021-05-24T12:06:22Z</time>
      </trkpt>
      <trkpt lat="43.4089" lon="2.44639">
        <ele>834.304</ele>
        <time>2021-05-24T12:06:24Z</time>
      </trkpt>
      <trkpt lat="43.40888" lon="2.44635">
        <ele>834.957</ele>
        <time>2021-05-24T12:06:26Z</time>
      </trkpt>
      <trkpt lat="43.40887" lon="2.44632">
        <ele>835.449</ele>
        <time>2021-05-24T12:06:28Z</time>
      </trkpt>
      <trkpt lat="43.40886" lon="2.44629">
        <ele>835.369</ele>
        <time>2021-05-24T12:06:30Z</time>
      </trkpt>
      <trkpt lat="43.40885" lon="2.44626">
        <ele>835.152</ele>
        <time>2021-05-24T12:06:32Z</time>
      </trkpt>
      <trkpt lat="43.40884" lon="2.44623">
        <ele>835.385</ele>
        <time>2021-05-24T12:06:34Z</time>
      </trkpt>
      <trkpt lat="43.40882" lon="2.4462">
        <ele>835.243</ele>
        <time>2021-05-24T12:06:36Z</time>
      </trkpt>
      <trkpt lat="43.40881" lon="2.44617">
        <ele>834.175</ele>
        <time>2021-05-24T12:06:38Z</time>
      </trkpt>
      <trkpt lat="43.4088" lon="2.44615">
        <ele>833.985</ele>
        <time>2021-05-24T12:06:40Z</time>
      </trkpt>
      <trkpt lat="43.40879" lon="2.44612">
        <ele>833.969</ele>
        <time>2021-05-24T12:06:42Z</time>
      </trkpt>
      <trkpt lat="43.40879" lon="2.44608">
        <ele>834.217</ele>
        <time>2021-05-24T12:06:44Z</time>
      </trkpt>
      <trkpt lat="43.40878" lon="2.44604">
        <ele>834.163</ele>
        <time>2021-05-24T12:06:46Z</time>
      </trkpt>
      <trkpt lat="43.40877" lon="2.44601">
        <ele>833.806</ele>
        <time>2021-05-24T12:06:48Z</time>
      </trkpt>
      <trkpt lat="43.40876" lon="2.44598">
        <ele>834.078</ele>
        <time>2021-05-24T12:06:50Z</time>
      </trkpt>
      <trkpt lat="43.40875" lon="2.44595">
        <ele>834.567</ele>
        <time>2021-05-24T12:06:52Z</time>
      </trkpt>
      <trkpt lat="43.40875" lon="2.44591">
        <ele>834.448</ele>
        <time>2021-05-24T12:06:54Z</time>
      </trkpt>
      <trkpt lat="43.40874" lon="2.44589">
        <ele>834.593</ele>
        <time>2021-05-24T12:06:56Z</time>
      </trkpt>
      <trkpt lat="43.40873" lon="2.44586">
        <ele>834.385</ele>
        <time>2021-05-24T12:06:58Z</time>
      </trkpt>
      <trkpt lat="43.40872" lon="2.44583">
        <ele>834.788</ele>
        <time>2021-05-24T12:07:00Z</time>
      </trkpt>
      <trkpt lat="43.40871" lon="2.4458">
        <ele>831.163</ele>
        <time>2021-05-24T12:07:02Z</time>
      </trkpt>
      <trkpt lat="43.40869" lon="2.44577">
        <ele>831.382</ele>
        <time>2021-05-24T12:07:04Z</time>
      </trkpt>
      <trkpt lat="43.40868" lon="2.44575">
        <ele>830.442</ele>
        <time>2021-05-24T12:07:06Z</time>
      </trkpt>
      <trkpt lat="43.40866" lon="2.44572">
        <ele>831.541</ele>
        <time>2021-05-24T12:07:08Z</time>
      </trkpt>
      <trkpt lat="43.40865" lon="2.44571">
        <ele>832.542</ele>
        <time>2021-05-24T12:07:10Z</time>
      </trkpt>
      <trkpt lat="43.40863" lon="2.44571">
        <ele>833.563</ele>
        <time>2021-05-24T12:07:12Z</time>
      </trkpt>
      <trkpt lat="43.40862" lon="2.44572">
        <ele>833.01</ele>
        <time>2021-05-24T12:07:14Z</time>
      </trkpt>
      <trkpt lat="43.40861" lon="2.44574">
        <ele>832.654</ele>
        <time>2021-05-24T12:07:16Z</time>
      </trkpt>
      <trkpt lat="43.40861" lon="2.44577">
        <ele>832.969</ele>
        <time>2021-05-24T12:07:18Z</time>
      </trkpt>
      <trkpt lat="43.40861" lon="2.44579">
        <ele>833.106</ele>
        <time>2021-05-24T12:07:20Z</time>
      </trkpt>
      <trkpt lat="43.4086" lon="2.4458">
        <ele>833.624</ele>
        <time>2021-05-24T12:07:22Z</time>
      </trkpt>
      <trkpt lat="43.40858" lon="2.4458">
        <ele>833.859</ele>
        <time>2021-05-24T12:07:24Z</time>
      </trkpt>
      <trkpt lat="43.40857" lon="2.4458">
        <ele>833.552</ele>
        <time>2021-05-24T12:07:26Z</time>
      </trkpt>
      <trkpt lat="43.40855" lon="2.44579">
        <ele>833.711</ele>
        <time>2021-05-24T12:07:28Z</time>
      </trkpt>
      <trkpt lat="43.40854" lon="2.44578">
        <ele>833.428</ele>
        <time>2021-05-24T12:07:30Z</time>
      </trkpt>
      <trkpt lat="43.40853" lon="2.44578">
        <ele>832.307</ele>
        <time>2021-05-24T12:07:32Z</time>
      </trkpt>
      <trkpt lat="43.40852" lon="2.44578">
        <ele>831.982</ele>
        <time>2021-05-24T12:07:34Z</time>
      </trkpt>
      <trkpt lat="43.4085" lon="2.44579">
        <ele>831.192</ele>
        <time>2021-05-24T12:07:36Z</time>
      </trkpt>
      <trkpt lat="43.40849" lon="2.44579">
        <ele>831.321</ele>
        <time>2021-05-24T12:07:38Z</time>
      </trkpt>
      <trkpt lat="43.40847" lon="2.44579">
        <ele>831.759</ele>
        <time>2021-05-24T12:07:40Z</time>
      </trkpt>
      <trkpt lat="43.40846" lon="2.44579">
        <ele>831.678</ele>
        <time>2021-05-24T12:07:42Z</time>
      </trkpt>
      <trkpt lat="43.40846" lon="2.4458">
        <ele>832.301</ele>
        <time>2021-05-24T12:07:44Z</time>
      </trkpt>
      <trkpt lat="43.40845" lon="2.44579">
        <ele>833.216</ele>
        <time>2021-05-24T12:07:46Z</time>
      </trkpt>
      <trkpt lat="43.40845" lon="2.44579">
        <ele>833.22</ele>
        <time>2021-05-24T12:07:48Z</time>
      </trkpt>
      <trkpt lat="43.40846" lon="2.4458">
        <ele>833.231</ele>
        <time>2021-05-24T12:07:50Z</time>
      </trkpt>
      <trkpt lat="43.40846" lon="2.4458">
        <ele>833.225</ele>
        <time>2021-05-24T12:07:52Z</time>
      </trkpt>
      <trkpt lat="43.40846" lon="2.4458">
        <ele>833.398</ele>
        <time>2021-05-24T12:07:54Z</time>
      </trkpt>
      <trkpt lat="43.40846" lon="2.4458">
        <ele>833.404</ele>
        <time>2021-05-24T12:07:56Z</time>
      </trkpt>
      <trkpt lat="43.40846" lon="2.4458">
        <ele>833.409</ele>
        <time>2021-05-24T12:07:58Z</time>
      </trkpt>
      <trkpt lat="43.40846" lon="2.4458">
        <ele>833.412</ele>
        <time>2021-05-24T12:08:00Z</time>
      </trkpt>
      <trkpt lat="43.40846" lon="2.4458">
        <ele>833.407</ele>
        <time>2021-05-24T12:08:02Z</time>
      </trkpt>
      <trkpt lat="43.40846" lon="2.4458">
        <ele>833.405</ele>
        <time>2021-05-24T12:08:04Z</time>
      </trkpt>
      <trkpt lat="43.40846" lon="2.4458">
        <ele>833.397</ele>
        <time>2021-05-24T12:08:06Z</time>
      </trkpt>
      <trkpt lat="43.40846" lon="2.4458">
        <ele>833.388</ele>
        <time>2021-05-24T12:08:08Z</time>
      </trkpt>
      <trkpt lat="43.40846" lon="2.4458">
        <ele>833.389</ele>
        <time>2021-05-24T12:08:10Z</time>
      </trkpt>
      <trkpt lat="43.40846" lon="2.4458">
        <ele>833.384</ele>
        <time>2021-05-24T12:08:12Z</time>
      </trkpt>
      <trkpt lat="43.40846" lon="2.4458">
        <ele>833.379</ele>
        <time>2021-05-24T12:08:14Z</time>
      </trkpt>
      <trkpt lat="43.40846" lon="2.4458">
        <ele>833.372</ele>
        <time>2021-05-24T12:08:16Z</time>
      </trkpt>
      <trkpt lat="43.40846" lon="2.4458">
        <ele>833.371</ele>
        <time>2021-05-24T12:08:18Z</time>
      </trkpt>
      <trkpt lat="43.40846" lon="2.4458">
        <ele>833.367</ele>
        <time>2021-05-24T12:08:20Z</time>
      </trkpt>
      <trkpt lat="43.40846" lon="2.4458">
        <ele>833.366</ele>
        <time>2021-05-24T12:08:22Z</time>
      </trkpt>
      <trkpt lat="43.40846" lon="2.4458">
        <ele>833.366</ele>
        <time>2021-05-24T12:08:24Z</time>
      </trkpt>
      <trkpt lat="43.40845" lon="2.44579">
        <ele>833.457</ele>
        <time>2021-05-24T12:08:26Z</time>
      </trkpt>
      <trkpt lat="43.40843" lon="2.44579">
        <ele>833.377</ele>
        <time>2021-05-24T12:08:28Z</time>
      </trkpt>
      <trkpt lat="43.40842" lon="2.44579">
        <ele>832.004</ele>
        <time>2021-05-24T12:08:30Z</time>
      </trkpt>
      <trkpt lat="43.40841" lon="2.44579">
        <ele>831.203</ele>
        <time>2021-05-24T12:08:32Z</time>
      </trkpt>
      <trkpt lat="43.4084" lon="2.4458">
        <ele>831.662</ele>
        <time>2021-05-24T12:08:34Z</time>
      </trkpt>
      <trkpt lat="43.40839" lon="2.4458">
        <ele>830.71</ele>
        <time>2021-05-24T12:08:36Z</time>
      </trkpt>
      <trkpt lat="43.40838" lon="2.44578">
        <ele>830.682</ele>
        <time>2021-05-24T12:08:38Z</time>
      </trkpt>
      <trkpt lat="43.40836" lon="2.44579">
        <ele>831.391</ele>
        <time>2021-05-24T12:08:40Z</time>
      </trkpt>
      <trkpt lat="43.40834" lon="2.44582">
        <ele>831.119</ele>
        <time>2021-05-24T12:08:42Z</time>
      </trkpt>
      <trkpt lat="43.40834" lon="2.44584">
        <ele>832.311</ele>
        <time>2021-05-24T12:08:44Z</time>
      </trkpt>
      <trkpt lat="43.40835" lon="2.44586">
        <ele>831.635</ele>
        <time>2021-05-24T12:08:46Z</time>
      </trkpt>
      <trkpt lat="43.40835" lon="2.44587">
        <ele>831.414</ele>
        <time>2021-05-24T12:08:48Z</time>
      </trkpt>
      <trkpt lat="43.40835" lon="2.44587">
        <ele>831.507</ele>
        <time>2021-05-24T12:08:50Z</time>
      </trkpt>
      <trkpt lat="43.40836" lon="2.44588">
        <ele>831.015</ele>
        <time>2021-05-24T12:08:52Z</time>
      </trkpt>
      <trkpt lat="43.40836" lon="2.44588">
        <ele>831.068</ele>
        <time>2021-05-24T12:08:54Z</time>
      </trkpt>
      <trkpt lat="43.40837" lon="2.44588">
        <ele>830.883</ele>
        <time>2021-05-24T12:08:56Z</time>
      </trkpt>
      <trkpt lat="43.40837" lon="2.44586">
        <ele>830.524</ele>
        <time>2021-05-24T12:08:58Z</time>
      </trkpt>
      <trkpt lat="43.40836" lon="2.44585">
        <ele>829.783</ele>
        <time>2021-05-24T12:09:00Z</time>
      </trkpt>
      <trkpt lat="43.40836" lon="2.44586">
        <ele>829.775</ele>
        <time>2021-05-24T12:09:02Z</time>
      </trkpt>
      <trkpt lat="43.40836" lon="2.44586">
        <ele>829.344</ele>
        <time>2021-05-24T12:09:04Z</time>
      </trkpt>
      <trkpt lat="43.40836" lon="2.44587">
        <ele>829.557</ele>
        <time>2021-05-24T12:09:06Z</time>
      </trkpt>
      <trkpt lat="43.40836" lon="2.44587">
        <ele>829.873</ele>
        <time>2021-05-24T12:09:08Z</time>
      </trkpt>
      <trkpt lat="43.40837" lon="2.44587">
        <ele>829.432</ele>
        <time>2021-05-24T12:09:10Z</time>
      </trkpt>
      <trkpt lat="43.40837" lon="2.44585">
        <ele>828.994</ele>
        <time>2021-05-24T12:09:12Z</time>
      </trkpt>
      <trkpt lat="43.40838" lon="2.44585">
        <ele>828.094</ele>
        <time>2021-05-24T12:09:14Z</time>
      </trkpt>
      <trkpt lat="43.40838" lon="2.44584">
        <ele>827.569</ele>
        <time>2021-05-24T12:09:16Z</time>
      </trkpt>
      <trkpt lat="43.40839" lon="2.44583">
        <ele>826.879</ele>
        <time>2021-05-24T12:09:18Z</time>
      </trkpt>
      <trkpt lat="43.40839" lon="2.44581">
        <ele>825.809</ele>
        <time>2021-05-24T12:09:20Z</time>
      </trkpt>
      <trkpt lat="43.40839" lon="2.44579">
        <ele>824.078</ele>
        <time>2021-05-24T12:09:22Z</time>
      </trkpt>
      <trkpt lat="43.40838" lon="2.44577">
        <ele>823.853</ele>
        <time>2021-05-24T12:09:24Z</time>
      </trkpt>
      <trkpt lat="43.40836" lon="2.44577">
        <ele>824.545</ele>
        <time>2021-05-24T12:09:26Z</time>
      </trkpt>
      <trkpt lat="43.40835" lon="2.44578">
        <ele>825.428</ele>
        <time>2021-05-24T12:09:28Z</time>
      </trkpt>
      <trkpt lat="43.40833" lon="2.44577">
        <ele>824.897</ele>
        <time>2021-05-24T12:09:30Z</time>
      </trkpt>
      <trkpt lat="43.40832" lon="2.44577">
        <ele>825.505</ele>
        <time>2021-05-24T12:09:32Z</time>
      </trkpt>
      <trkpt lat="43.40831" lon="2.44577">
        <ele>825.751</ele>
        <time>2021-05-24T12:09:34Z</time>
      </trkpt>
      <trkpt lat="43.4083" lon="2.4458">
        <ele>826.257</ele>
        <time>2021-05-24T12:09:36Z</time>
      </trkpt>
      <trkpt lat="43.40829" lon="2.4458">
        <ele>827.084</ele>
        <time>2021-05-24T12:09:38Z</time>
      </trkpt>
      <trkpt lat="43.40829" lon="2.44581">
        <ele>826.299</ele>
        <time>2021-05-24T12:09:40Z</time>
      </trkpt>
      <trkpt lat="43.40827" lon="2.44583">
        <ele>826.309</ele>
        <time>2021-05-24T12:09:42Z</time>
      </trkpt>
      <trkpt lat="43.40826" lon="2.44583">
        <ele>825.831</ele>
        <time>2021-05-24T12:09:44Z</time>
      </trkpt>
      <trkpt lat="43.40824" lon="2.44584">
        <ele>826.117</ele>
        <time>2021-05-24T12:09:46Z</time>
      </trkpt>
      <trkpt lat="43.40822" lon="2.44585">
        <ele>826.647</ele>
        <time>2021-05-24T12:09:48Z</time>
      </trkpt>
      <trkpt lat="43.4082" lon="2.44586">
        <ele>827.497</ele>
        <time>2021-05-24T12:09:50Z</time>
      </trkpt>
      <trkpt lat="43.40818" lon="2.44587">
        <ele>826.546</ele>
        <time>2021-05-24T12:09:52Z</time>
      </trkpt>
      <trkpt lat="43.40818" lon="2.44591">
        <ele>825.72</ele>
        <time>2021-05-24T12:09:54Z</time>
      </trkpt>
      <trkpt lat="43.40816" lon="2.44589">
        <ele>825.741</ele>
        <time>2021-05-24T12:09:56Z</time>
      </trkpt>
      <trkpt lat="43.40813" lon="2.4459">
        <ele>825.247</ele>
        <time>2021-05-24T12:09:58Z</time>
      </trkpt>
      <trkpt lat="43.40811" lon="2.4459">
        <ele>824.503</ele>
        <time>2021-05-24T12:10:00Z</time>
      </trkpt>
      <trkpt lat="43.4081" lon="2.44591">
        <ele>823.879</ele>
        <time>2021-05-24T12:10:02Z</time>
      </trkpt>
      <trkpt lat="43.40808" lon="2.44592">
        <ele>823.442</ele>
        <time>2021-05-24T12:10:04Z</time>
      </trkpt>
      <trkpt lat="43.40806" lon="2.44592">
        <ele>822.566</ele>
        <time>2021-05-24T12:10:06Z</time>
      </trkpt>
      <trkpt lat="43.40804" lon="2.44593">
        <ele>821.204</ele>
        <time>2021-05-24T12:10:08Z</time>
      </trkpt>
      <trkpt lat="43.40802" lon="2.44593">
        <ele>820.908</ele>
        <time>2021-05-24T12:10:10Z</time>
      </trkpt>
      <trkpt lat="43.408" lon="2.44594">
        <ele>820.712</ele>
        <time>2021-05-24T12:10:12Z</time>
      </trkpt>
      <trkpt lat="43.40797" lon="2.44595">
        <ele>820.068</ele>
        <time>2021-05-24T12:10:14Z</time>
      </trkpt>
      <trkpt lat="43.40795" lon="2.44596">
        <ele>818.98</ele>
        <time>2021-05-24T12:10:16Z</time>
      </trkpt>
      <trkpt lat="43.40793" lon="2.44597">
        <ele>818.753</ele>
        <time>2021-05-24T12:10:18Z</time>
      </trkpt>
      <trkpt lat="43.40791" lon="2.44598">
        <ele>818.859</ele>
        <time>2021-05-24T12:10:20Z</time>
      </trkpt>
      <trkpt lat="43.40788" lon="2.44599">
        <ele>818.406</ele>
        <time>2021-05-24T12:10:22Z</time>
      </trkpt>
      <trkpt lat="43.40786" lon="2.446">
        <ele>818.539</ele>
        <time>2021-05-24T12:10:24Z</time>
      </trkpt>
      <trkpt lat="43.40784" lon="2.44601">
        <ele>818.572</ele>
        <time>2021-05-24T12:10:26Z</time>
      </trkpt>
      <trkpt lat="43.40782" lon="2.44602">
        <ele>818.997</ele>
        <time>2021-05-24T12:10:28Z</time>
      </trkpt>
      <trkpt lat="43.40781" lon="2.44604">
        <ele>819.02</ele>
        <time>2021-05-24T12:10:30Z</time>
      </trkpt>
      <trkpt lat="43.40779" lon="2.44604">
        <ele>819.011</ele>
        <time>2021-05-24T12:10:32Z</time>
      </trkpt>
      <trkpt lat="43.40777" lon="2.44604">
        <ele>818.23</ele>
        <time>2021-05-24T12:10:34Z</time>
      </trkpt>
      <trkpt lat="43.40775" lon="2.44603">
        <ele>817.909</ele>
        <time>2021-05-24T12:10:36Z</time>
      </trkpt>
      <trkpt lat="43.40773" lon="2.44602">
        <ele>817.548</ele>
        <time>2021-05-24T12:10:38Z</time>
      </trkpt>
      <trkpt lat="43.40771" lon="2.446">
        <ele>816.718</ele>
        <time>2021-05-24T12:10:40Z</time>
      </trkpt>
      <trkpt lat="43.40769" lon="2.44599">
        <ele>815.961</ele>
        <time>2021-05-24T12:10:42Z</time>
      </trkpt>
      <trkpt lat="43.40767" lon="2.44599">
        <ele>816.289</ele>
        <time>2021-05-24T12:10:44Z</time>
      </trkpt>
      <trkpt lat="43.40765" lon="2.44598">
        <ele>816.366</ele>
        <time>2021-05-24T12:10:46Z</time>
      </trkpt>
      <trkpt lat="43.40763" lon="2.44598">
        <ele>816.693</ele>
        <time>2021-05-24T12:10:48Z</time>
      </trkpt>
      <trkpt lat="43.4076" lon="2.44599">
        <ele>816.717</ele>
        <time>2021-05-24T12:10:50Z</time>
      </trkpt>
      <trkpt lat="43.40758" lon="2.44601">
        <ele>816.697</ele>
        <time>2021-05-24T12:10:52Z</time>
      </trkpt>
      <trkpt lat="43.40757" lon="2.44603">
        <ele>816.985</ele>
        <time>2021-05-24T12:10:54Z</time>
      </trkpt>
      <trkpt lat="43.40756" lon="2.44604">
        <ele>816.235</ele>
        <time>2021-05-24T12:10:56Z</time>
      </trkpt>
      <trkpt lat="43.40755" lon="2.44606">
        <ele>815.274</ele>
        <time>2021-05-24T12:10:58Z</time>
      </trkpt>
      <trkpt lat="43.40754" lon="2.44609">
        <ele>815.32</ele>
        <time>2021-05-24T12:11:00Z</time>
      </trkpt>
      <trkpt lat="43.40753" lon="2.44612">
        <ele>815.254</ele>
        <time>2021-05-24T12:11:02Z</time>
      </trkpt>
      <trkpt lat="43.40752" lon="2.44615">
        <ele>815.059</ele>
        <time>2021-05-24T12:11:04Z</time>
      </trkpt>
      <trkpt lat="43.40752" lon="2.44617">
        <ele>814.571</ele>
        <time>2021-05-24T12:11:06Z</time>
      </trkpt>
      <trkpt lat="43.40751" lon="2.4462">
        <ele>815.906</ele>
        <time>2021-05-24T12:11:08Z</time>
      </trkpt>
      <trkpt lat="43.4075" lon="2.44622">
        <ele>815.609</ele>
        <time>2021-05-24T12:11:10Z</time>
      </trkpt>
      <trkpt lat="43.4075" lon="2.44625">
        <ele>814.437</ele>
        <time>2021-05-24T12:11:12Z</time>
      </trkpt>
      <trkpt lat="43.4075" lon="2.44627">
        <ele>813.692</ele>
        <time>2021-05-24T12:11:14Z</time>
      </trkpt>
      <trkpt lat="43.40749" lon="2.4463">
        <ele>812.759</ele>
        <time>2021-05-24T12:11:16Z</time>
      </trkpt>
      <trkpt lat="43.40748" lon="2.44633">
        <ele>813.135</ele>
        <time>2021-05-24T12:11:18Z</time>
      </trkpt>
      <trkpt lat="43.40748" lon="2.44636">
        <ele>813.453</ele>
        <time>2021-05-24T12:11:20Z</time>
      </trkpt>
      <trkpt lat="43.40747" lon="2.4464">
        <ele>813.01</ele>
        <time>2021-05-24T12:11:22Z</time>
      </trkpt>
      <trkpt lat="43.40747" lon="2.44643">
        <ele>812.688</ele>
        <time>2021-05-24T12:11:24Z</time>
      </trkpt>
      <trkpt lat="43.40747" lon="2.44647">
        <ele>812.585</ele>
        <time>2021-05-24T12:11:26Z</time>
      </trkpt>
      <trkpt lat="43.40747" lon="2.4465">
        <ele>811.727</ele>
        <time>2021-05-24T12:11:28Z</time>
      </trkpt>
      <trkpt lat="43.40746" lon="2.44653">
        <ele>812.407</ele>
        <time>2021-05-24T12:11:30Z</time>
      </trkpt>
      <trkpt lat="43.40747" lon="2.44657">
        <ele>812.173</ele>
        <time>2021-05-24T12:11:32Z</time>
      </trkpt>
      <trkpt lat="43.40746" lon="2.44661">
        <ele>812.831</ele>
        <time>2021-05-24T12:11:34Z</time>
      </trkpt>
      <trkpt lat="43.40746" lon="2.44665">
        <ele>813.079</ele>
        <time>2021-05-24T12:11:36Z</time>
      </trkpt>
      <trkpt lat="43.40745" lon="2.4467">
        <ele>813.074</ele>
        <time>2021-05-24T12:11:38Z</time>
      </trkpt>
      <trkpt lat="43.40745" lon="2.44673">
        <ele>813.317</ele>
        <time>2021-05-24T12:11:40Z</time>
      </trkpt>
      <trkpt lat="43.40745" lon="2.44677">
        <ele>812.874</ele>
        <time>2021-05-24T12:11:42Z</time>
      </trkpt>
      <trkpt lat="43.40745" lon="2.44681">
        <ele>812.821</ele>
        <time>2021-05-24T12:11:44Z</time>
      </trkpt>
      <trkpt lat="43.40745" lon="2.44685">
        <ele>812.302</ele>
        <time>2021-05-24T12:11:46Z</time>
      </trkpt>
      <trkpt lat="43.40745" lon="2.44688">
        <ele>812.101</ele>
        <time>2021-05-24T12:11:48Z</time>
      </trkpt>
      <trkpt lat="43.40745" lon="2.44692">
        <ele>812.047</ele>
        <time>2021-05-24T12:11:50Z</time>
      </trkpt>
      <trkpt lat="43.40745" lon="2.44696">
        <ele>811.908</ele>
        <time>2021-05-24T12:11:52Z</time>
      </trkpt>
      <trkpt lat="43.40745" lon="2.44699">
        <ele>812.073</ele>
        <time>2021-05-24T12:11:54Z</time>
      </trkpt>
      <trkpt lat="43.40745" lon="2.44704">
        <ele>813.103</ele>
        <time>2021-05-24T12:11:56Z</time>
      </trkpt>
      <trkpt lat="43.40744" lon="2.44708">
        <ele>813.78</ele>
        <time>2021-05-24T12:11:58Z</time>
      </trkpt>
      <trkpt lat="43.40744" lon="2.44711">
        <ele>813.285</ele>
        <time>2021-05-24T12:12:00Z</time>
      </trkpt>
      <trkpt lat="43.40743" lon="2.44712">
        <ele>812.941</ele>
        <time>2021-05-24T12:12:02Z</time>
      </trkpt>
      <trkpt lat="43.40741" lon="2.44715">
        <ele>812.09</ele>
        <time>2021-05-24T12:12:04Z</time>
      </trkpt>
      <trkpt lat="43.4074" lon="2.44717">
        <ele>811.799</ele>
        <time>2021-05-24T12:12:06Z</time>
      </trkpt>
      <trkpt lat="43.40737" lon="2.44718">
        <ele>811.913</ele>
        <time>2021-05-24T12:12:08Z</time>
      </trkpt>
      <trkpt lat="43.40735" lon="2.4472">
        <ele>811.431</ele>
        <time>2021-05-24T12:12:10Z</time>
      </trkpt>
      <trkpt lat="43.40733" lon="2.44722">
        <ele>811.012</ele>
        <time>2021-05-24T12:12:12Z</time>
      </trkpt>
      <trkpt lat="43.4073" lon="2.44723">
        <ele>811.031</ele>
        <time>2021-05-24T12:12:14Z</time>
      </trkpt>
      <trkpt lat="43.40728" lon="2.44724">
        <ele>811.309</ele>
        <time>2021-05-24T12:12:16Z</time>
      </trkpt>
      <trkpt lat="43.40725" lon="2.44725">
        <ele>811.968</ele>
        <time>2021-05-24T12:12:18Z</time>
      </trkpt>
      <trkpt lat="43.40722" lon="2.44727">
        <ele>811.525</ele>
        <time>2021-05-24T12:12:20Z</time>
      </trkpt>
      <trkpt lat="43.4072" lon="2.44729">
        <ele>811.506</ele>
        <time>2021-05-24T12:12:22Z</time>
      </trkpt>
      <trkpt lat="43.40717" lon="2.4473">
        <ele>811.395</ele>
        <time>2021-05-24T12:12:24Z</time>
      </trkpt>
      <trkpt lat="43.40714" lon="2.44731">
        <ele>811.332</ele>
        <time>2021-05-24T12:12:26Z</time>
      </trkpt>
      <trkpt lat="43.40711" lon="2.44732">
        <ele>810.879</ele>
        <time>2021-05-24T12:12:28Z</time>
      </trkpt>
      <trkpt lat="43.40709" lon="2.44733">
        <ele>811.315</ele>
        <time>2021-05-24T12:12:30Z</time>
      </trkpt>
      <trkpt lat="43.40706" lon="2.44733">
        <ele>812.275</ele>
        <time>2021-05-24T12:12:32Z</time>
      </trkpt>
      <trkpt lat="43.40703" lon="2.44734">
        <ele>812.395</ele>
        <time>2021-05-24T12:12:34Z</time>
      </trkpt>
      <trkpt lat="43.40701" lon="2.44734">
        <ele>810.882</ele>
        <time>2021-05-24T12:12:36Z</time>
      </trkpt>
      <trkpt lat="43.40699" lon="2.44734">
        <ele>809.749</ele>
        <time>2021-05-24T12:12:38Z</time>
      </trkpt>
      <trkpt lat="43.40696" lon="2.44736">
        <ele>809.789</ele>
        <time>2021-05-24T12:12:40Z</time>
      </trkpt>
      <trkpt lat="43.40693" lon="2.44737">
        <ele>809.512</ele>
        <time>2021-05-24T12:12:42Z</time>
      </trkpt>
      <trkpt lat="43.40691" lon="2.44738">
        <ele>808.366</ele>
        <time>2021-05-24T12:12:44Z</time>
      </trkpt>
      <trkpt lat="43.40688" lon="2.44739">
        <ele>807.697</ele>
        <time>2021-05-24T12:12:46Z</time>
      </trkpt>
      <trkpt lat="43.40686" lon="2.4474">
        <ele>807.282</ele>
        <time>2021-05-24T12:12:48Z</time>
      </trkpt>
      <trkpt lat="43.40682" lon="2.44742">
        <ele>806.883</ele>
        <time>2021-05-24T12:12:51Z</time>
      </trkpt>
      <trkpt lat="43.40679" lon="2.44743">
        <ele>806.284</ele>
        <time>2021-05-24T12:12:53Z</time>
      </trkpt>
      <trkpt lat="43.40677" lon="2.44744">
        <ele>806.365</ele>
        <time>2021-05-24T12:12:55Z</time>
      </trkpt>
      <trkpt lat="43.40674" lon="2.44745">
        <ele>806.384</ele>
        <time>2021-05-24T12:12:57Z</time>
      </trkpt>
      <trkpt lat="43.40671" lon="2.44746">
        <ele>806.733</ele>
        <time>2021-05-24T12:12:59Z</time>
      </trkpt>
      <trkpt lat="43.40668" lon="2.44747">
        <ele>806.867</ele>
        <time>2021-05-24T12:13:01Z</time>
      </trkpt>
      <trkpt lat="43.40666" lon="2.44748">
        <ele>806.699</ele>
        <time>2021-05-24T12:13:03Z</time>
      </trkpt>
      <trkpt lat="43.40663" lon="2.44749">
        <ele>807.514</ele>
        <time>2021-05-24T12:13:05Z</time>
      </trkpt>
      <trkpt lat="43.4066" lon="2.4475">
        <ele>806.872</ele>
        <time>2021-05-24T12:13:07Z</time>
      </trkpt>
      <trkpt lat="43.40658" lon="2.44751">
        <ele>807.016</ele>
        <time>2021-05-24T12:13:09Z</time>
      </trkpt>
      <trkpt lat="43.40655" lon="2.44753">
        <ele>807.324</ele>
        <time>2021-05-24T12:13:11Z</time>
      </trkpt>
      <trkpt lat="43.40653" lon="2.44754">
        <ele>808.396</ele>
        <time>2021-05-24T12:13:13Z</time>
      </trkpt>
      <trkpt lat="43.4065" lon="2.44754">
        <ele>809.329</ele>
        <time>2021-05-24T12:13:15Z</time>
      </trkpt>
      <trkpt lat="43.40647" lon="2.44755">
        <ele>809.44</ele>
        <time>2021-05-24T12:13:17Z</time>
      </trkpt>
      <trkpt lat="43.40645" lon="2.44755">
        <ele>809.432</ele>
        <time>2021-05-24T12:13:19Z</time>
      </trkpt>
      <trkpt lat="43.40642" lon="2.44757">
        <ele>809.324</ele>
        <time>2021-05-24T12:13:21Z</time>
      </trkpt>
      <trkpt lat="43.40639" lon="2.44758">
        <ele>808.721</ele>
        <time>2021-05-24T12:13:23Z</time>
      </trkpt>
      <trkpt lat="43.40636" lon="2.44759">
        <ele>808.616</ele>
        <time>2021-05-24T12:13:25Z</time>
      </trkpt>
      <trkpt lat="43.40634" lon="2.4476">
        <ele>808.422</ele>
        <time>2021-05-24T12:13:27Z</time>
      </trkpt>
      <trkpt lat="43.40631" lon="2.44761">
        <ele>807.44</ele>
        <time>2021-05-24T12:13:29Z</time>
      </trkpt>
      <trkpt lat="43.40629" lon="2.44763">
        <ele>806.69</ele>
        <time>2021-05-24T12:13:31Z</time>
      </trkpt>
      <trkpt lat="43.40626" lon="2.44764">
        <ele>807.113</ele>
        <time>2021-05-24T12:13:33Z</time>
      </trkpt>
      <trkpt lat="43.40624" lon="2.44765">
        <ele>807.642</ele>
        <time>2021-05-24T12:13:35Z</time>
      </trkpt>
      <trkpt lat="43.40621" lon="2.44767">
        <ele>807.779</ele>
        <time>2021-05-24T12:13:37Z</time>
      </trkpt>
      <trkpt lat="43.40618" lon="2.44768">
        <ele>807.373</ele>
        <time>2021-05-24T12:13:39Z</time>
      </trkpt>
      <trkpt lat="43.40616" lon="2.4477">
        <ele>808.133</ele>
        <time>2021-05-24T12:13:41Z</time>
      </trkpt>
      <trkpt lat="43.40613" lon="2.44771">
        <ele>808.824</ele>
        <time>2021-05-24T12:13:43Z</time>
      </trkpt>
      <trkpt lat="43.4061" lon="2.44772">
        <ele>807.728</ele>
        <time>2021-05-24T12:13:45Z</time>
      </trkpt>
      <trkpt lat="43.40608" lon="2.44774">
        <ele>807.026</ele>
        <time>2021-05-24T12:13:47Z</time>
      </trkpt>
      <trkpt lat="43.40605" lon="2.44776">
        <ele>807.341</ele>
        <time>2021-05-24T12:13:49Z</time>
      </trkpt>
      <trkpt lat="43.40602" lon="2.44777">
        <ele>806.179</ele>
        <time>2021-05-24T12:13:51Z</time>
      </trkpt>
      <trkpt lat="43.406" lon="2.44779">
        <ele>804.993</ele>
        <time>2021-05-24T12:13:53Z</time>
      </trkpt>
      <trkpt lat="43.40597" lon="2.4478">
        <ele>805.559</ele>
        <time>2021-05-24T12:13:55Z</time>
      </trkpt>
      <trkpt lat="43.40595" lon="2.44782">
        <ele>805.821</ele>
        <time>2021-05-24T12:13:57Z</time>
      </trkpt>
      <trkpt lat="43.40592" lon="2.44784">
        <ele>806.03</ele>
        <time>2021-05-24T12:13:59Z</time>
      </trkpt>
      <trkpt lat="43.4059" lon="2.44786">
        <ele>805.369</ele>
        <time>2021-05-24T12:14:01Z</time>
      </trkpt>
      <trkpt lat="43.40587" lon="2.44788">
        <ele>805.193</ele>
        <time>2021-05-24T12:14:03Z</time>
      </trkpt>
      <trkpt lat="43.40585" lon="2.44789">
        <ele>805.209</ele>
        <time>2021-05-24T12:14:05Z</time>
      </trkpt>
      <trkpt lat="43.40582" lon="2.44791">
        <ele>805.222</ele>
        <time>2021-05-24T12:14:07Z</time>
      </trkpt>
      <trkpt lat="43.4058" lon="2.44793">
        <ele>804.913</ele>
        <time>2021-05-24T12:14:09Z</time>
      </trkpt>
      <trkpt lat="43.40577" lon="2.44795">
        <ele>804.382</ele>
        <time>2021-05-24T12:14:11Z</time>
      </trkpt>
      <trkpt lat="43.40575" lon="2.44796">
        <ele>803.205</ele>
        <time>2021-05-24T12:14:13Z</time>
      </trkpt>
      <trkpt lat="43.40573" lon="2.44798">
        <ele>803.019</ele>
        <time>2021-05-24T12:14:15Z</time>
      </trkpt>
      <trkpt lat="43.4057" lon="2.448">
        <ele>802.216</ele>
        <time>2021-05-24T12:14:17Z</time>
      </trkpt>
      <trkpt lat="43.40568" lon="2.44802">
        <ele>801.765</ele>
        <time>2021-05-24T12:14:19Z</time>
      </trkpt>
      <trkpt lat="43.40565" lon="2.44803">
        <ele>802.126</ele>
        <time>2021-05-24T12:14:21Z</time>
      </trkpt>
      <trkpt lat="43.40562" lon="2.44804">
        <ele>802.302</ele>
        <time>2021-05-24T12:14:23Z</time>
      </trkpt>
      <trkpt lat="43.40559" lon="2.44806">
        <ele>801.209</ele>
        <time>2021-05-24T12:14:25Z</time>
      </trkpt>
      <trkpt lat="43.40557" lon="2.44808">
        <ele>800.243</ele>
        <time>2021-05-24T12:14:27Z</time>
      </trkpt>
      <trkpt lat="43.40555" lon="2.44811">
        <ele>800.595</ele>
        <time>2021-05-24T12:14:29Z</time>
      </trkpt>
      <trkpt lat="43.40552" lon="2.44813">
        <ele>800.112</ele>
        <time>2021-05-24T12:14:31Z</time>
      </trkpt>
      <trkpt lat="43.40549" lon="2.44815">
        <ele>799.38</ele>
        <time>2021-05-24T12:14:33Z</time>
      </trkpt>
      <trkpt lat="43.40547" lon="2.44816">
        <ele>799.924</ele>
        <time>2021-05-24T12:14:35Z</time>
      </trkpt>
      <trkpt lat="43.40544" lon="2.44816">
        <ele>798.844</ele>
        <time>2021-05-24T12:14:37Z</time>
      </trkpt>
      <trkpt lat="43.40541" lon="2.44816">
        <ele>798.865</ele>
        <time>2021-05-24T12:14:39Z</time>
      </trkpt>
      <trkpt lat="43.40539" lon="2.44817">
        <ele>797.432</ele>
        <time>2021-05-24T12:14:41Z</time>
      </trkpt>
      <trkpt lat="43.40536" lon="2.44818">
        <ele>797.798</ele>
        <time>2021-05-24T12:14:43Z</time>
      </trkpt>
      <trkpt lat="43.40533" lon="2.44818">
        <ele>798.158</ele>
        <time>2021-05-24T12:14:45Z</time>
      </trkpt>
      <trkpt lat="43.40531" lon="2.44819">
        <ele>796.785</ele>
        <time>2021-05-24T12:14:47Z</time>
      </trkpt>
      <trkpt lat="43.40528" lon="2.4482">
        <ele>796.192</ele>
        <time>2021-05-24T12:14:49Z</time>
      </trkpt>
      <trkpt lat="43.40525" lon="2.44821">
        <ele>795.07</ele>
        <time>2021-05-24T12:14:51Z</time>
      </trkpt>
      <trkpt lat="43.40523" lon="2.44822">
        <ele>794.11</ele>
        <time>2021-05-24T12:14:53Z</time>
      </trkpt>
      <trkpt lat="43.4052" lon="2.44824">
        <ele>793.753</ele>
        <time>2021-05-24T12:14:55Z</time>
      </trkpt>
      <trkpt lat="43.40517" lon="2.44826">
        <ele>793.761</ele>
        <time>2021-05-24T12:14:57Z</time>
      </trkpt>
      <trkpt lat="43.40515" lon="2.44829">
        <ele>793.788</ele>
        <time>2021-05-24T12:14:59Z</time>
      </trkpt>
      <trkpt lat="43.40513" lon="2.44832">
        <ele>792.874</ele>
        <time>2021-05-24T12:15:01Z</time>
      </trkpt>
      <trkpt lat="43.40511" lon="2.44835">
        <ele>792.751</ele>
        <time>2021-05-24T12:15:03Z</time>
      </trkpt>
      <trkpt lat="43.40509" lon="2.44838">
        <ele>793.216</ele>
        <time>2021-05-24T12:15:05Z</time>
      </trkpt>
      <trkpt lat="43.40506" lon="2.4484">
        <ele>792.777</ele>
        <time>2021-05-24T12:15:07Z</time>
      </trkpt>
      <trkpt lat="43.40504" lon="2.44842">
        <ele>792.982</ele>
        <time>2021-05-24T12:15:09Z</time>
      </trkpt>
      <trkpt lat="43.40502" lon="2.44845">
        <ele>794.264</ele>
        <time>2021-05-24T12:15:11Z</time>
      </trkpt>
      <trkpt lat="43.405" lon="2.44848">
        <ele>793.144</ele>
        <time>2021-05-24T12:15:13Z</time>
      </trkpt>
      <trkpt lat="43.40498" lon="2.44851">
        <ele>794.043</ele>
        <time>2021-05-24T12:15:15Z</time>
      </trkpt>
      <trkpt lat="43.40496" lon="2.44854">
        <ele>794.413</ele>
        <time>2021-05-24T12:15:17Z</time>
      </trkpt>
      <trkpt lat="43.40494" lon="2.44858">
        <ele>792.247</ele>
        <time>2021-05-24T12:15:19Z</time>
      </trkpt>
      <trkpt lat="43.40493" lon="2.44861">
        <ele>792.154</ele>
        <time>2021-05-24T12:15:21Z</time>
      </trkpt>
      <trkpt lat="43.40491" lon="2.44864">
        <ele>791.998</ele>
        <time>2021-05-24T12:15:23Z</time>
      </trkpt>
      <trkpt lat="43.40489" lon="2.44867">
        <ele>792.785</ele>
        <time>2021-05-24T12:15:25Z</time>
      </trkpt>
      <trkpt lat="43.40488" lon="2.44871">
        <ele>791.527</ele>
        <time>2021-05-24T12:15:27Z</time>
      </trkpt>
      <trkpt lat="43.40486" lon="2.44874">
        <ele>791.425</ele>
        <time>2021-05-24T12:15:29Z</time>
      </trkpt>
      <trkpt lat="43.40484" lon="2.44877">
        <ele>791.424</ele>
        <time>2021-05-24T12:15:31Z</time>
      </trkpt>
      <trkpt lat="43.40483" lon="2.4488">
        <ele>789.359</ele>
        <time>2021-05-24T12:15:33Z</time>
      </trkpt>
      <trkpt lat="43.40481" lon="2.44884">
        <ele>788.859</ele>
        <time>2021-05-24T12:15:35Z</time>
      </trkpt>
      <trkpt lat="43.4048" lon="2.44887">
        <ele>788.778</ele>
        <time>2021-05-24T12:15:37Z</time>
      </trkpt>
      <trkpt lat="43.40479" lon="2.4489">
        <ele>788.948</ele>
        <time>2021-05-24T12:15:39Z</time>
      </trkpt>
      <trkpt lat="43.40477" lon="2.44893">
        <ele>789.451</ele>
        <time>2021-05-24T12:15:41Z</time>
      </trkpt>
      <trkpt lat="43.40475" lon="2.44896">
        <ele>789.397</ele>
        <time>2021-05-24T12:15:43Z</time>
      </trkpt>
      <trkpt lat="43.40473" lon="2.449">
        <ele>790.204</ele>
        <time>2021-05-24T12:15:45Z</time>
      </trkpt>
      <trkpt lat="43.40471" lon="2.44903">
        <ele>790.986</ele>
        <time>2021-05-24T12:15:47Z</time>
      </trkpt>
      <trkpt lat="43.4047" lon="2.44906">
        <ele>791.251</ele>
        <time>2021-05-24T12:15:49Z</time>
      </trkpt>
      <trkpt lat="43.40469" lon="2.4491">
        <ele>791.374</ele>
        <time>2021-05-24T12:15:51Z</time>
      </trkpt>
      <trkpt lat="43.40467" lon="2.44913">
        <ele>791.427</ele>
        <time>2021-05-24T12:15:53Z</time>
      </trkpt>
      <trkpt lat="43.40466" lon="2.44916">
        <ele>791.393</ele>
        <time>2021-05-24T12:15:55Z</time>
      </trkpt>
      <trkpt lat="43.40464" lon="2.44919">
        <ele>792.114</ele>
        <time>2021-05-24T12:15:57Z</time>
      </trkpt>
      <trkpt lat="43.40462" lon="2.44921">
        <ele>791.415</ele>
        <time>2021-05-24T12:15:59Z</time>
      </trkpt>
      <trkpt lat="43.40461" lon="2.44923">
        <ele>791.879</ele>
        <time>2021-05-24T12:16:01Z</time>
      </trkpt>
      <trkpt lat="43.40461" lon="2.44924">
        <ele>791.828</ele>
        <time>2021-05-24T12:16:03Z</time>
      </trkpt>
      <trkpt lat="43.4046" lon="2.44924">
        <ele>791.97</ele>
        <time>2021-05-24T12:16:05Z</time>
      </trkpt>
      <trkpt lat="43.40458" lon="2.44924">
        <ele>791.902</ele>
        <time>2021-05-24T12:16:07Z</time>
      </trkpt>
      <trkpt lat="43.40457" lon="2.44924">
        <ele>791.335</ele>
        <time>2021-05-24T12:16:09Z</time>
      </trkpt>
      <trkpt lat="43.40457" lon="2.44924">
        <ele>791.381</ele>
        <time>2021-05-24T12:16:11Z</time>
      </trkpt>
      <trkpt lat="43.40456" lon="2.44924">
        <ele>791.256</ele>
        <time>2021-05-24T12:16:13Z</time>
      </trkpt>
      <trkpt lat="43.40456" lon="2.44927">
        <ele>792.146</ele>
        <time>2021-05-24T12:16:15Z</time>
      </trkpt>
      <trkpt lat="43.40456" lon="2.44931">
        <ele>792.477</ele>
        <time>2021-05-24T12:16:17Z</time>
      </trkpt>
      <trkpt lat="43.40454" lon="2.44933">
        <ele>792.295</ele>
        <time>2021-05-24T12:16:19Z</time>
      </trkpt>
      <trkpt lat="43.40453" lon="2.44935">
        <ele>792.193</ele>
        <time>2021-05-24T12:16:21Z</time>
      </trkpt>
      <trkpt lat="43.40451" lon="2.44937">
        <ele>791.422</ele>
        <time>2021-05-24T12:16:23Z</time>
      </trkpt>
      <trkpt lat="43.4045" lon="2.44939">
        <ele>790.742</ele>
        <time>2021-05-24T12:16:25Z</time>
      </trkpt>
      <trkpt lat="43.40449" lon="2.44941">
        <ele>790.678</ele>
        <time>2021-05-24T12:16:27Z</time>
      </trkpt>
      <trkpt lat="43.40446" lon="2.44943">
        <ele>790.481</ele>
        <time>2021-05-24T12:16:29Z</time>
      </trkpt>
      <trkpt lat="43.40444" lon="2.44945">
        <ele>790.096</ele>
        <time>2021-05-24T12:16:31Z</time>
      </trkpt>
      <trkpt lat="43.40442" lon="2.44947">
        <ele>790.273</ele>
        <time>2021-05-24T12:16:33Z</time>
      </trkpt>
      <trkpt lat="43.40439" lon="2.44949">
        <ele>790.402</ele>
        <time>2021-05-24T12:16:35Z</time>
      </trkpt>
      <trkpt lat="43.40437" lon="2.4495">
        <ele>790.76</ele>
        <time>2021-05-24T12:16:37Z</time>
      </trkpt>
      <trkpt lat="43.40434" lon="2.44952">
        <ele>789.768</ele>
        <time>2021-05-24T12:16:39Z</time>
      </trkpt>
      <trkpt lat="43.40432" lon="2.44953">
        <ele>789.087</ele>
        <time>2021-05-24T12:16:41Z</time>
      </trkpt>
      <trkpt lat="43.4043" lon="2.44955">
        <ele>788.344</ele>
        <time>2021-05-24T12:16:43Z</time>
      </trkpt>
      <trkpt lat="43.40427" lon="2.44956">
        <ele>788.16</ele>
        <time>2021-05-24T12:16:45Z</time>
      </trkpt>
      <trkpt lat="43.40424" lon="2.44957">
        <ele>788.332</ele>
        <time>2021-05-24T12:16:47Z</time>
      </trkpt>
      <trkpt lat="43.40421" lon="2.44959">
        <ele>787.8</ele>
        <time>2021-05-24T12:16:49Z</time>
      </trkpt>
      <trkpt lat="43.40419" lon="2.4496">
        <ele>787.806</ele>
        <time>2021-05-24T12:16:51Z</time>
      </trkpt>
      <trkpt lat="43.40417" lon="2.44962">
        <ele>787.58</ele>
        <time>2021-05-24T12:16:53Z</time>
      </trkpt>
      <trkpt lat="43.40415" lon="2.44963">
        <ele>787.136</ele>
        <time>2021-05-24T12:16:55Z</time>
      </trkpt>
      <trkpt lat="43.40412" lon="2.44965">
        <ele>786.994</ele>
        <time>2021-05-24T12:16:57Z</time>
      </trkpt>
      <trkpt lat="43.4041" lon="2.44967">
        <ele>786.474</ele>
        <time>2021-05-24T12:16:59Z</time>
      </trkpt>
      <trkpt lat="43.40408" lon="2.44968">
        <ele>785.829</ele>
        <time>2021-05-24T12:17:01Z</time>
      </trkpt>
      <trkpt lat="43.40405" lon="2.4497">
        <ele>785.87</ele>
        <time>2021-05-24T12:17:03Z</time>
      </trkpt>
      <trkpt lat="43.40403" lon="2.44972">
        <ele>786.219</ele>
        <time>2021-05-24T12:17:05Z</time>
      </trkpt>
      <trkpt lat="43.40401" lon="2.44974">
        <ele>785.814</ele>
        <time>2021-05-24T12:17:07Z</time>
      </trkpt>
      <trkpt lat="43.40398" lon="2.44975">
        <ele>786.187</ele>
        <time>2021-05-24T12:17:09Z</time>
      </trkpt>
      <trkpt lat="43.40396" lon="2.44977">
        <ele>787.216</ele>
        <time>2021-05-24T12:17:11Z</time>
      </trkpt>
      <trkpt lat="43.40393" lon="2.44979">
        <ele>788.638</ele>
        <time>2021-05-24T12:17:13Z</time>
      </trkpt>
      <trkpt lat="43.4039" lon="2.44981">
        <ele>789.213</ele>
        <time>2021-05-24T12:17:15Z</time>
      </trkpt>
      <trkpt lat="43.40387" lon="2.44983">
        <ele>789.625</ele>
        <time>2021-05-24T12:17:17Z</time>
      </trkpt>
      <trkpt lat="43.40385" lon="2.44985">
        <ele>788.693</ele>
        <time>2021-05-24T12:17:19Z</time>
      </trkpt>
      <trkpt lat="43.40383" lon="2.44987">
        <ele>788.627</ele>
        <time>2021-05-24T12:17:21Z</time>
      </trkpt>
      <trkpt lat="43.4038" lon="2.44989">
        <ele>788.249</ele>
        <time>2021-05-24T12:17:23Z</time>
      </trkpt>
      <trkpt lat="43.40379" lon="2.44991">
        <ele>786.112</ele>
        <time>2021-05-24T12:17:25Z</time>
      </trkpt>
      <trkpt lat="43.40377" lon="2.44993">
        <ele>785.815</ele>
        <time>2021-05-24T12:17:27Z</time>
      </trkpt>
      <trkpt lat="43.40374" lon="2.44995">
        <ele>785.07</ele>
        <time>2021-05-24T12:17:29Z</time>
      </trkpt>
      <trkpt lat="43.40372" lon="2.44998">
        <ele>785.019</ele>
        <time>2021-05-24T12:17:31Z</time>
      </trkpt>
      <trkpt lat="43.4037" lon="2.45001">
        <ele>786.223</ele>
        <time>2021-05-24T12:17:33Z</time>
      </trkpt>
      <trkpt lat="43.40368" lon="2.45004">
        <ele>786.463</ele>
        <time>2021-05-24T12:17:35Z</time>
      </trkpt>
      <trkpt lat="43.40366" lon="2.45006">
        <ele>787.331</ele>
        <time>2021-05-24T12:17:37Z</time>
      </trkpt>
      <trkpt lat="43.40363" lon="2.45009">
        <ele>787.009</ele>
        <time>2021-05-24T12:17:39Z</time>
      </trkpt>
      <trkpt lat="43.40361" lon="2.45012">
        <ele>788.558</ele>
        <time>2021-05-24T12:17:41Z</time>
      </trkpt>
      <trkpt lat="43.40358" lon="2.45014">
        <ele>789.404</ele>
        <time>2021-05-24T12:17:43Z</time>
      </trkpt>
      <trkpt lat="43.40356" lon="2.45017">
        <ele>789.228</ele>
        <time>2021-05-24T12:17:45Z</time>
      </trkpt>
      <trkpt lat="43.40354" lon="2.4502">
        <ele>788.205</ele>
        <time>2021-05-24T12:17:47Z</time>
      </trkpt>
      <trkpt lat="43.40352" lon="2.45023">
        <ele>786.787</ele>
        <time>2021-05-24T12:17:49Z</time>
      </trkpt>
      <trkpt lat="43.4035" lon="2.45025">
        <ele>787.156</ele>
        <time>2021-05-24T12:17:51Z</time>
      </trkpt>
      <trkpt lat="43.40347" lon="2.45027">
        <ele>788.085</ele>
        <time>2021-05-24T12:17:53Z</time>
      </trkpt>
      <trkpt lat="43.40345" lon="2.45029">
        <ele>788.242</ele>
        <time>2021-05-24T12:17:55Z</time>
      </trkpt>
      <trkpt lat="43.40343" lon="2.45032">
        <ele>789.186</ele>
        <time>2021-05-24T12:17:57Z</time>
      </trkpt>
      <trkpt lat="43.4034" lon="2.45034">
        <ele>788.198</ele>
        <time>2021-05-24T12:17:59Z</time>
      </trkpt>
      <trkpt lat="43.40337" lon="2.45037">
        <ele>787.993</ele>
        <time>2021-05-24T12:18:01Z</time>
      </trkpt>
      <trkpt lat="43.40335" lon="2.4504">
        <ele>788.288</ele>
        <time>2021-05-24T12:18:03Z</time>
      </trkpt>
      <trkpt lat="43.40333" lon="2.45042">
        <ele>788.513</ele>
        <time>2021-05-24T12:18:05Z</time>
      </trkpt>
      <trkpt lat="43.40331" lon="2.45045">
        <ele>787.958</ele>
        <time>2021-05-24T12:18:07Z</time>
      </trkpt>
      <trkpt lat="43.40328" lon="2.45048">
        <ele>787.996</ele>
        <time>2021-05-24T12:18:09Z</time>
      </trkpt>
      <trkpt lat="43.40326" lon="2.45051">
        <ele>788.657</ele>
        <time>2021-05-24T12:18:11Z</time>
      </trkpt>
      <trkpt lat="43.40323" lon="2.45053">
        <ele>788.735</ele>
        <time>2021-05-24T12:18:13Z</time>
      </trkpt>
      <trkpt lat="43.40321" lon="2.45055">
        <ele>787.698</ele>
        <time>2021-05-24T12:18:15Z</time>
      </trkpt>
      <trkpt lat="43.40319" lon="2.45057">
        <ele>787.282</ele>
        <time>2021-05-24T12:18:17Z</time>
      </trkpt>
      <trkpt lat="43.40316" lon="2.45059">
        <ele>786.826</ele>
        <time>2021-05-24T12:18:19Z</time>
      </trkpt>
      <trkpt lat="43.40314" lon="2.45061">
        <ele>787.929</ele>
        <time>2021-05-24T12:18:21Z</time>
      </trkpt>
      <trkpt lat="43.40312" lon="2.45063">
        <ele>788.258</ele>
        <time>2021-05-24T12:18:23Z</time>
      </trkpt>
      <trkpt lat="43.4031" lon="2.45066">
        <ele>789.205</ele>
        <time>2021-05-24T12:18:25Z</time>
      </trkpt>
      <trkpt lat="43.40308" lon="2.45068">
        <ele>792.233</ele>
        <time>2021-05-24T12:18:27Z</time>
      </trkpt>
      <trkpt lat="43.40306" lon="2.4507">
        <ele>792.659</ele>
        <time>2021-05-24T12:18:29Z</time>
      </trkpt>
      <trkpt lat="43.40304" lon="2.45072">
        <ele>792.849</ele>
        <time>2021-05-24T12:18:31Z</time>
      </trkpt>
      <trkpt lat="43.40302" lon="2.45074">
        <ele>792.973</ele>
        <time>2021-05-24T12:18:33Z</time>
      </trkpt>
      <trkpt lat="43.40299" lon="2.45076">
        <ele>792.342</ele>
        <time>2021-05-24T12:18:35Z</time>
      </trkpt>
      <trkpt lat="43.40298" lon="2.45079">
        <ele>790.751</ele>
        <time>2021-05-24T12:18:37Z</time>
      </trkpt>
      <trkpt lat="43.40295" lon="2.45081">
        <ele>791.321</ele>
        <time>2021-05-24T12:18:39Z</time>
      </trkpt>
      <trkpt lat="43.40293" lon="2.45083">
        <ele>791.996</ele>
        <time>2021-05-24T12:18:41Z</time>
      </trkpt>
      <trkpt lat="43.40291" lon="2.45086">
        <ele>791.166</ele>
        <time>2021-05-24T12:18:43Z</time>
      </trkpt>
      <trkpt lat="43.40288" lon="2.45088">
        <ele>792.316</ele>
        <time>2021-05-24T12:18:45Z</time>
      </trkpt>
      <trkpt lat="43.40286" lon="2.45091">
        <ele>791.555</ele>
        <time>2021-05-24T12:18:47Z</time>
      </trkpt>
      <trkpt lat="43.40283" lon="2.45093">
        <ele>791.19</ele>
        <time>2021-05-24T12:18:49Z</time>
      </trkpt>
      <trkpt lat="43.40281" lon="2.45096">
        <ele>791.265</ele>
        <time>2021-05-24T12:18:51Z</time>
      </trkpt>
      <trkpt lat="43.40279" lon="2.45099">
        <ele>790.736</ele>
        <time>2021-05-24T12:18:53Z</time>
      </trkpt>
      <trkpt lat="43.40277" lon="2.45101">
        <ele>790.286</ele>
        <time>2021-05-24T12:18:55Z</time>
      </trkpt>
      <trkpt lat="43.40274" lon="2.45104">
        <ele>790.339</ele>
        <time>2021-05-24T12:18:57Z</time>
      </trkpt>
      <trkpt lat="43.40272" lon="2.45106">
        <ele>790.086</ele>
        <time>2021-05-24T12:18:59Z</time>
      </trkpt>
      <trkpt lat="43.4027" lon="2.45109">
        <ele>789.508</ele>
        <time>2021-05-24T12:19:01Z</time>
      </trkpt>
      <trkpt lat="43.40267" lon="2.45112">
        <ele>789.963</ele>
        <time>2021-05-24T12:19:03Z</time>
      </trkpt>
      <trkpt lat="43.40265" lon="2.45114">
        <ele>791.388</ele>
        <time>2021-05-24T12:19:05Z</time>
      </trkpt>
      <trkpt lat="43.40263" lon="2.45117">
        <ele>791.084</ele>
        <time>2021-05-24T12:19:07Z</time>
      </trkpt>
      <trkpt lat="43.4026" lon="2.45119">
        <ele>790.354</ele>
        <time>2021-05-24T12:19:09Z</time>
      </trkpt>
      <trkpt lat="43.40258" lon="2.45121">
        <ele>790.525</ele>
        <time>2021-05-24T12:19:11Z</time>
      </trkpt>
      <trkpt lat="43.40256" lon="2.45123">
        <ele>790.131</ele>
        <time>2021-05-24T12:19:13Z</time>
      </trkpt>
      <trkpt lat="43.40254" lon="2.45125">
        <ele>788.79</ele>
        <time>2021-05-24T12:19:15Z</time>
      </trkpt>
      <trkpt lat="43.40252" lon="2.45128">
        <ele>788.341</ele>
        <time>2021-05-24T12:19:17Z</time>
      </trkpt>
      <trkpt lat="43.40249" lon="2.45131">
        <ele>788.436</ele>
        <time>2021-05-24T12:19:19Z</time>
      </trkpt>
      <trkpt lat="43.40246" lon="2.45133">
        <ele>789.936</ele>
        <time>2021-05-24T12:19:21Z</time>
      </trkpt>
      <trkpt lat="43.40244" lon="2.45135">
        <ele>788.928</ele>
        <time>2021-05-24T12:19:23Z</time>
      </trkpt>
      <trkpt lat="43.40241" lon="2.45137">
        <ele>790.212</ele>
        <time>2021-05-24T12:19:25Z</time>
      </trkpt>
      <trkpt lat="43.40238" lon="2.45139">
        <ele>789.402</ele>
        <time>2021-05-24T12:19:27Z</time>
      </trkpt>
      <trkpt lat="43.40236" lon="2.45141">
        <ele>789.259</ele>
        <time>2021-05-24T12:19:29Z</time>
      </trkpt>
      <trkpt lat="43.40233" lon="2.45143">
        <ele>789.29</ele>
        <time>2021-05-24T12:19:31Z</time>
      </trkpt>
      <trkpt lat="43.40231" lon="2.45146">
        <ele>788.279</ele>
        <time>2021-05-24T12:19:33Z</time>
      </trkpt>
      <trkpt lat="43.40229" lon="2.45147">
        <ele>789.301</ele>
        <time>2021-05-24T12:19:35Z</time>
      </trkpt>
      <trkpt lat="43.40226" lon="2.4515">
        <ele>789.496</ele>
        <time>2021-05-24T12:19:37Z</time>
      </trkpt>
      <trkpt lat="43.40223" lon="2.45152">
        <ele>790.223</ele>
        <time>2021-05-24T12:19:39Z</time>
      </trkpt>
      <trkpt lat="43.40221" lon="2.45154">
        <ele>789.537</ele>
        <time>2021-05-24T12:19:41Z</time>
      </trkpt>
      <trkpt lat="43.40218" lon="2.45157">
        <ele>789.147</ele>
        <time>2021-05-24T12:19:43Z</time>
      </trkpt>
      <trkpt lat="43.40216" lon="2.4516">
        <ele>789.262</ele>
        <time>2021-05-24T12:19:45Z</time>
      </trkpt>
      <trkpt lat="43.40214" lon="2.45162">
        <ele>789.024</ele>
        <time>2021-05-24T12:19:47Z</time>
      </trkpt>
      <trkpt lat="43.40212" lon="2.45165">
        <ele>786.214</ele>
        <time>2021-05-24T12:19:49Z</time>
      </trkpt>
      <trkpt lat="43.40209" lon="2.45168">
        <ele>786.199</ele>
        <time>2021-05-24T12:19:51Z</time>
      </trkpt>
      <trkpt lat="43.40206" lon="2.45171">
        <ele>786.031</ele>
        <time>2021-05-24T12:19:53Z</time>
      </trkpt>
      <trkpt lat="43.40203" lon="2.45174">
        <ele>785.172</ele>
        <time>2021-05-24T12:19:55Z</time>
      </trkpt>
      <trkpt lat="43.402" lon="2.45176">
        <ele>783.121</ele>
        <time>2021-05-24T12:19:57Z</time>
      </trkpt>
      <trkpt lat="43.40198" lon="2.45178">
        <ele>783.941</ele>
        <time>2021-05-24T12:19:59Z</time>
      </trkpt>
      <trkpt lat="43.40195" lon="2.45179">
        <ele>783.333</ele>
        <time>2021-05-24T12:20:01Z</time>
      </trkpt>
      <trkpt lat="43.40192" lon="2.4518">
        <ele>783.583</ele>
        <time>2021-05-24T12:20:03Z</time>
      </trkpt>
      <trkpt lat="43.40189" lon="2.45182">
        <ele>785.595</ele>
        <time>2021-05-24T12:20:05Z</time>
      </trkpt>
      <trkpt lat="43.40186" lon="2.45183">
        <ele>785.036</ele>
        <time>2021-05-24T12:20:07Z</time>
      </trkpt>
      <trkpt lat="43.40183" lon="2.45184">
        <ele>784.685</ele>
        <time>2021-05-24T12:20:09Z</time>
      </trkpt>
      <trkpt lat="43.40181" lon="2.45185">
        <ele>783.927</ele>
        <time>2021-05-24T12:20:11Z</time>
      </trkpt>
      <trkpt lat="43.40178" lon="2.45186">
        <ele>784.744</ele>
        <time>2021-05-24T12:20:13Z</time>
      </trkpt>
      <trkpt lat="43.40175" lon="2.45187">
        <ele>785.469</ele>
        <time>2021-05-24T12:20:15Z</time>
      </trkpt>
      <trkpt lat="43.40171" lon="2.45187">
        <ele>785.578</ele>
        <time>2021-05-24T12:20:17Z</time>
      </trkpt>
      <trkpt lat="43.40168" lon="2.45188">
        <ele>786.053</ele>
        <time>2021-05-24T12:20:19Z</time>
      </trkpt>
      <trkpt lat="43.40166" lon="2.4519">
        <ele>785.808</ele>
        <time>2021-05-24T12:20:21Z</time>
      </trkpt>
      <trkpt lat="43.40163" lon="2.45191">
        <ele>786.656</ele>
        <time>2021-05-24T12:20:23Z</time>
      </trkpt>
      <trkpt lat="43.4016" lon="2.45192">
        <ele>785.97</ele>
        <time>2021-05-24T12:20:25Z</time>
      </trkpt>
      <trkpt lat="43.40157" lon="2.45193">
        <ele>785.204</ele>
        <time>2021-05-24T12:20:27Z</time>
      </trkpt>
      <trkpt lat="43.40154" lon="2.45193">
        <ele>784.322</ele>
        <time>2021-05-24T12:20:29Z</time>
      </trkpt>
      <trkpt lat="43.4015" lon="2.45194">
        <ele>783.718</ele>
        <time>2021-05-24T12:20:31Z</time>
      </trkpt>
      <trkpt lat="43.40147" lon="2.45195">
        <ele>784.687</ele>
        <time>2021-05-24T12:20:33Z</time>
      </trkpt>
      <trkpt lat="43.40143" lon="2.45194">
        <ele>785.27</ele>
        <time>2021-05-24T12:20:35Z</time>
      </trkpt>
      <trkpt lat="43.4014" lon="2.45194">
        <ele>785.861</ele>
        <time>2021-05-24T12:20:37Z</time>
      </trkpt>
      <trkpt lat="43.40137" lon="2.45195">
        <ele>785.088</ele>
        <time>2021-05-24T12:20:39Z</time>
      </trkpt>
      <trkpt lat="43.40135" lon="2.45195">
        <ele>785.06</ele>
        <time>2021-05-24T12:20:41Z</time>
      </trkpt>
      <trkpt lat="43.40132" lon="2.45196">
        <ele>785.711</ele>
        <time>2021-05-24T12:20:43Z</time>
      </trkpt>
      <trkpt lat="43.40129" lon="2.45196">
        <ele>785.221</ele>
        <time>2021-05-24T12:20:45Z</time>
      </trkpt>
      <trkpt lat="43.40126" lon="2.45197">
        <ele>784.154</ele>
        <time>2021-05-24T12:20:47Z</time>
      </trkpt>
      <trkpt lat="43.40123" lon="2.45197">
        <ele>783.045</ele>
        <time>2021-05-24T12:20:49Z</time>
      </trkpt>
      <trkpt lat="43.40119" lon="2.45197">
        <ele>782.287</ele>
        <time>2021-05-24T12:20:52Z</time>
      </trkpt>
      <trkpt lat="43.40116" lon="2.45197">
        <ele>781.971</ele>
        <time>2021-05-24T12:20:54Z</time>
      </trkpt>
      <trkpt lat="43.40113" lon="2.45197">
        <ele>782.457</ele>
        <time>2021-05-24T12:20:56Z</time>
      </trkpt>
      <trkpt lat="43.4011" lon="2.45196">
        <ele>782.821</ele>
        <time>2021-05-24T12:20:58Z</time>
      </trkpt>
      <trkpt lat="43.40107" lon="2.45196">
        <ele>783.316</ele>
        <time>2021-05-24T12:21:00Z</time>
      </trkpt>
      <trkpt lat="43.40104" lon="2.45196">
        <ele>782.82</ele>
        <time>2021-05-24T12:21:02Z</time>
      </trkpt>
      <trkpt lat="43.40101" lon="2.45195">
        <ele>781.205</ele>
        <time>2021-05-24T12:21:04Z</time>
      </trkpt>
      <trkpt lat="43.40098" lon="2.45196">
        <ele>779.609</ele>
        <time>2021-05-24T12:21:06Z</time>
      </trkpt>
      <trkpt lat="43.40095" lon="2.45195">
        <ele>780.262</ele>
        <time>2021-05-24T12:21:08Z</time>
      </trkpt>
      <trkpt lat="43.40092" lon="2.45195">
        <ele>779.387</ele>
        <time>2021-05-24T12:21:10Z</time>
      </trkpt>
      <trkpt lat="43.40089" lon="2.45194">
        <ele>777.52</ele>
        <time>2021-05-24T12:21:12Z</time>
      </trkpt>
      <trkpt lat="43.40087" lon="2.45194">
        <ele>777.462</ele>
        <time>2021-05-24T12:21:14Z</time>
      </trkpt>
      <trkpt lat="43.40084" lon="2.45193">
        <ele>777.128</ele>
        <time>2021-05-24T12:21:16Z</time>
      </trkpt>
      <trkpt lat="43.40081" lon="2.45192">
        <ele>776.805</ele>
        <time>2021-05-24T12:21:18Z</time>
      </trkpt>
      <trkpt lat="43.40078" lon="2.45192">
        <ele>776.42</ele>
        <time>2021-05-24T12:21:20Z</time>
      </trkpt>
      <trkpt lat="43.40075" lon="2.45193">
        <ele>776.172</ele>
        <time>2021-05-24T12:21:22Z</time>
      </trkpt>
      <trkpt lat="43.40072" lon="2.45193">
        <ele>775.66</ele>
        <time>2021-05-24T12:21:24Z</time>
      </trkpt>
      <trkpt lat="43.4007" lon="2.45193">
        <ele>774.83</ele>
        <time>2021-05-24T12:21:26Z</time>
      </trkpt>
      <trkpt lat="43.40067" lon="2.45193">
        <ele>775.386</ele>
        <time>2021-05-24T12:21:28Z</time>
      </trkpt>
      <trkpt lat="43.40064" lon="2.45194">
        <ele>774.705</ele>
        <time>2021-05-24T12:21:30Z</time>
      </trkpt>
      <trkpt lat="43.40061" lon="2.45194">
        <ele>774.663</ele>
        <time>2021-05-24T12:21:32Z</time>
      </trkpt>
      <trkpt lat="43.40057" lon="2.45194">
        <ele>773.462</ele>
        <time>2021-05-24T12:21:35Z</time>
      </trkpt>
      <trkpt lat="43.40054" lon="2.45193">
        <ele>771.9</ele>
        <time>2021-05-24T12:21:37Z</time>
      </trkpt>
      <trkpt lat="43.40052" lon="2.45193">
        <ele>770.931</ele>
        <time>2021-05-24T12:21:39Z</time>
      </trkpt>
      <trkpt lat="43.40049" lon="2.45191">
        <ele>769.185</ele>
        <time>2021-05-24T12:21:41Z</time>
      </trkpt>
      <trkpt lat="43.40046" lon="2.45189">
        <ele>768.916</ele>
        <time>2021-05-24T12:21:43Z</time>
      </trkpt>
      <trkpt lat="43.40043" lon="2.45188">
        <ele>768.58</ele>
        <time>2021-05-24T12:21:45Z</time>
      </trkpt>
      <trkpt lat="43.40039" lon="2.45187">
        <ele>769.137</ele>
        <time>2021-05-24T12:21:47Z</time>
      </trkpt>
      <trkpt lat="43.40036" lon="2.45185">
        <ele>769.005</ele>
        <time>2021-05-24T12:21:49Z</time>
      </trkpt>
      <trkpt lat="43.40033" lon="2.45184">
        <ele>769.944</ele>
        <time>2021-05-24T12:21:51Z</time>
      </trkpt>
      <trkpt lat="43.4003" lon="2.45183">
        <ele>770.604</ele>
        <time>2021-05-24T12:21:53Z</time>
      </trkpt>
      <trkpt lat="43.40027" lon="2.45183">
        <ele>770.099</ele>
        <time>2021-05-24T12:21:55Z</time>
      </trkpt>
      <trkpt lat="43.40024" lon="2.45183">
        <ele>768.961</ele>
        <time>2021-05-24T12:21:57Z</time>
      </trkpt>
      <trkpt lat="43.40021" lon="2.45183">
        <ele>766.951</ele>
        <time>2021-05-24T12:21:59Z</time>
      </trkpt>
      <trkpt lat="43.40019" lon="2.45182">
        <ele>766.359</ele>
        <time>2021-05-24T12:22:01Z</time>
      </trkpt>
      <trkpt lat="43.40016" lon="2.45181">
        <ele>766.236</ele>
        <time>2021-05-24T12:22:03Z</time>
      </trkpt>
      <trkpt lat="43.40013" lon="2.4518">
        <ele>765.42</ele>
        <time>2021-05-24T12:22:05Z</time>
      </trkpt>
      <trkpt lat="43.4001" lon="2.45178">
        <ele>766.523</ele>
        <time>2021-05-24T12:22:07Z</time>
      </trkpt>
      <trkpt lat="43.40007" lon="2.45176">
        <ele>766.012</ele>
        <time>2021-05-24T12:22:09Z</time>
      </trkpt>
      <trkpt lat="43.40004" lon="2.45175">
        <ele>764.585</ele>
        <time>2021-05-24T12:22:11Z</time>
      </trkpt>
      <trkpt lat="43.40001" lon="2.45174">
        <ele>764.998</ele>
        <time>2021-05-24T12:22:13Z</time>
      </trkpt>
      <trkpt lat="43.39999" lon="2.45174">
        <ele>763.301</ele>
        <time>2021-05-24T12:22:15Z</time>
      </trkpt>
      <trkpt lat="43.39996" lon="2.45174">
        <ele>762.508</ele>
        <time>2021-05-24T12:22:17Z</time>
      </trkpt>
      <trkpt lat="43.39993" lon="2.45173">
        <ele>762.087</ele>
        <time>2021-05-24T12:22:19Z</time>
      </trkpt>
      <trkpt lat="43.39991" lon="2.45171">
        <ele>762.529</ele>
        <time>2021-05-24T12:22:21Z</time>
      </trkpt>
      <trkpt lat="43.39988" lon="2.45167">
        <ele>766.091</ele>
        <time>2021-05-24T12:22:23Z</time>
      </trkpt>
      <trkpt lat="43.39986" lon="2.45164">
        <ele>767.799</ele>
        <time>2021-05-24T12:22:25Z</time>
      </trkpt>
      <trkpt lat="43.39984" lon="2.45161">
        <ele>769.088</ele>
        <time>2021-05-24T12:22:27Z</time>
      </trkpt>
      <trkpt lat="43.39981" lon="2.4516">
        <ele>769.791</ele>
        <time>2021-05-24T12:22:29Z</time>
      </trkpt>
      <trkpt lat="43.39978" lon="2.4516">
        <ele>770.845</ele>
        <time>2021-05-24T12:22:31Z</time>
      </trkpt>
      <trkpt lat="43.39975" lon="2.45158">
        <ele>772.037</ele>
        <time>2021-05-24T12:22:33Z</time>
      </trkpt>
      <trkpt lat="43.39973" lon="2.45157">
        <ele>772.523</ele>
        <time>2021-05-24T12:22:35Z</time>
      </trkpt>
      <trkpt lat="43.3997" lon="2.45156">
        <ele>772.351</ele>
        <time>2021-05-24T12:22:37Z</time>
      </trkpt>
      <trkpt lat="43.39967" lon="2.45155">
        <ele>774.478</ele>
        <time>2021-05-24T12:22:39Z</time>
      </trkpt>
      <trkpt lat="43.39965" lon="2.45153">
        <ele>774.375</ele>
        <time>2021-05-24T12:22:41Z</time>
      </trkpt>
      <trkpt lat="43.39962" lon="2.45152">
        <ele>774.393</ele>
        <time>2021-05-24T12:22:43Z</time>
      </trkpt>
      <trkpt lat="43.3996" lon="2.4515">
        <ele>775.692</ele>
        <time>2021-05-24T12:22:45Z</time>
      </trkpt>
      <trkpt lat="43.39957" lon="2.45147">
        <ele>777.356</ele>
        <time>2021-05-24T12:22:47Z</time>
      </trkpt>
      <trkpt lat="43.39955" lon="2.45146">
        <ele>777.168</ele>
        <time>2021-05-24T12:22:49Z</time>
      </trkpt>
      <trkpt lat="43.39953" lon="2.45144">
        <ele>777.242</ele>
        <time>2021-05-24T12:22:51Z</time>
      </trkpt>
      <trkpt lat="43.39951" lon="2.45143">
        <ele>777.292</ele>
        <time>2021-05-24T12:22:53Z</time>
      </trkpt>
      <trkpt lat="43.39949" lon="2.45142">
        <ele>777.402</ele>
        <time>2021-05-24T12:22:55Z</time>
      </trkpt>
      <trkpt lat="43.39946" lon="2.4514">
        <ele>777.817</ele>
        <time>2021-05-24T12:22:57Z</time>
      </trkpt>
      <trkpt lat="43.39943" lon="2.45139">
        <ele>776.844</ele>
        <time>2021-05-24T12:22:59Z</time>
      </trkpt>
      <trkpt lat="43.39941" lon="2.45138">
        <ele>777.21</ele>
        <time>2021-05-24T12:23:01Z</time>
      </trkpt>
      <trkpt lat="43.39938" lon="2.45137">
        <ele>776.906</ele>
        <time>2021-05-24T12:23:03Z</time>
      </trkpt>
      <trkpt lat="43.39936" lon="2.45136">
        <ele>776.246</ele>
        <time>2021-05-24T12:23:05Z</time>
      </trkpt>
      <trkpt lat="43.39934" lon="2.45134">
        <ele>776.117</ele>
        <time>2021-05-24T12:23:07Z</time>
      </trkpt>
      <trkpt lat="43.39933" lon="2.45132">
        <ele>777.984</ele>
        <time>2021-05-24T12:23:09Z</time>
      </trkpt>
      <trkpt lat="43.39933" lon="2.4513">
        <ele>778.405</ele>
        <time>2021-05-24T12:23:11Z</time>
      </trkpt>
      <trkpt lat="43.39933" lon="2.4513">
        <ele>778.409</ele>
        <time>2021-05-24T12:23:13Z</time>
      </trkpt>
      <trkpt lat="43.39933" lon="2.4513">
        <ele>778.402</ele>
        <time>2021-05-24T12:23:15Z</time>
      </trkpt>
      <trkpt lat="43.39933" lon="2.4513">
        <ele>779.471</ele>
        <time>2021-05-24T12:23:17Z</time>
      </trkpt>
      <trkpt lat="43.39933" lon="2.45129">
        <ele>778.503</ele>
        <time>2021-05-24T12:23:19Z</time>
      </trkpt>
      <trkpt lat="43.39933" lon="2.45129">
        <ele>779.031</ele>
        <time>2021-05-24T12:23:21Z</time>
      </trkpt>
      <trkpt lat="43.39933" lon="2.45128">
        <ele>778.983</ele>
        <time>2021-05-24T12:23:23Z</time>
      </trkpt>
      <trkpt lat="43.39932" lon="2.45125">
        <ele>778.238</ele>
        <time>2021-05-24T12:23:25Z</time>
      </trkpt>
      <trkpt lat="43.39932" lon="2.45122">
        <ele>777.327</ele>
        <time>2021-05-24T12:23:27Z</time>
      </trkpt>
      <trkpt lat="43.39932" lon="2.45121">
        <ele>777.031</ele>
        <time>2021-05-24T12:23:29Z</time>
      </trkpt>
      <trkpt lat="43.39932" lon="2.4512">
        <ele>777.74</ele>
        <time>2021-05-24T12:23:31Z</time>
      </trkpt>
      <trkpt lat="43.39932" lon="2.4512">
        <ele>777.756</ele>
        <time>2021-05-24T12:23:33Z</time>
      </trkpt>
      <trkpt lat="43.39932" lon="2.4512">
        <ele>777.563</ele>
        <time>2021-05-24T12:23:35Z</time>
      </trkpt>
      <trkpt lat="43.39932" lon="2.4512">
        <ele>777.755</ele>
        <time>2021-05-24T12:23:37Z</time>
      </trkpt>
      <trkpt lat="43.39931" lon="2.4512">
        <ele>777.739</ele>
        <time>2021-05-24T12:23:39Z</time>
      </trkpt>
      <trkpt lat="43.39931" lon="2.4512">
        <ele>777.731</ele>
        <time>2021-05-24T12:23:41Z</time>
      </trkpt>
      <trkpt lat="43.39931" lon="2.4512">
        <ele>777.922</ele>
        <time>2021-05-24T12:23:43Z</time>
      </trkpt>
      <trkpt lat="43.39931" lon="2.4512">
        <ele>777.945</ele>
        <time>2021-05-24T12:23:45Z</time>
      </trkpt>
      <trkpt lat="43.39931" lon="2.4512">
        <ele>777.949</ele>
        <time>2021-05-24T12:23:47Z</time>
      </trkpt>
      <trkpt lat="43.39931" lon="2.4512">
        <ele>777.941</ele>
        <time>2021-05-24T12:23:49Z</time>
      </trkpt>
      <trkpt lat="43.39931" lon="2.45121">
        <ele>777.527</ele>
        <time>2021-05-24T12:23:51Z</time>
      </trkpt>
      <trkpt lat="43.39931" lon="2.45121">
        <ele>777.689</ele>
        <time>2021-05-24T12:23:53Z</time>
      </trkpt>
      <trkpt lat="43.39931" lon="2.45121">
        <ele>777.685</ele>
        <time>2021-05-24T12:23:55Z</time>
      </trkpt>
      <trkpt lat="43.39931" lon="2.45121">
        <ele>777.679</ele>
        <time>2021-05-24T12:23:57Z</time>
      </trkpt>
      <trkpt lat="43.39931" lon="2.45121">
        <ele>777.693</ele>
        <time>2021-05-24T12:23:59Z</time>
      </trkpt>
      <trkpt lat="43.39931" lon="2.45122">
        <ele>778.321</ele>
        <time>2021-05-24T12:24:01Z</time>
      </trkpt>
      <trkpt lat="43.39932" lon="2.45123">
        <ele>778.137</ele>
        <time>2021-05-24T12:24:03Z</time>
      </trkpt>
      <trkpt lat="43.39932" lon="2.45123">
        <ele>778.11</ele>
        <time>2021-05-24T12:24:05Z</time>
      </trkpt>
      <trkpt lat="43.39931" lon="2.45124">
        <ele>778.273</ele>
        <time>2021-05-24T12:24:07Z</time>
      </trkpt>
      <trkpt lat="43.39931" lon="2.45125">
        <ele>777.665</ele>
        <time>2021-05-24T12:24:09Z</time>
      </trkpt>
      <trkpt lat="43.39931" lon="2.45125">
        <ele>777.506</ele>
        <time>2021-05-24T12:24:11Z</time>
      </trkpt>
      <trkpt lat="43.39932" lon="2.45125">
        <ele>777.064</ele>
        <time>2021-05-24T12:24:13Z</time>
      </trkpt>
      <trkpt lat="43.39933" lon="2.45124">
        <ele>777.032</ele>
        <time>2021-05-24T12:24:15Z</time>
      </trkpt>
      <trkpt lat="43.39934" lon="2.45123">
        <ele>777.44</ele>
        <time>2021-05-24T12:24:17Z</time>
      </trkpt>
      <trkpt lat="43.39933" lon="2.45121">
        <ele>777.248</ele>
        <time>2021-05-24T12:24:19Z</time>
      </trkpt>
      <trkpt lat="43.39933" lon="2.45121">
        <ele>777.246</ele>
        <time>2021-05-24T12:24:21Z</time>
      </trkpt>
      <trkpt lat="43.39933" lon="2.45121">
        <ele>777.248</ele>
        <time>2021-05-24T12:24:23Z</time>
      </trkpt>
      <trkpt lat="43.39933" lon="2.45121">
        <ele>777.253</ele>
        <time>2021-05-24T12:24:25Z</time>
      </trkpt>
      <trkpt lat="43.39933" lon="2.45121">
        <ele>777.255</ele>
        <time>2021-05-24T12:24:27Z</time>
      </trkpt>
      <trkpt lat="43.39933" lon="2.45121">
        <ele>777.257</ele>
        <time>2021-05-24T12:24:29Z</time>
      </trkpt>
      <trkpt lat="43.39933" lon="2.45121">
        <ele>777.264</ele>
        <time>2021-05-24T12:24:31Z</time>
      </trkpt>
      <trkpt lat="43.39933" lon="2.45121">
        <ele>777.27</ele>
        <time>2021-05-24T12:24:33Z</time>
      </trkpt>
      <trkpt lat="43.39933" lon="2.45121">
        <ele>777.275</ele>
        <time>2021-05-24T12:24:35Z</time>
      </trkpt>
      <trkpt lat="43.39933" lon="2.45122">
        <ele>777.014</ele>
        <time>2021-05-24T12:24:37Z</time>
      </trkpt>
      <trkpt lat="43.39933" lon="2.45123">
        <ele>775.963</ele>
        <time>2021-05-24T12:24:39Z</time>
      </trkpt>
      <trkpt lat="43.39932" lon="2.45124">
        <ele>775.803</ele>
        <time>2021-05-24T12:24:41Z</time>
      </trkpt>
      <trkpt lat="43.3993" lon="2.45126">
        <ele>775.629</ele>
        <time>2021-05-24T12:24:43Z</time>
      </trkpt>
      <trkpt lat="43.39929" lon="2.45126">
        <ele>775.472</ele>
        <time>2021-05-24T12:24:45Z</time>
      </trkpt>
      <trkpt lat="43.39927" lon="2.45125">
        <ele>775.56</ele>
        <time>2021-05-24T12:24:47Z</time>
      </trkpt>
      <trkpt lat="43.39925" lon="2.45124">
        <ele>775.923</ele>
        <time>2021-05-24T12:24:49Z</time>
      </trkpt>
      <trkpt lat="43.39925" lon="2.45123">
        <ele>774.828</ele>
        <time>2021-05-24T12:24:51Z</time>
      </trkpt>
      <trkpt lat="43.39926" lon="2.45122">
        <ele>774.738</ele>
        <time>2021-05-24T12:24:53Z</time>
      </trkpt>
      <trkpt lat="43.39926" lon="2.45122">
        <ele>774.738</ele>
        <time>2021-05-24T12:24:55Z</time>
      </trkpt>
      <trkpt lat="43.39926" lon="2.45122">
        <ele>775.07</ele>
        <time>2021-05-24T12:24:57Z</time>
      </trkpt>
      <trkpt lat="43.39925" lon="2.4512">
        <ele>774.903</ele>
        <time>2021-05-24T12:24:59Z</time>
      </trkpt>
      <trkpt lat="43.39924" lon="2.45119">
        <ele>775.709</ele>
        <time>2021-05-24T12:25:01Z</time>
      </trkpt>
      <trkpt lat="43.39924" lon="2.45118">
        <ele>775.727</ele>
        <time>2021-05-24T12:25:03Z</time>
      </trkpt>
      <trkpt lat="43.39924" lon="2.45117">
        <ele>776.759</ele>
        <time>2021-05-24T12:25:05Z</time>
      </trkpt>
      <trkpt lat="43.39924" lon="2.45116">
        <ele>776.77</ele>
        <time>2021-05-24T12:25:07Z</time>
      </trkpt>
      <trkpt lat="43.39925" lon="2.45115">
        <ele>776.773</ele>
        <time>2021-05-24T12:25:09Z</time>
      </trkpt>
      <trkpt lat="43.39925" lon="2.45115">
        <ele>776.774</ele>
        <time>2021-05-24T12:25:11Z</time>
      </trkpt>
      <trkpt lat="43.39925" lon="2.45115">
        <ele>776.782</ele>
        <time>2021-05-24T12:25:13Z</time>
      </trkpt>
      <trkpt lat="43.39925" lon="2.45115">
        <ele>776.788</ele>
        <time>2021-05-24T12:25:15Z</time>
      </trkpt>
      <trkpt lat="43.39925" lon="2.45115">
        <ele>776.787</ele>
        <time>2021-05-24T12:25:17Z</time>
      </trkpt>
      <trkpt lat="43.39925" lon="2.45115">
        <ele>776.795</ele>
        <time>2021-05-24T12:25:19Z</time>
      </trkpt>
      <trkpt lat="43.39925" lon="2.45115">
        <ele>776.799</ele>
        <time>2021-05-24T12:25:21Z</time>
      </trkpt>
      <trkpt lat="43.39925" lon="2.45115">
        <ele>776.803</ele>
        <time>2021-05-24T12:25:23Z</time>
      </trkpt>
      <trkpt lat="43.39925" lon="2.45115">
        <ele>776.805</ele>
        <time>2021-05-24T12:25:25Z</time>
      </trkpt>
      <trkpt lat="43.39924" lon="2.45115">
        <ele>777.18</ele>
        <time>2021-05-24T12:25:27Z</time>
      </trkpt>
      <trkpt lat="43.39924" lon="2.45115">
        <ele>777.186</ele>
        <time>2021-05-24T12:25:29Z</time>
      </trkpt>
      <trkpt lat="43.39923" lon="2.45115">
        <ele>777.865</ele>
        <time>2021-05-24T12:25:31Z</time>
      </trkpt>
      <trkpt lat="43.39921" lon="2.45116">
        <ele>777.887</ele>
        <time>2021-05-24T12:25:33Z</time>
      </trkpt>
      <trkpt lat="43.3992" lon="2.45115">
        <ele>777.637</ele>
        <time>2021-05-24T12:25:35Z</time>
      </trkpt>
      <trkpt lat="43.39918" lon="2.45114">
        <ele>777.648</ele>
        <time>2021-05-24T12:25:37Z</time>
      </trkpt>
      <trkpt lat="43.39917" lon="2.45112">
        <ele>777.754</ele>
        <time>2021-05-24T12:25:39Z</time>
      </trkpt>
      <trkpt lat="43.39915" lon="2.4511">
        <ele>778.115</ele>
        <time>2021-05-24T12:25:41Z</time>
      </trkpt>
      <trkpt lat="43.39913" lon="2.45108">
        <ele>778.812</ele>
        <time>2021-05-24T12:25:43Z</time>
      </trkpt>
      <trkpt lat="43.39911" lon="2.45106">
        <ele>778.981</ele>
        <time>2021-05-24T12:25:45Z</time>
      </trkpt>
      <trkpt lat="43.39909" lon="2.45104">
        <ele>779.227</ele>
        <time>2021-05-24T12:25:47Z</time>
      </trkpt>
      <trkpt lat="43.39907" lon="2.45102">
        <ele>779.53</ele>
        <time>2021-05-24T12:25:49Z</time>
      </trkpt>
      <trkpt lat="43.39906" lon="2.45101">
        <ele>780.848</ele>
        <time>2021-05-24T12:25:51Z</time>
      </trkpt>
      <trkpt lat="43.39904" lon="2.45099">
        <ele>782.3</ele>
        <time>2021-05-24T12:25:53Z</time>
      </trkpt>
      <trkpt lat="43.39902" lon="2.45101">
        <ele>782.09</ele>
        <time>2021-05-24T12:25:55Z</time>
      </trkpt>
      <trkpt lat="43.399" lon="2.45097">
        <ele>782.844</ele>
        <time>2021-05-24T12:25:57Z</time>
      </trkpt>
      <trkpt lat="43.39899" lon="2.45095">
        <ele>782.395</ele>
        <time>2021-05-24T12:25:59Z</time>
      </trkpt>
      <trkpt lat="43.39897" lon="2.45094">
        <ele>782</ele>
        <time>2021-05-24T12:26:01Z</time>
      </trkpt>
      <trkpt lat="43.39896" lon="2.45091">
        <ele>782.723</ele>
        <time>2021-05-24T12:26:03Z</time>
      </trkpt>
      <trkpt lat="43.39894" lon="2.4509">
        <ele>782.493</ele>
        <time>2021-05-24T12:26:05Z</time>
      </trkpt>
      <trkpt lat="43.39891" lon="2.45087">
        <ele>782.907</ele>
        <time>2021-05-24T12:26:07Z</time>
      </trkpt>
      <trkpt lat="43.39888" lon="2.45086">
        <ele>783.617</ele>
        <time>2021-05-24T12:26:09Z</time>
      </trkpt>
      <trkpt lat="43.39885" lon="2.45084">
        <ele>783.626</ele>
        <time>2021-05-24T12:26:11Z</time>
      </trkpt>
      <trkpt lat="43.39884" lon="2.45083">
        <ele>782.191</ele>
        <time>2021-05-24T12:26:13Z</time>
      </trkpt>
      <trkpt lat="43.39882" lon="2.45081">
        <ele>781.925</ele>
        <time>2021-05-24T12:26:15Z</time>
      </trkpt>
      <trkpt lat="43.39879" lon="2.45078">
        <ele>783.13</ele>
        <time>2021-05-24T12:26:17Z</time>
      </trkpt>
      <trkpt lat="43.39877" lon="2.45076">
        <ele>782.693</ele>
        <time>2021-05-24T12:26:19Z</time>
      </trkpt>
      <trkpt lat="43.39875" lon="2.45074">
        <ele>781.626</ele>
        <time>2021-05-24T12:26:21Z</time>
      </trkpt>
      <trkpt lat="43.39872" lon="2.45072">
        <ele>781.336</ele>
        <time>2021-05-24T12:26:23Z</time>
      </trkpt>
      <trkpt lat="43.3987" lon="2.45069">
        <ele>781.504</ele>
        <time>2021-05-24T12:26:25Z</time>
      </trkpt>
      <trkpt lat="43.39867" lon="2.45067">
        <ele>781.996</ele>
        <time>2021-05-24T12:26:27Z</time>
      </trkpt>
      <trkpt lat="43.39865" lon="2.45065">
        <ele>781.815</ele>
        <time>2021-05-24T12:26:29Z</time>
      </trkpt>
      <trkpt lat="43.39863" lon="2.45062">
        <ele>782.541</ele>
        <time>2021-05-24T12:26:31Z</time>
      </trkpt>
      <trkpt lat="43.39861" lon="2.4506">
        <ele>782.967</ele>
        <time>2021-05-24T12:26:33Z</time>
      </trkpt>
      <trkpt lat="43.39859" lon="2.45057">
        <ele>782.776</ele>
        <time>2021-05-24T12:26:35Z</time>
      </trkpt>
      <trkpt lat="43.39857" lon="2.45056">
        <ele>782.386</ele>
        <time>2021-05-24T12:26:37Z</time>
      </trkpt>
      <trkpt lat="43.39855" lon="2.45054">
        <ele>782.734</ele>
        <time>2021-05-24T12:26:39Z</time>
      </trkpt>
      <trkpt lat="43.39855" lon="2.45054">
        <ele>781.896</ele>
        <time>2021-05-24T12:26:41Z</time>
      </trkpt>
      <trkpt lat="43.39854" lon="2.45054">
        <ele>781.577</ele>
        <time>2021-05-24T12:26:43Z</time>
      </trkpt>
      <trkpt lat="43.39854" lon="2.45053">
        <ele>781.062</ele>
        <time>2021-05-24T12:26:45Z</time>
      </trkpt>
      <trkpt lat="43.39854" lon="2.45053">
        <ele>781.059</ele>
        <time>2021-05-24T12:26:47Z</time>
      </trkpt>
      <trkpt lat="43.39853" lon="2.45053">
        <ele>780.934</ele>
        <time>2021-05-24T12:26:49Z</time>
      </trkpt>
      <trkpt lat="43.39853" lon="2.45053">
        <ele>780.942</ele>
        <time>2021-05-24T12:26:51Z</time>
      </trkpt>
      <trkpt lat="43.39853" lon="2.45053">
        <ele>780.943</ele>
        <time>2021-05-24T12:26:53Z</time>
      </trkpt>
      <trkpt lat="43.39853" lon="2.45052">
        <ele>781.421</ele>
        <time>2021-05-24T12:26:55Z</time>
      </trkpt>
      <trkpt lat="43.39853" lon="2.4505">
        <ele>781.672</ele>
        <time>2021-05-24T12:26:57Z</time>
      </trkpt>
      <trkpt lat="43.39854" lon="2.45048">
        <ele>781.916</ele>
        <time>2021-05-24T12:26:59Z</time>
      </trkpt>
      <trkpt lat="43.39854" lon="2.45047">
        <ele>782.11</ele>
        <time>2021-05-24T12:27:01Z</time>
      </trkpt>
      <trkpt lat="43.39854" lon="2.45046">
        <ele>782.112</ele>
        <time>2021-05-24T12:27:03Z</time>
      </trkpt>
      <trkpt lat="43.39852" lon="2.45046">
        <ele>782.531</ele>
        <time>2021-05-24T12:27:05Z</time>
      </trkpt>
      <trkpt lat="43.39852" lon="2.45047">
        <ele>782.415</ele>
        <time>2021-05-24T12:27:07Z</time>
      </trkpt>
      <trkpt lat="43.39851" lon="2.45048">
        <ele>782.501</ele>
        <time>2021-05-24T12:27:09Z</time>
      </trkpt>
      <trkpt lat="43.39851" lon="2.45048">
        <ele>782.748</ele>
        <time>2021-05-24T12:27:11Z</time>
      </trkpt>
      <trkpt lat="43.3985" lon="2.45048">
        <ele>782.546</ele>
        <time>2021-05-24T12:27:13Z</time>
      </trkpt>
      <trkpt lat="43.3985" lon="2.45048">
        <ele>782.538</ele>
        <time>2021-05-24T12:27:15Z</time>
      </trkpt>
      <trkpt lat="43.3985" lon="2.45048">
        <ele>782.538</ele>
        <time>2021-05-24T12:27:17Z</time>
      </trkpt>
      <trkpt lat="43.3985" lon="2.45048">
        <ele>782.485</ele>
        <time>2021-05-24T12:27:19Z</time>
      </trkpt>
      <trkpt lat="43.39849" lon="2.45048">
        <ele>782.726</ele>
        <time>2021-05-24T12:27:21Z</time>
      </trkpt>
      <trkpt lat="43.39847" lon="2.45049">
        <ele>782.751</ele>
        <time>2021-05-24T12:27:23Z</time>
      </trkpt>
      <trkpt lat="43.39846" lon="2.4505">
        <ele>782.629</ele>
        <time>2021-05-24T12:27:25Z</time>
      </trkpt>
      <trkpt lat="43.39845" lon="2.4505">
        <ele>782.887</ele>
        <time>2021-05-24T12:27:27Z</time>
      </trkpt>
      <trkpt lat="43.39843" lon="2.45049">
        <ele>783.079</ele>
        <time>2021-05-24T12:27:29Z</time>
      </trkpt>
      <trkpt lat="43.39841" lon="2.45049">
        <ele>783.073</ele>
        <time>2021-05-24T12:27:31Z</time>
      </trkpt>
      <trkpt lat="43.39839" lon="2.45048">
        <ele>783.125</ele>
        <time>2021-05-24T12:27:33Z</time>
      </trkpt>
      <trkpt lat="43.39838" lon="2.45046">
        <ele>783.217</ele>
        <time>2021-05-24T12:27:35Z</time>
      </trkpt>
      <trkpt lat="43.39837" lon="2.45046">
        <ele>782.771</ele>
        <time>2021-05-24T12:27:37Z</time>
      </trkpt>
      <trkpt lat="43.39839" lon="2.45047">
        <ele>783.205</ele>
        <time>2021-05-24T12:27:39Z</time>
      </trkpt>
      <trkpt lat="43.39838" lon="2.45043">
        <ele>783.577</ele>
        <time>2021-05-24T12:27:41Z</time>
      </trkpt>
      <trkpt lat="43.39838" lon="2.45043">
        <ele>783.341</ele>
        <time>2021-05-24T12:27:43Z</time>
      </trkpt>
      <trkpt lat="43.39839" lon="2.45043">
        <ele>783.34</ele>
        <time>2021-05-24T12:27:45Z</time>
      </trkpt>
      <trkpt lat="43.39839" lon="2.45044">
        <ele>783.159</ele>
        <time>2021-05-24T12:27:47Z</time>
      </trkpt>
      <trkpt lat="43.39839" lon="2.45044">
        <ele>783.162</ele>
        <time>2021-05-24T12:27:49Z</time>
      </trkpt>
      <trkpt lat="43.39839" lon="2.45044">
        <ele>783.159</ele>
        <time>2021-05-24T12:27:51Z</time>
      </trkpt>
      <trkpt lat="43.39839" lon="2.45044">
        <ele>783.153</ele>
        <time>2021-05-24T12:27:53Z</time>
      </trkpt>
      <trkpt lat="43.39839" lon="2.45044">
        <ele>783.153</ele>
        <time>2021-05-24T12:27:55Z</time>
      </trkpt>
      <trkpt lat="43.39839" lon="2.45044">
        <ele>783.15</ele>
        <time>2021-05-24T12:27:57Z</time>
      </trkpt>
      <trkpt lat="43.39839" lon="2.45044">
        <ele>783.15</ele>
        <time>2021-05-24T12:27:59Z</time>
      </trkpt>
      <trkpt lat="43.39839" lon="2.45044">
        <ele>783.148</ele>
        <time>2021-05-24T12:28:01Z</time>
      </trkpt>
      <trkpt lat="43.39839" lon="2.45044">
        <ele>783.137</ele>
        <time>2021-05-24T12:28:03Z</time>
      </trkpt>
      <trkpt lat="43.39839" lon="2.45044">
        <ele>783.129</ele>
        <time>2021-05-24T12:28:05Z</time>
      </trkpt>
      <trkpt lat="43.39839" lon="2.45044">
        <ele>783.121</ele>
        <time>2021-05-24T12:28:07Z</time>
      </trkpt>
      <trkpt lat="43.39839" lon="2.45044">
        <ele>783.116</ele>
        <time>2021-05-24T12:28:09Z</time>
      </trkpt>
      <trkpt lat="43.39839" lon="2.45044">
        <ele>782.901</ele>
        <time>2021-05-24T12:28:11Z</time>
      </trkpt>
      <trkpt lat="43.39839" lon="2.45044">
        <ele>782.9</ele>
        <time>2021-05-24T12:28:13Z</time>
      </trkpt>
      <trkpt lat="43.39839" lon="2.45044">
        <ele>782.906</ele>
        <time>2021-05-24T12:28:15Z</time>
      </trkpt>
      <trkpt lat="43.39839" lon="2.45044">
        <ele>782.911</ele>
        <time>2021-05-24T12:28:17Z</time>
      </trkpt>
      <trkpt lat="43.39839" lon="2.45044">
        <ele>782.919</ele>
        <time>2021-05-24T12:28:19Z</time>
      </trkpt>
      <trkpt lat="43.39839" lon="2.45044">
        <ele>782.921</ele>
        <time>2021-05-24T12:28:21Z</time>
      </trkpt>
      <trkpt lat="43.39839" lon="2.45044">
        <ele>782.923</ele>
        <time>2021-05-24T12:28:23Z</time>
      </trkpt>
      <trkpt lat="43.39839" lon="2.45044">
        <ele>782.927</ele>
        <time>2021-05-24T12:28:25Z</time>
      </trkpt>
      <trkpt lat="43.39839" lon="2.45044">
        <ele>782.929</ele>
        <time>2021-05-24T12:28:27Z</time>
      </trkpt>
      <trkpt lat="43.39839" lon="2.45044">
        <ele>782.934</ele>
        <time>2021-05-24T12:28:29Z</time>
      </trkpt>
      <trkpt lat="43.39839" lon="2.45044">
        <ele>782.932</ele>
        <time>2021-05-24T12:28:31Z</time>
      </trkpt>
      <trkpt lat="43.39839" lon="2.45044">
        <ele>782.925</ele>
        <time>2021-05-24T12:28:33Z</time>
      </trkpt>
      <trkpt lat="43.39839" lon="2.45044">
        <ele>782.923</ele>
        <time>2021-05-24T12:28:35Z</time>
      </trkpt>
      <trkpt lat="43.39839" lon="2.45044">
        <ele>782.921</ele>
        <time>2021-05-24T12:28:37Z</time>
      </trkpt>
      <trkpt lat="43.39839" lon="2.45044">
        <ele>782.925</ele>
        <time>2021-05-24T12:28:39Z</time>
      </trkpt>
      <trkpt lat="43.39839" lon="2.45044">
        <ele>782.93</ele>
        <time>2021-05-24T12:28:41Z</time>
      </trkpt>
      <trkpt lat="43.39839" lon="2.45044">
        <ele>782.93</ele>
        <time>2021-05-24T12:28:43Z</time>
      </trkpt>
      <trkpt lat="43.39839" lon="2.45044">
        <ele>782.833</ele>
        <time>2021-05-24T12:28:45Z</time>
      </trkpt>
      <trkpt lat="43.39839" lon="2.45045">
        <ele>782.875</ele>
        <time>2021-05-24T12:28:47Z</time>
      </trkpt>
      <trkpt lat="43.39841" lon="2.45045">
        <ele>783.138</ele>
        <time>2021-05-24T12:28:49Z</time>
      </trkpt>
      <trkpt lat="43.39843" lon="2.45045">
        <ele>783.109</ele>
        <time>2021-05-24T12:28:51Z</time>
      </trkpt>
      <trkpt lat="43.39844" lon="2.45045">
        <ele>782.663</ele>
        <time>2021-05-24T12:28:53Z</time>
      </trkpt>
      <trkpt lat="43.39846" lon="2.45047">
        <ele>782.041</ele>
        <time>2021-05-24T12:28:55Z</time>
      </trkpt>
      <trkpt lat="43.39848" lon="2.45046">
        <ele>782.024</ele>
        <time>2021-05-24T12:28:57Z</time>
      </trkpt>
      <trkpt lat="43.3985" lon="2.45044">
        <ele>781.432</ele>
        <time>2021-05-24T12:28:59Z</time>
      </trkpt>
      <trkpt lat="43.39852" lon="2.45042">
        <ele>781.143</ele>
        <time>2021-05-24T12:29:01Z</time>
      </trkpt>
      <trkpt lat="43.39853" lon="2.4504">
        <ele>780.232</ele>
        <time>2021-05-24T12:29:03Z</time>
      </trkpt>
      <trkpt lat="43.39855" lon="2.45037">
        <ele>779.521</ele>
        <time>2021-05-24T12:29:05Z</time>
      </trkpt>
      <trkpt lat="43.39857" lon="2.45034">
        <ele>779.135</ele>
        <time>2021-05-24T12:29:07Z</time>
      </trkpt>
      <trkpt lat="43.39859" lon="2.45032">
        <ele>779.135</ele>
        <time>2021-05-24T12:29:09Z</time>
      </trkpt>
      <trkpt lat="43.39861" lon="2.45029">
        <ele>778.056</ele>
        <time>2021-05-24T12:29:11Z</time>
      </trkpt>
      <trkpt lat="43.39863" lon="2.45026">
        <ele>777.698</ele>
        <time>2021-05-24T12:29:13Z</time>
      </trkpt>
      <trkpt lat="43.39864" lon="2.45024">
        <ele>776.263</ele>
        <time>2021-05-24T12:29:15Z</time>
      </trkpt>
      <trkpt lat="43.39865" lon="2.45021">
        <ele>775.199</ele>
        <time>2021-05-24T12:29:17Z</time>
      </trkpt>
      <trkpt lat="43.39868" lon="2.45018">
        <ele>774.197</ele>
        <time>2021-05-24T12:29:19Z</time>
      </trkpt>
      <trkpt lat="43.39869" lon="2.45016">
        <ele>773.768</ele>
        <time>2021-05-24T12:29:21Z</time>
      </trkpt>
      <trkpt lat="43.39872" lon="2.45013">
        <ele>773.013</ele>
        <time>2021-05-24T12:29:23Z</time>
      </trkpt>
      <trkpt lat="43.39873" lon="2.4501">
        <ele>772.181</ele>
        <time>2021-05-24T12:29:25Z</time>
      </trkpt>
      <trkpt lat="43.39874" lon="2.45006">
        <ele>770.57</ele>
        <time>2021-05-24T12:29:27Z</time>
      </trkpt>
      <trkpt lat="43.39875" lon="2.45002">
        <ele>770.815</ele>
        <time>2021-05-24T12:29:29Z</time>
      </trkpt>
      <trkpt lat="43.39875" lon="2.44999">
        <ele>769.761</ele>
        <time>2021-05-24T12:29:31Z</time>
      </trkpt>
      <trkpt lat="43.39876" lon="2.44995">
        <ele>769.161</ele>
        <time>2021-05-24T12:29:33Z</time>
      </trkpt>
      <trkpt lat="43.39876" lon="2.44992">
        <ele>768.027</ele>
        <time>2021-05-24T12:29:35Z</time>
      </trkpt>
      <trkpt lat="43.39876" lon="2.44989">
        <ele>767.466</ele>
        <time>2021-05-24T12:29:37Z</time>
      </trkpt>
      <trkpt lat="43.39877" lon="2.44985">
        <ele>766.903</ele>
        <time>2021-05-24T12:29:39Z</time>
      </trkpt>
      <trkpt lat="43.39877" lon="2.44982">
        <ele>764.395</ele>
        <time>2021-05-24T12:29:41Z</time>
      </trkpt>
      <trkpt lat="43.39878" lon="2.44979">
        <ele>763.57</ele>
        <time>2021-05-24T12:29:43Z</time>
      </trkpt>
      <trkpt lat="43.39879" lon="2.44976">
        <ele>763.329</ele>
        <time>2021-05-24T12:29:45Z</time>
      </trkpt>
      <trkpt lat="43.39881" lon="2.44973">
        <ele>763.215</ele>
        <time>2021-05-24T12:29:47Z</time>
      </trkpt>
      <trkpt lat="43.39883" lon="2.4497">
        <ele>762.599</ele>
        <time>2021-05-24T12:29:49Z</time>
      </trkpt>
      <trkpt lat="43.39885" lon="2.44968">
        <ele>764.078</ele>
        <time>2021-05-24T12:29:51Z</time>
      </trkpt>
      <trkpt lat="43.39888" lon="2.44965">
        <ele>766.001</ele>
        <time>2021-05-24T12:29:53Z</time>
      </trkpt>
      <trkpt lat="43.39891" lon="2.44962">
        <ele>766.132</ele>
        <time>2021-05-24T12:29:55Z</time>
      </trkpt>
      <trkpt lat="43.39892" lon="2.44958">
        <ele>766.915</ele>
        <time>2021-05-24T12:29:57Z</time>
      </trkpt>
      <trkpt lat="43.39894" lon="2.44955">
        <ele>767.768</ele>
        <time>2021-05-24T12:29:59Z</time>
      </trkpt>
      <trkpt lat="43.39894" lon="2.44952">
        <ele>768.536</ele>
        <time>2021-05-24T12:30:01Z</time>
      </trkpt>
      <trkpt lat="43.39895" lon="2.44948">
        <ele>768.453</ele>
        <time>2021-05-24T12:30:03Z</time>
      </trkpt>
      <trkpt lat="43.39896" lon="2.44944">
        <ele>767.026</ele>
        <time>2021-05-24T12:30:05Z</time>
      </trkpt>
      <trkpt lat="43.39896" lon="2.44941">
        <ele>765.742</ele>
        <time>2021-05-24T12:30:07Z</time>
      </trkpt>
      <trkpt lat="43.39897" lon="2.44937">
        <ele>765.024</ele>
        <time>2021-05-24T12:30:09Z</time>
      </trkpt>
      <trkpt lat="43.39897" lon="2.44934">
        <ele>764.42</ele>
        <time>2021-05-24T12:30:11Z</time>
      </trkpt>
      <trkpt lat="43.39897" lon="2.4493">
        <ele>763.947</ele>
        <time>2021-05-24T12:30:13Z</time>
      </trkpt>
      <trkpt lat="43.39898" lon="2.44926">
        <ele>763.458</ele>
        <time>2021-05-24T12:30:15Z</time>
      </trkpt>
      <trkpt lat="43.39898" lon="2.44922">
        <ele>763.351</ele>
        <time>2021-05-24T12:30:17Z</time>
      </trkpt>
      <trkpt lat="43.39898" lon="2.44918">
        <ele>764.253</ele>
        <time>2021-05-24T12:30:19Z</time>
      </trkpt>
      <trkpt lat="43.39898" lon="2.44914">
        <ele>763.6</ele>
        <time>2021-05-24T12:30:21Z</time>
      </trkpt>
      <trkpt lat="43.39899" lon="2.4491">
        <ele>763.494</ele>
        <time>2021-05-24T12:30:23Z</time>
      </trkpt>
      <trkpt lat="43.39899" lon="2.44906">
        <ele>762.529</ele>
        <time>2021-05-24T12:30:25Z</time>
      </trkpt>
      <trkpt lat="43.39899" lon="2.44902">
        <ele>761.457</ele>
        <time>2021-05-24T12:30:27Z</time>
      </trkpt>
      <trkpt lat="43.39899" lon="2.44897">
        <ele>761.693</ele>
        <time>2021-05-24T12:30:29Z</time>
      </trkpt>
      <trkpt lat="43.39899" lon="2.44893">
        <ele>761.02</ele>
        <time>2021-05-24T12:30:31Z</time>
      </trkpt>
      <trkpt lat="43.399" lon="2.4489">
        <ele>760.003</ele>
        <time>2021-05-24T12:30:33Z</time>
      </trkpt>
      <trkpt lat="43.399" lon="2.44886">
        <ele>759.321</ele>
        <time>2021-05-24T12:30:35Z</time>
      </trkpt>
      <trkpt lat="43.399" lon="2.44882">
        <ele>758.484</ele>
        <time>2021-05-24T12:30:37Z</time>
      </trkpt>
      <trkpt lat="43.399" lon="2.44878">
        <ele>757.427</ele>
        <time>2021-05-24T12:30:39Z</time>
      </trkpt>
      <trkpt lat="43.399" lon="2.44875">
        <ele>756.551</ele>
        <time>2021-05-24T12:30:41Z</time>
      </trkpt>
      <trkpt lat="43.399" lon="2.44871">
        <ele>756.369</ele>
        <time>2021-05-24T12:30:43Z</time>
      </trkpt>
      <trkpt lat="43.399" lon="2.44867">
        <ele>756.244</ele>
        <time>2021-05-24T12:30:45Z</time>
      </trkpt>
      <trkpt lat="43.39901" lon="2.44863">
        <ele>756.61</ele>
        <time>2021-05-24T12:30:47Z</time>
      </trkpt>
      <trkpt lat="43.39901" lon="2.44858">
        <ele>755.928</ele>
        <time>2021-05-24T12:30:49Z</time>
      </trkpt>
      <trkpt lat="43.39902" lon="2.44855">
        <ele>755.223</ele>
        <time>2021-05-24T12:30:51Z</time>
      </trkpt>
      <trkpt lat="43.39902" lon="2.44851">
        <ele>755.063</ele>
        <time>2021-05-24T12:30:53Z</time>
      </trkpt>
      <trkpt lat="43.39902" lon="2.44846">
        <ele>755.355</ele>
        <time>2021-05-24T12:30:55Z</time>
      </trkpt>
      <trkpt lat="43.39904" lon="2.44843">
        <ele>757.036</ele>
        <time>2021-05-24T12:30:57Z</time>
      </trkpt>
      <trkpt lat="43.39904" lon="2.44838">
        <ele>757.603</ele>
        <time>2021-05-24T12:30:59Z</time>
      </trkpt>
      <trkpt lat="43.39903" lon="2.44834">
        <ele>757.542</ele>
        <time>2021-05-24T12:31:01Z</time>
      </trkpt>
      <trkpt lat="43.39904" lon="2.44829">
        <ele>757.765</ele>
        <time>2021-05-24T12:31:03Z</time>
      </trkpt>
      <trkpt lat="43.39904" lon="2.44825">
        <ele>757.693</ele>
        <time>2021-05-24T12:31:05Z</time>
      </trkpt>
      <trkpt lat="43.39904" lon="2.44821">
        <ele>757.482</ele>
        <time>2021-05-24T12:31:07Z</time>
      </trkpt>
      <trkpt lat="43.39904" lon="2.44818">
        <ele>756.9</ele>
        <time>2021-05-24T12:31:09Z</time>
      </trkpt>
      <trkpt lat="43.39904" lon="2.44814">
        <ele>756.263</ele>
        <time>2021-05-24T12:31:11Z</time>
      </trkpt>
      <trkpt lat="43.39903" lon="2.4481">
        <ele>756.119</ele>
        <time>2021-05-24T12:31:13Z</time>
      </trkpt>
      <trkpt lat="43.39903" lon="2.44807">
        <ele>756.445</ele>
        <time>2021-05-24T12:31:15Z</time>
      </trkpt>
      <trkpt lat="43.39903" lon="2.44803">
        <ele>756.999</ele>
        <time>2021-05-24T12:31:17Z</time>
      </trkpt>
      <trkpt lat="43.39903" lon="2.44799">
        <ele>756.806</ele>
        <time>2021-05-24T12:31:19Z</time>
      </trkpt>
      <trkpt lat="43.39904" lon="2.44795">
        <ele>756.658</ele>
        <time>2021-05-24T12:31:21Z</time>
      </trkpt>
      <trkpt lat="43.39905" lon="2.44792">
        <ele>757.095</ele>
        <time>2021-05-24T12:31:23Z</time>
      </trkpt>
      <trkpt lat="43.39906" lon="2.44789">
        <ele>757.374</ele>
        <time>2021-05-24T12:31:25Z</time>
      </trkpt>
      <trkpt lat="43.39907" lon="2.44785">
        <ele>757.852</ele>
        <time>2021-05-24T12:31:27Z</time>
      </trkpt>
      <trkpt lat="43.39909" lon="2.44783">
        <ele>757.889</ele>
        <time>2021-05-24T12:31:29Z</time>
      </trkpt>
      <trkpt lat="43.39911" lon="2.44779">
        <ele>758.539</ele>
        <time>2021-05-24T12:31:31Z</time>
      </trkpt>
      <trkpt lat="43.39913" lon="2.44776">
        <ele>759.011</ele>
        <time>2021-05-24T12:31:33Z</time>
      </trkpt>
      <trkpt lat="43.39915" lon="2.44773">
        <ele>759.883</ele>
        <time>2021-05-24T12:31:35Z</time>
      </trkpt>
      <trkpt lat="43.39918" lon="2.44771">
        <ele>761.798</ele>
        <time>2021-05-24T12:31:37Z</time>
      </trkpt>
      <trkpt lat="43.39921" lon="2.44769">
        <ele>762.13</ele>
        <time>2021-05-24T12:31:39Z</time>
      </trkpt>
      <trkpt lat="43.39923" lon="2.44767">
        <ele>761.767</ele>
        <time>2021-05-24T12:31:41Z</time>
      </trkpt>
      <trkpt lat="43.39926" lon="2.44766">
        <ele>762.154</ele>
        <time>2021-05-24T12:31:43Z</time>
      </trkpt>
      <trkpt lat="43.39928" lon="2.44764">
        <ele>762.421</ele>
        <time>2021-05-24T12:31:45Z</time>
      </trkpt>
      <trkpt lat="43.39931" lon="2.44763">
        <ele>763.414</ele>
        <time>2021-05-24T12:31:47Z</time>
      </trkpt>
      <trkpt lat="43.39934" lon="2.4476">
        <ele>764.207</ele>
        <time>2021-05-24T12:31:49Z</time>
      </trkpt>
      <trkpt lat="43.39936" lon="2.44757">
        <ele>765.528</ele>
        <time>2021-05-24T12:31:51Z</time>
      </trkpt>
      <trkpt lat="43.39939" lon="2.44755">
        <ele>768.1</ele>
        <time>2021-05-24T12:31:53Z</time>
      </trkpt>
      <trkpt lat="43.39942" lon="2.44752">
        <ele>768.547</ele>
        <time>2021-05-24T12:31:55Z</time>
      </trkpt>
      <trkpt lat="43.39944" lon="2.44749">
        <ele>769.624</ele>
        <time>2021-05-24T12:31:57Z</time>
      </trkpt>
      <trkpt lat="43.39946" lon="2.44747">
        <ele>769.089</ele>
        <time>2021-05-24T12:31:59Z</time>
      </trkpt>
      <trkpt lat="43.39949" lon="2.44744">
        <ele>769.7</ele>
        <time>2021-05-24T12:32:01Z</time>
      </trkpt>
      <trkpt lat="43.39951" lon="2.44742">
        <ele>769.866</ele>
        <time>2021-05-24T12:32:03Z</time>
      </trkpt>
      <trkpt lat="43.39954" lon="2.4474">
        <ele>769.985</ele>
        <time>2021-05-24T12:32:05Z</time>
      </trkpt>
      <trkpt lat="43.39956" lon="2.44738">
        <ele>770.061</ele>
        <time>2021-05-24T12:32:07Z</time>
      </trkpt>
      <trkpt lat="43.39958" lon="2.44736">
        <ele>770.532</ele>
        <time>2021-05-24T12:32:09Z</time>
      </trkpt>
      <trkpt lat="43.39962" lon="2.44733">
        <ele>770.796</ele>
        <time>2021-05-24T12:32:12Z</time>
      </trkpt>
      <trkpt lat="43.39965" lon="2.4473">
        <ele>771.667</ele>
        <time>2021-05-24T12:32:14Z</time>
      </trkpt>
      <trkpt lat="43.39966" lon="2.44727">
        <ele>772.697</ele>
        <time>2021-05-24T12:32:16Z</time>
      </trkpt>
      <trkpt lat="43.39968" lon="2.44724">
        <ele>772.652</ele>
        <time>2021-05-24T12:32:18Z</time>
      </trkpt>
      <trkpt lat="43.3997" lon="2.44721">
        <ele>772.679</ele>
        <time>2021-05-24T12:32:20Z</time>
      </trkpt>
      <trkpt lat="43.39972" lon="2.44718">
        <ele>773.802</ele>
        <time>2021-05-24T12:32:22Z</time>
      </trkpt>
      <trkpt lat="43.39973" lon="2.44714">
        <ele>774.673</ele>
        <time>2021-05-24T12:32:24Z</time>
      </trkpt>
      <trkpt lat="43.39975" lon="2.44711">
        <ele>774.757</ele>
        <time>2021-05-24T12:32:26Z</time>
      </trkpt>
      <trkpt lat="43.39976" lon="2.44707">
        <ele>775.71</ele>
        <time>2021-05-24T12:32:28Z</time>
      </trkpt>
      <trkpt lat="43.39978" lon="2.44703">
        <ele>775.51</ele>
        <time>2021-05-24T12:32:30Z</time>
      </trkpt>
      <trkpt lat="43.39979" lon="2.44699">
        <ele>776.386</ele>
        <time>2021-05-24T12:32:32Z</time>
      </trkpt>
      <trkpt lat="43.39981" lon="2.44695">
        <ele>776.066</ele>
        <time>2021-05-24T12:32:34Z</time>
      </trkpt>
      <trkpt lat="43.39982" lon="2.44692">
        <ele>775.512</ele>
        <time>2021-05-24T12:32:36Z</time>
      </trkpt>
      <trkpt lat="43.39983" lon="2.44688">
        <ele>775.826</ele>
        <time>2021-05-24T12:32:38Z</time>
      </trkpt>
      <trkpt lat="43.39984" lon="2.44684">
        <ele>775.493</ele>
        <time>2021-05-24T12:32:40Z</time>
      </trkpt>
      <trkpt lat="43.39985" lon="2.44681">
        <ele>775.296</ele>
        <time>2021-05-24T12:32:42Z</time>
      </trkpt>
      <trkpt lat="43.39986" lon="2.44678">
        <ele>774.738</ele>
        <time>2021-05-24T12:32:44Z</time>
      </trkpt>
      <trkpt lat="43.39988" lon="2.44674">
        <ele>774.969</ele>
        <time>2021-05-24T12:32:46Z</time>
      </trkpt>
      <trkpt lat="43.39989" lon="2.44671">
        <ele>774.449</ele>
        <time>2021-05-24T12:32:48Z</time>
      </trkpt>
      <trkpt lat="43.3999" lon="2.44667">
        <ele>774.716</ele>
        <time>2021-05-24T12:32:50Z</time>
      </trkpt>
      <trkpt lat="43.39991" lon="2.44664">
        <ele>774.641</ele>
        <time>2021-05-24T12:32:52Z</time>
      </trkpt>
      <trkpt lat="43.39992" lon="2.4466">
        <ele>773.821</ele>
        <time>2021-05-24T12:32:54Z</time>
      </trkpt>
      <trkpt lat="43.39993" lon="2.44657">
        <ele>773.926</ele>
        <time>2021-05-24T12:32:56Z</time>
      </trkpt>
      <trkpt lat="43.39995" lon="2.44654">
        <ele>772.792</ele>
        <time>2021-05-24T12:32:58Z</time>
      </trkpt>
      <trkpt lat="43.39997" lon="2.44651">
        <ele>772.306</ele>
        <time>2021-05-24T12:33:00Z</time>
      </trkpt>
      <trkpt lat="43.39998" lon="2.44648">
        <ele>772.255</ele>
        <time>2021-05-24T12:33:02Z</time>
      </trkpt>
      <trkpt lat="43.39999" lon="2.44645">
        <ele>771.565</ele>
        <time>2021-05-24T12:33:04Z</time>
      </trkpt>
      <trkpt lat="43.40001" lon="2.44641">
        <ele>771.899</ele>
        <time>2021-05-24T12:33:06Z</time>
      </trkpt>
      <trkpt lat="43.40003" lon="2.44638">
        <ele>772.312</ele>
        <time>2021-05-24T12:33:08Z</time>
      </trkpt>
      <trkpt lat="43.40005" lon="2.44634">
        <ele>772.855</ele>
        <time>2021-05-24T12:33:10Z</time>
      </trkpt>
      <trkpt lat="43.40008" lon="2.44631">
        <ele>773.525</ele>
        <time>2021-05-24T12:33:12Z</time>
      </trkpt>
      <trkpt lat="43.4001" lon="2.44627">
        <ele>773.811</ele>
        <time>2021-05-24T12:33:14Z</time>
      </trkpt>
      <trkpt lat="43.40012" lon="2.44624">
        <ele>773.418</ele>
        <time>2021-05-24T12:33:16Z</time>
      </trkpt>
      <trkpt lat="43.40014" lon="2.44622">
        <ele>773.569</ele>
        <time>2021-05-24T12:33:18Z</time>
      </trkpt>
      <trkpt lat="43.40016" lon="2.44618">
        <ele>773.075</ele>
        <time>2021-05-24T12:33:20Z</time>
      </trkpt>
      <trkpt lat="43.40018" lon="2.44614">
        <ele>772.731</ele>
        <time>2021-05-24T12:33:22Z</time>
      </trkpt>
      <trkpt lat="43.40019" lon="2.4461">
        <ele>772.409</ele>
        <time>2021-05-24T12:33:24Z</time>
      </trkpt>
      <trkpt lat="43.40021" lon="2.44606">
        <ele>772.514</ele>
        <time>2021-05-24T12:33:26Z</time>
      </trkpt>
      <trkpt lat="43.40023" lon="2.44602">
        <ele>772.657</ele>
        <time>2021-05-24T12:33:28Z</time>
      </trkpt>
      <trkpt lat="43.40025" lon="2.44598">
        <ele>772.797</ele>
        <time>2021-05-24T12:33:30Z</time>
      </trkpt>
      <trkpt lat="43.40026" lon="2.44595">
        <ele>772.564</ele>
        <time>2021-05-24T12:33:32Z</time>
      </trkpt>
      <trkpt lat="43.40028" lon="2.44591">
        <ele>773.222</ele>
        <time>2021-05-24T12:33:34Z</time>
      </trkpt>
      <trkpt lat="43.40029" lon="2.44587">
        <ele>773.035</ele>
        <time>2021-05-24T12:33:36Z</time>
      </trkpt>
      <trkpt lat="43.40031" lon="2.44583">
        <ele>773.151</ele>
        <time>2021-05-24T12:33:38Z</time>
      </trkpt>
      <trkpt lat="43.40032" lon="2.44579">
        <ele>773.546</ele>
        <time>2021-05-24T12:33:40Z</time>
      </trkpt>
      <trkpt lat="43.40034" lon="2.44575">
        <ele>774.502</ele>
        <time>2021-05-24T12:33:42Z</time>
      </trkpt>
      <trkpt lat="43.40035" lon="2.44571">
        <ele>774.886</ele>
        <time>2021-05-24T12:33:44Z</time>
      </trkpt>
      <trkpt lat="43.40036" lon="2.44567">
        <ele>775.31</ele>
        <time>2021-05-24T12:33:46Z</time>
      </trkpt>
      <trkpt lat="43.40037" lon="2.44563">
        <ele>775.654</ele>
        <time>2021-05-24T12:33:48Z</time>
      </trkpt>
      <trkpt lat="43.40037" lon="2.44559">
        <ele>776.45</ele>
        <time>2021-05-24T12:33:50Z</time>
      </trkpt>
      <trkpt lat="43.40038" lon="2.44554">
        <ele>776.744</ele>
        <time>2021-05-24T12:33:52Z</time>
      </trkpt>
      <trkpt lat="43.40038" lon="2.4455">
        <ele>776.97</ele>
        <time>2021-05-24T12:33:54Z</time>
      </trkpt>
      <trkpt lat="43.40038" lon="2.44546">
        <ele>777.416</ele>
        <time>2021-05-24T12:33:56Z</time>
      </trkpt>
      <trkpt lat="43.40039" lon="2.44542">
        <ele>777.437</ele>
        <time>2021-05-24T12:33:58Z</time>
      </trkpt>
      <trkpt lat="43.40039" lon="2.44538">
        <ele>778.022</ele>
        <time>2021-05-24T12:34:00Z</time>
      </trkpt>
      <trkpt lat="43.4004" lon="2.44534">
        <ele>777.827</ele>
        <time>2021-05-24T12:34:02Z</time>
      </trkpt>
      <trkpt lat="43.4004" lon="2.4453">
        <ele>777.202</ele>
        <time>2021-05-24T12:34:04Z</time>
      </trkpt>
      <trkpt lat="43.40041" lon="2.44526">
        <ele>777.236</ele>
        <time>2021-05-24T12:34:06Z</time>
      </trkpt>
      <trkpt lat="43.40042" lon="2.44521">
        <ele>777.311</ele>
        <time>2021-05-24T12:34:08Z</time>
      </trkpt>
      <trkpt lat="43.40042" lon="2.44517">
        <ele>777.195</ele>
        <time>2021-05-24T12:34:10Z</time>
      </trkpt>
      <trkpt lat="43.40043" lon="2.44513">
        <ele>777.127</ele>
        <time>2021-05-24T12:34:12Z</time>
      </trkpt>
      <trkpt lat="43.40044" lon="2.44509">
        <ele>777.27</ele>
        <time>2021-05-24T12:34:14Z</time>
      </trkpt>
      <trkpt lat="43.40046" lon="2.44505">
        <ele>777.739</ele>
        <time>2021-05-24T12:34:16Z</time>
      </trkpt>
      <trkpt lat="43.40046" lon="2.44501">
        <ele>777.801</ele>
        <time>2021-05-24T12:34:18Z</time>
      </trkpt>
      <trkpt lat="43.40047" lon="2.44497">
        <ele>777.392</ele>
        <time>2021-05-24T12:34:20Z</time>
      </trkpt>
      <trkpt lat="43.40048" lon="2.44493">
        <ele>778.206</ele>
        <time>2021-05-24T12:34:22Z</time>
      </trkpt>
      <trkpt lat="43.40049" lon="2.4449">
        <ele>778.103</ele>
        <time>2021-05-24T12:34:24Z</time>
      </trkpt>
      <trkpt lat="43.40051" lon="2.44486">
        <ele>777.019</ele>
        <time>2021-05-24T12:34:26Z</time>
      </trkpt>
      <trkpt lat="43.40052" lon="2.44482">
        <ele>777.032</ele>
        <time>2021-05-24T12:34:28Z</time>
      </trkpt>
      <trkpt lat="43.40054" lon="2.44479">
        <ele>776.62</ele>
        <time>2021-05-24T12:34:30Z</time>
      </trkpt>
      <trkpt lat="43.40056" lon="2.44474">
        <ele>776.573</ele>
        <time>2021-05-24T12:34:32Z</time>
      </trkpt>
      <trkpt lat="43.40057" lon="2.4447">
        <ele>778.388</ele>
        <time>2021-05-24T12:34:34Z</time>
      </trkpt>
      <trkpt lat="43.40057" lon="2.44465">
        <ele>779.736</ele>
        <time>2021-05-24T12:34:36Z</time>
      </trkpt>
      <trkpt lat="43.40059" lon="2.44461">
        <ele>777.692</ele>
        <time>2021-05-24T12:34:38Z</time>
      </trkpt>
      <trkpt lat="43.4006" lon="2.44457">
        <ele>778.018</ele>
        <time>2021-05-24T12:34:40Z</time>
      </trkpt>
      <trkpt lat="43.40061" lon="2.44453">
        <ele>778.858</ele>
        <time>2021-05-24T12:34:42Z</time>
      </trkpt>
      <trkpt lat="43.40062" lon="2.44449">
        <ele>777.623</ele>
        <time>2021-05-24T12:34:44Z</time>
      </trkpt>
      <trkpt lat="43.40063" lon="2.44445">
        <ele>777.603</ele>
        <time>2021-05-24T12:34:46Z</time>
      </trkpt>
      <trkpt lat="43.40064" lon="2.44441">
        <ele>778.487</ele>
        <time>2021-05-24T12:34:48Z</time>
      </trkpt>
      <trkpt lat="43.40066" lon="2.44437">
        <ele>778.362</ele>
        <time>2021-05-24T12:34:50Z</time>
      </trkpt>
      <trkpt lat="43.40067" lon="2.44434">
        <ele>778.979</ele>
        <time>2021-05-24T12:34:52Z</time>
      </trkpt>
      <trkpt lat="43.40068" lon="2.4443">
        <ele>779.245</ele>
        <time>2021-05-24T12:34:54Z</time>
      </trkpt>
      <trkpt lat="43.40069" lon="2.44426">
        <ele>779.09</ele>
        <time>2021-05-24T12:34:56Z</time>
      </trkpt>
      <trkpt lat="43.40071" lon="2.44422">
        <ele>778.84</ele>
        <time>2021-05-24T12:34:58Z</time>
      </trkpt>
      <trkpt lat="43.40071" lon="2.44417">
        <ele>777.298</ele>
        <time>2021-05-24T12:35:00Z</time>
      </trkpt>
      <trkpt lat="43.40072" lon="2.44413">
        <ele>775.993</ele>
        <time>2021-05-24T12:35:02Z</time>
      </trkpt>
      <trkpt lat="43.40073" lon="2.44409">
        <ele>777.099</ele>
        <time>2021-05-24T12:35:04Z</time>
      </trkpt>
      <trkpt lat="43.40073" lon="2.44405">
        <ele>776.259</ele>
        <time>2021-05-24T12:35:06Z</time>
      </trkpt>
      <trkpt lat="43.40074" lon="2.44401">
        <ele>774.89</ele>
        <time>2021-05-24T12:35:08Z</time>
      </trkpt>
      <trkpt lat="43.40074" lon="2.44397">
        <ele>774.95</ele>
        <time>2021-05-24T12:35:10Z</time>
      </trkpt>
      <trkpt lat="43.40076" lon="2.44392">
        <ele>775.981</ele>
        <time>2021-05-24T12:35:12Z</time>
      </trkpt>
      <trkpt lat="43.40077" lon="2.44388">
        <ele>776.191</ele>
        <time>2021-05-24T12:35:14Z</time>
      </trkpt>
      <trkpt lat="43.40077" lon="2.44384">
        <ele>775.137</ele>
        <time>2021-05-24T12:35:16Z</time>
      </trkpt>
      <trkpt lat="43.40078" lon="2.4438">
        <ele>774.357</ele>
        <time>2021-05-24T12:35:18Z</time>
      </trkpt>
      <trkpt lat="43.40079" lon="2.44377">
        <ele>771.886</ele>
        <time>2021-05-24T12:35:20Z</time>
      </trkpt>
      <trkpt lat="43.40079" lon="2.44374">
        <ele>770.853</ele>
        <time>2021-05-24T12:35:22Z</time>
      </trkpt>
      <trkpt lat="43.40079" lon="2.44371">
        <ele>771.273</ele>
        <time>2021-05-24T12:35:24Z</time>
      </trkpt>
      <trkpt lat="43.40079" lon="2.44368">
        <ele>772.389</ele>
        <time>2021-05-24T12:35:26Z</time>
      </trkpt>
      <trkpt lat="43.40079" lon="2.44364">
        <ele>772.298</ele>
        <time>2021-05-24T12:35:28Z</time>
      </trkpt>
      <trkpt lat="43.4008" lon="2.44361">
        <ele>772.307</ele>
        <time>2021-05-24T12:35:30Z</time>
      </trkpt>
      <trkpt lat="43.4008" lon="2.44358">
        <ele>772.349</ele>
        <time>2021-05-24T12:35:32Z</time>
      </trkpt>
      <trkpt lat="43.4008" lon="2.44356">
        <ele>771.319</ele>
        <time>2021-05-24T12:35:34Z</time>
      </trkpt>
      <trkpt lat="43.40081" lon="2.44353">
        <ele>770.743</ele>
        <time>2021-05-24T12:35:36Z</time>
      </trkpt>
      <trkpt lat="43.40083" lon="2.44352">
        <ele>770.513</ele>
        <time>2021-05-24T12:35:38Z</time>
      </trkpt>
      <trkpt lat="43.40085" lon="2.44349">
        <ele>770.344</ele>
        <time>2021-05-24T12:35:40Z</time>
      </trkpt>
      <trkpt lat="43.40087" lon="2.44347">
        <ele>770.141</ele>
        <time>2021-05-24T12:35:42Z</time>
      </trkpt>
      <trkpt lat="43.40089" lon="2.44345">
        <ele>770.804</ele>
        <time>2021-05-24T12:35:44Z</time>
      </trkpt>
      <trkpt lat="43.40092" lon="2.44344">
        <ele>770.194</ele>
        <time>2021-05-24T12:35:46Z</time>
      </trkpt>
      <trkpt lat="43.40093" lon="2.44342">
        <ele>770.851</ele>
        <time>2021-05-24T12:35:48Z</time>
      </trkpt>
      <trkpt lat="43.40095" lon="2.4434">
        <ele>771.154</ele>
        <time>2021-05-24T12:35:50Z</time>
      </trkpt>
      <trkpt lat="43.40095" lon="2.44339">
        <ele>770.889</ele>
        <time>2021-05-24T12:35:52Z</time>
      </trkpt>
      <trkpt lat="43.40095" lon="2.44339">
        <ele>770.861</ele>
        <time>2021-05-24T12:35:54Z</time>
      </trkpt>
      <trkpt lat="43.40095" lon="2.44339">
        <ele>770.835</ele>
        <time>2021-05-24T12:35:56Z</time>
      </trkpt>
      <trkpt lat="43.40096" lon="2.44339">
        <ele>770.829</ele>
        <time>2021-05-24T12:35:58Z</time>
      </trkpt>
      <trkpt lat="43.40097" lon="2.44337">
        <ele>771.312</ele>
        <time>2021-05-24T12:36:00Z</time>
      </trkpt>
      <trkpt lat="43.40099" lon="2.44336">
        <ele>771.536</ele>
        <time>2021-05-24T12:36:02Z</time>
      </trkpt>
      <trkpt lat="43.40101" lon="2.44336">
        <ele>771.849</ele>
        <time>2021-05-24T12:36:04Z</time>
      </trkpt>
      <trkpt lat="43.40103" lon="2.44334">
        <ele>771.475</ele>
        <time>2021-05-24T12:36:06Z</time>
      </trkpt>
      <trkpt lat="43.40103" lon="2.44331">
        <ele>771.688</ele>
        <time>2021-05-24T12:36:08Z</time>
      </trkpt>
      <trkpt lat="43.40102" lon="2.4433">
        <ele>770.999</ele>
        <time>2021-05-24T12:36:10Z</time>
      </trkpt>
      <trkpt lat="43.40103" lon="2.4433">
        <ele>770.984</ele>
        <time>2021-05-24T12:36:12Z</time>
      </trkpt>
      <trkpt lat="43.40103" lon="2.4433">
        <ele>770.987</ele>
        <time>2021-05-24T12:36:14Z</time>
      </trkpt>
      <trkpt lat="43.40102" lon="2.4433">
        <ele>772.003</ele>
        <time>2021-05-24T12:36:16Z</time>
      </trkpt>
      <trkpt lat="43.40102" lon="2.44329">
        <ele>772.006</ele>
        <time>2021-05-24T12:36:18Z</time>
      </trkpt>
      <trkpt lat="43.40102" lon="2.44329">
        <ele>772.006</ele>
        <time>2021-05-24T12:36:20Z</time>
      </trkpt>
      <trkpt lat="43.40102" lon="2.44329">
        <ele>772.003</ele>
        <time>2021-05-24T12:36:22Z</time>
      </trkpt>
      <trkpt lat="43.40102" lon="2.44329">
        <ele>771.994</ele>
        <time>2021-05-24T12:36:24Z</time>
      </trkpt>
      <trkpt lat="43.40102" lon="2.44329">
        <ele>771.977</ele>
        <time>2021-05-24T12:36:26Z</time>
      </trkpt>
      <trkpt lat="43.40102" lon="2.44329">
        <ele>771.977</ele>
        <time>2021-05-24T12:36:28Z</time>
      </trkpt>
      <trkpt lat="43.40102" lon="2.44329">
        <ele>771.975</ele>
        <time>2021-05-24T12:36:30Z</time>
      </trkpt>
      <trkpt lat="43.40102" lon="2.44329">
        <ele>771.97</ele>
        <time>2021-05-24T12:36:32Z</time>
      </trkpt>
      <trkpt lat="43.40102" lon="2.44329">
        <ele>771.971</ele>
        <time>2021-05-24T12:36:34Z</time>
      </trkpt>
      <trkpt lat="43.40102" lon="2.44329">
        <ele>771.972</ele>
        <time>2021-05-24T12:36:36Z</time>
      </trkpt>
      <trkpt lat="43.40102" lon="2.44329">
        <ele>771.968</ele>
        <time>2021-05-24T12:36:38Z</time>
      </trkpt>
      <trkpt lat="43.40102" lon="2.44329">
        <ele>771.957</ele>
        <time>2021-05-24T12:36:40Z</time>
      </trkpt>
      <trkpt lat="43.40102" lon="2.44329">
        <ele>771.95</ele>
        <time>2021-05-24T12:36:42Z</time>
      </trkpt>
      <trkpt lat="43.40102" lon="2.44329">
        <ele>771.952</ele>
        <time>2021-05-24T12:36:44Z</time>
      </trkpt>
      <trkpt lat="43.40103" lon="2.44329">
        <ele>771.853</ele>
        <time>2021-05-24T12:36:46Z</time>
      </trkpt>
      <trkpt lat="43.40103" lon="2.44328">
        <ele>771.285</ele>
        <time>2021-05-24T12:36:48Z</time>
      </trkpt>
      <trkpt lat="43.40103" lon="2.44328">
        <ele>771.322</ele>
        <time>2021-05-24T12:36:50Z</time>
      </trkpt>
      <trkpt lat="43.40103" lon="2.44328">
        <ele>771.328</ele>
        <time>2021-05-24T12:36:52Z</time>
      </trkpt>
      <trkpt lat="43.40102" lon="2.44327">
        <ele>771.467</ele>
        <time>2021-05-24T12:36:54Z</time>
      </trkpt>
      <trkpt lat="43.40101" lon="2.44324">
        <ele>771.227</ele>
        <time>2021-05-24T12:36:56Z</time>
      </trkpt>
      <trkpt lat="43.40099" lon="2.44321">
        <ele>770.716</ele>
        <time>2021-05-24T12:36:58Z</time>
      </trkpt>
      <trkpt lat="43.40098" lon="2.44316">
        <ele>770.538</ele>
        <time>2021-05-24T12:37:00Z</time>
      </trkpt>
      <trkpt lat="43.40098" lon="2.44313">
        <ele>770.056</ele>
        <time>2021-05-24T12:37:02Z</time>
      </trkpt>
      <trkpt lat="43.40098" lon="2.44309">
        <ele>769.617</ele>
        <time>2021-05-24T12:37:04Z</time>
      </trkpt>
      <trkpt lat="43.40098" lon="2.44306">
        <ele>770.627</ele>
        <time>2021-05-24T12:37:06Z</time>
      </trkpt>
      <trkpt lat="43.40097" lon="2.44303">
        <ele>771.883</ele>
        <time>2021-05-24T12:37:08Z</time>
      </trkpt>
      <trkpt lat="43.40096" lon="2.443">
        <ele>772.593</ele>
        <time>2021-05-24T12:37:10Z</time>
      </trkpt>
      <trkpt lat="43.40095" lon="2.44297">
        <ele>772.562</ele>
        <time>2021-05-24T12:37:12Z</time>
      </trkpt>
      <trkpt lat="43.40095" lon="2.44295">
        <ele>772.822</ele>
        <time>2021-05-24T12:37:14Z</time>
      </trkpt>
      <trkpt lat="43.40093" lon="2.44293">
        <ele>773.287</ele>
        <time>2021-05-24T12:37:16Z</time>
      </trkpt>
      <trkpt lat="43.40093" lon="2.44293">
        <ele>773.428</ele>
        <time>2021-05-24T12:37:18Z</time>
      </trkpt>
      <trkpt lat="43.40094" lon="2.44293">
        <ele>773.127</ele>
        <time>2021-05-24T12:37:20Z</time>
      </trkpt>
      <trkpt lat="43.40094" lon="2.44293">
        <ele>773.075</ele>
        <time>2021-05-24T12:37:22Z</time>
      </trkpt>
      <trkpt lat="43.40094" lon="2.44294">
        <ele>772.744</ele>
        <time>2021-05-24T12:37:24Z</time>
      </trkpt>
      <trkpt lat="43.40094" lon="2.44294">
        <ele>773.159</ele>
        <time>2021-05-24T12:37:26Z</time>
      </trkpt>
      <trkpt lat="43.40095" lon="2.44295">
        <ele>773.3</ele>
        <time>2021-05-24T12:37:28Z</time>
      </trkpt>
      <trkpt lat="43.40096" lon="2.44296">
        <ele>772.86</ele>
        <time>2021-05-24T12:37:30Z</time>
      </trkpt>
      <trkpt lat="43.40097" lon="2.44298">
        <ele>772.504</ele>
        <time>2021-05-24T12:37:32Z</time>
      </trkpt>
      <trkpt lat="43.40098" lon="2.44301">
        <ele>771.126</ele>
        <time>2021-05-24T12:37:34Z</time>
      </trkpt>
      <trkpt lat="43.40098" lon="2.44304">
        <ele>770.614</ele>
        <time>2021-05-24T12:37:36Z</time>
      </trkpt>
      <trkpt lat="43.40099" lon="2.44306">
        <ele>770.369</ele>
        <time>2021-05-24T12:37:38Z</time>
      </trkpt>
      <trkpt lat="43.401" lon="2.44309">
        <ele>769.61</ele>
        <time>2021-05-24T12:37:40Z</time>
      </trkpt>
      <trkpt lat="43.40101" lon="2.44312">
        <ele>769.738</ele>
        <time>2021-05-24T12:37:42Z</time>
      </trkpt>
      <trkpt lat="43.40102" lon="2.44315">
        <ele>769.816</ele>
        <time>2021-05-24T12:37:44Z</time>
      </trkpt>
      <trkpt lat="43.40103" lon="2.44317">
        <ele>770.199</ele>
        <time>2021-05-24T12:37:46Z</time>
      </trkpt>
      <trkpt lat="43.40104" lon="2.4432">
        <ele>770.291</ele>
        <time>2021-05-24T12:37:48Z</time>
      </trkpt>
      <trkpt lat="43.40105" lon="2.44323">
        <ele>771.494</ele>
        <time>2021-05-24T12:37:50Z</time>
      </trkpt>
      <trkpt lat="43.40105" lon="2.44323">
        <ele>771.637</ele>
        <time>2021-05-24T12:37:52Z</time>
      </trkpt>
      <trkpt lat="43.40105" lon="2.44323">
        <ele>771.645</ele>
        <time>2021-05-24T12:37:54Z</time>
      </trkpt>
      <trkpt lat="43.40105" lon="2.44323">
        <ele>771.649</ele>
        <time>2021-05-24T12:37:56Z</time>
      </trkpt>
      <trkpt lat="43.40104" lon="2.44325">
        <ele>771.909</ele>
        <time>2021-05-24T12:37:58Z</time>
      </trkpt>
      <trkpt lat="43.40102" lon="2.44328">
        <ele>771.071</ele>
        <time>2021-05-24T12:38:00Z</time>
      </trkpt>
      <trkpt lat="43.401" lon="2.44331">
        <ele>771.284</ele>
        <time>2021-05-24T12:38:02Z</time>
      </trkpt>
      <trkpt lat="43.40099" lon="2.44333">
        <ele>771.869</ele>
        <time>2021-05-24T12:38:04Z</time>
      </trkpt>
      <trkpt lat="43.40097" lon="2.44335">
        <ele>771.895</ele>
        <time>2021-05-24T12:38:06Z</time>
      </trkpt>
      <trkpt lat="43.40096" lon="2.44338">
        <ele>770.946</ele>
        <time>2021-05-24T12:38:08Z</time>
      </trkpt>
      <trkpt lat="43.40094" lon="2.44339">
        <ele>770.45</ele>
        <time>2021-05-24T12:38:10Z</time>
      </trkpt>
      <trkpt lat="43.40092" lon="2.4434">
        <ele>770.644</ele>
        <time>2021-05-24T12:38:12Z</time>
      </trkpt>
      <trkpt lat="43.4009" lon="2.44341">
        <ele>770.947</ele>
        <time>2021-05-24T12:38:14Z</time>
      </trkpt>
      <trkpt lat="43.40088" lon="2.44344">
        <ele>770.502</ele>
        <time>2021-05-24T12:38:16Z</time>
      </trkpt>
      <trkpt lat="43.40086" lon="2.44346">
        <ele>769.569</ele>
        <time>2021-05-24T12:38:18Z</time>
      </trkpt>
      <trkpt lat="43.40083" lon="2.44348">
        <ele>769.776</ele>
        <time>2021-05-24T12:38:20Z</time>
      </trkpt>
      <trkpt lat="43.40081" lon="2.44349">
        <ele>770.926</ele>
        <time>2021-05-24T12:38:22Z</time>
      </trkpt>
      <trkpt lat="43.40079" lon="2.4435">
        <ele>770.478</ele>
        <time>2021-05-24T12:38:24Z</time>
      </trkpt>
      <trkpt lat="43.40077" lon="2.44351">
        <ele>771.559</ele>
        <time>2021-05-24T12:38:26Z</time>
      </trkpt>
      <trkpt lat="43.40075" lon="2.44352">
        <ele>771.837</ele>
        <time>2021-05-24T12:38:28Z</time>
      </trkpt>
      <trkpt lat="43.40073" lon="2.44354">
        <ele>771.79</ele>
        <time>2021-05-24T12:38:30Z</time>
      </trkpt>
      <trkpt lat="43.40071" lon="2.44354">
        <ele>772.09</ele>
        <time>2021-05-24T12:38:32Z</time>
      </trkpt>
      <trkpt lat="43.40069" lon="2.44354">
        <ele>772.881</ele>
        <time>2021-05-24T12:38:34Z</time>
      </trkpt>
      <trkpt lat="43.40071" lon="2.4435">
        <ele>774.683</ele>
        <time>2021-05-24T12:38:36Z</time>
      </trkpt>
      <trkpt lat="43.40073" lon="2.44349">
        <ele>773.267</ele>
        <time>2021-05-24T12:38:38Z</time>
      </trkpt>
      <trkpt lat="43.40075" lon="2.44349">
        <ele>773.612</ele>
        <time>2021-05-24T12:38:40Z</time>
      </trkpt>
      <trkpt lat="43.40077" lon="2.44349">
        <ele>773.443</ele>
        <time>2021-05-24T12:38:42Z</time>
      </trkpt>
      <trkpt lat="43.40079" lon="2.44349">
        <ele>773.456</ele>
        <time>2021-05-24T12:38:44Z</time>
      </trkpt>
      <trkpt lat="43.40081" lon="2.44348">
        <ele>772.561</ele>
        <time>2021-05-24T12:38:46Z</time>
      </trkpt>
      <trkpt lat="43.40083" lon="2.44347">
        <ele>772.51</ele>
        <time>2021-05-24T12:38:48Z</time>
      </trkpt>
      <trkpt lat="43.40084" lon="2.44345">
        <ele>771.384</ele>
        <time>2021-05-24T12:38:50Z</time>
      </trkpt>
      <trkpt lat="43.40086" lon="2.44344">
        <ele>770.081</ele>
        <time>2021-05-24T12:38:52Z</time>
      </trkpt>
      <trkpt lat="43.40087" lon="2.44344">
        <ele>770.076</ele>
        <time>2021-05-24T12:38:54Z</time>
      </trkpt>
      <trkpt lat="43.40087" lon="2.44344">
        <ele>770.063</ele>
        <time>2021-05-24T12:38:56Z</time>
      </trkpt>
      <trkpt lat="43.40087" lon="2.44344">
        <ele>769.165</ele>
        <time>2021-05-24T12:38:58Z</time>
      </trkpt>
      <trkpt lat="43.40087" lon="2.44344">
        <ele>769.519</ele>
        <time>2021-05-24T12:39:00Z</time>
      </trkpt>
      <trkpt lat="43.40089" lon="2.44343">
        <ele>769.593</ele>
        <time>2021-05-24T12:39:02Z</time>
      </trkpt>
      <trkpt lat="43.4009" lon="2.44342">
        <ele>770.272</ele>
        <time>2021-05-24T12:39:04Z</time>
      </trkpt>
      <trkpt lat="43.40093" lon="2.4434">
        <ele>770.922</ele>
        <time>2021-05-24T12:39:06Z</time>
      </trkpt>
      <trkpt lat="43.40095" lon="2.44338">
        <ele>771.893</ele>
        <time>2021-05-24T12:39:08Z</time>
      </trkpt>
      <trkpt lat="43.40095" lon="2.44335">
        <ele>772.165</ele>
        <time>2021-05-24T12:39:10Z</time>
      </trkpt>
      <trkpt lat="43.40093" lon="2.44334">
        <ele>772.223</ele>
        <time>2021-05-24T12:39:12Z</time>
      </trkpt>
      <trkpt lat="43.40092" lon="2.44331">
        <ele>771.726</ele>
        <time>2021-05-24T12:39:14Z</time>
      </trkpt>
      <trkpt lat="43.40091" lon="2.44328">
        <ele>770.978</ele>
        <time>2021-05-24T12:39:16Z</time>
      </trkpt>
      <trkpt lat="43.40089" lon="2.44326">
        <ele>769.97</ele>
        <time>2021-05-24T12:39:18Z</time>
      </trkpt>
      <trkpt lat="43.40089" lon="2.44323">
        <ele>768.563</ele>
        <time>2021-05-24T12:39:20Z</time>
      </trkpt>
      <trkpt lat="43.40088" lon="2.4432">
        <ele>768.319</ele>
        <time>2021-05-24T12:39:22Z</time>
      </trkpt>
      <trkpt lat="43.40089" lon="2.44317">
        <ele>768.495</ele>
        <time>2021-05-24T12:39:24Z</time>
      </trkpt>
      <trkpt lat="43.4009" lon="2.44319">
        <ele>766.045</ele>
        <time>2021-05-24T12:39:26Z</time>
      </trkpt>
      <trkpt lat="43.4009" lon="2.44319">
        <ele>766.046</ele>
        <time>2021-05-24T12:39:28Z</time>
      </trkpt>
      <trkpt lat="43.4009" lon="2.44319">
        <ele>766.052</ele>
        <time>2021-05-24T12:39:30Z</time>
      </trkpt>
      <trkpt lat="43.4009" lon="2.44319">
        <ele>766.048</ele>
        <time>2021-05-24T12:39:32Z</time>
      </trkpt>
      <trkpt lat="43.4009" lon="2.44319">
        <ele>766.472</ele>
        <time>2021-05-24T12:39:34Z</time>
      </trkpt>
      <trkpt lat="43.4009" lon="2.44319">
        <ele>766.53</ele>
        <time>2021-05-24T12:39:36Z</time>
      </trkpt>
      <trkpt lat="43.40091" lon="2.44319">
        <ele>766.944</ele>
        <time>2021-05-24T12:39:38Z</time>
      </trkpt>
      <trkpt lat="43.4009" lon="2.44319">
        <ele>766.942</ele>
        <time>2021-05-24T12:39:40Z</time>
      </trkpt>
      <trkpt lat="43.4009" lon="2.44317">
        <ele>767.24</ele>
        <time>2021-05-24T12:39:42Z</time>
      </trkpt>
      <trkpt lat="43.40089" lon="2.44314">
        <ele>766.93</ele>
        <time>2021-05-24T12:39:44Z</time>
      </trkpt>
      <trkpt lat="43.40088" lon="2.44311">
        <ele>766.523</ele>
        <time>2021-05-24T12:39:46Z</time>
      </trkpt>
      <trkpt lat="43.40087" lon="2.44308">
        <ele>766.593</ele>
        <time>2021-05-24T12:39:48Z</time>
      </trkpt>
      <trkpt lat="43.40087" lon="2.44306">
        <ele>766.206</ele>
        <time>2021-05-24T12:39:50Z</time>
      </trkpt>
      <trkpt lat="43.40087" lon="2.44303">
        <ele>766.785</ele>
        <time>2021-05-24T12:39:52Z</time>
      </trkpt>
      <trkpt lat="43.40087" lon="2.44301">
        <ele>766.375</ele>
        <time>2021-05-24T12:39:54Z</time>
      </trkpt>
      <trkpt lat="43.40086" lon="2.44297">
        <ele>767.108</ele>
        <time>2021-05-24T12:39:56Z</time>
      </trkpt>
      <trkpt lat="43.40085" lon="2.44294">
        <ele>767.513</ele>
        <time>2021-05-24T12:39:58Z</time>
      </trkpt>
      <trkpt lat="43.40085" lon="2.44291">
        <ele>766.537</ele>
        <time>2021-05-24T12:40:00Z</time>
      </trkpt>
      <trkpt lat="43.40085" lon="2.44287">
        <ele>767.475</ele>
        <time>2021-05-24T12:40:02Z</time>
      </trkpt>
      <trkpt lat="43.40084" lon="2.44285">
        <ele>767.297</ele>
        <time>2021-05-24T12:40:04Z</time>
      </trkpt>
      <trkpt lat="43.40084" lon="2.44282">
        <ele>767.061</ele>
        <time>2021-05-24T12:40:06Z</time>
      </trkpt>
      <trkpt lat="43.40084" lon="2.44279">
        <ele>766.193</ele>
        <time>2021-05-24T12:40:08Z</time>
      </trkpt>
      <trkpt lat="43.40084" lon="2.44276">
        <ele>765.723</ele>
        <time>2021-05-24T12:40:10Z</time>
      </trkpt>
      <trkpt lat="43.40083" lon="2.44272">
        <ele>766.732</ele>
        <time>2021-05-24T12:40:12Z</time>
      </trkpt>
      <trkpt lat="43.40083" lon="2.44268">
        <ele>767.133</ele>
        <time>2021-05-24T12:40:14Z</time>
      </trkpt>
      <trkpt lat="43.40082" lon="2.44264">
        <ele>767.57</ele>
        <time>2021-05-24T12:40:16Z</time>
      </trkpt>
      <trkpt lat="43.40082" lon="2.4426">
        <ele>766.912</ele>
        <time>2021-05-24T12:40:18Z</time>
      </trkpt>
      <trkpt lat="43.40081" lon="2.44256">
        <ele>766.136</ele>
        <time>2021-05-24T12:40:20Z</time>
      </trkpt>
      <trkpt lat="43.40081" lon="2.44253">
        <ele>765.786</ele>
        <time>2021-05-24T12:40:22Z</time>
      </trkpt>
      <trkpt lat="43.40081" lon="2.44248">
        <ele>765.521</ele>
        <time>2021-05-24T12:40:24Z</time>
      </trkpt>
      <trkpt lat="43.40081" lon="2.44245">
        <ele>764.46</ele>
        <time>2021-05-24T12:40:26Z</time>
      </trkpt>
      <trkpt lat="43.4008" lon="2.44241">
        <ele>763.359</ele>
        <time>2021-05-24T12:40:28Z</time>
      </trkpt>
      <trkpt lat="43.40081" lon="2.44238">
        <ele>763.384</ele>
        <time>2021-05-24T12:40:30Z</time>
      </trkpt>
      <trkpt lat="43.40081" lon="2.44235">
        <ele>763.508</ele>
        <time>2021-05-24T12:40:32Z</time>
      </trkpt>
      <trkpt lat="43.4008" lon="2.44232">
        <ele>762.942</ele>
        <time>2021-05-24T12:40:34Z</time>
      </trkpt>
      <trkpt lat="43.40079" lon="2.44229">
        <ele>762.382</ele>
        <time>2021-05-24T12:40:36Z</time>
      </trkpt>
      <trkpt lat="43.40078" lon="2.44226">
        <ele>762.471</ele>
        <time>2021-05-24T12:40:38Z</time>
      </trkpt>
      <trkpt lat="43.40077" lon="2.44224">
        <ele>762.601</ele>
        <time>2021-05-24T12:40:40Z</time>
      </trkpt>
      <trkpt lat="43.40076" lon="2.44222">
        <ele>762.36</ele>
        <time>2021-05-24T12:40:42Z</time>
      </trkpt>
      <trkpt lat="43.40075" lon="2.44219">
        <ele>762.559</ele>
        <time>2021-05-24T12:40:44Z</time>
      </trkpt>
      <trkpt lat="43.40075" lon="2.44216">
        <ele>762.504</ele>
        <time>2021-05-24T12:40:46Z</time>
      </trkpt>
      <trkpt lat="43.40075" lon="2.44213">
        <ele>761.904</ele>
        <time>2021-05-24T12:40:48Z</time>
      </trkpt>
      <trkpt lat="43.40074" lon="2.44211">
        <ele>762.166</ele>
        <time>2021-05-24T12:40:50Z</time>
      </trkpt>
      <trkpt lat="43.40072" lon="2.4421">
        <ele>763.03</ele>
        <time>2021-05-24T12:40:52Z</time>
      </trkpt>
      <trkpt lat="43.40071" lon="2.4421">
        <ele>765.215</ele>
        <time>2021-05-24T12:40:54Z</time>
      </trkpt>
      <trkpt lat="43.40071" lon="2.44211">
        <ele>764.022</ele>
        <time>2021-05-24T12:40:56Z</time>
      </trkpt>
      <trkpt lat="43.40071" lon="2.44211">
        <ele>764.032</ele>
        <time>2021-05-24T12:40:58Z</time>
      </trkpt>
      <trkpt lat="43.40072" lon="2.44211">
        <ele>763.842</ele>
        <time>2021-05-24T12:41:00Z</time>
      </trkpt>
      <trkpt lat="43.40071" lon="2.4421">
        <ele>763.957</ele>
        <time>2021-05-24T12:41:02Z</time>
      </trkpt>
      <trkpt lat="43.40071" lon="2.44207">
        <ele>764.008</ele>
        <time>2021-05-24T12:41:04Z</time>
      </trkpt>
      <trkpt lat="43.40069" lon="2.44202">
        <ele>763.869</ele>
        <time>2021-05-24T12:41:06Z</time>
      </trkpt>
      <trkpt lat="43.40067" lon="2.442">
        <ele>763.709</ele>
        <time>2021-05-24T12:41:08Z</time>
      </trkpt>
      <trkpt lat="43.40066" lon="2.44198">
        <ele>764.224</ele>
        <time>2021-05-24T12:41:10Z</time>
      </trkpt>
      <trkpt lat="43.40066" lon="2.44196">
        <ele>763.611</ele>
        <time>2021-05-24T12:41:12Z</time>
      </trkpt>
      <trkpt lat="43.40066" lon="2.44194">
        <ele>763.719</ele>
        <time>2021-05-24T12:41:14Z</time>
      </trkpt>
      <trkpt lat="43.40066" lon="2.44193">
        <ele>765.22</ele>
        <time>2021-05-24T12:41:16Z</time>
      </trkpt>
      <trkpt lat="43.40065" lon="2.44191">
        <ele>764.998</ele>
        <time>2021-05-24T12:41:18Z</time>
      </trkpt>
      <trkpt lat="43.40065" lon="2.4419">
        <ele>763.279</ele>
        <time>2021-05-24T12:41:20Z</time>
      </trkpt>
      <trkpt lat="43.40067" lon="2.4419">
        <ele>762.191</ele>
        <time>2021-05-24T12:41:22Z</time>
      </trkpt>
      <trkpt lat="43.40068" lon="2.44189">
        <ele>762.157</ele>
        <time>2021-05-24T12:41:24Z</time>
      </trkpt>
      <trkpt lat="43.40068" lon="2.44189">
        <ele>762.646</ele>
        <time>2021-05-24T12:41:26Z</time>
      </trkpt>
      <trkpt lat="43.40069" lon="2.44189">
        <ele>762.447</ele>
        <time>2021-05-24T12:41:28Z</time>
      </trkpt>
      <trkpt lat="43.40069" lon="2.44188">
        <ele>761.726</ele>
        <time>2021-05-24T12:41:30Z</time>
      </trkpt>
      <trkpt lat="43.40069" lon="2.44187">
        <ele>761.595</ele>
        <time>2021-05-24T12:41:32Z</time>
      </trkpt>
      <trkpt lat="43.40069" lon="2.44187">
        <ele>762.203</ele>
        <time>2021-05-24T12:41:34Z</time>
      </trkpt>
      <trkpt lat="43.40071" lon="2.44187">
        <ele>759.406</ele>
        <time>2021-05-24T12:41:36Z</time>
      </trkpt>
      <trkpt lat="43.40071" lon="2.44186">
        <ele>758.138</ele>
        <time>2021-05-24T12:41:38Z</time>
      </trkpt>
      <trkpt lat="43.40069" lon="2.44185">
        <ele>758.841</ele>
        <time>2021-05-24T12:41:40Z</time>
      </trkpt>
      <trkpt lat="43.40068" lon="2.44186">
        <ele>759.335</ele>
        <time>2021-05-24T12:41:42Z</time>
      </trkpt>
      <trkpt lat="43.40068" lon="2.44186">
        <ele>759.602</ele>
        <time>2021-05-24T12:41:44Z</time>
      </trkpt>
      <trkpt lat="43.40066" lon="2.44186">
        <ele>759.9</ele>
        <time>2021-05-24T12:41:46Z</time>
      </trkpt>
      <trkpt lat="43.40065" lon="2.44184">
        <ele>759.724</ele>
        <time>2021-05-24T12:41:48Z</time>
      </trkpt>
      <trkpt lat="43.40064" lon="2.44182">
        <ele>758.457</ele>
        <time>2021-05-24T12:41:50Z</time>
      </trkpt>
      <trkpt lat="43.40064" lon="2.44184">
        <ele>758.964</ele>
        <time>2021-05-24T12:41:52Z</time>
      </trkpt>
      <trkpt lat="43.40065" lon="2.44186">
        <ele>760.19</ele>
        <time>2021-05-24T12:41:54Z</time>
      </trkpt>
      <trkpt lat="43.40066" lon="2.44187">
        <ele>760.37</ele>
        <time>2021-05-24T12:41:56Z</time>
      </trkpt>
      <trkpt lat="43.40068" lon="2.44188">
        <ele>759.752</ele>
        <time>2021-05-24T12:41:58Z</time>
      </trkpt>
      <trkpt lat="43.4007" lon="2.44191">
        <ele>761.938</ele>
        <time>2021-05-24T12:42:00Z</time>
      </trkpt>
      <trkpt lat="43.40072" lon="2.44192">
        <ele>762.801</ele>
        <time>2021-05-24T12:42:02Z</time>
      </trkpt>
      <trkpt lat="43.40074" lon="2.44193">
        <ele>763.862</ele>
        <time>2021-05-24T12:42:04Z</time>
      </trkpt>
      <trkpt lat="43.40076" lon="2.44195">
        <ele>765.552</ele>
        <time>2021-05-24T12:42:06Z</time>
      </trkpt>
      <trkpt lat="43.40077" lon="2.44196">
        <ele>766.363</ele>
        <time>2021-05-24T12:42:08Z</time>
      </trkpt>
      <trkpt lat="43.4008" lon="2.44198">
        <ele>766.43</ele>
        <time>2021-05-24T12:42:10Z</time>
      </trkpt>
      <trkpt lat="43.40082" lon="2.44199">
        <ele>765.952</ele>
        <time>2021-05-24T12:42:12Z</time>
      </trkpt>
      <trkpt lat="43.40085" lon="2.44201">
        <ele>765.705</ele>
        <time>2021-05-24T12:42:14Z</time>
      </trkpt>
      <trkpt lat="43.40087" lon="2.44202">
        <ele>765.4</ele>
        <time>2021-05-24T12:42:16Z</time>
      </trkpt>
      <trkpt lat="43.40089" lon="2.44204">
        <ele>764.906</ele>
        <time>2021-05-24T12:42:18Z</time>
      </trkpt>
      <trkpt lat="43.40092" lon="2.44206">
        <ele>764.869</ele>
        <time>2021-05-24T12:42:20Z</time>
      </trkpt>
      <trkpt lat="43.40094" lon="2.44208">
        <ele>764.322</ele>
        <time>2021-05-24T12:42:22Z</time>
      </trkpt>
      <trkpt lat="43.40096" lon="2.44211">
        <ele>765.003</ele>
        <time>2021-05-24T12:42:24Z</time>
      </trkpt>
      <trkpt lat="43.40098" lon="2.44211">
        <ele>764.153</ele>
        <time>2021-05-24T12:42:26Z</time>
      </trkpt>
      <trkpt lat="43.401" lon="2.44214">
        <ele>764.321</ele>
        <time>2021-05-24T12:42:28Z</time>
      </trkpt>
      <trkpt lat="43.40102" lon="2.44216">
        <ele>763.927</ele>
        <time>2021-05-24T12:42:30Z</time>
      </trkpt>
      <trkpt lat="43.40103" lon="2.44219">
        <ele>764.564</ele>
        <time>2021-05-24T12:42:32Z</time>
      </trkpt>
      <trkpt lat="43.40105" lon="2.44221">
        <ele>764.939</ele>
        <time>2021-05-24T12:42:34Z</time>
      </trkpt>
      <trkpt lat="43.40106" lon="2.44222">
        <ele>766.125</ele>
        <time>2021-05-24T12:42:36Z</time>
      </trkpt>
      <trkpt lat="43.40109" lon="2.4422">
        <ele>768.223</ele>
        <time>2021-05-24T12:42:38Z</time>
      </trkpt>
      <trkpt lat="43.40108" lon="2.44219">
        <ele>769.996</ele>
        <time>2021-05-24T12:42:40Z</time>
      </trkpt>
      <trkpt lat="43.40105" lon="2.44215">
        <ele>769.855</ele>
        <time>2021-05-24T12:42:42Z</time>
      </trkpt>
      <trkpt lat="43.40104" lon="2.44215">
        <ele>770.452</ele>
        <time>2021-05-24T12:42:44Z</time>
      </trkpt>
      <trkpt lat="43.40104" lon="2.44215">
        <ele>770.449</ele>
        <time>2021-05-24T12:42:46Z</time>
      </trkpt>
      <trkpt lat="43.40103" lon="2.44215">
        <ele>770.433</ele>
        <time>2021-05-24T12:42:48Z</time>
      </trkpt>
      <trkpt lat="43.40103" lon="2.44215">
        <ele>770.418</ele>
        <time>2021-05-24T12:42:50Z</time>
      </trkpt>
      <trkpt lat="43.40103" lon="2.44215">
        <ele>770.417</ele>
        <time>2021-05-24T12:42:52Z</time>
      </trkpt>
      <trkpt lat="43.40104" lon="2.44215">
        <ele>770.399</ele>
        <time>2021-05-24T12:42:54Z</time>
      </trkpt>
      <trkpt lat="43.40104" lon="2.44215">
        <ele>770.393</ele>
        <time>2021-05-24T12:42:56Z</time>
      </trkpt>
      <trkpt lat="43.40104" lon="2.44215">
        <ele>770.383</ele>
        <time>2021-05-24T12:42:58Z</time>
      </trkpt>
      <trkpt lat="43.40104" lon="2.44215">
        <ele>770.385</ele>
        <time>2021-05-24T12:43:00Z</time>
      </trkpt>
      <trkpt lat="43.40104" lon="2.44215">
        <ele>770.382</ele>
        <time>2021-05-24T12:43:02Z</time>
      </trkpt>
      <trkpt lat="43.40104" lon="2.44215">
        <ele>770.38</ele>
        <time>2021-05-24T12:43:04Z</time>
      </trkpt>
      <trkpt lat="43.40104" lon="2.44215">
        <ele>770.382</ele>
        <time>2021-05-24T12:43:06Z</time>
      </trkpt>
      <trkpt lat="43.40104" lon="2.44215">
        <ele>770.391</ele>
        <time>2021-05-24T12:43:08Z</time>
      </trkpt>
      <trkpt lat="43.40104" lon="2.44215">
        <ele>770.393</ele>
        <time>2021-05-24T12:43:10Z</time>
      </trkpt>
      <trkpt lat="43.40104" lon="2.44215">
        <ele>770.389</ele>
        <time>2021-05-24T12:43:12Z</time>
      </trkpt>
      <trkpt lat="43.40104" lon="2.44215">
        <ele>770.389</ele>
        <time>2021-05-24T12:43:14Z</time>
      </trkpt>
      <trkpt lat="43.40104" lon="2.44215">
        <ele>770.385</ele>
        <time>2021-05-24T12:43:16Z</time>
      </trkpt>
      <trkpt lat="43.40104" lon="2.44215">
        <ele>770.72</ele>
        <time>2021-05-24T12:43:18Z</time>
      </trkpt>
      <trkpt lat="43.40104" lon="2.44215">
        <ele>770.719</ele>
        <time>2021-05-24T12:43:20Z</time>
      </trkpt>
      <trkpt lat="43.40104" lon="2.44215">
        <ele>770.712</ele>
        <time>2021-05-24T12:43:22Z</time>
      </trkpt>
      <trkpt lat="43.40104" lon="2.44215">
        <ele>770.71</ele>
        <time>2021-05-24T12:43:24Z</time>
      </trkpt>
      <trkpt lat="43.40104" lon="2.44215">
        <ele>770.707</ele>
        <time>2021-05-24T12:43:26Z</time>
      </trkpt>
      <trkpt lat="43.40104" lon="2.44215">
        <ele>770.71</ele>
        <time>2021-05-24T12:43:28Z</time>
      </trkpt>
      <trkpt lat="43.40104" lon="2.44214">
        <ele>770.49</ele>
        <time>2021-05-24T12:43:30Z</time>
      </trkpt>
      <trkpt lat="43.40105" lon="2.44214">
        <ele>770.419</ele>
        <time>2021-05-24T12:43:32Z</time>
      </trkpt>
      <trkpt lat="43.40105" lon="2.44214">
        <ele>770.96</ele>
        <time>2021-05-24T12:43:34Z</time>
      </trkpt>
      <trkpt lat="43.40105" lon="2.44214">
        <ele>770.952</ele>
        <time>2021-05-24T12:43:36Z</time>
      </trkpt>
      <trkpt lat="43.40105" lon="2.44214">
        <ele>770.949</ele>
        <time>2021-05-24T12:43:38Z</time>
      </trkpt>
      <trkpt lat="43.40105" lon="2.44214">
        <ele>770.943</ele>
        <time>2021-05-24T12:43:40Z</time>
      </trkpt>
      <trkpt lat="43.40105" lon="2.44214">
        <ele>770.936</ele>
        <time>2021-05-24T12:43:42Z</time>
      </trkpt>
      <trkpt lat="43.40105" lon="2.44214">
        <ele>770.652</ele>
        <time>2021-05-24T12:43:44Z</time>
      </trkpt>
      <trkpt lat="43.40106" lon="2.44214">
        <ele>770.319</ele>
        <time>2021-05-24T12:43:46Z</time>
      </trkpt>
      <trkpt lat="43.40106" lon="2.44214">
        <ele>770.303</ele>
        <time>2021-05-24T12:43:48Z</time>
      </trkpt>
      <trkpt lat="43.40106" lon="2.44214">
        <ele>770.301</ele>
        <time>2021-05-24T12:43:50Z</time>
      </trkpt>
      <trkpt lat="43.40106" lon="2.44214">
        <ele>770.301</ele>
        <time>2021-05-24T12:43:52Z</time>
      </trkpt>
      <trkpt lat="43.40106" lon="2.44214">
        <ele>770.299</ele>
        <time>2021-05-24T12:43:54Z</time>
      </trkpt>
      <trkpt lat="43.40106" lon="2.44214">
        <ele>770.297</ele>
        <time>2021-05-24T12:43:56Z</time>
      </trkpt>
      <trkpt lat="43.40106" lon="2.44214">
        <ele>770.297</ele>
        <time>2021-05-24T12:43:58Z</time>
      </trkpt>
      <trkpt lat="43.40106" lon="2.44214">
        <ele>770.295</ele>
        <time>2021-05-24T12:44:00Z</time>
      </trkpt>
      <trkpt lat="43.40106" lon="2.44214">
        <ele>770.285</ele>
        <time>2021-05-24T12:44:02Z</time>
      </trkpt>
      <trkpt lat="43.40106" lon="2.44214">
        <ele>770.285</ele>
        <time>2021-05-24T12:44:04Z</time>
      </trkpt>
      <trkpt lat="43.40106" lon="2.44214">
        <ele>770.279</ele>
        <time>2021-05-24T12:44:06Z</time>
      </trkpt>
      <trkpt lat="43.40106" lon="2.44214">
        <ele>770.273</ele>
        <time>2021-05-24T12:44:08Z</time>
      </trkpt>
      <trkpt lat="43.40106" lon="2.44214">
        <ele>770.265</ele>
        <time>2021-05-24T12:44:10Z</time>
      </trkpt>
      <trkpt lat="43.40106" lon="2.44214">
        <ele>769.919</ele>
        <time>2021-05-24T12:44:12Z</time>
      </trkpt>
      <trkpt lat="43.40106" lon="2.44215">
        <ele>768.864</ele>
        <time>2021-05-24T12:44:14Z</time>
      </trkpt>
      <trkpt lat="43.40106" lon="2.44215">
        <ele>769.191</ele>
        <time>2021-05-24T12:44:16Z</time>
      </trkpt>
      <trkpt lat="43.40105" lon="2.44214">
        <ele>769.266</ele>
        <time>2021-05-24T12:44:18Z</time>
      </trkpt>
      <trkpt lat="43.40106" lon="2.44215">
        <ele>769.045</ele>
        <time>2021-05-24T12:44:20Z</time>
      </trkpt>
      <trkpt lat="43.40106" lon="2.44215">
        <ele>769.046</ele>
        <time>2021-05-24T12:44:22Z</time>
      </trkpt>
      <trkpt lat="43.40106" lon="2.44215">
        <ele>769.044</ele>
        <time>2021-05-24T12:44:24Z</time>
      </trkpt>
      <trkpt lat="43.40106" lon="2.44215">
        <ele>769.043</ele>
        <time>2021-05-24T12:44:26Z</time>
      </trkpt>
      <trkpt lat="43.40106" lon="2.44215">
        <ele>769.034</ele>
        <time>2021-05-24T12:44:28Z</time>
      </trkpt>
      <trkpt lat="43.40106" lon="2.44215">
        <ele>769.029</ele>
        <time>2021-05-24T12:44:30Z</time>
      </trkpt>
      <trkpt lat="43.40106" lon="2.44215">
        <ele>769.027</ele>
        <time>2021-05-24T12:44:32Z</time>
      </trkpt>
      <trkpt lat="43.40106" lon="2.44215">
        <ele>769.016</ele>
        <time>2021-05-24T12:44:34Z</time>
      </trkpt>
      <trkpt lat="43.40106" lon="2.44215">
        <ele>769.018</ele>
        <time>2021-05-24T12:44:37Z</time>
      </trkpt>
      <trkpt lat="43.40106" lon="2.44215">
        <ele>769.014</ele>
        <time>2021-05-24T12:44:39Z</time>
      </trkpt>
      <trkpt lat="43.40106" lon="2.44213">
        <ele>768.036</ele>
        <time>2021-05-24T12:44:41Z</time>
      </trkpt>
      <trkpt lat="43.40108" lon="2.44212">
        <ele>768.621</ele>
        <time>2021-05-24T12:44:43Z</time>
      </trkpt>
      <trkpt lat="43.4011" lon="2.4421">
        <ele>767.023</ele>
        <time>2021-05-24T12:44:45Z</time>
      </trkpt>
      <trkpt lat="43.40111" lon="2.44208">
        <ele>766.143</ele>
        <time>2021-05-24T12:44:47Z</time>
      </trkpt>
      <trkpt lat="43.40112" lon="2.44206">
        <ele>765.965</ele>
        <time>2021-05-24T12:44:49Z</time>
      </trkpt>
      <trkpt lat="43.40113" lon="2.44203">
        <ele>765.8</ele>
        <time>2021-05-24T12:44:51Z</time>
      </trkpt>
      <trkpt lat="43.40111" lon="2.44201">
        <ele>765.817</ele>
        <time>2021-05-24T12:44:53Z</time>
      </trkpt>
      <trkpt lat="43.40111" lon="2.44199">
        <ele>766.799</ele>
        <time>2021-05-24T12:44:55Z</time>
      </trkpt>
      <trkpt lat="43.40111" lon="2.44197">
        <ele>768.065</ele>
        <time>2021-05-24T12:44:57Z</time>
      </trkpt>
      <trkpt lat="43.40112" lon="2.44195">
        <ele>766.469</ele>
        <time>2021-05-24T12:44:59Z</time>
      </trkpt>
      <trkpt lat="43.40114" lon="2.44193">
        <ele>767.416</ele>
        <time>2021-05-24T12:45:01Z</time>
      </trkpt>
      <trkpt lat="43.40115" lon="2.4419">
        <ele>767.05</ele>
        <time>2021-05-24T12:45:03Z</time>
      </trkpt>
      <trkpt lat="43.40115" lon="2.44187">
        <ele>766.899</ele>
        <time>2021-05-24T12:45:05Z</time>
      </trkpt>
      <trkpt lat="43.40115" lon="2.44185">
        <ele>767.923</ele>
        <time>2021-05-24T12:45:07Z</time>
      </trkpt>
      <trkpt lat="43.40114" lon="2.44183">
        <ele>768.322</ele>
        <time>2021-05-24T12:45:09Z</time>
      </trkpt>
      <trkpt lat="43.40115" lon="2.44181">
        <ele>769.232</ele>
        <time>2021-05-24T12:45:11Z</time>
      </trkpt>
      <trkpt lat="43.40114" lon="2.44178">
        <ele>769.44</ele>
        <time>2021-05-24T12:45:13Z</time>
      </trkpt>
      <trkpt lat="43.40114" lon="2.44175">
        <ele>769.595</ele>
        <time>2021-05-24T12:45:15Z</time>
      </trkpt>
      <trkpt lat="43.40113" lon="2.44172">
        <ele>768.425</ele>
        <time>2021-05-24T12:45:17Z</time>
      </trkpt>
      <trkpt lat="43.40112" lon="2.4417">
        <ele>769.072</ele>
        <time>2021-05-24T12:45:19Z</time>
      </trkpt>
      <trkpt lat="43.4011" lon="2.44166">
        <ele>769.104</ele>
        <time>2021-05-24T12:45:21Z</time>
      </trkpt>
      <trkpt lat="43.40109" lon="2.44163">
        <ele>769.768</ele>
        <time>2021-05-24T12:45:23Z</time>
      </trkpt>
      <trkpt lat="43.40108" lon="2.44161">
        <ele>769.507</ele>
        <time>2021-05-24T12:45:25Z</time>
      </trkpt>
      <trkpt lat="43.40108" lon="2.44157">
        <ele>770.728</ele>
        <time>2021-05-24T12:45:27Z</time>
      </trkpt>
      <trkpt lat="43.40107" lon="2.44152">
        <ele>772.031</ele>
        <time>2021-05-24T12:45:29Z</time>
      </trkpt>
      <trkpt lat="43.40107" lon="2.44149">
        <ele>769.701</ele>
        <time>2021-05-24T12:45:31Z</time>
      </trkpt>
      <trkpt lat="43.40109" lon="2.44147">
        <ele>769.119</ele>
        <time>2021-05-24T12:45:33Z</time>
      </trkpt>
      <trkpt lat="43.40109" lon="2.44144">
        <ele>769.978</ele>
        <time>2021-05-24T12:45:35Z</time>
      </trkpt>
      <trkpt lat="43.40111" lon="2.44143">
        <ele>769.471</ele>
        <time>2021-05-24T12:45:37Z</time>
      </trkpt>
      <trkpt lat="43.40112" lon="2.4414">
        <ele>770.75</ele>
        <time>2021-05-24T12:45:39Z</time>
      </trkpt>
      <trkpt lat="43.40112" lon="2.44136">
        <ele>770.23</ele>
        <time>2021-05-24T12:45:41Z</time>
      </trkpt>
      <trkpt lat="43.40112" lon="2.44133">
        <ele>772.107</ele>
        <time>2021-05-24T12:45:43Z</time>
      </trkpt>
      <trkpt lat="43.40114" lon="2.44131">
        <ele>773.792</ele>
        <time>2021-05-24T12:45:45Z</time>
      </trkpt>
      <trkpt lat="43.40115" lon="2.44129">
        <ele>774.14</ele>
        <time>2021-05-24T12:45:47Z</time>
      </trkpt>
      <trkpt lat="43.40117" lon="2.44127">
        <ele>775.053</ele>
        <time>2021-05-24T12:45:49Z</time>
      </trkpt>
      <trkpt lat="43.40119" lon="2.44125">
        <ele>775.135</ele>
        <time>2021-05-24T12:45:51Z</time>
      </trkpt>
      <trkpt lat="43.40121" lon="2.44122">
        <ele>775.97</ele>
        <time>2021-05-24T12:45:53Z</time>
      </trkpt>
      <trkpt lat="43.40123" lon="2.4412">
        <ele>778.288</ele>
        <time>2021-05-24T12:45:55Z</time>
      </trkpt>
      <trkpt lat="43.40124" lon="2.44118">
        <ele>778.99</ele>
        <time>2021-05-24T12:45:57Z</time>
      </trkpt>
      <trkpt lat="43.40126" lon="2.44115">
        <ele>779.157</ele>
        <time>2021-05-24T12:45:59Z</time>
      </trkpt>
      <trkpt lat="43.40127" lon="2.44111">
        <ele>778.852</ele>
        <time>2021-05-24T12:46:01Z</time>
      </trkpt>
      <trkpt lat="43.40128" lon="2.44109">
        <ele>778.449</ele>
        <time>2021-05-24T12:46:03Z</time>
      </trkpt>
      <trkpt lat="43.40129" lon="2.44106">
        <ele>777.984</ele>
        <time>2021-05-24T12:46:05Z</time>
      </trkpt>
      <trkpt lat="43.4013" lon="2.44102">
        <ele>777.379</ele>
        <time>2021-05-24T12:46:07Z</time>
      </trkpt>
      <trkpt lat="43.40131" lon="2.441">
        <ele>776.723</ele>
        <time>2021-05-24T12:46:09Z</time>
      </trkpt>
      <trkpt lat="43.40133" lon="2.44097">
        <ele>777.952</ele>
        <time>2021-05-24T12:46:11Z</time>
      </trkpt>
      <trkpt lat="43.40133" lon="2.44094">
        <ele>778.212</ele>
        <time>2021-05-24T12:46:13Z</time>
      </trkpt>
      <trkpt lat="43.40134" lon="2.44091">
        <ele>777.906</ele>
        <time>2021-05-24T12:46:15Z</time>
      </trkpt>
      <trkpt lat="43.40136" lon="2.44088">
        <ele>779.673</ele>
        <time>2021-05-24T12:46:17Z</time>
      </trkpt>
      <trkpt lat="43.40137" lon="2.44085">
        <ele>780.445</ele>
        <time>2021-05-24T12:46:19Z</time>
      </trkpt>
      <trkpt lat="43.40138" lon="2.44083">
        <ele>780.396</ele>
        <time>2021-05-24T12:46:21Z</time>
      </trkpt>
      <trkpt lat="43.4014" lon="2.44081">
        <ele>780.551</ele>
        <time>2021-05-24T12:46:23Z</time>
      </trkpt>
      <trkpt lat="43.40141" lon="2.4408">
        <ele>781.616</ele>
        <time>2021-05-24T12:46:25Z</time>
      </trkpt>
      <trkpt lat="43.40142" lon="2.44077">
        <ele>781.817</ele>
        <time>2021-05-24T12:46:27Z</time>
      </trkpt>
      <trkpt lat="43.40141" lon="2.44075">
        <ele>781.428</ele>
        <time>2021-05-24T12:46:29Z</time>
      </trkpt>
      <trkpt lat="43.4014" lon="2.44073">
        <ele>781.125</ele>
        <time>2021-05-24T12:46:31Z</time>
      </trkpt>
      <trkpt lat="43.40139" lon="2.44071">
        <ele>781.769</ele>
        <time>2021-05-24T12:46:33Z</time>
      </trkpt>
      <trkpt lat="43.40138" lon="2.44069">
        <ele>781.126</ele>
        <time>2021-05-24T12:46:35Z</time>
      </trkpt>
      <trkpt lat="43.40137" lon="2.44066">
        <ele>780.415</ele>
        <time>2021-05-24T12:46:37Z</time>
      </trkpt>
      <trkpt lat="43.40137" lon="2.44063">
        <ele>781.313</ele>
        <time>2021-05-24T12:46:39Z</time>
      </trkpt>
      <trkpt lat="43.40137" lon="2.4406">
        <ele>780.012</ele>
        <time>2021-05-24T12:46:41Z</time>
      </trkpt>
      <trkpt lat="43.40137" lon="2.44058">
        <ele>781.141</ele>
        <time>2021-05-24T12:46:43Z</time>
      </trkpt>
      <trkpt lat="43.40138" lon="2.44054">
        <ele>782.092</ele>
        <time>2021-05-24T12:46:45Z</time>
      </trkpt>
      <trkpt lat="43.40138" lon="2.44051">
        <ele>783.654</ele>
        <time>2021-05-24T12:46:47Z</time>
      </trkpt>
      <trkpt lat="43.40139" lon="2.44048">
        <ele>784.166</ele>
        <time>2021-05-24T12:46:49Z</time>
      </trkpt>
      <trkpt lat="43.4014" lon="2.44048">
        <ele>783.23</ele>
        <time>2021-05-24T12:46:51Z</time>
      </trkpt>
      <trkpt lat="43.40141" lon="2.44052">
        <ele>784.005</ele>
        <time>2021-05-24T12:46:53Z</time>
      </trkpt>
      <trkpt lat="43.40142" lon="2.44048">
        <ele>786.939</ele>
        <time>2021-05-24T12:46:55Z</time>
      </trkpt>
      <trkpt lat="43.40137" lon="2.4404">
        <ele>786.819</ele>
        <time>2021-05-24T12:46:57Z</time>
      </trkpt>
      <trkpt lat="43.40137" lon="2.44036">
        <ele>786.501</ele>
        <time>2021-05-24T12:46:59Z</time>
      </trkpt>
      <trkpt lat="43.40136" lon="2.44032">
        <ele>786.373</ele>
        <time>2021-05-24T12:47:01Z</time>
      </trkpt>
      <trkpt lat="43.40136" lon="2.4403">
        <ele>785.676</ele>
        <time>2021-05-24T12:47:03Z</time>
      </trkpt>
      <trkpt lat="43.40135" lon="2.44027">
        <ele>785.44</ele>
        <time>2021-05-24T12:47:05Z</time>
      </trkpt>
      <trkpt lat="43.40135" lon="2.44023">
        <ele>785.859</ele>
        <time>2021-05-24T12:47:07Z</time>
      </trkpt>
      <trkpt lat="43.40136" lon="2.44018">
        <ele>787.564</ele>
        <time>2021-05-24T12:47:09Z</time>
      </trkpt>
      <trkpt lat="43.40137" lon="2.44015">
        <ele>787.867</ele>
        <time>2021-05-24T12:47:11Z</time>
      </trkpt>
      <trkpt lat="43.40138" lon="2.44013">
        <ele>788.388</ele>
        <time>2021-05-24T12:47:13Z</time>
      </trkpt>
      <trkpt lat="43.4014" lon="2.44009">
        <ele>789.005</ele>
        <time>2021-05-24T12:47:15Z</time>
      </trkpt>
      <trkpt lat="43.40142" lon="2.44006">
        <ele>789.284</ele>
        <time>2021-05-24T12:47:17Z</time>
      </trkpt>
      <trkpt lat="43.40144" lon="2.44003">
        <ele>790.008</ele>
        <time>2021-05-24T12:47:19Z</time>
      </trkpt>
      <trkpt lat="43.40145" lon="2.43999">
        <ele>791.351</ele>
        <time>2021-05-24T12:47:21Z</time>
      </trkpt>
      <trkpt lat="43.40147" lon="2.43997">
        <ele>792.171</ele>
        <time>2021-05-24T12:47:23Z</time>
      </trkpt>
      <trkpt lat="43.40148" lon="2.43995">
        <ele>793.666</ele>
        <time>2021-05-24T12:47:25Z</time>
      </trkpt>
      <trkpt lat="43.40149" lon="2.43992">
        <ele>794.51</ele>
        <time>2021-05-24T12:47:27Z</time>
      </trkpt>
      <trkpt lat="43.40149" lon="2.4399">
        <ele>795.073</ele>
        <time>2021-05-24T12:47:29Z</time>
      </trkpt>
      <trkpt lat="43.40149" lon="2.43987">
        <ele>794.993</ele>
        <time>2021-05-24T12:47:31Z</time>
      </trkpt>
      <trkpt lat="43.40149" lon="2.43984">
        <ele>795.201</ele>
        <time>2021-05-24T12:47:33Z</time>
      </trkpt>
      <trkpt lat="43.40149" lon="2.43982">
        <ele>795.293</ele>
        <time>2021-05-24T12:47:35Z</time>
      </trkpt>
      <trkpt lat="43.40149" lon="2.4398">
        <ele>794.706</ele>
        <time>2021-05-24T12:47:37Z</time>
      </trkpt>
      <trkpt lat="43.40148" lon="2.43981">
        <ele>788.055</ele>
        <time>2021-05-24T12:47:39Z</time>
      </trkpt>
      <trkpt lat="43.40149" lon="2.43981">
        <ele>787.594</ele>
        <time>2021-05-24T12:47:41Z</time>
      </trkpt>
      <trkpt lat="43.40149" lon="2.43983">
        <ele>784.866</ele>
        <time>2021-05-24T12:47:43Z</time>
      </trkpt>
      <trkpt lat="43.40148" lon="2.43981">
        <ele>787.339</ele>
        <time>2021-05-24T12:47:45Z</time>
      </trkpt>
      <trkpt lat="43.40146" lon="2.4398">
        <ele>783.978</ele>
        <time>2021-05-24T12:47:47Z</time>
      </trkpt>
      <trkpt lat="43.40145" lon="2.43979">
        <ele>783.764</ele>
        <time>2021-05-24T12:47:49Z</time>
      </trkpt>
      <trkpt lat="43.40144" lon="2.43977">
        <ele>783.068</ele>
        <time>2021-05-24T12:47:51Z</time>
      </trkpt>
      <trkpt lat="43.40142" lon="2.43974">
        <ele>782.35</ele>
        <time>2021-05-24T12:47:53Z</time>
      </trkpt>
      <trkpt lat="43.40142" lon="2.43973">
        <ele>782.849</ele>
        <time>2021-05-24T12:47:55Z</time>
      </trkpt>
      <trkpt lat="43.40142" lon="2.43971">
        <ele>783.161</ele>
        <time>2021-05-24T12:47:57Z</time>
      </trkpt>
      <trkpt lat="43.40142" lon="2.43968">
        <ele>782.741</ele>
        <time>2021-05-24T12:47:59Z</time>
      </trkpt>
      <trkpt lat="43.40142" lon="2.43966">
        <ele>782.903</ele>
        <time>2021-05-24T12:48:01Z</time>
      </trkpt>
      <trkpt lat="43.40142" lon="2.43964">
        <ele>783.833</ele>
        <time>2021-05-24T12:48:03Z</time>
      </trkpt>
      <trkpt lat="43.40142" lon="2.43962">
        <ele>783.98</ele>
        <time>2021-05-24T12:48:05Z</time>
      </trkpt>
      <trkpt lat="43.40142" lon="2.4396">
        <ele>785.052</ele>
        <time>2021-05-24T12:48:07Z</time>
      </trkpt>
      <trkpt lat="43.40141" lon="2.4396">
        <ele>785.587</ele>
        <time>2021-05-24T12:48:09Z</time>
      </trkpt>
      <trkpt lat="43.40141" lon="2.4396">
        <ele>785.591</ele>
        <time>2021-05-24T12:48:11Z</time>
      </trkpt>
      <trkpt lat="43.40141" lon="2.4396">
        <ele>785.597</ele>
        <time>2021-05-24T12:48:13Z</time>
      </trkpt>
      <trkpt lat="43.40141" lon="2.4396">
        <ele>785.596</ele>
        <time>2021-05-24T12:48:15Z</time>
      </trkpt>
      <trkpt lat="43.40141" lon="2.43959">
        <ele>785.93</ele>
        <time>2021-05-24T12:48:17Z</time>
      </trkpt>
      <trkpt lat="43.40141" lon="2.43957">
        <ele>786.452</ele>
        <time>2021-05-24T12:48:19Z</time>
      </trkpt>
      <trkpt lat="43.40141" lon="2.43955">
        <ele>787.396</ele>
        <time>2021-05-24T12:48:21Z</time>
      </trkpt>
      <trkpt lat="43.40141" lon="2.43952">
        <ele>787.085</ele>
        <time>2021-05-24T12:48:23Z</time>
      </trkpt>
      <trkpt lat="43.40141" lon="2.43949">
        <ele>787.267</ele>
        <time>2021-05-24T12:48:25Z</time>
      </trkpt>
      <trkpt lat="43.40141" lon="2.43947">
        <ele>788.01</ele>
        <time>2021-05-24T12:48:27Z</time>
      </trkpt>
      <trkpt lat="43.40141" lon="2.43944">
        <ele>788.609</ele>
        <time>2021-05-24T12:48:29Z</time>
      </trkpt>
      <trkpt lat="43.40142" lon="2.43941">
        <ele>788.795</ele>
        <time>2021-05-24T12:48:31Z</time>
      </trkpt>
      <trkpt lat="43.40142" lon="2.43937">
        <ele>789.265</ele>
        <time>2021-05-24T12:48:33Z</time>
      </trkpt>
      <trkpt lat="43.40142" lon="2.43935">
        <ele>789.363</ele>
        <time>2021-05-24T12:48:35Z</time>
      </trkpt>
      <trkpt lat="43.40142" lon="2.43932">
        <ele>788.785</ele>
        <time>2021-05-24T12:48:37Z</time>
      </trkpt>
      <trkpt lat="43.40141" lon="2.43931">
        <ele>789.427</ele>
        <time>2021-05-24T12:48:38Z</time>
      </trkpt>
      <trkpt lat="43.40141" lon="2.43926">
        <ele>789.552</ele>
        <time>2021-05-24T12:48:41Z</time>
      </trkpt>
      <trkpt lat="43.40141" lon="2.43924">
        <ele>790.578</ele>
        <time>2021-05-24T12:48:43Z</time>
      </trkpt>
      <trkpt lat="43.40141" lon="2.43921">
        <ele>790.776</ele>
        <time>2021-05-24T12:48:45Z</time>
      </trkpt>
      <trkpt lat="43.40141" lon="2.43918">
        <ele>790.038</ele>
        <time>2021-05-24T12:48:47Z</time>
      </trkpt>
      <trkpt lat="43.40141" lon="2.43916">
        <ele>790.596</ele>
        <time>2021-05-24T12:48:49Z</time>
      </trkpt>
      <trkpt lat="43.40141" lon="2.43916">
        <ele>790.735</ele>
        <time>2021-05-24T12:48:51Z</time>
      </trkpt>
      <trkpt lat="43.40141" lon="2.43915">
        <ele>790.631</ele>
        <time>2021-05-24T12:48:53Z</time>
      </trkpt>
      <trkpt lat="43.40141" lon="2.43915">
        <ele>790.632</ele>
        <time>2021-05-24T12:48:55Z</time>
      </trkpt>
      <trkpt lat="43.40141" lon="2.43915">
        <ele>790.629</ele>
        <time>2021-05-24T12:48:57Z</time>
      </trkpt>
      <trkpt lat="43.40141" lon="2.43915">
        <ele>790.628</ele>
        <time>2021-05-24T12:48:59Z</time>
      </trkpt>
      <trkpt lat="43.40141" lon="2.43915">
        <ele>790.517</ele>
        <time>2021-05-24T12:49:01Z</time>
      </trkpt>
      <trkpt lat="43.40141" lon="2.43913">
        <ele>790.266</ele>
        <time>2021-05-24T12:49:03Z</time>
      </trkpt>
      <trkpt lat="43.40141" lon="2.43911">
        <ele>790.338</ele>
        <time>2021-05-24T12:49:05Z</time>
      </trkpt>
      <trkpt lat="43.40142" lon="2.43908">
        <ele>790.646</ele>
        <time>2021-05-24T12:49:07Z</time>
      </trkpt>
      <trkpt lat="43.40142" lon="2.43906">
        <ele>790.455</ele>
        <time>2021-05-24T12:49:09Z</time>
      </trkpt>
      <trkpt lat="43.40142" lon="2.43904">
        <ele>790.298</ele>
        <time>2021-05-24T12:49:11Z</time>
      </trkpt>
      <trkpt lat="43.40142" lon="2.43902">
        <ele>789.555</ele>
        <time>2021-05-24T12:49:13Z</time>
      </trkpt>
      <trkpt lat="43.40142" lon="2.43899">
        <ele>790.016</ele>
        <time>2021-05-24T12:49:15Z</time>
      </trkpt>
      <trkpt lat="43.40142" lon="2.43896">
        <ele>790.085</ele>
        <time>2021-05-24T12:49:17Z</time>
      </trkpt>
      <trkpt lat="43.40142" lon="2.43894">
        <ele>790.142</ele>
        <time>2021-05-24T12:49:19Z</time>
      </trkpt>
      <trkpt lat="43.40142" lon="2.43892">
        <ele>790.811</ele>
        <time>2021-05-24T12:49:21Z</time>
      </trkpt>
      <trkpt lat="43.40142" lon="2.43889">
        <ele>791.647</ele>
        <time>2021-05-24T12:49:23Z</time>
      </trkpt>
      <trkpt lat="43.40142" lon="2.43886">
        <ele>790.777</ele>
        <time>2021-05-24T12:49:25Z</time>
      </trkpt>
      <trkpt lat="43.40143" lon="2.43883">
        <ele>790.536</ele>
        <time>2021-05-24T12:49:27Z</time>
      </trkpt>
      <trkpt lat="43.40144" lon="2.4388">
        <ele>790.958</ele>
        <time>2021-05-24T12:49:29Z</time>
      </trkpt>
      <trkpt lat="43.40145" lon="2.43877">
        <ele>791.326</ele>
        <time>2021-05-24T12:49:31Z</time>
      </trkpt>
      <trkpt lat="43.40147" lon="2.43874">
        <ele>791.99</ele>
        <time>2021-05-24T12:49:33Z</time>
      </trkpt>
      <trkpt lat="43.40148" lon="2.43871">
        <ele>792.075</ele>
        <time>2021-05-24T12:49:35Z</time>
      </trkpt>
      <trkpt lat="43.40148" lon="2.43868">
        <ele>792.324</ele>
        <time>2021-05-24T12:49:37Z</time>
      </trkpt>
      <trkpt lat="43.40149" lon="2.43865">
        <ele>792.428</ele>
        <time>2021-05-24T12:49:39Z</time>
      </trkpt>
      <trkpt lat="43.4015" lon="2.43863">
        <ele>792.416</ele>
        <time>2021-05-24T12:49:41Z</time>
      </trkpt>
      <trkpt lat="43.4015" lon="2.43864">
        <ele>792.15</ele>
        <time>2021-05-24T12:49:43Z</time>
      </trkpt>
      <trkpt lat="43.4015" lon="2.43864">
        <ele>792.149</ele>
        <time>2021-05-24T12:49:45Z</time>
      </trkpt>
      <trkpt lat="43.4015" lon="2.43864">
        <ele>792.143</ele>
        <time>2021-05-24T12:49:47Z</time>
      </trkpt>
      <trkpt lat="43.4015" lon="2.43864">
        <ele>792.153</ele>
        <time>2021-05-24T12:49:49Z</time>
      </trkpt>
      <trkpt lat="43.40151" lon="2.43864">
        <ele>792.13</ele>
        <time>2021-05-24T12:49:51Z</time>
      </trkpt>
      <trkpt lat="43.40149" lon="2.43865">
        <ele>792.361</ele>
        <time>2021-05-24T12:49:53Z</time>
      </trkpt>
      <trkpt lat="43.40149" lon="2.43865">
        <ele>792.364</ele>
        <time>2021-05-24T12:49:55Z</time>
      </trkpt>
      <trkpt lat="43.40149" lon="2.43865">
        <ele>792.358</ele>
        <time>2021-05-24T12:49:57Z</time>
      </trkpt>
      <trkpt lat="43.40149" lon="2.43865">
        <ele>792.35</ele>
        <time>2021-05-24T12:49:59Z</time>
      </trkpt>
      <trkpt lat="43.40149" lon="2.43865">
        <ele>792.369</ele>
        <time>2021-05-24T12:50:01Z</time>
      </trkpt>
      <trkpt lat="43.40149" lon="2.43865">
        <ele>792.379</ele>
        <time>2021-05-24T12:50:03Z</time>
      </trkpt>
      <trkpt lat="43.40149" lon="2.43865">
        <ele>792.388</ele>
        <time>2021-05-24T12:50:05Z</time>
      </trkpt>
      <trkpt lat="43.40149" lon="2.43865">
        <ele>792.392</ele>
        <time>2021-05-24T12:50:07Z</time>
      </trkpt>
      <trkpt lat="43.40149" lon="2.43865">
        <ele>792.399</ele>
        <time>2021-05-24T12:50:09Z</time>
      </trkpt>
      <trkpt lat="43.40149" lon="2.43865">
        <ele>792.398</ele>
        <time>2021-05-24T12:50:11Z</time>
      </trkpt>
      <trkpt lat="43.40149" lon="2.43865">
        <ele>792.4</ele>
        <time>2021-05-24T12:50:13Z</time>
      </trkpt>
      <trkpt lat="43.40149" lon="2.43865">
        <ele>792.397</ele>
        <time>2021-05-24T12:50:15Z</time>
      </trkpt>
      <trkpt lat="43.40149" lon="2.43865">
        <ele>792.539</ele>
        <time>2021-05-24T12:50:17Z</time>
      </trkpt>
      <trkpt lat="43.40149" lon="2.43863">
        <ele>792.857</ele>
        <time>2021-05-24T12:50:19Z</time>
      </trkpt>
      <trkpt lat="43.40149" lon="2.43863">
        <ele>792.52</ele>
        <time>2021-05-24T12:50:21Z</time>
      </trkpt>
      <trkpt lat="43.40149" lon="2.43863">
        <ele>792.325</ele>
        <time>2021-05-24T12:50:23Z</time>
      </trkpt>
      <trkpt lat="43.40149" lon="2.43863">
        <ele>791.945</ele>
        <time>2021-05-24T12:50:25Z</time>
      </trkpt>
      <trkpt lat="43.4015" lon="2.43861">
        <ele>792.492</ele>
        <time>2021-05-24T12:50:27Z</time>
      </trkpt>
      <trkpt lat="43.4015" lon="2.43859">
        <ele>792.296</ele>
        <time>2021-05-24T12:50:29Z</time>
      </trkpt>
      <trkpt lat="43.40151" lon="2.43856">
        <ele>793.01</ele>
        <time>2021-05-24T12:50:31Z</time>
      </trkpt>
      <trkpt lat="43.40153" lon="2.43853">
        <ele>793.914</ele>
        <time>2021-05-24T12:50:33Z</time>
      </trkpt>
      <trkpt lat="43.40155" lon="2.43851">
        <ele>793.222</ele>
        <time>2021-05-24T12:50:35Z</time>
      </trkpt>
      <trkpt lat="43.40157" lon="2.43847">
        <ele>794.521</ele>
        <time>2021-05-24T12:50:37Z</time>
      </trkpt>
      <trkpt lat="43.40159" lon="2.43845">
        <ele>794.459</ele>
        <time>2021-05-24T12:50:39Z</time>
      </trkpt>
      <trkpt lat="43.40161" lon="2.43842">
        <ele>794.951</ele>
        <time>2021-05-24T12:50:41Z</time>
      </trkpt>
      <trkpt lat="43.40164" lon="2.43841">
        <ele>795.478</ele>
        <time>2021-05-24T12:50:43Z</time>
      </trkpt>
      <trkpt lat="43.40167" lon="2.43839">
        <ele>795.942</ele>
        <time>2021-05-24T12:50:45Z</time>
      </trkpt>
      <trkpt lat="43.40169" lon="2.43839">
        <ele>795.655</ele>
        <time>2021-05-24T12:50:47Z</time>
      </trkpt>
      <trkpt lat="43.40171" lon="2.43838">
        <ele>796.011</ele>
        <time>2021-05-24T12:50:49Z</time>
      </trkpt>
      <trkpt lat="43.40174" lon="2.43838">
        <ele>796.385</ele>
        <time>2021-05-24T12:50:51Z</time>
      </trkpt>
      <trkpt lat="43.40176" lon="2.43837">
        <ele>796.725</ele>
        <time>2021-05-24T12:50:53Z</time>
      </trkpt>
      <trkpt lat="43.40179" lon="2.43836">
        <ele>796.553</ele>
        <time>2021-05-24T12:50:55Z</time>
      </trkpt>
      <trkpt lat="43.40181" lon="2.43835">
        <ele>796.872</ele>
        <time>2021-05-24T12:50:57Z</time>
      </trkpt>
      <trkpt lat="43.40183" lon="2.43834">
        <ele>797.187</ele>
        <time>2021-05-24T12:50:59Z</time>
      </trkpt>
      <trkpt lat="43.40186" lon="2.43834">
        <ele>797.621</ele>
        <time>2021-05-24T12:51:01Z</time>
      </trkpt>
      <trkpt lat="43.40188" lon="2.43833">
        <ele>798.674</ele>
        <time>2021-05-24T12:51:03Z</time>
      </trkpt>
      <trkpt lat="43.40191" lon="2.43832">
        <ele>798.276</ele>
        <time>2021-05-24T12:51:05Z</time>
      </trkpt>
      <trkpt lat="43.40193" lon="2.43832">
        <ele>798.359</ele>
        <time>2021-05-24T12:51:07Z</time>
      </trkpt>
      <trkpt lat="43.40196" lon="2.43831">
        <ele>799.078</ele>
        <time>2021-05-24T12:51:09Z</time>
      </trkpt>
      <trkpt lat="43.40198" lon="2.4383">
        <ele>799.093</ele>
        <time>2021-05-24T12:51:11Z</time>
      </trkpt>
      <trkpt lat="43.40201" lon="2.43829">
        <ele>799.422</ele>
        <time>2021-05-24T12:51:13Z</time>
      </trkpt>
      <trkpt lat="43.40203" lon="2.43828">
        <ele>799.283</ele>
        <time>2021-05-24T12:51:15Z</time>
      </trkpt>
      <trkpt lat="43.40205" lon="2.43828">
        <ele>799.587</ele>
        <time>2021-05-24T12:51:17Z</time>
      </trkpt>
      <trkpt lat="43.40207" lon="2.43827">
        <ele>798.571</ele>
        <time>2021-05-24T12:51:19Z</time>
      </trkpt>
      <trkpt lat="43.40209" lon="2.43827">
        <ele>797.799</ele>
        <time>2021-05-24T12:51:21Z</time>
      </trkpt>
      <trkpt lat="43.40212" lon="2.43826">
        <ele>797.283</ele>
        <time>2021-05-24T12:51:23Z</time>
      </trkpt>
      <trkpt lat="43.40214" lon="2.43825">
        <ele>796.726</ele>
        <time>2021-05-24T12:51:25Z</time>
      </trkpt>
      <trkpt lat="43.40217" lon="2.43824">
        <ele>796.139</ele>
        <time>2021-05-24T12:51:27Z</time>
      </trkpt>
      <trkpt lat="43.4022" lon="2.43824">
        <ele>797.77</ele>
        <time>2021-05-24T12:51:29Z</time>
      </trkpt>
      <trkpt lat="43.40222" lon="2.43824">
        <ele>797.794</ele>
        <time>2021-05-24T12:51:31Z</time>
      </trkpt>
      <trkpt lat="43.40225" lon="2.43823">
        <ele>796.32</ele>
        <time>2021-05-24T12:51:33Z</time>
      </trkpt>
      <trkpt lat="43.40228" lon="2.43823">
        <ele>795.28</ele>
        <time>2021-05-24T12:51:35Z</time>
      </trkpt>
      <trkpt lat="43.40231" lon="2.43822">
        <ele>795.858</ele>
        <time>2021-05-24T12:51:37Z</time>
      </trkpt>
      <trkpt lat="43.40234" lon="2.43822">
        <ele>796.021</ele>
        <time>2021-05-24T12:51:39Z</time>
      </trkpt>
      <trkpt lat="43.40237" lon="2.43821">
        <ele>795.315</ele>
        <time>2021-05-24T12:51:41Z</time>
      </trkpt>
      <trkpt lat="43.40239" lon="2.43819">
        <ele>796.784</ele>
        <time>2021-05-24T12:51:43Z</time>
      </trkpt>
      <trkpt lat="43.40242" lon="2.43819">
        <ele>796.877</ele>
        <time>2021-05-24T12:51:45Z</time>
      </trkpt>
      <trkpt lat="43.40244" lon="2.43818">
        <ele>796.855</ele>
        <time>2021-05-24T12:51:47Z</time>
      </trkpt>
      <trkpt lat="43.40246" lon="2.43817">
        <ele>797.254</ele>
        <time>2021-05-24T12:51:49Z</time>
      </trkpt>
      <trkpt lat="43.40249" lon="2.43816">
        <ele>797.36</ele>
        <time>2021-05-24T12:51:51Z</time>
      </trkpt>
      <trkpt lat="43.40251" lon="2.43816">
        <ele>797.142</ele>
        <time>2021-05-24T12:51:53Z</time>
      </trkpt>
      <trkpt lat="43.40253" lon="2.43815">
        <ele>797.188</ele>
        <time>2021-05-24T12:51:55Z</time>
      </trkpt>
      <trkpt lat="43.40256" lon="2.43815">
        <ele>797.065</ele>
        <time>2021-05-24T12:51:57Z</time>
      </trkpt>
      <trkpt lat="43.40259" lon="2.43815">
        <ele>797.492</ele>
        <time>2021-05-24T12:51:59Z</time>
      </trkpt>
      <trkpt lat="43.40261" lon="2.43814">
        <ele>798.432</ele>
        <time>2021-05-24T12:52:01Z</time>
      </trkpt>
      <trkpt lat="43.40264" lon="2.43814">
        <ele>798.885</ele>
        <time>2021-05-24T12:52:03Z</time>
      </trkpt>
      <trkpt lat="43.40267" lon="2.43813">
        <ele>799.326</ele>
        <time>2021-05-24T12:52:05Z</time>
      </trkpt>
      <trkpt lat="43.4027" lon="2.43812">
        <ele>800.599</ele>
        <time>2021-05-24T12:52:07Z</time>
      </trkpt>
      <trkpt lat="43.40273" lon="2.43811">
        <ele>801.099</ele>
        <time>2021-05-24T12:52:09Z</time>
      </trkpt>
      <trkpt lat="43.40276" lon="2.4381">
        <ele>800.716</ele>
        <time>2021-05-24T12:52:11Z</time>
      </trkpt>
      <trkpt lat="43.40278" lon="2.43809">
        <ele>800.52</ele>
        <time>2021-05-24T12:52:13Z</time>
      </trkpt>
      <trkpt lat="43.4028" lon="2.43808">
        <ele>800.044</ele>
        <time>2021-05-24T12:52:15Z</time>
      </trkpt>
      <trkpt lat="43.40283" lon="2.43807">
        <ele>800.586</ele>
        <time>2021-05-24T12:52:17Z</time>
      </trkpt>
      <trkpt lat="43.40285" lon="2.43806">
        <ele>800.634</ele>
        <time>2021-05-24T12:52:19Z</time>
      </trkpt>
      <trkpt lat="43.40288" lon="2.43804">
        <ele>801.082</ele>
        <time>2021-05-24T12:52:21Z</time>
      </trkpt>
      <trkpt lat="43.4029" lon="2.43802">
        <ele>801.202</ele>
        <time>2021-05-24T12:52:23Z</time>
      </trkpt>
      <trkpt lat="43.40293" lon="2.438">
        <ele>802.415</ele>
        <time>2021-05-24T12:52:25Z</time>
      </trkpt>
      <trkpt lat="43.40296" lon="2.43798">
        <ele>803.21</ele>
        <time>2021-05-24T12:52:27Z</time>
      </trkpt>
      <trkpt lat="43.40298" lon="2.43797">
        <ele>803.746</ele>
        <time>2021-05-24T12:52:29Z</time>
      </trkpt>
      <trkpt lat="43.403" lon="2.43795">
        <ele>804.351</ele>
        <time>2021-05-24T12:52:31Z</time>
      </trkpt>
      <trkpt lat="43.40302" lon="2.43792">
        <ele>805.732</ele>
        <time>2021-05-24T12:52:33Z</time>
      </trkpt>
      <trkpt lat="43.40303" lon="2.4379">
        <ele>805.517</ele>
        <time>2021-05-24T12:52:35Z</time>
      </trkpt>
      <trkpt lat="43.40305" lon="2.43788">
        <ele>805.94</ele>
        <time>2021-05-24T12:52:37Z</time>
      </trkpt>
      <trkpt lat="43.40306" lon="2.43785">
        <ele>807.214</ele>
        <time>2021-05-24T12:52:39Z</time>
      </trkpt>
      <trkpt lat="43.40308" lon="2.43783">
        <ele>808.284</ele>
        <time>2021-05-24T12:52:41Z</time>
      </trkpt>
      <trkpt lat="43.4031" lon="2.43781">
        <ele>808.205</ele>
        <time>2021-05-24T12:52:43Z</time>
      </trkpt>
      <trkpt lat="43.40311" lon="2.43779">
        <ele>808.746</ele>
        <time>2021-05-24T12:52:45Z</time>
      </trkpt>
      <trkpt lat="43.40312" lon="2.43776">
        <ele>809.014</ele>
        <time>2021-05-24T12:52:47Z</time>
      </trkpt>
      <trkpt lat="43.40314" lon="2.43774">
        <ele>809.531</ele>
        <time>2021-05-24T12:52:49Z</time>
      </trkpt>
      <trkpt lat="43.40316" lon="2.43772">
        <ele>809.637</ele>
        <time>2021-05-24T12:52:51Z</time>
      </trkpt>
      <trkpt lat="43.40317" lon="2.4377">
        <ele>809.55</ele>
        <time>2021-05-24T12:52:53Z</time>
      </trkpt>
      <trkpt lat="43.40319" lon="2.43768">
        <ele>809.894</ele>
        <time>2021-05-24T12:52:55Z</time>
      </trkpt>
      <trkpt lat="43.40319" lon="2.43766">
        <ele>810.366</ele>
        <time>2021-05-24T12:52:57Z</time>
      </trkpt>
      <trkpt lat="43.40319" lon="2.43767">
        <ele>810.346</ele>
        <time>2021-05-24T12:52:59Z</time>
      </trkpt>
      <trkpt lat="43.40319" lon="2.43767">
        <ele>810.346</ele>
        <time>2021-05-24T12:53:01Z</time>
      </trkpt>
      <trkpt lat="43.40319" lon="2.43767">
        <ele>810.346</ele>
        <time>2021-05-24T12:53:03Z</time>
      </trkpt>
      <trkpt lat="43.40319" lon="2.43767">
        <ele>810.34</ele>
        <time>2021-05-24T12:53:05Z</time>
      </trkpt>
      <trkpt lat="43.40319" lon="2.43766">
        <ele>810.658</ele>
        <time>2021-05-24T12:53:07Z</time>
      </trkpt>
      <trkpt lat="43.4032" lon="2.43764">
        <ele>811.126</ele>
        <time>2021-05-24T12:53:09Z</time>
      </trkpt>
      <trkpt lat="43.40321" lon="2.43761">
        <ele>811.494</ele>
        <time>2021-05-24T12:53:11Z</time>
      </trkpt>
      <trkpt lat="43.40323" lon="2.43759">
        <ele>811.729</ele>
        <time>2021-05-24T12:53:13Z</time>
      </trkpt>
      <trkpt lat="43.40324" lon="2.43756">
        <ele>811.626</ele>
        <time>2021-05-24T12:53:15Z</time>
      </trkpt>
      <trkpt lat="43.40325" lon="2.43753">
        <ele>811.834</ele>
        <time>2021-05-24T12:53:17Z</time>
      </trkpt>
      <trkpt lat="43.40326" lon="2.43751">
        <ele>811.768</ele>
        <time>2021-05-24T12:53:19Z</time>
      </trkpt>
      <trkpt lat="43.40327" lon="2.43748">
        <ele>812.089</ele>
        <time>2021-05-24T12:53:21Z</time>
      </trkpt>
      <trkpt lat="43.40327" lon="2.43746">
        <ele>812.08</ele>
        <time>2021-05-24T12:53:23Z</time>
      </trkpt>
      <trkpt lat="43.40327" lon="2.43743">
        <ele>812.474</ele>
        <time>2021-05-24T12:53:25Z</time>
      </trkpt>
      <trkpt lat="43.40327" lon="2.4374">
        <ele>812.575</ele>
        <time>2021-05-24T12:53:27Z</time>
      </trkpt>
      <trkpt lat="43.40326" lon="2.43737">
        <ele>812.246</ele>
        <time>2021-05-24T12:53:29Z</time>
      </trkpt>
      <trkpt lat="43.40325" lon="2.43735">
        <ele>812.157</ele>
        <time>2021-05-24T12:53:31Z</time>
      </trkpt>
      <trkpt lat="43.40323" lon="2.43733">
        <ele>811.796</ele>
        <time>2021-05-24T12:53:33Z</time>
      </trkpt>
      <trkpt lat="43.40322" lon="2.43731">
        <ele>811.397</ele>
        <time>2021-05-24T12:53:35Z</time>
      </trkpt>
      <trkpt lat="43.4032" lon="2.43729">
        <ele>811.16</ele>
        <time>2021-05-24T12:53:37Z</time>
      </trkpt>
      <trkpt lat="43.40318" lon="2.43727">
        <ele>811.103</ele>
        <time>2021-05-24T12:53:39Z</time>
      </trkpt>
      <trkpt lat="43.40316" lon="2.43725">
        <ele>811.134</ele>
        <time>2021-05-24T12:53:41Z</time>
      </trkpt>
      <trkpt lat="43.40314" lon="2.43723">
        <ele>810.612</ele>
        <time>2021-05-24T12:53:43Z</time>
      </trkpt>
      <trkpt lat="43.40312" lon="2.43722">
        <ele>810.045</ele>
        <time>2021-05-24T12:53:45Z</time>
      </trkpt>
      <trkpt lat="43.40309" lon="2.4372">
        <ele>809.822</ele>
        <time>2021-05-24T12:53:47Z</time>
      </trkpt>
      <trkpt lat="43.40308" lon="2.43718">
        <ele>809.997</ele>
        <time>2021-05-24T12:53:49Z</time>
      </trkpt>
      <trkpt lat="43.40306" lon="2.43716">
        <ele>809.547</ele>
        <time>2021-05-24T12:53:51Z</time>
      </trkpt>
      <trkpt lat="43.40303" lon="2.43715">
        <ele>810.139</ele>
        <time>2021-05-24T12:53:53Z</time>
      </trkpt>
      <trkpt lat="43.40301" lon="2.43713">
        <ele>810.567</ele>
        <time>2021-05-24T12:53:55Z</time>
      </trkpt>
      <trkpt lat="43.40299" lon="2.43711">
        <ele>810.619</ele>
        <time>2021-05-24T12:53:57Z</time>
      </trkpt>
      <trkpt lat="43.40297" lon="2.43708">
        <ele>810.637</ele>
        <time>2021-05-24T12:53:59Z</time>
      </trkpt>
      <trkpt lat="43.40295" lon="2.43706">
        <ele>810.679</ele>
        <time>2021-05-24T12:54:01Z</time>
      </trkpt>
      <trkpt lat="43.40292" lon="2.43704">
        <ele>810.298</ele>
        <time>2021-05-24T12:54:03Z</time>
      </trkpt>
      <trkpt lat="43.4029" lon="2.43702">
        <ele>810.642</ele>
        <time>2021-05-24T12:54:05Z</time>
      </trkpt>
      <trkpt lat="43.40287" lon="2.437">
        <ele>810.99</ele>
        <time>2021-05-24T12:54:07Z</time>
      </trkpt>
      <trkpt lat="43.40285" lon="2.43697">
        <ele>811.188</ele>
        <time>2021-05-24T12:54:09Z</time>
      </trkpt>
      <trkpt lat="43.40284" lon="2.43695">
        <ele>811.089</ele>
        <time>2021-05-24T12:54:11Z</time>
      </trkpt>
      <trkpt lat="43.40283" lon="2.43691">
        <ele>810.772</ele>
        <time>2021-05-24T12:54:13Z</time>
      </trkpt>
      <trkpt lat="43.40281" lon="2.43688">
        <ele>810.624</ele>
        <time>2021-05-24T12:54:15Z</time>
      </trkpt>
      <trkpt lat="43.4028" lon="2.43686">
        <ele>810.897</ele>
        <time>2021-05-24T12:54:17Z</time>
      </trkpt>
      <trkpt lat="43.40279" lon="2.43683">
        <ele>811.233</ele>
        <time>2021-05-24T12:54:19Z</time>
      </trkpt>
      <trkpt lat="43.40277" lon="2.4368">
        <ele>810.706</ele>
        <time>2021-05-24T12:54:21Z</time>
      </trkpt>
      <trkpt lat="43.40277" lon="2.43677">
        <ele>810.39</ele>
        <time>2021-05-24T12:54:23Z</time>
      </trkpt>
      <trkpt lat="43.40276" lon="2.43674">
        <ele>810.337</ele>
        <time>2021-05-24T12:54:25Z</time>
      </trkpt>
      <trkpt lat="43.40275" lon="2.4367">
        <ele>810.301</ele>
        <time>2021-05-24T12:54:27Z</time>
      </trkpt>
      <trkpt lat="43.40275" lon="2.43667">
        <ele>809.955</ele>
        <time>2021-05-24T12:54:29Z</time>
      </trkpt>
      <trkpt lat="43.40274" lon="2.43663">
        <ele>809.45</ele>
        <time>2021-05-24T12:54:31Z</time>
      </trkpt>
      <trkpt lat="43.40274" lon="2.43659">
        <ele>809.538</ele>
        <time>2021-05-24T12:54:33Z</time>
      </trkpt>
      <trkpt lat="43.40274" lon="2.43656">
        <ele>809.538</ele>
        <time>2021-05-24T12:54:35Z</time>
      </trkpt>
      <trkpt lat="43.40273" lon="2.43652">
        <ele>809.505</ele>
        <time>2021-05-24T12:54:37Z</time>
      </trkpt>
      <trkpt lat="43.40272" lon="2.43648">
        <ele>809.224</ele>
        <time>2021-05-24T12:54:39Z</time>
      </trkpt>
      <trkpt lat="43.40272" lon="2.43644">
        <ele>809.499</ele>
        <time>2021-05-24T12:54:41Z</time>
      </trkpt>
      <trkpt lat="43.40272" lon="2.43641">
        <ele>808.965</ele>
        <time>2021-05-24T12:54:43Z</time>
      </trkpt>
      <trkpt lat="43.40271" lon="2.43637">
        <ele>808.91</ele>
        <time>2021-05-24T12:54:45Z</time>
      </trkpt>
      <trkpt lat="43.40271" lon="2.43632">
        <ele>809.031</ele>
        <time>2021-05-24T12:54:47Z</time>
      </trkpt>
      <trkpt lat="43.40271" lon="2.43629">
        <ele>809.007</ele>
        <time>2021-05-24T12:54:49Z</time>
      </trkpt>
      <trkpt lat="43.4027" lon="2.43625">
        <ele>809.016</ele>
        <time>2021-05-24T12:54:51Z</time>
      </trkpt>
      <trkpt lat="43.4027" lon="2.43621">
        <ele>809.107</ele>
        <time>2021-05-24T12:54:53Z</time>
      </trkpt>
      <trkpt lat="43.4027" lon="2.43617">
        <ele>809.119</ele>
        <time>2021-05-24T12:54:55Z</time>
      </trkpt>
      <trkpt lat="43.40269" lon="2.43613">
        <ele>808.873</ele>
        <time>2021-05-24T12:54:57Z</time>
      </trkpt>
      <trkpt lat="43.40269" lon="2.43609">
        <ele>808.902</ele>
        <time>2021-05-24T12:54:59Z</time>
      </trkpt>
      <trkpt lat="43.40269" lon="2.43604">
        <ele>808.67</ele>
        <time>2021-05-24T12:55:01Z</time>
      </trkpt>
      <trkpt lat="43.40267" lon="2.43597">
        <ele>809.246</ele>
        <time>2021-05-24T12:55:03Z</time>
      </trkpt>
      <trkpt lat="43.40267" lon="2.43593">
        <ele>808.803</ele>
        <time>2021-05-24T12:55:05Z</time>
      </trkpt>
      <trkpt lat="43.40267" lon="2.4359">
        <ele>808.681</ele>
        <time>2021-05-24T12:55:07Z</time>
      </trkpt>
      <trkpt lat="43.40266" lon="2.43585">
        <ele>807.787</ele>
        <time>2021-05-24T12:55:09Z</time>
      </trkpt>
      <trkpt lat="43.40266" lon="2.43581">
        <ele>807.026</ele>
        <time>2021-05-24T12:55:11Z</time>
      </trkpt>
      <trkpt lat="43.40266" lon="2.43577">
        <ele>806.138</ele>
        <time>2021-05-24T12:55:13Z</time>
      </trkpt>
      <trkpt lat="43.40266" lon="2.43574">
        <ele>805.13</ele>
        <time>2021-05-24T12:55:15Z</time>
      </trkpt>
      <trkpt lat="43.40265" lon="2.43569">
        <ele>804.864</ele>
        <time>2021-05-24T12:55:17Z</time>
      </trkpt>
      <trkpt lat="43.40265" lon="2.43565">
        <ele>804.45</ele>
        <time>2021-05-24T12:55:19Z</time>
      </trkpt>
      <trkpt lat="43.40264" lon="2.4356">
        <ele>804.808</ele>
        <time>2021-05-24T12:55:21Z</time>
      </trkpt>
      <trkpt lat="43.40264" lon="2.43555">
        <ele>804.949</ele>
        <time>2021-05-24T12:55:23Z</time>
      </trkpt>
      <trkpt lat="43.40264" lon="2.43551">
        <ele>805.305</ele>
        <time>2021-05-24T12:55:25Z</time>
      </trkpt>
      <trkpt lat="43.40263" lon="2.43546">
        <ele>805.292</ele>
        <time>2021-05-24T12:55:27Z</time>
      </trkpt>
      <trkpt lat="43.40263" lon="2.43542">
        <ele>805.59</ele>
        <time>2021-05-24T12:55:29Z</time>
      </trkpt>
      <trkpt lat="43.40263" lon="2.43538">
        <ele>805.792</ele>
        <time>2021-05-24T12:55:31Z</time>
      </trkpt>
      <trkpt lat="43.40262" lon="2.43534">
        <ele>805.908</ele>
        <time>2021-05-24T12:55:33Z</time>
      </trkpt>
      <trkpt lat="43.40262" lon="2.4353">
        <ele>805.789</ele>
        <time>2021-05-24T12:55:35Z</time>
      </trkpt>
      <trkpt lat="43.40262" lon="2.43527">
        <ele>805.939</ele>
        <time>2021-05-24T12:55:37Z</time>
      </trkpt>
      <trkpt lat="43.40261" lon="2.43523">
        <ele>806.163</ele>
        <time>2021-05-24T12:55:39Z</time>
      </trkpt>
      <trkpt lat="43.40261" lon="2.43519">
        <ele>805.958</ele>
        <time>2021-05-24T12:55:41Z</time>
      </trkpt>
      <trkpt lat="43.4026" lon="2.43515">
        <ele>805.603</ele>
        <time>2021-05-24T12:55:43Z</time>
      </trkpt>
      <trkpt lat="43.4026" lon="2.4351">
        <ele>805.287</ele>
        <time>2021-05-24T12:55:45Z</time>
      </trkpt>
      <trkpt lat="43.40259" lon="2.43506">
        <ele>805.442</ele>
        <time>2021-05-24T12:55:47Z</time>
      </trkpt>
      <trkpt lat="43.40259" lon="2.43502">
        <ele>805.623</ele>
        <time>2021-05-24T12:55:49Z</time>
      </trkpt>
      <trkpt lat="43.40259" lon="2.43497">
        <ele>805.662</ele>
        <time>2021-05-24T12:55:51Z</time>
      </trkpt>
      <trkpt lat="43.40258" lon="2.43493">
        <ele>805.481</ele>
        <time>2021-05-24T12:55:53Z</time>
      </trkpt>
      <trkpt lat="43.40258" lon="2.43489">
        <ele>805.854</ele>
        <time>2021-05-24T12:55:55Z</time>
      </trkpt>
      <trkpt lat="43.40258" lon="2.43484">
        <ele>805.899</ele>
        <time>2021-05-24T12:55:57Z</time>
      </trkpt>
      <trkpt lat="43.40258" lon="2.4348">
        <ele>805.387</ele>
        <time>2021-05-24T12:55:59Z</time>
      </trkpt>
      <trkpt lat="43.40257" lon="2.43476">
        <ele>805.021</ele>
        <time>2021-05-24T12:56:01Z</time>
      </trkpt>
      <trkpt lat="43.40257" lon="2.43472">
        <ele>805.075</ele>
        <time>2021-05-24T12:56:03Z</time>
      </trkpt>
      <trkpt lat="43.40256" lon="2.43468">
        <ele>805.33</ele>
        <time>2021-05-24T12:56:05Z</time>
      </trkpt>
      <trkpt lat="43.40256" lon="2.43464">
        <ele>805.426</ele>
        <time>2021-05-24T12:56:07Z</time>
      </trkpt>
      <trkpt lat="43.40255" lon="2.43459">
        <ele>805.662</ele>
        <time>2021-05-24T12:56:09Z</time>
      </trkpt>
      <trkpt lat="43.40255" lon="2.43454">
        <ele>805.779</ele>
        <time>2021-05-24T12:56:11Z</time>
      </trkpt>
      <trkpt lat="43.40254" lon="2.4345">
        <ele>806.066</ele>
        <time>2021-05-24T12:56:13Z</time>
      </trkpt>
      <trkpt lat="43.40254" lon="2.43445">
        <ele>805.994</ele>
        <time>2021-05-24T12:56:15Z</time>
      </trkpt>
      <trkpt lat="43.40253" lon="2.43441">
        <ele>805.895</ele>
        <time>2021-05-24T12:56:17Z</time>
      </trkpt>
      <trkpt lat="43.40253" lon="2.43437">
        <ele>805.897</ele>
        <time>2021-05-24T12:56:19Z</time>
      </trkpt>
      <trkpt lat="43.40253" lon="2.43433">
        <ele>806.045</ele>
        <time>2021-05-24T12:56:21Z</time>
      </trkpt>
      <trkpt lat="43.40254" lon="2.43429">
        <ele>805.564</ele>
        <time>2021-05-24T12:56:23Z</time>
      </trkpt>
      <trkpt lat="43.40255" lon="2.43425">
        <ele>805.3</ele>
        <time>2021-05-24T12:56:25Z</time>
      </trkpt>
      <trkpt lat="43.40255" lon="2.43421">
        <ele>805.262</ele>
        <time>2021-05-24T12:56:27Z</time>
      </trkpt>
      <trkpt lat="43.40254" lon="2.43417">
        <ele>805.149</ele>
        <time>2021-05-24T12:56:29Z</time>
      </trkpt>
      <trkpt lat="43.40254" lon="2.43413">
        <ele>805.084</ele>
        <time>2021-05-24T12:56:31Z</time>
      </trkpt>
      <trkpt lat="43.40253" lon="2.43409">
        <ele>804.973</ele>
        <time>2021-05-24T12:56:33Z</time>
      </trkpt>
      <trkpt lat="43.40253" lon="2.43404">
        <ele>804.793</ele>
        <time>2021-05-24T12:56:35Z</time>
      </trkpt>
      <trkpt lat="43.40252" lon="2.434">
        <ele>805.033</ele>
        <time>2021-05-24T12:56:37Z</time>
      </trkpt>
      <trkpt lat="43.40251" lon="2.43396">
        <ele>805.079</ele>
        <time>2021-05-24T12:56:39Z</time>
      </trkpt>
      <trkpt lat="43.40251" lon="2.43392">
        <ele>805.019</ele>
        <time>2021-05-24T12:56:41Z</time>
      </trkpt>
      <trkpt lat="43.4025" lon="2.43388">
        <ele>805.019</ele>
        <time>2021-05-24T12:56:43Z</time>
      </trkpt>
      <trkpt lat="43.4025" lon="2.43384">
        <ele>805.128</ele>
        <time>2021-05-24T12:56:45Z</time>
      </trkpt>
      <trkpt lat="43.4025" lon="2.43379">
        <ele>805.705</ele>
        <time>2021-05-24T12:56:47Z</time>
      </trkpt>
      <trkpt lat="43.40249" lon="2.43375">
        <ele>805.972</ele>
        <time>2021-05-24T12:56:49Z</time>
      </trkpt>
      <trkpt lat="43.40249" lon="2.43371">
        <ele>805.779</ele>
        <time>2021-05-24T12:56:51Z</time>
      </trkpt>
      <trkpt lat="43.40249" lon="2.43367">
        <ele>805.403</ele>
        <time>2021-05-24T12:56:53Z</time>
      </trkpt>
      <trkpt lat="43.40248" lon="2.43364">
        <ele>805.178</ele>
        <time>2021-05-24T12:56:55Z</time>
      </trkpt>
      <trkpt lat="43.40248" lon="2.43361">
        <ele>804.615</ele>
        <time>2021-05-24T12:56:57Z</time>
      </trkpt>
      <trkpt lat="43.40248" lon="2.43357">
        <ele>804.824</ele>
        <time>2021-05-24T12:56:59Z</time>
      </trkpt>
      <trkpt lat="43.40248" lon="2.43354">
        <ele>804.887</ele>
        <time>2021-05-24T12:57:01Z</time>
      </trkpt>
      <trkpt lat="43.40249" lon="2.43351">
        <ele>804.871</ele>
        <time>2021-05-24T12:57:03Z</time>
      </trkpt>
      <trkpt lat="43.40251" lon="2.43349">
        <ele>804.823</ele>
        <time>2021-05-24T12:57:05Z</time>
      </trkpt>
      <trkpt lat="43.40253" lon="2.43347">
        <ele>805.202</ele>
        <time>2021-05-24T12:57:07Z</time>
      </trkpt>
      <trkpt lat="43.40255" lon="2.43346">
        <ele>804.897</ele>
        <time>2021-05-24T12:57:09Z</time>
      </trkpt>
      <trkpt lat="43.40256" lon="2.43346">
        <ele>804.67</ele>
        <time>2021-05-24T12:57:10Z</time>
      </trkpt>
      <trkpt lat="43.40259" lon="2.43343">
        <ele>805.652</ele>
        <time>2021-05-24T12:57:13Z</time>
      </trkpt>
      <trkpt lat="43.40262" lon="2.43342">
        <ele>805.514</ele>
        <time>2021-05-24T12:57:15Z</time>
      </trkpt>
      <trkpt lat="43.40265" lon="2.43341">
        <ele>805.597</ele>
        <time>2021-05-24T12:57:17Z</time>
      </trkpt>
      <trkpt lat="43.40267" lon="2.43339">
        <ele>805.43</ele>
        <time>2021-05-24T12:57:19Z</time>
      </trkpt>
      <trkpt lat="43.40269" lon="2.43337">
        <ele>805.473</ele>
        <time>2021-05-24T12:57:21Z</time>
      </trkpt>
      <trkpt lat="43.40271" lon="2.43336">
        <ele>805.864</ele>
        <time>2021-05-24T12:57:23Z</time>
      </trkpt>
      <trkpt lat="43.40274" lon="2.43334">
        <ele>805.808</ele>
        <time>2021-05-24T12:57:25Z</time>
      </trkpt>
      <trkpt lat="43.40276" lon="2.43332">
        <ele>806.488</ele>
        <time>2021-05-24T12:57:27Z</time>
      </trkpt>
      <trkpt lat="43.40278" lon="2.4333">
        <ele>806.957</ele>
        <time>2021-05-24T12:57:29Z</time>
      </trkpt>
      <trkpt lat="43.40281" lon="2.43328">
        <ele>807.476</ele>
        <time>2021-05-24T12:57:31Z</time>
      </trkpt>
      <trkpt lat="43.40283" lon="2.43327">
        <ele>807.127</ele>
        <time>2021-05-24T12:57:33Z</time>
      </trkpt>
      <trkpt lat="43.40286" lon="2.43325">
        <ele>807.251</ele>
        <time>2021-05-24T12:57:35Z</time>
      </trkpt>
      <trkpt lat="43.40288" lon="2.43322">
        <ele>806.951</ele>
        <time>2021-05-24T12:57:37Z</time>
      </trkpt>
      <trkpt lat="43.4029" lon="2.43321">
        <ele>806.746</ele>
        <time>2021-05-24T12:57:39Z</time>
      </trkpt>
      <trkpt lat="43.40292" lon="2.43318">
        <ele>806.301</ele>
        <time>2021-05-24T12:57:41Z</time>
      </trkpt>
      <trkpt lat="43.40294" lon="2.43317">
        <ele>806.405</ele>
        <time>2021-05-24T12:57:43Z</time>
      </trkpt>
      <trkpt lat="43.40297" lon="2.43315">
        <ele>808.525</ele>
        <time>2021-05-24T12:57:45Z</time>
      </trkpt>
      <trkpt lat="43.40298" lon="2.4332">
        <ele>808.948</ele>
        <time>2021-05-24T12:57:47Z</time>
      </trkpt>
      <trkpt lat="43.40296" lon="2.43323">
        <ele>808.113</ele>
        <time>2021-05-24T12:57:49Z</time>
      </trkpt>
      <trkpt lat="43.40293" lon="2.43325">
        <ele>807.408</ele>
        <time>2021-05-24T12:57:51Z</time>
      </trkpt>
      <trkpt lat="43.4029" lon="2.43327">
        <ele>807.434</ele>
        <time>2021-05-24T12:57:53Z</time>
      </trkpt>
      <trkpt lat="43.40288" lon="2.43329">
        <ele>807.293</ele>
        <time>2021-05-24T12:57:55Z</time>
      </trkpt>
      <trkpt lat="43.40286" lon="2.43332">
        <ele>807.107</ele>
        <time>2021-05-24T12:57:57Z</time>
      </trkpt>
      <trkpt lat="43.40285" lon="2.43335">
        <ele>807.106</ele>
        <time>2021-05-24T12:57:59Z</time>
      </trkpt>
      <trkpt lat="43.40285" lon="2.43338">
        <ele>807.389</ele>
        <time>2021-05-24T12:58:01Z</time>
      </trkpt>
      <trkpt lat="43.40285" lon="2.43338">
        <ele>807.448</ele>
        <time>2021-05-24T12:58:03Z</time>
      </trkpt>
      <trkpt lat="43.40285" lon="2.43337">
        <ele>807.948</ele>
        <time>2021-05-24T12:58:05Z</time>
      </trkpt>
      <trkpt lat="43.40285" lon="2.43336">
        <ele>807.787</ele>
        <time>2021-05-24T12:58:07Z</time>
      </trkpt>
      <trkpt lat="43.40285" lon="2.43336">
        <ele>807.781</ele>
        <time>2021-05-24T12:58:09Z</time>
      </trkpt>
      <trkpt lat="43.40285" lon="2.43336">
        <ele>807.775</ele>
        <time>2021-05-24T12:58:11Z</time>
      </trkpt>
      <trkpt lat="43.40286" lon="2.43338">
        <ele>807.272</ele>
        <time>2021-05-24T12:58:13Z</time>
      </trkpt>
      <trkpt lat="43.40288" lon="2.43341">
        <ele>807.687</ele>
        <time>2021-05-24T12:58:15Z</time>
      </trkpt>
      <trkpt lat="43.40289" lon="2.43343">
        <ele>807.812</ele>
        <time>2021-05-24T12:58:17Z</time>
      </trkpt>
      <trkpt lat="43.40291" lon="2.43339">
        <ele>807.484</ele>
        <time>2021-05-24T12:58:19Z</time>
      </trkpt>
      <trkpt lat="43.40289" lon="2.43336">
        <ele>807.369</ele>
        <time>2021-05-24T12:58:21Z</time>
      </trkpt>
      <trkpt lat="43.40288" lon="2.43333">
        <ele>807.069</ele>
        <time>2021-05-24T12:58:23Z</time>
      </trkpt>
      <trkpt lat="43.40288" lon="2.43329">
        <ele>806.789</ele>
        <time>2021-05-24T12:58:25Z</time>
      </trkpt>
      <trkpt lat="43.40289" lon="2.43326">
        <ele>806.678</ele>
        <time>2021-05-24T12:58:27Z</time>
      </trkpt>
      <trkpt lat="43.40291" lon="2.43324">
        <ele>806.653</ele>
        <time>2021-05-24T12:58:29Z</time>
      </trkpt>
      <trkpt lat="43.40292" lon="2.43321">
        <ele>806.568</ele>
        <time>2021-05-24T12:58:31Z</time>
      </trkpt>
      <trkpt lat="43.40294" lon="2.43319">
        <ele>807.381</ele>
        <time>2021-05-24T12:58:33Z</time>
      </trkpt>
      <trkpt lat="43.40296" lon="2.43317">
        <ele>807.476</ele>
        <time>2021-05-24T12:58:35Z</time>
      </trkpt>
      <trkpt lat="43.40298" lon="2.43315">
        <ele>807.523</ele>
        <time>2021-05-24T12:58:37Z</time>
      </trkpt>
      <trkpt lat="43.40301" lon="2.43313">
        <ele>807.513</ele>
        <time>2021-05-24T12:58:39Z</time>
      </trkpt>
      <trkpt lat="43.40303" lon="2.4331">
        <ele>807.74</ele>
        <time>2021-05-24T12:58:41Z</time>
      </trkpt>
      <trkpt lat="43.40305" lon="2.43308">
        <ele>807.715</ele>
        <time>2021-05-24T12:58:43Z</time>
      </trkpt>
      <trkpt lat="43.40307" lon="2.43306">
        <ele>807.449</ele>
        <time>2021-05-24T12:58:45Z</time>
      </trkpt>
      <trkpt lat="43.40309" lon="2.43303">
        <ele>807.504</ele>
        <time>2021-05-24T12:58:47Z</time>
      </trkpt>
      <trkpt lat="43.40309" lon="2.43302">
        <ele>808.859</ele>
        <time>2021-05-24T12:58:49Z</time>
      </trkpt>
      <trkpt lat="43.40309" lon="2.43302">
        <ele>808.948</ele>
        <time>2021-05-24T12:58:51Z</time>
      </trkpt>
      <trkpt lat="43.40309" lon="2.43302">
        <ele>808.943</ele>
        <time>2021-05-24T12:58:53Z</time>
      </trkpt>
      <trkpt lat="43.40309" lon="2.43302">
        <ele>809.092</ele>
        <time>2021-05-24T12:58:55Z</time>
      </trkpt>
      <trkpt lat="43.40309" lon="2.43302">
        <ele>808.725</ele>
        <time>2021-05-24T12:58:57Z</time>
      </trkpt>
      <trkpt lat="43.40308" lon="2.43302">
        <ele>808.607</ele>
        <time>2021-05-24T12:58:59Z</time>
      </trkpt>
      <trkpt lat="43.40308" lon="2.43302">
        <ele>808.5</ele>
        <time>2021-05-24T12:59:01Z</time>
      </trkpt>
      <trkpt lat="43.40308" lon="2.43303">
        <ele>808.626</ele>
        <time>2021-05-24T12:59:03Z</time>
      </trkpt>
      <trkpt lat="43.40308" lon="2.43303">
        <ele>808.188</ele>
        <time>2021-05-24T12:59:05Z</time>
      </trkpt>
      <trkpt lat="43.40308" lon="2.43303">
        <ele>808.183</ele>
        <time>2021-05-24T12:59:07Z</time>
      </trkpt>
      <trkpt lat="43.40308" lon="2.43303">
        <ele>808.185</ele>
        <time>2021-05-24T12:59:09Z</time>
      </trkpt>
      <trkpt lat="43.40308" lon="2.43302">
        <ele>808.273</ele>
        <time>2021-05-24T12:59:11Z</time>
      </trkpt>
      <trkpt lat="43.40308" lon="2.43302">
        <ele>808.271</ele>
        <time>2021-05-24T12:59:13Z</time>
      </trkpt>
      <trkpt lat="43.40308" lon="2.43302">
        <ele>808.265</ele>
        <time>2021-05-24T12:59:15Z</time>
      </trkpt>
      <trkpt lat="43.40308" lon="2.43302">
        <ele>808.265</ele>
        <time>2021-05-24T12:59:17Z</time>
      </trkpt>
      <trkpt lat="43.40308" lon="2.43302">
        <ele>808.258</ele>
        <time>2021-05-24T12:59:19Z</time>
      </trkpt>
      <trkpt lat="43.40308" lon="2.43302">
        <ele>808.398</ele>
        <time>2021-05-24T12:59:21Z</time>
      </trkpt>
      <trkpt lat="43.40307" lon="2.43302">
        <ele>807.976</ele>
        <time>2021-05-24T12:59:23Z</time>
      </trkpt>
      <trkpt lat="43.40307" lon="2.43303">
        <ele>807.973</ele>
        <time>2021-05-24T12:59:25Z</time>
      </trkpt>
      <trkpt lat="43.40307" lon="2.43303">
        <ele>807.976</ele>
        <time>2021-05-24T12:59:27Z</time>
      </trkpt>
      <trkpt lat="43.40307" lon="2.43303">
        <ele>807.975</ele>
        <time>2021-05-24T12:59:29Z</time>
      </trkpt>
      <trkpt lat="43.40307" lon="2.43303">
        <ele>807.975</ele>
        <time>2021-05-24T12:59:31Z</time>
      </trkpt>
      <trkpt lat="43.40307" lon="2.43303">
        <ele>807.975</ele>
        <time>2021-05-24T12:59:33Z</time>
      </trkpt>
      <trkpt lat="43.40307" lon="2.43303">
        <ele>808.067</ele>
        <time>2021-05-24T12:59:35Z</time>
      </trkpt>
      <trkpt lat="43.40307" lon="2.43303">
        <ele>808.07</ele>
        <time>2021-05-24T12:59:37Z</time>
      </trkpt>
      <trkpt lat="43.40307" lon="2.43303">
        <ele>807.991</ele>
        <time>2021-05-24T12:59:39Z</time>
      </trkpt>
      <trkpt lat="43.40307" lon="2.43303">
        <ele>807.889</ele>
        <time>2021-05-24T12:59:41Z</time>
      </trkpt>
      <trkpt lat="43.40306" lon="2.43304">
        <ele>807.608</ele>
        <time>2021-05-24T12:59:43Z</time>
      </trkpt>
      <trkpt lat="43.40305" lon="2.43305">
        <ele>807.802</ele>
        <time>2021-05-24T12:59:45Z</time>
      </trkpt>
      <trkpt lat="43.40304" lon="2.43307">
        <ele>807.644</ele>
        <time>2021-05-24T12:59:47Z</time>
      </trkpt>
      <trkpt lat="43.40301" lon="2.43309">
        <ele>808.428</ele>
        <time>2021-05-24T12:59:49Z</time>
      </trkpt>
      <trkpt lat="43.403" lon="2.43304">
        <ele>808.324</ele>
        <time>2021-05-24T12:59:51Z</time>
      </trkpt>
      <trkpt lat="43.40302" lon="2.43303">
        <ele>807.788</ele>
        <time>2021-05-24T12:59:53Z</time>
      </trkpt>
      <trkpt lat="43.40304" lon="2.43301">
        <ele>807.88</ele>
        <time>2021-05-24T12:59:55Z</time>
      </trkpt>
      <trkpt lat="43.40306" lon="2.433">
        <ele>807.907</ele>
        <time>2021-05-24T12:59:57Z</time>
      </trkpt>
      <trkpt lat="43.40306" lon="2.43297">
        <ele>807.918</ele>
        <time>2021-05-24T12:59:59Z</time>
      </trkpt>
      <trkpt lat="43.40308" lon="2.43295">
        <ele>807.614</ele>
        <time>2021-05-24T13:00:01Z</time>
      </trkpt>
      <trkpt lat="43.4031" lon="2.43293">
        <ele>807.314</ele>
        <time>2021-05-24T13:00:03Z</time>
      </trkpt>
      <trkpt lat="43.40313" lon="2.43291">
        <ele>807.058</ele>
        <time>2021-05-24T13:00:05Z</time>
      </trkpt>
      <trkpt lat="43.40316" lon="2.43289">
        <ele>806.785</ele>
        <time>2021-05-24T13:00:07Z</time>
      </trkpt>
      <trkpt lat="43.40318" lon="2.43287">
        <ele>806.054</ele>
        <time>2021-05-24T13:00:09Z</time>
      </trkpt>
      <trkpt lat="43.40321" lon="2.43286">
        <ele>805.876</ele>
        <time>2021-05-24T13:00:11Z</time>
      </trkpt>
      <trkpt lat="43.40323" lon="2.43284">
        <ele>804.924</ele>
        <time>2021-05-24T13:00:13Z</time>
      </trkpt>
      <trkpt lat="43.40326" lon="2.43281">
        <ele>804.9</ele>
        <time>2021-05-24T13:00:15Z</time>
      </trkpt>
      <trkpt lat="43.40328" lon="2.43279">
        <ele>804.462</ele>
        <time>2021-05-24T13:00:17Z</time>
      </trkpt>
      <trkpt lat="43.40331" lon="2.43277">
        <ele>804.809</ele>
        <time>2021-05-24T13:00:19Z</time>
      </trkpt>
      <trkpt lat="43.40333" lon="2.43276">
        <ele>804.553</ele>
        <time>2021-05-24T13:00:21Z</time>
      </trkpt>
      <trkpt lat="43.40336" lon="2.43274">
        <ele>805.005</ele>
        <time>2021-05-24T13:00:23Z</time>
      </trkpt>
      <trkpt lat="43.40338" lon="2.43271">
        <ele>805.39</ele>
        <time>2021-05-24T13:00:25Z</time>
      </trkpt>
      <trkpt lat="43.40341" lon="2.43269">
        <ele>806.055</ele>
        <time>2021-05-24T13:00:27Z</time>
      </trkpt>
      <trkpt lat="43.40343" lon="2.43267">
        <ele>805.551</ele>
        <time>2021-05-24T13:00:29Z</time>
      </trkpt>
      <trkpt lat="43.40346" lon="2.43265">
        <ele>804.848</ele>
        <time>2021-05-24T13:00:31Z</time>
      </trkpt>
      <trkpt lat="43.40348" lon="2.43263">
        <ele>805.191</ele>
        <time>2021-05-24T13:00:33Z</time>
      </trkpt>
      <trkpt lat="43.40351" lon="2.43261">
        <ele>805.374</ele>
        <time>2021-05-24T13:00:35Z</time>
      </trkpt>
      <trkpt lat="43.40353" lon="2.43259">
        <ele>805.929</ele>
        <time>2021-05-24T13:00:37Z</time>
      </trkpt>
      <trkpt lat="43.40356" lon="2.43257">
        <ele>805.386</ele>
        <time>2021-05-24T13:00:39Z</time>
      </trkpt>
      <trkpt lat="43.40358" lon="2.43255">
        <ele>805.061</ele>
        <time>2021-05-24T13:00:41Z</time>
      </trkpt>
      <trkpt lat="43.40361" lon="2.43252">
        <ele>804.485</ele>
        <time>2021-05-24T13:00:43Z</time>
      </trkpt>
      <trkpt lat="43.40363" lon="2.4325">
        <ele>806.206</ele>
        <time>2021-05-24T13:00:45Z</time>
      </trkpt>
      <trkpt lat="43.40366" lon="2.43247">
        <ele>806.015</ele>
        <time>2021-05-24T13:00:47Z</time>
      </trkpt>
      <trkpt lat="43.40369" lon="2.43245">
        <ele>805.453</ele>
        <time>2021-05-24T13:00:49Z</time>
      </trkpt>
      <trkpt lat="43.40371" lon="2.43243">
        <ele>805.431</ele>
        <time>2021-05-24T13:00:51Z</time>
      </trkpt>
      <trkpt lat="43.40374" lon="2.4324">
        <ele>805.002</ele>
        <time>2021-05-24T13:00:53Z</time>
      </trkpt>
      <trkpt lat="43.40376" lon="2.43239">
        <ele>805.331</ele>
        <time>2021-05-24T13:00:55Z</time>
      </trkpt>
      <trkpt lat="43.40378" lon="2.43237">
        <ele>805.669</ele>
        <time>2021-05-24T13:00:57Z</time>
      </trkpt>
      <trkpt lat="43.40381" lon="2.43234">
        <ele>805.813</ele>
        <time>2021-05-24T13:00:59Z</time>
      </trkpt>
      <trkpt lat="43.40383" lon="2.43233">
        <ele>805.968</ele>
        <time>2021-05-24T13:01:01Z</time>
      </trkpt>
      <trkpt lat="43.40386" lon="2.43232">
        <ele>805.97</ele>
        <time>2021-05-24T13:01:03Z</time>
      </trkpt>
      <trkpt lat="43.40389" lon="2.4323">
        <ele>806.303</ele>
        <time>2021-05-24T13:01:05Z</time>
      </trkpt>
      <trkpt lat="43.40392" lon="2.43229">
        <ele>805.644</ele>
        <time>2021-05-24T13:01:07Z</time>
      </trkpt>
      <trkpt lat="43.40395" lon="2.43228">
        <ele>805.778</ele>
        <time>2021-05-24T13:01:09Z</time>
      </trkpt>
      <trkpt lat="43.40397" lon="2.43226">
        <ele>806.409</ele>
        <time>2021-05-24T13:01:11Z</time>
      </trkpt>
      <trkpt lat="43.404" lon="2.43225">
        <ele>806.139</ele>
        <time>2021-05-24T13:01:13Z</time>
      </trkpt>
      <trkpt lat="43.40402" lon="2.43224">
        <ele>806.172</ele>
        <time>2021-05-24T13:01:15Z</time>
      </trkpt>
      <trkpt lat="43.40405" lon="2.43223">
        <ele>806.347</ele>
        <time>2021-05-24T13:01:17Z</time>
      </trkpt>
      <trkpt lat="43.40408" lon="2.43222">
        <ele>806.303</ele>
        <time>2021-05-24T13:01:19Z</time>
      </trkpt>
      <trkpt lat="43.40411" lon="2.43221">
        <ele>806.383</ele>
        <time>2021-05-24T13:01:21Z</time>
      </trkpt>
      <trkpt lat="43.40414" lon="2.43221">
        <ele>807.242</ele>
        <time>2021-05-24T13:01:23Z</time>
      </trkpt>
      <trkpt lat="43.40417" lon="2.4322">
        <ele>807.018</ele>
        <time>2021-05-24T13:01:25Z</time>
      </trkpt>
      <trkpt lat="43.4042" lon="2.4322">
        <ele>806.891</ele>
        <time>2021-05-24T13:01:27Z</time>
      </trkpt>
      <trkpt lat="43.40422" lon="2.43219">
        <ele>807.738</ele>
        <time>2021-05-24T13:01:29Z</time>
      </trkpt>
      <trkpt lat="43.40425" lon="2.43219">
        <ele>807.264</ele>
        <time>2021-05-24T13:01:31Z</time>
      </trkpt>
      <trkpt lat="43.40428" lon="2.43219">
        <ele>807.904</ele>
        <time>2021-05-24T13:01:33Z</time>
      </trkpt>
      <trkpt lat="43.40432" lon="2.43218">
        <ele>808.047</ele>
        <time>2021-05-24T13:01:35Z</time>
      </trkpt>
      <trkpt lat="43.40434" lon="2.43218">
        <ele>808.563</ele>
        <time>2021-05-24T13:01:37Z</time>
      </trkpt>
      <trkpt lat="43.40437" lon="2.43217">
        <ele>808.431</ele>
        <time>2021-05-24T13:01:39Z</time>
      </trkpt>
      <trkpt lat="43.4044" lon="2.43216">
        <ele>808.661</ele>
        <time>2021-05-24T13:01:41Z</time>
      </trkpt>
      <trkpt lat="43.40442" lon="2.43216">
        <ele>809.205</ele>
        <time>2021-05-24T13:01:43Z</time>
      </trkpt>
      <trkpt lat="43.40445" lon="2.43215">
        <ele>809.439</ele>
        <time>2021-05-24T13:01:45Z</time>
      </trkpt>
      <trkpt lat="43.40448" lon="2.43215">
        <ele>809.467</ele>
        <time>2021-05-24T13:01:47Z</time>
      </trkpt>
      <trkpt lat="43.40451" lon="2.43215">
        <ele>809.558</ele>
        <time>2021-05-24T13:01:49Z</time>
      </trkpt>
      <trkpt lat="43.40454" lon="2.43214">
        <ele>809.732</ele>
        <time>2021-05-24T13:01:51Z</time>
      </trkpt>
      <trkpt lat="43.40456" lon="2.43214">
        <ele>810.366</ele>
        <time>2021-05-24T13:01:53Z</time>
      </trkpt>
      <trkpt lat="43.40459" lon="2.43213">
        <ele>811.289</ele>
        <time>2021-05-24T13:01:55Z</time>
      </trkpt>
      <trkpt lat="43.40463" lon="2.43213">
        <ele>811.234</ele>
        <time>2021-05-24T13:01:57Z</time>
      </trkpt>
      <trkpt lat="43.40466" lon="2.43212">
        <ele>811.073</ele>
        <time>2021-05-24T13:01:59Z</time>
      </trkpt>
      <trkpt lat="43.40469" lon="2.43211">
        <ele>810.575</ele>
        <time>2021-05-24T13:02:01Z</time>
      </trkpt>
      <trkpt lat="43.40472" lon="2.43211">
        <ele>810.94</ele>
        <time>2021-05-24T13:02:03Z</time>
      </trkpt>
      <trkpt lat="43.40474" lon="2.43211">
        <ele>810.896</ele>
        <time>2021-05-24T13:02:05Z</time>
      </trkpt>
      <trkpt lat="43.40477" lon="2.43211">
        <ele>810.818</ele>
        <time>2021-05-24T13:02:07Z</time>
      </trkpt>
      <trkpt lat="43.4048" lon="2.43211">
        <ele>811.141</ele>
        <time>2021-05-24T13:02:09Z</time>
      </trkpt>
      <trkpt lat="43.40483" lon="2.43211">
        <ele>810.338</ele>
        <time>2021-05-24T13:02:11Z</time>
      </trkpt>
      <trkpt lat="43.40485" lon="2.43211">
        <ele>809.707</ele>
        <time>2021-05-24T13:02:13Z</time>
      </trkpt>
      <trkpt lat="43.40488" lon="2.43211">
        <ele>809.178</ele>
        <time>2021-05-24T13:02:15Z</time>
      </trkpt>
      <trkpt lat="43.40491" lon="2.43211">
        <ele>809.145</ele>
        <time>2021-05-24T13:02:17Z</time>
      </trkpt>
      <trkpt lat="43.40494" lon="2.43212">
        <ele>808.768</ele>
        <time>2021-05-24T13:02:19Z</time>
      </trkpt>
      <trkpt lat="43.40497" lon="2.43212">
        <ele>809.26</ele>
        <time>2021-05-24T13:02:21Z</time>
      </trkpt>
      <trkpt lat="43.405" lon="2.43212">
        <ele>809.779</ele>
        <time>2021-05-24T13:02:23Z</time>
      </trkpt>
      <trkpt lat="43.40503" lon="2.43212">
        <ele>810.226</ele>
        <time>2021-05-24T13:02:25Z</time>
      </trkpt>
      <trkpt lat="43.40506" lon="2.43212">
        <ele>810.539</ele>
        <time>2021-05-24T13:02:27Z</time>
      </trkpt>
      <trkpt lat="43.40509" lon="2.43213">
        <ele>811.047</ele>
        <time>2021-05-24T13:02:29Z</time>
      </trkpt>
      <trkpt lat="43.40511" lon="2.43213">
        <ele>811.546</ele>
        <time>2021-05-24T13:02:31Z</time>
      </trkpt>
      <trkpt lat="43.40515" lon="2.43214">
        <ele>811.795</ele>
        <time>2021-05-24T13:02:33Z</time>
      </trkpt>
      <trkpt lat="43.40518" lon="2.43214">
        <ele>811.695</ele>
        <time>2021-05-24T13:02:35Z</time>
      </trkpt>
      <trkpt lat="43.4052" lon="2.43214">
        <ele>811.463</ele>
        <time>2021-05-24T13:02:37Z</time>
      </trkpt>
      <trkpt lat="43.40523" lon="2.43215">
        <ele>811.713</ele>
        <time>2021-05-24T13:02:39Z</time>
      </trkpt>
      <trkpt lat="43.40526" lon="2.43216">
        <ele>812.163</ele>
        <time>2021-05-24T13:02:41Z</time>
      </trkpt>
      <trkpt lat="43.40529" lon="2.43217">
        <ele>812.175</ele>
        <time>2021-05-24T13:02:43Z</time>
      </trkpt>
      <trkpt lat="43.40531" lon="2.43218">
        <ele>812.203</ele>
        <time>2021-05-24T13:02:45Z</time>
      </trkpt>
      <trkpt lat="43.40534" lon="2.4322">
        <ele>811.707</ele>
        <time>2021-05-24T13:02:47Z</time>
      </trkpt>
      <trkpt lat="43.40536" lon="2.43223">
        <ele>811.377</ele>
        <time>2021-05-24T13:02:49Z</time>
      </trkpt>
      <trkpt lat="43.40537" lon="2.43226">
        <ele>811.298</ele>
        <time>2021-05-24T13:02:51Z</time>
      </trkpt>
      <trkpt lat="43.40536" lon="2.43229">
        <ele>811.517</ele>
        <time>2021-05-24T13:02:53Z</time>
      </trkpt>
      <trkpt lat="43.40535" lon="2.43233">
        <ele>811.188</ele>
        <time>2021-05-24T13:02:55Z</time>
      </trkpt>
      <trkpt lat="43.40534" lon="2.43237">
        <ele>811.875</ele>
        <time>2021-05-24T13:02:57Z</time>
      </trkpt>
      <trkpt lat="43.40533" lon="2.4324">
        <ele>812.086</ele>
        <time>2021-05-24T13:02:59Z</time>
      </trkpt>
      <trkpt lat="43.40531" lon="2.43242">
        <ele>812.366</ele>
        <time>2021-05-24T13:03:01Z</time>
      </trkpt>
      <trkpt lat="43.4053" lon="2.43245">
        <ele>812.131</ele>
        <time>2021-05-24T13:03:03Z</time>
      </trkpt>
      <trkpt lat="43.40529" lon="2.43247">
        <ele>812.894</ele>
        <time>2021-05-24T13:03:05Z</time>
      </trkpt>
      <trkpt lat="43.40527" lon="2.4325">
        <ele>812.932</ele>
        <time>2021-05-24T13:03:07Z</time>
      </trkpt>
      <trkpt lat="43.40526" lon="2.43253">
        <ele>812.797</ele>
        <time>2021-05-24T13:03:09Z</time>
      </trkpt>
      <trkpt lat="43.40524" lon="2.43256">
        <ele>813.22</ele>
        <time>2021-05-24T13:03:11Z</time>
      </trkpt>
      <trkpt lat="43.40522" lon="2.43259">
        <ele>813.579</ele>
        <time>2021-05-24T13:03:13Z</time>
      </trkpt>
      <trkpt lat="43.40521" lon="2.43262">
        <ele>813.26</ele>
        <time>2021-05-24T13:03:15Z</time>
      </trkpt>
      <trkpt lat="43.4052" lon="2.43265">
        <ele>813.408</ele>
        <time>2021-05-24T13:03:17Z</time>
      </trkpt>
      <trkpt lat="43.40519" lon="2.43269">
        <ele>813.726</ele>
        <time>2021-05-24T13:03:19Z</time>
      </trkpt>
      <trkpt lat="43.40517" lon="2.43271">
        <ele>814.43</ele>
        <time>2021-05-24T13:03:21Z</time>
      </trkpt>
      <trkpt lat="43.40515" lon="2.43273">
        <ele>815.29</ele>
        <time>2021-05-24T13:03:23Z</time>
      </trkpt>
      <trkpt lat="43.40513" lon="2.43275">
        <ele>816.432</ele>
        <time>2021-05-24T13:03:25Z</time>
      </trkpt>
      <trkpt lat="43.40512" lon="2.43278">
        <ele>817.225</ele>
        <time>2021-05-24T13:03:27Z</time>
      </trkpt>
      <trkpt lat="43.40511" lon="2.4328">
        <ele>817.604</ele>
        <time>2021-05-24T13:03:29Z</time>
      </trkpt>
      <trkpt lat="43.40508" lon="2.43283">
        <ele>817.898</ele>
        <time>2021-05-24T13:03:31Z</time>
      </trkpt>
      <trkpt lat="43.40506" lon="2.43284">
        <ele>818.758</ele>
        <time>2021-05-24T13:03:33Z</time>
      </trkpt>
      <trkpt lat="43.40506" lon="2.43288">
        <ele>818.504</ele>
        <time>2021-05-24T13:03:35Z</time>
      </trkpt>
      <trkpt lat="43.40506" lon="2.43291">
        <ele>818.656</ele>
        <time>2021-05-24T13:03:37Z</time>
      </trkpt>
      <trkpt lat="43.40505" lon="2.43295">
        <ele>819.069</ele>
        <time>2021-05-24T13:03:39Z</time>
      </trkpt>
      <trkpt lat="43.40504" lon="2.43298">
        <ele>818.771</ele>
        <time>2021-05-24T13:03:41Z</time>
      </trkpt>
      <trkpt lat="43.40503" lon="2.43302">
        <ele>818.833</ele>
        <time>2021-05-24T13:03:43Z</time>
      </trkpt>
      <trkpt lat="43.40502" lon="2.43305">
        <ele>818.629</ele>
        <time>2021-05-24T13:03:45Z</time>
      </trkpt>
      <trkpt lat="43.40501" lon="2.43308">
        <ele>819.044</ele>
        <time>2021-05-24T13:03:47Z</time>
      </trkpt>
      <trkpt lat="43.405" lon="2.43312">
        <ele>819.37</ele>
        <time>2021-05-24T13:03:49Z</time>
      </trkpt>
      <trkpt lat="43.40501" lon="2.43316">
        <ele>819.053</ele>
        <time>2021-05-24T13:03:51Z</time>
      </trkpt>
      <trkpt lat="43.405" lon="2.43318">
        <ele>819.767</ele>
        <time>2021-05-24T13:03:53Z</time>
      </trkpt>
      <trkpt lat="43.40498" lon="2.43321">
        <ele>820.42</ele>
        <time>2021-05-24T13:03:55Z</time>
      </trkpt>
      <trkpt lat="43.40496" lon="2.43324">
        <ele>821.292</ele>
        <time>2021-05-24T13:03:57Z</time>
      </trkpt>
      <trkpt lat="43.40495" lon="2.43327">
        <ele>821.223</ele>
        <time>2021-05-24T13:03:59Z</time>
      </trkpt>
      <trkpt lat="43.40494" lon="2.4333">
        <ele>821.329</ele>
        <time>2021-05-24T13:04:01Z</time>
      </trkpt>
      <trkpt lat="43.40492" lon="2.43334">
        <ele>821.815</ele>
        <time>2021-05-24T13:04:03Z</time>
      </trkpt>
      <trkpt lat="43.40492" lon="2.43338">
        <ele>821.963</ele>
        <time>2021-05-24T13:04:05Z</time>
      </trkpt>
      <trkpt lat="43.40491" lon="2.43341">
        <ele>822.031</ele>
        <time>2021-05-24T13:04:07Z</time>
      </trkpt>
      <trkpt lat="43.4049" lon="2.43344">
        <ele>822.367</ele>
        <time>2021-05-24T13:04:09Z</time>
      </trkpt>
      <trkpt lat="43.40489" lon="2.43348">
        <ele>822.453</ele>
        <time>2021-05-24T13:04:11Z</time>
      </trkpt>
      <trkpt lat="43.40488" lon="2.43351">
        <ele>822.482</ele>
        <time>2021-05-24T13:04:13Z</time>
      </trkpt>
      <trkpt lat="43.40488" lon="2.43354">
        <ele>822.603</ele>
        <time>2021-05-24T13:04:15Z</time>
      </trkpt>
      <trkpt lat="43.40487" lon="2.43358">
        <ele>822.547</ele>
        <time>2021-05-24T13:04:17Z</time>
      </trkpt>
      <trkpt lat="43.40486" lon="2.43361">
        <ele>822.501</ele>
        <time>2021-05-24T13:04:19Z</time>
      </trkpt>
      <trkpt lat="43.40485" lon="2.43365">
        <ele>822.563</ele>
        <time>2021-05-24T13:04:21Z</time>
      </trkpt>
      <trkpt lat="43.40484" lon="2.43369">
        <ele>822.929</ele>
        <time>2021-05-24T13:04:23Z</time>
      </trkpt>
      <trkpt lat="43.40483" lon="2.43372">
        <ele>823.086</ele>
        <time>2021-05-24T13:04:25Z</time>
      </trkpt>
      <trkpt lat="43.40483" lon="2.43376">
        <ele>823.358</ele>
        <time>2021-05-24T13:04:27Z</time>
      </trkpt>
      <trkpt lat="43.40482" lon="2.43379">
        <ele>823.088</ele>
        <time>2021-05-24T13:04:29Z</time>
      </trkpt>
      <trkpt lat="43.40481" lon="2.43383">
        <ele>823.076</ele>
        <time>2021-05-24T13:04:31Z</time>
      </trkpt>
      <trkpt lat="43.4048" lon="2.43386">
        <ele>822.331</ele>
        <time>2021-05-24T13:04:33Z</time>
      </trkpt>
      <trkpt lat="43.4048" lon="2.4339">
        <ele>823.19</ele>
        <time>2021-05-24T13:04:35Z</time>
      </trkpt>
      <trkpt lat="43.40479" lon="2.43393">
        <ele>823.419</ele>
        <time>2021-05-24T13:04:37Z</time>
      </trkpt>
      <trkpt lat="43.40478" lon="2.43397">
        <ele>823.938</ele>
        <time>2021-05-24T13:04:39Z</time>
      </trkpt>
      <trkpt lat="43.40477" lon="2.434">
        <ele>824.481</ele>
        <time>2021-05-24T13:04:41Z</time>
      </trkpt>
      <trkpt lat="43.40477" lon="2.43404">
        <ele>824.209</ele>
        <time>2021-05-24T13:04:43Z</time>
      </trkpt>
      <trkpt lat="43.40476" lon="2.43407">
        <ele>824.239</ele>
        <time>2021-05-24T13:04:45Z</time>
      </trkpt>
      <trkpt lat="43.40475" lon="2.43411">
        <ele>824.137</ele>
        <time>2021-05-24T13:04:47Z</time>
      </trkpt>
      <trkpt lat="43.40474" lon="2.43415">
        <ele>824.703</ele>
        <time>2021-05-24T13:04:49Z</time>
      </trkpt>
      <trkpt lat="43.40473" lon="2.43419">
        <ele>825.313</ele>
        <time>2021-05-24T13:04:51Z</time>
      </trkpt>
      <trkpt lat="43.40473" lon="2.43423">
        <ele>825.034</ele>
        <time>2021-05-24T13:04:53Z</time>
      </trkpt>
      <trkpt lat="43.40472" lon="2.43426">
        <ele>825.889</ele>
        <time>2021-05-24T13:04:55Z</time>
      </trkpt>
      <trkpt lat="43.40472" lon="2.4343">
        <ele>826.001</ele>
        <time>2021-05-24T13:04:57Z</time>
      </trkpt>
      <trkpt lat="43.40471" lon="2.43433">
        <ele>826.318</ele>
        <time>2021-05-24T13:04:59Z</time>
      </trkpt>
      <trkpt lat="43.4047" lon="2.43436">
        <ele>826.467</ele>
        <time>2021-05-24T13:05:01Z</time>
      </trkpt>
      <trkpt lat="43.40469" lon="2.4344">
        <ele>826.08</ele>
        <time>2021-05-24T13:05:03Z</time>
      </trkpt>
      <trkpt lat="43.40469" lon="2.43444">
        <ele>825.73</ele>
        <time>2021-05-24T13:05:05Z</time>
      </trkpt>
      <trkpt lat="43.40468" lon="2.43448">
        <ele>825.458</ele>
        <time>2021-05-24T13:05:07Z</time>
      </trkpt>
      <trkpt lat="43.40467" lon="2.43451">
        <ele>826.013</ele>
        <time>2021-05-24T13:05:09Z</time>
      </trkpt>
      <trkpt lat="43.40467" lon="2.43455">
        <ele>825.855</ele>
        <time>2021-05-24T13:05:11Z</time>
      </trkpt>
      <trkpt lat="43.40466" lon="2.43458">
        <ele>826.274</ele>
        <time>2021-05-24T13:05:13Z</time>
      </trkpt>
      <trkpt lat="43.40466" lon="2.43461">
        <ele>826.425</ele>
        <time>2021-05-24T13:05:15Z</time>
      </trkpt>
      <trkpt lat="43.40465" lon="2.43464">
        <ele>826.79</ele>
        <time>2021-05-24T13:05:17Z</time>
      </trkpt>
      <trkpt lat="43.40465" lon="2.43467">
        <ele>827.272</ele>
        <time>2021-05-24T13:05:19Z</time>
      </trkpt>
      <trkpt lat="43.40464" lon="2.43471">
        <ele>827.124</ele>
        <time>2021-05-24T13:05:21Z</time>
      </trkpt>
      <trkpt lat="43.40464" lon="2.43476">
        <ele>827.302</ele>
        <time>2021-05-24T13:05:23Z</time>
      </trkpt>
      <trkpt lat="43.40464" lon="2.4348">
        <ele>827.743</ele>
        <time>2021-05-24T13:05:25Z</time>
      </trkpt>
      <trkpt lat="43.40463" lon="2.43483">
        <ele>828.388</ele>
        <time>2021-05-24T13:05:27Z</time>
      </trkpt>
      <trkpt lat="43.40463" lon="2.43487">
        <ele>829.136</ele>
        <time>2021-05-24T13:05:29Z</time>
      </trkpt>
      <trkpt lat="43.40463" lon="2.4349">
        <ele>829.126</ele>
        <time>2021-05-24T13:05:31Z</time>
      </trkpt>
      <trkpt lat="43.40462" lon="2.43494">
        <ele>828.575</ele>
        <time>2021-05-24T13:05:33Z</time>
      </trkpt>
      <trkpt lat="43.40462" lon="2.43497">
        <ele>828.182</ele>
        <time>2021-05-24T13:05:35Z</time>
      </trkpt>
      <trkpt lat="43.40462" lon="2.43501">
        <ele>828.82</ele>
        <time>2021-05-24T13:05:37Z</time>
      </trkpt>
      <trkpt lat="43.40462" lon="2.43504">
        <ele>829.617</ele>
        <time>2021-05-24T13:05:39Z</time>
      </trkpt>
      <trkpt lat="43.40458" lon="2.43504">
        <ele>828.984</ele>
        <time>2021-05-24T13:05:41Z</time>
      </trkpt>
      <trkpt lat="43.40455" lon="2.43502">
        <ele>827.662</ele>
        <time>2021-05-24T13:05:43Z</time>
      </trkpt>
      <trkpt lat="43.40455" lon="2.43504">
        <ele>827.645</ele>
        <time>2021-05-24T13:05:45Z</time>
      </trkpt>
      <trkpt lat="43.40454" lon="2.43504">
        <ele>827.072</ele>
        <time>2021-05-24T13:05:47Z</time>
      </trkpt>
      <trkpt lat="43.40455" lon="2.43505">
        <ele>826.743</ele>
        <time>2021-05-24T13:05:49Z</time>
      </trkpt>
      <trkpt lat="43.40455" lon="2.43508">
        <ele>826.35</ele>
        <time>2021-05-24T13:05:51Z</time>
      </trkpt>
      <trkpt lat="43.40455" lon="2.43512">
        <ele>827.633</ele>
        <time>2021-05-24T13:05:53Z</time>
      </trkpt>
      <trkpt lat="43.40456" lon="2.43516">
        <ele>827.559</ele>
        <time>2021-05-24T13:05:55Z</time>
      </trkpt>
      <trkpt lat="43.40457" lon="2.43519">
        <ele>828.086</ele>
        <time>2021-05-24T13:05:57Z</time>
      </trkpt>
      <trkpt lat="43.40457" lon="2.43523">
        <ele>827.897</ele>
        <time>2021-05-24T13:05:59Z</time>
      </trkpt>
      <trkpt lat="43.40458" lon="2.43526">
        <ele>828.055</ele>
        <time>2021-05-24T13:06:01Z</time>
      </trkpt>
      <trkpt lat="43.40458" lon="2.4353">
        <ele>827.654</ele>
        <time>2021-05-24T13:06:03Z</time>
      </trkpt>
      <trkpt lat="43.40459" lon="2.43533">
        <ele>827.449</ele>
        <time>2021-05-24T13:06:05Z</time>
      </trkpt>
      <trkpt lat="43.4046" lon="2.43536">
        <ele>827.597</ele>
        <time>2021-05-24T13:06:07Z</time>
      </trkpt>
      <trkpt lat="43.4046" lon="2.4354">
        <ele>827.876</ele>
        <time>2021-05-24T13:06:09Z</time>
      </trkpt>
      <trkpt lat="43.40461" lon="2.43543">
        <ele>827.565</ele>
        <time>2021-05-24T13:06:11Z</time>
      </trkpt>
      <trkpt lat="43.40462" lon="2.43546">
        <ele>828.266</ele>
        <time>2021-05-24T13:06:13Z</time>
      </trkpt>
      <trkpt lat="43.40463" lon="2.43549">
        <ele>828.691</ele>
        <time>2021-05-24T13:06:15Z</time>
      </trkpt>
      <trkpt lat="43.40463" lon="2.43553">
        <ele>828.861</ele>
        <time>2021-05-24T13:06:17Z</time>
      </trkpt>
      <trkpt lat="43.40464" lon="2.43556">
        <ele>828.822</ele>
        <time>2021-05-24T13:06:19Z</time>
      </trkpt>
      <trkpt lat="43.40465" lon="2.4356">
        <ele>828.589</ele>
        <time>2021-05-24T13:06:21Z</time>
      </trkpt>
      <trkpt lat="43.40466" lon="2.43563">
        <ele>828.898</ele>
        <time>2021-05-24T13:06:23Z</time>
      </trkpt>
      <trkpt lat="43.40466" lon="2.43566">
        <ele>828.787</ele>
        <time>2021-05-24T13:06:25Z</time>
      </trkpt>
      <trkpt lat="43.40467" lon="2.4357">
        <ele>828.586</ele>
        <time>2021-05-24T13:06:27Z</time>
      </trkpt>
      <trkpt lat="43.40467" lon="2.43573">
        <ele>828.65</ele>
        <time>2021-05-24T13:06:29Z</time>
      </trkpt>
      <trkpt lat="43.40468" lon="2.43577">
        <ele>829.222</ele>
        <time>2021-05-24T13:06:31Z</time>
      </trkpt>
      <trkpt lat="43.40468" lon="2.43581">
        <ele>829.179</ele>
        <time>2021-05-24T13:06:33Z</time>
      </trkpt>
      <trkpt lat="43.40469" lon="2.43585">
        <ele>829.886</ele>
        <time>2021-05-24T13:06:35Z</time>
      </trkpt>
      <trkpt lat="43.4047" lon="2.43589">
        <ele>829.775</ele>
        <time>2021-05-24T13:06:37Z</time>
      </trkpt>
      <trkpt lat="43.4047" lon="2.43593">
        <ele>829.895</ele>
        <time>2021-05-24T13:06:39Z</time>
      </trkpt>
      <trkpt lat="43.40471" lon="2.43597">
        <ele>830.144</ele>
        <time>2021-05-24T13:06:41Z</time>
      </trkpt>
      <trkpt lat="43.40471" lon="2.43601">
        <ele>829.496</ele>
        <time>2021-05-24T13:06:43Z</time>
      </trkpt>
      <trkpt lat="43.40472" lon="2.43605">
        <ele>829.952</ele>
        <time>2021-05-24T13:06:45Z</time>
      </trkpt>
      <trkpt lat="43.40472" lon="2.43609">
        <ele>829.941</ele>
        <time>2021-05-24T13:06:47Z</time>
      </trkpt>
      <trkpt lat="43.40473" lon="2.43612">
        <ele>829.711</ele>
        <time>2021-05-24T13:06:49Z</time>
      </trkpt>
      <trkpt lat="43.40474" lon="2.43617">
        <ele>830.281</ele>
        <time>2021-05-24T13:06:51Z</time>
      </trkpt>
      <trkpt lat="43.40474" lon="2.43621">
        <ele>830.606</ele>
        <time>2021-05-24T13:06:53Z</time>
      </trkpt>
      <trkpt lat="43.40475" lon="2.43624">
        <ele>830.689</ele>
        <time>2021-05-24T13:06:55Z</time>
      </trkpt>
      <trkpt lat="43.40476" lon="2.43628">
        <ele>830.63</ele>
        <time>2021-05-24T13:06:57Z</time>
      </trkpt>
      <trkpt lat="43.40477" lon="2.43631">
        <ele>829.841</ele>
        <time>2021-05-24T13:06:59Z</time>
      </trkpt>
      <trkpt lat="43.40478" lon="2.43635">
        <ele>830.282</ele>
        <time>2021-05-24T13:07:01Z</time>
      </trkpt>
      <trkpt lat="43.4048" lon="2.43638">
        <ele>829.37</ele>
        <time>2021-05-24T13:07:03Z</time>
      </trkpt>
      <trkpt lat="43.40481" lon="2.4364">
        <ele>828.251</ele>
        <time>2021-05-24T13:07:05Z</time>
      </trkpt>
      <trkpt lat="43.40482" lon="2.43644">
        <ele>827.831</ele>
        <time>2021-05-24T13:07:07Z</time>
      </trkpt>
      <trkpt lat="43.40483" lon="2.43646">
        <ele>827.884</ele>
        <time>2021-05-24T13:07:09Z</time>
      </trkpt>
      <trkpt lat="43.40485" lon="2.43649">
        <ele>828.291</ele>
        <time>2021-05-24T13:07:11Z</time>
      </trkpt>
      <trkpt lat="43.40487" lon="2.43652">
        <ele>827.92</ele>
        <time>2021-05-24T13:07:13Z</time>
      </trkpt>
      <trkpt lat="43.40489" lon="2.43654">
        <ele>827.819</ele>
        <time>2021-05-24T13:07:15Z</time>
      </trkpt>
      <trkpt lat="43.40489" lon="2.43655">
        <ele>827.692</ele>
        <time>2021-05-24T13:07:17Z</time>
      </trkpt>
      <trkpt lat="43.4049" lon="2.43658">
        <ele>827.733</ele>
        <time>2021-05-24T13:07:19Z</time>
      </trkpt>
      <trkpt lat="43.40491" lon="2.43658">
        <ele>829.218</ele>
        <time>2021-05-24T13:07:21Z</time>
      </trkpt>
      <trkpt lat="43.40492" lon="2.43658">
        <ele>827.969</ele>
        <time>2021-05-24T13:07:23Z</time>
      </trkpt>
      <trkpt lat="43.40492" lon="2.43658">
        <ele>827.978</ele>
        <time>2021-05-24T13:07:25Z</time>
      </trkpt>
      <trkpt lat="43.40492" lon="2.43658">
        <ele>827.971</ele>
        <time>2021-05-24T13:07:27Z</time>
      </trkpt>
      <trkpt lat="43.40493" lon="2.43658">
        <ele>827.933</ele>
        <time>2021-05-24T13:07:29Z</time>
      </trkpt>
      <trkpt lat="43.40494" lon="2.43657">
        <ele>829.516</ele>
        <time>2021-05-24T13:07:31Z</time>
      </trkpt>
      <trkpt lat="43.40495" lon="2.43656">
        <ele>829.814</ele>
        <time>2021-05-24T13:07:33Z</time>
      </trkpt>
      <trkpt lat="43.40496" lon="2.43656">
        <ele>828.416</ele>
        <time>2021-05-24T13:07:35Z</time>
      </trkpt>
      <trkpt lat="43.40498" lon="2.43656">
        <ele>828.616</ele>
        <time>2021-05-24T13:07:37Z</time>
      </trkpt>
      <trkpt lat="43.40499" lon="2.43655">
        <ele>830.447</ele>
        <time>2021-05-24T13:07:39Z</time>
      </trkpt>
      <trkpt lat="43.405" lon="2.43655">
        <ele>831.665</ele>
        <time>2021-05-24T13:07:41Z</time>
      </trkpt>
      <trkpt lat="43.405" lon="2.43655">
        <ele>831.683</ele>
        <time>2021-05-24T13:07:43Z</time>
      </trkpt>
      <trkpt lat="43.405" lon="2.43655">
        <ele>831.684</ele>
        <time>2021-05-24T13:07:45Z</time>
      </trkpt>
      <trkpt lat="43.405" lon="2.43655">
        <ele>831.692</ele>
        <time>2021-05-24T13:07:47Z</time>
      </trkpt>
      <trkpt lat="43.40501" lon="2.43654">
        <ele>832.408</ele>
        <time>2021-05-24T13:07:49Z</time>
      </trkpt>
      <trkpt lat="43.40502" lon="2.43653">
        <ele>832.283</ele>
        <time>2021-05-24T13:07:51Z</time>
      </trkpt>
      <trkpt lat="43.40504" lon="2.43653">
        <ele>833.115</ele>
        <time>2021-05-24T13:07:53Z</time>
      </trkpt>
      <trkpt lat="43.40506" lon="2.43652">
        <ele>834.547</ele>
        <time>2021-05-24T13:07:55Z</time>
      </trkpt>
      <trkpt lat="43.40508" lon="2.43651">
        <ele>834.577</ele>
        <time>2021-05-24T13:07:57Z</time>
      </trkpt>
      <trkpt lat="43.40511" lon="2.43651">
        <ele>832.927</ele>
        <time>2021-05-24T13:07:59Z</time>
      </trkpt>
      <trkpt lat="43.40513" lon="2.4365">
        <ele>833.656</ele>
        <time>2021-05-24T13:08:01Z</time>
      </trkpt>
      <trkpt lat="43.40515" lon="2.4365">
        <ele>833.263</ele>
        <time>2021-05-24T13:08:03Z</time>
      </trkpt>
      <trkpt lat="43.40517" lon="2.43651">
        <ele>834.186</ele>
        <time>2021-05-24T13:08:05Z</time>
      </trkpt>
      <trkpt lat="43.4052" lon="2.4365">
        <ele>834.286</ele>
        <time>2021-05-24T13:08:07Z</time>
      </trkpt>
      <trkpt lat="43.40522" lon="2.43651">
        <ele>834.456</ele>
        <time>2021-05-24T13:08:09Z</time>
      </trkpt>
      <trkpt lat="43.40524" lon="2.4365">
        <ele>834.893</ele>
        <time>2021-05-24T13:08:11Z</time>
      </trkpt>
      <trkpt lat="43.40526" lon="2.4365">
        <ele>835.382</ele>
        <time>2021-05-24T13:08:13Z</time>
      </trkpt>
      <trkpt lat="43.40528" lon="2.4365">
        <ele>835.887</ele>
        <time>2021-05-24T13:08:15Z</time>
      </trkpt>
      <trkpt lat="43.4053" lon="2.43649">
        <ele>834.31</ele>
        <time>2021-05-24T13:08:17Z</time>
      </trkpt>
      <trkpt lat="43.40533" lon="2.4365">
        <ele>833.008</ele>
        <time>2021-05-24T13:08:19Z</time>
      </trkpt>
      <trkpt lat="43.40535" lon="2.4365">
        <ele>833.534</ele>
        <time>2021-05-24T13:08:21Z</time>
      </trkpt>
      <trkpt lat="43.40537" lon="2.4365">
        <ele>833.884</ele>
        <time>2021-05-24T13:08:23Z</time>
      </trkpt>
      <trkpt lat="43.40539" lon="2.4365">
        <ele>834.165</ele>
        <time>2021-05-24T13:08:25Z</time>
      </trkpt>
      <trkpt lat="43.40541" lon="2.43649">
        <ele>834.808</ele>
        <time>2021-05-24T13:08:27Z</time>
      </trkpt>
      <trkpt lat="43.40544" lon="2.43649">
        <ele>835.285</ele>
        <time>2021-05-24T13:08:29Z</time>
      </trkpt>
      <trkpt lat="43.40546" lon="2.43649">
        <ele>835.551</ele>
        <time>2021-05-24T13:08:31Z</time>
      </trkpt>
      <trkpt lat="43.40548" lon="2.43649">
        <ele>836.604</ele>
        <time>2021-05-24T13:08:33Z</time>
      </trkpt>
      <trkpt lat="43.4055" lon="2.43649">
        <ele>837.269</ele>
        <time>2021-05-24T13:08:35Z</time>
      </trkpt>
      <trkpt lat="43.40552" lon="2.43648">
        <ele>838.237</ele>
        <time>2021-05-24T13:08:37Z</time>
      </trkpt>
      <trkpt lat="43.40554" lon="2.43647">
        <ele>838.393</ele>
        <time>2021-05-24T13:08:39Z</time>
      </trkpt>
      <trkpt lat="43.40556" lon="2.43646">
        <ele>839.09</ele>
        <time>2021-05-24T13:08:41Z</time>
      </trkpt>
      <trkpt lat="43.40558" lon="2.43645">
        <ele>838.863</ele>
        <time>2021-05-24T13:08:43Z</time>
      </trkpt>
      <trkpt lat="43.40561" lon="2.43645">
        <ele>839.664</ele>
        <time>2021-05-24T13:08:45Z</time>
      </trkpt>
      <trkpt lat="43.40563" lon="2.43643">
        <ele>840.885</ele>
        <time>2021-05-24T13:08:47Z</time>
      </trkpt>
      <trkpt lat="43.40565" lon="2.43642">
        <ele>841.544</ele>
        <time>2021-05-24T13:08:49Z</time>
      </trkpt>
      <trkpt lat="43.40567" lon="2.43642">
        <ele>841.033</ele>
        <time>2021-05-24T13:08:51Z</time>
      </trkpt>
      <trkpt lat="43.40569" lon="2.43641">
        <ele>840.958</ele>
        <time>2021-05-24T13:08:53Z</time>
      </trkpt>
      <trkpt lat="43.40571" lon="2.43641">
        <ele>841.511</ele>
        <time>2021-05-24T13:08:55Z</time>
      </trkpt>
      <trkpt lat="43.40573" lon="2.43641">
        <ele>842.82</ele>
        <time>2021-05-24T13:08:57Z</time>
      </trkpt>
      <trkpt lat="43.40575" lon="2.43642">
        <ele>843.771</ele>
        <time>2021-05-24T13:08:59Z</time>
      </trkpt>
      <trkpt lat="43.40577" lon="2.43642">
        <ele>844.061</ele>
        <time>2021-05-24T13:09:01Z</time>
      </trkpt>
      <trkpt lat="43.40579" lon="2.43642">
        <ele>844.395</ele>
        <time>2021-05-24T13:09:03Z</time>
      </trkpt>
      <trkpt lat="43.40581" lon="2.43643">
        <ele>846.359</ele>
        <time>2021-05-24T13:09:05Z</time>
      </trkpt>
      <trkpt lat="43.40583" lon="2.43644">
        <ele>846.442</ele>
        <time>2021-05-24T13:09:07Z</time>
      </trkpt>
      <trkpt lat="43.40585" lon="2.43643">
        <ele>848.492</ele>
        <time>2021-05-24T13:09:09Z</time>
      </trkpt>
      <trkpt lat="43.40587" lon="2.43642">
        <ele>849.705</ele>
        <time>2021-05-24T13:09:11Z</time>
      </trkpt>
      <trkpt lat="43.40589" lon="2.43642">
        <ele>850.601</ele>
        <time>2021-05-24T13:09:13Z</time>
      </trkpt>
      <trkpt lat="43.40591" lon="2.43643">
        <ele>852.31</ele>
        <time>2021-05-24T13:09:15Z</time>
      </trkpt>
      <trkpt lat="43.40593" lon="2.43644">
        <ele>853.128</ele>
        <time>2021-05-24T13:09:17Z</time>
      </trkpt>
      <trkpt lat="43.40595" lon="2.43644">
        <ele>852.832</ele>
        <time>2021-05-24T13:09:19Z</time>
      </trkpt>
      <trkpt lat="43.40597" lon="2.43645">
        <ele>853.107</ele>
        <time>2021-05-24T13:09:21Z</time>
      </trkpt>
      <trkpt lat="43.40598" lon="2.43645">
        <ele>853.646</ele>
        <time>2021-05-24T13:09:23Z</time>
      </trkpt>
      <trkpt lat="43.406" lon="2.43645">
        <ele>853.43</ele>
        <time>2021-05-24T13:09:25Z</time>
      </trkpt>
      <trkpt lat="43.40602" lon="2.43644">
        <ele>853.146</ele>
        <time>2021-05-24T13:09:27Z</time>
      </trkpt>
      <trkpt lat="43.40604" lon="2.43645">
        <ele>852.871</ele>
        <time>2021-05-24T13:09:29Z</time>
      </trkpt>
      <trkpt lat="43.40606" lon="2.43645">
        <ele>852.216</ele>
        <time>2021-05-24T13:09:31Z</time>
      </trkpt>
      <trkpt lat="43.40608" lon="2.43645">
        <ele>852.818</ele>
        <time>2021-05-24T13:09:33Z</time>
      </trkpt>
      <trkpt lat="43.4061" lon="2.43644">
        <ele>853.74</ele>
        <time>2021-05-24T13:09:35Z</time>
      </trkpt>
      <trkpt lat="43.40612" lon="2.43644">
        <ele>853.602</ele>
        <time>2021-05-24T13:09:37Z</time>
      </trkpt>
      <trkpt lat="43.40614" lon="2.43643">
        <ele>852.339</ele>
        <time>2021-05-24T13:09:39Z</time>
      </trkpt>
      <trkpt lat="43.40617" lon="2.43642">
        <ele>852.539</ele>
        <time>2021-05-24T13:09:41Z</time>
      </trkpt>
      <trkpt lat="43.40619" lon="2.43642">
        <ele>854.912</ele>
        <time>2021-05-24T13:09:43Z</time>
      </trkpt>
      <trkpt lat="43.40621" lon="2.43641">
        <ele>855.075</ele>
        <time>2021-05-24T13:09:45Z</time>
      </trkpt>
      <trkpt lat="43.40623" lon="2.4364">
        <ele>855.647</ele>
        <time>2021-05-24T13:09:47Z</time>
      </trkpt>
      <trkpt lat="43.40625" lon="2.4364">
        <ele>855.299</ele>
        <time>2021-05-24T13:09:49Z</time>
      </trkpt>
      <trkpt lat="43.40627" lon="2.43639">
        <ele>855.555</ele>
        <time>2021-05-24T13:09:51Z</time>
      </trkpt>
      <trkpt lat="43.40629" lon="2.43641">
        <ele>855.347</ele>
        <time>2021-05-24T13:09:53Z</time>
      </trkpt>
      <trkpt lat="43.40631" lon="2.43641">
        <ele>855.479</ele>
        <time>2021-05-24T13:09:55Z</time>
      </trkpt>
      <trkpt lat="43.40633" lon="2.43641">
        <ele>854.377</ele>
        <time>2021-05-24T13:09:57Z</time>
      </trkpt>
      <trkpt lat="43.40635" lon="2.43641">
        <ele>854.967</ele>
        <time>2021-05-24T13:09:59Z</time>
      </trkpt>
      <trkpt lat="43.40637" lon="2.4364">
        <ele>854.819</ele>
        <time>2021-05-24T13:10:01Z</time>
      </trkpt>
      <trkpt lat="43.40639" lon="2.4364">
        <ele>855.458</ele>
        <time>2021-05-24T13:10:03Z</time>
      </trkpt>
      <trkpt lat="43.40641" lon="2.4364">
        <ele>856.082</ele>
        <time>2021-05-24T13:10:05Z</time>
      </trkpt>
      <trkpt lat="43.40643" lon="2.4364">
        <ele>857.135</ele>
        <time>2021-05-24T13:10:07Z</time>
      </trkpt>
      <trkpt lat="43.40645" lon="2.43641">
        <ele>859.59</ele>
        <time>2021-05-24T13:10:09Z</time>
      </trkpt>
      <trkpt lat="43.40647" lon="2.43642">
        <ele>858.798</ele>
        <time>2021-05-24T13:10:11Z</time>
      </trkpt>
      <trkpt lat="43.4065" lon="2.43644">
        <ele>859.343</ele>
        <time>2021-05-24T13:10:13Z</time>
      </trkpt>
      <trkpt lat="43.40652" lon="2.43644">
        <ele>860.048</ele>
        <time>2021-05-24T13:10:15Z</time>
      </trkpt>
      <trkpt lat="43.40654" lon="2.43643">
        <ele>860.706</ele>
        <time>2021-05-24T13:10:17Z</time>
      </trkpt>
      <trkpt lat="43.40656" lon="2.43643">
        <ele>860.355</ele>
        <time>2021-05-24T13:10:19Z</time>
      </trkpt>
      <trkpt lat="43.40658" lon="2.43644">
        <ele>859.576</ele>
        <time>2021-05-24T13:10:21Z</time>
      </trkpt>
      <trkpt lat="43.4066" lon="2.43644">
        <ele>859.887</ele>
        <time>2021-05-24T13:10:23Z</time>
      </trkpt>
      <trkpt lat="43.40662" lon="2.43645">
        <ele>860.482</ele>
        <time>2021-05-24T13:10:25Z</time>
      </trkpt>
      <trkpt lat="43.40663" lon="2.43645">
        <ele>859.847</ele>
        <time>2021-05-24T13:10:27Z</time>
      </trkpt>
      <trkpt lat="43.40665" lon="2.43646">
        <ele>859.374</ele>
        <time>2021-05-24T13:10:29Z</time>
      </trkpt>
      <trkpt lat="43.40667" lon="2.43648">
        <ele>860.651</ele>
        <time>2021-05-24T13:10:31Z</time>
      </trkpt>
      <trkpt lat="43.40669" lon="2.43648">
        <ele>859.928</ele>
        <time>2021-05-24T13:10:33Z</time>
      </trkpt>
      <trkpt lat="43.40672" lon="2.43649">
        <ele>859.955</ele>
        <time>2021-05-24T13:10:35Z</time>
      </trkpt>
      <trkpt lat="43.40673" lon="2.4365">
        <ele>860.161</ele>
        <time>2021-05-24T13:10:37Z</time>
      </trkpt>
      <trkpt lat="43.40676" lon="2.43651">
        <ele>860.297</ele>
        <time>2021-05-24T13:10:40Z</time>
      </trkpt>
      <trkpt lat="43.40678" lon="2.43652">
        <ele>861.059</ele>
        <time>2021-05-24T13:10:42Z</time>
      </trkpt>
      <trkpt lat="43.4068" lon="2.43654">
        <ele>860.726</ele>
        <time>2021-05-24T13:10:44Z</time>
      </trkpt>
      <trkpt lat="43.40682" lon="2.43654">
        <ele>861.358</ele>
        <time>2021-05-24T13:10:46Z</time>
      </trkpt>
      <trkpt lat="43.40684" lon="2.43655">
        <ele>862.654</ele>
        <time>2021-05-24T13:10:48Z</time>
      </trkpt>
      <trkpt lat="43.40687" lon="2.43656">
        <ele>862.773</ele>
        <time>2021-05-24T13:10:50Z</time>
      </trkpt>
      <trkpt lat="43.40689" lon="2.43656">
        <ele>862.678</ele>
        <time>2021-05-24T13:10:52Z</time>
      </trkpt>
      <trkpt lat="43.40691" lon="2.43656">
        <ele>863.341</ele>
        <time>2021-05-24T13:10:54Z</time>
      </trkpt>
      <trkpt lat="43.40693" lon="2.43658">
        <ele>865.198</ele>
        <time>2021-05-24T13:10:56Z</time>
      </trkpt>
      <trkpt lat="43.40695" lon="2.43658">
        <ele>865.881</ele>
        <time>2021-05-24T13:10:58Z</time>
      </trkpt>
      <trkpt lat="43.40698" lon="2.4366">
        <ele>866.374</ele>
        <time>2021-05-24T13:11:00Z</time>
      </trkpt>
      <trkpt lat="43.407" lon="2.43661">
        <ele>866.982</ele>
        <time>2021-05-24T13:11:02Z</time>
      </trkpt>
      <trkpt lat="43.40702" lon="2.43662">
        <ele>867.017</ele>
        <time>2021-05-24T13:11:04Z</time>
      </trkpt>
      <trkpt lat="43.40704" lon="2.43663">
        <ele>866.755</ele>
        <time>2021-05-24T13:11:06Z</time>
      </trkpt>
      <trkpt lat="43.40706" lon="2.43663">
        <ele>867.28</ele>
        <time>2021-05-24T13:11:08Z</time>
      </trkpt>
      <trkpt lat="43.40709" lon="2.43664">
        <ele>867.2</ele>
        <time>2021-05-24T13:11:10Z</time>
      </trkpt>
      <trkpt lat="43.40711" lon="2.43666">
        <ele>869.075</ele>
        <time>2021-05-24T13:11:12Z</time>
      </trkpt>
      <trkpt lat="43.40714" lon="2.43667">
        <ele>869.386</ele>
        <time>2021-05-24T13:11:14Z</time>
      </trkpt>
      <trkpt lat="43.40716" lon="2.43668">
        <ele>869.819</ele>
        <time>2021-05-24T13:11:16Z</time>
      </trkpt>
      <trkpt lat="43.40718" lon="2.43669">
        <ele>870.66</ele>
        <time>2021-05-24T13:11:18Z</time>
      </trkpt>
      <trkpt lat="43.40721" lon="2.43671">
        <ele>871.811</ele>
        <time>2021-05-24T13:11:20Z</time>
      </trkpt>
      <trkpt lat="43.40723" lon="2.43672">
        <ele>872.444</ele>
        <time>2021-05-24T13:11:22Z</time>
      </trkpt>
      <trkpt lat="43.40724" lon="2.43672">
        <ele>873.306</ele>
        <time>2021-05-24T13:11:24Z</time>
      </trkpt>
      <trkpt lat="43.40727" lon="2.43674">
        <ele>872.917</ele>
        <time>2021-05-24T13:11:26Z</time>
      </trkpt>
      <trkpt lat="43.40729" lon="2.43674">
        <ele>872.79</ele>
        <time>2021-05-24T13:11:28Z</time>
      </trkpt>
      <trkpt lat="43.40733" lon="2.43675">
        <ele>873.489</ele>
        <time>2021-05-24T13:11:31Z</time>
      </trkpt>
      <trkpt lat="43.40735" lon="2.43675">
        <ele>873.682</ele>
        <time>2021-05-24T13:11:33Z</time>
      </trkpt>
      <trkpt lat="43.40737" lon="2.43676">
        <ele>873.408</ele>
        <time>2021-05-24T13:11:35Z</time>
      </trkpt>
      <trkpt lat="43.4074" lon="2.43677">
        <ele>874.848</ele>
        <time>2021-05-24T13:11:37Z</time>
      </trkpt>
      <trkpt lat="43.40742" lon="2.43678">
        <ele>874.567</ele>
        <time>2021-05-24T13:11:39Z</time>
      </trkpt>
      <trkpt lat="43.40744" lon="2.43679">
        <ele>874.553</ele>
        <time>2021-05-24T13:11:41Z</time>
      </trkpt>
      <trkpt lat="43.40746" lon="2.4368">
        <ele>875.233</ele>
        <time>2021-05-24T13:11:43Z</time>
      </trkpt>
      <trkpt lat="43.40749" lon="2.43681">
        <ele>876.781</ele>
        <time>2021-05-24T13:11:45Z</time>
      </trkpt>
      <trkpt lat="43.40751" lon="2.43682">
        <ele>877.035</ele>
        <time>2021-05-24T13:11:47Z</time>
      </trkpt>
      <trkpt lat="43.40753" lon="2.43683">
        <ele>876.678</ele>
        <time>2021-05-24T13:11:49Z</time>
      </trkpt>
      <trkpt lat="43.40755" lon="2.43685">
        <ele>878.238</ele>
        <time>2021-05-24T13:11:51Z</time>
      </trkpt>
      <trkpt lat="43.40757" lon="2.43686">
        <ele>879.221</ele>
        <time>2021-05-24T13:11:53Z</time>
      </trkpt>
      <trkpt lat="43.40759" lon="2.43686">
        <ele>879.031</ele>
        <time>2021-05-24T13:11:55Z</time>
      </trkpt>
      <trkpt lat="43.40761" lon="2.43687">
        <ele>879.873</ele>
        <time>2021-05-24T13:11:57Z</time>
      </trkpt>
      <trkpt lat="43.40763" lon="2.43688">
        <ele>880.931</ele>
        <time>2021-05-24T13:11:59Z</time>
      </trkpt>
      <trkpt lat="43.40765" lon="2.43689">
        <ele>880.781</ele>
        <time>2021-05-24T13:12:01Z</time>
      </trkpt>
      <trkpt lat="43.40767" lon="2.4369">
        <ele>881.552</ele>
        <time>2021-05-24T13:12:03Z</time>
      </trkpt>
      <trkpt lat="43.40769" lon="2.4369">
        <ele>881.722</ele>
        <time>2021-05-24T13:12:05Z</time>
      </trkpt>
      <trkpt lat="43.40771" lon="2.4369">
        <ele>882.604</ele>
        <time>2021-05-24T13:12:07Z</time>
      </trkpt>
      <trkpt lat="43.40773" lon="2.43689">
        <ele>881.702</ele>
        <time>2021-05-24T13:12:09Z</time>
      </trkpt>
      <trkpt lat="43.40775" lon="2.43689">
        <ele>882.676</ele>
        <time>2021-05-24T13:12:11Z</time>
      </trkpt>
      <trkpt lat="43.40777" lon="2.4369">
        <ele>882.442</ele>
        <time>2021-05-24T13:12:13Z</time>
      </trkpt>
      <trkpt lat="43.40779" lon="2.4369">
        <ele>882.542</ele>
        <time>2021-05-24T13:12:15Z</time>
      </trkpt>
      <trkpt lat="43.4078" lon="2.43691">
        <ele>882.572</ele>
        <time>2021-05-24T13:12:17Z</time>
      </trkpt>
      <trkpt lat="43.40783" lon="2.43691">
        <ele>882.694</ele>
        <time>2021-05-24T13:12:19Z</time>
      </trkpt>
      <trkpt lat="43.40785" lon="2.43692">
        <ele>881.237</ele>
        <time>2021-05-24T13:12:21Z</time>
      </trkpt>
      <trkpt lat="43.40787" lon="2.43693">
        <ele>881.704</ele>
        <time>2021-05-24T13:12:23Z</time>
      </trkpt>
      <trkpt lat="43.40788" lon="2.43694">
        <ele>882.313</ele>
        <time>2021-05-24T13:12:25Z</time>
      </trkpt>
      <trkpt lat="43.4079" lon="2.43695">
        <ele>881.383</ele>
        <time>2021-05-24T13:12:27Z</time>
      </trkpt>
      <trkpt lat="43.40791" lon="2.43695">
        <ele>880.436</ele>
        <time>2021-05-24T13:12:29Z</time>
      </trkpt>
      <trkpt lat="43.40793" lon="2.43696">
        <ele>881.241</ele>
        <time>2021-05-24T13:12:31Z</time>
      </trkpt>
      <trkpt lat="43.40794" lon="2.43697">
        <ele>881.514</ele>
        <time>2021-05-24T13:12:33Z</time>
      </trkpt>
      <trkpt lat="43.40795" lon="2.43699">
        <ele>881.276</ele>
        <time>2021-05-24T13:12:35Z</time>
      </trkpt>
      <trkpt lat="43.40796" lon="2.43698">
        <ele>881.49</ele>
        <time>2021-05-24T13:12:37Z</time>
      </trkpt>
      <trkpt lat="43.40796" lon="2.43697">
        <ele>881.481</ele>
        <time>2021-05-24T13:12:39Z</time>
      </trkpt>
      <trkpt lat="43.40796" lon="2.43697">
        <ele>881.688</ele>
        <time>2021-05-24T13:12:41Z</time>
      </trkpt>
      <trkpt lat="43.40797" lon="2.43697">
        <ele>881.544</ele>
        <time>2021-05-24T13:12:43Z</time>
      </trkpt>
      <trkpt lat="43.40798" lon="2.43696">
        <ele>881.398</ele>
        <time>2021-05-24T13:12:45Z</time>
      </trkpt>
      <trkpt lat="43.40798" lon="2.43694">
        <ele>881.509</ele>
        <time>2021-05-24T13:12:47Z</time>
      </trkpt>
      <trkpt lat="43.40797" lon="2.43692">
        <ele>880.579</ele>
        <time>2021-05-24T13:12:49Z</time>
      </trkpt>
      <trkpt lat="43.40796" lon="2.43693">
        <ele>880.803</ele>
        <time>2021-05-24T13:12:51Z</time>
      </trkpt>
      <trkpt lat="43.40796" lon="2.43693">
        <ele>880.331</ele>
        <time>2021-05-24T13:12:53Z</time>
      </trkpt>
      <trkpt lat="43.40796" lon="2.43694">
        <ele>879.995</ele>
        <time>2021-05-24T13:12:55Z</time>
      </trkpt>
      <trkpt lat="43.40796" lon="2.43694">
        <ele>879.992</ele>
        <time>2021-05-24T13:12:57Z</time>
      </trkpt>
      <trkpt lat="43.40796" lon="2.43694">
        <ele>879.985</ele>
        <time>2021-05-24T13:12:59Z</time>
      </trkpt>
      <trkpt lat="43.40795" lon="2.43694">
        <ele>880.36</ele>
        <time>2021-05-24T13:13:01Z</time>
      </trkpt>
      <trkpt lat="43.40795" lon="2.43695">
        <ele>879.854</ele>
        <time>2021-05-24T13:13:03Z</time>
      </trkpt>
      <trkpt lat="43.40795" lon="2.43695">
        <ele>879.853</ele>
        <time>2021-05-24T13:13:05Z</time>
      </trkpt>
      <trkpt lat="43.40795" lon="2.43695">
        <ele>879.859</ele>
        <time>2021-05-24T13:13:07Z</time>
      </trkpt>
      <trkpt lat="43.40795" lon="2.43695">
        <ele>879.866</ele>
        <time>2021-05-24T13:13:09Z</time>
      </trkpt>
      <trkpt lat="43.40795" lon="2.43695">
        <ele>879.867</ele>
        <time>2021-05-24T13:13:11Z</time>
      </trkpt>
      <trkpt lat="43.40795" lon="2.43695">
        <ele>879.862</ele>
        <time>2021-05-24T13:13:13Z</time>
      </trkpt>
      <trkpt lat="43.40795" lon="2.43695">
        <ele>879.861</ele>
        <time>2021-05-24T13:13:15Z</time>
      </trkpt>
      <trkpt lat="43.40795" lon="2.43695">
        <ele>879.679</ele>
        <time>2021-05-24T13:13:17Z</time>
      </trkpt>
      <trkpt lat="43.40795" lon="2.43695">
        <ele>879.673</ele>
        <time>2021-05-24T13:13:19Z</time>
      </trkpt>
      <trkpt lat="43.40795" lon="2.43695">
        <ele>879.677</ele>
        <time>2021-05-24T13:13:21Z</time>
      </trkpt>
      <trkpt lat="43.40795" lon="2.43695">
        <ele>879.687</ele>
        <time>2021-05-24T13:13:23Z</time>
      </trkpt>
      <trkpt lat="43.40795" lon="2.43695">
        <ele>879.691</ele>
        <time>2021-05-24T13:13:25Z</time>
      </trkpt>
      <trkpt lat="43.40795" lon="2.43695">
        <ele>879.694</ele>
        <time>2021-05-24T13:13:27Z</time>
      </trkpt>
      <trkpt lat="43.40795" lon="2.43695">
        <ele>879.699</ele>
        <time>2021-05-24T13:13:29Z</time>
      </trkpt>
      <trkpt lat="43.40795" lon="2.43695">
        <ele>879.709</ele>
        <time>2021-05-24T13:13:31Z</time>
      </trkpt>
      <trkpt lat="43.40795" lon="2.43695">
        <ele>879.72</ele>
        <time>2021-05-24T13:13:33Z</time>
      </trkpt>
      <trkpt lat="43.40795" lon="2.43695">
        <ele>879.721</ele>
        <time>2021-05-24T13:13:35Z</time>
      </trkpt>
      <trkpt lat="43.40795" lon="2.43695">
        <ele>879.729</ele>
        <time>2021-05-24T13:13:37Z</time>
      </trkpt>
      <trkpt lat="43.40795" lon="2.43695">
        <ele>879.729</ele>
        <time>2021-05-24T13:13:39Z</time>
      </trkpt>
      <trkpt lat="43.40795" lon="2.43695">
        <ele>879.732</ele>
        <time>2021-05-24T13:13:41Z</time>
      </trkpt>
      <trkpt lat="43.40795" lon="2.43695">
        <ele>879.735</ele>
        <time>2021-05-24T13:13:43Z</time>
      </trkpt>
      <trkpt lat="43.40794" lon="2.43695">
        <ele>879.743</ele>
        <time>2021-05-24T13:13:45Z</time>
      </trkpt>
      <trkpt lat="43.40795" lon="2.43695">
        <ele>879.748</ele>
        <time>2021-05-24T13:13:47Z</time>
      </trkpt>
      <trkpt lat="43.40794" lon="2.43695">
        <ele>879.464</ele>
        <time>2021-05-24T13:13:49Z</time>
      </trkpt>
      <trkpt lat="43.40794" lon="2.43695">
        <ele>879.46</ele>
        <time>2021-05-24T13:13:51Z</time>
      </trkpt>
      <trkpt lat="43.40794" lon="2.43695">
        <ele>879.46</ele>
        <time>2021-05-24T13:13:53Z</time>
      </trkpt>
      <trkpt lat="43.40794" lon="2.43695">
        <ele>880.408</ele>
        <time>2021-05-24T13:13:55Z</time>
      </trkpt>
      <trkpt lat="43.40794" lon="2.43695">
        <ele>880.573</ele>
        <time>2021-05-24T13:13:57Z</time>
      </trkpt>
      <trkpt lat="43.40794" lon="2.43695">
        <ele>880.564</ele>
        <time>2021-05-24T13:13:59Z</time>
      </trkpt>
      <trkpt lat="43.40794" lon="2.43695">
        <ele>880.566</ele>
        <time>2021-05-24T13:14:01Z</time>
      </trkpt>
      <trkpt lat="43.40794" lon="2.43695">
        <ele>880.564</ele>
        <time>2021-05-24T13:14:03Z</time>
      </trkpt>
      <trkpt lat="43.40794" lon="2.43695">
        <ele>880.568</ele>
        <time>2021-05-24T13:14:05Z</time>
      </trkpt>
      <trkpt lat="43.40794" lon="2.43695">
        <ele>880.571</ele>
        <time>2021-05-24T13:14:07Z</time>
      </trkpt>
      <trkpt lat="43.40794" lon="2.43695">
        <ele>880.573</ele>
        <time>2021-05-24T13:14:09Z</time>
      </trkpt>
      <trkpt lat="43.40794" lon="2.43695">
        <ele>880.572</ele>
        <time>2021-05-24T13:14:11Z</time>
      </trkpt>
      <trkpt lat="43.40794" lon="2.43695">
        <ele>880.575</ele>
        <time>2021-05-24T13:14:13Z</time>
      </trkpt>
      <trkpt lat="43.40794" lon="2.43695">
        <ele>880.582</ele>
        <time>2021-05-24T13:14:15Z</time>
      </trkpt>
      <trkpt lat="43.40794" lon="2.43695">
        <ele>880.581</ele>
        <time>2021-05-24T13:14:17Z</time>
      </trkpt>
      <trkpt lat="43.40794" lon="2.43695">
        <ele>880.237</ele>
        <time>2021-05-24T13:14:19Z</time>
      </trkpt>
      <trkpt lat="43.40794" lon="2.43695">
        <ele>880.233</ele>
        <time>2021-05-24T13:14:21Z</time>
      </trkpt>
      <trkpt lat="43.40794" lon="2.43695">
        <ele>879.979</ele>
        <time>2021-05-24T13:14:23Z</time>
      </trkpt>
      <trkpt lat="43.40795" lon="2.43696">
        <ele>879.665</ele>
        <time>2021-05-24T13:14:25Z</time>
      </trkpt>
      <trkpt lat="43.40797" lon="2.43698">
        <ele>878.404</ele>
        <time>2021-05-24T13:14:27Z</time>
      </trkpt>
      <trkpt lat="43.40799" lon="2.437">
        <ele>878.568</ele>
        <time>2021-05-24T13:14:29Z</time>
      </trkpt>
      <trkpt lat="43.408" lon="2.43703">
        <ele>879.212</ele>
        <time>2021-05-24T13:14:31Z</time>
      </trkpt>
      <trkpt lat="43.40802" lon="2.43704">
        <ele>879.41</ele>
        <time>2021-05-24T13:14:33Z</time>
      </trkpt>
      <trkpt lat="43.40803" lon="2.43706">
        <ele>879.832</ele>
        <time>2021-05-24T13:14:35Z</time>
      </trkpt>
      <trkpt lat="43.40805" lon="2.43707">
        <ele>879.845</ele>
        <time>2021-05-24T13:14:37Z</time>
      </trkpt>
      <trkpt lat="43.40807" lon="2.43709">
        <ele>880.645</ele>
        <time>2021-05-24T13:14:39Z</time>
      </trkpt>
      <trkpt lat="43.40808" lon="2.43711">
        <ele>881.132</ele>
        <time>2021-05-24T13:14:41Z</time>
      </trkpt>
      <trkpt lat="43.4081" lon="2.43712">
        <ele>881.53</ele>
        <time>2021-05-24T13:14:43Z</time>
      </trkpt>
      <trkpt lat="43.40812" lon="2.43713">
        <ele>881.529</ele>
        <time>2021-05-24T13:14:45Z</time>
      </trkpt>
      <trkpt lat="43.40814" lon="2.43714">
        <ele>881.367</ele>
        <time>2021-05-24T13:14:47Z</time>
      </trkpt>
      <trkpt lat="43.40816" lon="2.43714">
        <ele>882.515</ele>
        <time>2021-05-24T13:14:49Z</time>
      </trkpt>
      <trkpt lat="43.40815" lon="2.43714">
        <ele>882.298</ele>
        <time>2021-05-24T13:14:51Z</time>
      </trkpt>
      <trkpt lat="43.40815" lon="2.43714">
        <ele>882.297</ele>
        <time>2021-05-24T13:14:53Z</time>
      </trkpt>
      <trkpt lat="43.40815" lon="2.43714">
        <ele>882.293</ele>
        <time>2021-05-24T13:14:55Z</time>
      </trkpt>
      <trkpt lat="43.40815" lon="2.43714">
        <ele>882.289</ele>
        <time>2021-05-24T13:14:57Z</time>
      </trkpt>
      <trkpt lat="43.40815" lon="2.43714">
        <ele>882.296</ele>
        <time>2021-05-24T13:14:59Z</time>
      </trkpt>
      <trkpt lat="43.40815" lon="2.43714">
        <ele>882.302</ele>
        <time>2021-05-24T13:15:01Z</time>
      </trkpt>
      <trkpt lat="43.40815" lon="2.43714">
        <ele>882.308</ele>
        <time>2021-05-24T13:15:03Z</time>
      </trkpt>
      <trkpt lat="43.40815" lon="2.43714">
        <ele>882.313</ele>
        <time>2021-05-24T13:15:05Z</time>
      </trkpt>
      <trkpt lat="43.40815" lon="2.43714">
        <ele>882.317</ele>
        <time>2021-05-24T13:15:07Z</time>
      </trkpt>
      <trkpt lat="43.40815" lon="2.43714">
        <ele>882.328</ele>
        <time>2021-05-24T13:15:09Z</time>
      </trkpt>
      <trkpt lat="43.40815" lon="2.43714">
        <ele>882.336</ele>
        <time>2021-05-24T13:15:11Z</time>
      </trkpt>
      <trkpt lat="43.40815" lon="2.43714">
        <ele>882.349</ele>
        <time>2021-05-24T13:15:13Z</time>
      </trkpt>
      <trkpt lat="43.40815" lon="2.43714">
        <ele>882.357</ele>
        <time>2021-05-24T13:15:15Z</time>
      </trkpt>
      <trkpt lat="43.40816" lon="2.43713">
        <ele>882.897</ele>
        <time>2021-05-24T13:15:17Z</time>
      </trkpt>
      <trkpt lat="43.40816" lon="2.43713">
        <ele>882.895</ele>
        <time>2021-05-24T13:15:19Z</time>
      </trkpt>
      <trkpt lat="43.40816" lon="2.43713">
        <ele>882.895</ele>
        <time>2021-05-24T13:15:21Z</time>
      </trkpt>
      <trkpt lat="43.40816" lon="2.43713">
        <ele>882.901</ele>
        <time>2021-05-24T13:15:23Z</time>
      </trkpt>
      <trkpt lat="43.40816" lon="2.43713">
        <ele>882.904</ele>
        <time>2021-05-24T13:15:25Z</time>
      </trkpt>
      <trkpt lat="43.40816" lon="2.43713">
        <ele>882.905</ele>
        <time>2021-05-24T13:15:27Z</time>
      </trkpt>
      <trkpt lat="43.40815" lon="2.43714">
        <ele>883.846</ele>
        <time>2021-05-24T13:15:29Z</time>
      </trkpt>
      <trkpt lat="43.40812" lon="2.43704">
        <ele>883.261</ele>
        <time>2021-05-24T13:15:31Z</time>
      </trkpt>
      <trkpt lat="43.40813" lon="2.43701">
        <ele>882.699</ele>
        <time>2021-05-24T13:15:33Z</time>
      </trkpt>
      <trkpt lat="43.40811" lon="2.43702">
        <ele>881.88</ele>
        <time>2021-05-24T13:15:35Z</time>
      </trkpt>
      <trkpt lat="43.40809" lon="2.43703">
        <ele>882.218</ele>
        <time>2021-05-24T13:15:37Z</time>
      </trkpt>
      <trkpt lat="43.40808" lon="2.43702">
        <ele>882.63</ele>
        <time>2021-05-24T13:15:39Z</time>
      </trkpt>
      <trkpt lat="43.40806" lon="2.43701">
        <ele>883.342</ele>
        <time>2021-05-24T13:15:41Z</time>
      </trkpt>
      <trkpt lat="43.40804" lon="2.437">
        <ele>883.979</ele>
        <time>2021-05-24T13:15:43Z</time>
      </trkpt>
      <trkpt lat="43.40802" lon="2.43699">
        <ele>884.296</ele>
        <time>2021-05-24T13:15:45Z</time>
      </trkpt>
      <trkpt lat="43.408" lon="2.43697">
        <ele>883.909</ele>
        <time>2021-05-24T13:15:47Z</time>
      </trkpt>
      <trkpt lat="43.40799" lon="2.43695">
        <ele>883.29</ele>
        <time>2021-05-24T13:15:49Z</time>
      </trkpt>
      <trkpt lat="43.40799" lon="2.43693">
        <ele>882.608</ele>
        <time>2021-05-24T13:15:51Z</time>
      </trkpt>
      <trkpt lat="43.40798" lon="2.43691">
        <ele>882.251</ele>
        <time>2021-05-24T13:15:53Z</time>
      </trkpt>
      <trkpt lat="43.40797" lon="2.43688">
        <ele>881.855</ele>
        <time>2021-05-24T13:15:55Z</time>
      </trkpt>
      <trkpt lat="43.40796" lon="2.43684">
        <ele>882.193</ele>
        <time>2021-05-24T13:15:57Z</time>
      </trkpt>
      <trkpt lat="43.40797" lon="2.43681">
        <ele>883.278</ele>
        <time>2021-05-24T13:15:59Z</time>
      </trkpt>
      <trkpt lat="43.40797" lon="2.43678">
        <ele>883.238</ele>
        <time>2021-05-24T13:16:01Z</time>
      </trkpt>
      <trkpt lat="43.40797" lon="2.43676">
        <ele>883.661</ele>
        <time>2021-05-24T13:16:03Z</time>
      </trkpt>
      <trkpt lat="43.40796" lon="2.43673">
        <ele>883.87</ele>
        <time>2021-05-24T13:16:05Z</time>
      </trkpt>
      <trkpt lat="43.40796" lon="2.4367">
        <ele>883.823</ele>
        <time>2021-05-24T13:16:07Z</time>
      </trkpt>
      <trkpt lat="43.40797" lon="2.43667">
        <ele>883.992</ele>
        <time>2021-05-24T13:16:09Z</time>
      </trkpt>
      <trkpt lat="43.40797" lon="2.43664">
        <ele>883.8</ele>
        <time>2021-05-24T13:16:11Z</time>
      </trkpt>
      <trkpt lat="43.40797" lon="2.43661">
        <ele>884.114</ele>
        <time>2021-05-24T13:16:13Z</time>
      </trkpt>
      <trkpt lat="43.40798" lon="2.43658">
        <ele>884.123</ele>
        <time>2021-05-24T13:16:15Z</time>
      </trkpt>
      <trkpt lat="43.40799" lon="2.43655">
        <ele>883.52</ele>
        <time>2021-05-24T13:16:17Z</time>
      </trkpt>
      <trkpt lat="43.408" lon="2.43652">
        <ele>883.537</ele>
        <time>2021-05-24T13:16:19Z</time>
      </trkpt>
      <trkpt lat="43.40801" lon="2.43649">
        <ele>883.604</ele>
        <time>2021-05-24T13:16:21Z</time>
      </trkpt>
      <trkpt lat="43.40802" lon="2.43645">
        <ele>883.708</ele>
        <time>2021-05-24T13:16:23Z</time>
      </trkpt>
      <trkpt lat="43.40803" lon="2.43642">
        <ele>883.32</ele>
        <time>2021-05-24T13:16:25Z</time>
      </trkpt>
      <trkpt lat="43.40805" lon="2.43639">
        <ele>883.402</ele>
        <time>2021-05-24T13:16:27Z</time>
      </trkpt>
      <trkpt lat="43.40806" lon="2.43637">
        <ele>883.494</ele>
        <time>2021-05-24T13:16:29Z</time>
      </trkpt>
      <trkpt lat="43.40807" lon="2.43633">
        <ele>883.963</ele>
        <time>2021-05-24T13:16:31Z</time>
      </trkpt>
      <trkpt lat="43.40808" lon="2.4363">
        <ele>884.09</ele>
        <time>2021-05-24T13:16:33Z</time>
      </trkpt>
      <trkpt lat="43.40809" lon="2.43627">
        <ele>883.883</ele>
        <time>2021-05-24T13:16:35Z</time>
      </trkpt>
      <trkpt lat="43.4081" lon="2.43624">
        <ele>883.858</ele>
        <time>2021-05-24T13:16:37Z</time>
      </trkpt>
      <trkpt lat="43.40812" lon="2.43621">
        <ele>884.058</ele>
        <time>2021-05-24T13:16:39Z</time>
      </trkpt>
      <trkpt lat="43.40813" lon="2.43618">
        <ele>883.929</ele>
        <time>2021-05-24T13:16:41Z</time>
      </trkpt>
      <trkpt lat="43.40815" lon="2.43615">
        <ele>883.728</ele>
        <time>2021-05-24T13:16:43Z</time>
      </trkpt>
      <trkpt lat="43.40817" lon="2.43612">
        <ele>883.734</ele>
        <time>2021-05-24T13:16:45Z</time>
      </trkpt>
      <trkpt lat="43.40818" lon="2.43609">
        <ele>883.766</ele>
        <time>2021-05-24T13:16:47Z</time>
      </trkpt>
      <trkpt lat="43.40819" lon="2.43606">
        <ele>884.214</ele>
        <time>2021-05-24T13:16:49Z</time>
      </trkpt>
      <trkpt lat="43.40821" lon="2.43603">
        <ele>884.79</ele>
        <time>2021-05-24T13:16:51Z</time>
      </trkpt>
      <trkpt lat="43.40822" lon="2.436">
        <ele>884.783</ele>
        <time>2021-05-24T13:16:53Z</time>
      </trkpt>
      <trkpt lat="43.40824" lon="2.43597">
        <ele>885.001</ele>
        <time>2021-05-24T13:16:55Z</time>
      </trkpt>
      <trkpt lat="43.40826" lon="2.43593">
        <ele>885.01</ele>
        <time>2021-05-24T13:16:57Z</time>
      </trkpt>
      <trkpt lat="43.40827" lon="2.4359">
        <ele>885.253</ele>
        <time>2021-05-24T13:16:59Z</time>
      </trkpt>
      <trkpt lat="43.40829" lon="2.43587">
        <ele>885.302</ele>
        <time>2021-05-24T13:17:01Z</time>
      </trkpt>
      <trkpt lat="43.40831" lon="2.43585">
        <ele>885.093</ele>
        <time>2021-05-24T13:17:03Z</time>
      </trkpt>
      <trkpt lat="43.40833" lon="2.43582">
        <ele>884.608</ele>
        <time>2021-05-24T13:17:05Z</time>
      </trkpt>
      <trkpt lat="43.40835" lon="2.43579">
        <ele>884.617</ele>
        <time>2021-05-24T13:17:07Z</time>
      </trkpt>
      <trkpt lat="43.40836" lon="2.43575">
        <ele>884.452</ele>
        <time>2021-05-24T13:17:09Z</time>
      </trkpt>
      <trkpt lat="43.40838" lon="2.43573">
        <ele>884.808</ele>
        <time>2021-05-24T13:17:11Z</time>
      </trkpt>
      <trkpt lat="43.4084" lon="2.4357">
        <ele>884.704</ele>
        <time>2021-05-24T13:17:13Z</time>
      </trkpt>
      <trkpt lat="43.40842" lon="2.43567">
        <ele>885.025</ele>
        <time>2021-05-24T13:17:15Z</time>
      </trkpt>
      <trkpt lat="43.40844" lon="2.43564">
        <ele>885.872</ele>
        <time>2021-05-24T13:17:17Z</time>
      </trkpt>
      <trkpt lat="43.40846" lon="2.43561">
        <ele>886.009</ele>
        <time>2021-05-24T13:17:19Z</time>
      </trkpt>
      <trkpt lat="43.40848" lon="2.43558">
        <ele>886.167</ele>
        <time>2021-05-24T13:17:21Z</time>
      </trkpt>
      <trkpt lat="43.4085" lon="2.43556">
        <ele>886.585</ele>
        <time>2021-05-24T13:17:23Z</time>
      </trkpt>
      <trkpt lat="43.40851" lon="2.43554">
        <ele>885.733</ele>
        <time>2021-05-24T13:17:25Z</time>
      </trkpt>
      <trkpt lat="43.40854" lon="2.43552">
        <ele>884.975</ele>
        <time>2021-05-24T13:17:27Z</time>
      </trkpt>
      <trkpt lat="43.40856" lon="2.4355">
        <ele>885.507</ele>
        <time>2021-05-24T13:17:29Z</time>
      </trkpt>
      <trkpt lat="43.40858" lon="2.43548">
        <ele>885.666</ele>
        <time>2021-05-24T13:17:31Z</time>
      </trkpt>
      <trkpt lat="43.40861" lon="2.43546">
        <ele>885.953</ele>
        <time>2021-05-24T13:17:33Z</time>
      </trkpt>
      <trkpt lat="43.40863" lon="2.43544">
        <ele>885.24</ele>
        <time>2021-05-24T13:17:35Z</time>
      </trkpt>
      <trkpt lat="43.40865" lon="2.43543">
        <ele>885.272</ele>
        <time>2021-05-24T13:17:37Z</time>
      </trkpt>
      <trkpt lat="43.40868" lon="2.4354">
        <ele>884.671</ele>
        <time>2021-05-24T13:17:39Z</time>
      </trkpt>
      <trkpt lat="43.4087" lon="2.43538">
        <ele>884.471</ele>
        <time>2021-05-24T13:17:41Z</time>
      </trkpt>
      <trkpt lat="43.40873" lon="2.43536">
        <ele>884.198</ele>
        <time>2021-05-24T13:17:43Z</time>
      </trkpt>
      <trkpt lat="43.40875" lon="2.43534">
        <ele>884.01</ele>
        <time>2021-05-24T13:17:45Z</time>
      </trkpt>
      <trkpt lat="43.40878" lon="2.43531">
        <ele>884.307</ele>
        <time>2021-05-24T13:17:47Z</time>
      </trkpt>
      <trkpt lat="43.4088" lon="2.43528">
        <ele>884.144</ele>
        <time>2021-05-24T13:17:49Z</time>
      </trkpt>
      <trkpt lat="43.40881" lon="2.43525">
        <ele>883.882</ele>
        <time>2021-05-24T13:17:51Z</time>
      </trkpt>
      <trkpt lat="43.40883" lon="2.43522">
        <ele>883.214</ele>
        <time>2021-05-24T13:17:53Z</time>
      </trkpt>
      <trkpt lat="43.40884" lon="2.43519">
        <ele>883.33</ele>
        <time>2021-05-24T13:17:55Z</time>
      </trkpt>
      <trkpt lat="43.40886" lon="2.43516">
        <ele>883.281</ele>
        <time>2021-05-24T13:17:57Z</time>
      </trkpt>
      <trkpt lat="43.40888" lon="2.43514">
        <ele>883.593</ele>
        <time>2021-05-24T13:17:59Z</time>
      </trkpt>
      <trkpt lat="43.4089" lon="2.43511">
        <ele>884.182</ele>
        <time>2021-05-24T13:18:01Z</time>
      </trkpt>
      <trkpt lat="43.40893" lon="2.4351">
        <ele>884.695</ele>
        <time>2021-05-24T13:18:03Z</time>
      </trkpt>
      <trkpt lat="43.40896" lon="2.43508">
        <ele>884.646</ele>
        <time>2021-05-24T13:18:05Z</time>
      </trkpt>
      <trkpt lat="43.40899" lon="2.43507">
        <ele>884.761</ele>
        <time>2021-05-24T13:18:07Z</time>
      </trkpt>
      <trkpt lat="43.40902" lon="2.43506">
        <ele>884.687</ele>
        <time>2021-05-24T13:18:09Z</time>
      </trkpt>
      <trkpt lat="43.40905" lon="2.43505">
        <ele>884.56</ele>
        <time>2021-05-24T13:18:11Z</time>
      </trkpt>
      <trkpt lat="43.40908" lon="2.43505">
        <ele>884.706</ele>
        <time>2021-05-24T13:18:13Z</time>
      </trkpt>
      <trkpt lat="43.4091" lon="2.43504">
        <ele>884.154</ele>
        <time>2021-05-24T13:18:15Z</time>
      </trkpt>
      <trkpt lat="43.40912" lon="2.43502">
        <ele>883.94</ele>
        <time>2021-05-24T13:18:17Z</time>
      </trkpt>
      <trkpt lat="43.40915" lon="2.43501">
        <ele>884.001</ele>
        <time>2021-05-24T13:18:19Z</time>
      </trkpt>
      <trkpt lat="43.40918" lon="2.435">
        <ele>884.288</ele>
        <time>2021-05-24T13:18:21Z</time>
      </trkpt>
      <trkpt lat="43.40921" lon="2.435">
        <ele>883.759</ele>
        <time>2021-05-24T13:18:23Z</time>
      </trkpt>
      <trkpt lat="43.40923" lon="2.43499">
        <ele>884.076</ele>
        <time>2021-05-24T13:18:25Z</time>
      </trkpt>
      <trkpt lat="43.40926" lon="2.43498">
        <ele>883.559</ele>
        <time>2021-05-24T13:18:27Z</time>
      </trkpt>
      <trkpt lat="43.40928" lon="2.43497">
        <ele>883.283</ele>
        <time>2021-05-24T13:18:29Z</time>
      </trkpt>
      <trkpt lat="43.40931" lon="2.43496">
        <ele>883.565</ele>
        <time>2021-05-24T13:18:31Z</time>
      </trkpt>
      <trkpt lat="43.40933" lon="2.43496">
        <ele>883.817</ele>
        <time>2021-05-24T13:18:33Z</time>
      </trkpt>
      <trkpt lat="43.40936" lon="2.43496">
        <ele>884.01</ele>
        <time>2021-05-24T13:18:35Z</time>
      </trkpt>
      <trkpt lat="43.4094" lon="2.43495">
        <ele>884.553</ele>
        <time>2021-05-24T13:18:37Z</time>
      </trkpt>
      <trkpt lat="43.40942" lon="2.43493">
        <ele>884.813</ele>
        <time>2021-05-24T13:18:39Z</time>
      </trkpt>
      <trkpt lat="43.40944" lon="2.43491">
        <ele>884.796</ele>
        <time>2021-05-24T13:18:41Z</time>
      </trkpt>
      <trkpt lat="43.40946" lon="2.43489">
        <ele>886.008</ele>
        <time>2021-05-24T13:18:43Z</time>
      </trkpt>
      <trkpt lat="43.40949" lon="2.43487">
        <ele>885.932</ele>
        <time>2021-05-24T13:18:45Z</time>
      </trkpt>
      <trkpt lat="43.40952" lon="2.43485">
        <ele>886.69</ele>
        <time>2021-05-24T13:18:47Z</time>
      </trkpt>
      <trkpt lat="43.40954" lon="2.43483">
        <ele>885.467</ele>
        <time>2021-05-24T13:18:49Z</time>
      </trkpt>
      <trkpt lat="43.40957" lon="2.43482">
        <ele>884.615</ele>
        <time>2021-05-24T13:18:51Z</time>
      </trkpt>
      <trkpt lat="43.4096" lon="2.4348">
        <ele>884.294</ele>
        <time>2021-05-24T13:18:53Z</time>
      </trkpt>
      <trkpt lat="43.40962" lon="2.43478">
        <ele>884.723</ele>
        <time>2021-05-24T13:18:55Z</time>
      </trkpt>
      <trkpt lat="43.40965" lon="2.43475">
        <ele>885.484</ele>
        <time>2021-05-24T13:18:57Z</time>
      </trkpt>
      <trkpt lat="43.40968" lon="2.43472">
        <ele>885.542</ele>
        <time>2021-05-24T13:18:59Z</time>
      </trkpt>
      <trkpt lat="43.4097" lon="2.43469">
        <ele>885.926</ele>
        <time>2021-05-24T13:19:01Z</time>
      </trkpt>
      <trkpt lat="43.40972" lon="2.43465">
        <ele>886.849</ele>
        <time>2021-05-24T13:19:03Z</time>
      </trkpt>
      <trkpt lat="43.40974" lon="2.43463">
        <ele>887.682</ele>
        <time>2021-05-24T13:19:05Z</time>
      </trkpt>
      <trkpt lat="43.40976" lon="2.43461">
        <ele>887.685</ele>
        <time>2021-05-24T13:19:07Z</time>
      </trkpt>
      <trkpt lat="43.40979" lon="2.4346">
        <ele>888.223</ele>
        <time>2021-05-24T13:19:09Z</time>
      </trkpt>
      <trkpt lat="43.40981" lon="2.43458">
        <ele>888.021</ele>
        <time>2021-05-24T13:19:11Z</time>
      </trkpt>
      <trkpt lat="43.40983" lon="2.43458">
        <ele>887.936</ele>
        <time>2021-05-24T13:19:13Z</time>
      </trkpt>
      <trkpt lat="43.40986" lon="2.43456">
        <ele>887.949</ele>
        <time>2021-05-24T13:19:15Z</time>
      </trkpt>
      <trkpt lat="43.40988" lon="2.43454">
        <ele>888.374</ele>
        <time>2021-05-24T13:19:17Z</time>
      </trkpt>
      <trkpt lat="43.4099" lon="2.43452">
        <ele>888.803</ele>
        <time>2021-05-24T13:19:19Z</time>
      </trkpt>
      <trkpt lat="43.40992" lon="2.43451">
        <ele>887.988</ele>
        <time>2021-05-24T13:19:21Z</time>
      </trkpt>
      <trkpt lat="43.40994" lon="2.4345">
        <ele>887.837</ele>
        <time>2021-05-24T13:19:23Z</time>
      </trkpt>
      <trkpt lat="43.40997" lon="2.43448">
        <ele>886.174</ele>
        <time>2021-05-24T13:19:25Z</time>
      </trkpt>
      <trkpt lat="43.41" lon="2.43447">
        <ele>884.401</ele>
        <time>2021-05-24T13:19:27Z</time>
      </trkpt>
      <trkpt lat="43.41003" lon="2.43445">
        <ele>883.477</ele>
        <time>2021-05-24T13:19:29Z</time>
      </trkpt>
      <trkpt lat="43.41005" lon="2.43442">
        <ele>882.621</ele>
        <time>2021-05-24T13:19:31Z</time>
      </trkpt>
      <trkpt lat="43.41006" lon="2.4344">
        <ele>884.114</ele>
        <time>2021-05-24T13:19:33Z</time>
      </trkpt>
      <trkpt lat="43.41007" lon="2.43437">
        <ele>885.167</ele>
        <time>2021-05-24T13:19:35Z</time>
      </trkpt>
      <trkpt lat="43.41008" lon="2.43434">
        <ele>885.181</ele>
        <time>2021-05-24T13:19:37Z</time>
      </trkpt>
      <trkpt lat="43.41009" lon="2.43432">
        <ele>884.302</ele>
        <time>2021-05-24T13:19:39Z</time>
      </trkpt>
      <trkpt lat="43.4101" lon="2.43429">
        <ele>886.232</ele>
        <time>2021-05-24T13:19:41Z</time>
      </trkpt>
      <trkpt lat="43.41012" lon="2.43425">
        <ele>884.585</ele>
        <time>2021-05-24T13:19:43Z</time>
      </trkpt>
      <trkpt lat="43.41013" lon="2.43421">
        <ele>884.538</ele>
        <time>2021-05-24T13:19:45Z</time>
      </trkpt>
      <trkpt lat="43.41014" lon="2.43418">
        <ele>883.396</ele>
        <time>2021-05-24T13:19:47Z</time>
      </trkpt>
      <trkpt lat="43.41015" lon="2.43414">
        <ele>884.665</ele>
        <time>2021-05-24T13:19:49Z</time>
      </trkpt>
      <trkpt lat="43.41016" lon="2.4341">
        <ele>882.111</ele>
        <time>2021-05-24T13:19:51Z</time>
      </trkpt>
      <trkpt lat="43.41018" lon="2.43405">
        <ele>881.156</ele>
        <time>2021-05-24T13:19:53Z</time>
      </trkpt>
      <trkpt lat="43.41018" lon="2.43401">
        <ele>881.666</ele>
        <time>2021-05-24T13:19:55Z</time>
      </trkpt>
      <trkpt lat="43.41019" lon="2.43397">
        <ele>881.81</ele>
        <time>2021-05-24T13:19:57Z</time>
      </trkpt>
      <trkpt lat="43.41021" lon="2.43393">
        <ele>878.481</ele>
        <time>2021-05-24T13:19:59Z</time>
      </trkpt>
      <trkpt lat="43.41023" lon="2.4339">
        <ele>879.757</ele>
        <time>2021-05-24T13:20:01Z</time>
      </trkpt>
      <trkpt lat="43.41023" lon="2.43386">
        <ele>879.24</ele>
        <time>2021-05-24T13:20:03Z</time>
      </trkpt>
      <trkpt lat="43.41025" lon="2.43383">
        <ele>879.83</ele>
        <time>2021-05-24T13:20:05Z</time>
      </trkpt>
      <trkpt lat="43.41026" lon="2.4338">
        <ele>880.352</ele>
        <time>2021-05-24T13:20:07Z</time>
      </trkpt>
      <trkpt lat="43.41027" lon="2.43377">
        <ele>879.985</ele>
        <time>2021-05-24T13:20:09Z</time>
      </trkpt>
      <trkpt lat="43.41028" lon="2.43374">
        <ele>878.949</ele>
        <time>2021-05-24T13:20:11Z</time>
      </trkpt>
      <trkpt lat="43.4103" lon="2.43371">
        <ele>879.366</ele>
        <time>2021-05-24T13:20:13Z</time>
      </trkpt>
      <trkpt lat="43.41032" lon="2.43368">
        <ele>878.442</ele>
        <time>2021-05-24T13:20:15Z</time>
      </trkpt>
      <trkpt lat="43.41034" lon="2.43365">
        <ele>878.623</ele>
        <time>2021-05-24T13:20:17Z</time>
      </trkpt>
      <trkpt lat="43.41036" lon="2.43363">
        <ele>880.061</ele>
        <time>2021-05-24T13:20:19Z</time>
      </trkpt>
      <trkpt lat="43.41038" lon="2.4336">
        <ele>880.559</ele>
        <time>2021-05-24T13:20:21Z</time>
      </trkpt>
      <trkpt lat="43.4104" lon="2.43357">
        <ele>882.329</ele>
        <time>2021-05-24T13:20:23Z</time>
      </trkpt>
      <trkpt lat="43.41042" lon="2.43354">
        <ele>882.561</ele>
        <time>2021-05-24T13:20:25Z</time>
      </trkpt>
      <trkpt lat="43.41044" lon="2.43351">
        <ele>883.021</ele>
        <time>2021-05-24T13:20:27Z</time>
      </trkpt>
      <trkpt lat="43.41047" lon="2.43348">
        <ele>884.842</ele>
        <time>2021-05-24T13:20:29Z</time>
      </trkpt>
      <trkpt lat="43.41049" lon="2.43346">
        <ele>884.663</ele>
        <time>2021-05-24T13:20:31Z</time>
      </trkpt>
      <trkpt lat="43.41051" lon="2.43344">
        <ele>884.088</ele>
        <time>2021-05-24T13:20:33Z</time>
      </trkpt>
      <trkpt lat="43.41053" lon="2.43341">
        <ele>884.611</ele>
        <time>2021-05-24T13:20:35Z</time>
      </trkpt>
      <trkpt lat="43.41055" lon="2.43338">
        <ele>884.244</ele>
        <time>2021-05-24T13:20:37Z</time>
      </trkpt>
      <trkpt lat="43.41056" lon="2.43335">
        <ele>885.629</ele>
        <time>2021-05-24T13:20:39Z</time>
      </trkpt>
      <trkpt lat="43.41058" lon="2.43331">
        <ele>886.578</ele>
        <time>2021-05-24T13:20:41Z</time>
      </trkpt>
      <trkpt lat="43.4106" lon="2.43329">
        <ele>885.472</ele>
        <time>2021-05-24T13:20:43Z</time>
      </trkpt>
      <trkpt lat="43.41063" lon="2.43327">
        <ele>887.075</ele>
        <time>2021-05-24T13:20:45Z</time>
      </trkpt>
      <trkpt lat="43.41065" lon="2.43326">
        <ele>888.745</ele>
        <time>2021-05-24T13:20:47Z</time>
      </trkpt>
      <trkpt lat="43.41068" lon="2.43323">
        <ele>887.85</ele>
        <time>2021-05-24T13:20:49Z</time>
      </trkpt>
      <trkpt lat="43.4107" lon="2.43321">
        <ele>888.271</ele>
        <time>2021-05-24T13:20:51Z</time>
      </trkpt>
      <trkpt lat="43.41072" lon="2.43319">
        <ele>887.41</ele>
        <time>2021-05-24T13:20:53Z</time>
      </trkpt>
      <trkpt lat="43.41074" lon="2.43316">
        <ele>886.247</ele>
        <time>2021-05-24T13:20:55Z</time>
      </trkpt>
      <trkpt lat="43.41076" lon="2.43314">
        <ele>886.513</ele>
        <time>2021-05-24T13:20:57Z</time>
      </trkpt>
      <trkpt lat="43.41078" lon="2.43312">
        <ele>886.611</ele>
        <time>2021-05-24T13:20:59Z</time>
      </trkpt>
      <trkpt lat="43.4108" lon="2.43309">
        <ele>884.94</ele>
        <time>2021-05-24T13:21:01Z</time>
      </trkpt>
      <trkpt lat="43.41082" lon="2.43307">
        <ele>884.108</ele>
        <time>2021-05-24T13:21:03Z</time>
      </trkpt>
      <trkpt lat="43.41084" lon="2.43304">
        <ele>881.521</ele>
        <time>2021-05-24T13:21:05Z</time>
      </trkpt>
      <trkpt lat="43.41087" lon="2.43301">
        <ele>883.209</ele>
        <time>2021-05-24T13:21:07Z</time>
      </trkpt>
      <trkpt lat="43.41089" lon="2.433">
        <ele>886.3</ele>
        <time>2021-05-24T13:21:09Z</time>
      </trkpt>
      <trkpt lat="43.41091" lon="2.43297">
        <ele>887.654</ele>
        <time>2021-05-24T13:21:11Z</time>
      </trkpt>
      <trkpt lat="43.41092" lon="2.43294">
        <ele>886.659</ele>
        <time>2021-05-24T13:21:13Z</time>
      </trkpt>
      <trkpt lat="43.41094" lon="2.43292">
        <ele>887.562</ele>
        <time>2021-05-24T13:21:15Z</time>
      </trkpt>
      <trkpt lat="43.41095" lon="2.43289">
        <ele>888.394</ele>
        <time>2021-05-24T13:21:17Z</time>
      </trkpt>
      <trkpt lat="43.41096" lon="2.43286">
        <ele>888.112</ele>
        <time>2021-05-24T13:21:19Z</time>
      </trkpt>
      <trkpt lat="43.41097" lon="2.43283">
        <ele>887.524</ele>
        <time>2021-05-24T13:21:21Z</time>
      </trkpt>
      <trkpt lat="43.41098" lon="2.4328">
        <ele>888.752</ele>
        <time>2021-05-24T13:21:23Z</time>
      </trkpt>
      <trkpt lat="43.41101" lon="2.43278">
        <ele>890.295</ele>
        <time>2021-05-24T13:21:25Z</time>
      </trkpt>
      <trkpt lat="43.41102" lon="2.43274">
        <ele>891.533</ele>
        <time>2021-05-24T13:21:27Z</time>
      </trkpt>
      <trkpt lat="43.41104" lon="2.43271">
        <ele>892.242</ele>
        <time>2021-05-24T13:21:29Z</time>
      </trkpt>
      <trkpt lat="43.41105" lon="2.43268">
        <ele>892.923</ele>
        <time>2021-05-24T13:21:31Z</time>
      </trkpt>
      <trkpt lat="43.41105" lon="2.43265">
        <ele>892.213</ele>
        <time>2021-05-24T13:21:33Z</time>
      </trkpt>
      <trkpt lat="43.41105" lon="2.43263">
        <ele>891.78</ele>
        <time>2021-05-24T13:21:35Z</time>
      </trkpt>
      <trkpt lat="43.41105" lon="2.43261">
        <ele>891.167</ele>
        <time>2021-05-24T13:21:37Z</time>
      </trkpt>
      <trkpt lat="43.41106" lon="2.43259">
        <ele>890.288</ele>
        <time>2021-05-24T13:21:39Z</time>
      </trkpt>
      <trkpt lat="43.41105" lon="2.43256">
        <ele>890.741</ele>
        <time>2021-05-24T13:21:41Z</time>
      </trkpt>
      <trkpt lat="43.41105" lon="2.43253">
        <ele>889.09</ele>
        <time>2021-05-24T13:21:43Z</time>
      </trkpt>
      <trkpt lat="43.41105" lon="2.4325">
        <ele>890.408</ele>
        <time>2021-05-24T13:21:45Z</time>
      </trkpt>
      <trkpt lat="43.41105" lon="2.43247">
        <ele>893.181</ele>
        <time>2021-05-24T13:21:47Z</time>
      </trkpt>
      <trkpt lat="43.41105" lon="2.43243">
        <ele>893.621</ele>
        <time>2021-05-24T13:21:49Z</time>
      </trkpt>
      <trkpt lat="43.41105" lon="2.4324">
        <ele>893.839</ele>
        <time>2021-05-24T13:21:51Z</time>
      </trkpt>
      <trkpt lat="43.41104" lon="2.43238">
        <ele>892.34</ele>
        <time>2021-05-24T13:21:53Z</time>
      </trkpt>
      <trkpt lat="43.41104" lon="2.43234">
        <ele>891.921</ele>
        <time>2021-05-24T13:21:55Z</time>
      </trkpt>
      <trkpt lat="43.41104" lon="2.43231">
        <ele>891.742</ele>
        <time>2021-05-24T13:21:57Z</time>
      </trkpt>
      <trkpt lat="43.41104" lon="2.43227">
        <ele>891.619</ele>
        <time>2021-05-24T13:21:59Z</time>
      </trkpt>
      <trkpt lat="43.41104" lon="2.43224">
        <ele>891.548</ele>
        <time>2021-05-24T13:22:01Z</time>
      </trkpt>
      <trkpt lat="43.41104" lon="2.43221">
        <ele>890.776</ele>
        <time>2021-05-24T13:22:03Z</time>
      </trkpt>
      <trkpt lat="43.41104" lon="2.43217">
        <ele>892.236</ele>
        <time>2021-05-24T13:22:05Z</time>
      </trkpt>
      <trkpt lat="43.41103" lon="2.43214">
        <ele>892.241</ele>
        <time>2021-05-24T13:22:07Z</time>
      </trkpt>
      <trkpt lat="43.41103" lon="2.4321">
        <ele>891.765</ele>
        <time>2021-05-24T13:22:09Z</time>
      </trkpt>
      <trkpt lat="43.41104" lon="2.43206">
        <ele>892.205</ele>
        <time>2021-05-24T13:22:11Z</time>
      </trkpt>
      <trkpt lat="43.41104" lon="2.43201">
        <ele>891.705</ele>
        <time>2021-05-24T13:22:13Z</time>
      </trkpt>
      <trkpt lat="43.41105" lon="2.43197">
        <ele>892.692</ele>
        <time>2021-05-24T13:22:15Z</time>
      </trkpt>
      <trkpt lat="43.41105" lon="2.43193">
        <ele>892.321</ele>
        <time>2021-05-24T13:22:17Z</time>
      </trkpt>
      <trkpt lat="43.41104" lon="2.43189">
        <ele>891.106</ele>
        <time>2021-05-24T13:22:19Z</time>
      </trkpt>
      <trkpt lat="43.41103" lon="2.43186">
        <ele>892.448</ele>
        <time>2021-05-24T13:22:21Z</time>
      </trkpt>
      <trkpt lat="43.41102" lon="2.43183">
        <ele>893.446</ele>
        <time>2021-05-24T13:22:23Z</time>
      </trkpt>
      <trkpt lat="43.41101" lon="2.43179">
        <ele>894.46</ele>
        <time>2021-05-24T13:22:25Z</time>
      </trkpt>
      <trkpt lat="43.411" lon="2.43176">
        <ele>895.117</ele>
        <time>2021-05-24T13:22:27Z</time>
      </trkpt>
      <trkpt lat="43.41099" lon="2.43172">
        <ele>894.158</ele>
        <time>2021-05-24T13:22:29Z</time>
      </trkpt>
      <trkpt lat="43.41099" lon="2.43168">
        <ele>895.131</ele>
        <time>2021-05-24T13:22:31Z</time>
      </trkpt>
      <trkpt lat="43.41098" lon="2.43165">
        <ele>896.534</ele>
        <time>2021-05-24T13:22:33Z</time>
      </trkpt>
      <trkpt lat="43.41097" lon="2.43162">
        <ele>896.319</ele>
        <time>2021-05-24T13:22:35Z</time>
      </trkpt>
      <trkpt lat="43.41096" lon="2.43159">
        <ele>896.21</ele>
        <time>2021-05-24T13:22:37Z</time>
      </trkpt>
      <trkpt lat="43.41095" lon="2.43156">
        <ele>895.529</ele>
        <time>2021-05-24T13:22:39Z</time>
      </trkpt>
      <trkpt lat="43.41094" lon="2.43153">
        <ele>895.605</ele>
        <time>2021-05-24T13:22:41Z</time>
      </trkpt>
      <trkpt lat="43.41093" lon="2.43149">
        <ele>893.76</ele>
        <time>2021-05-24T13:22:43Z</time>
      </trkpt>
      <trkpt lat="43.41093" lon="2.43146">
        <ele>891.995</ele>
        <time>2021-05-24T13:22:45Z</time>
      </trkpt>
      <trkpt lat="43.41092" lon="2.43142">
        <ele>892.795</ele>
        <time>2021-05-24T13:22:47Z</time>
      </trkpt>
      <trkpt lat="43.41091" lon="2.43139">
        <ele>891.98</ele>
        <time>2021-05-24T13:22:49Z</time>
      </trkpt>
      <trkpt lat="43.41091" lon="2.43136">
        <ele>890.092</ele>
        <time>2021-05-24T13:22:51Z</time>
      </trkpt>
      <trkpt lat="43.41091" lon="2.43132">
        <ele>890.874</ele>
        <time>2021-05-24T13:22:53Z</time>
      </trkpt>
      <trkpt lat="43.41091" lon="2.4313">
        <ele>890.75</ele>
        <time>2021-05-24T13:22:54Z</time>
      </trkpt>
      <trkpt lat="43.41088" lon="2.43117">
        <ele>888.852</ele>
        <time>2021-05-24T13:23:01Z</time>
      </trkpt>
      <trkpt lat="43.41088" lon="2.43114">
        <ele>889.11</ele>
        <time>2021-05-24T13:23:03Z</time>
      </trkpt>
      <trkpt lat="43.41088" lon="2.43111">
        <ele>888.808</ele>
        <time>2021-05-24T13:23:05Z</time>
      </trkpt>
      <trkpt lat="43.41088" lon="2.43108">
        <ele>888.138</ele>
        <time>2021-05-24T13:23:07Z</time>
      </trkpt>
      <trkpt lat="43.41088" lon="2.43105">
        <ele>886.911</ele>
        <time>2021-05-24T13:23:09Z</time>
      </trkpt>
      <trkpt lat="43.41087" lon="2.43102">
        <ele>886.445</ele>
        <time>2021-05-24T13:23:11Z</time>
      </trkpt>
      <trkpt lat="43.41087" lon="2.43099">
        <ele>885.974</ele>
        <time>2021-05-24T13:23:13Z</time>
      </trkpt>
      <trkpt lat="43.41087" lon="2.43096">
        <ele>884.33</ele>
        <time>2021-05-24T13:23:15Z</time>
      </trkpt>
      <trkpt lat="43.41087" lon="2.43092">
        <ele>882.724</ele>
        <time>2021-05-24T13:23:17Z</time>
      </trkpt>
      <trkpt lat="43.41086" lon="2.43089">
        <ele>882.654</ele>
        <time>2021-05-24T13:23:19Z</time>
      </trkpt>
      <trkpt lat="43.41086" lon="2.43084">
        <ele>881.684</ele>
        <time>2021-05-24T13:23:22Z</time>
      </trkpt>
      <trkpt lat="43.41086" lon="2.43081">
        <ele>881.086</ele>
        <time>2021-05-24T13:23:24Z</time>
      </trkpt>
      <trkpt lat="43.41086" lon="2.43076">
        <ele>881.221</ele>
        <time>2021-05-24T13:23:26Z</time>
      </trkpt>
      <trkpt lat="43.41086" lon="2.43072">
        <ele>881.871</ele>
        <time>2021-05-24T13:23:28Z</time>
      </trkpt>
      <trkpt lat="43.41086" lon="2.43067">
        <ele>881.628</ele>
        <time>2021-05-24T13:23:30Z</time>
      </trkpt>
      <trkpt lat="43.41086" lon="2.43063">
        <ele>881.366</ele>
        <time>2021-05-24T13:23:32Z</time>
      </trkpt>
      <trkpt lat="43.41086" lon="2.43058">
        <ele>881.561</ele>
        <time>2021-05-24T13:23:34Z</time>
      </trkpt>
      <trkpt lat="43.41086" lon="2.43054">
        <ele>881.474</ele>
        <time>2021-05-24T13:23:36Z</time>
      </trkpt>
      <trkpt lat="43.41086" lon="2.43049">
        <ele>881.421</ele>
        <time>2021-05-24T13:23:38Z</time>
      </trkpt>
      <trkpt lat="43.41086" lon="2.43044">
        <ele>881.567</ele>
        <time>2021-05-24T13:23:40Z</time>
      </trkpt>
      <trkpt lat="43.41086" lon="2.43039">
        <ele>882.856</ele>
        <time>2021-05-24T13:23:42Z</time>
      </trkpt>
      <trkpt lat="43.41087" lon="2.43033">
        <ele>884.319</ele>
        <time>2021-05-24T13:23:44Z</time>
      </trkpt>
      <trkpt lat="43.41087" lon="2.43029">
        <ele>884.9</ele>
        <time>2021-05-24T13:23:46Z</time>
      </trkpt>
      <trkpt lat="43.41087" lon="2.43024">
        <ele>885.373</ele>
        <time>2021-05-24T13:23:48Z</time>
      </trkpt>
      <trkpt lat="43.41087" lon="2.43019">
        <ele>885.622</ele>
        <time>2021-05-24T13:23:50Z</time>
      </trkpt>
      <trkpt lat="43.41087" lon="2.43014">
        <ele>886.426</ele>
        <time>2021-05-24T13:23:52Z</time>
      </trkpt>
      <trkpt lat="43.41087" lon="2.43009">
        <ele>887.003</ele>
        <time>2021-05-24T13:23:54Z</time>
      </trkpt>
      <trkpt lat="43.41088" lon="2.43005">
        <ele>886.947</ele>
        <time>2021-05-24T13:23:56Z</time>
      </trkpt>
      <trkpt lat="43.41089" lon="2.43001">
        <ele>887.47</ele>
        <time>2021-05-24T13:23:58Z</time>
      </trkpt>
      <trkpt lat="43.4109" lon="2.42997">
        <ele>887.352</ele>
        <time>2021-05-24T13:24:00Z</time>
      </trkpt>
      <trkpt lat="43.41091" lon="2.42993">
        <ele>887.237</ele>
        <time>2021-05-24T13:24:02Z</time>
      </trkpt>
      <trkpt lat="43.41092" lon="2.42988">
        <ele>886.873</ele>
        <time>2021-05-24T13:24:04Z</time>
      </trkpt>
      <trkpt lat="43.41092" lon="2.42984">
        <ele>887.526</ele>
        <time>2021-05-24T13:24:06Z</time>
      </trkpt>
      <trkpt lat="43.41093" lon="2.42979">
        <ele>889.334</ele>
        <time>2021-05-24T13:24:08Z</time>
      </trkpt>
      <trkpt lat="43.41094" lon="2.42975">
        <ele>890.142</ele>
        <time>2021-05-24T13:24:10Z</time>
      </trkpt>
      <trkpt lat="43.41094" lon="2.42971">
        <ele>890.145</ele>
        <time>2021-05-24T13:24:12Z</time>
      </trkpt>
      <trkpt lat="43.41094" lon="2.42966">
        <ele>889.927</ele>
        <time>2021-05-24T13:24:14Z</time>
      </trkpt>
      <trkpt lat="43.41094" lon="2.42962">
        <ele>889.7</ele>
        <time>2021-05-24T13:24:16Z</time>
      </trkpt>
      <trkpt lat="43.41095" lon="2.42957">
        <ele>890.164</ele>
        <time>2021-05-24T13:24:18Z</time>
      </trkpt>
      <trkpt lat="43.41095" lon="2.42953">
        <ele>890.71</ele>
        <time>2021-05-24T13:24:20Z</time>
      </trkpt>
      <trkpt lat="43.41096" lon="2.42949">
        <ele>890.147</ele>
        <time>2021-05-24T13:24:22Z</time>
      </trkpt>
      <trkpt lat="43.41096" lon="2.42945">
        <ele>890.516</ele>
        <time>2021-05-24T13:24:24Z</time>
      </trkpt>
      <trkpt lat="43.41096" lon="2.4294">
        <ele>890.484</ele>
        <time>2021-05-24T13:24:26Z</time>
      </trkpt>
      <trkpt lat="43.41097" lon="2.42936">
        <ele>890.618</ele>
        <time>2021-05-24T13:24:28Z</time>
      </trkpt>
      <trkpt lat="43.41097" lon="2.42931">
        <ele>890.911</ele>
        <time>2021-05-24T13:24:30Z</time>
      </trkpt>
      <trkpt lat="43.41098" lon="2.42927">
        <ele>890.636</ele>
        <time>2021-05-24T13:24:32Z</time>
      </trkpt>
      <trkpt lat="43.41098" lon="2.42923">
        <ele>890.267</ele>
        <time>2021-05-24T13:24:34Z</time>
      </trkpt>
      <trkpt lat="43.41099" lon="2.42918">
        <ele>890.072</ele>
        <time>2021-05-24T13:24:36Z</time>
      </trkpt>
      <trkpt lat="43.41099" lon="2.42913">
        <ele>890.07</ele>
        <time>2021-05-24T13:24:38Z</time>
      </trkpt>
      <trkpt lat="43.411" lon="2.42909">
        <ele>889.727</ele>
        <time>2021-05-24T13:24:40Z</time>
      </trkpt>
      <trkpt lat="43.411" lon="2.42905">
        <ele>889.804</ele>
        <time>2021-05-24T13:24:42Z</time>
      </trkpt>
      <trkpt lat="43.41101" lon="2.429">
        <ele>889.561</ele>
        <time>2021-05-24T13:24:44Z</time>
      </trkpt>
      <trkpt lat="43.41102" lon="2.42897">
        <ele>888.577</ele>
        <time>2021-05-24T13:24:46Z</time>
      </trkpt>
      <trkpt lat="43.41102" lon="2.42893">
        <ele>888.687</ele>
        <time>2021-05-24T13:24:48Z</time>
      </trkpt>
      <trkpt lat="43.41103" lon="2.42888">
        <ele>888.5</ele>
        <time>2021-05-24T13:24:50Z</time>
      </trkpt>
      <trkpt lat="43.41103" lon="2.42884">
        <ele>888.428</ele>
        <time>2021-05-24T13:24:52Z</time>
      </trkpt>
      <trkpt lat="43.41104" lon="2.42879">
        <ele>889.906</ele>
        <time>2021-05-24T13:24:54Z</time>
      </trkpt>
      <trkpt lat="43.41105" lon="2.42875">
        <ele>890.229</ele>
        <time>2021-05-24T13:24:56Z</time>
      </trkpt>
      <trkpt lat="43.41106" lon="2.4287">
        <ele>890.106</ele>
        <time>2021-05-24T13:24:58Z</time>
      </trkpt>
      <trkpt lat="43.41107" lon="2.42866">
        <ele>890.413</ele>
        <time>2021-05-24T13:25:00Z</time>
      </trkpt>
      <trkpt lat="43.41107" lon="2.42862">
        <ele>890.434</ele>
        <time>2021-05-24T13:25:02Z</time>
      </trkpt>
      <trkpt lat="43.41108" lon="2.42858">
        <ele>889.917</ele>
        <time>2021-05-24T13:25:04Z</time>
      </trkpt>
      <trkpt lat="43.41108" lon="2.42854">
        <ele>890.345</ele>
        <time>2021-05-24T13:25:06Z</time>
      </trkpt>
      <trkpt lat="43.41109" lon="2.4285">
        <ele>890.405</ele>
        <time>2021-05-24T13:25:08Z</time>
      </trkpt>
      <trkpt lat="43.41109" lon="2.42845">
        <ele>890.596</ele>
        <time>2021-05-24T13:25:10Z</time>
      </trkpt>
      <trkpt lat="43.4111" lon="2.42841">
        <ele>891.553</ele>
        <time>2021-05-24T13:25:12Z</time>
      </trkpt>
      <trkpt lat="43.4111" lon="2.42836">
        <ele>891.765</ele>
        <time>2021-05-24T13:25:14Z</time>
      </trkpt>
      <trkpt lat="43.41111" lon="2.42832">
        <ele>891.831</ele>
        <time>2021-05-24T13:25:16Z</time>
      </trkpt>
      <trkpt lat="43.41111" lon="2.42828">
        <ele>891.832</ele>
        <time>2021-05-24T13:25:18Z</time>
      </trkpt>
      <trkpt lat="43.41112" lon="2.42824">
        <ele>891.679</ele>
        <time>2021-05-24T13:25:20Z</time>
      </trkpt>
      <trkpt lat="43.41112" lon="2.4282">
        <ele>891.849</ele>
        <time>2021-05-24T13:25:22Z</time>
      </trkpt>
      <trkpt lat="43.41112" lon="2.42816">
        <ele>892.117</ele>
        <time>2021-05-24T13:25:24Z</time>
      </trkpt>
      <trkpt lat="43.41111" lon="2.42813">
        <ele>892.928</ele>
        <time>2021-05-24T13:25:26Z</time>
      </trkpt>
      <trkpt lat="43.41112" lon="2.42814">
        <ele>892.28</ele>
        <time>2021-05-24T13:25:28Z</time>
      </trkpt>
      <trkpt lat="43.41113" lon="2.42812">
        <ele>891.276</ele>
        <time>2021-05-24T13:25:30Z</time>
      </trkpt>
      <trkpt lat="43.41115" lon="2.4281">
        <ele>890.91</ele>
        <time>2021-05-24T13:25:32Z</time>
      </trkpt>
      <trkpt lat="43.41116" lon="2.42808">
        <ele>890.96</ele>
        <time>2021-05-24T13:25:34Z</time>
      </trkpt>
      <trkpt lat="43.41117" lon="2.42807">
        <ele>890.358</ele>
        <time>2021-05-24T13:25:36Z</time>
      </trkpt>
      <trkpt lat="43.41117" lon="2.42807">
        <ele>889.282</ele>
        <time>2021-05-24T13:25:38Z</time>
      </trkpt>
      <trkpt lat="43.41117" lon="2.42807">
        <ele>889.283</ele>
        <time>2021-05-24T13:25:40Z</time>
      </trkpt>
      <trkpt lat="43.41117" lon="2.42807">
        <ele>889.286</ele>
        <time>2021-05-24T13:25:42Z</time>
      </trkpt>
      <trkpt lat="43.41117" lon="2.42807">
        <ele>889.284</ele>
        <time>2021-05-24T13:25:44Z</time>
      </trkpt>
      <trkpt lat="43.41116" lon="2.42807">
        <ele>889.662</ele>
        <time>2021-05-24T13:25:46Z</time>
      </trkpt>
      <trkpt lat="43.41116" lon="2.42807">
        <ele>889.655</ele>
        <time>2021-05-24T13:25:48Z</time>
      </trkpt>
      <trkpt lat="43.41116" lon="2.42807">
        <ele>889.65</ele>
        <time>2021-05-24T13:25:50Z</time>
      </trkpt>
      <trkpt lat="43.41116" lon="2.42807">
        <ele>889.645</ele>
        <time>2021-05-24T13:25:52Z</time>
      </trkpt>
      <trkpt lat="43.41116" lon="2.42807">
        <ele>889.641</ele>
        <time>2021-05-24T13:25:54Z</time>
      </trkpt>
      <trkpt lat="43.41116" lon="2.42807">
        <ele>889.64</ele>
        <time>2021-05-24T13:25:56Z</time>
      </trkpt>
      <trkpt lat="43.41116" lon="2.42807">
        <ele>889.634</ele>
        <time>2021-05-24T13:25:58Z</time>
      </trkpt>
      <trkpt lat="43.41116" lon="2.42807">
        <ele>889.629</ele>
        <time>2021-05-24T13:26:00Z</time>
      </trkpt>
      <trkpt lat="43.41116" lon="2.42807">
        <ele>889.621</ele>
        <time>2021-05-24T13:26:02Z</time>
      </trkpt>
      <trkpt lat="43.41116" lon="2.42807">
        <ele>889.619</ele>
        <time>2021-05-24T13:26:04Z</time>
      </trkpt>
      <trkpt lat="43.41116" lon="2.42807">
        <ele>889.618</ele>
        <time>2021-05-24T13:26:06Z</time>
      </trkpt>
      <trkpt lat="43.41116" lon="2.42807">
        <ele>889.611</ele>
        <time>2021-05-24T13:26:08Z</time>
      </trkpt>
      <trkpt lat="43.41116" lon="2.42807">
        <ele>889.608</ele>
        <time>2021-05-24T13:26:10Z</time>
      </trkpt>
      <trkpt lat="43.41116" lon="2.42807">
        <ele>889.325</ele>
        <time>2021-05-24T13:26:12Z</time>
      </trkpt>
      <trkpt lat="43.41116" lon="2.42807">
        <ele>889.319</ele>
        <time>2021-05-24T13:26:14Z</time>
      </trkpt>
      <trkpt lat="43.41116" lon="2.42807">
        <ele>889.313</ele>
        <time>2021-05-24T13:26:16Z</time>
      </trkpt>
      <trkpt lat="43.41116" lon="2.42807">
        <ele>889.306</ele>
        <time>2021-05-24T13:26:18Z</time>
      </trkpt>
      <trkpt lat="43.41116" lon="2.42807">
        <ele>889.3</ele>
        <time>2021-05-24T13:26:20Z</time>
      </trkpt>
      <trkpt lat="43.41116" lon="2.42807">
        <ele>889.295</ele>
        <time>2021-05-24T13:26:22Z</time>
      </trkpt>
      <trkpt lat="43.41116" lon="2.42807">
        <ele>889.297</ele>
        <time>2021-05-24T13:26:24Z</time>
      </trkpt>
      <trkpt lat="43.41116" lon="2.42807">
        <ele>889.295</ele>
        <time>2021-05-24T13:26:26Z</time>
      </trkpt>
      <trkpt lat="43.41116" lon="2.42807">
        <ele>889.298</ele>
        <time>2021-05-24T13:26:28Z</time>
      </trkpt>
      <trkpt lat="43.41116" lon="2.42807">
        <ele>889.193</ele>
        <time>2021-05-24T13:26:30Z</time>
      </trkpt>
      <trkpt lat="43.41116" lon="2.42807">
        <ele>889.192</ele>
        <time>2021-05-24T13:26:32Z</time>
      </trkpt>
      <trkpt lat="43.41116" lon="2.42807">
        <ele>889.188</ele>
        <time>2021-05-24T13:26:34Z</time>
      </trkpt>
      <trkpt lat="43.41116" lon="2.42807">
        <ele>889.182</ele>
        <time>2021-05-24T13:26:36Z</time>
      </trkpt>
      <trkpt lat="43.41116" lon="2.42807">
        <ele>889.176</ele>
        <time>2021-05-24T13:26:38Z</time>
      </trkpt>
      <trkpt lat="43.41116" lon="2.42807">
        <ele>889.17</ele>
        <time>2021-05-24T13:26:40Z</time>
      </trkpt>
      <trkpt lat="43.41116" lon="2.42807">
        <ele>889.165</ele>
        <time>2021-05-24T13:26:42Z</time>
      </trkpt>
      <trkpt lat="43.41115" lon="2.42807">
        <ele>889.079</ele>
        <time>2021-05-24T13:26:44Z</time>
      </trkpt>
      <trkpt lat="43.41115" lon="2.42808">
        <ele>888.649</ele>
        <time>2021-05-24T13:26:46Z</time>
      </trkpt>
      <trkpt lat="43.41114" lon="2.42808">
        <ele>888.302</ele>
        <time>2021-05-24T13:26:48Z</time>
      </trkpt>
      <trkpt lat="43.41113" lon="2.42809">
        <ele>888.133</ele>
        <time>2021-05-24T13:26:50Z</time>
      </trkpt>
      <trkpt lat="43.41113" lon="2.42809">
        <ele>888.094</ele>
        <time>2021-05-24T13:26:52Z</time>
      </trkpt>
      <trkpt lat="43.41113" lon="2.42809">
        <ele>888.087</ele>
        <time>2021-05-24T13:26:54Z</time>
      </trkpt>
      <trkpt lat="43.41112" lon="2.42809">
        <ele>887.781</ele>
        <time>2021-05-24T13:26:56Z</time>
      </trkpt>
      <trkpt lat="43.41112" lon="2.42809">
        <ele>887.461</ele>
        <time>2021-05-24T13:26:58Z</time>
      </trkpt>
      <trkpt lat="43.41112" lon="2.42809">
        <ele>887.445</ele>
        <time>2021-05-24T13:27:00Z</time>
      </trkpt>
      <trkpt lat="43.41112" lon="2.42809">
        <ele>887.434</ele>
        <time>2021-05-24T13:27:02Z</time>
      </trkpt>
      <trkpt lat="43.41112" lon="2.42809">
        <ele>887.422</ele>
        <time>2021-05-24T13:27:04Z</time>
      </trkpt>
      <trkpt lat="43.41112" lon="2.42809">
        <ele>887.343</ele>
        <time>2021-05-24T13:27:06Z</time>
      </trkpt>
      <trkpt lat="43.41112" lon="2.42809">
        <ele>887.311</ele>
        <time>2021-05-24T13:27:08Z</time>
      </trkpt>
      <trkpt lat="43.41112" lon="2.42809">
        <ele>887.314</ele>
        <time>2021-05-24T13:27:10Z</time>
      </trkpt>
      <trkpt lat="43.41112" lon="2.42809">
        <ele>887.308</ele>
        <time>2021-05-24T13:27:12Z</time>
      </trkpt>
      <trkpt lat="43.41112" lon="2.42809">
        <ele>887.305</ele>
        <time>2021-05-24T13:27:14Z</time>
      </trkpt>
      <trkpt lat="43.41112" lon="2.42809">
        <ele>887.302</ele>
        <time>2021-05-24T13:27:16Z</time>
      </trkpt>
      <trkpt lat="43.41112" lon="2.42809">
        <ele>887.298</ele>
        <time>2021-05-24T13:27:18Z</time>
      </trkpt>
      <trkpt lat="43.41112" lon="2.42809">
        <ele>887.297</ele>
        <time>2021-05-24T13:27:20Z</time>
      </trkpt>
      <trkpt lat="43.41112" lon="2.42809">
        <ele>887.281</ele>
        <time>2021-05-24T13:27:22Z</time>
      </trkpt>
      <trkpt lat="43.41112" lon="2.42809">
        <ele>887.269</ele>
        <time>2021-05-24T13:27:24Z</time>
      </trkpt>
      <trkpt lat="43.41112" lon="2.42809">
        <ele>887.27</ele>
        <time>2021-05-24T13:27:26Z</time>
      </trkpt>
      <trkpt lat="43.41112" lon="2.42809">
        <ele>887.265</ele>
        <time>2021-05-24T13:27:28Z</time>
      </trkpt>
      <trkpt lat="43.41112" lon="2.42809">
        <ele>887.261</ele>
        <time>2021-05-24T13:27:30Z</time>
      </trkpt>
      <trkpt lat="43.41112" lon="2.42809">
        <ele>887.263</ele>
        <time>2021-05-24T13:27:32Z</time>
      </trkpt>
      <trkpt lat="43.41112" lon="2.42809">
        <ele>887.522</ele>
        <time>2021-05-24T13:27:34Z</time>
      </trkpt>
      <trkpt lat="43.41112" lon="2.42809">
        <ele>887.526</ele>
        <time>2021-05-24T13:27:36Z</time>
      </trkpt>
      <trkpt lat="43.41112" lon="2.42809">
        <ele>887.523</ele>
        <time>2021-05-24T13:27:38Z</time>
      </trkpt>
      <trkpt lat="43.41112" lon="2.42809">
        <ele>887.521</ele>
        <time>2021-05-24T13:27:40Z</time>
      </trkpt>
      <trkpt lat="43.41112" lon="2.42809">
        <ele>887.519</ele>
        <time>2021-05-24T13:27:42Z</time>
      </trkpt>
      <trkpt lat="43.41112" lon="2.42809">
        <ele>887.514</ele>
        <time>2021-05-24T13:27:44Z</time>
      </trkpt>
      <trkpt lat="43.41112" lon="2.42809">
        <ele>887.503</ele>
        <time>2021-05-24T13:27:46Z</time>
      </trkpt>
      <trkpt lat="43.41112" lon="2.42809">
        <ele>887.494</ele>
        <time>2021-05-24T13:27:48Z</time>
      </trkpt>
      <trkpt lat="43.41112" lon="2.42808">
        <ele>887.959</ele>
        <time>2021-05-24T13:27:50Z</time>
      </trkpt>
      <trkpt lat="43.41112" lon="2.42808">
        <ele>887.004</ele>
        <time>2021-05-24T13:27:52Z</time>
      </trkpt>
      <trkpt lat="43.41112" lon="2.42809">
        <ele>886.969</ele>
        <time>2021-05-24T13:27:54Z</time>
      </trkpt>
      <trkpt lat="43.41112" lon="2.42809">
        <ele>886.974</ele>
        <time>2021-05-24T13:27:56Z</time>
      </trkpt>
      <trkpt lat="43.41112" lon="2.42809">
        <ele>886.977</ele>
        <time>2021-05-24T13:27:58Z</time>
      </trkpt>
      <trkpt lat="43.41112" lon="2.42809">
        <ele>886.976</ele>
        <time>2021-05-24T13:28:00Z</time>
      </trkpt>
      <trkpt lat="43.41112" lon="2.42809">
        <ele>886.978</ele>
        <time>2021-05-24T13:28:02Z</time>
      </trkpt>
      <trkpt lat="43.41112" lon="2.42809">
        <ele>887.457</ele>
        <time>2021-05-24T13:28:04Z</time>
      </trkpt>
      <trkpt lat="43.41112" lon="2.42809">
        <ele>887.917</ele>
        <time>2021-05-24T13:28:06Z</time>
      </trkpt>
      <trkpt lat="43.41112" lon="2.42809">
        <ele>887.918</ele>
        <time>2021-05-24T13:28:08Z</time>
      </trkpt>
      <trkpt lat="43.41112" lon="2.42809">
        <ele>887.922</ele>
        <time>2021-05-24T13:28:10Z</time>
      </trkpt>
      <trkpt lat="43.41112" lon="2.42809">
        <ele>887.925</ele>
        <time>2021-05-24T13:28:12Z</time>
      </trkpt>
      <trkpt lat="43.41112" lon="2.42809">
        <ele>888.165</ele>
        <time>2021-05-24T13:28:14Z</time>
      </trkpt>
      <trkpt lat="43.41112" lon="2.42809">
        <ele>888.159</ele>
        <time>2021-05-24T13:28:16Z</time>
      </trkpt>
      <trkpt lat="43.41112" lon="2.42809">
        <ele>888.237</ele>
        <time>2021-05-24T13:28:18Z</time>
      </trkpt>
      <trkpt lat="43.41112" lon="2.42807">
        <ele>888.406</ele>
        <time>2021-05-24T13:28:20Z</time>
      </trkpt>
      <trkpt lat="43.41113" lon="2.42805">
        <ele>888.316</ele>
        <time>2021-05-24T13:28:22Z</time>
      </trkpt>
      <trkpt lat="43.41114" lon="2.42802">
        <ele>887.479</ele>
        <time>2021-05-24T13:28:24Z</time>
      </trkpt>
      <trkpt lat="43.41115" lon="2.428">
        <ele>886.513</ele>
        <time>2021-05-24T13:28:26Z</time>
      </trkpt>
      <trkpt lat="43.41116" lon="2.42799">
        <ele>886.229</ele>
        <time>2021-05-24T13:28:28Z</time>
      </trkpt>
      <trkpt lat="43.41118" lon="2.42797">
        <ele>884.764</ele>
        <time>2021-05-24T13:28:30Z</time>
      </trkpt>
      <trkpt lat="43.4112" lon="2.42796">
        <ele>884.434</ele>
        <time>2021-05-24T13:28:32Z</time>
      </trkpt>
      <trkpt lat="43.4112" lon="2.42793">
        <ele>885.909</ele>
        <time>2021-05-24T13:28:34Z</time>
      </trkpt>
      <trkpt lat="43.41122" lon="2.4279">
        <ele>884.996</ele>
        <time>2021-05-24T13:28:36Z</time>
      </trkpt>
      <trkpt lat="43.41123" lon="2.42788">
        <ele>885.782</ele>
        <time>2021-05-24T13:28:38Z</time>
      </trkpt>
      <trkpt lat="43.41125" lon="2.42786">
        <ele>885.93</ele>
        <time>2021-05-24T13:28:40Z</time>
      </trkpt>
      <trkpt lat="43.41127" lon="2.42784">
        <ele>885.291</ele>
        <time>2021-05-24T13:28:42Z</time>
      </trkpt>
      <trkpt lat="43.41128" lon="2.42782">
        <ele>886.4</ele>
        <time>2021-05-24T13:28:44Z</time>
      </trkpt>
      <trkpt lat="43.4113" lon="2.42779">
        <ele>886.474</ele>
        <time>2021-05-24T13:28:46Z</time>
      </trkpt>
      <trkpt lat="43.41133" lon="2.42777">
        <ele>885.906</ele>
        <time>2021-05-24T13:28:48Z</time>
      </trkpt>
      <trkpt lat="43.41134" lon="2.42774">
        <ele>885.781</ele>
        <time>2021-05-24T13:28:50Z</time>
      </trkpt>
      <trkpt lat="43.41136" lon="2.42772">
        <ele>884.35</ele>
        <time>2021-05-24T13:28:52Z</time>
      </trkpt>
      <trkpt lat="43.41138" lon="2.4277">
        <ele>883.647</ele>
        <time>2021-05-24T13:28:54Z</time>
      </trkpt>
      <trkpt lat="43.41141" lon="2.42768">
        <ele>883.161</ele>
        <time>2021-05-24T13:28:56Z</time>
      </trkpt>
      <trkpt lat="43.41143" lon="2.42766">
        <ele>883.185</ele>
        <time>2021-05-24T13:28:58Z</time>
      </trkpt>
      <trkpt lat="43.41145" lon="2.42764">
        <ele>881.601</ele>
        <time>2021-05-24T13:29:00Z</time>
      </trkpt>
      <trkpt lat="43.41147" lon="2.42762">
        <ele>880.114</ele>
        <time>2021-05-24T13:29:02Z</time>
      </trkpt>
      <trkpt lat="43.41148" lon="2.4276">
        <ele>879.649</ele>
        <time>2021-05-24T13:29:04Z</time>
      </trkpt>
      <trkpt lat="43.4115" lon="2.42758">
        <ele>878.817</ele>
        <time>2021-05-24T13:29:06Z</time>
      </trkpt>
      <trkpt lat="43.41151" lon="2.42757">
        <ele>880.102</ele>
        <time>2021-05-24T13:29:08Z</time>
      </trkpt>
      <trkpt lat="43.41153" lon="2.42755">
        <ele>880.396</ele>
        <time>2021-05-24T13:29:10Z</time>
      </trkpt>
      <trkpt lat="43.41155" lon="2.42753">
        <ele>879.433</ele>
        <time>2021-05-24T13:29:12Z</time>
      </trkpt>
      <trkpt lat="43.41157" lon="2.4275">
        <ele>879.33</ele>
        <time>2021-05-24T13:29:14Z</time>
      </trkpt>
      <trkpt lat="43.4116" lon="2.42747">
        <ele>876.901</ele>
        <time>2021-05-24T13:29:17Z</time>
      </trkpt>
      <trkpt lat="43.41163" lon="2.42745">
        <ele>875.452</ele>
        <time>2021-05-24T13:29:19Z</time>
      </trkpt>
      <trkpt lat="43.41165" lon="2.42744">
        <ele>877.123</ele>
        <time>2021-05-24T13:29:21Z</time>
      </trkpt>
      <trkpt lat="43.41168" lon="2.42742">
        <ele>877.961</ele>
        <time>2021-05-24T13:29:23Z</time>
      </trkpt>
      <trkpt lat="43.4117" lon="2.4274">
        <ele>878.328</ele>
        <time>2021-05-24T13:29:25Z</time>
      </trkpt>
      <trkpt lat="43.41171" lon="2.42739">
        <ele>878.951</ele>
        <time>2021-05-24T13:29:27Z</time>
      </trkpt>
      <trkpt lat="43.41173" lon="2.42738">
        <ele>880.261</ele>
        <time>2021-05-24T13:29:29Z</time>
      </trkpt>
      <trkpt lat="43.41176" lon="2.42735">
        <ele>881.114</ele>
        <time>2021-05-24T13:29:31Z</time>
      </trkpt>
      <trkpt lat="43.41178" lon="2.42734">
        <ele>879.726</ele>
        <time>2021-05-24T13:29:33Z</time>
      </trkpt>
      <trkpt lat="43.4118" lon="2.42732">
        <ele>881.144</ele>
        <time>2021-05-24T13:29:35Z</time>
      </trkpt>
      <trkpt lat="43.41182" lon="2.42729">
        <ele>882.482</ele>
        <time>2021-05-24T13:29:37Z</time>
      </trkpt>
      <trkpt lat="43.41184" lon="2.42727">
        <ele>882.446</ele>
        <time>2021-05-24T13:29:39Z</time>
      </trkpt>
      <trkpt lat="43.41187" lon="2.42726">
        <ele>878.075</ele>
        <time>2021-05-24T13:29:41Z</time>
      </trkpt>
      <trkpt lat="43.41189" lon="2.42725">
        <ele>877.094</ele>
        <time>2021-05-24T13:29:43Z</time>
      </trkpt>
      <trkpt lat="43.41192" lon="2.42723">
        <ele>875.6</ele>
        <time>2021-05-24T13:29:45Z</time>
      </trkpt>
      <trkpt lat="43.41194" lon="2.42721">
        <ele>877.077</ele>
        <time>2021-05-24T13:29:47Z</time>
      </trkpt>
      <trkpt lat="43.41196" lon="2.42718">
        <ele>879.15</ele>
        <time>2021-05-24T13:29:49Z</time>
      </trkpt>
      <trkpt lat="43.41198" lon="2.42716">
        <ele>877.609</ele>
        <time>2021-05-24T13:29:51Z</time>
      </trkpt>
      <trkpt lat="43.412" lon="2.42714">
        <ele>878.271</ele>
        <time>2021-05-24T13:29:53Z</time>
      </trkpt>
      <trkpt lat="43.41203" lon="2.42712">
        <ele>875.891</ele>
        <time>2021-05-24T13:29:55Z</time>
      </trkpt>
      <trkpt lat="43.41206" lon="2.42711">
        <ele>875.399</ele>
        <time>2021-05-24T13:29:57Z</time>
      </trkpt>
      <trkpt lat="43.41208" lon="2.42709">
        <ele>875.446</ele>
        <time>2021-05-24T13:29:59Z</time>
      </trkpt>
      <trkpt lat="43.41211" lon="2.42706">
        <ele>877.059</ele>
        <time>2021-05-24T13:30:01Z</time>
      </trkpt>
      <trkpt lat="43.41213" lon="2.42705">
        <ele>875.698</ele>
        <time>2021-05-24T13:30:03Z</time>
      </trkpt>
      <trkpt lat="43.41215" lon="2.42703">
        <ele>875.338</ele>
        <time>2021-05-24T13:30:05Z</time>
      </trkpt>
      <trkpt lat="43.41217" lon="2.42702">
        <ele>874.812</ele>
        <time>2021-05-24T13:30:07Z</time>
      </trkpt>
      <trkpt lat="43.4122" lon="2.42701">
        <ele>875.21</ele>
        <time>2021-05-24T13:30:09Z</time>
      </trkpt>
      <trkpt lat="43.41222" lon="2.427">
        <ele>874.264</ele>
        <time>2021-05-24T13:30:11Z</time>
      </trkpt>
      <trkpt lat="43.41225" lon="2.427">
        <ele>875.076</ele>
        <time>2021-05-24T13:30:13Z</time>
      </trkpt>
      <trkpt lat="43.41227" lon="2.42699">
        <ele>876.579</ele>
        <time>2021-05-24T13:30:15Z</time>
      </trkpt>
      <trkpt lat="43.41231" lon="2.42698">
        <ele>880.004</ele>
        <time>2021-05-24T13:30:18Z</time>
      </trkpt>
      <trkpt lat="43.41233" lon="2.42697">
        <ele>882.028</ele>
        <time>2021-05-24T13:30:20Z</time>
      </trkpt>
      <trkpt lat="43.41236" lon="2.42696">
        <ele>882.668</ele>
        <time>2021-05-24T13:30:22Z</time>
      </trkpt>
      <trkpt lat="43.41238" lon="2.42695">
        <ele>885.395</ele>
        <time>2021-05-24T13:30:24Z</time>
      </trkpt>
      <trkpt lat="43.4124" lon="2.42694">
        <ele>886.349</ele>
        <time>2021-05-24T13:30:26Z</time>
      </trkpt>
      <trkpt lat="43.41243" lon="2.42693">
        <ele>889.265</ele>
        <time>2021-05-24T13:30:28Z</time>
      </trkpt>
      <trkpt lat="43.41246" lon="2.42692">
        <ele>891.014</ele>
        <time>2021-05-24T13:30:30Z</time>
      </trkpt>
      <trkpt lat="43.41249" lon="2.42691">
        <ele>889.591</ele>
        <time>2021-05-24T13:30:32Z</time>
      </trkpt>
      <trkpt lat="43.41251" lon="2.4269">
        <ele>889.001</ele>
        <time>2021-05-24T13:30:34Z</time>
      </trkpt>
      <trkpt lat="43.41254" lon="2.42689">
        <ele>887.699</ele>
        <time>2021-05-24T13:30:36Z</time>
      </trkpt>
      <trkpt lat="43.41256" lon="2.42689">
        <ele>888.292</ele>
        <time>2021-05-24T13:30:38Z</time>
      </trkpt>
      <trkpt lat="43.41259" lon="2.42689">
        <ele>885.648</ele>
        <time>2021-05-24T13:30:40Z</time>
      </trkpt>
      <trkpt lat="43.41262" lon="2.42687">
        <ele>886.588</ele>
        <time>2021-05-24T13:30:42Z</time>
      </trkpt>
      <trkpt lat="43.41266" lon="2.42687">
        <ele>882.959</ele>
        <time>2021-05-24T13:30:44Z</time>
      </trkpt>
      <trkpt lat="43.41269" lon="2.42685">
        <ele>881.557</ele>
        <time>2021-05-24T13:30:46Z</time>
      </trkpt>
      <trkpt lat="43.41272" lon="2.42684">
        <ele>882.614</ele>
        <time>2021-05-24T13:30:48Z</time>
      </trkpt>
      <trkpt lat="43.41275" lon="2.42683">
        <ele>883.314</ele>
        <time>2021-05-24T13:30:50Z</time>
      </trkpt>
      <trkpt lat="43.41278" lon="2.42682">
        <ele>884.384</ele>
        <time>2021-05-24T13:30:52Z</time>
      </trkpt>
      <trkpt lat="43.41281" lon="2.4268">
        <ele>883.317</ele>
        <time>2021-05-24T13:30:54Z</time>
      </trkpt>
      <trkpt lat="43.41284" lon="2.42679">
        <ele>882.935</ele>
        <time>2021-05-24T13:30:56Z</time>
      </trkpt>
      <trkpt lat="43.41286" lon="2.42678">
        <ele>883.129</ele>
        <time>2021-05-24T13:30:58Z</time>
      </trkpt>
      <trkpt lat="43.41289" lon="2.42678">
        <ele>882.694</ele>
        <time>2021-05-24T13:31:00Z</time>
      </trkpt>
      <trkpt lat="43.41292" lon="2.42677">
        <ele>883.747</ele>
        <time>2021-05-24T13:31:02Z</time>
      </trkpt>
      <trkpt lat="43.41294" lon="2.42675">
        <ele>882.406</ele>
        <time>2021-05-24T13:31:04Z</time>
      </trkpt>
      <trkpt lat="43.41297" lon="2.42673">
        <ele>879.818</ele>
        <time>2021-05-24T13:31:06Z</time>
      </trkpt>
      <trkpt lat="43.41299" lon="2.42672">
        <ele>880.261</ele>
        <time>2021-05-24T13:31:07Z</time>
      </trkpt>
      <trkpt lat="43.41303" lon="2.4267">
        <ele>879.155</ele>
        <time>2021-05-24T13:31:10Z</time>
      </trkpt>
      <trkpt lat="43.41307" lon="2.42669">
        <ele>878.608</ele>
        <time>2021-05-24T13:31:12Z</time>
      </trkpt>
      <trkpt lat="43.4131" lon="2.42668">
        <ele>879.094</ele>
        <time>2021-05-24T13:31:14Z</time>
      </trkpt>
      <trkpt lat="43.41312" lon="2.42666">
        <ele>877.467</ele>
        <time>2021-05-24T13:31:16Z</time>
      </trkpt>
      <trkpt lat="43.41315" lon="2.42665">
        <ele>877.86</ele>
        <time>2021-05-24T13:31:18Z</time>
      </trkpt>
      <trkpt lat="43.41317" lon="2.42664">
        <ele>877.09</ele>
        <time>2021-05-24T13:31:20Z</time>
      </trkpt>
      <trkpt lat="43.41321" lon="2.42663">
        <ele>876.02</ele>
        <time>2021-05-24T13:31:22Z</time>
      </trkpt>
      <trkpt lat="43.41324" lon="2.42662">
        <ele>876.309</ele>
        <time>2021-05-24T13:31:24Z</time>
      </trkpt>
      <trkpt lat="43.41327" lon="2.42661">
        <ele>877.027</ele>
        <time>2021-05-24T13:31:26Z</time>
      </trkpt>
      <trkpt lat="43.41329" lon="2.4266">
        <ele>877.23</ele>
        <time>2021-05-24T13:31:28Z</time>
      </trkpt>
      <trkpt lat="43.41332" lon="2.42659">
        <ele>877.482</ele>
        <time>2021-05-24T13:31:30Z</time>
      </trkpt>
      <trkpt lat="43.41334" lon="2.42657">
        <ele>876.879</ele>
        <time>2021-05-24T13:31:32Z</time>
      </trkpt>
      <trkpt lat="43.41336" lon="2.42655">
        <ele>877.552</ele>
        <time>2021-05-24T13:31:34Z</time>
      </trkpt>
      <trkpt lat="43.41339" lon="2.42654">
        <ele>877.967</ele>
        <time>2021-05-24T13:31:36Z</time>
      </trkpt>
      <trkpt lat="43.41341" lon="2.42654">
        <ele>878.723</ele>
        <time>2021-05-24T13:31:38Z</time>
      </trkpt>
      <trkpt lat="43.41344" lon="2.42653">
        <ele>877.927</ele>
        <time>2021-05-24T13:31:40Z</time>
      </trkpt>
      <trkpt lat="43.41347" lon="2.42652">
        <ele>879.322</ele>
        <time>2021-05-24T13:31:42Z</time>
      </trkpt>
      <trkpt lat="43.41351" lon="2.42653">
        <ele>878.678</ele>
        <time>2021-05-24T13:31:44Z</time>
      </trkpt>
      <trkpt lat="43.41354" lon="2.42653">
        <ele>879.492</ele>
        <time>2021-05-24T13:31:46Z</time>
      </trkpt>
      <trkpt lat="43.41357" lon="2.42652">
        <ele>880.661</ele>
        <time>2021-05-24T13:31:48Z</time>
      </trkpt>
      <trkpt lat="43.4136" lon="2.4265">
        <ele>879.9</ele>
        <time>2021-05-24T13:31:50Z</time>
      </trkpt>
      <trkpt lat="43.41362" lon="2.42649">
        <ele>882.384</ele>
        <time>2021-05-24T13:31:52Z</time>
      </trkpt>
      <trkpt lat="43.41365" lon="2.42648">
        <ele>882.217</ele>
        <time>2021-05-24T13:31:54Z</time>
      </trkpt>
      <trkpt lat="43.41368" lon="2.42647">
        <ele>884.073</ele>
        <time>2021-05-24T13:31:56Z</time>
      </trkpt>
      <trkpt lat="43.41372" lon="2.42646">
        <ele>884.656</ele>
        <time>2021-05-24T13:31:58Z</time>
      </trkpt>
      <trkpt lat="43.41375" lon="2.42645">
        <ele>886.241</ele>
        <time>2021-05-24T13:32:00Z</time>
      </trkpt>
      <trkpt lat="43.41378" lon="2.42644">
        <ele>887.379</ele>
        <time>2021-05-24T13:32:02Z</time>
      </trkpt>
      <trkpt lat="43.41381" lon="2.42644">
        <ele>887.51</ele>
        <time>2021-05-24T13:32:04Z</time>
      </trkpt>
      <trkpt lat="43.41384" lon="2.42644">
        <ele>888.519</ele>
        <time>2021-05-24T13:32:06Z</time>
      </trkpt>
      <trkpt lat="43.41386" lon="2.42646">
        <ele>889.635</ele>
        <time>2021-05-24T13:32:08Z</time>
      </trkpt>
      <trkpt lat="43.4139" lon="2.42646">
        <ele>887.613</ele>
        <time>2021-05-24T13:32:10Z</time>
      </trkpt>
      <trkpt lat="43.41392" lon="2.42643">
        <ele>885.982</ele>
        <time>2021-05-24T13:32:12Z</time>
      </trkpt>
      <trkpt lat="43.41395" lon="2.42641">
        <ele>885.037</ele>
        <time>2021-05-24T13:32:14Z</time>
      </trkpt>
      <trkpt lat="43.41398" lon="2.42639">
        <ele>882.555</ele>
        <time>2021-05-24T13:32:16Z</time>
      </trkpt>
      <trkpt lat="43.41401" lon="2.42636">
        <ele>880.449</ele>
        <time>2021-05-24T13:32:18Z</time>
      </trkpt>
      <trkpt lat="43.41402" lon="2.42635">
        <ele>879.496</ele>
        <time>2021-05-24T13:32:20Z</time>
      </trkpt>
      <trkpt lat="43.41402" lon="2.42635">
        <ele>879.017</ele>
        <time>2021-05-24T13:32:22Z</time>
      </trkpt>
      <trkpt lat="43.41403" lon="2.42633">
        <ele>876.823</ele>
        <time>2021-05-24T13:32:24Z</time>
      </trkpt>
      <trkpt lat="43.41403" lon="2.42633">
        <ele>876.813</ele>
        <time>2021-05-24T13:32:26Z</time>
      </trkpt>
      <trkpt lat="43.41404" lon="2.42633">
        <ele>875.083</ele>
        <time>2021-05-24T13:32:28Z</time>
      </trkpt>
      <trkpt lat="43.41404" lon="2.42633">
        <ele>875.532</ele>
        <time>2021-05-24T13:32:30Z</time>
      </trkpt>
      <trkpt lat="43.41404" lon="2.42633">
        <ele>875.829</ele>
        <time>2021-05-24T13:32:32Z</time>
      </trkpt>
      <trkpt lat="43.41406" lon="2.42633">
        <ele>872.884</ele>
        <time>2021-05-24T13:32:34Z</time>
      </trkpt>
      <trkpt lat="43.41408" lon="2.42633">
        <ele>870.978</ele>
        <time>2021-05-24T13:32:36Z</time>
      </trkpt>
      <trkpt lat="43.41409" lon="2.42633">
        <ele>869.494</ele>
        <time>2021-05-24T13:32:38Z</time>
      </trkpt>
      <trkpt lat="43.41411" lon="2.42632">
        <ele>867.364</ele>
        <time>2021-05-24T13:32:40Z</time>
      </trkpt>
      <trkpt lat="43.41414" lon="2.42631">
        <ele>866.891</ele>
        <time>2021-05-24T13:32:42Z</time>
      </trkpt>
      <trkpt lat="43.41416" lon="2.42631">
        <ele>865.121</ele>
        <time>2021-05-24T13:32:44Z</time>
      </trkpt>
      <trkpt lat="43.41418" lon="2.42631">
        <ele>861.731</ele>
        <time>2021-05-24T13:32:46Z</time>
      </trkpt>
      <trkpt lat="43.41419" lon="2.4263">
        <ele>861.298</ele>
        <time>2021-05-24T13:32:48Z</time>
      </trkpt>
      <trkpt lat="43.41421" lon="2.42629">
        <ele>859.215</ele>
        <time>2021-05-24T13:32:50Z</time>
      </trkpt>
      <trkpt lat="43.41423" lon="2.42628">
        <ele>857.848</ele>
        <time>2021-05-24T13:32:52Z</time>
      </trkpt>
      <trkpt lat="43.41425" lon="2.42626">
        <ele>856.77</ele>
        <time>2021-05-24T13:32:54Z</time>
      </trkpt>
      <trkpt lat="43.41428" lon="2.42625">
        <ele>855.326</ele>
        <time>2021-05-24T13:32:56Z</time>
      </trkpt>
      <trkpt lat="43.41429" lon="2.42624">
        <ele>853.815</ele>
        <time>2021-05-24T13:32:58Z</time>
      </trkpt>
      <trkpt lat="43.41431" lon="2.42622">
        <ele>853.611</ele>
        <time>2021-05-24T13:33:00Z</time>
      </trkpt>
      <trkpt lat="43.41433" lon="2.4262">
        <ele>853.723</ele>
        <time>2021-05-24T13:33:02Z</time>
      </trkpt>
      <trkpt lat="43.41434" lon="2.42616">
        <ele>854.055</ele>
        <time>2021-05-24T13:33:04Z</time>
      </trkpt>
      <trkpt lat="43.41435" lon="2.42613">
        <ele>852.387</ele>
        <time>2021-05-24T13:33:06Z</time>
      </trkpt>
      <trkpt lat="43.41436" lon="2.4261">
        <ele>854.277</ele>
        <time>2021-05-24T13:33:08Z</time>
      </trkpt>
      <trkpt lat="43.41437" lon="2.42608">
        <ele>853.087</ele>
        <time>2021-05-24T13:33:10Z</time>
      </trkpt>
      <trkpt lat="43.41439" lon="2.42605">
        <ele>852.915</ele>
        <time>2021-05-24T13:33:12Z</time>
      </trkpt>
      <trkpt lat="43.4144" lon="2.42602">
        <ele>854.516</ele>
        <time>2021-05-24T13:33:14Z</time>
      </trkpt>
      <trkpt lat="43.4144" lon="2.42599">
        <ele>853.985</ele>
        <time>2021-05-24T13:33:16Z</time>
      </trkpt>
      <trkpt lat="43.41441" lon="2.42596">
        <ele>854.384</ele>
        <time>2021-05-24T13:33:18Z</time>
      </trkpt>
      <trkpt lat="43.41441" lon="2.42595">
        <ele>854.794</ele>
        <time>2021-05-24T13:33:20Z</time>
      </trkpt>
      <trkpt lat="43.41441" lon="2.42594">
        <ele>854.85</ele>
        <time>2021-05-24T13:33:22Z</time>
      </trkpt>
      <trkpt lat="43.41441" lon="2.42592">
        <ele>854.531</ele>
        <time>2021-05-24T13:33:24Z</time>
      </trkpt>
      <trkpt lat="43.41442" lon="2.42589">
        <ele>854.245</ele>
        <time>2021-05-24T13:33:26Z</time>
      </trkpt>
      <trkpt lat="43.41443" lon="2.42586">
        <ele>853.291</ele>
        <time>2021-05-24T13:33:28Z</time>
      </trkpt>
      <trkpt lat="43.41441" lon="2.42582">
        <ele>855.385</ele>
        <time>2021-05-24T13:33:30Z</time>
      </trkpt>
      <trkpt lat="43.41439" lon="2.42579">
        <ele>859.422</ele>
        <time>2021-05-24T13:33:32Z</time>
      </trkpt>
      <trkpt lat="43.41437" lon="2.42577">
        <ele>858.857</ele>
        <time>2021-05-24T13:33:34Z</time>
      </trkpt>
      <trkpt lat="43.41436" lon="2.42578">
        <ele>861.01</ele>
        <time>2021-05-24T13:33:36Z</time>
      </trkpt>
      <trkpt lat="43.41433" lon="2.42576">
        <ele>862.632</ele>
        <time>2021-05-24T13:33:38Z</time>
      </trkpt>
      <trkpt lat="43.41432" lon="2.42578">
        <ele>861.718</ele>
        <time>2021-05-24T13:33:40Z</time>
      </trkpt>
      <trkpt lat="43.41429" lon="2.4258">
        <ele>862.371</ele>
        <time>2021-05-24T13:33:42Z</time>
      </trkpt>
      <trkpt lat="43.41428" lon="2.42584">
        <ele>862.545</ele>
        <time>2021-05-24T13:33:44Z</time>
      </trkpt>
      <trkpt lat="43.41431" lon="2.42587">
        <ele>863.824</ele>
        <time>2021-05-24T13:33:46Z</time>
      </trkpt>
      <trkpt lat="43.4143" lon="2.42589">
        <ele>864.932</ele>
        <time>2021-05-24T13:33:48Z</time>
      </trkpt>
      <trkpt lat="43.41429" lon="2.42591">
        <ele>865.175</ele>
        <time>2021-05-24T13:33:50Z</time>
      </trkpt>
      <trkpt lat="43.41428" lon="2.42593">
        <ele>865.293</ele>
        <time>2021-05-24T13:33:52Z</time>
      </trkpt>
      <trkpt lat="43.41427" lon="2.42595">
        <ele>866.083</ele>
        <time>2021-05-24T13:33:54Z</time>
      </trkpt>
      <trkpt lat="43.41426" lon="2.42597">
        <ele>867.504</ele>
        <time>2021-05-24T13:33:56Z</time>
      </trkpt>
      <trkpt lat="43.41425" lon="2.42599">
        <ele>868.299</ele>
        <time>2021-05-24T13:33:58Z</time>
      </trkpt>
      <trkpt lat="43.41424" lon="2.42602">
        <ele>869.141</ele>
        <time>2021-05-24T13:34:00Z</time>
      </trkpt>
      <trkpt lat="43.41423" lon="2.42604">
        <ele>869.537</ele>
        <time>2021-05-24T13:34:02Z</time>
      </trkpt>
      <trkpt lat="43.41421" lon="2.42605">
        <ele>868.977</ele>
        <time>2021-05-24T13:34:04Z</time>
      </trkpt>
      <trkpt lat="43.41419" lon="2.42606">
        <ele>867.803</ele>
        <time>2021-05-24T13:34:06Z</time>
      </trkpt>
      <trkpt lat="43.41417" lon="2.42608">
        <ele>868.523</ele>
        <time>2021-05-24T13:34:08Z</time>
      </trkpt>
      <trkpt lat="43.41415" lon="2.42609">
        <ele>868.318</ele>
        <time>2021-05-24T13:34:10Z</time>
      </trkpt>
      <trkpt lat="43.41413" lon="2.4261">
        <ele>867.258</ele>
        <time>2021-05-24T13:34:12Z</time>
      </trkpt>
      <trkpt lat="43.41411" lon="2.4261">
        <ele>867.092</ele>
        <time>2021-05-24T13:34:14Z</time>
      </trkpt>
      <trkpt lat="43.41408" lon="2.4261">
        <ele>864.249</ele>
        <time>2021-05-24T13:34:16Z</time>
      </trkpt>
      <trkpt lat="43.41406" lon="2.4261">
        <ele>864.113</ele>
        <time>2021-05-24T13:34:18Z</time>
      </trkpt>
      <trkpt lat="43.41403" lon="2.4261">
        <ele>864.358</ele>
        <time>2021-05-24T13:34:20Z</time>
      </trkpt>
      <trkpt lat="43.41401" lon="2.4261">
        <ele>863.824</ele>
        <time>2021-05-24T13:34:22Z</time>
      </trkpt>
      <trkpt lat="43.41399" lon="2.4261">
        <ele>864.159</ele>
        <time>2021-05-24T13:34:24Z</time>
      </trkpt>
      <trkpt lat="43.41398" lon="2.4261">
        <ele>863.126</ele>
        <time>2021-05-24T13:34:26Z</time>
      </trkpt>
      <trkpt lat="43.41396" lon="2.42609">
        <ele>863.899</ele>
        <time>2021-05-24T13:34:28Z</time>
      </trkpt>
      <trkpt lat="43.41396" lon="2.42608">
        <ele>863.884</ele>
        <time>2021-05-24T13:34:30Z</time>
      </trkpt>
      <trkpt lat="43.41396" lon="2.42608">
        <ele>864.239</ele>
        <time>2021-05-24T13:34:32Z</time>
      </trkpt>
      <trkpt lat="43.41395" lon="2.42608">
        <ele>864.24</ele>
        <time>2021-05-24T13:34:34Z</time>
      </trkpt>
      <trkpt lat="43.41395" lon="2.42608">
        <ele>864.262</ele>
        <time>2021-05-24T13:34:36Z</time>
      </trkpt>
      <trkpt lat="43.41395" lon="2.42608">
        <ele>864.269</ele>
        <time>2021-05-24T13:34:38Z</time>
      </trkpt>
      <trkpt lat="43.41395" lon="2.42608">
        <ele>864.267</ele>
        <time>2021-05-24T13:34:40Z</time>
      </trkpt>
      <trkpt lat="43.41395" lon="2.42608">
        <ele>864.27</ele>
        <time>2021-05-24T13:34:42Z</time>
      </trkpt>
      <trkpt lat="43.41395" lon="2.42608">
        <ele>864.277</ele>
        <time>2021-05-24T13:34:44Z</time>
      </trkpt>
      <trkpt lat="43.41395" lon="2.42608">
        <ele>864.269</ele>
        <time>2021-05-24T13:34:46Z</time>
      </trkpt>
      <trkpt lat="43.41395" lon="2.42608">
        <ele>864.277</ele>
        <time>2021-05-24T13:34:48Z</time>
      </trkpt>
      <trkpt lat="43.41395" lon="2.42608">
        <ele>864.494</ele>
        <time>2021-05-24T13:34:50Z</time>
      </trkpt>
      <trkpt lat="43.41395" lon="2.42608">
        <ele>864.506</ele>
        <time>2021-05-24T13:34:52Z</time>
      </trkpt>
      <trkpt lat="43.41395" lon="2.42608">
        <ele>864.528</ele>
        <time>2021-05-24T13:34:54Z</time>
      </trkpt>
      <trkpt lat="43.41395" lon="2.42607">
        <ele>864.771</ele>
        <time>2021-05-24T13:34:56Z</time>
      </trkpt>
      <trkpt lat="43.41396" lon="2.42607">
        <ele>864.807</ele>
        <time>2021-05-24T13:34:58Z</time>
      </trkpt>
      <trkpt lat="43.41396" lon="2.42607">
        <ele>864.484</ele>
        <time>2021-05-24T13:35:00Z</time>
      </trkpt>
      <trkpt lat="43.41395" lon="2.42608">
        <ele>865.034</ele>
        <time>2021-05-24T13:35:07Z</time>
      </trkpt>
      <trkpt lat="43.41394" lon="2.42608">
        <ele>865.035</ele>
        <time>2021-05-24T13:35:09Z</time>
      </trkpt>
      <trkpt lat="43.41393" lon="2.4261">
        <ele>867.44</ele>
        <time>2021-05-24T13:35:11Z</time>
      </trkpt>
      <trkpt lat="43.41392" lon="2.4261">
        <ele>868.154</ele>
        <time>2021-05-24T13:35:13Z</time>
      </trkpt>
      <trkpt lat="43.4139" lon="2.42609">
        <ele>869.023</ele>
        <time>2021-05-24T13:35:15Z</time>
      </trkpt>
      <trkpt lat="43.41388" lon="2.42609">
        <ele>868.973</ele>
        <time>2021-05-24T13:35:17Z</time>
      </trkpt>
      <trkpt lat="43.41386" lon="2.42609">
        <ele>869.076</ele>
        <time>2021-05-24T13:35:19Z</time>
      </trkpt>
      <trkpt lat="43.41384" lon="2.42609">
        <ele>869.796</ele>
        <time>2021-05-24T13:35:21Z</time>
      </trkpt>
      <trkpt lat="43.41382" lon="2.42609">
        <ele>870.17</ele>
        <time>2021-05-24T13:35:23Z</time>
      </trkpt>
      <trkpt lat="43.4138" lon="2.42609">
        <ele>870.602</ele>
        <time>2021-05-24T13:35:25Z</time>
      </trkpt>
      <trkpt lat="43.41377" lon="2.42608">
        <ele>869.85</ele>
        <time>2021-05-24T13:35:27Z</time>
      </trkpt>
      <trkpt lat="43.41376" lon="2.42607">
        <ele>867.639</ele>
        <time>2021-05-24T13:35:29Z</time>
      </trkpt>
      <trkpt lat="43.41376" lon="2.42607">
        <ele>867.664</ele>
        <time>2021-05-24T13:35:31Z</time>
      </trkpt>
      <trkpt lat="43.41376" lon="2.42607">
        <ele>867.668</ele>
        <time>2021-05-24T13:35:33Z</time>
      </trkpt>
      <trkpt lat="43.41376" lon="2.42607">
        <ele>867.674</ele>
        <time>2021-05-24T13:35:35Z</time>
      </trkpt>
      <trkpt lat="43.41376" lon="2.42607">
        <ele>867.184</ele>
        <time>2021-05-24T13:35:37Z</time>
      </trkpt>
      <trkpt lat="43.41375" lon="2.42607">
        <ele>867.455</ele>
        <time>2021-05-24T13:35:39Z</time>
      </trkpt>
      <trkpt lat="43.41375" lon="2.42607">
        <ele>867.14</ele>
        <time>2021-05-24T13:35:41Z</time>
      </trkpt>
      <trkpt lat="43.41376" lon="2.42608">
        <ele>867.146</ele>
        <time>2021-05-24T13:35:43Z</time>
      </trkpt>
      <trkpt lat="43.41376" lon="2.42608">
        <ele>867.191</ele>
        <time>2021-05-24T13:35:45Z</time>
      </trkpt>
      <trkpt lat="43.41376" lon="2.42608">
        <ele>867.195</ele>
        <time>2021-05-24T13:35:47Z</time>
      </trkpt>
      <trkpt lat="43.41376" lon="2.42608">
        <ele>867.202</ele>
        <time>2021-05-24T13:35:49Z</time>
      </trkpt>
      <trkpt lat="43.41376" lon="2.42608">
        <ele>867.206</ele>
        <time>2021-05-24T13:35:51Z</time>
      </trkpt>
      <trkpt lat="43.41376" lon="2.42608">
        <ele>867.216</ele>
        <time>2021-05-24T13:35:53Z</time>
      </trkpt>
      <trkpt lat="43.41376" lon="2.42608">
        <ele>867.213</ele>
        <time>2021-05-24T13:35:55Z</time>
      </trkpt>
      <trkpt lat="43.41376" lon="2.42608">
        <ele>867.215</ele>
        <time>2021-05-24T13:35:57Z</time>
      </trkpt>
      <trkpt lat="43.41376" lon="2.42608">
        <ele>867.217</ele>
        <time>2021-05-24T13:35:59Z</time>
      </trkpt>
      <trkpt lat="43.41376" lon="2.42608">
        <ele>867.852</ele>
        <time>2021-05-24T13:36:01Z</time>
      </trkpt>
      <trkpt lat="43.41376" lon="2.42608">
        <ele>867.882</ele>
        <time>2021-05-24T13:36:03Z</time>
      </trkpt>
      <trkpt lat="43.41376" lon="2.42608">
        <ele>867.873</ele>
        <time>2021-05-24T13:36:05Z</time>
      </trkpt>
      <trkpt lat="43.41376" lon="2.42608">
        <ele>867.857</ele>
        <time>2021-05-24T13:36:07Z</time>
      </trkpt>
      <trkpt lat="43.41376" lon="2.42608">
        <ele>867.856</ele>
        <time>2021-05-24T13:36:09Z</time>
      </trkpt>
      <trkpt lat="43.41376" lon="2.42608">
        <ele>867.858</ele>
        <time>2021-05-24T13:36:11Z</time>
      </trkpt>
      <trkpt lat="43.41376" lon="2.42608">
        <ele>867.879</ele>
        <time>2021-05-24T13:36:13Z</time>
      </trkpt>
      <trkpt lat="43.41376" lon="2.42608">
        <ele>867.891</ele>
        <time>2021-05-24T13:36:15Z</time>
      </trkpt>
      <trkpt lat="43.41376" lon="2.42608">
        <ele>867.902</ele>
        <time>2021-05-24T13:36:17Z</time>
      </trkpt>
      <trkpt lat="43.41376" lon="2.42608">
        <ele>867.901</ele>
        <time>2021-05-24T13:36:19Z</time>
      </trkpt>
      <trkpt lat="43.41376" lon="2.42608">
        <ele>867.906</ele>
        <time>2021-05-24T13:36:21Z</time>
      </trkpt>
      <trkpt lat="43.41376" lon="2.42607">
        <ele>868.35</ele>
        <time>2021-05-24T13:36:23Z</time>
      </trkpt>
      <trkpt lat="43.41375" lon="2.42606">
        <ele>869.9</ele>
        <time>2021-05-24T13:36:25Z</time>
      </trkpt>
      <trkpt lat="43.41372" lon="2.42606">
        <ele>869.827</ele>
        <time>2021-05-24T13:36:27Z</time>
      </trkpt>
      <trkpt lat="43.4137" lon="2.42605">
        <ele>869.116</ele>
        <time>2021-05-24T13:36:29Z</time>
      </trkpt>
      <trkpt lat="43.41368" lon="2.42604">
        <ele>868.305</ele>
        <time>2021-05-24T13:36:31Z</time>
      </trkpt>
      <trkpt lat="43.41366" lon="2.42604">
        <ele>869.219</ele>
        <time>2021-05-24T13:36:33Z</time>
      </trkpt>
      <trkpt lat="43.41365" lon="2.42605">
        <ele>871.421</ele>
        <time>2021-05-24T13:36:35Z</time>
      </trkpt>
      <trkpt lat="43.41363" lon="2.42605">
        <ele>870.615</ele>
        <time>2021-05-24T13:36:37Z</time>
      </trkpt>
      <trkpt lat="43.4136" lon="2.42605">
        <ele>870.636</ele>
        <time>2021-05-24T13:36:39Z</time>
      </trkpt>
      <trkpt lat="43.41358" lon="2.42605">
        <ele>869.972</ele>
        <time>2021-05-24T13:36:41Z</time>
      </trkpt>
      <trkpt lat="43.41356" lon="2.42605">
        <ele>870.613</ele>
        <time>2021-05-24T13:36:43Z</time>
      </trkpt>
      <trkpt lat="43.41354" lon="2.42607">
        <ele>869.968</ele>
        <time>2021-05-24T13:36:45Z</time>
      </trkpt>
      <trkpt lat="43.41351" lon="2.42606">
        <ele>870.586</ele>
        <time>2021-05-24T13:36:47Z</time>
      </trkpt>
      <trkpt lat="43.41349" lon="2.42605">
        <ele>870.705</ele>
        <time>2021-05-24T13:36:49Z</time>
      </trkpt>
      <trkpt lat="43.41346" lon="2.42605">
        <ele>872.008</ele>
        <time>2021-05-24T13:36:51Z</time>
      </trkpt>
      <trkpt lat="43.41343" lon="2.42605">
        <ele>872.436</ele>
        <time>2021-05-24T13:36:53Z</time>
      </trkpt>
      <trkpt lat="43.41341" lon="2.42605">
        <ele>873.226</ele>
        <time>2021-05-24T13:36:55Z</time>
      </trkpt>
      <trkpt lat="43.41339" lon="2.42604">
        <ele>873.064</ele>
        <time>2021-05-24T13:36:57Z</time>
      </trkpt>
      <trkpt lat="43.41336" lon="2.42604">
        <ele>873.834</ele>
        <time>2021-05-24T13:36:59Z</time>
      </trkpt>
      <trkpt lat="43.41334" lon="2.42604">
        <ele>874.034</ele>
        <time>2021-05-24T13:37:01Z</time>
      </trkpt>
      <trkpt lat="43.41331" lon="2.42603">
        <ele>874.133</ele>
        <time>2021-05-24T13:37:03Z</time>
      </trkpt>
      <trkpt lat="43.41329" lon="2.42602">
        <ele>873.05</ele>
        <time>2021-05-24T13:37:05Z</time>
      </trkpt>
      <trkpt lat="43.41327" lon="2.42602">
        <ele>873.655</ele>
        <time>2021-05-24T13:37:07Z</time>
      </trkpt>
      <trkpt lat="43.41324" lon="2.42601">
        <ele>874.604</ele>
        <time>2021-05-24T13:37:09Z</time>
      </trkpt>
      <trkpt lat="43.41321" lon="2.426">
        <ele>874.85</ele>
        <time>2021-05-24T13:37:11Z</time>
      </trkpt>
      <trkpt lat="43.41318" lon="2.42598">
        <ele>876.462</ele>
        <time>2021-05-24T13:37:13Z</time>
      </trkpt>
      <trkpt lat="43.41316" lon="2.42597">
        <ele>876.922</ele>
        <time>2021-05-24T13:37:15Z</time>
      </trkpt>
      <trkpt lat="43.41313" lon="2.42595">
        <ele>877.748</ele>
        <time>2021-05-24T13:37:17Z</time>
      </trkpt>
      <trkpt lat="43.4131" lon="2.42595">
        <ele>877.758</ele>
        <time>2021-05-24T13:37:19Z</time>
      </trkpt>
      <trkpt lat="43.41308" lon="2.42594">
        <ele>878.66</ele>
        <time>2021-05-24T13:37:21Z</time>
      </trkpt>
      <trkpt lat="43.41305" lon="2.42593">
        <ele>878.258</ele>
        <time>2021-05-24T13:37:23Z</time>
      </trkpt>
      <trkpt lat="43.41302" lon="2.42593">
        <ele>879.048</ele>
        <time>2021-05-24T13:37:25Z</time>
      </trkpt>
      <trkpt lat="43.413" lon="2.42591">
        <ele>878.97</ele>
        <time>2021-05-24T13:37:27Z</time>
      </trkpt>
      <trkpt lat="43.41297" lon="2.4259">
        <ele>879.748</ele>
        <time>2021-05-24T13:37:29Z</time>
      </trkpt>
      <trkpt lat="43.41294" lon="2.42589">
        <ele>880.318</ele>
        <time>2021-05-24T13:37:31Z</time>
      </trkpt>
      <trkpt lat="43.41291" lon="2.42588">
        <ele>880.538</ele>
        <time>2021-05-24T13:37:33Z</time>
      </trkpt>
      <trkpt lat="43.41289" lon="2.42586">
        <ele>881.99</ele>
        <time>2021-05-24T13:37:35Z</time>
      </trkpt>
      <trkpt lat="43.41286" lon="2.42585">
        <ele>883.907</ele>
        <time>2021-05-24T13:37:37Z</time>
      </trkpt>
      <trkpt lat="43.41283" lon="2.42583">
        <ele>883.585</ele>
        <time>2021-05-24T13:37:39Z</time>
      </trkpt>
      <trkpt lat="43.4128" lon="2.42582">
        <ele>883.698</ele>
        <time>2021-05-24T13:37:41Z</time>
      </trkpt>
      <trkpt lat="43.41277" lon="2.4258">
        <ele>883.858</ele>
        <time>2021-05-24T13:37:43Z</time>
      </trkpt>
      <trkpt lat="43.41275" lon="2.42578">
        <ele>882.742</ele>
        <time>2021-05-24T13:37:45Z</time>
      </trkpt>
      <trkpt lat="43.41272" lon="2.42576">
        <ele>883.07</ele>
        <time>2021-05-24T13:37:47Z</time>
      </trkpt>
      <trkpt lat="43.41269" lon="2.42575">
        <ele>882.21</ele>
        <time>2021-05-24T13:37:49Z</time>
      </trkpt>
      <trkpt lat="43.41266" lon="2.42573">
        <ele>882.056</ele>
        <time>2021-05-24T13:37:51Z</time>
      </trkpt>
      <trkpt lat="43.41263" lon="2.42571">
        <ele>881.907</ele>
        <time>2021-05-24T13:37:53Z</time>
      </trkpt>
      <trkpt lat="43.41261" lon="2.42569">
        <ele>880.874</ele>
        <time>2021-05-24T13:37:55Z</time>
      </trkpt>
      <trkpt lat="43.41258" lon="2.42567">
        <ele>880.555</ele>
        <time>2021-05-24T13:37:57Z</time>
      </trkpt>
      <trkpt lat="43.41256" lon="2.42565">
        <ele>879.901</ele>
        <time>2021-05-24T13:37:59Z</time>
      </trkpt>
      <trkpt lat="43.41254" lon="2.42563">
        <ele>881.275</ele>
        <time>2021-05-24T13:38:01Z</time>
      </trkpt>
      <trkpt lat="43.41251" lon="2.42561">
        <ele>880.6</ele>
        <time>2021-05-24T13:38:03Z</time>
      </trkpt>
      <trkpt lat="43.41249" lon="2.4256">
        <ele>880.327</ele>
        <time>2021-05-24T13:38:05Z</time>
      </trkpt>
      <trkpt lat="43.41246" lon="2.42558">
        <ele>879.504</ele>
        <time>2021-05-24T13:38:07Z</time>
      </trkpt>
      <trkpt lat="43.41244" lon="2.42555">
        <ele>878.521</ele>
        <time>2021-05-24T13:38:09Z</time>
      </trkpt>
      <trkpt lat="43.41242" lon="2.42552">
        <ele>878.507</ele>
        <time>2021-05-24T13:38:11Z</time>
      </trkpt>
      <trkpt lat="43.41239" lon="2.4255">
        <ele>879.805</ele>
        <time>2021-05-24T13:38:13Z</time>
      </trkpt>
      <trkpt lat="43.41237" lon="2.42547">
        <ele>880.256</ele>
        <time>2021-05-24T13:38:15Z</time>
      </trkpt>
      <trkpt lat="43.41234" lon="2.42544">
        <ele>881.923</ele>
        <time>2021-05-24T13:38:17Z</time>
      </trkpt>
      <trkpt lat="43.41231" lon="2.42543">
        <ele>881.923</ele>
        <time>2021-05-24T13:38:19Z</time>
      </trkpt>
      <trkpt lat="43.41228" lon="2.42541">
        <ele>883.916</ele>
        <time>2021-05-24T13:38:21Z</time>
      </trkpt>
      <trkpt lat="43.41229" lon="2.42537">
        <ele>885.301</ele>
        <time>2021-05-24T13:38:23Z</time>
      </trkpt>
      <trkpt lat="43.41232" lon="2.42538">
        <ele>884.722</ele>
        <time>2021-05-24T13:38:25Z</time>
      </trkpt>
      <trkpt lat="43.41234" lon="2.42537">
        <ele>884.121</ele>
        <time>2021-05-24T13:38:27Z</time>
      </trkpt>
      <trkpt lat="43.41232" lon="2.4253">
        <ele>884.248</ele>
        <time>2021-05-24T13:38:29Z</time>
      </trkpt>
      <trkpt lat="43.41229" lon="2.42527">
        <ele>884.388</ele>
        <time>2021-05-24T13:38:31Z</time>
      </trkpt>
      <trkpt lat="43.41225" lon="2.42526">
        <ele>881.247</ele>
        <time>2021-05-24T13:38:33Z</time>
      </trkpt>
      <trkpt lat="43.41222" lon="2.42526">
        <ele>880.444</ele>
        <time>2021-05-24T13:38:35Z</time>
      </trkpt>
      <trkpt lat="43.41219" lon="2.42525">
        <ele>880.866</ele>
        <time>2021-05-24T13:38:37Z</time>
      </trkpt>
      <trkpt lat="43.41216" lon="2.42524">
        <ele>880.462</ele>
        <time>2021-05-24T13:38:39Z</time>
      </trkpt>
      <trkpt lat="43.41213" lon="2.42523">
        <ele>879.96</ele>
        <time>2021-05-24T13:38:41Z</time>
      </trkpt>
      <trkpt lat="43.4121" lon="2.42522">
        <ele>879.495</ele>
        <time>2021-05-24T13:38:43Z</time>
      </trkpt>
      <trkpt lat="43.41207" lon="2.4252">
        <ele>878.861</ele>
        <time>2021-05-24T13:38:45Z</time>
      </trkpt>
      <trkpt lat="43.41204" lon="2.42519">
        <ele>877.962</ele>
        <time>2021-05-24T13:38:47Z</time>
      </trkpt>
      <trkpt lat="43.41201" lon="2.42518">
        <ele>877.86</ele>
        <time>2021-05-24T13:38:49Z</time>
      </trkpt>
      <trkpt lat="43.41199" lon="2.42516">
        <ele>878.202</ele>
        <time>2021-05-24T13:38:51Z</time>
      </trkpt>
      <trkpt lat="43.41196" lon="2.42515">
        <ele>877.532</ele>
        <time>2021-05-24T13:38:53Z</time>
      </trkpt>
      <trkpt lat="43.41194" lon="2.42514">
        <ele>878.136</ele>
        <time>2021-05-24T13:38:55Z</time>
      </trkpt>
      <trkpt lat="43.41191" lon="2.42512">
        <ele>878.061</ele>
        <time>2021-05-24T13:38:57Z</time>
      </trkpt>
      <trkpt lat="43.41189" lon="2.4251">
        <ele>876.499</ele>
        <time>2021-05-24T13:38:59Z</time>
      </trkpt>
      <trkpt lat="43.41186" lon="2.42509">
        <ele>877.099</ele>
        <time>2021-05-24T13:39:01Z</time>
      </trkpt>
      <trkpt lat="43.41184" lon="2.42508">
        <ele>876.312</ele>
        <time>2021-05-24T13:39:03Z</time>
      </trkpt>
      <trkpt lat="43.41181" lon="2.42507">
        <ele>875.42</ele>
        <time>2021-05-24T13:39:05Z</time>
      </trkpt>
      <trkpt lat="43.41179" lon="2.42506">
        <ele>874.209</ele>
        <time>2021-05-24T13:39:07Z</time>
      </trkpt>
      <trkpt lat="43.41176" lon="2.42506">
        <ele>874.418</ele>
        <time>2021-05-24T13:39:09Z</time>
      </trkpt>
      <trkpt lat="43.41173" lon="2.42506">
        <ele>874.527</ele>
        <time>2021-05-24T13:39:11Z</time>
      </trkpt>
      <trkpt lat="43.4117" lon="2.42505">
        <ele>873.163</ele>
        <time>2021-05-24T13:39:13Z</time>
      </trkpt>
      <trkpt lat="43.41167" lon="2.42505">
        <ele>873.204</ele>
        <time>2021-05-24T13:39:15Z</time>
      </trkpt>
      <trkpt lat="43.41164" lon="2.42506">
        <ele>873.031</ele>
        <time>2021-05-24T13:39:17Z</time>
      </trkpt>
      <trkpt lat="43.41161" lon="2.42506">
        <ele>873.502</ele>
        <time>2021-05-24T13:39:19Z</time>
      </trkpt>
      <trkpt lat="43.41158" lon="2.42506">
        <ele>873.979</ele>
        <time>2021-05-24T13:39:21Z</time>
      </trkpt>
      <trkpt lat="43.41154" lon="2.42505">
        <ele>874.53</ele>
        <time>2021-05-24T13:39:23Z</time>
      </trkpt>
      <trkpt lat="43.41151" lon="2.42506">
        <ele>874.811</ele>
        <time>2021-05-24T13:39:25Z</time>
      </trkpt>
      <trkpt lat="43.41148" lon="2.42507">
        <ele>875.022</ele>
        <time>2021-05-24T13:39:27Z</time>
      </trkpt>
      <trkpt lat="43.41145" lon="2.42508">
        <ele>875.376</ele>
        <time>2021-05-24T13:39:29Z</time>
      </trkpt>
      <trkpt lat="43.41142" lon="2.42509">
        <ele>875.382</ele>
        <time>2021-05-24T13:39:31Z</time>
      </trkpt>
      <trkpt lat="43.41139" lon="2.42509">
        <ele>875.627</ele>
        <time>2021-05-24T13:39:33Z</time>
      </trkpt>
      <trkpt lat="43.41129" lon="2.42511">
        <ele>876.732</ele>
        <time>2021-05-24T13:39:40Z</time>
      </trkpt>
      <trkpt lat="43.41126" lon="2.42512">
        <ele>877.233</ele>
        <time>2021-05-24T13:39:42Z</time>
      </trkpt>
      <trkpt lat="43.41124" lon="2.42514">
        <ele>876.572</ele>
        <time>2021-05-24T13:39:44Z</time>
      </trkpt>
      <trkpt lat="43.41122" lon="2.42514">
        <ele>876.493</ele>
        <time>2021-05-24T13:39:46Z</time>
      </trkpt>
      <trkpt lat="43.4112" lon="2.42515">
        <ele>876.622</ele>
        <time>2021-05-24T13:39:48Z</time>
      </trkpt>
      <trkpt lat="43.41118" lon="2.42517">
        <ele>876.628</ele>
        <time>2021-05-24T13:39:50Z</time>
      </trkpt>
      <trkpt lat="43.41115" lon="2.42518">
        <ele>876.585</ele>
        <time>2021-05-24T13:39:52Z</time>
      </trkpt>
      <trkpt lat="43.41113" lon="2.4252">
        <ele>876.722</ele>
        <time>2021-05-24T13:39:54Z</time>
      </trkpt>
      <trkpt lat="43.41111" lon="2.42522">
        <ele>876.701</ele>
        <time>2021-05-24T13:39:56Z</time>
      </trkpt>
      <trkpt lat="43.41108" lon="2.42523">
        <ele>876.67</ele>
        <time>2021-05-24T13:39:58Z</time>
      </trkpt>
      <trkpt lat="43.41106" lon="2.42525">
        <ele>876.766</ele>
        <time>2021-05-24T13:40:00Z</time>
      </trkpt>
      <trkpt lat="43.41103" lon="2.42527">
        <ele>876.768</ele>
        <time>2021-05-24T13:40:02Z</time>
      </trkpt>
      <trkpt lat="43.41101" lon="2.42529">
        <ele>876.561</ele>
        <time>2021-05-24T13:40:04Z</time>
      </trkpt>
      <trkpt lat="43.41098" lon="2.42531">
        <ele>876.59</ele>
        <time>2021-05-24T13:40:06Z</time>
      </trkpt>
      <trkpt lat="43.41095" lon="2.42532">
        <ele>876.172</ele>
        <time>2021-05-24T13:40:08Z</time>
      </trkpt>
      <trkpt lat="43.41091" lon="2.42536">
        <ele>875.689</ele>
        <time>2021-05-24T13:40:10Z</time>
      </trkpt>
      <trkpt lat="43.41088" lon="2.42538">
        <ele>874.937</ele>
        <time>2021-05-24T13:40:12Z</time>
      </trkpt>
      <trkpt lat="43.41086" lon="2.42541">
        <ele>874.636</ele>
        <time>2021-05-24T13:40:14Z</time>
      </trkpt>
      <trkpt lat="43.41084" lon="2.42543">
        <ele>874.316</ele>
        <time>2021-05-24T13:40:16Z</time>
      </trkpt>
      <trkpt lat="43.41081" lon="2.42545">
        <ele>873.822</ele>
        <time>2021-05-24T13:40:18Z</time>
      </trkpt>
      <trkpt lat="43.41079" lon="2.42547">
        <ele>873.53</ele>
        <time>2021-05-24T13:40:20Z</time>
      </trkpt>
      <trkpt lat="43.41077" lon="2.42549">
        <ele>873.249</ele>
        <time>2021-05-24T13:40:22Z</time>
      </trkpt>
      <trkpt lat="43.41075" lon="2.4255">
        <ele>872.871</ele>
        <time>2021-05-24T13:40:24Z</time>
      </trkpt>
      <trkpt lat="43.41072" lon="2.42552">
        <ele>872.811</ele>
        <time>2021-05-24T13:40:26Z</time>
      </trkpt>
      <trkpt lat="43.41071" lon="2.42553">
        <ele>872.735</ele>
        <time>2021-05-24T13:40:28Z</time>
      </trkpt>
      <trkpt lat="43.41069" lon="2.42555">
        <ele>872.292</ele>
        <time>2021-05-24T13:40:30Z</time>
      </trkpt>
      <trkpt lat="43.41067" lon="2.42557">
        <ele>872.119</ele>
        <time>2021-05-24T13:40:32Z</time>
      </trkpt>
      <trkpt lat="43.41065" lon="2.42559">
        <ele>872.063</ele>
        <time>2021-05-24T13:40:34Z</time>
      </trkpt>
      <trkpt lat="43.41063" lon="2.42561">
        <ele>872.057</ele>
        <time>2021-05-24T13:40:36Z</time>
      </trkpt>
      <trkpt lat="43.41061" lon="2.42561">
        <ele>872.33</ele>
        <time>2021-05-24T13:40:38Z</time>
      </trkpt>
      <trkpt lat="43.4106" lon="2.42562">
        <ele>871.476</ele>
        <time>2021-05-24T13:40:40Z</time>
      </trkpt>
      <trkpt lat="43.4106" lon="2.42561">
        <ele>871.478</ele>
        <time>2021-05-24T13:40:42Z</time>
      </trkpt>
      <trkpt lat="43.4106" lon="2.42561">
        <ele>871.482</ele>
        <time>2021-05-24T13:40:44Z</time>
      </trkpt>
      <trkpt lat="43.4106" lon="2.42561">
        <ele>871.535</ele>
        <time>2021-05-24T13:40:46Z</time>
      </trkpt>
      <trkpt lat="43.41059" lon="2.42562">
        <ele>871.618</ele>
        <time>2021-05-24T13:40:48Z</time>
      </trkpt>
      <trkpt lat="43.41058" lon="2.42562">
        <ele>872.072</ele>
        <time>2021-05-24T13:40:50Z</time>
      </trkpt>
      <trkpt lat="43.41057" lon="2.42562">
        <ele>871.675</ele>
        <time>2021-05-24T13:40:52Z</time>
      </trkpt>
      <trkpt lat="43.41057" lon="2.42563">
        <ele>871.316</ele>
        <time>2021-05-24T13:40:54Z</time>
      </trkpt>
      <trkpt lat="43.41057" lon="2.42563">
        <ele>871.313</ele>
        <time>2021-05-24T13:40:56Z</time>
      </trkpt>
      <trkpt lat="43.41057" lon="2.42563">
        <ele>871.314</ele>
        <time>2021-05-24T13:40:58Z</time>
      </trkpt>
      <trkpt lat="43.41057" lon="2.42563">
        <ele>871.32</ele>
        <time>2021-05-24T13:41:00Z</time>
      </trkpt>
      <trkpt lat="43.41057" lon="2.42563">
        <ele>871.326</ele>
        <time>2021-05-24T13:41:02Z</time>
      </trkpt>
      <trkpt lat="43.41057" lon="2.42563">
        <ele>871.33</ele>
        <time>2021-05-24T13:41:04Z</time>
      </trkpt>
      <trkpt lat="43.41057" lon="2.42563">
        <ele>871.332</ele>
        <time>2021-05-24T13:41:06Z</time>
      </trkpt>
      <trkpt lat="43.41057" lon="2.42563">
        <ele>871.329</ele>
        <time>2021-05-24T13:41:08Z</time>
      </trkpt>
      <trkpt lat="43.41057" lon="2.42563">
        <ele>871.326</ele>
        <time>2021-05-24T13:41:10Z</time>
      </trkpt>
      <trkpt lat="43.41057" lon="2.42563">
        <ele>871.319</ele>
        <time>2021-05-24T13:41:12Z</time>
      </trkpt>
      <trkpt lat="43.41057" lon="2.42563">
        <ele>871.322</ele>
        <time>2021-05-24T13:41:14Z</time>
      </trkpt>
      <trkpt lat="43.41057" lon="2.42563">
        <ele>871.319</ele>
        <time>2021-05-24T13:41:16Z</time>
      </trkpt>
      <trkpt lat="43.41057" lon="2.42563">
        <ele>871.318</ele>
        <time>2021-05-24T13:41:18Z</time>
      </trkpt>
      <trkpt lat="43.41057" lon="2.42563">
        <ele>871.317</ele>
        <time>2021-05-24T13:41:20Z</time>
      </trkpt>
      <trkpt lat="43.41057" lon="2.42563">
        <ele>871.321</ele>
        <time>2021-05-24T13:41:22Z</time>
      </trkpt>
      <trkpt lat="43.41057" lon="2.42563">
        <ele>871.323</ele>
        <time>2021-05-24T13:41:24Z</time>
      </trkpt>
      <trkpt lat="43.41057" lon="2.42563">
        <ele>871.322</ele>
        <time>2021-05-24T13:41:26Z</time>
      </trkpt>
      <trkpt lat="43.41057" lon="2.42563">
        <ele>871.319</ele>
        <time>2021-05-24T13:41:28Z</time>
      </trkpt>
      <trkpt lat="43.41057" lon="2.42563">
        <ele>871.312</ele>
        <time>2021-05-24T13:41:30Z</time>
      </trkpt>
      <trkpt lat="43.41057" lon="2.42563">
        <ele>871.314</ele>
        <time>2021-05-24T13:41:32Z</time>
      </trkpt>
      <trkpt lat="43.41057" lon="2.42563">
        <ele>871.311</ele>
        <time>2021-05-24T13:41:34Z</time>
      </trkpt>
      <trkpt lat="43.41057" lon="2.42563">
        <ele>871.315</ele>
        <time>2021-05-24T13:41:36Z</time>
      </trkpt>
      <trkpt lat="43.41057" lon="2.42563">
        <ele>871.321</ele>
        <time>2021-05-24T13:41:38Z</time>
      </trkpt>
      <trkpt lat="43.41057" lon="2.42563">
        <ele>871.324</ele>
        <time>2021-05-24T13:41:40Z</time>
      </trkpt>
      <trkpt lat="43.41057" lon="2.42563">
        <ele>871.328</ele>
        <time>2021-05-24T13:41:42Z</time>
      </trkpt>
      <trkpt lat="43.41057" lon="2.42563">
        <ele>871.328</ele>
        <time>2021-05-24T13:41:44Z</time>
      </trkpt>
      <trkpt lat="43.41057" lon="2.42563">
        <ele>871.33</ele>
        <time>2021-05-24T13:41:46Z</time>
      </trkpt>
      <trkpt lat="43.41057" lon="2.42563">
        <ele>871.33</ele>
        <time>2021-05-24T13:41:48Z</time>
      </trkpt>
      <trkpt lat="43.41057" lon="2.42563">
        <ele>871.33</ele>
        <time>2021-05-24T13:41:50Z</time>
      </trkpt>
      <trkpt lat="43.41057" lon="2.42563">
        <ele>871.33</ele>
        <time>2021-05-24T13:41:52Z</time>
      </trkpt>
      <trkpt lat="43.41057" lon="2.42563">
        <ele>871.327</ele>
        <time>2021-05-24T13:41:54Z</time>
      </trkpt>
      <trkpt lat="43.41057" lon="2.42563">
        <ele>871.334</ele>
        <time>2021-05-24T13:41:56Z</time>
      </trkpt>
      <trkpt lat="43.41057" lon="2.42563">
        <ele>871.342</ele>
        <time>2021-05-24T13:41:58Z</time>
      </trkpt>
      <trkpt lat="43.41057" lon="2.42563">
        <ele>871.345</ele>
        <time>2021-05-24T13:42:00Z</time>
      </trkpt>
      <trkpt lat="43.41057" lon="2.42563">
        <ele>871.351</ele>
        <time>2021-05-24T13:42:02Z</time>
      </trkpt>
      <trkpt lat="43.41057" lon="2.42563">
        <ele>871.352</ele>
        <time>2021-05-24T13:42:04Z</time>
      </trkpt>
      <trkpt lat="43.41057" lon="2.42563">
        <ele>871.353</ele>
        <time>2021-05-24T13:42:06Z</time>
      </trkpt>
      <trkpt lat="43.41057" lon="2.42563">
        <ele>871.356</ele>
        <time>2021-05-24T13:42:08Z</time>
      </trkpt>
      <trkpt lat="43.41057" lon="2.42563">
        <ele>871.362</ele>
        <time>2021-05-24T13:42:10Z</time>
      </trkpt>
      <trkpt lat="43.41057" lon="2.42563">
        <ele>871.365</ele>
        <time>2021-05-24T13:42:12Z</time>
      </trkpt>
      <trkpt lat="43.41057" lon="2.42563">
        <ele>871.37</ele>
        <time>2021-05-24T13:42:14Z</time>
      </trkpt>
      <trkpt lat="43.41057" lon="2.42563">
        <ele>871.378</ele>
        <time>2021-05-24T13:42:16Z</time>
      </trkpt>
      <trkpt lat="43.41057" lon="2.42563">
        <ele>871.377</ele>
        <time>2021-05-24T13:42:18Z</time>
      </trkpt>
      <trkpt lat="43.41057" lon="2.42563">
        <ele>871.378</ele>
        <time>2021-05-24T13:42:20Z</time>
      </trkpt>
      <trkpt lat="43.41057" lon="2.42563">
        <ele>871.379</ele>
        <time>2021-05-24T13:42:22Z</time>
      </trkpt>
      <trkpt lat="43.41057" lon="2.42563">
        <ele>871.383</ele>
        <time>2021-05-24T13:42:24Z</time>
      </trkpt>
      <trkpt lat="43.41057" lon="2.42563">
        <ele>871.387</ele>
        <time>2021-05-24T13:42:26Z</time>
      </trkpt>
      <trkpt lat="43.41057" lon="2.42563">
        <ele>871.391</ele>
        <time>2021-05-24T13:42:28Z</time>
      </trkpt>
      <trkpt lat="43.41057" lon="2.42563">
        <ele>871.396</ele>
        <time>2021-05-24T13:42:30Z</time>
      </trkpt>
      <trkpt lat="43.41057" lon="2.42563">
        <ele>871.402</ele>
        <time>2021-05-24T13:42:32Z</time>
      </trkpt>
      <trkpt lat="43.41057" lon="2.42563">
        <ele>871.412</ele>
        <time>2021-05-24T13:42:34Z</time>
      </trkpt>
      <trkpt lat="43.41057" lon="2.42563">
        <ele>871.718</ele>
        <time>2021-05-24T13:42:36Z</time>
      </trkpt>
      <trkpt lat="43.41057" lon="2.42563">
        <ele>871.66</ele>
        <time>2021-05-24T13:42:38Z</time>
      </trkpt>
      <trkpt lat="43.41058" lon="2.42563">
        <ele>871.653</ele>
        <time>2021-05-24T13:42:40Z</time>
      </trkpt>
      <trkpt lat="43.41058" lon="2.42563">
        <ele>871.748</ele>
        <time>2021-05-24T13:42:42Z</time>
      </trkpt>
      <trkpt lat="43.41058" lon="2.42563">
        <ele>871.771</ele>
        <time>2021-05-24T13:42:44Z</time>
      </trkpt>
      <trkpt lat="43.41057" lon="2.42563">
        <ele>871.161</ele>
        <time>2021-05-24T13:42:46Z</time>
      </trkpt>
      <trkpt lat="43.41056" lon="2.42562">
        <ele>871.385</ele>
        <time>2021-05-24T13:42:48Z</time>
      </trkpt>
      <trkpt lat="43.41054" lon="2.4256">
        <ele>870.719</ele>
        <time>2021-05-24T13:42:50Z</time>
      </trkpt>
      <trkpt lat="43.41052" lon="2.42558">
        <ele>870.402</ele>
        <time>2021-05-24T13:42:52Z</time>
      </trkpt>
      <trkpt lat="43.41051" lon="2.42555">
        <ele>870.189</ele>
        <time>2021-05-24T13:42:54Z</time>
      </trkpt>
      <trkpt lat="43.41049" lon="2.42553">
        <ele>870.095</ele>
        <time>2021-05-24T13:42:56Z</time>
      </trkpt>
      <trkpt lat="43.41047" lon="2.4255">
        <ele>870.182</ele>
        <time>2021-05-24T13:42:58Z</time>
      </trkpt>
      <trkpt lat="43.41046" lon="2.42549">
        <ele>869.954</ele>
        <time>2021-05-24T13:43:00Z</time>
      </trkpt>
      <trkpt lat="43.41045" lon="2.4255">
        <ele>869.359</ele>
        <time>2021-05-24T13:43:02Z</time>
      </trkpt>
      <trkpt lat="43.41045" lon="2.4255">
        <ele>869.36</ele>
        <time>2021-05-24T13:43:04Z</time>
      </trkpt>
      <trkpt lat="43.41044" lon="2.4255">
        <ele>869.082</ele>
        <time>2021-05-24T13:43:06Z</time>
      </trkpt>
      <trkpt lat="43.41044" lon="2.4255">
        <ele>869.167</ele>
        <time>2021-05-24T13:43:08Z</time>
      </trkpt>
      <trkpt lat="43.41044" lon="2.42549">
        <ele>869.002</ele>
        <time>2021-05-24T13:43:10Z</time>
      </trkpt>
      <trkpt lat="43.41043" lon="2.42548">
        <ele>868.803</ele>
        <time>2021-05-24T13:43:12Z</time>
      </trkpt>
      <trkpt lat="43.41042" lon="2.42547">
        <ele>869.474</ele>
        <time>2021-05-24T13:43:14Z</time>
      </trkpt>
      <trkpt lat="43.41041" lon="2.42545">
        <ele>869.323</ele>
        <time>2021-05-24T13:43:16Z</time>
      </trkpt>
      <trkpt lat="43.41039" lon="2.42543">
        <ele>868.334</ele>
        <time>2021-05-24T13:43:18Z</time>
      </trkpt>
      <trkpt lat="43.41036" lon="2.42541">
        <ele>867.886</ele>
        <time>2021-05-24T13:43:20Z</time>
      </trkpt>
      <trkpt lat="43.41034" lon="2.42539">
        <ele>867.943</ele>
        <time>2021-05-24T13:43:22Z</time>
      </trkpt>
      <trkpt lat="43.41032" lon="2.42538">
        <ele>867.538</ele>
        <time>2021-05-24T13:43:24Z</time>
      </trkpt>
      <trkpt lat="43.4103" lon="2.42536">
        <ele>867.294</ele>
        <time>2021-05-24T13:43:26Z</time>
      </trkpt>
      <trkpt lat="43.41028" lon="2.42535">
        <ele>867.527</ele>
        <time>2021-05-24T13:43:28Z</time>
      </trkpt>
      <trkpt lat="43.41025" lon="2.42536">
        <ele>868.487</ele>
        <time>2021-05-24T13:43:30Z</time>
      </trkpt>
      <trkpt lat="43.41022" lon="2.42537">
        <ele>866.354</ele>
        <time>2021-05-24T13:43:32Z</time>
      </trkpt>
      <trkpt lat="43.4102" lon="2.42536">
        <ele>865.656</ele>
        <time>2021-05-24T13:43:34Z</time>
      </trkpt>
      <trkpt lat="43.41018" lon="2.42535">
        <ele>864.389</ele>
        <time>2021-05-24T13:43:36Z</time>
      </trkpt>
      <trkpt lat="43.41016" lon="2.42534">
        <ele>864.871</ele>
        <time>2021-05-24T13:43:38Z</time>
      </trkpt>
      <trkpt lat="43.41014" lon="2.42532">
        <ele>863.978</ele>
        <time>2021-05-24T13:43:40Z</time>
      </trkpt>
      <trkpt lat="43.41012" lon="2.42529">
        <ele>863.497</ele>
        <time>2021-05-24T13:43:42Z</time>
      </trkpt>
      <trkpt lat="43.4101" lon="2.42526">
        <ele>863.272</ele>
        <time>2021-05-24T13:43:44Z</time>
      </trkpt>
      <trkpt lat="43.41008" lon="2.42523">
        <ele>863.098</ele>
        <time>2021-05-24T13:43:46Z</time>
      </trkpt>
      <trkpt lat="43.41007" lon="2.4252">
        <ele>863.911</ele>
        <time>2021-05-24T13:43:48Z</time>
      </trkpt>
      <trkpt lat="43.41005" lon="2.42518">
        <ele>863.664</ele>
        <time>2021-05-24T13:43:50Z</time>
      </trkpt>
      <trkpt lat="43.41003" lon="2.42515">
        <ele>863.217</ele>
        <time>2021-05-24T13:43:52Z</time>
      </trkpt>
      <trkpt lat="43.41001" lon="2.42517">
        <ele>861.415</ele>
        <time>2021-05-24T13:43:54Z</time>
      </trkpt>
      <trkpt lat="43.40999" lon="2.42513">
        <ele>863.865</ele>
        <time>2021-05-24T13:43:56Z</time>
      </trkpt>
      <trkpt lat="43.40997" lon="2.42511">
        <ele>862.436</ele>
        <time>2021-05-24T13:43:58Z</time>
      </trkpt>
      <trkpt lat="43.40995" lon="2.42509">
        <ele>862.02</ele>
        <time>2021-05-24T13:44:00Z</time>
      </trkpt>
      <trkpt lat="43.40992" lon="2.42508">
        <ele>861.125</ele>
        <time>2021-05-24T13:44:02Z</time>
      </trkpt>
      <trkpt lat="43.4099" lon="2.42506">
        <ele>860.706</ele>
        <time>2021-05-24T13:44:04Z</time>
      </trkpt>
      <trkpt lat="43.40987" lon="2.42504">
        <ele>861.562</ele>
        <time>2021-05-24T13:44:06Z</time>
      </trkpt>
      <trkpt lat="43.40985" lon="2.42503">
        <ele>861.121</ele>
        <time>2021-05-24T13:44:08Z</time>
      </trkpt>
      <trkpt lat="43.40982" lon="2.42501">
        <ele>861.07</ele>
        <time>2021-05-24T13:44:10Z</time>
      </trkpt>
      <trkpt lat="43.40979" lon="2.42499">
        <ele>860.455</ele>
        <time>2021-05-24T13:44:12Z</time>
      </trkpt>
      <trkpt lat="43.40977" lon="2.42497">
        <ele>860.054</ele>
        <time>2021-05-24T13:44:14Z</time>
      </trkpt>
      <trkpt lat="43.40974" lon="2.42495">
        <ele>859.694</ele>
        <time>2021-05-24T13:44:16Z</time>
      </trkpt>
      <trkpt lat="43.40971" lon="2.42494">
        <ele>859.512</ele>
        <time>2021-05-24T13:44:18Z</time>
      </trkpt>
      <trkpt lat="43.40969" lon="2.42492">
        <ele>858.897</ele>
        <time>2021-05-24T13:44:20Z</time>
      </trkpt>
      <trkpt lat="43.40966" lon="2.4249">
        <ele>858.404</ele>
        <time>2021-05-24T13:44:22Z</time>
      </trkpt>
      <trkpt lat="43.40964" lon="2.42488">
        <ele>858.467</ele>
        <time>2021-05-24T13:44:24Z</time>
      </trkpt>
      <trkpt lat="43.40961" lon="2.42486">
        <ele>858.094</ele>
        <time>2021-05-24T13:44:26Z</time>
      </trkpt>
      <trkpt lat="43.40958" lon="2.42483">
        <ele>858.351</ele>
        <time>2021-05-24T13:44:28Z</time>
      </trkpt>
      <trkpt lat="43.40956" lon="2.4248">
        <ele>858.872</ele>
        <time>2021-05-24T13:44:30Z</time>
      </trkpt>
      <trkpt lat="43.40953" lon="2.42477">
        <ele>859.12</ele>
        <time>2021-05-24T13:44:32Z</time>
      </trkpt>
      <trkpt lat="43.40951" lon="2.42474">
        <ele>860.411</ele>
        <time>2021-05-24T13:44:34Z</time>
      </trkpt>
      <trkpt lat="43.40949" lon="2.42472">
        <ele>861.613</ele>
        <time>2021-05-24T13:44:36Z</time>
      </trkpt>
      <trkpt lat="43.40946" lon="2.4247">
        <ele>862.622</ele>
        <time>2021-05-24T13:44:38Z</time>
      </trkpt>
      <trkpt lat="43.40947" lon="2.42471">
        <ele>861.569</ele>
        <time>2021-05-24T13:44:40Z</time>
      </trkpt>
      <trkpt lat="43.40946" lon="2.4247">
        <ele>861.914</ele>
        <time>2021-05-24T13:44:42Z</time>
      </trkpt>
      <trkpt lat="43.40944" lon="2.42468">
        <ele>861.601</ele>
        <time>2021-05-24T13:44:44Z</time>
      </trkpt>
      <trkpt lat="43.40941" lon="2.42466">
        <ele>861.196</ele>
        <time>2021-05-24T13:44:46Z</time>
      </trkpt>
      <trkpt lat="43.40939" lon="2.42464">
        <ele>861.216</ele>
        <time>2021-05-24T13:44:48Z</time>
      </trkpt>
      <trkpt lat="43.40938" lon="2.42462">
        <ele>861.393</ele>
        <time>2021-05-24T13:44:50Z</time>
      </trkpt>
      <trkpt lat="43.40936" lon="2.4246">
        <ele>860.28</ele>
        <time>2021-05-24T13:44:52Z</time>
      </trkpt>
      <trkpt lat="43.40935" lon="2.42459">
        <ele>858.99</ele>
        <time>2021-05-24T13:44:54Z</time>
      </trkpt>
      <trkpt lat="43.40933" lon="2.42456">
        <ele>858.038</ele>
        <time>2021-05-24T13:44:56Z</time>
      </trkpt>
      <trkpt lat="43.40931" lon="2.42453">
        <ele>858.179</ele>
        <time>2021-05-24T13:44:58Z</time>
      </trkpt>
      <trkpt lat="43.40929" lon="2.42451">
        <ele>856.773</ele>
        <time>2021-05-24T13:45:00Z</time>
      </trkpt>
      <trkpt lat="43.40926" lon="2.4245">
        <ele>855.853</ele>
        <time>2021-05-24T13:45:02Z</time>
      </trkpt>
      <trkpt lat="43.40924" lon="2.42448">
        <ele>855.618</ele>
        <time>2021-05-24T13:45:04Z</time>
      </trkpt>
      <trkpt lat="43.40922" lon="2.42446">
        <ele>855.41</ele>
        <time>2021-05-24T13:45:06Z</time>
      </trkpt>
      <trkpt lat="43.4092" lon="2.42443">
        <ele>854.956</ele>
        <time>2021-05-24T13:45:08Z</time>
      </trkpt>
      <trkpt lat="43.40918" lon="2.42441">
        <ele>853.79</ele>
        <time>2021-05-24T13:45:10Z</time>
      </trkpt>
      <trkpt lat="43.40916" lon="2.42439">
        <ele>853.133</ele>
        <time>2021-05-24T13:45:12Z</time>
      </trkpt>
      <trkpt lat="43.40914" lon="2.42437">
        <ele>852.432</ele>
        <time>2021-05-24T13:45:14Z</time>
      </trkpt>
      <trkpt lat="43.40912" lon="2.42435">
        <ele>852.154</ele>
        <time>2021-05-24T13:45:16Z</time>
      </trkpt>
      <trkpt lat="43.4091" lon="2.42433">
        <ele>851.904</ele>
        <time>2021-05-24T13:45:18Z</time>
      </trkpt>
      <trkpt lat="43.40907" lon="2.42431">
        <ele>850.853</ele>
        <time>2021-05-24T13:45:20Z</time>
      </trkpt>
      <trkpt lat="43.40905" lon="2.42429">
        <ele>850.316</ele>
        <time>2021-05-24T13:45:22Z</time>
      </trkpt>
      <trkpt lat="43.40904" lon="2.42427">
        <ele>850.016</ele>
        <time>2021-05-24T13:45:24Z</time>
      </trkpt>
      <trkpt lat="43.40902" lon="2.42426">
        <ele>849.139</ele>
        <time>2021-05-24T13:45:26Z</time>
      </trkpt>
      <trkpt lat="43.409" lon="2.42425">
        <ele>848.917</ele>
        <time>2021-05-24T13:45:28Z</time>
      </trkpt>
      <trkpt lat="43.40899" lon="2.42423">
        <ele>848.052</ele>
        <time>2021-05-24T13:45:30Z</time>
      </trkpt>
      <trkpt lat="43.40898" lon="2.42422">
        <ele>847.773</ele>
        <time>2021-05-24T13:45:32Z</time>
      </trkpt>
      <trkpt lat="43.40897" lon="2.4242">
        <ele>847.43</ele>
        <time>2021-05-24T13:45:34Z</time>
      </trkpt>
      <trkpt lat="43.40896" lon="2.42419">
        <ele>847.442</ele>
        <time>2021-05-24T13:45:36Z</time>
      </trkpt>
      <trkpt lat="43.40896" lon="2.42419">
        <ele>847.44</ele>
        <time>2021-05-24T13:45:38Z</time>
      </trkpt>
      <trkpt lat="43.40896" lon="2.42419">
        <ele>847.443</ele>
        <time>2021-05-24T13:45:40Z</time>
      </trkpt>
      <trkpt lat="43.40897" lon="2.42419">
        <ele>847.248</ele>
        <time>2021-05-24T13:45:42Z</time>
      </trkpt>
      <trkpt lat="43.40897" lon="2.42419">
        <ele>846.981</ele>
        <time>2021-05-24T13:45:44Z</time>
      </trkpt>
      <trkpt lat="43.40896" lon="2.42417">
        <ele>847.603</ele>
        <time>2021-05-24T13:45:46Z</time>
      </trkpt>
      <trkpt lat="43.40894" lon="2.42415">
        <ele>847.272</ele>
        <time>2021-05-24T13:45:48Z</time>
      </trkpt>
      <trkpt lat="43.40892" lon="2.42413">
        <ele>846.754</ele>
        <time>2021-05-24T13:45:50Z</time>
      </trkpt>
      <trkpt lat="43.40891" lon="2.42411">
        <ele>846.328</ele>
        <time>2021-05-24T13:45:52Z</time>
      </trkpt>
      <trkpt lat="43.40889" lon="2.4241">
        <ele>845.823</ele>
        <time>2021-05-24T13:45:54Z</time>
      </trkpt>
      <trkpt lat="43.40887" lon="2.42408">
        <ele>845.891</ele>
        <time>2021-05-24T13:45:56Z</time>
      </trkpt>
      <trkpt lat="43.40885" lon="2.42406">
        <ele>844.835</ele>
        <time>2021-05-24T13:45:58Z</time>
      </trkpt>
      <trkpt lat="43.40884" lon="2.42404">
        <ele>844.402</ele>
        <time>2021-05-24T13:46:00Z</time>
      </trkpt>
      <trkpt lat="43.40882" lon="2.42401">
        <ele>843.542</ele>
        <time>2021-05-24T13:46:02Z</time>
      </trkpt>
      <trkpt lat="43.4088" lon="2.42398">
        <ele>843.694</ele>
        <time>2021-05-24T13:46:04Z</time>
      </trkpt>
      <trkpt lat="43.40879" lon="2.42396">
        <ele>842.964</ele>
        <time>2021-05-24T13:46:06Z</time>
      </trkpt>
      <trkpt lat="43.40877" lon="2.42394">
        <ele>842.764</ele>
        <time>2021-05-24T13:46:08Z</time>
      </trkpt>
      <trkpt lat="43.40875" lon="2.42392">
        <ele>841.042</ele>
        <time>2021-05-24T13:46:10Z</time>
      </trkpt>
      <trkpt lat="43.40873" lon="2.4239">
        <ele>840.903</ele>
        <time>2021-05-24T13:46:12Z</time>
      </trkpt>
      <trkpt lat="43.40871" lon="2.42388">
        <ele>839.944</ele>
        <time>2021-05-24T13:46:14Z</time>
      </trkpt>
      <trkpt lat="43.40868" lon="2.42386">
        <ele>839.97</ele>
        <time>2021-05-24T13:46:16Z</time>
      </trkpt>
      <trkpt lat="43.40866" lon="2.42383">
        <ele>838.919</ele>
        <time>2021-05-24T13:46:18Z</time>
      </trkpt>
      <trkpt lat="43.40864" lon="2.42381">
        <ele>838.217</ele>
        <time>2021-05-24T13:46:20Z</time>
      </trkpt>
      <trkpt lat="43.40862" lon="2.42378">
        <ele>837.791</ele>
        <time>2021-05-24T13:46:22Z</time>
      </trkpt>
      <trkpt lat="43.40861" lon="2.42376">
        <ele>837.917</ele>
        <time>2021-05-24T13:46:24Z</time>
      </trkpt>
      <trkpt lat="43.40859" lon="2.42373">
        <ele>837.936</ele>
        <time>2021-05-24T13:46:26Z</time>
      </trkpt>
      <trkpt lat="43.40857" lon="2.4237">
        <ele>837.591</ele>
        <time>2021-05-24T13:46:28Z</time>
      </trkpt>
      <trkpt lat="43.40855" lon="2.42368">
        <ele>837.258</ele>
        <time>2021-05-24T13:46:30Z</time>
      </trkpt>
      <trkpt lat="43.40853" lon="2.42366">
        <ele>836.645</ele>
        <time>2021-05-24T13:46:32Z</time>
      </trkpt>
      <trkpt lat="43.40851" lon="2.42363">
        <ele>835.781</ele>
        <time>2021-05-24T13:46:34Z</time>
      </trkpt>
      <trkpt lat="43.40848" lon="2.42361">
        <ele>835.533</ele>
        <time>2021-05-24T13:46:36Z</time>
      </trkpt>
      <trkpt lat="43.40846" lon="2.42358">
        <ele>834.735</ele>
        <time>2021-05-24T13:46:38Z</time>
      </trkpt>
      <trkpt lat="43.40844" lon="2.42356">
        <ele>834.287</ele>
        <time>2021-05-24T13:46:40Z</time>
      </trkpt>
      <trkpt lat="43.40842" lon="2.42354">
        <ele>833.392</ele>
        <time>2021-05-24T13:46:42Z</time>
      </trkpt>
      <trkpt lat="43.40841" lon="2.4235">
        <ele>833.539</ele>
        <time>2021-05-24T13:46:44Z</time>
      </trkpt>
      <trkpt lat="43.40841" lon="2.42346">
        <ele>833.558</ele>
        <time>2021-05-24T13:46:46Z</time>
      </trkpt>
      <trkpt lat="43.4084" lon="2.42343">
        <ele>833.357</ele>
        <time>2021-05-24T13:46:48Z</time>
      </trkpt>
      <trkpt lat="43.40839" lon="2.42341">
        <ele>832.016</ele>
        <time>2021-05-24T13:46:50Z</time>
      </trkpt>
      <trkpt lat="43.40839" lon="2.42338">
        <ele>831.36</ele>
        <time>2021-05-24T13:46:52Z</time>
      </trkpt>
      <trkpt lat="43.40839" lon="2.42334">
        <ele>831.478</ele>
        <time>2021-05-24T13:46:54Z</time>
      </trkpt>
      <trkpt lat="43.40839" lon="2.42331">
        <ele>831.828</ele>
        <time>2021-05-24T13:46:56Z</time>
      </trkpt>
      <trkpt lat="43.4084" lon="2.42328">
        <ele>831.274</ele>
        <time>2021-05-24T13:46:58Z</time>
      </trkpt>
      <trkpt lat="43.4084" lon="2.42325">
        <ele>831.151</ele>
        <time>2021-05-24T13:47:00Z</time>
      </trkpt>
      <trkpt lat="43.40841" lon="2.42321">
        <ele>831.046</ele>
        <time>2021-05-24T13:47:02Z</time>
      </trkpt>
      <trkpt lat="43.40842" lon="2.42318">
        <ele>830.852</ele>
        <time>2021-05-24T13:47:04Z</time>
      </trkpt>
      <trkpt lat="43.40843" lon="2.42315">
        <ele>831.765</ele>
        <time>2021-05-24T13:47:06Z</time>
      </trkpt>
      <trkpt lat="43.40845" lon="2.42312">
        <ele>831.014</ele>
        <time>2021-05-24T13:47:08Z</time>
      </trkpt>
      <trkpt lat="43.40847" lon="2.4231">
        <ele>831.268</ele>
        <time>2021-05-24T13:47:10Z</time>
      </trkpt>
      <trkpt lat="43.40848" lon="2.42307">
        <ele>832.313</ele>
        <time>2021-05-24T13:47:12Z</time>
      </trkpt>
      <trkpt lat="43.4085" lon="2.42305">
        <ele>832.549</ele>
        <time>2021-05-24T13:47:14Z</time>
      </trkpt>
      <trkpt lat="43.40852" lon="2.42303">
        <ele>832.431</ele>
        <time>2021-05-24T13:47:16Z</time>
      </trkpt>
      <trkpt lat="43.40853" lon="2.42299">
        <ele>832.802</ele>
        <time>2021-05-24T13:47:18Z</time>
      </trkpt>
      <trkpt lat="43.40854" lon="2.42296">
        <ele>833.982</ele>
        <time>2021-05-24T13:47:20Z</time>
      </trkpt>
      <trkpt lat="43.40855" lon="2.42293">
        <ele>834.774</ele>
        <time>2021-05-24T13:47:22Z</time>
      </trkpt>
      <trkpt lat="43.40856" lon="2.42291">
        <ele>834.116</ele>
        <time>2021-05-24T13:47:24Z</time>
      </trkpt>
      <trkpt lat="43.40857" lon="2.42288">
        <ele>834.118</ele>
        <time>2021-05-24T13:47:26Z</time>
      </trkpt>
      <trkpt lat="43.40859" lon="2.42285">
        <ele>834.015</ele>
        <time>2021-05-24T13:47:28Z</time>
      </trkpt>
      <trkpt lat="43.4086" lon="2.42282">
        <ele>833.944</ele>
        <time>2021-05-24T13:47:30Z</time>
      </trkpt>
      <trkpt lat="43.40861" lon="2.4228">
        <ele>834.415</ele>
        <time>2021-05-24T13:47:32Z</time>
      </trkpt>
      <trkpt lat="43.40862" lon="2.42276">
        <ele>833.354</ele>
        <time>2021-05-24T13:47:34Z</time>
      </trkpt>
      <trkpt lat="43.40863" lon="2.42273">
        <ele>833.532</ele>
        <time>2021-05-24T13:47:36Z</time>
      </trkpt>
      <trkpt lat="43.40864" lon="2.4227">
        <ele>833.489</ele>
        <time>2021-05-24T13:47:38Z</time>
      </trkpt>
      <trkpt lat="43.40865" lon="2.42267">
        <ele>833.813</ele>
        <time>2021-05-24T13:47:40Z</time>
      </trkpt>
      <trkpt lat="43.40867" lon="2.42265">
        <ele>834.225</ele>
        <time>2021-05-24T13:47:42Z</time>
      </trkpt>
      <trkpt lat="43.40868" lon="2.42262">
        <ele>834.454</ele>
        <time>2021-05-24T13:47:44Z</time>
      </trkpt>
      <trkpt lat="43.40868" lon="2.42259">
        <ele>834.699</ele>
        <time>2021-05-24T13:47:46Z</time>
      </trkpt>
      <trkpt lat="43.4087" lon="2.42256">
        <ele>834.891</ele>
        <time>2021-05-24T13:47:48Z</time>
      </trkpt>
      <trkpt lat="43.40871" lon="2.42253">
        <ele>834.573</ele>
        <time>2021-05-24T13:47:50Z</time>
      </trkpt>
      <trkpt lat="43.40872" lon="2.4225">
        <ele>834.223</ele>
        <time>2021-05-24T13:47:52Z</time>
      </trkpt>
      <trkpt lat="43.40873" lon="2.42247">
        <ele>833.834</ele>
        <time>2021-05-24T13:47:54Z</time>
      </trkpt>
      <trkpt lat="43.40874" lon="2.42244">
        <ele>833.896</ele>
        <time>2021-05-24T13:47:56Z</time>
      </trkpt>
      <trkpt lat="43.40876" lon="2.42241">
        <ele>833.942</ele>
        <time>2021-05-24T13:47:58Z</time>
      </trkpt>
      <trkpt lat="43.40877" lon="2.42237">
        <ele>834.453</ele>
        <time>2021-05-24T13:48:00Z</time>
      </trkpt>
      <trkpt lat="43.40879" lon="2.42234">
        <ele>834.251</ele>
        <time>2021-05-24T13:48:02Z</time>
      </trkpt>
      <trkpt lat="43.40879" lon="2.42231">
        <ele>834.217</ele>
        <time>2021-05-24T13:48:04Z</time>
      </trkpt>
      <trkpt lat="43.4088" lon="2.42228">
        <ele>834.598</ele>
        <time>2021-05-24T13:48:06Z</time>
      </trkpt>
      <trkpt lat="43.40882" lon="2.42225">
        <ele>834.892</ele>
        <time>2021-05-24T13:48:08Z</time>
      </trkpt>
      <trkpt lat="43.40883" lon="2.42223">
        <ele>835.182</ele>
        <time>2021-05-24T13:48:10Z</time>
      </trkpt>
      <trkpt lat="43.40883" lon="2.42219">
        <ele>834.89</ele>
        <time>2021-05-24T13:48:12Z</time>
      </trkpt>
      <trkpt lat="43.40885" lon="2.42217">
        <ele>834.866</ele>
        <time>2021-05-24T13:48:14Z</time>
      </trkpt>
      <trkpt lat="43.40886" lon="2.42214">
        <ele>834.247</ele>
        <time>2021-05-24T13:48:16Z</time>
      </trkpt>
      <trkpt lat="43.40887" lon="2.42211">
        <ele>834.212</ele>
        <time>2021-05-24T13:48:18Z</time>
      </trkpt>
      <trkpt lat="43.40887" lon="2.42208">
        <ele>833.929</ele>
        <time>2021-05-24T13:48:20Z</time>
      </trkpt>
      <trkpt lat="43.40888" lon="2.42205">
        <ele>833.774</ele>
        <time>2021-05-24T13:48:22Z</time>
      </trkpt>
      <trkpt lat="43.40889" lon="2.42202">
        <ele>834.487</ele>
        <time>2021-05-24T13:48:24Z</time>
      </trkpt>
      <trkpt lat="43.40894" lon="2.42199">
        <ele>837.256</ele>
        <time>2021-05-24T13:48:26Z</time>
      </trkpt>
      <trkpt lat="43.40896" lon="2.42196">
        <ele>837.493</ele>
        <time>2021-05-24T13:48:28Z</time>
      </trkpt>
      <trkpt lat="43.40898" lon="2.42194">
        <ele>838.969</ele>
        <time>2021-05-24T13:48:30Z</time>
      </trkpt>
      <trkpt lat="43.40899" lon="2.42191">
        <ele>839.132</ele>
        <time>2021-05-24T13:48:32Z</time>
      </trkpt>
      <trkpt lat="43.40901" lon="2.42189">
        <ele>838.939</ele>
        <time>2021-05-24T13:48:34Z</time>
      </trkpt>
      <trkpt lat="43.40902" lon="2.42187">
        <ele>838.973</ele>
        <time>2021-05-24T13:48:36Z</time>
      </trkpt>
      <trkpt lat="43.40903" lon="2.42184">
        <ele>838.874</ele>
        <time>2021-05-24T13:48:38Z</time>
      </trkpt>
      <trkpt lat="43.40904" lon="2.42181">
        <ele>838.281</ele>
        <time>2021-05-24T13:48:40Z</time>
      </trkpt>
      <trkpt lat="43.40906" lon="2.42179">
        <ele>838.179</ele>
        <time>2021-05-24T13:48:42Z</time>
      </trkpt>
      <trkpt lat="43.40907" lon="2.42176">
        <ele>838.682</ele>
        <time>2021-05-24T13:48:44Z</time>
      </trkpt>
      <trkpt lat="43.40908" lon="2.42173">
        <ele>837.996</ele>
        <time>2021-05-24T13:48:46Z</time>
      </trkpt>
      <trkpt lat="43.4091" lon="2.42171">
        <ele>837.993</ele>
        <time>2021-05-24T13:48:48Z</time>
      </trkpt>
      <trkpt lat="43.40911" lon="2.42168">
        <ele>838.112</ele>
        <time>2021-05-24T13:48:50Z</time>
      </trkpt>
      <trkpt lat="43.40913" lon="2.42165">
        <ele>838.46</ele>
        <time>2021-05-24T13:48:52Z</time>
      </trkpt>
      <trkpt lat="43.40915" lon="2.42163">
        <ele>839.272</ele>
        <time>2021-05-24T13:48:54Z</time>
      </trkpt>
      <trkpt lat="43.40917" lon="2.42159">
        <ele>838.69</ele>
        <time>2021-05-24T13:48:56Z</time>
      </trkpt>
      <trkpt lat="43.40919" lon="2.42157">
        <ele>838.829</ele>
        <time>2021-05-24T13:48:58Z</time>
      </trkpt>
      <trkpt lat="43.40921" lon="2.42155">
        <ele>838.617</ele>
        <time>2021-05-24T13:49:00Z</time>
      </trkpt>
      <trkpt lat="43.40923" lon="2.42152">
        <ele>838.361</ele>
        <time>2021-05-24T13:49:02Z</time>
      </trkpt>
      <trkpt lat="43.40924" lon="2.42149">
        <ele>838.224</ele>
        <time>2021-05-24T13:49:04Z</time>
      </trkpt>
      <trkpt lat="43.40926" lon="2.42147">
        <ele>838.007</ele>
        <time>2021-05-24T13:49:06Z</time>
      </trkpt>
      <trkpt lat="43.40928" lon="2.42144">
        <ele>837.745</ele>
        <time>2021-05-24T13:49:08Z</time>
      </trkpt>
      <trkpt lat="43.40929" lon="2.42141">
        <ele>837.311</ele>
        <time>2021-05-24T13:49:10Z</time>
      </trkpt>
      <trkpt lat="43.40931" lon="2.42139">
        <ele>837.173</ele>
        <time>2021-05-24T13:49:12Z</time>
      </trkpt>
      <trkpt lat="43.40932" lon="2.42136">
        <ele>837.361</ele>
        <time>2021-05-24T13:49:14Z</time>
      </trkpt>
      <trkpt lat="43.40934" lon="2.42133">
        <ele>836.943</ele>
        <time>2021-05-24T13:49:16Z</time>
      </trkpt>
      <trkpt lat="43.40936" lon="2.4213">
        <ele>836.949</ele>
        <time>2021-05-24T13:49:18Z</time>
      </trkpt>
      <trkpt lat="43.40938" lon="2.42128">
        <ele>837.136</ele>
        <time>2021-05-24T13:49:20Z</time>
      </trkpt>
      <trkpt lat="43.4094" lon="2.42125">
        <ele>837.328</ele>
        <time>2021-05-24T13:49:22Z</time>
      </trkpt>
      <trkpt lat="43.40943" lon="2.42123">
        <ele>837.755</ele>
        <time>2021-05-24T13:49:24Z</time>
      </trkpt>
      <trkpt lat="43.40945" lon="2.42121">
        <ele>838.331</ele>
        <time>2021-05-24T13:49:26Z</time>
      </trkpt>
      <trkpt lat="43.40947" lon="2.42119">
        <ele>838.621</ele>
        <time>2021-05-24T13:49:28Z</time>
      </trkpt>
      <trkpt lat="43.40949" lon="2.42117">
        <ele>838.759</ele>
        <time>2021-05-24T13:49:30Z</time>
      </trkpt>
      <trkpt lat="43.40951" lon="2.42115">
        <ele>839.013</ele>
        <time>2021-05-24T13:49:32Z</time>
      </trkpt>
      <trkpt lat="43.40953" lon="2.42112">
        <ele>839.452</ele>
        <time>2021-05-24T13:49:34Z</time>
      </trkpt>
      <trkpt lat="43.40955" lon="2.42109">
        <ele>839.505</ele>
        <time>2021-05-24T13:49:36Z</time>
      </trkpt>
      <trkpt lat="43.40956" lon="2.42107">
        <ele>839.55</ele>
        <time>2021-05-24T13:49:38Z</time>
      </trkpt>
      <trkpt lat="43.40958" lon="2.42104">
        <ele>839.562</ele>
        <time>2021-05-24T13:49:40Z</time>
      </trkpt>
      <trkpt lat="43.4096" lon="2.42102">
        <ele>840.053</ele>
        <time>2021-05-24T13:49:42Z</time>
      </trkpt>
      <trkpt lat="43.40962" lon="2.42099">
        <ele>839.603</ele>
        <time>2021-05-24T13:49:44Z</time>
      </trkpt>
      <trkpt lat="43.40964" lon="2.42096">
        <ele>839.521</ele>
        <time>2021-05-24T13:49:46Z</time>
      </trkpt>
      <trkpt lat="43.40967" lon="2.42094">
        <ele>839.212</ele>
        <time>2021-05-24T13:49:48Z</time>
      </trkpt>
      <trkpt lat="43.40969" lon="2.42092">
        <ele>839.296</ele>
        <time>2021-05-24T13:49:50Z</time>
      </trkpt>
      <trkpt lat="43.40971" lon="2.4209">
        <ele>839.378</ele>
        <time>2021-05-24T13:49:52Z</time>
      </trkpt>
      <trkpt lat="43.40973" lon="2.42087">
        <ele>839.797</ele>
        <time>2021-05-24T13:49:54Z</time>
      </trkpt>
      <trkpt lat="43.40975" lon="2.42084">
        <ele>839.794</ele>
        <time>2021-05-24T13:49:56Z</time>
      </trkpt>
      <trkpt lat="43.40977" lon="2.42081">
        <ele>839.494</ele>
        <time>2021-05-24T13:49:58Z</time>
      </trkpt>
      <trkpt lat="43.40979" lon="2.42078">
        <ele>839.117</ele>
        <time>2021-05-24T13:50:00Z</time>
      </trkpt>
      <trkpt lat="43.40981" lon="2.42075">
        <ele>838.741</ele>
        <time>2021-05-24T13:50:02Z</time>
      </trkpt>
      <trkpt lat="43.40982" lon="2.42073">
        <ele>838.436</ele>
        <time>2021-05-24T13:50:04Z</time>
      </trkpt>
      <trkpt lat="43.40984" lon="2.4207">
        <ele>838.957</ele>
        <time>2021-05-24T13:50:06Z</time>
      </trkpt>
      <trkpt lat="43.40986" lon="2.42067">
        <ele>838.607</ele>
        <time>2021-05-24T13:50:08Z</time>
      </trkpt>
      <trkpt lat="43.40988" lon="2.42064">
        <ele>838.227</ele>
        <time>2021-05-24T13:50:10Z</time>
      </trkpt>
      <trkpt lat="43.4099" lon="2.42062">
        <ele>838.756</ele>
        <time>2021-05-24T13:50:12Z</time>
      </trkpt>
      <trkpt lat="43.40992" lon="2.42059">
        <ele>838.78</ele>
        <time>2021-05-24T13:50:14Z</time>
      </trkpt>
      <trkpt lat="43.40994" lon="2.42056">
        <ele>839.12</ele>
        <time>2021-05-24T13:50:16Z</time>
      </trkpt>
      <trkpt lat="43.40996" lon="2.42054">
        <ele>838.879</ele>
        <time>2021-05-24T13:50:18Z</time>
      </trkpt>
      <trkpt lat="43.40998" lon="2.42051">
        <ele>838.919</ele>
        <time>2021-05-24T13:50:20Z</time>
      </trkpt>
      <trkpt lat="43.41" lon="2.42048">
        <ele>838.086</ele>
        <time>2021-05-24T13:50:22Z</time>
      </trkpt>
      <trkpt lat="43.41001" lon="2.42046">
        <ele>837.747</ele>
        <time>2021-05-24T13:50:24Z</time>
      </trkpt>
      <trkpt lat="43.41003" lon="2.42043">
        <ele>838.186</ele>
        <time>2021-05-24T13:50:26Z</time>
      </trkpt>
      <trkpt lat="43.41005" lon="2.42041">
        <ele>838.64</ele>
        <time>2021-05-24T13:50:28Z</time>
      </trkpt>
      <trkpt lat="43.41007" lon="2.42038">
        <ele>838.317</ele>
        <time>2021-05-24T13:50:30Z</time>
      </trkpt>
      <trkpt lat="43.41008" lon="2.42036">
        <ele>838.284</ele>
        <time>2021-05-24T13:50:32Z</time>
      </trkpt>
      <trkpt lat="43.4101" lon="2.42035">
        <ele>838.637</ele>
        <time>2021-05-24T13:50:34Z</time>
      </trkpt>
      <trkpt lat="43.41012" lon="2.42034">
        <ele>840.448</ele>
        <time>2021-05-24T13:50:36Z</time>
      </trkpt>
      <trkpt lat="43.41012" lon="2.42029">
        <ele>840.907</ele>
        <time>2021-05-24T13:50:38Z</time>
      </trkpt>
      <trkpt lat="43.4101" lon="2.42027">
        <ele>840.679</ele>
        <time>2021-05-24T13:50:40Z</time>
      </trkpt>
      <trkpt lat="43.41009" lon="2.42028">
        <ele>839.483</ele>
        <time>2021-05-24T13:50:42Z</time>
      </trkpt>
      <trkpt lat="43.41009" lon="2.42028">
        <ele>839.468</ele>
        <time>2021-05-24T13:50:44Z</time>
      </trkpt>
      <trkpt lat="43.41009" lon="2.42028">
        <ele>839.472</ele>
        <time>2021-05-24T13:50:46Z</time>
      </trkpt>
      <trkpt lat="43.41009" lon="2.42028">
        <ele>839.466</ele>
        <time>2021-05-24T13:50:48Z</time>
      </trkpt>
      <trkpt lat="43.41009" lon="2.42028">
        <ele>839.468</ele>
        <time>2021-05-24T13:50:50Z</time>
      </trkpt>
      <trkpt lat="43.41009" lon="2.42028">
        <ele>839.476</ele>
        <time>2021-05-24T13:50:52Z</time>
      </trkpt>
      <trkpt lat="43.41009" lon="2.42028">
        <ele>839.478</ele>
        <time>2021-05-24T13:50:54Z</time>
      </trkpt>
      <trkpt lat="43.41009" lon="2.42028">
        <ele>839.481</ele>
        <time>2021-05-24T13:50:56Z</time>
      </trkpt>
      <trkpt lat="43.41009" lon="2.42028">
        <ele>839.481</ele>
        <time>2021-05-24T13:50:58Z</time>
      </trkpt>
      <trkpt lat="43.41009" lon="2.42028">
        <ele>839.481</ele>
        <time>2021-05-24T13:51:00Z</time>
      </trkpt>
      <trkpt lat="43.41009" lon="2.42028">
        <ele>839.47</ele>
        <time>2021-05-24T13:51:02Z</time>
      </trkpt>
      <trkpt lat="43.41009" lon="2.42029">
        <ele>839.112</ele>
        <time>2021-05-24T13:51:04Z</time>
      </trkpt>
      <trkpt lat="43.41009" lon="2.42029">
        <ele>839.108</ele>
        <time>2021-05-24T13:51:06Z</time>
      </trkpt>
      <trkpt lat="43.41009" lon="2.42029">
        <ele>839.097</ele>
        <time>2021-05-24T13:51:08Z</time>
      </trkpt>
      <trkpt lat="43.41009" lon="2.42029">
        <ele>839.085</ele>
        <time>2021-05-24T13:51:10Z</time>
      </trkpt>
      <trkpt lat="43.41009" lon="2.42029">
        <ele>839.088</ele>
        <time>2021-05-24T13:51:12Z</time>
      </trkpt>
      <trkpt lat="43.41009" lon="2.42029">
        <ele>839.085</ele>
        <time>2021-05-24T13:51:14Z</time>
      </trkpt>
      <trkpt lat="43.41009" lon="2.42029">
        <ele>839.08</ele>
        <time>2021-05-24T13:51:16Z</time>
      </trkpt>
      <trkpt lat="43.41009" lon="2.42029">
        <ele>839.073</ele>
        <time>2021-05-24T13:51:18Z</time>
      </trkpt>
      <trkpt lat="43.41009" lon="2.42029">
        <ele>839.062</ele>
        <time>2021-05-24T13:51:20Z</time>
      </trkpt>
      <trkpt lat="43.41009" lon="2.42029">
        <ele>839.195</ele>
        <time>2021-05-24T13:51:22Z</time>
      </trkpt>
      <trkpt lat="43.41009" lon="2.4203">
        <ele>839.03</ele>
        <time>2021-05-24T13:51:24Z</time>
      </trkpt>
      <trkpt lat="43.41009" lon="2.4203">
        <ele>839.029</ele>
        <time>2021-05-24T13:51:26Z</time>
      </trkpt>
      <trkpt lat="43.41009" lon="2.4203">
        <ele>839.033</ele>
        <time>2021-05-24T13:51:28Z</time>
      </trkpt>
      <trkpt lat="43.41009" lon="2.4203">
        <ele>839.043</ele>
        <time>2021-05-24T13:51:30Z</time>
      </trkpt>
      <trkpt lat="43.41009" lon="2.4203">
        <ele>839.048</ele>
        <time>2021-05-24T13:51:32Z</time>
      </trkpt>
      <trkpt lat="43.41009" lon="2.4203">
        <ele>839.05</ele>
        <time>2021-05-24T13:51:34Z</time>
      </trkpt>
      <trkpt lat="43.41009" lon="2.4203">
        <ele>839.048</ele>
        <time>2021-05-24T13:51:36Z</time>
      </trkpt>
      <trkpt lat="43.41009" lon="2.4203">
        <ele>839.051</ele>
        <time>2021-05-24T13:51:38Z</time>
      </trkpt>
      <trkpt lat="43.41009" lon="2.4203">
        <ele>839.047</ele>
        <time>2021-05-24T13:51:40Z</time>
      </trkpt>
      <trkpt lat="43.41009" lon="2.4203">
        <ele>839.048</ele>
        <time>2021-05-24T13:51:42Z</time>
      </trkpt>
      <trkpt lat="43.41009" lon="2.4203">
        <ele>839.482</ele>
        <time>2021-05-24T13:51:44Z</time>
      </trkpt>
      <trkpt lat="43.4101" lon="2.4203">
        <ele>839.374</ele>
        <time>2021-05-24T13:51:46Z</time>
      </trkpt>
      <trkpt lat="43.4101" lon="2.42031">
        <ele>839.386</ele>
        <time>2021-05-24T13:51:48Z</time>
      </trkpt>
      <trkpt lat="43.4101" lon="2.42031">
        <ele>839.385</ele>
        <time>2021-05-24T13:51:50Z</time>
      </trkpt>
      <trkpt lat="43.4101" lon="2.42031">
        <ele>839.388</ele>
        <time>2021-05-24T13:51:52Z</time>
      </trkpt>
      <trkpt lat="43.4101" lon="2.42031">
        <ele>839.39</ele>
        <time>2021-05-24T13:51:54Z</time>
      </trkpt>
      <trkpt lat="43.4101" lon="2.4203">
        <ele>839.323</ele>
        <time>2021-05-24T13:51:56Z</time>
      </trkpt>
      <trkpt lat="43.41009" lon="2.42029">
        <ele>839.921</ele>
        <time>2021-05-24T13:51:58Z</time>
      </trkpt>
      <trkpt lat="43.41008" lon="2.42027">
        <ele>839.234</ele>
        <time>2021-05-24T13:52:00Z</time>
      </trkpt>
      <trkpt lat="43.41008" lon="2.42024">
        <ele>839.389</ele>
        <time>2021-05-24T13:52:02Z</time>
      </trkpt>
      <trkpt lat="43.41008" lon="2.42022">
        <ele>839.255</ele>
        <time>2021-05-24T13:52:04Z</time>
      </trkpt>
      <trkpt lat="43.41007" lon="2.42019">
        <ele>838.576</ele>
        <time>2021-05-24T13:52:06Z</time>
      </trkpt>
      <trkpt lat="43.41006" lon="2.42016">
        <ele>837.957</ele>
        <time>2021-05-24T13:52:08Z</time>
      </trkpt>
      <trkpt lat="43.41005" lon="2.42013">
        <ele>837.554</ele>
        <time>2021-05-24T13:52:10Z</time>
      </trkpt>
      <trkpt lat="43.41004" lon="2.4201">
        <ele>837.107</ele>
        <time>2021-05-24T13:52:12Z</time>
      </trkpt>
      <trkpt lat="43.41003" lon="2.42007">
        <ele>836.453</ele>
        <time>2021-05-24T13:52:14Z</time>
      </trkpt>
      <trkpt lat="43.41002" lon="2.42004">
        <ele>835.862</ele>
        <time>2021-05-24T13:52:16Z</time>
      </trkpt>
      <trkpt lat="43.41" lon="2.42001">
        <ele>835.273</ele>
        <time>2021-05-24T13:52:18Z</time>
      </trkpt>
      <trkpt lat="43.40999" lon="2.41998">
        <ele>834.534</ele>
        <time>2021-05-24T13:52:20Z</time>
      </trkpt>
      <trkpt lat="43.40997" lon="2.41996">
        <ele>834.072</ele>
        <time>2021-05-24T13:52:22Z</time>
      </trkpt>
      <trkpt lat="43.40996" lon="2.41993">
        <ele>833.304</ele>
        <time>2021-05-24T13:52:24Z</time>
      </trkpt>
      <trkpt lat="43.40994" lon="2.4199">
        <ele>832.618</ele>
        <time>2021-05-24T13:52:26Z</time>
      </trkpt>
      <trkpt lat="43.40993" lon="2.41987">
        <ele>831.022</ele>
        <time>2021-05-24T13:52:28Z</time>
      </trkpt>
      <trkpt lat="43.40991" lon="2.41985">
        <ele>830.786</ele>
        <time>2021-05-24T13:52:30Z</time>
      </trkpt>
      <trkpt lat="43.4099" lon="2.41982">
        <ele>830.175</ele>
        <time>2021-05-24T13:52:32Z</time>
      </trkpt>
      <trkpt lat="43.40989" lon="2.41979">
        <ele>829.42</ele>
        <time>2021-05-24T13:52:34Z</time>
      </trkpt>
      <trkpt lat="43.40987" lon="2.41977">
        <ele>829.084</ele>
        <time>2021-05-24T13:52:36Z</time>
      </trkpt>
      <trkpt lat="43.40986" lon="2.41974">
        <ele>828.881</ele>
        <time>2021-05-24T13:52:38Z</time>
      </trkpt>
      <trkpt lat="43.40984" lon="2.41972">
        <ele>827.954</ele>
        <time>2021-05-24T13:52:40Z</time>
      </trkpt>
      <trkpt lat="43.40983" lon="2.41969">
        <ele>827.667</ele>
        <time>2021-05-24T13:52:42Z</time>
      </trkpt>
      <trkpt lat="43.40981" lon="2.41967">
        <ele>827.231</ele>
        <time>2021-05-24T13:52:44Z</time>
      </trkpt>
      <trkpt lat="43.40979" lon="2.41964">
        <ele>826.841</ele>
        <time>2021-05-24T13:52:46Z</time>
      </trkpt>
      <trkpt lat="43.40978" lon="2.41962">
        <ele>826.253</ele>
        <time>2021-05-24T13:52:48Z</time>
      </trkpt>
      <trkpt lat="43.40977" lon="2.4196">
        <ele>826.314</ele>
        <time>2021-05-24T13:52:50Z</time>
      </trkpt>
      <trkpt lat="43.40975" lon="2.41957">
        <ele>826.368</ele>
        <time>2021-05-24T13:52:52Z</time>
      </trkpt>
      <trkpt lat="43.40974" lon="2.41954">
        <ele>825.732</ele>
        <time>2021-05-24T13:52:54Z</time>
      </trkpt>
      <trkpt lat="43.40972" lon="2.41951">
        <ele>824.944</ele>
        <time>2021-05-24T13:52:56Z</time>
      </trkpt>
      <trkpt lat="43.40971" lon="2.41948">
        <ele>824.704</ele>
        <time>2021-05-24T13:52:58Z</time>
      </trkpt>
      <trkpt lat="43.4097" lon="2.41945">
        <ele>824.353</ele>
        <time>2021-05-24T13:53:00Z</time>
      </trkpt>
      <trkpt lat="43.40969" lon="2.41943">
        <ele>823.833</ele>
        <time>2021-05-24T13:53:02Z</time>
      </trkpt>
      <trkpt lat="43.40967" lon="2.41941">
        <ele>822.433</ele>
        <time>2021-05-24T13:53:04Z</time>
      </trkpt>
      <trkpt lat="43.40966" lon="2.41938">
        <ele>822.002</ele>
        <time>2021-05-24T13:53:06Z</time>
      </trkpt>
      <trkpt lat="43.40964" lon="2.41935">
        <ele>821.371</ele>
        <time>2021-05-24T13:53:08Z</time>
      </trkpt>
      <trkpt lat="43.40962" lon="2.41933">
        <ele>820.175</ele>
        <time>2021-05-24T13:53:10Z</time>
      </trkpt>
      <trkpt lat="43.40961" lon="2.41931">
        <ele>819.718</ele>
        <time>2021-05-24T13:53:12Z</time>
      </trkpt>
      <trkpt lat="43.40958" lon="2.41928">
        <ele>819.502</ele>
        <time>2021-05-24T13:53:14Z</time>
      </trkpt>
      <trkpt lat="43.40956" lon="2.41926">
        <ele>819.334</ele>
        <time>2021-05-24T13:53:16Z</time>
      </trkpt>
      <trkpt lat="43.40954" lon="2.41925">
        <ele>818.667</ele>
        <time>2021-05-24T13:53:18Z</time>
      </trkpt>
      <trkpt lat="43.40952" lon="2.41923">
        <ele>817.791</ele>
        <time>2021-05-24T13:53:20Z</time>
      </trkpt>
      <trkpt lat="43.40949" lon="2.41922">
        <ele>817.209</ele>
        <time>2021-05-24T13:53:22Z</time>
      </trkpt>
      <trkpt lat="43.40946" lon="2.4192">
        <ele>816.868</ele>
        <time>2021-05-24T13:53:24Z</time>
      </trkpt>
      <trkpt lat="43.40944" lon="2.41919">
        <ele>816.339</ele>
        <time>2021-05-24T13:53:26Z</time>
      </trkpt>
      <trkpt lat="43.40941" lon="2.41918">
        <ele>816.016</ele>
        <time>2021-05-24T13:53:28Z</time>
      </trkpt>
      <trkpt lat="43.40939" lon="2.41916">
        <ele>815.812</ele>
        <time>2021-05-24T13:53:30Z</time>
      </trkpt>
      <trkpt lat="43.40937" lon="2.41914">
        <ele>815.395</ele>
        <time>2021-05-24T13:53:32Z</time>
      </trkpt>
      <trkpt lat="43.40935" lon="2.41913">
        <ele>815.427</ele>
        <time>2021-05-24T13:53:34Z</time>
      </trkpt>
      <trkpt lat="43.40933" lon="2.41911">
        <ele>815.894</ele>
        <time>2021-05-24T13:53:36Z</time>
      </trkpt>
      <trkpt lat="43.40931" lon="2.41909">
        <ele>815.299</ele>
        <time>2021-05-24T13:53:38Z</time>
      </trkpt>
      <trkpt lat="43.40928" lon="2.41908">
        <ele>815.052</ele>
        <time>2021-05-24T13:53:40Z</time>
      </trkpt>
      <trkpt lat="43.40926" lon="2.41906">
        <ele>814.145</ele>
        <time>2021-05-24T13:53:42Z</time>
      </trkpt>
      <trkpt lat="43.40924" lon="2.41905">
        <ele>813.538</ele>
        <time>2021-05-24T13:53:44Z</time>
      </trkpt>
      <trkpt lat="43.40922" lon="2.41904">
        <ele>814.304</ele>
        <time>2021-05-24T13:53:46Z</time>
      </trkpt>
      <trkpt lat="43.4092" lon="2.41902">
        <ele>813.972</ele>
        <time>2021-05-24T13:53:48Z</time>
      </trkpt>
      <trkpt lat="43.40918" lon="2.41901">
        <ele>813.975</ele>
        <time>2021-05-24T13:53:50Z</time>
      </trkpt>
      <trkpt lat="43.40916" lon="2.41899">
        <ele>813.694</ele>
        <time>2021-05-24T13:53:52Z</time>
      </trkpt>
      <trkpt lat="43.40914" lon="2.41898">
        <ele>813.13</ele>
        <time>2021-05-24T13:53:54Z</time>
      </trkpt>
      <trkpt lat="43.40911" lon="2.41896">
        <ele>812.553</ele>
        <time>2021-05-24T13:53:56Z</time>
      </trkpt>
      <trkpt lat="43.40909" lon="2.41894">
        <ele>812.851</ele>
        <time>2021-05-24T13:53:58Z</time>
      </trkpt>
      <trkpt lat="43.40907" lon="2.41892">
        <ele>812.104</ele>
        <time>2021-05-24T13:54:00Z</time>
      </trkpt>
      <trkpt lat="43.40905" lon="2.4189">
        <ele>812.536</ele>
        <time>2021-05-24T13:54:02Z</time>
      </trkpt>
      <trkpt lat="43.40903" lon="2.41887">
        <ele>813.33</ele>
        <time>2021-05-24T13:54:04Z</time>
      </trkpt>
      <trkpt lat="43.40902" lon="2.41884">
        <ele>814.097</ele>
        <time>2021-05-24T13:54:06Z</time>
      </trkpt>
      <trkpt lat="43.409" lon="2.41881">
        <ele>814.964</ele>
        <time>2021-05-24T13:54:08Z</time>
      </trkpt>
      <trkpt lat="43.40898" lon="2.41879">
        <ele>814.57</ele>
        <time>2021-05-24T13:54:10Z</time>
      </trkpt>
      <trkpt lat="43.40896" lon="2.41876">
        <ele>814.14</ele>
        <time>2021-05-24T13:54:12Z</time>
      </trkpt>
      <trkpt lat="43.40894" lon="2.41873">
        <ele>813.777</ele>
        <time>2021-05-24T13:54:14Z</time>
      </trkpt>
      <trkpt lat="43.40893" lon="2.41872">
        <ele>813.489</ele>
        <time>2021-05-24T13:54:15Z</time>
      </trkpt>
      <trkpt lat="43.4089" lon="2.41869">
        <ele>813.207</ele>
        <time>2021-05-24T13:54:18Z</time>
      </trkpt>
      <trkpt lat="43.40888" lon="2.41866">
        <ele>812.554</ele>
        <time>2021-05-24T13:54:20Z</time>
      </trkpt>
      <trkpt lat="43.40886" lon="2.41864">
        <ele>812.37</ele>
        <time>2021-05-24T13:54:22Z</time>
      </trkpt>
      <trkpt lat="43.40884" lon="2.41861">
        <ele>812.438</ele>
        <time>2021-05-24T13:54:24Z</time>
      </trkpt>
      <trkpt lat="43.40882" lon="2.41858">
        <ele>813.315</ele>
        <time>2021-05-24T13:54:26Z</time>
      </trkpt>
      <trkpt lat="43.4088" lon="2.41855">
        <ele>812.74</ele>
        <time>2021-05-24T13:54:28Z</time>
      </trkpt>
      <trkpt lat="43.40879" lon="2.41852">
        <ele>812.55</ele>
        <time>2021-05-24T13:54:30Z</time>
      </trkpt>
      <trkpt lat="43.40877" lon="2.41849">
        <ele>810.926</ele>
        <time>2021-05-24T13:54:32Z</time>
      </trkpt>
      <trkpt lat="43.40874" lon="2.41847">
        <ele>812.948</ele>
        <time>2021-05-24T13:54:34Z</time>
      </trkpt>
      <trkpt lat="43.40872" lon="2.41845">
        <ele>812.623</ele>
        <time>2021-05-24T13:54:36Z</time>
      </trkpt>
      <trkpt lat="43.4087" lon="2.41842">
        <ele>811.371</ele>
        <time>2021-05-24T13:54:38Z</time>
      </trkpt>
      <trkpt lat="43.40868" lon="2.41839">
        <ele>811.022</ele>
        <time>2021-05-24T13:54:40Z</time>
      </trkpt>
      <trkpt lat="43.40867" lon="2.41837">
        <ele>810.587</ele>
        <time>2021-05-24T13:54:42Z</time>
      </trkpt>
      <trkpt lat="43.40865" lon="2.41835">
        <ele>809.928</ele>
        <time>2021-05-24T13:54:44Z</time>
      </trkpt>
      <trkpt lat="43.40863" lon="2.41833">
        <ele>809.354</ele>
        <time>2021-05-24T13:54:46Z</time>
      </trkpt>
      <trkpt lat="43.40861" lon="2.41831">
        <ele>809.315</ele>
        <time>2021-05-24T13:54:48Z</time>
      </trkpt>
      <trkpt lat="43.40859" lon="2.41828">
        <ele>808.685</ele>
        <time>2021-05-24T13:54:50Z</time>
      </trkpt>
      <trkpt lat="43.40858" lon="2.41826">
        <ele>808.927</ele>
        <time>2021-05-24T13:54:52Z</time>
      </trkpt>
      <trkpt lat="43.40855" lon="2.41824">
        <ele>809.377</ele>
        <time>2021-05-24T13:54:54Z</time>
      </trkpt>
      <trkpt lat="43.40854" lon="2.41822">
        <ele>809.915</ele>
        <time>2021-05-24T13:54:56Z</time>
      </trkpt>
      <trkpt lat="43.40851" lon="2.41819">
        <ele>808.365</ele>
        <time>2021-05-24T13:54:58Z</time>
      </trkpt>
      <trkpt lat="43.4085" lon="2.41817">
        <ele>808.321</ele>
        <time>2021-05-24T13:55:00Z</time>
      </trkpt>
      <trkpt lat="43.40848" lon="2.41814">
        <ele>807.054</ele>
        <time>2021-05-24T13:55:02Z</time>
      </trkpt>
      <trkpt lat="43.40846" lon="2.41813">
        <ele>806.29</ele>
        <time>2021-05-24T13:55:04Z</time>
      </trkpt>
      <trkpt lat="43.40844" lon="2.41811">
        <ele>806.126</ele>
        <time>2021-05-24T13:55:06Z</time>
      </trkpt>
      <trkpt lat="43.40842" lon="2.4181">
        <ele>803.759</ele>
        <time>2021-05-24T13:55:08Z</time>
      </trkpt>
      <trkpt lat="43.40841" lon="2.41808">
        <ele>802.51</ele>
        <time>2021-05-24T13:55:10Z</time>
      </trkpt>
      <trkpt lat="43.4084" lon="2.41807">
        <ele>800.215</ele>
        <time>2021-05-24T13:55:12Z</time>
      </trkpt>
      <trkpt lat="43.40838" lon="2.41808">
        <ele>798.075</ele>
        <time>2021-05-24T13:55:14Z</time>
      </trkpt>
      <trkpt lat="43.40836" lon="2.41809">
        <ele>795.435</ele>
        <time>2021-05-24T13:55:16Z</time>
      </trkpt>
      <trkpt lat="43.40834" lon="2.4181">
        <ele>793.701</ele>
        <time>2021-05-24T13:55:18Z</time>
      </trkpt>
      <trkpt lat="43.40832" lon="2.41812">
        <ele>792.26</ele>
        <time>2021-05-24T13:55:20Z</time>
      </trkpt>
      <trkpt lat="43.4083" lon="2.41812">
        <ele>789.816</ele>
        <time>2021-05-24T13:55:22Z</time>
      </trkpt>
      <trkpt lat="43.40828" lon="2.41811">
        <ele>789.405</ele>
        <time>2021-05-24T13:55:24Z</time>
      </trkpt>
      <trkpt lat="43.40826" lon="2.41809">
        <ele>789.975</ele>
        <time>2021-05-24T13:55:26Z</time>
      </trkpt>
      <trkpt lat="43.40824" lon="2.41807">
        <ele>789.307</ele>
        <time>2021-05-24T13:55:28Z</time>
      </trkpt>
      <trkpt lat="43.40822" lon="2.41805">
        <ele>787.634</ele>
        <time>2021-05-24T13:55:30Z</time>
      </trkpt>
      <trkpt lat="43.4082" lon="2.41803">
        <ele>787.461</ele>
        <time>2021-05-24T13:55:32Z</time>
      </trkpt>
      <trkpt lat="43.40818" lon="2.41801">
        <ele>787.311</ele>
        <time>2021-05-24T13:55:34Z</time>
      </trkpt>
      <trkpt lat="43.40817" lon="2.41799">
        <ele>786.354</ele>
        <time>2021-05-24T13:55:36Z</time>
      </trkpt>
      <trkpt lat="43.40815" lon="2.41797">
        <ele>784.951</ele>
        <time>2021-05-24T13:55:38Z</time>
      </trkpt>
      <trkpt lat="43.40812" lon="2.41798">
        <ele>783.614</ele>
        <time>2021-05-24T13:55:40Z</time>
      </trkpt>
      <trkpt lat="43.40811" lon="2.41793">
        <ele>781.972</ele>
        <time>2021-05-24T13:55:42Z</time>
      </trkpt>
      <trkpt lat="43.4081" lon="2.41791">
        <ele>780.486</ele>
        <time>2021-05-24T13:55:44Z</time>
      </trkpt>
      <trkpt lat="43.40808" lon="2.41789">
        <ele>779.777</ele>
        <time>2021-05-24T13:55:46Z</time>
      </trkpt>
      <trkpt lat="43.40807" lon="2.41786">
        <ele>779.011</ele>
        <time>2021-05-24T13:55:48Z</time>
      </trkpt>
      <trkpt lat="43.40806" lon="2.41784">
        <ele>778.662</ele>
        <time>2021-05-24T13:55:50Z</time>
      </trkpt>
      <trkpt lat="43.40804" lon="2.41781">
        <ele>777.413</ele>
        <time>2021-05-24T13:55:52Z</time>
      </trkpt>
      <trkpt lat="43.40802" lon="2.41779">
        <ele>777.084</ele>
        <time>2021-05-24T13:55:54Z</time>
      </trkpt>
      <trkpt lat="43.408" lon="2.41777">
        <ele>776.453</ele>
        <time>2021-05-24T13:55:56Z</time>
      </trkpt>
      <trkpt lat="43.40798" lon="2.41774">
        <ele>775.992</ele>
        <time>2021-05-24T13:55:58Z</time>
      </trkpt>
      <trkpt lat="43.40796" lon="2.41772">
        <ele>775.488</ele>
        <time>2021-05-24T13:56:00Z</time>
      </trkpt>
      <trkpt lat="43.40794" lon="2.4177">
        <ele>774.873</ele>
        <time>2021-05-24T13:56:02Z</time>
      </trkpt>
      <trkpt lat="43.40792" lon="2.41768">
        <ele>774.462</ele>
        <time>2021-05-24T13:56:04Z</time>
      </trkpt>
      <trkpt lat="43.40791" lon="2.41766">
        <ele>773.93</ele>
        <time>2021-05-24T13:56:06Z</time>
      </trkpt>
      <trkpt lat="43.40789" lon="2.41763">
        <ele>773.969</ele>
        <time>2021-05-24T13:56:08Z</time>
      </trkpt>
      <trkpt lat="43.40788" lon="2.41761">
        <ele>773.617</ele>
        <time>2021-05-24T13:56:10Z</time>
      </trkpt>
      <trkpt lat="43.40786" lon="2.4176">
        <ele>772.329</ele>
        <time>2021-05-24T13:56:12Z</time>
      </trkpt>
      <trkpt lat="43.40784" lon="2.41758">
        <ele>771.791</ele>
        <time>2021-05-24T13:56:14Z</time>
      </trkpt>
      <trkpt lat="43.40782" lon="2.41756">
        <ele>771.131</ele>
        <time>2021-05-24T13:56:16Z</time>
      </trkpt>
      <trkpt lat="43.40781" lon="2.41753">
        <ele>768.389</ele>
        <time>2021-05-24T13:56:18Z</time>
      </trkpt>
      <trkpt lat="43.40778" lon="2.41752">
        <ele>767.949</ele>
        <time>2021-05-24T13:56:20Z</time>
      </trkpt>
      <trkpt lat="43.40775" lon="2.4175">
        <ele>768.837</ele>
        <time>2021-05-24T13:56:22Z</time>
      </trkpt>
      <trkpt lat="43.40773" lon="2.41748">
        <ele>769.656</ele>
        <time>2021-05-24T13:56:24Z</time>
      </trkpt>
      <trkpt lat="43.4077" lon="2.41748">
        <ele>769.076</ele>
        <time>2021-05-24T13:56:26Z</time>
      </trkpt>
      <trkpt lat="43.40768" lon="2.41746">
        <ele>768.58</ele>
        <time>2021-05-24T13:56:28Z</time>
      </trkpt>
      <trkpt lat="43.40765" lon="2.41746">
        <ele>766.991</ele>
        <time>2021-05-24T13:56:30Z</time>
      </trkpt>
      <trkpt lat="43.40763" lon="2.41745">
        <ele>764.697</ele>
        <time>2021-05-24T13:56:32Z</time>
      </trkpt>
      <trkpt lat="43.40762" lon="2.41743">
        <ele>764.408</ele>
        <time>2021-05-24T13:56:34Z</time>
      </trkpt>
      <trkpt lat="43.40761" lon="2.41742">
        <ele>763.717</ele>
        <time>2021-05-24T13:56:36Z</time>
      </trkpt>
      <trkpt lat="43.4076" lon="2.4174">
        <ele>762.565</ele>
        <time>2021-05-24T13:56:38Z</time>
      </trkpt>
      <trkpt lat="43.4076" lon="2.4174">
        <ele>762.882</ele>
        <time>2021-05-24T13:56:40Z</time>
      </trkpt>
      <trkpt lat="43.4076" lon="2.4174">
        <ele>762.801</ele>
        <time>2021-05-24T13:56:42Z</time>
      </trkpt>
      <trkpt lat="43.4076" lon="2.41741">
        <ele>761.849</ele>
        <time>2021-05-24T13:56:44Z</time>
      </trkpt>
      <trkpt lat="43.40759" lon="2.41741">
        <ele>762.685</ele>
        <time>2021-05-24T13:56:46Z</time>
      </trkpt>
      <trkpt lat="43.40759" lon="2.41741">
        <ele>762.447</ele>
        <time>2021-05-24T13:56:48Z</time>
      </trkpt>
      <trkpt lat="43.40759" lon="2.41741">
        <ele>762.448</ele>
        <time>2021-05-24T13:56:50Z</time>
      </trkpt>
      <trkpt lat="43.40759" lon="2.41741">
        <ele>762.444</ele>
        <time>2021-05-24T13:56:52Z</time>
      </trkpt>
      <trkpt lat="43.40759" lon="2.41741">
        <ele>762.44</ele>
        <time>2021-05-24T13:56:54Z</time>
      </trkpt>
      <trkpt lat="43.40759" lon="2.41741">
        <ele>762.44</ele>
        <time>2021-05-24T13:56:56Z</time>
      </trkpt>
      <trkpt lat="43.40759" lon="2.41741">
        <ele>762.44</ele>
        <time>2021-05-24T13:56:58Z</time>
      </trkpt>
      <trkpt lat="43.40759" lon="2.41742">
        <ele>761.962</ele>
        <time>2021-05-24T13:57:00Z</time>
      </trkpt>
      <trkpt lat="43.40759" lon="2.41742">
        <ele>761.962</ele>
        <time>2021-05-24T13:57:02Z</time>
      </trkpt>
      <trkpt lat="43.40759" lon="2.41742">
        <ele>761.956</ele>
        <time>2021-05-24T13:57:04Z</time>
      </trkpt>
      <trkpt lat="43.40759" lon="2.41742">
        <ele>762.167</ele>
        <time>2021-05-24T13:57:06Z</time>
      </trkpt>
      <trkpt lat="43.4076" lon="2.41741">
        <ele>762.041</ele>
        <time>2021-05-24T13:57:08Z</time>
      </trkpt>
      <trkpt lat="43.4076" lon="2.41739">
        <ele>762.44</ele>
        <time>2021-05-24T13:57:10Z</time>
      </trkpt>
      <trkpt lat="43.40761" lon="2.41738">
        <ele>762.749</ele>
        <time>2021-05-24T13:57:12Z</time>
      </trkpt>
      <trkpt lat="43.40762" lon="2.41737">
        <ele>761.134</ele>
        <time>2021-05-24T13:57:14Z</time>
      </trkpt>
      <trkpt lat="43.40764" lon="2.41735">
        <ele>759.757</ele>
        <time>2021-05-24T13:57:16Z</time>
      </trkpt>
      <trkpt lat="43.40765" lon="2.41733">
        <ele>760.192</ele>
        <time>2021-05-24T13:57:18Z</time>
      </trkpt>
      <trkpt lat="43.40766" lon="2.4173">
        <ele>759.726</ele>
        <time>2021-05-24T13:57:20Z</time>
      </trkpt>
      <trkpt lat="43.40765" lon="2.41726">
        <ele>760.161</ele>
        <time>2021-05-24T13:57:22Z</time>
      </trkpt>
      <trkpt lat="43.40765" lon="2.41723">
        <ele>761.006</ele>
        <time>2021-05-24T13:57:24Z</time>
      </trkpt>
      <trkpt lat="43.40765" lon="2.41721">
        <ele>759.792</ele>
        <time>2021-05-24T13:57:26Z</time>
      </trkpt>
      <trkpt lat="43.40766" lon="2.41719">
        <ele>758.865</ele>
        <time>2021-05-24T13:57:28Z</time>
      </trkpt>
      <trkpt lat="43.40768" lon="2.41717">
        <ele>757.906</ele>
        <time>2021-05-24T13:57:30Z</time>
      </trkpt>
      <trkpt lat="43.40769" lon="2.41715">
        <ele>757.019</ele>
        <time>2021-05-24T13:57:32Z</time>
      </trkpt>
      <trkpt lat="43.40772" lon="2.41713">
        <ele>755.399</ele>
        <time>2021-05-24T13:57:34Z</time>
      </trkpt>
      <trkpt lat="43.40773" lon="2.41711">
        <ele>755.626</ele>
        <time>2021-05-24T13:57:36Z</time>
      </trkpt>
      <trkpt lat="43.40774" lon="2.41708">
        <ele>754.741</ele>
        <time>2021-05-24T13:57:38Z</time>
      </trkpt>
      <trkpt lat="43.40776" lon="2.41706">
        <ele>753.129</ele>
        <time>2021-05-24T13:57:40Z</time>
      </trkpt>
      <trkpt lat="43.40778" lon="2.41704">
        <ele>752.216</ele>
        <time>2021-05-24T13:57:42Z</time>
      </trkpt>
      <trkpt lat="43.40779" lon="2.41703">
        <ele>751.948</ele>
        <time>2021-05-24T13:57:44Z</time>
      </trkpt>
      <trkpt lat="43.40781" lon="2.41704">
        <ele>752.119</ele>
        <time>2021-05-24T13:57:46Z</time>
      </trkpt>
      <trkpt lat="43.40783" lon="2.41702">
        <ele>750.844</ele>
        <time>2021-05-24T13:57:48Z</time>
      </trkpt>
      <trkpt lat="43.40784" lon="2.41699">
        <ele>750.29</ele>
        <time>2021-05-24T13:57:50Z</time>
      </trkpt>
      <trkpt lat="43.40785" lon="2.41697">
        <ele>750.474</ele>
        <time>2021-05-24T13:57:52Z</time>
      </trkpt>
      <trkpt lat="43.40787" lon="2.41694">
        <ele>749.713</ele>
        <time>2021-05-24T13:57:54Z</time>
      </trkpt>
      <trkpt lat="43.40789" lon="2.41692">
        <ele>749.657</ele>
        <time>2021-05-24T13:57:56Z</time>
      </trkpt>
      <trkpt lat="43.40791" lon="2.4169">
        <ele>748.642</ele>
        <time>2021-05-24T13:57:58Z</time>
      </trkpt>
      <trkpt lat="43.40794" lon="2.41688">
        <ele>747.753</ele>
        <time>2021-05-24T13:58:00Z</time>
      </trkpt>
      <trkpt lat="43.40796" lon="2.41686">
        <ele>747.535</ele>
        <time>2021-05-24T13:58:02Z</time>
      </trkpt>
      <trkpt lat="43.40798" lon="2.41685">
        <ele>746.26</ele>
        <time>2021-05-24T13:58:04Z</time>
      </trkpt>
      <trkpt lat="43.408" lon="2.41683">
        <ele>745.443</ele>
        <time>2021-05-24T13:58:06Z</time>
      </trkpt>
      <trkpt lat="43.40802" lon="2.41681">
        <ele>744.911</ele>
        <time>2021-05-24T13:58:08Z</time>
      </trkpt>
      <trkpt lat="43.40804" lon="2.41678">
        <ele>743.696</ele>
        <time>2021-05-24T13:58:10Z</time>
      </trkpt>
      <trkpt lat="43.40806" lon="2.41677">
        <ele>743.505</ele>
        <time>2021-05-24T13:58:12Z</time>
      </trkpt>
      <trkpt lat="43.40808" lon="2.41676">
        <ele>742.219</ele>
        <time>2021-05-24T13:58:14Z</time>
      </trkpt>
      <trkpt lat="43.4081" lon="2.41673">
        <ele>742.541</ele>
        <time>2021-05-24T13:58:16Z</time>
      </trkpt>
      <trkpt lat="43.40812" lon="2.4167">
        <ele>742.379</ele>
        <time>2021-05-24T13:58:18Z</time>
      </trkpt>
      <trkpt lat="43.40814" lon="2.41667">
        <ele>742.314</ele>
        <time>2021-05-24T13:58:20Z</time>
      </trkpt>
      <trkpt lat="43.40816" lon="2.41665">
        <ele>742.633</ele>
        <time>2021-05-24T13:58:22Z</time>
      </trkpt>
      <trkpt lat="43.40815" lon="2.41659">
        <ele>744.655</ele>
        <time>2021-05-24T13:58:24Z</time>
      </trkpt>
      <trkpt lat="43.40815" lon="2.41656">
        <ele>744.394</ele>
        <time>2021-05-24T13:58:26Z</time>
      </trkpt>
      <trkpt lat="43.40817" lon="2.41654">
        <ele>744.679</ele>
        <time>2021-05-24T13:58:28Z</time>
      </trkpt>
      <trkpt lat="43.40825" lon="2.41651">
        <ele>746.863</ele>
        <time>2021-05-24T13:58:35Z</time>
      </trkpt>
      <trkpt lat="43.40827" lon="2.41649">
        <ele>747.735</ele>
        <time>2021-05-24T13:58:37Z</time>
      </trkpt>
      <trkpt lat="43.40828" lon="2.41646">
        <ele>750.137</ele>
        <time>2021-05-24T13:58:39Z</time>
      </trkpt>
      <trkpt lat="43.4083" lon="2.41643">
        <ele>751.664</ele>
        <time>2021-05-24T13:58:41Z</time>
      </trkpt>
      <trkpt lat="43.40831" lon="2.41641">
        <ele>754.729</ele>
        <time>2021-05-24T13:58:43Z</time>
      </trkpt>
      <trkpt lat="43.40833" lon="2.41639">
        <ele>752.282</ele>
        <time>2021-05-24T13:58:45Z</time>
      </trkpt>
      <trkpt lat="43.40834" lon="2.41635">
        <ele>748.768</ele>
        <time>2021-05-24T13:58:47Z</time>
      </trkpt>
      <trkpt lat="43.40835" lon="2.41633">
        <ele>748.023</ele>
        <time>2021-05-24T13:58:49Z</time>
      </trkpt>
      <trkpt lat="43.40839" lon="2.4163">
        <ele>747.378</ele>
        <time>2021-05-24T13:58:51Z</time>
      </trkpt>
      <trkpt lat="43.40842" lon="2.41627">
        <ele>747.266</ele>
        <time>2021-05-24T13:58:53Z</time>
      </trkpt>
      <trkpt lat="43.40845" lon="2.41624">
        <ele>746.921</ele>
        <time>2021-05-24T13:58:55Z</time>
      </trkpt>
      <trkpt lat="43.40847" lon="2.41621">
        <ele>745.284</ele>
        <time>2021-05-24T13:58:57Z</time>
      </trkpt>
      <trkpt lat="43.40849" lon="2.41619">
        <ele>745.046</ele>
        <time>2021-05-24T13:58:59Z</time>
      </trkpt>
      <trkpt lat="43.40851" lon="2.41616">
        <ele>743.987</ele>
        <time>2021-05-24T13:59:01Z</time>
      </trkpt>
      <trkpt lat="43.40853" lon="2.41614">
        <ele>741.862</ele>
        <time>2021-05-24T13:59:03Z</time>
      </trkpt>
      <trkpt lat="43.40855" lon="2.41612">
        <ele>739.401</ele>
        <time>2021-05-24T13:59:05Z</time>
      </trkpt>
      <trkpt lat="43.40858" lon="2.41608">
        <ele>739.745</ele>
        <time>2021-05-24T13:59:07Z</time>
      </trkpt>
      <trkpt lat="43.40861" lon="2.41606">
        <ele>739.23</ele>
        <time>2021-05-24T13:59:09Z</time>
      </trkpt>
      <trkpt lat="43.40864" lon="2.41604">
        <ele>739.94</ele>
        <time>2021-05-24T13:59:11Z</time>
      </trkpt>
      <trkpt lat="43.40866" lon="2.416">
        <ele>739.079</ele>
        <time>2021-05-24T13:59:13Z</time>
      </trkpt>
      <trkpt lat="43.40867" lon="2.41597">
        <ele>737.782</ele>
        <time>2021-05-24T13:59:15Z</time>
      </trkpt>
      <trkpt lat="43.40869" lon="2.41594">
        <ele>736.538</ele>
        <time>2021-05-24T13:59:17Z</time>
      </trkpt>
      <trkpt lat="43.40871" lon="2.41591">
        <ele>735.042</ele>
        <time>2021-05-24T13:59:19Z</time>
      </trkpt>
      <trkpt lat="43.40874" lon="2.41588">
        <ele>735.061</ele>
        <time>2021-05-24T13:59:21Z</time>
      </trkpt>
      <trkpt lat="43.40877" lon="2.41585">
        <ele>735.279</ele>
        <time>2021-05-24T13:59:23Z</time>
      </trkpt>
      <trkpt lat="43.4088" lon="2.41583">
        <ele>735.635</ele>
        <time>2021-05-24T13:59:25Z</time>
      </trkpt>
      <trkpt lat="43.40881" lon="2.4158">
        <ele>736.386</ele>
        <time>2021-05-24T13:59:27Z</time>
      </trkpt>
      <trkpt lat="43.40883" lon="2.41578">
        <ele>738.894</ele>
        <time>2021-05-24T13:59:29Z</time>
      </trkpt>
      <trkpt lat="43.40886" lon="2.41575">
        <ele>737.875</ele>
        <time>2021-05-24T13:59:31Z</time>
      </trkpt>
      <trkpt lat="43.40889" lon="2.41572">
        <ele>739.367</ele>
        <time>2021-05-24T13:59:33Z</time>
      </trkpt>
      <trkpt lat="43.40892" lon="2.41569">
        <ele>740.93</ele>
        <time>2021-05-24T13:59:35Z</time>
      </trkpt>
      <trkpt lat="43.40894" lon="2.41566">
        <ele>740.292</ele>
        <time>2021-05-24T13:59:37Z</time>
      </trkpt>
      <trkpt lat="43.40895" lon="2.41563">
        <ele>739.369</ele>
        <time>2021-05-24T13:59:39Z</time>
      </trkpt>
      <trkpt lat="43.40897" lon="2.41561">
        <ele>738.915</ele>
        <time>2021-05-24T13:59:41Z</time>
      </trkpt>
      <trkpt lat="43.40899" lon="2.41559">
        <ele>737.747</ele>
        <time>2021-05-24T13:59:43Z</time>
      </trkpt>
      <trkpt lat="43.40901" lon="2.41557">
        <ele>737.26</ele>
        <time>2021-05-24T13:59:45Z</time>
      </trkpt>
      <trkpt lat="43.40902" lon="2.41555">
        <ele>736.083</ele>
        <time>2021-05-24T13:59:47Z</time>
      </trkpt>
      <trkpt lat="43.40903" lon="2.41554">
        <ele>734.883</ele>
        <time>2021-05-24T13:59:49Z</time>
      </trkpt>
      <trkpt lat="43.40905" lon="2.41554">
        <ele>733.519</ele>
        <time>2021-05-24T13:59:51Z</time>
      </trkpt>
      <trkpt lat="43.40907" lon="2.41554">
        <ele>732.614</ele>
        <time>2021-05-24T13:59:53Z</time>
      </trkpt>
      <trkpt lat="43.40908" lon="2.41553">
        <ele>732.838</ele>
        <time>2021-05-24T13:59:55Z</time>
      </trkpt>
      <trkpt lat="43.4091" lon="2.41551">
        <ele>732.809</ele>
        <time>2021-05-24T13:59:57Z</time>
      </trkpt>
      <trkpt lat="43.40912" lon="2.41548">
        <ele>734.377</ele>
        <time>2021-05-24T13:59:59Z</time>
      </trkpt>
      <trkpt lat="43.40913" lon="2.41544">
        <ele>734.73</ele>
        <time>2021-05-24T14:00:01Z</time>
      </trkpt>
      <trkpt lat="43.40915" lon="2.41542">
        <ele>734.19</ele>
        <time>2021-05-24T14:00:03Z</time>
      </trkpt>
      <trkpt lat="43.40917" lon="2.41541">
        <ele>732.168</ele>
        <time>2021-05-24T14:00:05Z</time>
      </trkpt>
      <trkpt lat="43.40919" lon="2.41539">
        <ele>732.857</ele>
        <time>2021-05-24T14:00:07Z</time>
      </trkpt>
      <trkpt lat="43.40921" lon="2.41535">
        <ele>733.846</ele>
        <time>2021-05-24T14:00:09Z</time>
      </trkpt>
      <trkpt lat="43.40923" lon="2.41533">
        <ele>732.566</ele>
        <time>2021-05-24T14:00:11Z</time>
      </trkpt>
      <trkpt lat="43.40925" lon="2.41532">
        <ele>732.439</ele>
        <time>2021-05-24T14:00:13Z</time>
      </trkpt>
      <trkpt lat="43.40928" lon="2.4153">
        <ele>732.251</ele>
        <time>2021-05-24T14:00:15Z</time>
      </trkpt>
      <trkpt lat="43.40929" lon="2.41527">
        <ele>733.197</ele>
        <time>2021-05-24T14:00:17Z</time>
      </trkpt>
      <trkpt lat="43.40932" lon="2.41527">
        <ele>733.152</ele>
        <time>2021-05-24T14:00:19Z</time>
      </trkpt>
      <trkpt lat="43.40933" lon="2.41523">
        <ele>735.201</ele>
        <time>2021-05-24T14:00:21Z</time>
      </trkpt>
      <trkpt lat="43.40934" lon="2.41521">
        <ele>734.447</ele>
        <time>2021-05-24T14:00:23Z</time>
      </trkpt>
      <trkpt lat="43.40937" lon="2.41519">
        <ele>734.497</ele>
        <time>2021-05-24T14:00:25Z</time>
      </trkpt>
      <trkpt lat="43.4094" lon="2.41519">
        <ele>734.807</ele>
        <time>2021-05-24T14:00:27Z</time>
      </trkpt>
      <trkpt lat="43.40943" lon="2.4152">
        <ele>732.896</ele>
        <time>2021-05-24T14:00:29Z</time>
      </trkpt>
      <trkpt lat="43.40946" lon="2.4152">
        <ele>734.332</ele>
        <time>2021-05-24T14:00:31Z</time>
      </trkpt>
      <trkpt lat="43.40948" lon="2.41518">
        <ele>734.393</ele>
        <time>2021-05-24T14:00:33Z</time>
      </trkpt>
      <trkpt lat="43.4095" lon="2.41517">
        <ele>734.861</ele>
        <time>2021-05-24T14:00:35Z</time>
      </trkpt>
      <trkpt lat="43.40953" lon="2.41517">
        <ele>734.302</ele>
        <time>2021-05-24T14:00:37Z</time>
      </trkpt>
      <trkpt lat="43.40957" lon="2.41515">
        <ele>732.323</ele>
        <time>2021-05-24T14:00:39Z</time>
      </trkpt>
      <trkpt lat="43.4096" lon="2.41515">
        <ele>730.197</ele>
        <time>2021-05-24T14:00:41Z</time>
      </trkpt>
      <trkpt lat="43.40962" lon="2.41514">
        <ele>728.03</ele>
        <time>2021-05-24T14:00:43Z</time>
      </trkpt>
      <trkpt lat="43.40964" lon="2.41514">
        <ele>726.929</ele>
        <time>2021-05-24T14:00:45Z</time>
      </trkpt>
      <trkpt lat="43.40967" lon="2.41513">
        <ele>726.009</ele>
        <time>2021-05-24T14:00:47Z</time>
      </trkpt>
      <trkpt lat="43.40969" lon="2.41511">
        <ele>726.481</ele>
        <time>2021-05-24T14:00:49Z</time>
      </trkpt>
      <trkpt lat="43.40972" lon="2.4151">
        <ele>725.211</ele>
        <time>2021-05-24T14:00:51Z</time>
      </trkpt>
      <trkpt lat="43.40975" lon="2.41508">
        <ele>725.031</ele>
        <time>2021-05-24T14:00:53Z</time>
      </trkpt>
      <trkpt lat="43.40977" lon="2.41506">
        <ele>723.075</ele>
        <time>2021-05-24T14:00:55Z</time>
      </trkpt>
      <trkpt lat="43.4098" lon="2.41505">
        <ele>722.3</ele>
        <time>2021-05-24T14:00:57Z</time>
      </trkpt>
      <trkpt lat="43.40982" lon="2.41503">
        <ele>721.269</ele>
        <time>2021-05-24T14:00:59Z</time>
      </trkpt>
      <trkpt lat="43.40984" lon="2.41501">
        <ele>721.387</ele>
        <time>2021-05-24T14:01:01Z</time>
      </trkpt>
      <trkpt lat="43.40986" lon="2.41498">
        <ele>720.606</ele>
        <time>2021-05-24T14:01:03Z</time>
      </trkpt>
      <trkpt lat="43.40988" lon="2.41496">
        <ele>720.65</ele>
        <time>2021-05-24T14:01:05Z</time>
      </trkpt>
      <trkpt lat="43.4099" lon="2.41494">
        <ele>720.514</ele>
        <time>2021-05-24T14:01:07Z</time>
      </trkpt>
      <trkpt lat="43.40993" lon="2.41492">
        <ele>719.46</ele>
        <time>2021-05-24T14:01:09Z</time>
      </trkpt>
      <trkpt lat="43.40994" lon="2.4149">
        <ele>718.983</ele>
        <time>2021-05-24T14:01:11Z</time>
      </trkpt>
      <trkpt lat="43.40996" lon="2.41489">
        <ele>718.299</ele>
        <time>2021-05-24T14:01:13Z</time>
      </trkpt>
      <trkpt lat="43.41" lon="2.41486">
        <ele>720.866</ele>
        <time>2021-05-24T14:01:15Z</time>
      </trkpt>
      <trkpt lat="43.41002" lon="2.41483">
        <ele>720.494</ele>
        <time>2021-05-24T14:01:17Z</time>
      </trkpt>
      <trkpt lat="43.41007" lon="2.41481">
        <ele>721.42</ele>
        <time>2021-05-24T14:01:19Z</time>
      </trkpt>
      <trkpt lat="43.4101" lon="2.41479">
        <ele>720.235</ele>
        <time>2021-05-24T14:01:21Z</time>
      </trkpt>
      <trkpt lat="43.41013" lon="2.41478">
        <ele>719.551</ele>
        <time>2021-05-24T14:01:23Z</time>
      </trkpt>
      <trkpt lat="43.41015" lon="2.41477">
        <ele>718.628</ele>
        <time>2021-05-24T14:01:25Z</time>
      </trkpt>
      <trkpt lat="43.41018" lon="2.41475">
        <ele>718.404</ele>
        <time>2021-05-24T14:01:27Z</time>
      </trkpt>
      <trkpt lat="43.4102" lon="2.41474">
        <ele>719.172</ele>
        <time>2021-05-24T14:01:29Z</time>
      </trkpt>
      <trkpt lat="43.41023" lon="2.41473">
        <ele>718.302</ele>
        <time>2021-05-24T14:01:31Z</time>
      </trkpt>
      <trkpt lat="43.41026" lon="2.41472">
        <ele>718.434</ele>
        <time>2021-05-24T14:01:33Z</time>
      </trkpt>
      <trkpt lat="43.41029" lon="2.4147">
        <ele>716.971</ele>
        <time>2021-05-24T14:01:35Z</time>
      </trkpt>
      <trkpt lat="43.41032" lon="2.41469">
        <ele>716.905</ele>
        <time>2021-05-24T14:01:37Z</time>
      </trkpt>
      <trkpt lat="43.41034" lon="2.41467">
        <ele>716.716</ele>
        <time>2021-05-24T14:01:39Z</time>
      </trkpt>
      <trkpt lat="43.41037" lon="2.41467">
        <ele>716.172</ele>
        <time>2021-05-24T14:01:41Z</time>
      </trkpt>
      <trkpt lat="43.41039" lon="2.41465">
        <ele>715.696</ele>
        <time>2021-05-24T14:01:43Z</time>
      </trkpt>
      <trkpt lat="43.41042" lon="2.41465">
        <ele>714.856</ele>
        <time>2021-05-24T14:01:45Z</time>
      </trkpt>
      <trkpt lat="43.41044" lon="2.41464">
        <ele>714.109</ele>
        <time>2021-05-24T14:01:47Z</time>
      </trkpt>
      <trkpt lat="43.41048" lon="2.41463">
        <ele>713.707</ele>
        <time>2021-05-24T14:01:49Z</time>
      </trkpt>
      <trkpt lat="43.4105" lon="2.41462">
        <ele>713.717</ele>
        <time>2021-05-24T14:01:51Z</time>
      </trkpt>
      <trkpt lat="43.41053" lon="2.41462">
        <ele>713.107</ele>
        <time>2021-05-24T14:01:53Z</time>
      </trkpt>
      <trkpt lat="43.41056" lon="2.41461">
        <ele>713.347</ele>
        <time>2021-05-24T14:01:55Z</time>
      </trkpt>
      <trkpt lat="43.41058" lon="2.4146">
        <ele>713.039</ele>
        <time>2021-05-24T14:01:57Z</time>
      </trkpt>
      <trkpt lat="43.41061" lon="2.41459">
        <ele>712.637</ele>
        <time>2021-05-24T14:01:59Z</time>
      </trkpt>
      <trkpt lat="43.41064" lon="2.41458">
        <ele>712.964</ele>
        <time>2021-05-24T14:02:01Z</time>
      </trkpt>
      <trkpt lat="43.41067" lon="2.41458">
        <ele>712.85</ele>
        <time>2021-05-24T14:02:03Z</time>
      </trkpt>
      <trkpt lat="43.41069" lon="2.41457">
        <ele>713.275</ele>
        <time>2021-05-24T14:02:05Z</time>
      </trkpt>
      <trkpt lat="43.41072" lon="2.41455">
        <ele>712.613</ele>
        <time>2021-05-24T14:02:07Z</time>
      </trkpt>
      <trkpt lat="43.41075" lon="2.41454">
        <ele>711.842</ele>
        <time>2021-05-24T14:02:09Z</time>
      </trkpt>
      <trkpt lat="43.41078" lon="2.41452">
        <ele>711.109</ele>
        <time>2021-05-24T14:02:11Z</time>
      </trkpt>
      <trkpt lat="43.4108" lon="2.41451">
        <ele>710.41</ele>
        <time>2021-05-24T14:02:13Z</time>
      </trkpt>
      <trkpt lat="43.41083" lon="2.41449">
        <ele>709.956</ele>
        <time>2021-05-24T14:02:15Z</time>
      </trkpt>
      <trkpt lat="43.41086" lon="2.41447">
        <ele>710.651</ele>
        <time>2021-05-24T14:02:17Z</time>
      </trkpt>
      <trkpt lat="43.41089" lon="2.41445">
        <ele>710.586</ele>
        <time>2021-05-24T14:02:19Z</time>
      </trkpt>
      <trkpt lat="43.41092" lon="2.41443">
        <ele>710.51</ele>
        <time>2021-05-24T14:02:21Z</time>
      </trkpt>
      <trkpt lat="43.41095" lon="2.41441">
        <ele>710.034</ele>
        <time>2021-05-24T14:02:23Z</time>
      </trkpt>
      <trkpt lat="43.41098" lon="2.4144">
        <ele>709.408</ele>
        <time>2021-05-24T14:02:25Z</time>
      </trkpt>
      <trkpt lat="43.41101" lon="2.41439">
        <ele>708.331</ele>
        <time>2021-05-24T14:02:27Z</time>
      </trkpt>
      <trkpt lat="43.41104" lon="2.41437">
        <ele>707.403</ele>
        <time>2021-05-24T14:02:29Z</time>
      </trkpt>
      <trkpt lat="43.41106" lon="2.41435">
        <ele>706.459</ele>
        <time>2021-05-24T14:02:31Z</time>
      </trkpt>
      <trkpt lat="43.41109" lon="2.41434">
        <ele>706.105</ele>
        <time>2021-05-24T14:02:33Z</time>
      </trkpt>
      <trkpt lat="43.41112" lon="2.41433">
        <ele>705.411</ele>
        <time>2021-05-24T14:02:35Z</time>
      </trkpt>
      <trkpt lat="43.41114" lon="2.41431">
        <ele>704.613</ele>
        <time>2021-05-24T14:02:37Z</time>
      </trkpt>
      <trkpt lat="43.41117" lon="2.4143">
        <ele>703.989</ele>
        <time>2021-05-24T14:02:39Z</time>
      </trkpt>
      <trkpt lat="43.4112" lon="2.41429">
        <ele>704.772</ele>
        <time>2021-05-24T14:02:41Z</time>
      </trkpt>
      <trkpt lat="43.41123" lon="2.41426">
        <ele>707.225</ele>
        <time>2021-05-24T14:02:43Z</time>
      </trkpt>
      <trkpt lat="43.41127" lon="2.41423">
        <ele>709.171</ele>
        <time>2021-05-24T14:02:45Z</time>
      </trkpt>
      <trkpt lat="43.41131" lon="2.4142">
        <ele>710.823</ele>
        <time>2021-05-24T14:02:47Z</time>
      </trkpt>
      <trkpt lat="43.41135" lon="2.41418">
        <ele>711.741</ele>
        <time>2021-05-24T14:02:49Z</time>
      </trkpt>
      <trkpt lat="43.41139" lon="2.41416">
        <ele>712.924</ele>
        <time>2021-05-24T14:02:51Z</time>
      </trkpt>
      <trkpt lat="43.41143" lon="2.41413">
        <ele>713.8</ele>
        <time>2021-05-24T14:02:53Z</time>
      </trkpt>
      <trkpt lat="43.41147" lon="2.41411">
        <ele>714.927</ele>
        <time>2021-05-24T14:02:55Z</time>
      </trkpt>
      <trkpt lat="43.4115" lon="2.41408">
        <ele>715.313</ele>
        <time>2021-05-24T14:02:57Z</time>
      </trkpt>
      <trkpt lat="43.41155" lon="2.41405">
        <ele>717.355</ele>
        <time>2021-05-24T14:02:59Z</time>
      </trkpt>
      <trkpt lat="43.41156" lon="2.41403">
        <ele>717.993</ele>
        <time>2021-05-24T14:03:01Z</time>
      </trkpt>
      <trkpt lat="43.41159" lon="2.414">
        <ele>718.136</ele>
        <time>2021-05-24T14:03:03Z</time>
      </trkpt>
      <trkpt lat="43.41163" lon="2.41398">
        <ele>717.963</ele>
        <time>2021-05-24T14:03:05Z</time>
      </trkpt>
      <trkpt lat="43.41166" lon="2.41395">
        <ele>716.85</ele>
        <time>2021-05-24T14:03:07Z</time>
      </trkpt>
      <trkpt lat="43.41169" lon="2.41393">
        <ele>716.955</ele>
        <time>2021-05-24T14:03:09Z</time>
      </trkpt>
      <trkpt lat="43.41171" lon="2.4139">
        <ele>717.135</ele>
        <time>2021-05-24T14:03:11Z</time>
      </trkpt>
      <trkpt lat="43.41174" lon="2.41387">
        <ele>717.053</ele>
        <time>2021-05-24T14:03:13Z</time>
      </trkpt>
      <trkpt lat="43.41176" lon="2.41384">
        <ele>715.748</ele>
        <time>2021-05-24T14:03:15Z</time>
      </trkpt>
      <trkpt lat="43.41179" lon="2.41382">
        <ele>715.169</ele>
        <time>2021-05-24T14:03:17Z</time>
      </trkpt>
      <trkpt lat="43.41182" lon="2.41379">
        <ele>714.941</ele>
        <time>2021-05-24T14:03:19Z</time>
      </trkpt>
      <trkpt lat="43.41185" lon="2.41377">
        <ele>714.265</ele>
        <time>2021-05-24T14:03:21Z</time>
      </trkpt>
      <trkpt lat="43.41187" lon="2.41375">
        <ele>713.087</ele>
        <time>2021-05-24T14:03:23Z</time>
      </trkpt>
      <trkpt lat="43.41191" lon="2.41372">
        <ele>713.65</ele>
        <time>2021-05-24T14:03:25Z</time>
      </trkpt>
      <trkpt lat="43.41194" lon="2.41369">
        <ele>713.083</ele>
        <time>2021-05-24T14:03:27Z</time>
      </trkpt>
      <trkpt lat="43.41196" lon="2.41366">
        <ele>713.184</ele>
        <time>2021-05-24T14:03:29Z</time>
      </trkpt>
      <trkpt lat="43.41199" lon="2.41363">
        <ele>712.778</ele>
        <time>2021-05-24T14:03:31Z</time>
      </trkpt>
      <trkpt lat="43.41201" lon="2.4136">
        <ele>711.609</ele>
        <time>2021-05-24T14:03:33Z</time>
      </trkpt>
      <trkpt lat="43.41204" lon="2.41358">
        <ele>710.628</ele>
        <time>2021-05-24T14:03:35Z</time>
      </trkpt>
      <trkpt lat="43.41206" lon="2.41356">
        <ele>710.279</ele>
        <time>2021-05-24T14:03:37Z</time>
      </trkpt>
      <trkpt lat="43.41209" lon="2.41353">
        <ele>710.218</ele>
        <time>2021-05-24T14:03:39Z</time>
      </trkpt>
      <trkpt lat="43.41212" lon="2.41351">
        <ele>710.37</ele>
        <time>2021-05-24T14:03:41Z</time>
      </trkpt>
      <trkpt lat="43.41214" lon="2.41348">
        <ele>709.901</ele>
        <time>2021-05-24T14:03:43Z</time>
      </trkpt>
      <trkpt lat="43.41216" lon="2.41346">
        <ele>710.433</ele>
        <time>2021-05-24T14:03:45Z</time>
      </trkpt>
      <trkpt lat="43.41219" lon="2.41343">
        <ele>710.736</ele>
        <time>2021-05-24T14:03:47Z</time>
      </trkpt>
      <trkpt lat="43.41221" lon="2.41341">
        <ele>711.669</ele>
        <time>2021-05-24T14:03:49Z</time>
      </trkpt>
      <trkpt lat="43.41224" lon="2.41339">
        <ele>710.51</ele>
        <time>2021-05-24T14:03:51Z</time>
      </trkpt>
      <trkpt lat="43.41226" lon="2.41336">
        <ele>710.432</ele>
        <time>2021-05-24T14:03:53Z</time>
      </trkpt>
      <trkpt lat="43.41229" lon="2.41334">
        <ele>708.963</ele>
        <time>2021-05-24T14:03:55Z</time>
      </trkpt>
      <trkpt lat="43.41232" lon="2.41331">
        <ele>709.061</ele>
        <time>2021-05-24T14:03:57Z</time>
      </trkpt>
      <trkpt lat="43.41234" lon="2.41329">
        <ele>708.787</ele>
        <time>2021-05-24T14:03:59Z</time>
      </trkpt>
      <trkpt lat="43.41237" lon="2.41326">
        <ele>708.924</ele>
        <time>2021-05-24T14:04:01Z</time>
      </trkpt>
      <trkpt lat="43.4124" lon="2.41325">
        <ele>709.694</ele>
        <time>2021-05-24T14:04:03Z</time>
      </trkpt>
      <trkpt lat="43.41243" lon="2.41323">
        <ele>710.526</ele>
        <time>2021-05-24T14:04:05Z</time>
      </trkpt>
      <trkpt lat="43.41246" lon="2.41321">
        <ele>711.12</ele>
        <time>2021-05-24T14:04:07Z</time>
      </trkpt>
      <trkpt lat="43.41249" lon="2.41321">
        <ele>711.017</ele>
        <time>2021-05-24T14:04:09Z</time>
      </trkpt>
      <trkpt lat="43.41252" lon="2.4132">
        <ele>710.976</ele>
        <time>2021-05-24T14:04:11Z</time>
      </trkpt>
      <trkpt lat="43.41255" lon="2.4132">
        <ele>711.837</ele>
        <time>2021-05-24T14:04:13Z</time>
      </trkpt>
      <trkpt lat="43.41258" lon="2.41317">
        <ele>712.233</ele>
        <time>2021-05-24T14:04:15Z</time>
      </trkpt>
      <trkpt lat="43.41261" lon="2.41316">
        <ele>712.19</ele>
        <time>2021-05-24T14:04:17Z</time>
      </trkpt>
      <trkpt lat="43.41264" lon="2.41315">
        <ele>712.332</ele>
        <time>2021-05-24T14:04:19Z</time>
      </trkpt>
      <trkpt lat="43.41267" lon="2.41314">
        <ele>711.962</ele>
        <time>2021-05-24T14:04:21Z</time>
      </trkpt>
      <trkpt lat="43.4127" lon="2.41313">
        <ele>711.164</ele>
        <time>2021-05-24T14:04:23Z</time>
      </trkpt>
      <trkpt lat="43.41273" lon="2.41312">
        <ele>710.099</ele>
        <time>2021-05-24T14:04:25Z</time>
      </trkpt>
      <trkpt lat="43.41276" lon="2.41311">
        <ele>711.178</ele>
        <time>2021-05-24T14:04:27Z</time>
      </trkpt>
      <trkpt lat="43.41279" lon="2.41312">
        <ele>712.217</ele>
        <time>2021-05-24T14:04:29Z</time>
      </trkpt>
      <trkpt lat="43.41282" lon="2.41312">
        <ele>713.192</ele>
        <time>2021-05-24T14:04:31Z</time>
      </trkpt>
      <trkpt lat="43.41285" lon="2.41311">
        <ele>713.555</ele>
        <time>2021-05-24T14:04:33Z</time>
      </trkpt>
      <trkpt lat="43.41288" lon="2.4131">
        <ele>712.965</ele>
        <time>2021-05-24T14:04:35Z</time>
      </trkpt>
      <trkpt lat="43.41291" lon="2.4131">
        <ele>712.271</ele>
        <time>2021-05-24T14:04:37Z</time>
      </trkpt>
      <trkpt lat="43.41294" lon="2.4131">
        <ele>711.638</ele>
        <time>2021-05-24T14:04:39Z</time>
      </trkpt>
      <trkpt lat="43.41297" lon="2.41309">
        <ele>711.904</ele>
        <time>2021-05-24T14:04:41Z</time>
      </trkpt>
      <trkpt lat="43.41301" lon="2.41309">
        <ele>711.752</ele>
        <time>2021-05-24T14:04:43Z</time>
      </trkpt>
      <trkpt lat="43.41304" lon="2.41309">
        <ele>711.898</ele>
        <time>2021-05-24T14:04:45Z</time>
      </trkpt>
      <trkpt lat="43.41307" lon="2.41309">
        <ele>711.957</ele>
        <time>2021-05-24T14:04:47Z</time>
      </trkpt>
      <trkpt lat="43.4131" lon="2.41308">
        <ele>711.404</ele>
        <time>2021-05-24T14:04:49Z</time>
      </trkpt>
      <trkpt lat="43.41313" lon="2.41308">
        <ele>713.826</ele>
        <time>2021-05-24T14:04:51Z</time>
      </trkpt>
      <trkpt lat="43.41316" lon="2.41308">
        <ele>713.931</ele>
        <time>2021-05-24T14:04:53Z</time>
      </trkpt>
      <trkpt lat="43.41319" lon="2.41306">
        <ele>714.582</ele>
        <time>2021-05-24T14:04:55Z</time>
      </trkpt>
      <trkpt lat="43.41322" lon="2.41305">
        <ele>714.187</ele>
        <time>2021-05-24T14:04:57Z</time>
      </trkpt>
      <trkpt lat="43.41325" lon="2.41303">
        <ele>713.082</ele>
        <time>2021-05-24T14:04:59Z</time>
      </trkpt>
      <trkpt lat="43.41328" lon="2.41302">
        <ele>713.475</ele>
        <time>2021-05-24T14:05:01Z</time>
      </trkpt>
      <trkpt lat="43.41331" lon="2.41301">
        <ele>712.156</ele>
        <time>2021-05-24T14:05:03Z</time>
      </trkpt>
      <trkpt lat="43.41334" lon="2.41299">
        <ele>712.077</ele>
        <time>2021-05-24T14:05:05Z</time>
      </trkpt>
      <trkpt lat="43.41337" lon="2.41296">
        <ele>711.276</ele>
        <time>2021-05-24T14:05:07Z</time>
      </trkpt>
      <trkpt lat="43.41339" lon="2.41294">
        <ele>713.059</ele>
        <time>2021-05-24T14:05:09Z</time>
      </trkpt>
      <trkpt lat="43.41342" lon="2.41291">
        <ele>713.509</ele>
        <time>2021-05-24T14:05:11Z</time>
      </trkpt>
      <trkpt lat="43.41344" lon="2.41289">
        <ele>710.704</ele>
        <time>2021-05-24T14:05:13Z</time>
      </trkpt>
      <trkpt lat="43.41347" lon="2.41286">
        <ele>710.938</ele>
        <time>2021-05-24T14:05:15Z</time>
      </trkpt>
      <trkpt lat="43.41349" lon="2.41283">
        <ele>710.768</ele>
        <time>2021-05-24T14:05:17Z</time>
      </trkpt>
      <trkpt lat="43.41351" lon="2.4128">
        <ele>710.084</ele>
        <time>2021-05-24T14:05:19Z</time>
      </trkpt>
      <trkpt lat="43.41353" lon="2.41277">
        <ele>710.365</ele>
        <time>2021-05-24T14:05:21Z</time>
      </trkpt>
      <trkpt lat="43.41355" lon="2.41275">
        <ele>710.387</ele>
        <time>2021-05-24T14:05:23Z</time>
      </trkpt>
      <trkpt lat="43.41358" lon="2.41272">
        <ele>710.838</ele>
        <time>2021-05-24T14:05:25Z</time>
      </trkpt>
      <trkpt lat="43.41359" lon="2.41268">
        <ele>710.478</ele>
        <time>2021-05-24T14:05:27Z</time>
      </trkpt>
      <trkpt lat="43.4136" lon="2.41265">
        <ele>709.886</ele>
        <time>2021-05-24T14:05:29Z</time>
      </trkpt>
      <trkpt lat="43.41362" lon="2.41261">
        <ele>710.083</ele>
        <time>2021-05-24T14:05:31Z</time>
      </trkpt>
      <trkpt lat="43.41363" lon="2.41257">
        <ele>710.552</ele>
        <time>2021-05-24T14:05:33Z</time>
      </trkpt>
      <trkpt lat="43.41364" lon="2.41254">
        <ele>710.52</ele>
        <time>2021-05-24T14:05:35Z</time>
      </trkpt>
      <trkpt lat="43.41365" lon="2.4125">
        <ele>709.853</ele>
        <time>2021-05-24T14:05:37Z</time>
      </trkpt>
      <trkpt lat="43.41365" lon="2.41246">
        <ele>710.259</ele>
        <time>2021-05-24T14:05:39Z</time>
      </trkpt>
      <trkpt lat="43.41366" lon="2.41243">
        <ele>710.17</ele>
        <time>2021-05-24T14:05:41Z</time>
      </trkpt>
      <trkpt lat="43.41365" lon="2.41239">
        <ele>710.93</ele>
        <time>2021-05-24T14:05:43Z</time>
      </trkpt>
      <trkpt lat="43.41364" lon="2.41237">
        <ele>711.672</ele>
        <time>2021-05-24T14:05:45Z</time>
      </trkpt>
      <trkpt lat="43.41364" lon="2.41238">
        <ele>711.664</ele>
        <time>2021-05-24T14:05:47Z</time>
      </trkpt>
      <trkpt lat="43.41364" lon="2.41238">
        <ele>711.662</ele>
        <time>2021-05-24T14:05:49Z</time>
      </trkpt>
      <trkpt lat="43.41364" lon="2.41238">
        <ele>711.662</ele>
        <time>2021-05-24T14:05:51Z</time>
      </trkpt>
      <trkpt lat="43.41364" lon="2.41238">
        <ele>711.666</ele>
        <time>2021-05-24T14:05:53Z</time>
      </trkpt>
      <trkpt lat="43.41364" lon="2.41238">
        <ele>711.662</ele>
        <time>2021-05-24T14:05:55Z</time>
      </trkpt>
      <trkpt lat="43.41364" lon="2.41238">
        <ele>711.675</ele>
        <time>2021-05-24T14:05:57Z</time>
      </trkpt>
      <trkpt lat="43.41364" lon="2.41238">
        <ele>711.685</ele>
        <time>2021-05-24T14:05:59Z</time>
      </trkpt>
      <trkpt lat="43.41364" lon="2.41238">
        <ele>711.704</ele>
        <time>2021-05-24T14:06:01Z</time>
      </trkpt>
      <trkpt lat="43.41364" lon="2.41238">
        <ele>711.712</ele>
        <time>2021-05-24T14:06:03Z</time>
      </trkpt>
      <trkpt lat="43.41364" lon="2.41238">
        <ele>711.714</ele>
        <time>2021-05-24T14:06:05Z</time>
      </trkpt>
      <trkpt lat="43.41364" lon="2.41238">
        <ele>711.719</ele>
        <time>2021-05-24T14:06:07Z</time>
      </trkpt>
      <trkpt lat="43.41364" lon="2.41238">
        <ele>711.708</ele>
        <time>2021-05-24T14:06:09Z</time>
      </trkpt>
      <trkpt lat="43.41364" lon="2.41238">
        <ele>711.71</ele>
        <time>2021-05-24T14:06:11Z</time>
      </trkpt>
      <trkpt lat="43.41364" lon="2.41238">
        <ele>711.713</ele>
        <time>2021-05-24T14:06:13Z</time>
      </trkpt>
      <trkpt lat="43.41364" lon="2.41238">
        <ele>711.713</ele>
        <time>2021-05-24T14:06:15Z</time>
      </trkpt>
      <trkpt lat="43.41364" lon="2.41238">
        <ele>711.717</ele>
        <time>2021-05-24T14:06:17Z</time>
      </trkpt>
      <trkpt lat="43.41364" lon="2.41238">
        <ele>711.716</ele>
        <time>2021-05-24T14:06:19Z</time>
      </trkpt>
      <trkpt lat="43.41364" lon="2.41238">
        <ele>711.711</ele>
        <time>2021-05-24T14:06:21Z</time>
      </trkpt>
      <trkpt lat="43.41364" lon="2.41238">
        <ele>711.707</ele>
        <time>2021-05-24T14:06:23Z</time>
      </trkpt>
      <trkpt lat="43.41364" lon="2.41238">
        <ele>712.013</ele>
        <time>2021-05-24T14:06:25Z</time>
      </trkpt>
      <trkpt lat="43.41364" lon="2.41238">
        <ele>712.011</ele>
        <time>2021-05-24T14:06:27Z</time>
      </trkpt>
      <trkpt lat="43.41364" lon="2.41238">
        <ele>712.213</ele>
        <time>2021-05-24T14:06:29Z</time>
      </trkpt>
      <trkpt lat="43.41364" lon="2.41237">
        <ele>712.221</ele>
        <time>2021-05-24T14:06:31Z</time>
      </trkpt>
      <trkpt lat="43.41364" lon="2.41237">
        <ele>712.336</ele>
        <time>2021-05-24T14:06:33Z</time>
      </trkpt>
      <trkpt lat="43.41363" lon="2.41237">
        <ele>712.332</ele>
        <time>2021-05-24T14:06:35Z</time>
      </trkpt>
      <trkpt lat="43.41363" lon="2.41238">
        <ele>711.404</ele>
        <time>2021-05-24T14:06:37Z</time>
      </trkpt>
      <trkpt lat="43.41363" lon="2.41239">
        <ele>711.17</ele>
        <time>2021-05-24T14:06:39Z</time>
      </trkpt>
      <trkpt lat="43.41363" lon="2.41239">
        <ele>711.167</ele>
        <time>2021-05-24T14:06:41Z</time>
      </trkpt>
      <trkpt lat="43.41363" lon="2.41239">
        <ele>711.162</ele>
        <time>2021-05-24T14:06:43Z</time>
      </trkpt>
      <trkpt lat="43.41363" lon="2.41239">
        <ele>711.16</ele>
        <time>2021-05-24T14:06:45Z</time>
      </trkpt>
      <trkpt lat="43.41363" lon="2.41239">
        <ele>711.151</ele>
        <time>2021-05-24T14:06:47Z</time>
      </trkpt>
      <trkpt lat="43.41363" lon="2.41239">
        <ele>711.141</ele>
        <time>2021-05-24T14:06:49Z</time>
      </trkpt>
      <trkpt lat="43.41363" lon="2.41239">
        <ele>711.263</ele>
        <time>2021-05-24T14:06:51Z</time>
      </trkpt>
      <trkpt lat="43.41363" lon="2.41239">
        <ele>711.267</ele>
        <time>2021-05-24T14:06:53Z</time>
      </trkpt>
      <trkpt lat="43.41364" lon="2.41239">
        <ele>711.267</ele>
        <time>2021-05-24T14:06:55Z</time>
      </trkpt>
      <trkpt lat="43.41363" lon="2.41239">
        <ele>710.838</ele>
        <time>2021-05-24T14:06:57Z</time>
      </trkpt>
      <trkpt lat="43.41363" lon="2.41239">
        <ele>711.389</ele>
        <time>2021-05-24T14:06:59Z</time>
      </trkpt>
      <trkpt lat="43.41363" lon="2.41239">
        <ele>711.387</ele>
        <time>2021-05-24T14:07:01Z</time>
      </trkpt>
      <trkpt lat="43.41363" lon="2.41239">
        <ele>711.388</ele>
        <time>2021-05-24T14:07:03Z</time>
      </trkpt>
      <trkpt lat="43.41363" lon="2.41239">
        <ele>711.389</ele>
        <time>2021-05-24T14:07:05Z</time>
      </trkpt>
      <trkpt lat="43.41363" lon="2.41239">
        <ele>711.389</ele>
        <time>2021-05-24T14:07:07Z</time>
      </trkpt>
      <trkpt lat="43.41363" lon="2.41239">
        <ele>711.39</ele>
        <time>2021-05-24T14:07:09Z</time>
      </trkpt>
      <trkpt lat="43.41363" lon="2.41239">
        <ele>711.551</ele>
        <time>2021-05-24T14:07:11Z</time>
      </trkpt>
      <trkpt lat="43.41363" lon="2.41238">
        <ele>711.819</ele>
        <time>2021-05-24T14:07:13Z</time>
      </trkpt>
      <trkpt lat="43.41363" lon="2.41238">
        <ele>712.636</ele>
        <time>2021-05-24T14:07:15Z</time>
      </trkpt>
      <trkpt lat="43.41363" lon="2.41239">
        <ele>712.623</ele>
        <time>2021-05-24T14:07:17Z</time>
      </trkpt>
      <trkpt lat="43.41363" lon="2.41239">
        <ele>712.624</ele>
        <time>2021-05-24T14:07:19Z</time>
      </trkpt>
      <trkpt lat="43.41363" lon="2.41239">
        <ele>712.627</ele>
        <time>2021-05-24T14:07:21Z</time>
      </trkpt>
      <trkpt lat="43.41363" lon="2.41239">
        <ele>712.187</ele>
        <time>2021-05-24T14:07:23Z</time>
      </trkpt>
      <trkpt lat="43.41363" lon="2.41239">
        <ele>712.186</ele>
        <time>2021-05-24T14:07:25Z</time>
      </trkpt>
      <trkpt lat="43.41363" lon="2.41239">
        <ele>712.179</ele>
        <time>2021-05-24T14:07:27Z</time>
      </trkpt>
      <trkpt lat="43.41363" lon="2.41239">
        <ele>712.124</ele>
        <time>2021-05-24T14:07:29Z</time>
      </trkpt>
      <trkpt lat="43.41364" lon="2.41239">
        <ele>712.256</ele>
        <time>2021-05-24T14:07:31Z</time>
      </trkpt>
      <trkpt lat="43.41364" lon="2.41239">
        <ele>712.324</ele>
        <time>2021-05-24T14:07:33Z</time>
      </trkpt>
      <trkpt lat="43.41363" lon="2.41239">
        <ele>712.306</ele>
        <time>2021-05-24T14:07:35Z</time>
      </trkpt>
      <trkpt lat="43.41364" lon="2.41238">
        <ele>712.33</ele>
        <time>2021-05-24T14:07:37Z</time>
      </trkpt>
      <trkpt lat="43.41364" lon="2.41237">
        <ele>711.361</ele>
        <time>2021-05-24T14:07:39Z</time>
      </trkpt>
      <trkpt lat="43.41364" lon="2.41235">
        <ele>711.32</ele>
        <time>2021-05-24T14:07:41Z</time>
      </trkpt>
      <trkpt lat="43.41364" lon="2.41235">
        <ele>711.212</ele>
        <time>2021-05-24T14:07:43Z</time>
      </trkpt>
      <trkpt lat="43.41364" lon="2.41235">
        <ele>711.392</ele>
        <time>2021-05-24T14:07:45Z</time>
      </trkpt>
      <trkpt lat="43.41364" lon="2.41236">
        <ele>710.972</ele>
        <time>2021-05-24T14:07:47Z</time>
      </trkpt>
      <trkpt lat="43.41364" lon="2.41238">
        <ele>710.58</ele>
        <time>2021-05-24T14:07:49Z</time>
      </trkpt>
      <trkpt lat="43.41364" lon="2.41241">
        <ele>710.635</ele>
        <time>2021-05-24T14:07:51Z</time>
      </trkpt>
      <trkpt lat="43.41365" lon="2.41241">
        <ele>709.64</ele>
        <time>2021-05-24T14:07:53Z</time>
      </trkpt>
      <trkpt lat="43.41366" lon="2.41241">
        <ele>708.92</ele>
        <time>2021-05-24T14:07:55Z</time>
      </trkpt>
      <trkpt lat="43.41366" lon="2.41241">
        <ele>709.131</ele>
        <time>2021-05-24T14:07:57Z</time>
      </trkpt>
      <trkpt lat="43.41366" lon="2.41241">
        <ele>709.126</ele>
        <time>2021-05-24T14:07:59Z</time>
      </trkpt>
      <trkpt lat="43.41366" lon="2.41241">
        <ele>708.165</ele>
        <time>2021-05-24T14:08:01Z</time>
      </trkpt>
      <trkpt lat="43.41366" lon="2.41241">
        <ele>708.142</ele>
        <time>2021-05-24T14:08:03Z</time>
      </trkpt>
      <trkpt lat="43.41366" lon="2.41241">
        <ele>707.916</ele>
        <time>2021-05-24T14:08:05Z</time>
      </trkpt>
      <trkpt lat="43.41366" lon="2.41241">
        <ele>707.955</ele>
        <time>2021-05-24T14:08:07Z</time>
      </trkpt>
    </trkseg>
  </trk>
</gpx>